<?xml version="1.0" encoding="UTF-8" standalone="no" ?>
<gpx xmlns="http://www.topografix.com/GPX/1/1" xmlns:xsi="http://www.w3.org/2001/XMLSchema-instance" xsi:schemaLocation="http://www.topografix.com/GPX/1/1 http://www.topografix.com/GPX/1/1/gpx.xsd" version="1.1" creator="VisuGPX - https://www.visugpx.com">
  <metadata>
    <name>ski de rando GRANDE CHIBLE W</name>
  </metadata>
  <trk>
    <name><![CDATA[ski de rando GRANDE CHIBLE W]]></name>
    <trkseg>
      <trkpt lat="45.20583" lon="6.34163">
        <ele>1653.8000488281</ele>
        <time>2014-01-11T07:08:00.000Z</time>
      </trkpt>
      <trkpt lat="45.20583" lon="6.34163">
        <ele>1654.1999511719</ele>
        <time>2014-01-11T07:08:04.000Z</time>
      </trkpt>
      <trkpt lat="45.20583" lon="6.34163">
        <ele>1654.4000244141</ele>
        <time>2014-01-11T07:08:05.000Z</time>
      </trkpt>
      <trkpt lat="45.20583" lon="6.34163">
        <ele>1654.4000244141</ele>
        <time>2014-01-11T07:08:06.000Z</time>
      </trkpt>
      <trkpt lat="45.20583" lon="6.34163">
        <ele>1654.4000244141</ele>
        <time>2014-01-11T07:08:07.000Z</time>
      </trkpt>
      <trkpt lat="45.20583" lon="6.34163">
        <ele>1654.1999511719</ele>
        <time>2014-01-11T07:08:08.000Z</time>
      </trkpt>
      <trkpt lat="45.20583" lon="6.34163">
        <ele>1654.1999511719</ele>
        <time>2014-01-11T07:08:09.000Z</time>
      </trkpt>
      <trkpt lat="45.20583" lon="6.34163">
        <ele>1654</ele>
        <time>2014-01-11T07:08:10.000Z</time>
      </trkpt>
      <trkpt lat="45.20583" lon="6.34163">
        <ele>1654</ele>
        <time>2014-01-11T07:08:11.000Z</time>
      </trkpt>
      <trkpt lat="45.20583" lon="6.34163">
        <ele>1654</ele>
        <time>2014-01-11T07:08:12.000Z</time>
      </trkpt>
      <trkpt lat="45.20583" lon="6.34164">
        <ele>1653.8000488281</ele>
        <time>2014-01-11T07:08:13.000Z</time>
      </trkpt>
      <trkpt lat="45.20584" lon="6.34164">
        <ele>1653.8000488281</ele>
        <time>2014-01-11T07:08:14.000Z</time>
      </trkpt>
      <trkpt lat="45.20585" lon="6.34164">
        <ele>1653.8000488281</ele>
        <time>2014-01-11T07:08:15.000Z</time>
      </trkpt>
      <trkpt lat="45.20585" lon="6.34164">
        <ele>1653.8000488281</ele>
        <time>2014-01-11T07:08:16.000Z</time>
      </trkpt>
      <trkpt lat="45.20585" lon="6.34164">
        <ele>1653.5999755859</ele>
        <time>2014-01-11T07:08:17.000Z</time>
      </trkpt>
      <trkpt lat="45.20585" lon="6.34164">
        <ele>1653.5999755859</ele>
        <time>2014-01-11T07:08:19.000Z</time>
      </trkpt>
      <trkpt lat="45.20585" lon="6.34164">
        <ele>1653.5999755859</ele>
        <time>2014-01-11T07:08:20.000Z</time>
      </trkpt>
      <trkpt lat="45.20585" lon="6.34164">
        <ele>1653.5999755859</ele>
        <time>2014-01-11T07:08:21.000Z</time>
      </trkpt>
      <trkpt lat="45.20585" lon="6.34164">
        <ele>1653.5999755859</ele>
        <time>2014-01-11T07:08:22.000Z</time>
      </trkpt>
      <trkpt lat="45.20585" lon="6.34164">
        <ele>1653.5999755859</ele>
        <time>2014-01-11T07:08:23.000Z</time>
      </trkpt>
      <trkpt lat="45.20585" lon="6.34164">
        <ele>1653.5999755859</ele>
        <time>2014-01-11T07:08:24.000Z</time>
      </trkpt>
      <trkpt lat="45.20585" lon="6.34164">
        <ele>1653.5999755859</ele>
        <time>2014-01-11T07:08:25.000Z</time>
      </trkpt>
      <trkpt lat="45.20585" lon="6.34164">
        <ele>1653.5999755859</ele>
        <time>2014-01-11T07:08:26.000Z</time>
      </trkpt>
      <trkpt lat="45.20585" lon="6.34164">
        <ele>1653.5999755859</ele>
        <time>2014-01-11T07:08:27.000Z</time>
      </trkpt>
      <trkpt lat="45.20585" lon="6.34164">
        <ele>1653.5999755859</ele>
        <time>2014-01-11T07:08:28.000Z</time>
      </trkpt>
      <trkpt lat="45.20585" lon="6.34164">
        <ele>1653.5999755859</ele>
        <time>2014-01-11T07:08:29.000Z</time>
      </trkpt>
      <trkpt lat="45.20585" lon="6.34164">
        <ele>1653.5999755859</ele>
        <time>2014-01-11T07:08:30.000Z</time>
      </trkpt>
      <trkpt lat="45.20585" lon="6.34164">
        <ele>1653.5999755859</ele>
        <time>2014-01-11T07:08:31.000Z</time>
      </trkpt>
      <trkpt lat="45.20585" lon="6.34164">
        <ele>1653.5999755859</ele>
        <time>2014-01-11T07:08:32.000Z</time>
      </trkpt>
      <trkpt lat="45.20585" lon="6.34164">
        <ele>1653.5999755859</ele>
        <time>2014-01-11T07:08:33.000Z</time>
      </trkpt>
      <trkpt lat="45.20585" lon="6.34164">
        <ele>1653.5999755859</ele>
        <time>2014-01-11T07:08:34.000Z</time>
      </trkpt>
      <trkpt lat="45.20585" lon="6.34164">
        <ele>1653.5999755859</ele>
        <time>2014-01-11T07:08:35.000Z</time>
      </trkpt>
      <trkpt lat="45.20585" lon="6.34164">
        <ele>1653.5999755859</ele>
        <time>2014-01-11T07:08:36.000Z</time>
      </trkpt>
      <trkpt lat="45.20585" lon="6.34164">
        <ele>1653.5999755859</ele>
        <time>2014-01-11T07:08:37.000Z</time>
      </trkpt>
      <trkpt lat="45.20585" lon="6.34164">
        <ele>1653.5999755859</ele>
        <time>2014-01-11T07:08:38.000Z</time>
      </trkpt>
      <trkpt lat="45.20585" lon="6.34164">
        <ele>1653.5999755859</ele>
        <time>2014-01-11T07:08:39.000Z</time>
      </trkpt>
      <trkpt lat="45.20584" lon="6.34164">
        <ele>1653.5999755859</ele>
        <time>2014-01-11T07:08:41.000Z</time>
      </trkpt>
      <trkpt lat="45.20585" lon="6.34163">
        <ele>1653.5999755859</ele>
        <time>2014-01-11T07:08:42.000Z</time>
      </trkpt>
      <trkpt lat="45.20585" lon="6.34163">
        <ele>1653.5999755859</ele>
        <time>2014-01-11T07:08:43.000Z</time>
      </trkpt>
      <trkpt lat="45.20585" lon="6.34163">
        <ele>1653.5999755859</ele>
        <time>2014-01-11T07:08:44.000Z</time>
      </trkpt>
      <trkpt lat="45.20585" lon="6.34163">
        <ele>1653.5999755859</ele>
        <time>2014-01-11T07:08:45.000Z</time>
      </trkpt>
      <trkpt lat="45.20585" lon="6.34163">
        <ele>1653.5999755859</ele>
        <time>2014-01-11T07:08:46.000Z</time>
      </trkpt>
      <trkpt lat="45.20585" lon="6.34163">
        <ele>1653.5999755859</ele>
        <time>2014-01-11T07:08:48.000Z</time>
      </trkpt>
      <trkpt lat="45.20585" lon="6.34163">
        <ele>1653.5999755859</ele>
        <time>2014-01-11T07:08:49.000Z</time>
      </trkpt>
      <trkpt lat="45.20585" lon="6.34163">
        <ele>1653.4000244141</ele>
        <time>2014-01-11T07:08:50.000Z</time>
      </trkpt>
      <trkpt lat="45.20586" lon="6.34163">
        <ele>1653.4000244141</ele>
        <time>2014-01-11T07:08:51.000Z</time>
      </trkpt>
      <trkpt lat="45.20586" lon="6.34163">
        <ele>1653.1999511719</ele>
        <time>2014-01-11T07:08:52.000Z</time>
      </trkpt>
      <trkpt lat="45.20586" lon="6.34163">
        <ele>1653.1999511719</ele>
        <time>2014-01-11T07:08:53.000Z</time>
      </trkpt>
      <trkpt lat="45.20586" lon="6.34163">
        <ele>1653.1999511719</ele>
        <time>2014-01-11T07:08:54.000Z</time>
      </trkpt>
      <trkpt lat="45.20586" lon="6.34163">
        <ele>1653</ele>
        <time>2014-01-11T07:08:55.000Z</time>
      </trkpt>
      <trkpt lat="45.20586" lon="6.34163">
        <ele>1653.1999511719</ele>
        <time>2014-01-11T07:08:56.000Z</time>
      </trkpt>
      <trkpt lat="45.20586" lon="6.34163">
        <ele>1653.1999511719</ele>
        <time>2014-01-11T07:08:57.000Z</time>
      </trkpt>
      <trkpt lat="45.20586" lon="6.34163">
        <ele>1653.4000244141</ele>
        <time>2014-01-11T07:08:58.000Z</time>
      </trkpt>
      <trkpt lat="45.20586" lon="6.34163">
        <ele>1653.4000244141</ele>
        <time>2014-01-11T07:08:59.000Z</time>
      </trkpt>
      <trkpt lat="45.20586" lon="6.34163">
        <ele>1653.4000244141</ele>
        <time>2014-01-11T07:09:00.000Z</time>
      </trkpt>
      <trkpt lat="45.20586" lon="6.34163">
        <ele>1653.4000244141</ele>
        <time>2014-01-11T07:09:01.000Z</time>
      </trkpt>
      <trkpt lat="45.20586" lon="6.34163">
        <ele>1653.4000244141</ele>
        <time>2014-01-11T07:09:02.000Z</time>
      </trkpt>
      <trkpt lat="45.20586" lon="6.34163">
        <ele>1653.1999511719</ele>
        <time>2014-01-11T07:09:03.000Z</time>
      </trkpt>
      <trkpt lat="45.20586" lon="6.34163">
        <ele>1653.1999511719</ele>
        <time>2014-01-11T07:09:04.000Z</time>
      </trkpt>
      <trkpt lat="45.20586" lon="6.34163">
        <ele>1653.1999511719</ele>
        <time>2014-01-11T07:09:05.000Z</time>
      </trkpt>
      <trkpt lat="45.20586" lon="6.34163">
        <ele>1653.1999511719</ele>
        <time>2014-01-11T07:09:08.000Z</time>
      </trkpt>
      <trkpt lat="45.20586" lon="6.34163">
        <ele>1653.1999511719</ele>
        <time>2014-01-11T07:09:09.000Z</time>
      </trkpt>
      <trkpt lat="45.20586" lon="6.34163">
        <ele>1653.1999511719</ele>
        <time>2014-01-11T07:09:10.000Z</time>
      </trkpt>
      <trkpt lat="45.20586" lon="6.34163">
        <ele>1653.1999511719</ele>
        <time>2014-01-11T07:09:11.000Z</time>
      </trkpt>
      <trkpt lat="45.20586" lon="6.34163">
        <ele>1653.1999511719</ele>
        <time>2014-01-11T07:09:12.000Z</time>
      </trkpt>
      <trkpt lat="45.20583" lon="6.34164">
        <ele>1653.1999511719</ele>
        <time>2014-01-11T07:09:14.000Z</time>
      </trkpt>
      <trkpt lat="45.20583" lon="6.34165">
        <ele>1653.1999511719</ele>
        <time>2014-01-11T07:09:15.000Z</time>
      </trkpt>
      <trkpt lat="45.20582" lon="6.34166">
        <ele>1653.4000244141</ele>
        <time>2014-01-11T07:09:16.000Z</time>
      </trkpt>
      <trkpt lat="45.20581" lon="6.3417">
        <ele>1653.4000244141</ele>
        <time>2014-01-11T07:09:17.000Z</time>
      </trkpt>
      <trkpt lat="45.2058" lon="6.34172">
        <ele>1653.4000244141</ele>
        <time>2014-01-11T07:09:20.000Z</time>
      </trkpt>
      <trkpt lat="45.20579" lon="6.34173">
        <ele>1653.4000244141</ele>
        <time>2014-01-11T07:09:21.000Z</time>
      </trkpt>
      <trkpt lat="45.20578" lon="6.34175">
        <ele>1653.4000244141</ele>
        <time>2014-01-11T07:09:22.000Z</time>
      </trkpt>
      <trkpt lat="45.20578" lon="6.34177">
        <ele>1653.5999755859</ele>
        <time>2014-01-11T07:09:23.000Z</time>
      </trkpt>
      <trkpt lat="45.20577" lon="6.34179">
        <ele>1653.8000488281</ele>
        <time>2014-01-11T07:09:24.000Z</time>
      </trkpt>
      <trkpt lat="45.20576" lon="6.34181">
        <ele>1654</ele>
        <time>2014-01-11T07:09:25.000Z</time>
      </trkpt>
      <trkpt lat="45.20575" lon="6.34182">
        <ele>1654.1999511719</ele>
        <time>2014-01-11T07:09:26.000Z</time>
      </trkpt>
      <trkpt lat="45.20574" lon="6.34183">
        <ele>1654.1999511719</ele>
        <time>2014-01-11T07:09:27.000Z</time>
      </trkpt>
      <trkpt lat="45.20574" lon="6.34184">
        <ele>1654.1999511719</ele>
        <time>2014-01-11T07:09:28.000Z</time>
      </trkpt>
      <trkpt lat="45.20574" lon="6.34185">
        <ele>1654.1999511719</ele>
        <time>2014-01-11T07:09:30.000Z</time>
      </trkpt>
      <trkpt lat="45.20574" lon="6.34185">
        <ele>1654.1999511719</ele>
        <time>2014-01-11T07:09:31.000Z</time>
      </trkpt>
      <trkpt lat="45.20574" lon="6.34185">
        <ele>1654.4000244141</ele>
        <time>2014-01-11T07:09:32.000Z</time>
      </trkpt>
      <trkpt lat="45.20574" lon="6.34185">
        <ele>1654.4000244141</ele>
        <time>2014-01-11T07:09:33.000Z</time>
      </trkpt>
      <trkpt lat="45.20574" lon="6.34185">
        <ele>1654.5999755859</ele>
        <time>2014-01-11T07:09:34.000Z</time>
      </trkpt>
      <trkpt lat="45.20574" lon="6.34185">
        <ele>1654.5999755859</ele>
        <time>2014-01-11T07:09:35.000Z</time>
      </trkpt>
      <trkpt lat="45.20574" lon="6.34185">
        <ele>1654.5999755859</ele>
        <time>2014-01-11T07:09:36.000Z</time>
      </trkpt>
      <trkpt lat="45.20574" lon="6.34185">
        <ele>1654.5999755859</ele>
        <time>2014-01-11T07:09:37.000Z</time>
      </trkpt>
      <trkpt lat="45.20574" lon="6.34185">
        <ele>1654.5999755859</ele>
        <time>2014-01-11T07:09:38.000Z</time>
      </trkpt>
      <trkpt lat="45.20574" lon="6.34185">
        <ele>1654.5999755859</ele>
        <time>2014-01-11T07:09:39.000Z</time>
      </trkpt>
      <trkpt lat="45.20574" lon="6.34185">
        <ele>1654.5999755859</ele>
        <time>2014-01-11T07:09:40.000Z</time>
      </trkpt>
      <trkpt lat="45.20574" lon="6.34185">
        <ele>1654.5999755859</ele>
        <time>2014-01-11T07:09:42.000Z</time>
      </trkpt>
      <trkpt lat="45.20574" lon="6.34185">
        <ele>1654.5999755859</ele>
        <time>2014-01-11T07:09:43.000Z</time>
      </trkpt>
      <trkpt lat="45.20574" lon="6.34185">
        <ele>1654.5999755859</ele>
        <time>2014-01-11T07:09:44.000Z</time>
      </trkpt>
      <trkpt lat="45.20574" lon="6.34185">
        <ele>1654.5999755859</ele>
        <time>2014-01-11T07:09:45.000Z</time>
      </trkpt>
      <trkpt lat="45.20574" lon="6.34185">
        <ele>1654.8000488281</ele>
        <time>2014-01-11T07:09:46.000Z</time>
      </trkpt>
      <trkpt lat="45.20574" lon="6.34185">
        <ele>1654.8000488281</ele>
        <time>2014-01-11T07:09:48.000Z</time>
      </trkpt>
      <trkpt lat="45.20574" lon="6.34185">
        <ele>1654.8000488281</ele>
        <time>2014-01-11T07:09:51.000Z</time>
      </trkpt>
      <trkpt lat="45.20574" lon="6.34185">
        <ele>1654.8000488281</ele>
        <time>2014-01-11T07:09:52.000Z</time>
      </trkpt>
      <trkpt lat="45.20574" lon="6.34185">
        <ele>1654.8000488281</ele>
        <time>2014-01-11T07:09:55.000Z</time>
      </trkpt>
      <trkpt lat="45.20574" lon="6.34185">
        <ele>1654.8000488281</ele>
        <time>2014-01-11T07:09:56.000Z</time>
      </trkpt>
      <trkpt lat="45.20574" lon="6.34185">
        <ele>1654.8000488281</ele>
        <time>2014-01-11T07:09:57.000Z</time>
      </trkpt>
      <trkpt lat="45.20574" lon="6.34185">
        <ele>1654.8000488281</ele>
        <time>2014-01-11T07:10:01.000Z</time>
      </trkpt>
      <trkpt lat="45.20574" lon="6.34185">
        <ele>1654.8000488281</ele>
        <time>2014-01-11T07:10:02.000Z</time>
      </trkpt>
      <trkpt lat="45.20574" lon="6.34185">
        <ele>1654.8000488281</ele>
        <time>2014-01-11T07:10:03.000Z</time>
      </trkpt>
      <trkpt lat="45.20574" lon="6.34185">
        <ele>1654.5999755859</ele>
        <time>2014-01-11T07:10:04.000Z</time>
      </trkpt>
      <trkpt lat="45.20574" lon="6.34185">
        <ele>1654.5999755859</ele>
        <time>2014-01-11T07:10:05.000Z</time>
      </trkpt>
      <trkpt lat="45.20574" lon="6.34185">
        <ele>1654.5999755859</ele>
        <time>2014-01-11T07:10:06.000Z</time>
      </trkpt>
      <trkpt lat="45.20574" lon="6.34186">
        <ele>1654.5999755859</ele>
        <time>2014-01-11T07:10:07.000Z</time>
      </trkpt>
      <trkpt lat="45.20573" lon="6.34186">
        <ele>1654.8000488281</ele>
        <time>2014-01-11T07:10:08.000Z</time>
      </trkpt>
      <trkpt lat="45.20573" lon="6.34186">
        <ele>1654.8000488281</ele>
        <time>2014-01-11T07:10:09.000Z</time>
      </trkpt>
      <trkpt lat="45.20573" lon="6.34187">
        <ele>1655</ele>
        <time>2014-01-11T07:10:10.000Z</time>
      </trkpt>
      <trkpt lat="45.20573" lon="6.34187">
        <ele>1655.1999511719</ele>
        <time>2014-01-11T07:10:11.000Z</time>
      </trkpt>
      <trkpt lat="45.20573" lon="6.34187">
        <ele>1655.1999511719</ele>
        <time>2014-01-11T07:10:12.000Z</time>
      </trkpt>
      <trkpt lat="45.20573" lon="6.34187">
        <ele>1655.1999511719</ele>
        <time>2014-01-11T07:10:13.000Z</time>
      </trkpt>
      <trkpt lat="45.20573" lon="6.34187">
        <ele>1655.1999511719</ele>
        <time>2014-01-11T07:10:14.000Z</time>
      </trkpt>
      <trkpt lat="45.20573" lon="6.34187">
        <ele>1655.1999511719</ele>
        <time>2014-01-11T07:10:15.000Z</time>
      </trkpt>
      <trkpt lat="45.20572" lon="6.34188">
        <ele>1655.1999511719</ele>
        <time>2014-01-11T07:10:16.000Z</time>
      </trkpt>
      <trkpt lat="45.2057" lon="6.34188">
        <ele>1655.1999511719</ele>
        <time>2014-01-11T07:10:17.000Z</time>
      </trkpt>
      <trkpt lat="45.2057" lon="6.34189">
        <ele>1655.1999511719</ele>
        <time>2014-01-11T07:10:18.000Z</time>
      </trkpt>
      <trkpt lat="45.20569" lon="6.34189">
        <ele>1655.4000244141</ele>
        <time>2014-01-11T07:10:19.000Z</time>
      </trkpt>
      <trkpt lat="45.20568" lon="6.3419">
        <ele>1655.5999755859</ele>
        <time>2014-01-11T07:10:20.000Z</time>
      </trkpt>
      <trkpt lat="45.20566" lon="6.34191">
        <ele>1655.5999755859</ele>
        <time>2014-01-11T07:10:21.000Z</time>
      </trkpt>
      <trkpt lat="45.20565" lon="6.34192">
        <ele>1655.5999755859</ele>
        <time>2014-01-11T07:10:22.000Z</time>
      </trkpt>
      <trkpt lat="45.20563" lon="6.34193">
        <ele>1655.5999755859</ele>
        <time>2014-01-11T07:10:23.000Z</time>
      </trkpt>
      <trkpt lat="45.20561" lon="6.34194">
        <ele>1655.5999755859</ele>
        <time>2014-01-11T07:10:24.000Z</time>
      </trkpt>
      <trkpt lat="45.2056" lon="6.34195">
        <ele>1655.8000488281</ele>
        <time>2014-01-11T07:10:25.000Z</time>
      </trkpt>
      <trkpt lat="45.20559" lon="6.34195">
        <ele>1655.8000488281</ele>
        <time>2014-01-11T07:10:26.000Z</time>
      </trkpt>
      <trkpt lat="45.20558" lon="6.34196">
        <ele>1656</ele>
        <time>2014-01-11T07:10:27.000Z</time>
      </trkpt>
      <trkpt lat="45.20557" lon="6.34196">
        <ele>1656</ele>
        <time>2014-01-11T07:10:28.000Z</time>
      </trkpt>
      <trkpt lat="45.20555" lon="6.34197">
        <ele>1656.1999511719</ele>
        <time>2014-01-11T07:10:29.000Z</time>
      </trkpt>
      <trkpt lat="45.20554" lon="6.34198">
        <ele>1656.4000244141</ele>
        <time>2014-01-11T07:10:30.000Z</time>
      </trkpt>
      <trkpt lat="45.20552" lon="6.34198">
        <ele>1656.4000244141</ele>
        <time>2014-01-11T07:10:31.000Z</time>
      </trkpt>
      <trkpt lat="45.20551" lon="6.34198">
        <ele>1656.5999755859</ele>
        <time>2014-01-11T07:10:32.000Z</time>
      </trkpt>
      <trkpt lat="45.2055" lon="6.34198">
        <ele>1656.8000488281</ele>
        <time>2014-01-11T07:10:33.000Z</time>
      </trkpt>
      <trkpt lat="45.20549" lon="6.34198">
        <ele>1656.8000488281</ele>
        <time>2014-01-11T07:10:34.000Z</time>
      </trkpt>
      <trkpt lat="45.20548" lon="6.34199">
        <ele>1657</ele>
        <time>2014-01-11T07:10:35.000Z</time>
      </trkpt>
      <trkpt lat="45.20546" lon="6.34199">
        <ele>1657</ele>
        <time>2014-01-11T07:10:36.000Z</time>
      </trkpt>
      <trkpt lat="45.20544" lon="6.342">
        <ele>1657</ele>
        <time>2014-01-11T07:10:37.000Z</time>
      </trkpt>
      <trkpt lat="45.20542" lon="6.34201">
        <ele>1657.1999511719</ele>
        <time>2014-01-11T07:10:38.000Z</time>
      </trkpt>
      <trkpt lat="45.20541" lon="6.34201">
        <ele>1657.4000244141</ele>
        <time>2014-01-11T07:10:39.000Z</time>
      </trkpt>
      <trkpt lat="45.20539" lon="6.34201">
        <ele>1657.4000244141</ele>
        <time>2014-01-11T07:10:40.000Z</time>
      </trkpt>
      <trkpt lat="45.20538" lon="6.34202">
        <ele>1657.5999755859</ele>
        <time>2014-01-11T07:10:41.000Z</time>
      </trkpt>
      <trkpt lat="45.20536" lon="6.34202">
        <ele>1657.8000488281</ele>
        <time>2014-01-11T07:10:42.000Z</time>
      </trkpt>
      <trkpt lat="45.20535" lon="6.34202">
        <ele>1658</ele>
        <time>2014-01-11T07:10:43.000Z</time>
      </trkpt>
      <trkpt lat="45.20534" lon="6.34203">
        <ele>1658</ele>
        <time>2014-01-11T07:10:44.000Z</time>
      </trkpt>
      <trkpt lat="45.20533" lon="6.34203">
        <ele>1658.1999511719</ele>
        <time>2014-01-11T07:10:45.000Z</time>
      </trkpt>
      <trkpt lat="45.20532" lon="6.34203">
        <ele>1658.4000244141</ele>
        <time>2014-01-11T07:10:46.000Z</time>
      </trkpt>
      <trkpt lat="45.2053" lon="6.34204">
        <ele>1658.4000244141</ele>
        <time>2014-01-11T07:10:47.000Z</time>
      </trkpt>
      <trkpt lat="45.20529" lon="6.34205">
        <ele>1658.5999755859</ele>
        <time>2014-01-11T07:10:48.000Z</time>
      </trkpt>
      <trkpt lat="45.20528" lon="6.34205">
        <ele>1658.8000488281</ele>
        <time>2014-01-11T07:10:49.000Z</time>
      </trkpt>
      <trkpt lat="45.20527" lon="6.34206">
        <ele>1658.8000488281</ele>
        <time>2014-01-11T07:10:50.000Z</time>
      </trkpt>
      <trkpt lat="45.20525" lon="6.34206">
        <ele>1659</ele>
        <time>2014-01-11T07:10:51.000Z</time>
      </trkpt>
      <trkpt lat="45.20524" lon="6.34207">
        <ele>1659.1999511719</ele>
        <time>2014-01-11T07:10:52.000Z</time>
      </trkpt>
      <trkpt lat="45.20522" lon="6.34207">
        <ele>1659.1999511719</ele>
        <time>2014-01-11T07:10:53.000Z</time>
      </trkpt>
      <trkpt lat="45.2052" lon="6.34207">
        <ele>1659.4000244141</ele>
        <time>2014-01-11T07:10:54.000Z</time>
      </trkpt>
      <trkpt lat="45.2052" lon="6.34207">
        <ele>1659.5999755859</ele>
        <time>2014-01-11T07:10:55.000Z</time>
      </trkpt>
      <trkpt lat="45.20519" lon="6.34208">
        <ele>1659.5999755859</ele>
        <time>2014-01-11T07:10:56.000Z</time>
      </trkpt>
      <trkpt lat="45.20517" lon="6.34209">
        <ele>1659.8000488281</ele>
        <time>2014-01-11T07:10:57.000Z</time>
      </trkpt>
      <trkpt lat="45.20516" lon="6.34209">
        <ele>1660</ele>
        <time>2014-01-11T07:10:58.000Z</time>
      </trkpt>
      <trkpt lat="45.20514" lon="6.3421">
        <ele>1660</ele>
        <time>2014-01-11T07:10:59.000Z</time>
      </trkpt>
      <trkpt lat="45.20514" lon="6.3421">
        <ele>1660.1999511719</ele>
        <time>2014-01-11T07:11:00.000Z</time>
      </trkpt>
      <trkpt lat="45.20512" lon="6.34211">
        <ele>1660.1999511719</ele>
        <time>2014-01-11T07:11:01.000Z</time>
      </trkpt>
      <trkpt lat="45.20511" lon="6.34212">
        <ele>1660.4000244141</ele>
        <time>2014-01-11T07:11:02.000Z</time>
      </trkpt>
      <trkpt lat="45.20509" lon="6.34212">
        <ele>1660.5999755859</ele>
        <time>2014-01-11T07:11:03.000Z</time>
      </trkpt>
      <trkpt lat="45.20507" lon="6.34213">
        <ele>1660.5999755859</ele>
        <time>2014-01-11T07:11:04.000Z</time>
      </trkpt>
      <trkpt lat="45.20506" lon="6.34213">
        <ele>1660.8000488281</ele>
        <time>2014-01-11T07:11:05.000Z</time>
      </trkpt>
      <trkpt lat="45.20506" lon="6.34213">
        <ele>1661</ele>
        <time>2014-01-11T07:11:06.000Z</time>
      </trkpt>
      <trkpt lat="45.20504" lon="6.34214">
        <ele>1661.1999511719</ele>
        <time>2014-01-11T07:11:07.000Z</time>
      </trkpt>
      <trkpt lat="45.20503" lon="6.34215">
        <ele>1661.1999511719</ele>
        <time>2014-01-11T07:11:08.000Z</time>
      </trkpt>
      <trkpt lat="45.20502" lon="6.34215">
        <ele>1661.4000244141</ele>
        <time>2014-01-11T07:11:09.000Z</time>
      </trkpt>
      <trkpt lat="45.20501" lon="6.34216">
        <ele>1661.5999755859</ele>
        <time>2014-01-11T07:11:10.000Z</time>
      </trkpt>
      <trkpt lat="45.20501" lon="6.34216">
        <ele>1661.5999755859</ele>
        <time>2014-01-11T07:11:11.000Z</time>
      </trkpt>
      <trkpt lat="45.20501" lon="6.34216">
        <ele>1661.8000488281</ele>
        <time>2014-01-11T07:11:12.000Z</time>
      </trkpt>
      <trkpt lat="45.20501" lon="6.34216">
        <ele>1661.8000488281</ele>
        <time>2014-01-11T07:11:13.000Z</time>
      </trkpt>
      <trkpt lat="45.20501" lon="6.34216">
        <ele>1661.8000488281</ele>
        <time>2014-01-11T07:11:14.000Z</time>
      </trkpt>
      <trkpt lat="45.205" lon="6.34216">
        <ele>1661.8000488281</ele>
        <time>2014-01-11T07:11:15.000Z</time>
      </trkpt>
      <trkpt lat="45.20499" lon="6.34216">
        <ele>1662</ele>
        <time>2014-01-11T07:11:16.000Z</time>
      </trkpt>
      <trkpt lat="45.20498" lon="6.34217">
        <ele>1662.1999511719</ele>
        <time>2014-01-11T07:11:17.000Z</time>
      </trkpt>
      <trkpt lat="45.20496" lon="6.34218">
        <ele>1662.4000244141</ele>
        <time>2014-01-11T07:11:18.000Z</time>
      </trkpt>
      <trkpt lat="45.20494" lon="6.34218">
        <ele>1662.4000244141</ele>
        <time>2014-01-11T07:11:19.000Z</time>
      </trkpt>
      <trkpt lat="45.20493" lon="6.34218">
        <ele>1662.5999755859</ele>
        <time>2014-01-11T07:11:20.000Z</time>
      </trkpt>
      <trkpt lat="45.20492" lon="6.34218">
        <ele>1662.5999755859</ele>
        <time>2014-01-11T07:11:21.000Z</time>
      </trkpt>
      <trkpt lat="45.20491" lon="6.34218">
        <ele>1662.5999755859</ele>
        <time>2014-01-11T07:11:22.000Z</time>
      </trkpt>
      <trkpt lat="45.20489" lon="6.34219">
        <ele>1662.8000488281</ele>
        <time>2014-01-11T07:11:23.000Z</time>
      </trkpt>
      <trkpt lat="45.20488" lon="6.34219">
        <ele>1662.8000488281</ele>
        <time>2014-01-11T07:11:24.000Z</time>
      </trkpt>
      <trkpt lat="45.20487" lon="6.3422">
        <ele>1663</ele>
        <time>2014-01-11T07:11:25.000Z</time>
      </trkpt>
      <trkpt lat="45.20485" lon="6.3422">
        <ele>1663.1999511719</ele>
        <time>2014-01-11T07:11:26.000Z</time>
      </trkpt>
      <trkpt lat="45.20484" lon="6.3422">
        <ele>1663.4000244141</ele>
        <time>2014-01-11T07:11:27.000Z</time>
      </trkpt>
      <trkpt lat="45.20482" lon="6.3422">
        <ele>1663.5999755859</ele>
        <time>2014-01-11T07:11:28.000Z</time>
      </trkpt>
      <trkpt lat="45.20481" lon="6.3422">
        <ele>1663.5999755859</ele>
        <time>2014-01-11T07:11:29.000Z</time>
      </trkpt>
      <trkpt lat="45.2048" lon="6.3422">
        <ele>1664</ele>
        <time>2014-01-11T07:11:30.000Z</time>
      </trkpt>
      <trkpt lat="45.20478" lon="6.34221">
        <ele>1664</ele>
        <time>2014-01-11T07:11:31.000Z</time>
      </trkpt>
      <trkpt lat="45.20477" lon="6.34222">
        <ele>1664.1999511719</ele>
        <time>2014-01-11T07:11:32.000Z</time>
      </trkpt>
      <trkpt lat="45.20475" lon="6.34222">
        <ele>1664.4000244141</ele>
        <time>2014-01-11T07:11:33.000Z</time>
      </trkpt>
      <trkpt lat="45.20474" lon="6.34222">
        <ele>1664.5999755859</ele>
        <time>2014-01-11T07:11:34.000Z</time>
      </trkpt>
      <trkpt lat="45.20473" lon="6.34222">
        <ele>1664.5999755859</ele>
        <time>2014-01-11T07:11:35.000Z</time>
      </trkpt>
      <trkpt lat="45.20471" lon="6.34222">
        <ele>1664.8000488281</ele>
        <time>2014-01-11T07:11:36.000Z</time>
      </trkpt>
      <trkpt lat="45.20469" lon="6.34223">
        <ele>1665</ele>
        <time>2014-01-11T07:11:37.000Z</time>
      </trkpt>
      <trkpt lat="45.20468" lon="6.34223">
        <ele>1665.1999511719</ele>
        <time>2014-01-11T07:11:38.000Z</time>
      </trkpt>
      <trkpt lat="45.20467" lon="6.34223">
        <ele>1665.4000244141</ele>
        <time>2014-01-11T07:11:39.000Z</time>
      </trkpt>
      <trkpt lat="45.20466" lon="6.34223">
        <ele>1665.5999755859</ele>
        <time>2014-01-11T07:11:40.000Z</time>
      </trkpt>
      <trkpt lat="45.20465" lon="6.34224">
        <ele>1665.8000488281</ele>
        <time>2014-01-11T07:11:41.000Z</time>
      </trkpt>
      <trkpt lat="45.20463" lon="6.34224">
        <ele>1666</ele>
        <time>2014-01-11T07:11:42.000Z</time>
      </trkpt>
      <trkpt lat="45.20462" lon="6.34226">
        <ele>1666.1999511719</ele>
        <time>2014-01-11T07:11:43.000Z</time>
      </trkpt>
      <trkpt lat="45.20461" lon="6.34226">
        <ele>1666.1999511719</ele>
        <time>2014-01-11T07:11:44.000Z</time>
      </trkpt>
      <trkpt lat="45.2046" lon="6.34227">
        <ele>1666.4000244141</ele>
        <time>2014-01-11T07:11:45.000Z</time>
      </trkpt>
      <trkpt lat="45.20459" lon="6.34229">
        <ele>1666.5999755859</ele>
        <time>2014-01-11T07:11:46.000Z</time>
      </trkpt>
      <trkpt lat="45.20458" lon="6.3423">
        <ele>1666.8000488281</ele>
        <time>2014-01-11T07:11:47.000Z</time>
      </trkpt>
      <trkpt lat="45.20457" lon="6.3423">
        <ele>1667</ele>
        <time>2014-01-11T07:11:48.000Z</time>
      </trkpt>
      <trkpt lat="45.20456" lon="6.34231">
        <ele>1667</ele>
        <time>2014-01-11T07:11:49.000Z</time>
      </trkpt>
      <trkpt lat="45.20455" lon="6.34232">
        <ele>1667.1999511719</ele>
        <time>2014-01-11T07:11:50.000Z</time>
      </trkpt>
      <trkpt lat="45.20454" lon="6.34234">
        <ele>1667.4000244141</ele>
        <time>2014-01-11T07:11:51.000Z</time>
      </trkpt>
      <trkpt lat="45.20454" lon="6.34235">
        <ele>1667.5999755859</ele>
        <time>2014-01-11T07:11:52.000Z</time>
      </trkpt>
      <trkpt lat="45.20453" lon="6.34236">
        <ele>1667.8000488281</ele>
        <time>2014-01-11T07:11:53.000Z</time>
      </trkpt>
      <trkpt lat="45.20452" lon="6.34237">
        <ele>1668</ele>
        <time>2014-01-11T07:11:54.000Z</time>
      </trkpt>
      <trkpt lat="45.20452" lon="6.34239">
        <ele>1668.1999511719</ele>
        <time>2014-01-11T07:11:55.000Z</time>
      </trkpt>
      <trkpt lat="45.20451" lon="6.3424">
        <ele>1668.4000244141</ele>
        <time>2014-01-11T07:11:56.000Z</time>
      </trkpt>
      <trkpt lat="45.20451" lon="6.34242">
        <ele>1668.5999755859</ele>
        <time>2014-01-11T07:11:57.000Z</time>
      </trkpt>
      <trkpt lat="45.2045" lon="6.34243">
        <ele>1668.8000488281</ele>
        <time>2014-01-11T07:11:58.000Z</time>
      </trkpt>
      <trkpt lat="45.2045" lon="6.34245">
        <ele>1669</ele>
        <time>2014-01-11T07:11:59.000Z</time>
      </trkpt>
      <trkpt lat="45.20449" lon="6.34247">
        <ele>1669.1999511719</ele>
        <time>2014-01-11T07:12:00.000Z</time>
      </trkpt>
      <trkpt lat="45.20449" lon="6.34248">
        <ele>1669.4000244141</ele>
        <time>2014-01-11T07:12:01.000Z</time>
      </trkpt>
      <trkpt lat="45.20448" lon="6.3425">
        <ele>1669.5999755859</ele>
        <time>2014-01-11T07:12:02.000Z</time>
      </trkpt>
      <trkpt lat="45.20448" lon="6.34252">
        <ele>1669.5999755859</ele>
        <time>2014-01-11T07:12:03.000Z</time>
      </trkpt>
      <trkpt lat="45.20447" lon="6.34254">
        <ele>1669.8000488281</ele>
        <time>2014-01-11T07:12:04.000Z</time>
      </trkpt>
      <trkpt lat="45.20447" lon="6.34256">
        <ele>1670</ele>
        <time>2014-01-11T07:12:05.000Z</time>
      </trkpt>
      <trkpt lat="45.20446" lon="6.34257">
        <ele>1670</ele>
        <time>2014-01-11T07:12:06.000Z</time>
      </trkpt>
      <trkpt lat="45.20446" lon="6.34258">
        <ele>1670.1999511719</ele>
        <time>2014-01-11T07:12:07.000Z</time>
      </trkpt>
      <trkpt lat="45.20445" lon="6.3426">
        <ele>1670.4000244141</ele>
        <time>2014-01-11T07:12:08.000Z</time>
      </trkpt>
      <trkpt lat="45.20444" lon="6.34262">
        <ele>1670.5999755859</ele>
        <time>2014-01-11T07:12:09.000Z</time>
      </trkpt>
      <trkpt lat="45.20444" lon="6.34264">
        <ele>1670.5999755859</ele>
        <time>2014-01-11T07:12:10.000Z</time>
      </trkpt>
      <trkpt lat="45.20444" lon="6.34265">
        <ele>1670.8000488281</ele>
        <time>2014-01-11T07:12:11.000Z</time>
      </trkpt>
      <trkpt lat="45.20443" lon="6.34266">
        <ele>1671</ele>
        <time>2014-01-11T07:12:12.000Z</time>
      </trkpt>
      <trkpt lat="45.20443" lon="6.34268">
        <ele>1671</ele>
        <time>2014-01-11T07:12:13.000Z</time>
      </trkpt>
      <trkpt lat="45.20442" lon="6.34271">
        <ele>1671.1999511719</ele>
        <time>2014-01-11T07:12:14.000Z</time>
      </trkpt>
      <trkpt lat="45.20442" lon="6.34272">
        <ele>1671.1999511719</ele>
        <time>2014-01-11T07:12:15.000Z</time>
      </trkpt>
      <trkpt lat="45.20441" lon="6.34274">
        <ele>1671.4000244141</ele>
        <time>2014-01-11T07:12:16.000Z</time>
      </trkpt>
      <trkpt lat="45.2044" lon="6.34275">
        <ele>1671.5999755859</ele>
        <time>2014-01-11T07:12:17.000Z</time>
      </trkpt>
      <trkpt lat="45.2044" lon="6.34277">
        <ele>1671.8000488281</ele>
        <time>2014-01-11T07:12:18.000Z</time>
      </trkpt>
      <trkpt lat="45.2044" lon="6.34279">
        <ele>1672</ele>
        <time>2014-01-11T07:12:19.000Z</time>
      </trkpt>
      <trkpt lat="45.20439" lon="6.34281">
        <ele>1672.1999511719</ele>
        <time>2014-01-11T07:12:20.000Z</time>
      </trkpt>
      <trkpt lat="45.20439" lon="6.34282">
        <ele>1672.4000244141</ele>
        <time>2014-01-11T07:12:21.000Z</time>
      </trkpt>
      <trkpt lat="45.20438" lon="6.34284">
        <ele>1672.4000244141</ele>
        <time>2014-01-11T07:12:22.000Z</time>
      </trkpt>
      <trkpt lat="45.20438" lon="6.34286">
        <ele>1672.5999755859</ele>
        <time>2014-01-11T07:12:23.000Z</time>
      </trkpt>
      <trkpt lat="45.20437" lon="6.34287">
        <ele>1672.8000488281</ele>
        <time>2014-01-11T07:12:24.000Z</time>
      </trkpt>
      <trkpt lat="45.20437" lon="6.34288">
        <ele>1672.8000488281</ele>
        <time>2014-01-11T07:12:25.000Z</time>
      </trkpt>
      <trkpt lat="45.20436" lon="6.3429">
        <ele>1673</ele>
        <time>2014-01-11T07:12:26.000Z</time>
      </trkpt>
      <trkpt lat="45.20435" lon="6.34292">
        <ele>1673.1999511719</ele>
        <time>2014-01-11T07:12:27.000Z</time>
      </trkpt>
      <trkpt lat="45.20435" lon="6.34293">
        <ele>1673.4000244141</ele>
        <time>2014-01-11T07:12:28.000Z</time>
      </trkpt>
      <trkpt lat="45.20434" lon="6.34295">
        <ele>1673.4000244141</ele>
        <time>2014-01-11T07:12:29.000Z</time>
      </trkpt>
      <trkpt lat="45.20434" lon="6.34296">
        <ele>1673.5999755859</ele>
        <time>2014-01-11T07:12:30.000Z</time>
      </trkpt>
      <trkpt lat="45.20433" lon="6.34298">
        <ele>1673.8000488281</ele>
        <time>2014-01-11T07:12:31.000Z</time>
      </trkpt>
      <trkpt lat="45.20433" lon="6.343">
        <ele>1674</ele>
        <time>2014-01-11T07:12:32.000Z</time>
      </trkpt>
      <trkpt lat="45.20432" lon="6.34301">
        <ele>1674.1999511719</ele>
        <time>2014-01-11T07:12:33.000Z</time>
      </trkpt>
      <trkpt lat="45.20431" lon="6.34303">
        <ele>1674.1999511719</ele>
        <time>2014-01-11T07:12:34.000Z</time>
      </trkpt>
      <trkpt lat="45.20431" lon="6.34304">
        <ele>1674.4000244141</ele>
        <time>2014-01-11T07:12:35.000Z</time>
      </trkpt>
      <trkpt lat="45.2043" lon="6.34306">
        <ele>1674.5999755859</ele>
        <time>2014-01-11T07:12:36.000Z</time>
      </trkpt>
      <trkpt lat="45.20429" lon="6.34308">
        <ele>1674.8000488281</ele>
        <time>2014-01-11T07:12:37.000Z</time>
      </trkpt>
      <trkpt lat="45.20428" lon="6.3431">
        <ele>1674.8000488281</ele>
        <time>2014-01-11T07:12:38.000Z</time>
      </trkpt>
      <trkpt lat="45.20428" lon="6.34312">
        <ele>1675</ele>
        <time>2014-01-11T07:12:39.000Z</time>
      </trkpt>
      <trkpt lat="45.20427" lon="6.34313">
        <ele>1675</ele>
        <time>2014-01-11T07:12:40.000Z</time>
      </trkpt>
      <trkpt lat="45.20427" lon="6.34315">
        <ele>1675.1999511719</ele>
        <time>2014-01-11T07:12:41.000Z</time>
      </trkpt>
      <trkpt lat="45.20426" lon="6.34317">
        <ele>1675.4000244141</ele>
        <time>2014-01-11T07:12:42.000Z</time>
      </trkpt>
      <trkpt lat="45.20426" lon="6.34318">
        <ele>1675.5999755859</ele>
        <time>2014-01-11T07:12:43.000Z</time>
      </trkpt>
      <trkpt lat="45.20425" lon="6.34319">
        <ele>1675.5999755859</ele>
        <time>2014-01-11T07:12:44.000Z</time>
      </trkpt>
      <trkpt lat="45.20425" lon="6.34321">
        <ele>1675.8000488281</ele>
        <time>2014-01-11T07:12:45.000Z</time>
      </trkpt>
      <trkpt lat="45.20424" lon="6.34323">
        <ele>1676</ele>
        <time>2014-01-11T07:12:46.000Z</time>
      </trkpt>
      <trkpt lat="45.20424" lon="6.34325">
        <ele>1676.1999511719</ele>
        <time>2014-01-11T07:12:47.000Z</time>
      </trkpt>
      <trkpt lat="45.20423" lon="6.34327">
        <ele>1676.4000244141</ele>
        <time>2014-01-11T07:12:48.000Z</time>
      </trkpt>
      <trkpt lat="45.20423" lon="6.34328">
        <ele>1676.4000244141</ele>
        <time>2014-01-11T07:12:49.000Z</time>
      </trkpt>
      <trkpt lat="45.20423" lon="6.3433">
        <ele>1676.5999755859</ele>
        <time>2014-01-11T07:12:50.000Z</time>
      </trkpt>
      <trkpt lat="45.20422" lon="6.34332">
        <ele>1676.8000488281</ele>
        <time>2014-01-11T07:12:51.000Z</time>
      </trkpt>
      <trkpt lat="45.20422" lon="6.34334">
        <ele>1677</ele>
        <time>2014-01-11T07:12:52.000Z</time>
      </trkpt>
      <trkpt lat="45.20421" lon="6.34335">
        <ele>1677</ele>
        <time>2014-01-11T07:12:53.000Z</time>
      </trkpt>
      <trkpt lat="45.20421" lon="6.34337">
        <ele>1677.1999511719</ele>
        <time>2014-01-11T07:12:54.000Z</time>
      </trkpt>
      <trkpt lat="45.2042" lon="6.34338">
        <ele>1677.4000244141</ele>
        <time>2014-01-11T07:12:55.000Z</time>
      </trkpt>
      <trkpt lat="45.20419" lon="6.3434">
        <ele>1677.4000244141</ele>
        <time>2014-01-11T07:12:56.000Z</time>
      </trkpt>
      <trkpt lat="45.20419" lon="6.34342">
        <ele>1677.5999755859</ele>
        <time>2014-01-11T07:12:57.000Z</time>
      </trkpt>
      <trkpt lat="45.20418" lon="6.34343">
        <ele>1677.8000488281</ele>
        <time>2014-01-11T07:12:58.000Z</time>
      </trkpt>
      <trkpt lat="45.20417" lon="6.34345">
        <ele>1677.8000488281</ele>
        <time>2014-01-11T07:12:59.000Z</time>
      </trkpt>
      <trkpt lat="45.20417" lon="6.34346">
        <ele>1678</ele>
        <time>2014-01-11T07:13:00.000Z</time>
      </trkpt>
      <trkpt lat="45.20416" lon="6.34348">
        <ele>1678.1999511719</ele>
        <time>2014-01-11T07:13:01.000Z</time>
      </trkpt>
      <trkpt lat="45.20416" lon="6.34349">
        <ele>1678.1999511719</ele>
        <time>2014-01-11T07:13:02.000Z</time>
      </trkpt>
      <trkpt lat="45.20416" lon="6.3435">
        <ele>1678.4000244141</ele>
        <time>2014-01-11T07:13:03.000Z</time>
      </trkpt>
      <trkpt lat="45.20415" lon="6.34352">
        <ele>1678.5999755859</ele>
        <time>2014-01-11T07:13:04.000Z</time>
      </trkpt>
      <trkpt lat="45.20414" lon="6.34354">
        <ele>1678.5999755859</ele>
        <time>2014-01-11T07:13:05.000Z</time>
      </trkpt>
      <trkpt lat="45.20414" lon="6.34355">
        <ele>1679</ele>
        <time>2014-01-11T07:13:06.000Z</time>
      </trkpt>
      <trkpt lat="45.20413" lon="6.34356">
        <ele>1679.1999511719</ele>
        <time>2014-01-11T07:13:07.000Z</time>
      </trkpt>
      <trkpt lat="45.20413" lon="6.34358">
        <ele>1679.1999511719</ele>
        <time>2014-01-11T07:13:08.000Z</time>
      </trkpt>
      <trkpt lat="45.20412" lon="6.3436">
        <ele>1679.4000244141</ele>
        <time>2014-01-11T07:13:09.000Z</time>
      </trkpt>
      <trkpt lat="45.20412" lon="6.34361">
        <ele>1679.5999755859</ele>
        <time>2014-01-11T07:13:10.000Z</time>
      </trkpt>
      <trkpt lat="45.20411" lon="6.34362">
        <ele>1679.5999755859</ele>
        <time>2014-01-11T07:13:11.000Z</time>
      </trkpt>
      <trkpt lat="45.20411" lon="6.34364">
        <ele>1679.8000488281</ele>
        <time>2014-01-11T07:13:12.000Z</time>
      </trkpt>
      <trkpt lat="45.2041" lon="6.34366">
        <ele>1680</ele>
        <time>2014-01-11T07:13:13.000Z</time>
      </trkpt>
      <trkpt lat="45.2041" lon="6.34366">
        <ele>1680</ele>
        <time>2014-01-11T07:13:14.000Z</time>
      </trkpt>
      <trkpt lat="45.20409" lon="6.34368">
        <ele>1680.1999511719</ele>
        <time>2014-01-11T07:13:15.000Z</time>
      </trkpt>
      <trkpt lat="45.20409" lon="6.34369">
        <ele>1680.1999511719</ele>
        <time>2014-01-11T07:13:16.000Z</time>
      </trkpt>
      <trkpt lat="45.20409" lon="6.3437">
        <ele>1680.4000244141</ele>
        <time>2014-01-11T07:13:17.000Z</time>
      </trkpt>
      <trkpt lat="45.20408" lon="6.34371">
        <ele>1680.4000244141</ele>
        <time>2014-01-11T07:13:18.000Z</time>
      </trkpt>
      <trkpt lat="45.20407" lon="6.34372">
        <ele>1680.5999755859</ele>
        <time>2014-01-11T07:13:19.000Z</time>
      </trkpt>
      <trkpt lat="45.20407" lon="6.34373">
        <ele>1680.8000488281</ele>
        <time>2014-01-11T07:13:20.000Z</time>
      </trkpt>
      <trkpt lat="45.20406" lon="6.34375">
        <ele>1680.8000488281</ele>
        <time>2014-01-11T07:13:21.000Z</time>
      </trkpt>
      <trkpt lat="45.20406" lon="6.34376">
        <ele>1681</ele>
        <time>2014-01-11T07:13:22.000Z</time>
      </trkpt>
      <trkpt lat="45.20406" lon="6.34378">
        <ele>1681.1999511719</ele>
        <time>2014-01-11T07:13:23.000Z</time>
      </trkpt>
      <trkpt lat="45.20405" lon="6.34379">
        <ele>1681.4000244141</ele>
        <time>2014-01-11T07:13:24.000Z</time>
      </trkpt>
      <trkpt lat="45.20405" lon="6.3438">
        <ele>1681.4000244141</ele>
        <time>2014-01-11T07:13:25.000Z</time>
      </trkpt>
      <trkpt lat="45.20404" lon="6.34382">
        <ele>1681.5999755859</ele>
        <time>2014-01-11T07:13:26.000Z</time>
      </trkpt>
      <trkpt lat="45.20403" lon="6.34383">
        <ele>1681.5999755859</ele>
        <time>2014-01-11T07:13:27.000Z</time>
      </trkpt>
      <trkpt lat="45.20403" lon="6.34384">
        <ele>1681.8000488281</ele>
        <time>2014-01-11T07:13:28.000Z</time>
      </trkpt>
      <trkpt lat="45.20402" lon="6.34386">
        <ele>1682</ele>
        <time>2014-01-11T07:13:29.000Z</time>
      </trkpt>
      <trkpt lat="45.20401" lon="6.34387">
        <ele>1682.1999511719</ele>
        <time>2014-01-11T07:13:30.000Z</time>
      </trkpt>
      <trkpt lat="45.20401" lon="6.34388">
        <ele>1682.4000244141</ele>
        <time>2014-01-11T07:13:31.000Z</time>
      </trkpt>
      <trkpt lat="45.204" lon="6.34389">
        <ele>1682.5999755859</ele>
        <time>2014-01-11T07:13:32.000Z</time>
      </trkpt>
      <trkpt lat="45.20399" lon="6.34391">
        <ele>1682.5999755859</ele>
        <time>2014-01-11T07:13:33.000Z</time>
      </trkpt>
      <trkpt lat="45.20399" lon="6.34393">
        <ele>1682.8000488281</ele>
        <time>2014-01-11T07:13:34.000Z</time>
      </trkpt>
      <trkpt lat="45.20398" lon="6.34394">
        <ele>1682.8000488281</ele>
        <time>2014-01-11T07:13:35.000Z</time>
      </trkpt>
      <trkpt lat="45.20397" lon="6.34395">
        <ele>1683</ele>
        <time>2014-01-11T07:13:36.000Z</time>
      </trkpt>
      <trkpt lat="45.20397" lon="6.34396">
        <ele>1683</ele>
        <time>2014-01-11T07:13:37.000Z</time>
      </trkpt>
      <trkpt lat="45.20396" lon="6.34397">
        <ele>1683</ele>
        <time>2014-01-11T07:13:38.000Z</time>
      </trkpt>
      <trkpt lat="45.20396" lon="6.34398">
        <ele>1683.1999511719</ele>
        <time>2014-01-11T07:13:39.000Z</time>
      </trkpt>
      <trkpt lat="45.20395" lon="6.34399">
        <ele>1683.1999511719</ele>
        <time>2014-01-11T07:13:40.000Z</time>
      </trkpt>
      <trkpt lat="45.20394" lon="6.344">
        <ele>1683.4000244141</ele>
        <time>2014-01-11T07:13:41.000Z</time>
      </trkpt>
      <trkpt lat="45.20393" lon="6.34401">
        <ele>1683.4000244141</ele>
        <time>2014-01-11T07:13:42.000Z</time>
      </trkpt>
      <trkpt lat="45.20392" lon="6.34402">
        <ele>1683.5999755859</ele>
        <time>2014-01-11T07:13:43.000Z</time>
      </trkpt>
      <trkpt lat="45.20392" lon="6.34403">
        <ele>1683.8000488281</ele>
        <time>2014-01-11T07:13:44.000Z</time>
      </trkpt>
      <trkpt lat="45.20391" lon="6.34404">
        <ele>1683.8000488281</ele>
        <time>2014-01-11T07:13:45.000Z</time>
      </trkpt>
      <trkpt lat="45.20391" lon="6.34406">
        <ele>1684</ele>
        <time>2014-01-11T07:13:46.000Z</time>
      </trkpt>
      <trkpt lat="45.2039" lon="6.34407">
        <ele>1684</ele>
        <time>2014-01-11T07:13:47.000Z</time>
      </trkpt>
      <trkpt lat="45.20389" lon="6.34409">
        <ele>1684</ele>
        <time>2014-01-11T07:13:48.000Z</time>
      </trkpt>
      <trkpt lat="45.20389" lon="6.3441">
        <ele>1684</ele>
        <time>2014-01-11T07:13:49.000Z</time>
      </trkpt>
      <trkpt lat="45.20388" lon="6.34412">
        <ele>1684.1999511719</ele>
        <time>2014-01-11T07:13:50.000Z</time>
      </trkpt>
      <trkpt lat="45.20387" lon="6.34413">
        <ele>1684.1999511719</ele>
        <time>2014-01-11T07:13:51.000Z</time>
      </trkpt>
      <trkpt lat="45.20387" lon="6.34414">
        <ele>1684.4000244141</ele>
        <time>2014-01-11T07:13:52.000Z</time>
      </trkpt>
      <trkpt lat="45.20386" lon="6.34416">
        <ele>1684.5999755859</ele>
        <time>2014-01-11T07:13:53.000Z</time>
      </trkpt>
      <trkpt lat="45.20386" lon="6.34417">
        <ele>1684.8000488281</ele>
        <time>2014-01-11T07:13:54.000Z</time>
      </trkpt>
      <trkpt lat="45.20385" lon="6.34418">
        <ele>1684.8000488281</ele>
        <time>2014-01-11T07:13:55.000Z</time>
      </trkpt>
      <trkpt lat="45.20385" lon="6.3442">
        <ele>1685</ele>
        <time>2014-01-11T07:13:56.000Z</time>
      </trkpt>
      <trkpt lat="45.20384" lon="6.34421">
        <ele>1685</ele>
        <time>2014-01-11T07:13:57.000Z</time>
      </trkpt>
      <trkpt lat="45.20383" lon="6.34423">
        <ele>1685.1999511719</ele>
        <time>2014-01-11T07:13:58.000Z</time>
      </trkpt>
      <trkpt lat="45.20383" lon="6.34425">
        <ele>1685.1999511719</ele>
        <time>2014-01-11T07:13:59.000Z</time>
      </trkpt>
      <trkpt lat="45.20382" lon="6.34426">
        <ele>1685.1999511719</ele>
        <time>2014-01-11T07:14:00.000Z</time>
      </trkpt>
      <trkpt lat="45.20381" lon="6.34428">
        <ele>1685.1999511719</ele>
        <time>2014-01-11T07:14:01.000Z</time>
      </trkpt>
      <trkpt lat="45.20381" lon="6.34429">
        <ele>1685.4000244141</ele>
        <time>2014-01-11T07:14:02.000Z</time>
      </trkpt>
      <trkpt lat="45.2038" lon="6.3443">
        <ele>1685.5999755859</ele>
        <time>2014-01-11T07:14:03.000Z</time>
      </trkpt>
      <trkpt lat="45.2038" lon="6.34431">
        <ele>1685.8000488281</ele>
        <time>2014-01-11T07:14:04.000Z</time>
      </trkpt>
      <trkpt lat="45.2038" lon="6.34433">
        <ele>1685.8000488281</ele>
        <time>2014-01-11T07:14:05.000Z</time>
      </trkpt>
      <trkpt lat="45.2038" lon="6.34434">
        <ele>1686</ele>
        <time>2014-01-11T07:14:06.000Z</time>
      </trkpt>
      <trkpt lat="45.20379" lon="6.34435">
        <ele>1686</ele>
        <time>2014-01-11T07:14:07.000Z</time>
      </trkpt>
      <trkpt lat="45.20379" lon="6.34436">
        <ele>1686.1999511719</ele>
        <time>2014-01-11T07:14:08.000Z</time>
      </trkpt>
      <trkpt lat="45.20378" lon="6.34437">
        <ele>1686.1999511719</ele>
        <time>2014-01-11T07:14:09.000Z</time>
      </trkpt>
      <trkpt lat="45.20378" lon="6.34438">
        <ele>1686.4000244141</ele>
        <time>2014-01-11T07:14:10.000Z</time>
      </trkpt>
      <trkpt lat="45.20377" lon="6.34439">
        <ele>1686.5999755859</ele>
        <time>2014-01-11T07:14:11.000Z</time>
      </trkpt>
      <trkpt lat="45.20377" lon="6.34439">
        <ele>1686.8000488281</ele>
        <time>2014-01-11T07:14:12.000Z</time>
      </trkpt>
      <trkpt lat="45.20376" lon="6.3444">
        <ele>1686.8000488281</ele>
        <time>2014-01-11T07:14:13.000Z</time>
      </trkpt>
      <trkpt lat="45.20375" lon="6.34441">
        <ele>1687</ele>
        <time>2014-01-11T07:14:14.000Z</time>
      </trkpt>
      <trkpt lat="45.20374" lon="6.34441">
        <ele>1687.1999511719</ele>
        <time>2014-01-11T07:14:15.000Z</time>
      </trkpt>
      <trkpt lat="45.20373" lon="6.34442">
        <ele>1687.4000244141</ele>
        <time>2014-01-11T07:14:16.000Z</time>
      </trkpt>
      <trkpt lat="45.20372" lon="6.34442">
        <ele>1687.5999755859</ele>
        <time>2014-01-11T07:14:17.000Z</time>
      </trkpt>
      <trkpt lat="45.20372" lon="6.34443">
        <ele>1687.8000488281</ele>
        <time>2014-01-11T07:14:18.000Z</time>
      </trkpt>
      <trkpt lat="45.20371" lon="6.34443">
        <ele>1688</ele>
        <time>2014-01-11T07:14:19.000Z</time>
      </trkpt>
      <trkpt lat="45.2037" lon="6.34443">
        <ele>1688</ele>
        <time>2014-01-11T07:14:20.000Z</time>
      </trkpt>
      <trkpt lat="45.2037" lon="6.34443">
        <ele>1688.1999511719</ele>
        <time>2014-01-11T07:14:21.000Z</time>
      </trkpt>
      <trkpt lat="45.20368" lon="6.34444">
        <ele>1688.4000244141</ele>
        <time>2014-01-11T07:14:22.000Z</time>
      </trkpt>
      <trkpt lat="45.20368" lon="6.34444">
        <ele>1688.5999755859</ele>
        <time>2014-01-11T07:14:23.000Z</time>
      </trkpt>
      <trkpt lat="45.20367" lon="6.34445">
        <ele>1688.5999755859</ele>
        <time>2014-01-11T07:14:24.000Z</time>
      </trkpt>
      <trkpt lat="45.20366" lon="6.34445">
        <ele>1688.8000488281</ele>
        <time>2014-01-11T07:14:25.000Z</time>
      </trkpt>
      <trkpt lat="45.20365" lon="6.34445">
        <ele>1689</ele>
        <time>2014-01-11T07:14:26.000Z</time>
      </trkpt>
      <trkpt lat="45.20365" lon="6.34445">
        <ele>1689</ele>
        <time>2014-01-11T07:14:27.000Z</time>
      </trkpt>
      <trkpt lat="45.20363" lon="6.34445">
        <ele>1689.1999511719</ele>
        <time>2014-01-11T07:14:28.000Z</time>
      </trkpt>
      <trkpt lat="45.20362" lon="6.34445">
        <ele>1689.1999511719</ele>
        <time>2014-01-11T07:14:29.000Z</time>
      </trkpt>
      <trkpt lat="45.20361" lon="6.34445">
        <ele>1689.4000244141</ele>
        <time>2014-01-11T07:14:30.000Z</time>
      </trkpt>
      <trkpt lat="45.2036" lon="6.34444">
        <ele>1689.4000244141</ele>
        <time>2014-01-11T07:14:31.000Z</time>
      </trkpt>
      <trkpt lat="45.20359" lon="6.34444">
        <ele>1689.4000244141</ele>
        <time>2014-01-11T07:14:32.000Z</time>
      </trkpt>
      <trkpt lat="45.20358" lon="6.34444">
        <ele>1689.4000244141</ele>
        <time>2014-01-11T07:14:33.000Z</time>
      </trkpt>
      <trkpt lat="45.20357" lon="6.34444">
        <ele>1689.5999755859</ele>
        <time>2014-01-11T07:14:34.000Z</time>
      </trkpt>
      <trkpt lat="45.20356" lon="6.34444">
        <ele>1689.5999755859</ele>
        <time>2014-01-11T07:14:35.000Z</time>
      </trkpt>
      <trkpt lat="45.20355" lon="6.34444">
        <ele>1689.8000488281</ele>
        <time>2014-01-11T07:14:36.000Z</time>
      </trkpt>
      <trkpt lat="45.20354" lon="6.34443">
        <ele>1689.8000488281</ele>
        <time>2014-01-11T07:14:37.000Z</time>
      </trkpt>
      <trkpt lat="45.20353" lon="6.34443">
        <ele>1689.8000488281</ele>
        <time>2014-01-11T07:14:38.000Z</time>
      </trkpt>
      <trkpt lat="45.20353" lon="6.34443">
        <ele>1690</ele>
        <time>2014-01-11T07:14:39.000Z</time>
      </trkpt>
      <trkpt lat="45.20351" lon="6.34442">
        <ele>1690</ele>
        <time>2014-01-11T07:14:40.000Z</time>
      </trkpt>
      <trkpt lat="45.2035" lon="6.34442">
        <ele>1690.1999511719</ele>
        <time>2014-01-11T07:14:41.000Z</time>
      </trkpt>
      <trkpt lat="45.20349" lon="6.34441">
        <ele>1690.1999511719</ele>
        <time>2014-01-11T07:14:42.000Z</time>
      </trkpt>
      <trkpt lat="45.20347" lon="6.34441">
        <ele>1690.4000244141</ele>
        <time>2014-01-11T07:14:43.000Z</time>
      </trkpt>
      <trkpt lat="45.20346" lon="6.3444">
        <ele>1690.4000244141</ele>
        <time>2014-01-11T07:14:44.000Z</time>
      </trkpt>
      <trkpt lat="45.20345" lon="6.3444">
        <ele>1690.4000244141</ele>
        <time>2014-01-11T07:14:45.000Z</time>
      </trkpt>
      <trkpt lat="45.20344" lon="6.3444">
        <ele>1690.5999755859</ele>
        <time>2014-01-11T07:14:46.000Z</time>
      </trkpt>
      <trkpt lat="45.20342" lon="6.34439">
        <ele>1690.5999755859</ele>
        <time>2014-01-11T07:14:47.000Z</time>
      </trkpt>
      <trkpt lat="45.20341" lon="6.34439">
        <ele>1690.5999755859</ele>
        <time>2014-01-11T07:14:48.000Z</time>
      </trkpt>
      <trkpt lat="45.20341" lon="6.34439">
        <ele>1690.8000488281</ele>
        <time>2014-01-11T07:14:49.000Z</time>
      </trkpt>
      <trkpt lat="45.2034" lon="6.34438">
        <ele>1690.8000488281</ele>
        <time>2014-01-11T07:14:50.000Z</time>
      </trkpt>
      <trkpt lat="45.20338" lon="6.34438">
        <ele>1690.8000488281</ele>
        <time>2014-01-11T07:14:51.000Z</time>
      </trkpt>
      <trkpt lat="45.20337" lon="6.34438">
        <ele>1690.8000488281</ele>
        <time>2014-01-11T07:14:52.000Z</time>
      </trkpt>
      <trkpt lat="45.20336" lon="6.34437">
        <ele>1690.8000488281</ele>
        <time>2014-01-11T07:14:53.000Z</time>
      </trkpt>
      <trkpt lat="45.20335" lon="6.34437">
        <ele>1690.8000488281</ele>
        <time>2014-01-11T07:14:54.000Z</time>
      </trkpt>
      <trkpt lat="45.20334" lon="6.34436">
        <ele>1691</ele>
        <time>2014-01-11T07:14:55.000Z</time>
      </trkpt>
      <trkpt lat="45.20334" lon="6.34436">
        <ele>1691</ele>
        <time>2014-01-11T07:14:56.000Z</time>
      </trkpt>
      <trkpt lat="45.20332" lon="6.34435">
        <ele>1691</ele>
        <time>2014-01-11T07:14:57.000Z</time>
      </trkpt>
      <trkpt lat="45.20331" lon="6.34435">
        <ele>1691.1999511719</ele>
        <time>2014-01-11T07:14:58.000Z</time>
      </trkpt>
      <trkpt lat="45.2033" lon="6.34435">
        <ele>1691.1999511719</ele>
        <time>2014-01-11T07:14:59.000Z</time>
      </trkpt>
      <trkpt lat="45.2033" lon="6.34435">
        <ele>1691.1999511719</ele>
        <time>2014-01-11T07:15:00.000Z</time>
      </trkpt>
      <trkpt lat="45.20329" lon="6.34434">
        <ele>1691.1999511719</ele>
        <time>2014-01-11T07:15:01.000Z</time>
      </trkpt>
      <trkpt lat="45.20327" lon="6.34434">
        <ele>1691.4000244141</ele>
        <time>2014-01-11T07:15:02.000Z</time>
      </trkpt>
      <trkpt lat="45.20327" lon="6.34434">
        <ele>1691.4000244141</ele>
        <time>2014-01-11T07:15:03.000Z</time>
      </trkpt>
      <trkpt lat="45.20326" lon="6.34433">
        <ele>1691.5999755859</ele>
        <time>2014-01-11T07:15:04.000Z</time>
      </trkpt>
      <trkpt lat="45.20324" lon="6.34433">
        <ele>1691.5999755859</ele>
        <time>2014-01-11T07:15:05.000Z</time>
      </trkpt>
      <trkpt lat="45.20323" lon="6.34433">
        <ele>1691.8000488281</ele>
        <time>2014-01-11T07:15:06.000Z</time>
      </trkpt>
      <trkpt lat="45.20322" lon="6.34432">
        <ele>1692</ele>
        <time>2014-01-11T07:15:07.000Z</time>
      </trkpt>
      <trkpt lat="45.20321" lon="6.34432">
        <ele>1692</ele>
        <time>2014-01-11T07:15:08.000Z</time>
      </trkpt>
      <trkpt lat="45.2032" lon="6.34431">
        <ele>1692.1999511719</ele>
        <time>2014-01-11T07:15:09.000Z</time>
      </trkpt>
      <trkpt lat="45.20319" lon="6.34431">
        <ele>1692.1999511719</ele>
        <time>2014-01-11T07:15:10.000Z</time>
      </trkpt>
      <trkpt lat="45.20319" lon="6.34431">
        <ele>1692.4000244141</ele>
        <time>2014-01-11T07:15:11.000Z</time>
      </trkpt>
      <trkpt lat="45.20318" lon="6.3443">
        <ele>1692.4000244141</ele>
        <time>2014-01-11T07:15:12.000Z</time>
      </trkpt>
      <trkpt lat="45.20317" lon="6.3443">
        <ele>1692.5999755859</ele>
        <time>2014-01-11T07:15:13.000Z</time>
      </trkpt>
      <trkpt lat="45.20316" lon="6.34429">
        <ele>1692.5999755859</ele>
        <time>2014-01-11T07:15:14.000Z</time>
      </trkpt>
      <trkpt lat="45.20315" lon="6.34428">
        <ele>1692.8000488281</ele>
        <time>2014-01-11T07:15:15.000Z</time>
      </trkpt>
      <trkpt lat="45.20314" lon="6.34428">
        <ele>1692.8000488281</ele>
        <time>2014-01-11T07:15:16.000Z</time>
      </trkpt>
      <trkpt lat="45.20313" lon="6.34428">
        <ele>1692.8000488281</ele>
        <time>2014-01-11T07:15:17.000Z</time>
      </trkpt>
      <trkpt lat="45.20312" lon="6.34427">
        <ele>1692.8000488281</ele>
        <time>2014-01-11T07:15:18.000Z</time>
      </trkpt>
      <trkpt lat="45.20311" lon="6.34427">
        <ele>1693</ele>
        <time>2014-01-11T07:15:19.000Z</time>
      </trkpt>
      <trkpt lat="45.20309" lon="6.34426">
        <ele>1693</ele>
        <time>2014-01-11T07:15:20.000Z</time>
      </trkpt>
      <trkpt lat="45.20309" lon="6.34426">
        <ele>1693</ele>
        <time>2014-01-11T07:15:21.000Z</time>
      </trkpt>
      <trkpt lat="45.20307" lon="6.34426">
        <ele>1693</ele>
        <time>2014-01-11T07:15:22.000Z</time>
      </trkpt>
      <trkpt lat="45.20306" lon="6.34425">
        <ele>1693.1999511719</ele>
        <time>2014-01-11T07:15:23.000Z</time>
      </trkpt>
      <trkpt lat="45.20306" lon="6.34425">
        <ele>1693.1999511719</ele>
        <time>2014-01-11T07:15:24.000Z</time>
      </trkpt>
      <trkpt lat="45.20305" lon="6.34424">
        <ele>1693.1999511719</ele>
        <time>2014-01-11T07:15:25.000Z</time>
      </trkpt>
      <trkpt lat="45.20304" lon="6.34424">
        <ele>1693.4000244141</ele>
        <time>2014-01-11T07:15:26.000Z</time>
      </trkpt>
      <trkpt lat="45.20303" lon="6.34423">
        <ele>1693.4000244141</ele>
        <time>2014-01-11T07:15:27.000Z</time>
      </trkpt>
      <trkpt lat="45.20302" lon="6.34423">
        <ele>1693.4000244141</ele>
        <time>2014-01-11T07:15:28.000Z</time>
      </trkpt>
      <trkpt lat="45.20301" lon="6.34423">
        <ele>1693.4000244141</ele>
        <time>2014-01-11T07:15:29.000Z</time>
      </trkpt>
      <trkpt lat="45.203" lon="6.34422">
        <ele>1693.5999755859</ele>
        <time>2014-01-11T07:15:30.000Z</time>
      </trkpt>
      <trkpt lat="45.20299" lon="6.34422">
        <ele>1693.5999755859</ele>
        <time>2014-01-11T07:15:31.000Z</time>
      </trkpt>
      <trkpt lat="45.20298" lon="6.34422">
        <ele>1693.8000488281</ele>
        <time>2014-01-11T07:15:32.000Z</time>
      </trkpt>
      <trkpt lat="45.20298" lon="6.34421">
        <ele>1693.8000488281</ele>
        <time>2014-01-11T07:15:33.000Z</time>
      </trkpt>
      <trkpt lat="45.20296" lon="6.34421">
        <ele>1694</ele>
        <time>2014-01-11T07:15:34.000Z</time>
      </trkpt>
      <trkpt lat="45.20295" lon="6.34421">
        <ele>1694</ele>
        <time>2014-01-11T07:15:35.000Z</time>
      </trkpt>
      <trkpt lat="45.20294" lon="6.34421">
        <ele>1694</ele>
        <time>2014-01-11T07:15:36.000Z</time>
      </trkpt>
      <trkpt lat="45.20293" lon="6.34421">
        <ele>1694.1999511719</ele>
        <time>2014-01-11T07:15:37.000Z</time>
      </trkpt>
      <trkpt lat="45.20291" lon="6.34421">
        <ele>1694.1999511719</ele>
        <time>2014-01-11T07:15:38.000Z</time>
      </trkpt>
      <trkpt lat="45.20291" lon="6.34421">
        <ele>1694.1999511719</ele>
        <time>2014-01-11T07:15:39.000Z</time>
      </trkpt>
      <trkpt lat="45.2029" lon="6.34421">
        <ele>1694.4000244141</ele>
        <time>2014-01-11T07:15:40.000Z</time>
      </trkpt>
      <trkpt lat="45.20289" lon="6.34421">
        <ele>1694.4000244141</ele>
        <time>2014-01-11T07:15:41.000Z</time>
      </trkpt>
      <trkpt lat="45.20288" lon="6.34421">
        <ele>1694.5999755859</ele>
        <time>2014-01-11T07:15:42.000Z</time>
      </trkpt>
      <trkpt lat="45.20287" lon="6.34421">
        <ele>1694.5999755859</ele>
        <time>2014-01-11T07:15:43.000Z</time>
      </trkpt>
      <trkpt lat="45.20286" lon="6.34421">
        <ele>1694.8000488281</ele>
        <time>2014-01-11T07:15:44.000Z</time>
      </trkpt>
      <trkpt lat="45.20286" lon="6.34421">
        <ele>1695</ele>
        <time>2014-01-11T07:15:45.000Z</time>
      </trkpt>
      <trkpt lat="45.20284" lon="6.34421">
        <ele>1695</ele>
        <time>2014-01-11T07:15:46.000Z</time>
      </trkpt>
      <trkpt lat="45.20282" lon="6.34421">
        <ele>1695</ele>
        <time>2014-01-11T07:15:47.000Z</time>
      </trkpt>
      <trkpt lat="45.20282" lon="6.34421">
        <ele>1695</ele>
        <time>2014-01-11T07:15:48.000Z</time>
      </trkpt>
      <trkpt lat="45.20281" lon="6.34421">
        <ele>1695.1999511719</ele>
        <time>2014-01-11T07:15:49.000Z</time>
      </trkpt>
      <trkpt lat="45.20279" lon="6.34421">
        <ele>1695.1999511719</ele>
        <time>2014-01-11T07:15:50.000Z</time>
      </trkpt>
      <trkpt lat="45.20278" lon="6.3442">
        <ele>1695.4000244141</ele>
        <time>2014-01-11T07:15:51.000Z</time>
      </trkpt>
      <trkpt lat="45.20277" lon="6.3442">
        <ele>1695.5999755859</ele>
        <time>2014-01-11T07:15:52.000Z</time>
      </trkpt>
      <trkpt lat="45.20276" lon="6.34419">
        <ele>1695.5999755859</ele>
        <time>2014-01-11T07:15:53.000Z</time>
      </trkpt>
      <trkpt lat="45.20275" lon="6.34419">
        <ele>1695.8000488281</ele>
        <time>2014-01-11T07:15:54.000Z</time>
      </trkpt>
      <trkpt lat="45.20274" lon="6.34419">
        <ele>1696</ele>
        <time>2014-01-11T07:15:55.000Z</time>
      </trkpt>
      <trkpt lat="45.20272" lon="6.34418">
        <ele>1696</ele>
        <time>2014-01-11T07:15:56.000Z</time>
      </trkpt>
      <trkpt lat="45.20271" lon="6.34418">
        <ele>1696</ele>
        <time>2014-01-11T07:15:57.000Z</time>
      </trkpt>
      <trkpt lat="45.20271" lon="6.34418">
        <ele>1696.1999511719</ele>
        <time>2014-01-11T07:15:58.000Z</time>
      </trkpt>
      <trkpt lat="45.20269" lon="6.34418">
        <ele>1696.1999511719</ele>
        <time>2014-01-11T07:15:59.000Z</time>
      </trkpt>
      <trkpt lat="45.20269" lon="6.34418">
        <ele>1696.4000244141</ele>
        <time>2014-01-11T07:16:00.000Z</time>
      </trkpt>
      <trkpt lat="45.20268" lon="6.34417">
        <ele>1696.4000244141</ele>
        <time>2014-01-11T07:16:01.000Z</time>
      </trkpt>
      <trkpt lat="45.20267" lon="6.34418">
        <ele>1696.5999755859</ele>
        <time>2014-01-11T07:16:02.000Z</time>
      </trkpt>
      <trkpt lat="45.20266" lon="6.34417">
        <ele>1696.5999755859</ele>
        <time>2014-01-11T07:16:03.000Z</time>
      </trkpt>
      <trkpt lat="45.20265" lon="6.34418">
        <ele>1696.8000488281</ele>
        <time>2014-01-11T07:16:04.000Z</time>
      </trkpt>
      <trkpt lat="45.20264" lon="6.34418">
        <ele>1697</ele>
        <time>2014-01-11T07:16:05.000Z</time>
      </trkpt>
      <trkpt lat="45.20263" lon="6.34418">
        <ele>1697</ele>
        <time>2014-01-11T07:16:06.000Z</time>
      </trkpt>
      <trkpt lat="45.20262" lon="6.34417">
        <ele>1697.1999511719</ele>
        <time>2014-01-11T07:16:07.000Z</time>
      </trkpt>
      <trkpt lat="45.20261" lon="6.34417">
        <ele>1697.4000244141</ele>
        <time>2014-01-11T07:16:08.000Z</time>
      </trkpt>
      <trkpt lat="45.2026" lon="6.34417">
        <ele>1697.4000244141</ele>
        <time>2014-01-11T07:16:09.000Z</time>
      </trkpt>
      <trkpt lat="45.20259" lon="6.34416">
        <ele>1697.5999755859</ele>
        <time>2014-01-11T07:16:10.000Z</time>
      </trkpt>
      <trkpt lat="45.20258" lon="6.34416">
        <ele>1697.5999755859</ele>
        <time>2014-01-11T07:16:11.000Z</time>
      </trkpt>
      <trkpt lat="45.20257" lon="6.34416">
        <ele>1697.8000488281</ele>
        <time>2014-01-11T07:16:12.000Z</time>
      </trkpt>
      <trkpt lat="45.20256" lon="6.34416">
        <ele>1697.8000488281</ele>
        <time>2014-01-11T07:16:13.000Z</time>
      </trkpt>
      <trkpt lat="45.20254" lon="6.34416">
        <ele>1698</ele>
        <time>2014-01-11T07:16:14.000Z</time>
      </trkpt>
      <trkpt lat="45.20253" lon="6.34416">
        <ele>1698</ele>
        <time>2014-01-11T07:16:15.000Z</time>
      </trkpt>
      <trkpt lat="45.20252" lon="6.34416">
        <ele>1698.1999511719</ele>
        <time>2014-01-11T07:16:16.000Z</time>
      </trkpt>
      <trkpt lat="45.20251" lon="6.34416">
        <ele>1698.1999511719</ele>
        <time>2014-01-11T07:16:17.000Z</time>
      </trkpt>
      <trkpt lat="45.2025" lon="6.34416">
        <ele>1698.4000244141</ele>
        <time>2014-01-11T07:16:18.000Z</time>
      </trkpt>
      <trkpt lat="45.20249" lon="6.34416">
        <ele>1698.5999755859</ele>
        <time>2014-01-11T07:16:19.000Z</time>
      </trkpt>
      <trkpt lat="45.20249" lon="6.34416">
        <ele>1698.8000488281</ele>
        <time>2014-01-11T07:16:20.000Z</time>
      </trkpt>
      <trkpt lat="45.20247" lon="6.34416">
        <ele>1699</ele>
        <time>2014-01-11T07:16:21.000Z</time>
      </trkpt>
      <trkpt lat="45.20246" lon="6.34417">
        <ele>1699</ele>
        <time>2014-01-11T07:16:22.000Z</time>
      </trkpt>
      <trkpt lat="45.20244" lon="6.34417">
        <ele>1699.1999511719</ele>
        <time>2014-01-11T07:16:23.000Z</time>
      </trkpt>
      <trkpt lat="45.20243" lon="6.34418">
        <ele>1699.4000244141</ele>
        <time>2014-01-11T07:16:24.000Z</time>
      </trkpt>
      <trkpt lat="45.20242" lon="6.34419">
        <ele>1699.4000244141</ele>
        <time>2014-01-11T07:16:25.000Z</time>
      </trkpt>
      <trkpt lat="45.20242" lon="6.34419">
        <ele>1699.5999755859</ele>
        <time>2014-01-11T07:16:26.000Z</time>
      </trkpt>
      <trkpt lat="45.20241" lon="6.3442">
        <ele>1699.8000488281</ele>
        <time>2014-01-11T07:16:27.000Z</time>
      </trkpt>
      <trkpt lat="45.2024" lon="6.34421">
        <ele>1699.8000488281</ele>
        <time>2014-01-11T07:16:28.000Z</time>
      </trkpt>
      <trkpt lat="45.20239" lon="6.34422">
        <ele>1700</ele>
        <time>2014-01-11T07:16:29.000Z</time>
      </trkpt>
      <trkpt lat="45.20239" lon="6.34422">
        <ele>1700</ele>
        <time>2014-01-11T07:16:30.000Z</time>
      </trkpt>
      <trkpt lat="45.20238" lon="6.34423">
        <ele>1700.1999511719</ele>
        <time>2014-01-11T07:16:31.000Z</time>
      </trkpt>
      <trkpt lat="45.20237" lon="6.34425">
        <ele>1700.1999511719</ele>
        <time>2014-01-11T07:16:32.000Z</time>
      </trkpt>
      <trkpt lat="45.20237" lon="6.34426">
        <ele>1700.4000244141</ele>
        <time>2014-01-11T07:16:33.000Z</time>
      </trkpt>
      <trkpt lat="45.20236" lon="6.34426">
        <ele>1700.5999755859</ele>
        <time>2014-01-11T07:16:34.000Z</time>
      </trkpt>
      <trkpt lat="45.20235" lon="6.34427">
        <ele>1700.5999755859</ele>
        <time>2014-01-11T07:16:35.000Z</time>
      </trkpt>
      <trkpt lat="45.20234" lon="6.34429">
        <ele>1700.5999755859</ele>
        <time>2014-01-11T07:16:36.000Z</time>
      </trkpt>
      <trkpt lat="45.20233" lon="6.3443">
        <ele>1700.8000488281</ele>
        <time>2014-01-11T07:16:37.000Z</time>
      </trkpt>
      <trkpt lat="45.20232" lon="6.34431">
        <ele>1701</ele>
        <time>2014-01-11T07:16:38.000Z</time>
      </trkpt>
      <trkpt lat="45.20231" lon="6.34433">
        <ele>1701</ele>
        <time>2014-01-11T07:16:39.000Z</time>
      </trkpt>
      <trkpt lat="45.20231" lon="6.34434">
        <ele>1701.1999511719</ele>
        <time>2014-01-11T07:16:40.000Z</time>
      </trkpt>
      <trkpt lat="45.2023" lon="6.34436">
        <ele>1701.4000244141</ele>
        <time>2014-01-11T07:16:41.000Z</time>
      </trkpt>
      <trkpt lat="45.2023" lon="6.34437">
        <ele>1701.5999755859</ele>
        <time>2014-01-11T07:16:42.000Z</time>
      </trkpt>
      <trkpt lat="45.2023" lon="6.34439">
        <ele>1701.8000488281</ele>
        <time>2014-01-11T07:16:43.000Z</time>
      </trkpt>
      <trkpt lat="45.20229" lon="6.3444">
        <ele>1702</ele>
        <time>2014-01-11T07:16:44.000Z</time>
      </trkpt>
      <trkpt lat="45.20228" lon="6.34441">
        <ele>1702.1999511719</ele>
        <time>2014-01-11T07:16:45.000Z</time>
      </trkpt>
      <trkpt lat="45.20228" lon="6.34443">
        <ele>1702.1999511719</ele>
        <time>2014-01-11T07:16:46.000Z</time>
      </trkpt>
      <trkpt lat="45.20228" lon="6.34445">
        <ele>1702.1999511719</ele>
        <time>2014-01-11T07:16:47.000Z</time>
      </trkpt>
      <trkpt lat="45.20227" lon="6.34446">
        <ele>1702.4000244141</ele>
        <time>2014-01-11T07:16:48.000Z</time>
      </trkpt>
      <trkpt lat="45.20227" lon="6.34448">
        <ele>1702.5999755859</ele>
        <time>2014-01-11T07:16:49.000Z</time>
      </trkpt>
      <trkpt lat="45.20227" lon="6.3445">
        <ele>1702.5999755859</ele>
        <time>2014-01-11T07:16:50.000Z</time>
      </trkpt>
      <trkpt lat="45.20228" lon="6.34452">
        <ele>1702.8000488281</ele>
        <time>2014-01-11T07:16:51.000Z</time>
      </trkpt>
      <trkpt lat="45.20228" lon="6.34453">
        <ele>1703</ele>
        <time>2014-01-11T07:16:52.000Z</time>
      </trkpt>
      <trkpt lat="45.20228" lon="6.34454">
        <ele>1703</ele>
        <time>2014-01-11T07:16:53.000Z</time>
      </trkpt>
      <trkpt lat="45.20228" lon="6.34455">
        <ele>1703.1999511719</ele>
        <time>2014-01-11T07:16:54.000Z</time>
      </trkpt>
      <trkpt lat="45.20229" lon="6.34456">
        <ele>1703.4000244141</ele>
        <time>2014-01-11T07:16:55.000Z</time>
      </trkpt>
      <trkpt lat="45.2023" lon="6.34457">
        <ele>1703.4000244141</ele>
        <time>2014-01-11T07:16:56.000Z</time>
      </trkpt>
      <trkpt lat="45.2023" lon="6.34458">
        <ele>1703.5999755859</ele>
        <time>2014-01-11T07:16:57.000Z</time>
      </trkpt>
      <trkpt lat="45.2023" lon="6.34458">
        <ele>1703.5999755859</ele>
        <time>2014-01-11T07:16:58.000Z</time>
      </trkpt>
      <trkpt lat="45.2023" lon="6.34459">
        <ele>1703.8000488281</ele>
        <time>2014-01-11T07:16:59.000Z</time>
      </trkpt>
      <trkpt lat="45.2023" lon="6.34459">
        <ele>1703.8000488281</ele>
        <time>2014-01-11T07:17:00.000Z</time>
      </trkpt>
      <trkpt lat="45.2023" lon="6.34459">
        <ele>1703.8000488281</ele>
        <time>2014-01-11T07:17:01.000Z</time>
      </trkpt>
      <trkpt lat="45.2023" lon="6.3446">
        <ele>1703.8000488281</ele>
        <time>2014-01-11T07:17:02.000Z</time>
      </trkpt>
      <trkpt lat="45.20231" lon="6.34462">
        <ele>1703.8000488281</ele>
        <time>2014-01-11T07:17:03.000Z</time>
      </trkpt>
      <trkpt lat="45.20232" lon="6.34464">
        <ele>1704</ele>
        <time>2014-01-11T07:17:04.000Z</time>
      </trkpt>
      <trkpt lat="45.20232" lon="6.34464">
        <ele>1704</ele>
        <time>2014-01-11T07:17:05.000Z</time>
      </trkpt>
      <trkpt lat="45.20233" lon="6.34467">
        <ele>1704</ele>
        <time>2014-01-11T07:17:06.000Z</time>
      </trkpt>
      <trkpt lat="45.20234" lon="6.34469">
        <ele>1704.1999511719</ele>
        <time>2014-01-11T07:17:07.000Z</time>
      </trkpt>
      <trkpt lat="45.20234" lon="6.3447">
        <ele>1704.4000244141</ele>
        <time>2014-01-11T07:17:08.000Z</time>
      </trkpt>
      <trkpt lat="45.20235" lon="6.34472">
        <ele>1704.4000244141</ele>
        <time>2014-01-11T07:17:09.000Z</time>
      </trkpt>
      <trkpt lat="45.20235" lon="6.34474">
        <ele>1704.4000244141</ele>
        <time>2014-01-11T07:17:10.000Z</time>
      </trkpt>
      <trkpt lat="45.20236" lon="6.34476">
        <ele>1704.4000244141</ele>
        <time>2014-01-11T07:17:11.000Z</time>
      </trkpt>
      <trkpt lat="45.20238" lon="6.34483">
        <ele>1704.4000244141</ele>
        <time>2014-01-11T07:17:15.000Z</time>
      </trkpt>
      <trkpt lat="45.20238" lon="6.34483">
        <ele>1704.4000244141</ele>
        <time>2014-01-11T07:17:16.000Z</time>
      </trkpt>
      <trkpt lat="45.20239" lon="6.34484">
        <ele>1704.4000244141</ele>
        <time>2014-01-11T07:17:17.000Z</time>
      </trkpt>
      <trkpt lat="45.20239" lon="6.34485">
        <ele>1704.5999755859</ele>
        <time>2014-01-11T07:17:18.000Z</time>
      </trkpt>
      <trkpt lat="45.2024" lon="6.34485">
        <ele>1704.5999755859</ele>
        <time>2014-01-11T07:17:19.000Z</time>
      </trkpt>
      <trkpt lat="45.2024" lon="6.34487">
        <ele>1704.5999755859</ele>
        <time>2014-01-11T07:17:20.000Z</time>
      </trkpt>
      <trkpt lat="45.20241" lon="6.34489">
        <ele>1704.5999755859</ele>
        <time>2014-01-11T07:17:21.000Z</time>
      </trkpt>
      <trkpt lat="45.20241" lon="6.34491">
        <ele>1704.5999755859</ele>
        <time>2014-01-11T07:17:22.000Z</time>
      </trkpt>
      <trkpt lat="45.20241" lon="6.34491">
        <ele>1704.5999755859</ele>
        <time>2014-01-11T07:17:23.000Z</time>
      </trkpt>
      <trkpt lat="45.20241" lon="6.34493">
        <ele>1704.5999755859</ele>
        <time>2014-01-11T07:17:24.000Z</time>
      </trkpt>
      <trkpt lat="45.20242" lon="6.34495">
        <ele>1704.5999755859</ele>
        <time>2014-01-11T07:17:25.000Z</time>
      </trkpt>
      <trkpt lat="45.20243" lon="6.34498">
        <ele>1704.5999755859</ele>
        <time>2014-01-11T07:17:26.000Z</time>
      </trkpt>
      <trkpt lat="45.20243" lon="6.34498">
        <ele>1704.5999755859</ele>
        <time>2014-01-11T07:17:27.000Z</time>
      </trkpt>
      <trkpt lat="45.20243" lon="6.345">
        <ele>1704.8000488281</ele>
        <time>2014-01-11T07:17:28.000Z</time>
      </trkpt>
      <trkpt lat="45.20244" lon="6.34502">
        <ele>1704.8000488281</ele>
        <time>2014-01-11T07:17:29.000Z</time>
      </trkpt>
      <trkpt lat="45.20244" lon="6.34503">
        <ele>1704.8000488281</ele>
        <time>2014-01-11T07:17:30.000Z</time>
      </trkpt>
      <trkpt lat="45.20244" lon="6.34505">
        <ele>1704.8000488281</ele>
        <time>2014-01-11T07:17:31.000Z</time>
      </trkpt>
      <trkpt lat="45.20245" lon="6.34506">
        <ele>1704.8000488281</ele>
        <time>2014-01-11T07:17:32.000Z</time>
      </trkpt>
      <trkpt lat="45.20245" lon="6.34508">
        <ele>1704.8000488281</ele>
        <time>2014-01-11T07:17:33.000Z</time>
      </trkpt>
      <trkpt lat="45.20246" lon="6.3451">
        <ele>1704.8000488281</ele>
        <time>2014-01-11T07:17:34.000Z</time>
      </trkpt>
      <trkpt lat="45.20246" lon="6.3451">
        <ele>1705</ele>
        <time>2014-01-11T07:17:35.000Z</time>
      </trkpt>
      <trkpt lat="45.20247" lon="6.34511">
        <ele>1705</ele>
        <time>2014-01-11T07:17:36.000Z</time>
      </trkpt>
      <trkpt lat="45.20247" lon="6.34512">
        <ele>1705</ele>
        <time>2014-01-11T07:17:37.000Z</time>
      </trkpt>
      <trkpt lat="45.20247" lon="6.34514">
        <ele>1705</ele>
        <time>2014-01-11T07:17:38.000Z</time>
      </trkpt>
      <trkpt lat="45.20248" lon="6.34515">
        <ele>1705</ele>
        <time>2014-01-11T07:17:39.000Z</time>
      </trkpt>
      <trkpt lat="45.20248" lon="6.34516">
        <ele>1705.1999511719</ele>
        <time>2014-01-11T07:17:40.000Z</time>
      </trkpt>
      <trkpt lat="45.20248" lon="6.34518">
        <ele>1705.1999511719</ele>
        <time>2014-01-11T07:17:41.000Z</time>
      </trkpt>
      <trkpt lat="45.20248" lon="6.34519">
        <ele>1705.1999511719</ele>
        <time>2014-01-11T07:17:42.000Z</time>
      </trkpt>
      <trkpt lat="45.20249" lon="6.3452">
        <ele>1705.1999511719</ele>
        <time>2014-01-11T07:17:43.000Z</time>
      </trkpt>
      <trkpt lat="45.20249" lon="6.34521">
        <ele>1705.1999511719</ele>
        <time>2014-01-11T07:17:44.000Z</time>
      </trkpt>
      <trkpt lat="45.2025" lon="6.34523">
        <ele>1705.1999511719</ele>
        <time>2014-01-11T07:17:45.000Z</time>
      </trkpt>
      <trkpt lat="45.2025" lon="6.34525">
        <ele>1705.1999511719</ele>
        <time>2014-01-11T07:17:46.000Z</time>
      </trkpt>
      <trkpt lat="45.2025" lon="6.34526">
        <ele>1705.1999511719</ele>
        <time>2014-01-11T07:17:47.000Z</time>
      </trkpt>
      <trkpt lat="45.20251" lon="6.34528">
        <ele>1705.1999511719</ele>
        <time>2014-01-11T07:17:48.000Z</time>
      </trkpt>
      <trkpt lat="45.20251" lon="6.3453">
        <ele>1705.1999511719</ele>
        <time>2014-01-11T07:17:49.000Z</time>
      </trkpt>
      <trkpt lat="45.20251" lon="6.34532">
        <ele>1705.1999511719</ele>
        <time>2014-01-11T07:17:53.000Z</time>
      </trkpt>
      <trkpt lat="45.20251" lon="6.34534">
        <ele>1705.1999511719</ele>
        <time>2014-01-11T07:17:54.000Z</time>
      </trkpt>
      <trkpt lat="45.20251" lon="6.34535">
        <ele>1705.1999511719</ele>
        <time>2014-01-11T07:17:55.000Z</time>
      </trkpt>
      <trkpt lat="45.20252" lon="6.34536">
        <ele>1705.1999511719</ele>
        <time>2014-01-11T07:17:56.000Z</time>
      </trkpt>
      <trkpt lat="45.20252" lon="6.34538">
        <ele>1705.1999511719</ele>
        <time>2014-01-11T07:17:57.000Z</time>
      </trkpt>
      <trkpt lat="45.20252" lon="6.3454">
        <ele>1705.1999511719</ele>
        <time>2014-01-11T07:17:58.000Z</time>
      </trkpt>
      <trkpt lat="45.20252" lon="6.34542">
        <ele>1705.1999511719</ele>
        <time>2014-01-11T07:17:59.000Z</time>
      </trkpt>
      <trkpt lat="45.20253" lon="6.34544">
        <ele>1705.4000244141</ele>
        <time>2014-01-11T07:18:00.000Z</time>
      </trkpt>
      <trkpt lat="45.20253" lon="6.34546">
        <ele>1705.4000244141</ele>
        <time>2014-01-11T07:18:01.000Z</time>
      </trkpt>
      <trkpt lat="45.20253" lon="6.34548">
        <ele>1705.4000244141</ele>
        <time>2014-01-11T07:18:02.000Z</time>
      </trkpt>
      <trkpt lat="45.20253" lon="6.3455">
        <ele>1705.4000244141</ele>
        <time>2014-01-11T07:18:03.000Z</time>
      </trkpt>
      <trkpt lat="45.20253" lon="6.34552">
        <ele>1705.4000244141</ele>
        <time>2014-01-11T07:18:04.000Z</time>
      </trkpt>
      <trkpt lat="45.20254" lon="6.34555">
        <ele>1705.4000244141</ele>
        <time>2014-01-11T07:18:05.000Z</time>
      </trkpt>
      <trkpt lat="45.20254" lon="6.34556">
        <ele>1705.4000244141</ele>
        <time>2014-01-11T07:18:06.000Z</time>
      </trkpt>
      <trkpt lat="45.20253" lon="6.34558">
        <ele>1705.4000244141</ele>
        <time>2014-01-11T07:18:07.000Z</time>
      </trkpt>
      <trkpt lat="45.20253" lon="6.34559">
        <ele>1705.4000244141</ele>
        <time>2014-01-11T07:18:08.000Z</time>
      </trkpt>
      <trkpt lat="45.20251" lon="6.34561">
        <ele>1705.1999511719</ele>
        <time>2014-01-11T07:18:09.000Z</time>
      </trkpt>
      <trkpt lat="45.2025" lon="6.34563">
        <ele>1705.1999511719</ele>
        <time>2014-01-11T07:18:10.000Z</time>
      </trkpt>
      <trkpt lat="45.20248" lon="6.34563">
        <ele>1705</ele>
        <time>2014-01-11T07:18:11.000Z</time>
      </trkpt>
      <trkpt lat="45.20247" lon="6.34564">
        <ele>1705</ele>
        <time>2014-01-11T07:18:12.000Z</time>
      </trkpt>
      <trkpt lat="45.20245" lon="6.34565">
        <ele>1704.8000488281</ele>
        <time>2014-01-11T07:18:13.000Z</time>
      </trkpt>
      <trkpt lat="45.20243" lon="6.34565">
        <ele>1704.8000488281</ele>
        <time>2014-01-11T07:18:14.000Z</time>
      </trkpt>
      <trkpt lat="45.20242" lon="6.34565">
        <ele>1704.8000488281</ele>
        <time>2014-01-11T07:18:15.000Z</time>
      </trkpt>
      <trkpt lat="45.20241" lon="6.34566">
        <ele>1704.5999755859</ele>
        <time>2014-01-11T07:18:16.000Z</time>
      </trkpt>
      <trkpt lat="45.20239" lon="6.34566">
        <ele>1704.5999755859</ele>
        <time>2014-01-11T07:18:17.000Z</time>
      </trkpt>
      <trkpt lat="45.20238" lon="6.34566">
        <ele>1704.5999755859</ele>
        <time>2014-01-11T07:18:18.000Z</time>
      </trkpt>
      <trkpt lat="45.20236" lon="6.34566">
        <ele>1704.5999755859</ele>
        <time>2014-01-11T07:18:19.000Z</time>
      </trkpt>
      <trkpt lat="45.20235" lon="6.34565">
        <ele>1704.5999755859</ele>
        <time>2014-01-11T07:18:20.000Z</time>
      </trkpt>
      <trkpt lat="45.20234" lon="6.34564">
        <ele>1704.5999755859</ele>
        <time>2014-01-11T07:18:21.000Z</time>
      </trkpt>
      <trkpt lat="45.20233" lon="6.34563">
        <ele>1704.5999755859</ele>
        <time>2014-01-11T07:18:22.000Z</time>
      </trkpt>
      <trkpt lat="45.20232" lon="6.34562">
        <ele>1704.5999755859</ele>
        <time>2014-01-11T07:18:23.000Z</time>
      </trkpt>
      <trkpt lat="45.20231" lon="6.34561">
        <ele>1704.5999755859</ele>
        <time>2014-01-11T07:18:24.000Z</time>
      </trkpt>
      <trkpt lat="45.2023" lon="6.34559">
        <ele>1704.8000488281</ele>
        <time>2014-01-11T07:18:25.000Z</time>
      </trkpt>
      <trkpt lat="45.20229" lon="6.34557">
        <ele>1704.8000488281</ele>
        <time>2014-01-11T07:18:26.000Z</time>
      </trkpt>
      <trkpt lat="45.20228" lon="6.34556">
        <ele>1704.8000488281</ele>
        <time>2014-01-11T07:18:27.000Z</time>
      </trkpt>
      <trkpt lat="45.20228" lon="6.34555">
        <ele>1705</ele>
        <time>2014-01-11T07:18:28.000Z</time>
      </trkpt>
      <trkpt lat="45.20227" lon="6.34553">
        <ele>1705</ele>
        <time>2014-01-11T07:18:29.000Z</time>
      </trkpt>
      <trkpt lat="45.20226" lon="6.34551">
        <ele>1705.1999511719</ele>
        <time>2014-01-11T07:18:30.000Z</time>
      </trkpt>
      <trkpt lat="45.20224" lon="6.3455">
        <ele>1705.1999511719</ele>
        <time>2014-01-11T07:18:31.000Z</time>
      </trkpt>
      <trkpt lat="45.20224" lon="6.34549">
        <ele>1705.1999511719</ele>
        <time>2014-01-11T07:18:32.000Z</time>
      </trkpt>
      <trkpt lat="45.20223" lon="6.34548">
        <ele>1705.1999511719</ele>
        <time>2014-01-11T07:18:33.000Z</time>
      </trkpt>
      <trkpt lat="45.20221" lon="6.34548">
        <ele>1705.1999511719</ele>
        <time>2014-01-11T07:18:34.000Z</time>
      </trkpt>
      <trkpt lat="45.20216" lon="6.34546">
        <ele>1705.1999511719</ele>
        <time>2014-01-11T07:18:37.000Z</time>
      </trkpt>
      <trkpt lat="45.20215" lon="6.34545">
        <ele>1705.1999511719</ele>
        <time>2014-01-11T07:18:38.000Z</time>
      </trkpt>
      <trkpt lat="45.20212" lon="6.34545">
        <ele>1705.1999511719</ele>
        <time>2014-01-11T07:18:40.000Z</time>
      </trkpt>
      <trkpt lat="45.2021" lon="6.34544">
        <ele>1705.1999511719</ele>
        <time>2014-01-11T07:18:42.000Z</time>
      </trkpt>
      <trkpt lat="45.20209" lon="6.34543">
        <ele>1705.1999511719</ele>
        <time>2014-01-11T07:18:43.000Z</time>
      </trkpt>
      <trkpt lat="45.20206" lon="6.34541">
        <ele>1705.4000244141</ele>
        <time>2014-01-11T07:18:46.000Z</time>
      </trkpt>
      <trkpt lat="45.20205" lon="6.34541">
        <ele>1705.4000244141</ele>
        <time>2014-01-11T07:18:47.000Z</time>
      </trkpt>
      <trkpt lat="45.20203" lon="6.3454">
        <ele>1705.4000244141</ele>
        <time>2014-01-11T07:18:49.000Z</time>
      </trkpt>
      <trkpt lat="45.20202" lon="6.3454">
        <ele>1705.1999511719</ele>
        <time>2014-01-11T07:18:50.000Z</time>
      </trkpt>
      <trkpt lat="45.202" lon="6.34539">
        <ele>1705.1999511719</ele>
        <time>2014-01-11T07:18:51.000Z</time>
      </trkpt>
      <trkpt lat="45.20199" lon="6.34539">
        <ele>1705.1999511719</ele>
        <time>2014-01-11T07:18:52.000Z</time>
      </trkpt>
      <trkpt lat="45.20198" lon="6.34539">
        <ele>1705.1999511719</ele>
        <time>2014-01-11T07:18:53.000Z</time>
      </trkpt>
      <trkpt lat="45.20197" lon="6.34539">
        <ele>1705.1999511719</ele>
        <time>2014-01-11T07:18:54.000Z</time>
      </trkpt>
      <trkpt lat="45.20196" lon="6.34539">
        <ele>1705.1999511719</ele>
        <time>2014-01-11T07:18:55.000Z</time>
      </trkpt>
      <trkpt lat="45.20195" lon="6.34539">
        <ele>1705</ele>
        <time>2014-01-11T07:18:56.000Z</time>
      </trkpt>
      <trkpt lat="45.20195" lon="6.34539">
        <ele>1705</ele>
        <time>2014-01-11T07:18:57.000Z</time>
      </trkpt>
      <trkpt lat="45.20193" lon="6.34539">
        <ele>1705</ele>
        <time>2014-01-11T07:18:58.000Z</time>
      </trkpt>
      <trkpt lat="45.20192" lon="6.34539">
        <ele>1705</ele>
        <time>2014-01-11T07:18:59.000Z</time>
      </trkpt>
      <trkpt lat="45.20192" lon="6.34539">
        <ele>1705</ele>
        <time>2014-01-11T07:19:00.000Z</time>
      </trkpt>
      <trkpt lat="45.20191" lon="6.34539">
        <ele>1705</ele>
        <time>2014-01-11T07:19:01.000Z</time>
      </trkpt>
      <trkpt lat="45.20192" lon="6.34539">
        <ele>1705</ele>
        <time>2014-01-11T07:19:04.000Z</time>
      </trkpt>
      <trkpt lat="45.20192" lon="6.34539">
        <ele>1705</ele>
        <time>2014-01-11T07:19:05.000Z</time>
      </trkpt>
      <trkpt lat="45.20192" lon="6.34539">
        <ele>1705</ele>
        <time>2014-01-11T07:19:06.000Z</time>
      </trkpt>
      <trkpt lat="45.20192" lon="6.34539">
        <ele>1704.8000488281</ele>
        <time>2014-01-11T07:19:07.000Z</time>
      </trkpt>
      <trkpt lat="45.20191" lon="6.34539">
        <ele>1704.8000488281</ele>
        <time>2014-01-11T07:19:08.000Z</time>
      </trkpt>
      <trkpt lat="45.20189" lon="6.3454">
        <ele>1704.8000488281</ele>
        <time>2014-01-11T07:19:09.000Z</time>
      </trkpt>
      <trkpt lat="45.20188" lon="6.3454">
        <ele>1704.8000488281</ele>
        <time>2014-01-11T07:19:10.000Z</time>
      </trkpt>
      <trkpt lat="45.20187" lon="6.3454">
        <ele>1704.8000488281</ele>
        <time>2014-01-11T07:19:11.000Z</time>
      </trkpt>
      <trkpt lat="45.20186" lon="6.3454">
        <ele>1704.8000488281</ele>
        <time>2014-01-11T07:19:12.000Z</time>
      </trkpt>
      <trkpt lat="45.20185" lon="6.3454">
        <ele>1704.8000488281</ele>
        <time>2014-01-11T07:19:13.000Z</time>
      </trkpt>
      <trkpt lat="45.20184" lon="6.3454">
        <ele>1704.8000488281</ele>
        <time>2014-01-11T07:19:14.000Z</time>
      </trkpt>
      <trkpt lat="45.20182" lon="6.3454">
        <ele>1704.5999755859</ele>
        <time>2014-01-11T07:19:15.000Z</time>
      </trkpt>
      <trkpt lat="45.2018" lon="6.3454">
        <ele>1704.5999755859</ele>
        <time>2014-01-11T07:19:16.000Z</time>
      </trkpt>
      <trkpt lat="45.20179" lon="6.3454">
        <ele>1704.5999755859</ele>
        <time>2014-01-11T07:19:17.000Z</time>
      </trkpt>
      <trkpt lat="45.20178" lon="6.34539">
        <ele>1704.4000244141</ele>
        <time>2014-01-11T07:19:18.000Z</time>
      </trkpt>
      <trkpt lat="45.20177" lon="6.34539">
        <ele>1704.1999511719</ele>
        <time>2014-01-11T07:19:19.000Z</time>
      </trkpt>
      <trkpt lat="45.20176" lon="6.34539">
        <ele>1704.1999511719</ele>
        <time>2014-01-11T07:19:20.000Z</time>
      </trkpt>
      <trkpt lat="45.20175" lon="6.34539">
        <ele>1704</ele>
        <time>2014-01-11T07:19:21.000Z</time>
      </trkpt>
      <trkpt lat="45.20174" lon="6.34539">
        <ele>1704</ele>
        <time>2014-01-11T07:19:22.000Z</time>
      </trkpt>
      <trkpt lat="45.20173" lon="6.34539">
        <ele>1704</ele>
        <time>2014-01-11T07:19:23.000Z</time>
      </trkpt>
      <trkpt lat="45.20172" lon="6.34538">
        <ele>1704</ele>
        <time>2014-01-11T07:19:24.000Z</time>
      </trkpt>
      <trkpt lat="45.20171" lon="6.34538">
        <ele>1703.8000488281</ele>
        <time>2014-01-11T07:19:25.000Z</time>
      </trkpt>
      <trkpt lat="45.20169" lon="6.34537">
        <ele>1703.8000488281</ele>
        <time>2014-01-11T07:19:26.000Z</time>
      </trkpt>
      <trkpt lat="45.20168" lon="6.34537">
        <ele>1703.8000488281</ele>
        <time>2014-01-11T07:19:27.000Z</time>
      </trkpt>
      <trkpt lat="45.20167" lon="6.34536">
        <ele>1703.8000488281</ele>
        <time>2014-01-11T07:19:28.000Z</time>
      </trkpt>
      <trkpt lat="45.20166" lon="6.34535">
        <ele>1703.8000488281</ele>
        <time>2014-01-11T07:19:29.000Z</time>
      </trkpt>
      <trkpt lat="45.20164" lon="6.34533">
        <ele>1703.8000488281</ele>
        <time>2014-01-11T07:19:31.000Z</time>
      </trkpt>
      <trkpt lat="45.20163" lon="6.34531">
        <ele>1703.8000488281</ele>
        <time>2014-01-11T07:19:32.000Z</time>
      </trkpt>
      <trkpt lat="45.20162" lon="6.3453">
        <ele>1703.8000488281</ele>
        <time>2014-01-11T07:19:33.000Z</time>
      </trkpt>
      <trkpt lat="45.20161" lon="6.34528">
        <ele>1703.8000488281</ele>
        <time>2014-01-11T07:19:34.000Z</time>
      </trkpt>
      <trkpt lat="45.2016" lon="6.34527">
        <ele>1703.5999755859</ele>
        <time>2014-01-11T07:19:35.000Z</time>
      </trkpt>
      <trkpt lat="45.20159" lon="6.34525">
        <ele>1703.5999755859</ele>
        <time>2014-01-11T07:19:36.000Z</time>
      </trkpt>
      <trkpt lat="45.20158" lon="6.34523">
        <ele>1703.5999755859</ele>
        <time>2014-01-11T07:19:37.000Z</time>
      </trkpt>
      <trkpt lat="45.20157" lon="6.34521">
        <ele>1703.5999755859</ele>
        <time>2014-01-11T07:19:38.000Z</time>
      </trkpt>
      <trkpt lat="45.20157" lon="6.34519">
        <ele>1703.4000244141</ele>
        <time>2014-01-11T07:19:39.000Z</time>
      </trkpt>
      <trkpt lat="45.20156" lon="6.34516">
        <ele>1703.4000244141</ele>
        <time>2014-01-11T07:19:40.000Z</time>
      </trkpt>
      <trkpt lat="45.20154" lon="6.34514">
        <ele>1703.4000244141</ele>
        <time>2014-01-11T07:19:41.000Z</time>
      </trkpt>
      <trkpt lat="45.20153" lon="6.34512">
        <ele>1703.4000244141</ele>
        <time>2014-01-11T07:19:42.000Z</time>
      </trkpt>
      <trkpt lat="45.20152" lon="6.3451">
        <ele>1703.1999511719</ele>
        <time>2014-01-11T07:19:43.000Z</time>
      </trkpt>
      <trkpt lat="45.20151" lon="6.34507">
        <ele>1703.1999511719</ele>
        <time>2014-01-11T07:19:44.000Z</time>
      </trkpt>
      <trkpt lat="45.20151" lon="6.34505">
        <ele>1703.1999511719</ele>
        <time>2014-01-11T07:19:45.000Z</time>
      </trkpt>
      <trkpt lat="45.2015" lon="6.34503">
        <ele>1703</ele>
        <time>2014-01-11T07:19:46.000Z</time>
      </trkpt>
      <trkpt lat="45.20149" lon="6.34502">
        <ele>1703</ele>
        <time>2014-01-11T07:19:47.000Z</time>
      </trkpt>
      <trkpt lat="45.20148" lon="6.345">
        <ele>1703</ele>
        <time>2014-01-11T07:19:48.000Z</time>
      </trkpt>
      <trkpt lat="45.20147" lon="6.34498">
        <ele>1702.8000488281</ele>
        <time>2014-01-11T07:19:49.000Z</time>
      </trkpt>
      <trkpt lat="45.20146" lon="6.34497">
        <ele>1702.8000488281</ele>
        <time>2014-01-11T07:19:50.000Z</time>
      </trkpt>
      <trkpt lat="45.20145" lon="6.34495">
        <ele>1702.8000488281</ele>
        <time>2014-01-11T07:19:51.000Z</time>
      </trkpt>
      <trkpt lat="45.20144" lon="6.34494">
        <ele>1702.8000488281</ele>
        <time>2014-01-11T07:19:52.000Z</time>
      </trkpt>
      <trkpt lat="45.20143" lon="6.34492">
        <ele>1702.8000488281</ele>
        <time>2014-01-11T07:19:53.000Z</time>
      </trkpt>
      <trkpt lat="45.20142" lon="6.3449">
        <ele>1702.5999755859</ele>
        <time>2014-01-11T07:19:54.000Z</time>
      </trkpt>
      <trkpt lat="45.20141" lon="6.34489">
        <ele>1702.5999755859</ele>
        <time>2014-01-11T07:19:55.000Z</time>
      </trkpt>
      <trkpt lat="45.2014" lon="6.34487">
        <ele>1702.5999755859</ele>
        <time>2014-01-11T07:19:56.000Z</time>
      </trkpt>
      <trkpt lat="45.20139" lon="6.34486">
        <ele>1702.5999755859</ele>
        <time>2014-01-11T07:19:57.000Z</time>
      </trkpt>
      <trkpt lat="45.20137" lon="6.34484">
        <ele>1702.5999755859</ele>
        <time>2014-01-11T07:19:58.000Z</time>
      </trkpt>
      <trkpt lat="45.20136" lon="6.34483">
        <ele>1702.5999755859</ele>
        <time>2014-01-11T07:19:59.000Z</time>
      </trkpt>
      <trkpt lat="45.20135" lon="6.34482">
        <ele>1702.5999755859</ele>
        <time>2014-01-11T07:20:00.000Z</time>
      </trkpt>
      <trkpt lat="45.20133" lon="6.3448">
        <ele>1702.5999755859</ele>
        <time>2014-01-11T07:20:01.000Z</time>
      </trkpt>
      <trkpt lat="45.20131" lon="6.34479">
        <ele>1702.5999755859</ele>
        <time>2014-01-11T07:20:02.000Z</time>
      </trkpt>
      <trkpt lat="45.20129" lon="6.34478">
        <ele>1702.5999755859</ele>
        <time>2014-01-11T07:20:04.000Z</time>
      </trkpt>
      <trkpt lat="45.20127" lon="6.34477">
        <ele>1702.5999755859</ele>
        <time>2014-01-11T07:20:05.000Z</time>
      </trkpt>
      <trkpt lat="45.20125" lon="6.34476">
        <ele>1702.5999755859</ele>
        <time>2014-01-11T07:20:06.000Z</time>
      </trkpt>
      <trkpt lat="45.20123" lon="6.34476">
        <ele>1702.5999755859</ele>
        <time>2014-01-11T07:20:07.000Z</time>
      </trkpt>
      <trkpt lat="45.20123" lon="6.34476">
        <ele>1702.5999755859</ele>
        <time>2014-01-11T07:20:08.000Z</time>
      </trkpt>
      <trkpt lat="45.20121" lon="6.34475">
        <ele>1702.5999755859</ele>
        <time>2014-01-11T07:20:09.000Z</time>
      </trkpt>
      <trkpt lat="45.2012" lon="6.34475">
        <ele>1702.4000244141</ele>
        <time>2014-01-11T07:20:10.000Z</time>
      </trkpt>
      <trkpt lat="45.20118" lon="6.34475">
        <ele>1702.4000244141</ele>
        <time>2014-01-11T07:20:11.000Z</time>
      </trkpt>
      <trkpt lat="45.20117" lon="6.34475">
        <ele>1702.4000244141</ele>
        <time>2014-01-11T07:20:12.000Z</time>
      </trkpt>
      <trkpt lat="45.20115" lon="6.34475">
        <ele>1702.4000244141</ele>
        <time>2014-01-11T07:20:13.000Z</time>
      </trkpt>
      <trkpt lat="45.20114" lon="6.34475">
        <ele>1702.4000244141</ele>
        <time>2014-01-11T07:20:14.000Z</time>
      </trkpt>
      <trkpt lat="45.20112" lon="6.34475">
        <ele>1702.1999511719</ele>
        <time>2014-01-11T07:20:15.000Z</time>
      </trkpt>
      <trkpt lat="45.20111" lon="6.34475">
        <ele>1702.1999511719</ele>
        <time>2014-01-11T07:20:16.000Z</time>
      </trkpt>
      <trkpt lat="45.2011" lon="6.34475">
        <ele>1702.1999511719</ele>
        <time>2014-01-11T07:20:17.000Z</time>
      </trkpt>
      <trkpt lat="45.20108" lon="6.34474">
        <ele>1702.1999511719</ele>
        <time>2014-01-11T07:20:18.000Z</time>
      </trkpt>
      <trkpt lat="45.20107" lon="6.34474">
        <ele>1702</ele>
        <time>2014-01-11T07:20:19.000Z</time>
      </trkpt>
      <trkpt lat="45.20106" lon="6.34474">
        <ele>1702</ele>
        <time>2014-01-11T07:20:20.000Z</time>
      </trkpt>
      <trkpt lat="45.20105" lon="6.34474">
        <ele>1701.8000488281</ele>
        <time>2014-01-11T07:20:21.000Z</time>
      </trkpt>
      <trkpt lat="45.20103" lon="6.34475">
        <ele>1701.8000488281</ele>
        <time>2014-01-11T07:20:22.000Z</time>
      </trkpt>
      <trkpt lat="45.20102" lon="6.34475">
        <ele>1701.8000488281</ele>
        <time>2014-01-11T07:20:23.000Z</time>
      </trkpt>
      <trkpt lat="45.20101" lon="6.34474">
        <ele>1701.8000488281</ele>
        <time>2014-01-11T07:20:24.000Z</time>
      </trkpt>
      <trkpt lat="45.20099" lon="6.34475">
        <ele>1701.5999755859</ele>
        <time>2014-01-11T07:20:25.000Z</time>
      </trkpt>
      <trkpt lat="45.20098" lon="6.34475">
        <ele>1701.5999755859</ele>
        <time>2014-01-11T07:20:26.000Z</time>
      </trkpt>
      <trkpt lat="45.20097" lon="6.34474">
        <ele>1701.5999755859</ele>
        <time>2014-01-11T07:20:27.000Z</time>
      </trkpt>
      <trkpt lat="45.20095" lon="6.34474">
        <ele>1701.4000244141</ele>
        <time>2014-01-11T07:20:28.000Z</time>
      </trkpt>
      <trkpt lat="45.20093" lon="6.34473">
        <ele>1701.4000244141</ele>
        <time>2014-01-11T07:20:29.000Z</time>
      </trkpt>
      <trkpt lat="45.20092" lon="6.34473">
        <ele>1701.4000244141</ele>
        <time>2014-01-11T07:20:30.000Z</time>
      </trkpt>
      <trkpt lat="45.20091" lon="6.34473">
        <ele>1701.4000244141</ele>
        <time>2014-01-11T07:20:31.000Z</time>
      </trkpt>
      <trkpt lat="45.2009" lon="6.34473">
        <ele>1701.4000244141</ele>
        <time>2014-01-11T07:20:32.000Z</time>
      </trkpt>
      <trkpt lat="45.20088" lon="6.34473">
        <ele>1701.4000244141</ele>
        <time>2014-01-11T07:20:33.000Z</time>
      </trkpt>
      <trkpt lat="45.20087" lon="6.34473">
        <ele>1701.1999511719</ele>
        <time>2014-01-11T07:20:34.000Z</time>
      </trkpt>
      <trkpt lat="45.20086" lon="6.34473">
        <ele>1701.1999511719</ele>
        <time>2014-01-11T07:20:35.000Z</time>
      </trkpt>
      <trkpt lat="45.20084" lon="6.34472">
        <ele>1701.1999511719</ele>
        <time>2014-01-11T07:20:36.000Z</time>
      </trkpt>
      <trkpt lat="45.20082" lon="6.34472">
        <ele>1701</ele>
        <time>2014-01-11T07:20:37.000Z</time>
      </trkpt>
      <trkpt lat="45.20081" lon="6.34472">
        <ele>1701</ele>
        <time>2014-01-11T07:20:38.000Z</time>
      </trkpt>
      <trkpt lat="45.20079" lon="6.34471">
        <ele>1701</ele>
        <time>2014-01-11T07:20:39.000Z</time>
      </trkpt>
      <trkpt lat="45.20077" lon="6.34471">
        <ele>1700.8000488281</ele>
        <time>2014-01-11T07:20:40.000Z</time>
      </trkpt>
      <trkpt lat="45.20076" lon="6.34471">
        <ele>1700.8000488281</ele>
        <time>2014-01-11T07:20:41.000Z</time>
      </trkpt>
      <trkpt lat="45.20075" lon="6.34471">
        <ele>1700.8000488281</ele>
        <time>2014-01-11T07:20:42.000Z</time>
      </trkpt>
      <trkpt lat="45.20074" lon="6.3447">
        <ele>1700.5999755859</ele>
        <time>2014-01-11T07:20:43.000Z</time>
      </trkpt>
      <trkpt lat="45.20072" lon="6.3447">
        <ele>1700.4000244141</ele>
        <time>2014-01-11T07:20:44.000Z</time>
      </trkpt>
      <trkpt lat="45.20072" lon="6.34469">
        <ele>1700.4000244141</ele>
        <time>2014-01-11T07:20:45.000Z</time>
      </trkpt>
      <trkpt lat="45.2007" lon="6.34469">
        <ele>1700.4000244141</ele>
        <time>2014-01-11T07:20:46.000Z</time>
      </trkpt>
      <trkpt lat="45.20067" lon="6.34468">
        <ele>1700.4000244141</ele>
        <time>2014-01-11T07:20:47.000Z</time>
      </trkpt>
      <trkpt lat="45.20066" lon="6.34468">
        <ele>1700.1999511719</ele>
        <time>2014-01-11T07:20:48.000Z</time>
      </trkpt>
      <trkpt lat="45.20064" lon="6.34467">
        <ele>1700.1999511719</ele>
        <time>2014-01-11T07:20:49.000Z</time>
      </trkpt>
      <trkpt lat="45.20062" lon="6.34467">
        <ele>1700.1999511719</ele>
        <time>2014-01-11T07:20:50.000Z</time>
      </trkpt>
      <trkpt lat="45.2006" lon="6.34466">
        <ele>1700</ele>
        <time>2014-01-11T07:20:51.000Z</time>
      </trkpt>
      <trkpt lat="45.20059" lon="6.34466">
        <ele>1700</ele>
        <time>2014-01-11T07:20:52.000Z</time>
      </trkpt>
      <trkpt lat="45.20058" lon="6.34466">
        <ele>1700</ele>
        <time>2014-01-11T07:20:53.000Z</time>
      </trkpt>
      <trkpt lat="45.20057" lon="6.34466">
        <ele>1700</ele>
        <time>2014-01-11T07:20:54.000Z</time>
      </trkpt>
      <trkpt lat="45.20055" lon="6.34466">
        <ele>1700</ele>
        <time>2014-01-11T07:20:55.000Z</time>
      </trkpt>
      <trkpt lat="45.20054" lon="6.34466">
        <ele>1699.8000488281</ele>
        <time>2014-01-11T07:20:56.000Z</time>
      </trkpt>
      <trkpt lat="45.20053" lon="6.34466">
        <ele>1699.8000488281</ele>
        <time>2014-01-11T07:20:57.000Z</time>
      </trkpt>
      <trkpt lat="45.20052" lon="6.34466">
        <ele>1699.8000488281</ele>
        <time>2014-01-11T07:20:58.000Z</time>
      </trkpt>
      <trkpt lat="45.2005" lon="6.34466">
        <ele>1699.8000488281</ele>
        <time>2014-01-11T07:20:59.000Z</time>
      </trkpt>
      <trkpt lat="45.20048" lon="6.34466">
        <ele>1699.8000488281</ele>
        <time>2014-01-11T07:21:00.000Z</time>
      </trkpt>
      <trkpt lat="45.20046" lon="6.34466">
        <ele>1699.8000488281</ele>
        <time>2014-01-11T07:21:01.000Z</time>
      </trkpt>
      <trkpt lat="45.20045" lon="6.34466">
        <ele>1699.8000488281</ele>
        <time>2014-01-11T07:21:02.000Z</time>
      </trkpt>
      <trkpt lat="45.20043" lon="6.34466">
        <ele>1699.8000488281</ele>
        <time>2014-01-11T07:21:03.000Z</time>
      </trkpt>
      <trkpt lat="45.20041" lon="6.34467">
        <ele>1699.5999755859</ele>
        <time>2014-01-11T07:21:04.000Z</time>
      </trkpt>
      <trkpt lat="45.2004" lon="6.34467">
        <ele>1699.5999755859</ele>
        <time>2014-01-11T07:21:05.000Z</time>
      </trkpt>
      <trkpt lat="45.20039" lon="6.34468">
        <ele>1699.5999755859</ele>
        <time>2014-01-11T07:21:06.000Z</time>
      </trkpt>
      <trkpt lat="45.20038" lon="6.34469">
        <ele>1699.4000244141</ele>
        <time>2014-01-11T07:21:07.000Z</time>
      </trkpt>
      <trkpt lat="45.20037" lon="6.3447">
        <ele>1699.4000244141</ele>
        <time>2014-01-11T07:21:08.000Z</time>
      </trkpt>
      <trkpt lat="45.20036" lon="6.34471">
        <ele>1699.4000244141</ele>
        <time>2014-01-11T07:21:09.000Z</time>
      </trkpt>
      <trkpt lat="45.20035" lon="6.34471">
        <ele>1699.4000244141</ele>
        <time>2014-01-11T07:21:10.000Z</time>
      </trkpt>
      <trkpt lat="45.20033" lon="6.34472">
        <ele>1699.4000244141</ele>
        <time>2014-01-11T07:21:11.000Z</time>
      </trkpt>
      <trkpt lat="45.20031" lon="6.34474">
        <ele>1699.4000244141</ele>
        <time>2014-01-11T07:21:13.000Z</time>
      </trkpt>
      <trkpt lat="45.20029" lon="6.34475">
        <ele>1699.1999511719</ele>
        <time>2014-01-11T07:21:14.000Z</time>
      </trkpt>
      <trkpt lat="45.20028" lon="6.34476">
        <ele>1699.1999511719</ele>
        <time>2014-01-11T07:21:15.000Z</time>
      </trkpt>
      <trkpt lat="45.20026" lon="6.34477">
        <ele>1699.1999511719</ele>
        <time>2014-01-11T07:21:16.000Z</time>
      </trkpt>
      <trkpt lat="45.20025" lon="6.34478">
        <ele>1699.1999511719</ele>
        <time>2014-01-11T07:21:17.000Z</time>
      </trkpt>
      <trkpt lat="45.20024" lon="6.34478">
        <ele>1699.1999511719</ele>
        <time>2014-01-11T07:21:18.000Z</time>
      </trkpt>
      <trkpt lat="45.20022" lon="6.34479">
        <ele>1699.1999511719</ele>
        <time>2014-01-11T07:21:19.000Z</time>
      </trkpt>
      <trkpt lat="45.20019" lon="6.34481">
        <ele>1699.1999511719</ele>
        <time>2014-01-11T07:21:21.000Z</time>
      </trkpt>
      <trkpt lat="45.20018" lon="6.34481">
        <ele>1699.1999511719</ele>
        <time>2014-01-11T07:21:22.000Z</time>
      </trkpt>
      <trkpt lat="45.20017" lon="6.34483">
        <ele>1699.1999511719</ele>
        <time>2014-01-11T07:21:23.000Z</time>
      </trkpt>
      <trkpt lat="45.20016" lon="6.34484">
        <ele>1699</ele>
        <time>2014-01-11T07:21:24.000Z</time>
      </trkpt>
      <trkpt lat="45.20015" lon="6.34485">
        <ele>1699</ele>
        <time>2014-01-11T07:21:25.000Z</time>
      </trkpt>
      <trkpt lat="45.20014" lon="6.34486">
        <ele>1699</ele>
        <time>2014-01-11T07:21:26.000Z</time>
      </trkpt>
      <trkpt lat="45.20013" lon="6.34487">
        <ele>1699</ele>
        <time>2014-01-11T07:21:27.000Z</time>
      </trkpt>
      <trkpt lat="45.20012" lon="6.34488">
        <ele>1699</ele>
        <time>2014-01-11T07:21:28.000Z</time>
      </trkpt>
      <trkpt lat="45.20011" lon="6.34488">
        <ele>1699</ele>
        <time>2014-01-11T07:21:29.000Z</time>
      </trkpt>
      <trkpt lat="45.20009" lon="6.34489">
        <ele>1699</ele>
        <time>2014-01-11T07:21:30.000Z</time>
      </trkpt>
      <trkpt lat="45.20008" lon="6.34489">
        <ele>1698.8000488281</ele>
        <time>2014-01-11T07:21:31.000Z</time>
      </trkpt>
      <trkpt lat="45.20007" lon="6.3449">
        <ele>1698.8000488281</ele>
        <time>2014-01-11T07:21:32.000Z</time>
      </trkpt>
      <trkpt lat="45.20005" lon="6.3449">
        <ele>1698.8000488281</ele>
        <time>2014-01-11T07:21:33.000Z</time>
      </trkpt>
      <trkpt lat="45.20004" lon="6.34491">
        <ele>1698.8000488281</ele>
        <time>2014-01-11T07:21:34.000Z</time>
      </trkpt>
      <trkpt lat="45.20003" lon="6.34491">
        <ele>1698.8000488281</ele>
        <time>2014-01-11T07:21:35.000Z</time>
      </trkpt>
      <trkpt lat="45.20001" lon="6.34491">
        <ele>1698.8000488281</ele>
        <time>2014-01-11T07:21:36.000Z</time>
      </trkpt>
      <trkpt lat="45.2" lon="6.34491">
        <ele>1698.8000488281</ele>
        <time>2014-01-11T07:21:37.000Z</time>
      </trkpt>
      <trkpt lat="45.19998" lon="6.34491">
        <ele>1698.8000488281</ele>
        <time>2014-01-11T07:21:39.000Z</time>
      </trkpt>
      <trkpt lat="45.19996" lon="6.3449">
        <ele>1698.5999755859</ele>
        <time>2014-01-11T07:21:40.000Z</time>
      </trkpt>
      <trkpt lat="45.19995" lon="6.3449">
        <ele>1698.5999755859</ele>
        <time>2014-01-11T07:21:41.000Z</time>
      </trkpt>
      <trkpt lat="45.19995" lon="6.34489">
        <ele>1698.5999755859</ele>
        <time>2014-01-11T07:21:42.000Z</time>
      </trkpt>
      <trkpt lat="45.19994" lon="6.34488">
        <ele>1698.5999755859</ele>
        <time>2014-01-11T07:21:43.000Z</time>
      </trkpt>
      <trkpt lat="45.19993" lon="6.34486">
        <ele>1698.5999755859</ele>
        <time>2014-01-11T07:21:44.000Z</time>
      </trkpt>
      <trkpt lat="45.19993" lon="6.34484">
        <ele>1698.5999755859</ele>
        <time>2014-01-11T07:21:45.000Z</time>
      </trkpt>
      <trkpt lat="45.19991" lon="6.34478">
        <ele>1698.5999755859</ele>
        <time>2014-01-11T07:21:48.000Z</time>
      </trkpt>
      <trkpt lat="45.1999" lon="6.34476">
        <ele>1698.5999755859</ele>
        <time>2014-01-11T07:21:49.000Z</time>
      </trkpt>
      <trkpt lat="45.1999" lon="6.34473">
        <ele>1698.5999755859</ele>
        <time>2014-01-11T07:21:50.000Z</time>
      </trkpt>
      <trkpt lat="45.19989" lon="6.34471">
        <ele>1698.4000244141</ele>
        <time>2014-01-11T07:21:51.000Z</time>
      </trkpt>
      <trkpt lat="45.19988" lon="6.34468">
        <ele>1698.4000244141</ele>
        <time>2014-01-11T07:21:52.000Z</time>
      </trkpt>
      <trkpt lat="45.19987" lon="6.34467">
        <ele>1698.4000244141</ele>
        <time>2014-01-11T07:21:53.000Z</time>
      </trkpt>
      <trkpt lat="45.19987" lon="6.34464">
        <ele>1698.4000244141</ele>
        <time>2014-01-11T07:21:54.000Z</time>
      </trkpt>
      <trkpt lat="45.19986" lon="6.34461">
        <ele>1698.1999511719</ele>
        <time>2014-01-11T07:21:55.000Z</time>
      </trkpt>
      <trkpt lat="45.19985" lon="6.34459">
        <ele>1698.1999511719</ele>
        <time>2014-01-11T07:21:56.000Z</time>
      </trkpt>
      <trkpt lat="45.19984" lon="6.34458">
        <ele>1698.1999511719</ele>
        <time>2014-01-11T07:21:57.000Z</time>
      </trkpt>
      <trkpt lat="45.19983" lon="6.34455">
        <ele>1698</ele>
        <time>2014-01-11T07:21:58.000Z</time>
      </trkpt>
      <trkpt lat="45.19982" lon="6.34453">
        <ele>1698</ele>
        <time>2014-01-11T07:21:59.000Z</time>
      </trkpt>
      <trkpt lat="45.1998" lon="6.34452">
        <ele>1697.8000488281</ele>
        <time>2014-01-11T07:22:00.000Z</time>
      </trkpt>
      <trkpt lat="45.1998" lon="6.3445">
        <ele>1697.8000488281</ele>
        <time>2014-01-11T07:22:01.000Z</time>
      </trkpt>
      <trkpt lat="45.19978" lon="6.34449">
        <ele>1697.8000488281</ele>
        <time>2014-01-11T07:22:02.000Z</time>
      </trkpt>
      <trkpt lat="45.19977" lon="6.34448">
        <ele>1697.8000488281</ele>
        <time>2014-01-11T07:22:03.000Z</time>
      </trkpt>
      <trkpt lat="45.19975" lon="6.34447">
        <ele>1697.8000488281</ele>
        <time>2014-01-11T07:22:04.000Z</time>
      </trkpt>
      <trkpt lat="45.19974" lon="6.34446">
        <ele>1697.8000488281</ele>
        <time>2014-01-11T07:22:05.000Z</time>
      </trkpt>
      <trkpt lat="45.19971" lon="6.34444">
        <ele>1697.8000488281</ele>
        <time>2014-01-11T07:22:07.000Z</time>
      </trkpt>
      <trkpt lat="45.1997" lon="6.34444">
        <ele>1697.8000488281</ele>
        <time>2014-01-11T07:22:08.000Z</time>
      </trkpt>
      <trkpt lat="45.19968" lon="6.34443">
        <ele>1697.5999755859</ele>
        <time>2014-01-11T07:22:09.000Z</time>
      </trkpt>
      <trkpt lat="45.19967" lon="6.34443">
        <ele>1697.5999755859</ele>
        <time>2014-01-11T07:22:10.000Z</time>
      </trkpt>
      <trkpt lat="45.19966" lon="6.34443">
        <ele>1697.5999755859</ele>
        <time>2014-01-11T07:22:11.000Z</time>
      </trkpt>
      <trkpt lat="45.19964" lon="6.34443">
        <ele>1697.4000244141</ele>
        <time>2014-01-11T07:22:12.000Z</time>
      </trkpt>
      <trkpt lat="45.19962" lon="6.34443">
        <ele>1697.4000244141</ele>
        <time>2014-01-11T07:22:13.000Z</time>
      </trkpt>
      <trkpt lat="45.19961" lon="6.34442">
        <ele>1697.4000244141</ele>
        <time>2014-01-11T07:22:14.000Z</time>
      </trkpt>
      <trkpt lat="45.19958" lon="6.34442">
        <ele>1697.4000244141</ele>
        <time>2014-01-11T07:22:16.000Z</time>
      </trkpt>
      <trkpt lat="45.19956" lon="6.34442">
        <ele>1697.4000244141</ele>
        <time>2014-01-11T07:22:17.000Z</time>
      </trkpt>
      <trkpt lat="45.19953" lon="6.34442">
        <ele>1697.4000244141</ele>
        <time>2014-01-11T07:22:19.000Z</time>
      </trkpt>
      <trkpt lat="45.19952" lon="6.34443">
        <ele>1697.4000244141</ele>
        <time>2014-01-11T07:22:20.000Z</time>
      </trkpt>
      <trkpt lat="45.19951" lon="6.34443">
        <ele>1697.1999511719</ele>
        <time>2014-01-11T07:22:21.000Z</time>
      </trkpt>
      <trkpt lat="45.19951" lon="6.34443">
        <ele>1697.1999511719</ele>
        <time>2014-01-11T07:22:22.000Z</time>
      </trkpt>
      <trkpt lat="45.19949" lon="6.34443">
        <ele>1697.1999511719</ele>
        <time>2014-01-11T07:22:23.000Z</time>
      </trkpt>
      <trkpt lat="45.19947" lon="6.34443">
        <ele>1697.1999511719</ele>
        <time>2014-01-11T07:22:24.000Z</time>
      </trkpt>
      <trkpt lat="45.19945" lon="6.34442">
        <ele>1697.1999511719</ele>
        <time>2014-01-11T07:22:25.000Z</time>
      </trkpt>
      <trkpt lat="45.19944" lon="6.34442">
        <ele>1697.1999511719</ele>
        <time>2014-01-11T07:22:26.000Z</time>
      </trkpt>
      <trkpt lat="45.19943" lon="6.34442">
        <ele>1697</ele>
        <time>2014-01-11T07:22:27.000Z</time>
      </trkpt>
      <trkpt lat="45.19941" lon="6.34441">
        <ele>1697</ele>
        <time>2014-01-11T07:22:28.000Z</time>
      </trkpt>
      <trkpt lat="45.1994" lon="6.34441">
        <ele>1697</ele>
        <time>2014-01-11T07:22:29.000Z</time>
      </trkpt>
      <trkpt lat="45.19939" lon="6.34441">
        <ele>1697</ele>
        <time>2014-01-11T07:22:30.000Z</time>
      </trkpt>
      <trkpt lat="45.19938" lon="6.34441">
        <ele>1696.8000488281</ele>
        <time>2014-01-11T07:22:31.000Z</time>
      </trkpt>
      <trkpt lat="45.19937" lon="6.34441">
        <ele>1696.8000488281</ele>
        <time>2014-01-11T07:22:32.000Z</time>
      </trkpt>
      <trkpt lat="45.19936" lon="6.34441">
        <ele>1696.8000488281</ele>
        <time>2014-01-11T07:22:33.000Z</time>
      </trkpt>
      <trkpt lat="45.19935" lon="6.34441">
        <ele>1696.8000488281</ele>
        <time>2014-01-11T07:22:34.000Z</time>
      </trkpt>
      <trkpt lat="45.19934" lon="6.3444">
        <ele>1696.8000488281</ele>
        <time>2014-01-11T07:22:35.000Z</time>
      </trkpt>
      <trkpt lat="45.19932" lon="6.3444">
        <ele>1696.8000488281</ele>
        <time>2014-01-11T07:22:36.000Z</time>
      </trkpt>
      <trkpt lat="45.1993" lon="6.34439">
        <ele>1696.8000488281</ele>
        <time>2014-01-11T07:22:37.000Z</time>
      </trkpt>
      <trkpt lat="45.19929" lon="6.34438">
        <ele>1696.8000488281</ele>
        <time>2014-01-11T07:22:38.000Z</time>
      </trkpt>
      <trkpt lat="45.19927" lon="6.34438">
        <ele>1696.5999755859</ele>
        <time>2014-01-11T07:22:39.000Z</time>
      </trkpt>
      <trkpt lat="45.19925" lon="6.34437">
        <ele>1696.5999755859</ele>
        <time>2014-01-11T07:22:40.000Z</time>
      </trkpt>
      <trkpt lat="45.19924" lon="6.34437">
        <ele>1696.5999755859</ele>
        <time>2014-01-11T07:22:41.000Z</time>
      </trkpt>
      <trkpt lat="45.19922" lon="6.34436">
        <ele>1696.5999755859</ele>
        <time>2014-01-11T07:22:42.000Z</time>
      </trkpt>
      <trkpt lat="45.1992" lon="6.34435">
        <ele>1696.5999755859</ele>
        <time>2014-01-11T07:22:43.000Z</time>
      </trkpt>
      <trkpt lat="45.19916" lon="6.34434">
        <ele>1696.5999755859</ele>
        <time>2014-01-11T07:22:46.000Z</time>
      </trkpt>
      <trkpt lat="45.19916" lon="6.34434">
        <ele>1696.5999755859</ele>
        <time>2014-01-11T07:22:47.000Z</time>
      </trkpt>
      <trkpt lat="45.19914" lon="6.34434">
        <ele>1696.4000244141</ele>
        <time>2014-01-11T07:22:48.000Z</time>
      </trkpt>
      <trkpt lat="45.19913" lon="6.34434">
        <ele>1696.4000244141</ele>
        <time>2014-01-11T07:22:49.000Z</time>
      </trkpt>
      <trkpt lat="45.19912" lon="6.34434">
        <ele>1696.4000244141</ele>
        <time>2014-01-11T07:22:50.000Z</time>
      </trkpt>
      <trkpt lat="45.1991" lon="6.34433">
        <ele>1696.4000244141</ele>
        <time>2014-01-11T07:22:51.000Z</time>
      </trkpt>
      <trkpt lat="45.19905" lon="6.3443">
        <ele>1696.4000244141</ele>
        <time>2014-01-11T07:22:54.000Z</time>
      </trkpt>
      <trkpt lat="45.19904" lon="6.3443">
        <ele>1696.4000244141</ele>
        <time>2014-01-11T07:22:55.000Z</time>
      </trkpt>
      <trkpt lat="45.19902" lon="6.3443">
        <ele>1696.4000244141</ele>
        <time>2014-01-11T07:22:56.000Z</time>
      </trkpt>
      <trkpt lat="45.19901" lon="6.34429">
        <ele>1696.4000244141</ele>
        <time>2014-01-11T07:22:57.000Z</time>
      </trkpt>
      <trkpt lat="45.19898" lon="6.34429">
        <ele>1696.4000244141</ele>
        <time>2014-01-11T07:22:59.000Z</time>
      </trkpt>
      <trkpt lat="45.19897" lon="6.34429">
        <ele>1696.4000244141</ele>
        <time>2014-01-11T07:23:00.000Z</time>
      </trkpt>
      <trkpt lat="45.19895" lon="6.34429">
        <ele>1696.4000244141</ele>
        <time>2014-01-11T07:23:01.000Z</time>
      </trkpt>
      <trkpt lat="45.19893" lon="6.34429">
        <ele>1696.1999511719</ele>
        <time>2014-01-11T07:23:02.000Z</time>
      </trkpt>
      <trkpt lat="45.19892" lon="6.34428">
        <ele>1696.1999511719</ele>
        <time>2014-01-11T07:23:03.000Z</time>
      </trkpt>
      <trkpt lat="45.19891" lon="6.34428">
        <ele>1696.1999511719</ele>
        <time>2014-01-11T07:23:04.000Z</time>
      </trkpt>
      <trkpt lat="45.1989" lon="6.34427">
        <ele>1696.1999511719</ele>
        <time>2014-01-11T07:23:05.000Z</time>
      </trkpt>
      <trkpt lat="45.19888" lon="6.34427">
        <ele>1696.1999511719</ele>
        <time>2014-01-11T07:23:06.000Z</time>
      </trkpt>
      <trkpt lat="45.19887" lon="6.34427">
        <ele>1696.1999511719</ele>
        <time>2014-01-11T07:23:07.000Z</time>
      </trkpt>
      <trkpt lat="45.19885" lon="6.34426">
        <ele>1696</ele>
        <time>2014-01-11T07:23:08.000Z</time>
      </trkpt>
      <trkpt lat="45.19884" lon="6.34425">
        <ele>1696</ele>
        <time>2014-01-11T07:23:09.000Z</time>
      </trkpt>
      <trkpt lat="45.19883" lon="6.34425">
        <ele>1696</ele>
        <time>2014-01-11T07:23:10.000Z</time>
      </trkpt>
      <trkpt lat="45.19882" lon="6.34424">
        <ele>1696</ele>
        <time>2014-01-11T07:23:11.000Z</time>
      </trkpt>
      <trkpt lat="45.19881" lon="6.34424">
        <ele>1696</ele>
        <time>2014-01-11T07:23:12.000Z</time>
      </trkpt>
      <trkpt lat="45.1988" lon="6.34424">
        <ele>1696</ele>
        <time>2014-01-11T07:23:13.000Z</time>
      </trkpt>
      <trkpt lat="45.19879" lon="6.34424">
        <ele>1695.8000488281</ele>
        <time>2014-01-11T07:23:14.000Z</time>
      </trkpt>
      <trkpt lat="45.19878" lon="6.34424">
        <ele>1695.8000488281</ele>
        <time>2014-01-11T07:23:15.000Z</time>
      </trkpt>
      <trkpt lat="45.19878" lon="6.34424">
        <ele>1695.8000488281</ele>
        <time>2014-01-11T07:23:16.000Z</time>
      </trkpt>
      <trkpt lat="45.19878" lon="6.34424">
        <ele>1695.8000488281</ele>
        <time>2014-01-11T07:23:17.000Z</time>
      </trkpt>
      <trkpt lat="45.19878" lon="6.34424">
        <ele>1695.8000488281</ele>
        <time>2014-01-11T07:23:18.000Z</time>
      </trkpt>
      <trkpt lat="45.19878" lon="6.34424">
        <ele>1695.8000488281</ele>
        <time>2014-01-11T07:23:19.000Z</time>
      </trkpt>
      <trkpt lat="45.19878" lon="6.34424">
        <ele>1695.8000488281</ele>
        <time>2014-01-11T07:23:20.000Z</time>
      </trkpt>
      <trkpt lat="45.19878" lon="6.34424">
        <ele>1695.5999755859</ele>
        <time>2014-01-11T07:23:21.000Z</time>
      </trkpt>
      <trkpt lat="45.19878" lon="6.34424">
        <ele>1695.8000488281</ele>
        <time>2014-01-11T07:23:23.000Z</time>
      </trkpt>
      <trkpt lat="45.19878" lon="6.34424">
        <ele>1695.8000488281</ele>
        <time>2014-01-11T07:23:24.000Z</time>
      </trkpt>
      <trkpt lat="45.19878" lon="6.34424">
        <ele>1696</ele>
        <time>2014-01-11T07:23:25.000Z</time>
      </trkpt>
      <trkpt lat="45.19878" lon="6.34423">
        <ele>1696</ele>
        <time>2014-01-11T07:23:26.000Z</time>
      </trkpt>
      <trkpt lat="45.19877" lon="6.34424">
        <ele>1696.1999511719</ele>
        <time>2014-01-11T07:23:27.000Z</time>
      </trkpt>
      <trkpt lat="45.19877" lon="6.34424">
        <ele>1696.1999511719</ele>
        <time>2014-01-11T07:23:28.000Z</time>
      </trkpt>
      <trkpt lat="45.19877" lon="6.34423">
        <ele>1696.1999511719</ele>
        <time>2014-01-11T07:23:29.000Z</time>
      </trkpt>
      <trkpt lat="45.19877" lon="6.34423">
        <ele>1696.1999511719</ele>
        <time>2014-01-11T07:23:30.000Z</time>
      </trkpt>
      <trkpt lat="45.19877" lon="6.34423">
        <ele>1696.1999511719</ele>
        <time>2014-01-11T07:23:32.000Z</time>
      </trkpt>
      <trkpt lat="45.19877" lon="6.34423">
        <ele>1696.1999511719</ele>
        <time>2014-01-11T07:23:33.000Z</time>
      </trkpt>
      <trkpt lat="45.19877" lon="6.34423">
        <ele>1696.1999511719</ele>
        <time>2014-01-11T07:23:35.000Z</time>
      </trkpt>
      <trkpt lat="45.19877" lon="6.34423">
        <ele>1696.1999511719</ele>
        <time>2014-01-11T07:23:36.000Z</time>
      </trkpt>
      <trkpt lat="45.19877" lon="6.34423">
        <ele>1696.1999511719</ele>
        <time>2014-01-11T07:23:37.000Z</time>
      </trkpt>
      <trkpt lat="45.19877" lon="6.34423">
        <ele>1696.1999511719</ele>
        <time>2014-01-11T07:23:38.000Z</time>
      </trkpt>
      <trkpt lat="45.19877" lon="6.34423">
        <ele>1696.1999511719</ele>
        <time>2014-01-11T07:23:39.000Z</time>
      </trkpt>
      <trkpt lat="45.19877" lon="6.34423">
        <ele>1696.1999511719</ele>
        <time>2014-01-11T07:23:40.000Z</time>
      </trkpt>
      <trkpt lat="45.19877" lon="6.34423">
        <ele>1696</ele>
        <time>2014-01-11T07:23:41.000Z</time>
      </trkpt>
      <trkpt lat="45.19877" lon="6.34423">
        <ele>1696</ele>
        <time>2014-01-11T07:23:42.000Z</time>
      </trkpt>
      <trkpt lat="45.19877" lon="6.34423">
        <ele>1696</ele>
        <time>2014-01-11T07:23:43.000Z</time>
      </trkpt>
      <trkpt lat="45.19877" lon="6.34423">
        <ele>1696</ele>
        <time>2014-01-11T07:23:44.000Z</time>
      </trkpt>
      <trkpt lat="45.19877" lon="6.34423">
        <ele>1696</ele>
        <time>2014-01-11T07:23:45.000Z</time>
      </trkpt>
      <trkpt lat="45.19877" lon="6.34423">
        <ele>1696</ele>
        <time>2014-01-11T07:23:46.000Z</time>
      </trkpt>
      <trkpt lat="45.19877" lon="6.34423">
        <ele>1696</ele>
        <time>2014-01-11T07:23:47.000Z</time>
      </trkpt>
      <trkpt lat="45.19877" lon="6.34423">
        <ele>1696</ele>
        <time>2014-01-11T07:23:49.000Z</time>
      </trkpt>
      <trkpt lat="45.19877" lon="6.34423">
        <ele>1696</ele>
        <time>2014-01-11T07:23:50.000Z</time>
      </trkpt>
      <trkpt lat="45.19877" lon="6.34423">
        <ele>1696</ele>
        <time>2014-01-11T07:23:51.000Z</time>
      </trkpt>
      <trkpt lat="45.19877" lon="6.34423">
        <ele>1696.1999511719</ele>
        <time>2014-01-11T07:23:52.000Z</time>
      </trkpt>
      <trkpt lat="45.19877" lon="6.34423">
        <ele>1696.1999511719</ele>
        <time>2014-01-11T07:23:53.000Z</time>
      </trkpt>
      <trkpt lat="45.19877" lon="6.34423">
        <ele>1696.1999511719</ele>
        <time>2014-01-11T07:23:54.000Z</time>
      </trkpt>
      <trkpt lat="45.19877" lon="6.34423">
        <ele>1696</ele>
        <time>2014-01-11T07:23:55.000Z</time>
      </trkpt>
      <trkpt lat="45.19877" lon="6.34423">
        <ele>1696</ele>
        <time>2014-01-11T07:23:56.000Z</time>
      </trkpt>
      <trkpt lat="45.19877" lon="6.34423">
        <ele>1696</ele>
        <time>2014-01-11T07:23:57.000Z</time>
      </trkpt>
      <trkpt lat="45.19877" lon="6.34423">
        <ele>1696</ele>
        <time>2014-01-11T07:23:58.000Z</time>
      </trkpt>
      <trkpt lat="45.19877" lon="6.34423">
        <ele>1696</ele>
        <time>2014-01-11T07:24:00.000Z</time>
      </trkpt>
      <trkpt lat="45.19877" lon="6.34423">
        <ele>1696</ele>
        <time>2014-01-11T07:24:01.000Z</time>
      </trkpt>
      <trkpt lat="45.19877" lon="6.34423">
        <ele>1696</ele>
        <time>2014-01-11T07:24:02.000Z</time>
      </trkpt>
      <trkpt lat="45.19877" lon="6.34423">
        <ele>1696</ele>
        <time>2014-01-11T07:24:03.000Z</time>
      </trkpt>
      <trkpt lat="45.19877" lon="6.34423">
        <ele>1696</ele>
        <time>2014-01-11T07:24:04.000Z</time>
      </trkpt>
      <trkpt lat="45.19877" lon="6.34423">
        <ele>1696.1999511719</ele>
        <time>2014-01-11T07:24:05.000Z</time>
      </trkpt>
      <trkpt lat="45.19877" lon="6.34423">
        <ele>1696.1999511719</ele>
        <time>2014-01-11T07:24:06.000Z</time>
      </trkpt>
      <trkpt lat="45.19877" lon="6.34423">
        <ele>1696.1999511719</ele>
        <time>2014-01-11T07:24:07.000Z</time>
      </trkpt>
      <trkpt lat="45.19877" lon="6.34423">
        <ele>1696.1999511719</ele>
        <time>2014-01-11T07:24:08.000Z</time>
      </trkpt>
      <trkpt lat="45.19876" lon="6.34423">
        <ele>1696.1999511719</ele>
        <time>2014-01-11T07:24:11.000Z</time>
      </trkpt>
      <trkpt lat="45.19876" lon="6.34423">
        <ele>1696.1999511719</ele>
        <time>2014-01-11T07:24:15.000Z</time>
      </trkpt>
      <trkpt lat="45.19876" lon="6.34423">
        <ele>1696.1999511719</ele>
        <time>2014-01-11T07:24:18.000Z</time>
      </trkpt>
      <trkpt lat="45.19876" lon="6.34423">
        <ele>1696.1999511719</ele>
        <time>2014-01-11T07:24:19.000Z</time>
      </trkpt>
      <trkpt lat="45.19876" lon="6.34423">
        <ele>1696.1999511719</ele>
        <time>2014-01-11T07:24:20.000Z</time>
      </trkpt>
      <trkpt lat="45.19876" lon="6.34423">
        <ele>1696.1999511719</ele>
        <time>2014-01-11T07:24:21.000Z</time>
      </trkpt>
      <trkpt lat="45.19876" lon="6.34423">
        <ele>1696.1999511719</ele>
        <time>2014-01-11T07:24:23.000Z</time>
      </trkpt>
      <trkpt lat="45.19876" lon="6.34423">
        <ele>1696.1999511719</ele>
        <time>2014-01-11T07:24:24.000Z</time>
      </trkpt>
      <trkpt lat="45.19876" lon="6.34423">
        <ele>1696.1999511719</ele>
        <time>2014-01-11T07:24:25.000Z</time>
      </trkpt>
      <trkpt lat="45.19876" lon="6.34423">
        <ele>1696.1999511719</ele>
        <time>2014-01-11T07:24:26.000Z</time>
      </trkpt>
      <trkpt lat="45.19876" lon="6.34423">
        <ele>1696.1999511719</ele>
        <time>2014-01-11T07:24:27.000Z</time>
      </trkpt>
      <trkpt lat="45.19876" lon="6.34423">
        <ele>1696.1999511719</ele>
        <time>2014-01-11T07:24:30.000Z</time>
      </trkpt>
      <trkpt lat="45.19876" lon="6.34423">
        <ele>1696.1999511719</ele>
        <time>2014-01-11T07:24:31.000Z</time>
      </trkpt>
      <trkpt lat="45.19876" lon="6.34423">
        <ele>1696.1999511719</ele>
        <time>2014-01-11T07:24:33.000Z</time>
      </trkpt>
      <trkpt lat="45.19876" lon="6.34423">
        <ele>1696.1999511719</ele>
        <time>2014-01-11T07:24:38.000Z</time>
      </trkpt>
      <trkpt lat="45.19876" lon="6.34423">
        <ele>1696.1999511719</ele>
        <time>2014-01-11T07:24:39.000Z</time>
      </trkpt>
      <trkpt lat="45.19876" lon="6.34423">
        <ele>1696.1999511719</ele>
        <time>2014-01-11T07:24:42.000Z</time>
      </trkpt>
      <trkpt lat="45.19876" lon="6.34423">
        <ele>1696.1999511719</ele>
        <time>2014-01-11T07:24:43.000Z</time>
      </trkpt>
      <trkpt lat="45.19876" lon="6.34423">
        <ele>1696.1999511719</ele>
        <time>2014-01-11T07:24:44.000Z</time>
      </trkpt>
      <trkpt lat="45.19876" lon="6.34423">
        <ele>1696.1999511719</ele>
        <time>2014-01-11T07:24:46.000Z</time>
      </trkpt>
      <trkpt lat="45.19876" lon="6.34423">
        <ele>1696.1999511719</ele>
        <time>2014-01-11T07:24:47.000Z</time>
      </trkpt>
      <trkpt lat="45.19876" lon="6.34423">
        <ele>1696.1999511719</ele>
        <time>2014-01-11T07:24:48.000Z</time>
      </trkpt>
      <trkpt lat="45.19876" lon="6.34423">
        <ele>1696.1999511719</ele>
        <time>2014-01-11T07:24:50.000Z</time>
      </trkpt>
      <trkpt lat="45.19874" lon="6.34422">
        <ele>1696.1999511719</ele>
        <time>2014-01-11T07:24:51.000Z</time>
      </trkpt>
      <trkpt lat="45.19872" lon="6.34422">
        <ele>1696.1999511719</ele>
        <time>2014-01-11T07:24:52.000Z</time>
      </trkpt>
      <trkpt lat="45.1987" lon="6.34421">
        <ele>1696.1999511719</ele>
        <time>2014-01-11T07:24:53.000Z</time>
      </trkpt>
      <trkpt lat="45.19869" lon="6.34421">
        <ele>1696.4000244141</ele>
        <time>2014-01-11T07:24:54.000Z</time>
      </trkpt>
      <trkpt lat="45.19868" lon="6.3442">
        <ele>1696.1999511719</ele>
        <time>2014-01-11T07:24:55.000Z</time>
      </trkpt>
      <trkpt lat="45.19866" lon="6.3442">
        <ele>1696.1999511719</ele>
        <time>2014-01-11T07:24:56.000Z</time>
      </trkpt>
      <trkpt lat="45.19865" lon="6.3442">
        <ele>1696.1999511719</ele>
        <time>2014-01-11T07:24:57.000Z</time>
      </trkpt>
      <trkpt lat="45.19864" lon="6.3442">
        <ele>1696.1999511719</ele>
        <time>2014-01-11T07:24:58.000Z</time>
      </trkpt>
      <trkpt lat="45.19863" lon="6.34419">
        <ele>1696.1999511719</ele>
        <time>2014-01-11T07:24:59.000Z</time>
      </trkpt>
      <trkpt lat="45.19861" lon="6.34419">
        <ele>1696</ele>
        <time>2014-01-11T07:25:00.000Z</time>
      </trkpt>
      <trkpt lat="45.1986" lon="6.34419">
        <ele>1696</ele>
        <time>2014-01-11T07:25:01.000Z</time>
      </trkpt>
      <trkpt lat="45.19859" lon="6.34419">
        <ele>1696</ele>
        <time>2014-01-11T07:25:02.000Z</time>
      </trkpt>
      <trkpt lat="45.19858" lon="6.34418">
        <ele>1695.8000488281</ele>
        <time>2014-01-11T07:25:03.000Z</time>
      </trkpt>
      <trkpt lat="45.19857" lon="6.34418">
        <ele>1695.8000488281</ele>
        <time>2014-01-11T07:25:04.000Z</time>
      </trkpt>
      <trkpt lat="45.19856" lon="6.34418">
        <ele>1695.8000488281</ele>
        <time>2014-01-11T07:25:05.000Z</time>
      </trkpt>
      <trkpt lat="45.19852" lon="6.34416">
        <ele>1695.8000488281</ele>
        <time>2014-01-11T07:25:08.000Z</time>
      </trkpt>
      <trkpt lat="45.19851" lon="6.34416">
        <ele>1695.8000488281</ele>
        <time>2014-01-11T07:25:09.000Z</time>
      </trkpt>
      <trkpt lat="45.19849" lon="6.34415">
        <ele>1695.8000488281</ele>
        <time>2014-01-11T07:25:10.000Z</time>
      </trkpt>
      <trkpt lat="45.19848" lon="6.34415">
        <ele>1695.5999755859</ele>
        <time>2014-01-11T07:25:11.000Z</time>
      </trkpt>
      <trkpt lat="45.19847" lon="6.34415">
        <ele>1695.5999755859</ele>
        <time>2014-01-11T07:25:12.000Z</time>
      </trkpt>
      <trkpt lat="45.19846" lon="6.34414">
        <ele>1695.5999755859</ele>
        <time>2014-01-11T07:25:13.000Z</time>
      </trkpt>
      <trkpt lat="45.19844" lon="6.34414">
        <ele>1695.5999755859</ele>
        <time>2014-01-11T07:25:14.000Z</time>
      </trkpt>
      <trkpt lat="45.19843" lon="6.34413">
        <ele>1695.4000244141</ele>
        <time>2014-01-11T07:25:15.000Z</time>
      </trkpt>
      <trkpt lat="45.19842" lon="6.34413">
        <ele>1695.4000244141</ele>
        <time>2014-01-11T07:25:16.000Z</time>
      </trkpt>
      <trkpt lat="45.19841" lon="6.34412">
        <ele>1695.4000244141</ele>
        <time>2014-01-11T07:25:17.000Z</time>
      </trkpt>
      <trkpt lat="45.1984" lon="6.34411">
        <ele>1695.1999511719</ele>
        <time>2014-01-11T07:25:18.000Z</time>
      </trkpt>
      <trkpt lat="45.1984" lon="6.34411">
        <ele>1695.1999511719</ele>
        <time>2014-01-11T07:25:19.000Z</time>
      </trkpt>
      <trkpt lat="45.19839" lon="6.34411">
        <ele>1695</ele>
        <time>2014-01-11T07:25:20.000Z</time>
      </trkpt>
      <trkpt lat="45.19839" lon="6.34411">
        <ele>1695</ele>
        <time>2014-01-11T07:25:21.000Z</time>
      </trkpt>
      <trkpt lat="45.19839" lon="6.34411">
        <ele>1694.8000488281</ele>
        <time>2014-01-11T07:25:22.000Z</time>
      </trkpt>
      <trkpt lat="45.19838" lon="6.34411">
        <ele>1694.8000488281</ele>
        <time>2014-01-11T07:25:23.000Z</time>
      </trkpt>
      <trkpt lat="45.19837" lon="6.3441">
        <ele>1694.8000488281</ele>
        <time>2014-01-11T07:25:24.000Z</time>
      </trkpt>
      <trkpt lat="45.19837" lon="6.3441">
        <ele>1694.8000488281</ele>
        <time>2014-01-11T07:25:25.000Z</time>
      </trkpt>
      <trkpt lat="45.19837" lon="6.3441">
        <ele>1694.8000488281</ele>
        <time>2014-01-11T07:25:26.000Z</time>
      </trkpt>
      <trkpt lat="45.19837" lon="6.3441">
        <ele>1694.8000488281</ele>
        <time>2014-01-11T07:25:27.000Z</time>
      </trkpt>
      <trkpt lat="45.19837" lon="6.3441">
        <ele>1694.8000488281</ele>
        <time>2014-01-11T07:25:28.000Z</time>
      </trkpt>
      <trkpt lat="45.19837" lon="6.3441">
        <ele>1694.8000488281</ele>
        <time>2014-01-11T07:25:29.000Z</time>
      </trkpt>
      <trkpt lat="45.19837" lon="6.3441">
        <ele>1694.8000488281</ele>
        <time>2014-01-11T07:25:30.000Z</time>
      </trkpt>
      <trkpt lat="45.19837" lon="6.3441">
        <ele>1695</ele>
        <time>2014-01-11T07:25:31.000Z</time>
      </trkpt>
      <trkpt lat="45.19837" lon="6.3441">
        <ele>1695</ele>
        <time>2014-01-11T07:25:32.000Z</time>
      </trkpt>
      <trkpt lat="45.19837" lon="6.3441">
        <ele>1695</ele>
        <time>2014-01-11T07:25:33.000Z</time>
      </trkpt>
      <trkpt lat="45.19837" lon="6.3441">
        <ele>1695</ele>
        <time>2014-01-11T07:25:34.000Z</time>
      </trkpt>
      <trkpt lat="45.19837" lon="6.3441">
        <ele>1695</ele>
        <time>2014-01-11T07:25:35.000Z</time>
      </trkpt>
      <trkpt lat="45.19837" lon="6.3441">
        <ele>1695</ele>
        <time>2014-01-11T07:25:37.000Z</time>
      </trkpt>
      <trkpt lat="45.19837" lon="6.3441">
        <ele>1695</ele>
        <time>2014-01-11T07:25:41.000Z</time>
      </trkpt>
      <trkpt lat="45.19837" lon="6.3441">
        <ele>1695</ele>
        <time>2014-01-11T07:25:42.000Z</time>
      </trkpt>
      <trkpt lat="45.19837" lon="6.34411">
        <ele>1695</ele>
        <time>2014-01-11T07:25:43.000Z</time>
      </trkpt>
      <trkpt lat="45.19837" lon="6.34411">
        <ele>1695</ele>
        <time>2014-01-11T07:25:44.000Z</time>
      </trkpt>
      <trkpt lat="45.19838" lon="6.34413">
        <ele>1695</ele>
        <time>2014-01-11T07:25:45.000Z</time>
      </trkpt>
      <trkpt lat="45.19837" lon="6.34414">
        <ele>1695</ele>
        <time>2014-01-11T07:25:46.000Z</time>
      </trkpt>
      <trkpt lat="45.19837" lon="6.34416">
        <ele>1695</ele>
        <time>2014-01-11T07:25:47.000Z</time>
      </trkpt>
      <trkpt lat="45.19836" lon="6.34417">
        <ele>1694.8000488281</ele>
        <time>2014-01-11T07:25:48.000Z</time>
      </trkpt>
      <trkpt lat="45.19835" lon="6.34417">
        <ele>1694.8000488281</ele>
        <time>2014-01-11T07:25:49.000Z</time>
      </trkpt>
      <trkpt lat="45.19834" lon="6.34418">
        <ele>1694.8000488281</ele>
        <time>2014-01-11T07:25:50.000Z</time>
      </trkpt>
      <trkpt lat="45.19833" lon="6.34417">
        <ele>1694.5999755859</ele>
        <time>2014-01-11T07:25:51.000Z</time>
      </trkpt>
      <trkpt lat="45.19832" lon="6.34417">
        <ele>1694.8000488281</ele>
        <time>2014-01-11T07:25:52.000Z</time>
      </trkpt>
      <trkpt lat="45.1983" lon="6.34417">
        <ele>1694.8000488281</ele>
        <time>2014-01-11T07:25:54.000Z</time>
      </trkpt>
      <trkpt lat="45.19829" lon="6.34417">
        <ele>1694.8000488281</ele>
        <time>2014-01-11T07:25:55.000Z</time>
      </trkpt>
      <trkpt lat="45.19828" lon="6.34418">
        <ele>1695</ele>
        <time>2014-01-11T07:25:56.000Z</time>
      </trkpt>
      <trkpt lat="45.19828" lon="6.34418">
        <ele>1695.1999511719</ele>
        <time>2014-01-11T07:25:57.000Z</time>
      </trkpt>
      <trkpt lat="45.19826" lon="6.34417">
        <ele>1695.4000244141</ele>
        <time>2014-01-11T07:25:58.000Z</time>
      </trkpt>
      <trkpt lat="45.19825" lon="6.34417">
        <ele>1695.4000244141</ele>
        <time>2014-01-11T07:25:59.000Z</time>
      </trkpt>
      <trkpt lat="45.19824" lon="6.34417">
        <ele>1695.5999755859</ele>
        <time>2014-01-11T07:26:00.000Z</time>
      </trkpt>
      <trkpt lat="45.19823" lon="6.34417">
        <ele>1695.5999755859</ele>
        <time>2014-01-11T07:26:01.000Z</time>
      </trkpt>
      <trkpt lat="45.19822" lon="6.34417">
        <ele>1695.5999755859</ele>
        <time>2014-01-11T07:26:02.000Z</time>
      </trkpt>
      <trkpt lat="45.19821" lon="6.34418">
        <ele>1695.5999755859</ele>
        <time>2014-01-11T07:26:03.000Z</time>
      </trkpt>
      <trkpt lat="45.1982" lon="6.34417">
        <ele>1695.8000488281</ele>
        <time>2014-01-11T07:26:04.000Z</time>
      </trkpt>
      <trkpt lat="45.19818" lon="6.34417">
        <ele>1695.8000488281</ele>
        <time>2014-01-11T07:26:05.000Z</time>
      </trkpt>
      <trkpt lat="45.19817" lon="6.34418">
        <ele>1695.8000488281</ele>
        <time>2014-01-11T07:26:06.000Z</time>
      </trkpt>
      <trkpt lat="45.19818" lon="6.34418">
        <ele>1696</ele>
        <time>2014-01-11T07:26:07.000Z</time>
      </trkpt>
      <trkpt lat="45.19816" lon="6.34419">
        <ele>1696.1999511719</ele>
        <time>2014-01-11T07:26:08.000Z</time>
      </trkpt>
      <trkpt lat="45.19815" lon="6.34419">
        <ele>1696.1999511719</ele>
        <time>2014-01-11T07:26:09.000Z</time>
      </trkpt>
      <trkpt lat="45.19814" lon="6.34419">
        <ele>1696.1999511719</ele>
        <time>2014-01-11T07:26:10.000Z</time>
      </trkpt>
      <trkpt lat="45.19813" lon="6.34419">
        <ele>1696.4000244141</ele>
        <time>2014-01-11T07:26:11.000Z</time>
      </trkpt>
      <trkpt lat="45.19813" lon="6.3442">
        <ele>1696.4000244141</ele>
        <time>2014-01-11T07:26:12.000Z</time>
      </trkpt>
      <trkpt lat="45.19812" lon="6.34419">
        <ele>1696.5999755859</ele>
        <time>2014-01-11T07:26:13.000Z</time>
      </trkpt>
      <trkpt lat="45.19811" lon="6.3442">
        <ele>1696.8000488281</ele>
        <time>2014-01-11T07:26:14.000Z</time>
      </trkpt>
      <trkpt lat="45.1981" lon="6.34419">
        <ele>1696.8000488281</ele>
        <time>2014-01-11T07:26:15.000Z</time>
      </trkpt>
      <trkpt lat="45.1981" lon="6.34419">
        <ele>1696.8000488281</ele>
        <time>2014-01-11T07:26:16.000Z</time>
      </trkpt>
      <trkpt lat="45.19809" lon="6.34419">
        <ele>1697</ele>
        <time>2014-01-11T07:26:17.000Z</time>
      </trkpt>
      <trkpt lat="45.19809" lon="6.34419">
        <ele>1697</ele>
        <time>2014-01-11T07:26:18.000Z</time>
      </trkpt>
      <trkpt lat="45.19808" lon="6.3442">
        <ele>1697</ele>
        <time>2014-01-11T07:26:19.000Z</time>
      </trkpt>
      <trkpt lat="45.19807" lon="6.3442">
        <ele>1697</ele>
        <time>2014-01-11T07:26:20.000Z</time>
      </trkpt>
      <trkpt lat="45.19806" lon="6.3442">
        <ele>1697.1999511719</ele>
        <time>2014-01-11T07:26:21.000Z</time>
      </trkpt>
      <trkpt lat="45.19804" lon="6.34419">
        <ele>1697.1999511719</ele>
        <time>2014-01-11T07:26:22.000Z</time>
      </trkpt>
      <trkpt lat="45.19803" lon="6.3442">
        <ele>1697.4000244141</ele>
        <time>2014-01-11T07:26:23.000Z</time>
      </trkpt>
      <trkpt lat="45.19802" lon="6.34419">
        <ele>1697.4000244141</ele>
        <time>2014-01-11T07:26:24.000Z</time>
      </trkpt>
      <trkpt lat="45.19801" lon="6.34419">
        <ele>1697.4000244141</ele>
        <time>2014-01-11T07:26:25.000Z</time>
      </trkpt>
      <trkpt lat="45.19799" lon="6.3442">
        <ele>1697.4000244141</ele>
        <time>2014-01-11T07:26:27.000Z</time>
      </trkpt>
      <trkpt lat="45.19798" lon="6.3442">
        <ele>1697.4000244141</ele>
        <time>2014-01-11T07:26:28.000Z</time>
      </trkpt>
      <trkpt lat="45.19796" lon="6.34421">
        <ele>1697.4000244141</ele>
        <time>2014-01-11T07:26:29.000Z</time>
      </trkpt>
      <trkpt lat="45.19796" lon="6.34421">
        <ele>1697.5999755859</ele>
        <time>2014-01-11T07:26:30.000Z</time>
      </trkpt>
      <trkpt lat="45.19795" lon="6.34421">
        <ele>1697.5999755859</ele>
        <time>2014-01-11T07:26:31.000Z</time>
      </trkpt>
      <trkpt lat="45.19794" lon="6.34421">
        <ele>1697.5999755859</ele>
        <time>2014-01-11T07:26:32.000Z</time>
      </trkpt>
      <trkpt lat="45.19792" lon="6.34421">
        <ele>1697.5999755859</ele>
        <time>2014-01-11T07:26:33.000Z</time>
      </trkpt>
      <trkpt lat="45.19792" lon="6.34421">
        <ele>1697.8000488281</ele>
        <time>2014-01-11T07:26:34.000Z</time>
      </trkpt>
      <trkpt lat="45.19791" lon="6.34422">
        <ele>1697.8000488281</ele>
        <time>2014-01-11T07:26:35.000Z</time>
      </trkpt>
      <trkpt lat="45.19789" lon="6.34422">
        <ele>1698</ele>
        <time>2014-01-11T07:26:36.000Z</time>
      </trkpt>
      <trkpt lat="45.19789" lon="6.34422">
        <ele>1698</ele>
        <time>2014-01-11T07:26:37.000Z</time>
      </trkpt>
      <trkpt lat="45.19788" lon="6.34423">
        <ele>1698</ele>
        <time>2014-01-11T07:26:38.000Z</time>
      </trkpt>
      <trkpt lat="45.19787" lon="6.34423">
        <ele>1698.1999511719</ele>
        <time>2014-01-11T07:26:39.000Z</time>
      </trkpt>
      <trkpt lat="45.19787" lon="6.34423">
        <ele>1698.4000244141</ele>
        <time>2014-01-11T07:26:40.000Z</time>
      </trkpt>
      <trkpt lat="45.19785" lon="6.34424">
        <ele>1698.4000244141</ele>
        <time>2014-01-11T07:26:41.000Z</time>
      </trkpt>
      <trkpt lat="45.19783" lon="6.34424">
        <ele>1698.5999755859</ele>
        <time>2014-01-11T07:26:42.000Z</time>
      </trkpt>
      <trkpt lat="45.19783" lon="6.34424">
        <ele>1698.5999755859</ele>
        <time>2014-01-11T07:26:43.000Z</time>
      </trkpt>
      <trkpt lat="45.19781" lon="6.34424">
        <ele>1698.8000488281</ele>
        <time>2014-01-11T07:26:44.000Z</time>
      </trkpt>
      <trkpt lat="45.1978" lon="6.34425">
        <ele>1699</ele>
        <time>2014-01-11T07:26:45.000Z</time>
      </trkpt>
      <trkpt lat="45.1978" lon="6.34424">
        <ele>1699</ele>
        <time>2014-01-11T07:26:46.000Z</time>
      </trkpt>
      <trkpt lat="45.19778" lon="6.34424">
        <ele>1699.1999511719</ele>
        <time>2014-01-11T07:26:47.000Z</time>
      </trkpt>
      <trkpt lat="45.19777" lon="6.34424">
        <ele>1699.1999511719</ele>
        <time>2014-01-11T07:26:48.000Z</time>
      </trkpt>
      <trkpt lat="45.19776" lon="6.34424">
        <ele>1699.4000244141</ele>
        <time>2014-01-11T07:26:49.000Z</time>
      </trkpt>
      <trkpt lat="45.19775" lon="6.34425">
        <ele>1699.4000244141</ele>
        <time>2014-01-11T07:26:50.000Z</time>
      </trkpt>
      <trkpt lat="45.19774" lon="6.34425">
        <ele>1699.5999755859</ele>
        <time>2014-01-11T07:26:51.000Z</time>
      </trkpt>
      <trkpt lat="45.19773" lon="6.34425">
        <ele>1699.5999755859</ele>
        <time>2014-01-11T07:26:52.000Z</time>
      </trkpt>
      <trkpt lat="45.19772" lon="6.34426">
        <ele>1699.5999755859</ele>
        <time>2014-01-11T07:26:53.000Z</time>
      </trkpt>
      <trkpt lat="45.19771" lon="6.34426">
        <ele>1699.8000488281</ele>
        <time>2014-01-11T07:26:54.000Z</time>
      </trkpt>
      <trkpt lat="45.1977" lon="6.34427">
        <ele>1699.8000488281</ele>
        <time>2014-01-11T07:26:55.000Z</time>
      </trkpt>
      <trkpt lat="45.19769" lon="6.34427">
        <ele>1700</ele>
        <time>2014-01-11T07:26:56.000Z</time>
      </trkpt>
      <trkpt lat="45.19768" lon="6.34427">
        <ele>1700</ele>
        <time>2014-01-11T07:26:57.000Z</time>
      </trkpt>
      <trkpt lat="45.19766" lon="6.34427">
        <ele>1700</ele>
        <time>2014-01-11T07:26:58.000Z</time>
      </trkpt>
      <trkpt lat="45.19765" lon="6.34426">
        <ele>1700.1999511719</ele>
        <time>2014-01-11T07:26:59.000Z</time>
      </trkpt>
      <trkpt lat="45.19764" lon="6.34426">
        <ele>1700.1999511719</ele>
        <time>2014-01-11T07:27:00.000Z</time>
      </trkpt>
      <trkpt lat="45.19763" lon="6.34426">
        <ele>1700.4000244141</ele>
        <time>2014-01-11T07:27:01.000Z</time>
      </trkpt>
      <trkpt lat="45.19762" lon="6.34427">
        <ele>1700.4000244141</ele>
        <time>2014-01-11T07:27:02.000Z</time>
      </trkpt>
      <trkpt lat="45.19762" lon="6.34427">
        <ele>1700.4000244141</ele>
        <time>2014-01-11T07:27:03.000Z</time>
      </trkpt>
      <trkpt lat="45.1976" lon="6.34427">
        <ele>1700.5999755859</ele>
        <time>2014-01-11T07:27:04.000Z</time>
      </trkpt>
      <trkpt lat="45.19759" lon="6.34427">
        <ele>1700.5999755859</ele>
        <time>2014-01-11T07:27:05.000Z</time>
      </trkpt>
      <trkpt lat="45.19759" lon="6.34427">
        <ele>1700.5999755859</ele>
        <time>2014-01-11T07:27:06.000Z</time>
      </trkpt>
      <trkpt lat="45.19757" lon="6.34427">
        <ele>1700.8000488281</ele>
        <time>2014-01-11T07:27:07.000Z</time>
      </trkpt>
      <trkpt lat="45.19757" lon="6.34427">
        <ele>1701</ele>
        <time>2014-01-11T07:27:08.000Z</time>
      </trkpt>
      <trkpt lat="45.19756" lon="6.34427">
        <ele>1701.1999511719</ele>
        <time>2014-01-11T07:27:09.000Z</time>
      </trkpt>
      <trkpt lat="45.19755" lon="6.34428">
        <ele>1701.1999511719</ele>
        <time>2014-01-11T07:27:10.000Z</time>
      </trkpt>
      <trkpt lat="45.19754" lon="6.34428">
        <ele>1701.4000244141</ele>
        <time>2014-01-11T07:27:11.000Z</time>
      </trkpt>
      <trkpt lat="45.19753" lon="6.34428">
        <ele>1701.4000244141</ele>
        <time>2014-01-11T07:27:12.000Z</time>
      </trkpt>
      <trkpt lat="45.19751" lon="6.34428">
        <ele>1701.4000244141</ele>
        <time>2014-01-11T07:27:13.000Z</time>
      </trkpt>
      <trkpt lat="45.1975" lon="6.34428">
        <ele>1701.4000244141</ele>
        <time>2014-01-11T07:27:14.000Z</time>
      </trkpt>
      <trkpt lat="45.19749" lon="6.34428">
        <ele>1701.5999755859</ele>
        <time>2014-01-11T07:27:15.000Z</time>
      </trkpt>
      <trkpt lat="45.19748" lon="6.34427">
        <ele>1701.5999755859</ele>
        <time>2014-01-11T07:27:16.000Z</time>
      </trkpt>
      <trkpt lat="45.19747" lon="6.34427">
        <ele>1701.8000488281</ele>
        <time>2014-01-11T07:27:17.000Z</time>
      </trkpt>
      <trkpt lat="45.19746" lon="6.34427">
        <ele>1701.8000488281</ele>
        <time>2014-01-11T07:27:18.000Z</time>
      </trkpt>
      <trkpt lat="45.19745" lon="6.34428">
        <ele>1701.8000488281</ele>
        <time>2014-01-11T07:27:19.000Z</time>
      </trkpt>
      <trkpt lat="45.19744" lon="6.34428">
        <ele>1701.8000488281</ele>
        <time>2014-01-11T07:27:20.000Z</time>
      </trkpt>
      <trkpt lat="45.19743" lon="6.34429">
        <ele>1701.8000488281</ele>
        <time>2014-01-11T07:27:21.000Z</time>
      </trkpt>
      <trkpt lat="45.19742" lon="6.3443">
        <ele>1701.8000488281</ele>
        <time>2014-01-11T07:27:22.000Z</time>
      </trkpt>
      <trkpt lat="45.19741" lon="6.3443">
        <ele>1701.8000488281</ele>
        <time>2014-01-11T07:27:23.000Z</time>
      </trkpt>
      <trkpt lat="45.19739" lon="6.34431">
        <ele>1702</ele>
        <time>2014-01-11T07:27:24.000Z</time>
      </trkpt>
      <trkpt lat="45.19738" lon="6.34432">
        <ele>1702</ele>
        <time>2014-01-11T07:27:25.000Z</time>
      </trkpt>
      <trkpt lat="45.19737" lon="6.34432">
        <ele>1702.1999511719</ele>
        <time>2014-01-11T07:27:26.000Z</time>
      </trkpt>
      <trkpt lat="45.19736" lon="6.34432">
        <ele>1702.4000244141</ele>
        <time>2014-01-11T07:27:27.000Z</time>
      </trkpt>
      <trkpt lat="45.19736" lon="6.34433">
        <ele>1702.4000244141</ele>
        <time>2014-01-11T07:27:28.000Z</time>
      </trkpt>
      <trkpt lat="45.19735" lon="6.34433">
        <ele>1702.5999755859</ele>
        <time>2014-01-11T07:27:29.000Z</time>
      </trkpt>
      <trkpt lat="45.19735" lon="6.34433">
        <ele>1702.8000488281</ele>
        <time>2014-01-11T07:27:30.000Z</time>
      </trkpt>
      <trkpt lat="45.19733" lon="6.34434">
        <ele>1702.8000488281</ele>
        <time>2014-01-11T07:27:31.000Z</time>
      </trkpt>
      <trkpt lat="45.19732" lon="6.34434">
        <ele>1702.8000488281</ele>
        <time>2014-01-11T07:27:32.000Z</time>
      </trkpt>
      <trkpt lat="45.19731" lon="6.34434">
        <ele>1703</ele>
        <time>2014-01-11T07:27:33.000Z</time>
      </trkpt>
      <trkpt lat="45.1973" lon="6.34434">
        <ele>1703</ele>
        <time>2014-01-11T07:27:34.000Z</time>
      </trkpt>
      <trkpt lat="45.19729" lon="6.34436">
        <ele>1703.1999511719</ele>
        <time>2014-01-11T07:27:35.000Z</time>
      </trkpt>
      <trkpt lat="45.19728" lon="6.34437">
        <ele>1703.1999511719</ele>
        <time>2014-01-11T07:27:36.000Z</time>
      </trkpt>
      <trkpt lat="45.19727" lon="6.34437">
        <ele>1703.4000244141</ele>
        <time>2014-01-11T07:27:37.000Z</time>
      </trkpt>
      <trkpt lat="45.19726" lon="6.34438">
        <ele>1703.4000244141</ele>
        <time>2014-01-11T07:27:38.000Z</time>
      </trkpt>
      <trkpt lat="45.19724" lon="6.34439">
        <ele>1703.4000244141</ele>
        <time>2014-01-11T07:27:39.000Z</time>
      </trkpt>
      <trkpt lat="45.19724" lon="6.34438">
        <ele>1703.5999755859</ele>
        <time>2014-01-11T07:27:40.000Z</time>
      </trkpt>
      <trkpt lat="45.19722" lon="6.34439">
        <ele>1703.8000488281</ele>
        <time>2014-01-11T07:27:41.000Z</time>
      </trkpt>
      <trkpt lat="45.19721" lon="6.34439">
        <ele>1704</ele>
        <time>2014-01-11T07:27:42.000Z</time>
      </trkpt>
      <trkpt lat="45.19721" lon="6.34439">
        <ele>1704.1999511719</ele>
        <time>2014-01-11T07:27:43.000Z</time>
      </trkpt>
      <trkpt lat="45.1972" lon="6.3444">
        <ele>1704.4000244141</ele>
        <time>2014-01-11T07:27:44.000Z</time>
      </trkpt>
      <trkpt lat="45.19719" lon="6.3444">
        <ele>1704.4000244141</ele>
        <time>2014-01-11T07:27:45.000Z</time>
      </trkpt>
      <trkpt lat="45.19719" lon="6.34441">
        <ele>1704.5999755859</ele>
        <time>2014-01-11T07:27:46.000Z</time>
      </trkpt>
      <trkpt lat="45.19717" lon="6.34441">
        <ele>1704.5999755859</ele>
        <time>2014-01-11T07:27:47.000Z</time>
      </trkpt>
      <trkpt lat="45.19716" lon="6.34441">
        <ele>1704.8000488281</ele>
        <time>2014-01-11T07:27:48.000Z</time>
      </trkpt>
      <trkpt lat="45.19715" lon="6.34442">
        <ele>1705</ele>
        <time>2014-01-11T07:27:49.000Z</time>
      </trkpt>
      <trkpt lat="45.19714" lon="6.34442">
        <ele>1705</ele>
        <time>2014-01-11T07:27:50.000Z</time>
      </trkpt>
      <trkpt lat="45.19713" lon="6.34443">
        <ele>1705.1999511719</ele>
        <time>2014-01-11T07:27:51.000Z</time>
      </trkpt>
      <trkpt lat="45.19712" lon="6.34442">
        <ele>1705.4000244141</ele>
        <time>2014-01-11T07:27:52.000Z</time>
      </trkpt>
      <trkpt lat="45.1971" lon="6.34442">
        <ele>1705.4000244141</ele>
        <time>2014-01-11T07:27:53.000Z</time>
      </trkpt>
      <trkpt lat="45.19709" lon="6.34441">
        <ele>1705.5999755859</ele>
        <time>2014-01-11T07:27:54.000Z</time>
      </trkpt>
      <trkpt lat="45.19708" lon="6.3444">
        <ele>1705.5999755859</ele>
        <time>2014-01-11T07:27:55.000Z</time>
      </trkpt>
      <trkpt lat="45.19706" lon="6.3444">
        <ele>1705.5999755859</ele>
        <time>2014-01-11T07:27:56.000Z</time>
      </trkpt>
      <trkpt lat="45.19706" lon="6.34439">
        <ele>1705.4000244141</ele>
        <time>2014-01-11T07:27:57.000Z</time>
      </trkpt>
      <trkpt lat="45.19704" lon="6.34439">
        <ele>1705.1999511719</ele>
        <time>2014-01-11T07:27:58.000Z</time>
      </trkpt>
      <trkpt lat="45.19703" lon="6.34439">
        <ele>1705</ele>
        <time>2014-01-11T07:27:59.000Z</time>
      </trkpt>
      <trkpt lat="45.19702" lon="6.34439">
        <ele>1704.8000488281</ele>
        <time>2014-01-11T07:28:00.000Z</time>
      </trkpt>
      <trkpt lat="45.19701" lon="6.34439">
        <ele>1704.5999755859</ele>
        <time>2014-01-11T07:28:01.000Z</time>
      </trkpt>
      <trkpt lat="45.197" lon="6.3444">
        <ele>1704.5999755859</ele>
        <time>2014-01-11T07:28:02.000Z</time>
      </trkpt>
      <trkpt lat="45.19699" lon="6.3444">
        <ele>1704.4000244141</ele>
        <time>2014-01-11T07:28:03.000Z</time>
      </trkpt>
      <trkpt lat="45.19698" lon="6.3444">
        <ele>1704.4000244141</ele>
        <time>2014-01-11T07:28:04.000Z</time>
      </trkpt>
      <trkpt lat="45.19698" lon="6.3444">
        <ele>1704.1999511719</ele>
        <time>2014-01-11T07:28:05.000Z</time>
      </trkpt>
      <trkpt lat="45.19697" lon="6.34441">
        <ele>1704.1999511719</ele>
        <time>2014-01-11T07:28:06.000Z</time>
      </trkpt>
      <trkpt lat="45.19696" lon="6.34443">
        <ele>1704.1999511719</ele>
        <time>2014-01-11T07:28:07.000Z</time>
      </trkpt>
      <trkpt lat="45.19695" lon="6.34444">
        <ele>1704.1999511719</ele>
        <time>2014-01-11T07:28:08.000Z</time>
      </trkpt>
      <trkpt lat="45.19694" lon="6.34445">
        <ele>1704.1999511719</ele>
        <time>2014-01-11T07:28:09.000Z</time>
      </trkpt>
      <trkpt lat="45.1969" lon="6.34449">
        <ele>1704.1999511719</ele>
        <time>2014-01-11T07:28:13.000Z</time>
      </trkpt>
      <trkpt lat="45.19688" lon="6.3445">
        <ele>1704.1999511719</ele>
        <time>2014-01-11T07:28:14.000Z</time>
      </trkpt>
      <trkpt lat="45.19687" lon="6.34451">
        <ele>1704.1999511719</ele>
        <time>2014-01-11T07:28:15.000Z</time>
      </trkpt>
      <trkpt lat="45.19686" lon="6.34452">
        <ele>1704.1999511719</ele>
        <time>2014-01-11T07:28:16.000Z</time>
      </trkpt>
      <trkpt lat="45.19683" lon="6.34455">
        <ele>1704.1999511719</ele>
        <time>2014-01-11T07:28:19.000Z</time>
      </trkpt>
      <trkpt lat="45.19682" lon="6.34455">
        <ele>1704.1999511719</ele>
        <time>2014-01-11T07:28:20.000Z</time>
      </trkpt>
      <trkpt lat="45.19681" lon="6.34455">
        <ele>1704.1999511719</ele>
        <time>2014-01-11T07:28:21.000Z</time>
      </trkpt>
      <trkpt lat="45.1968" lon="6.34455">
        <ele>1704.1999511719</ele>
        <time>2014-01-11T07:28:22.000Z</time>
      </trkpt>
      <trkpt lat="45.19679" lon="6.34456">
        <ele>1704.1999511719</ele>
        <time>2014-01-11T07:28:23.000Z</time>
      </trkpt>
      <trkpt lat="45.19678" lon="6.34456">
        <ele>1704.4000244141</ele>
        <time>2014-01-11T07:28:24.000Z</time>
      </trkpt>
      <trkpt lat="45.19676" lon="6.34456">
        <ele>1704.4000244141</ele>
        <time>2014-01-11T07:28:25.000Z</time>
      </trkpt>
      <trkpt lat="45.19675" lon="6.34458">
        <ele>1704.4000244141</ele>
        <time>2014-01-11T07:28:26.000Z</time>
      </trkpt>
      <trkpt lat="45.19674" lon="6.34457">
        <ele>1704.4000244141</ele>
        <time>2014-01-11T07:28:27.000Z</time>
      </trkpt>
      <trkpt lat="45.19673" lon="6.34457">
        <ele>1704.5999755859</ele>
        <time>2014-01-11T07:28:28.000Z</time>
      </trkpt>
      <trkpt lat="45.19672" lon="6.34458">
        <ele>1704.5999755859</ele>
        <time>2014-01-11T07:28:29.000Z</time>
      </trkpt>
      <trkpt lat="45.19671" lon="6.34457">
        <ele>1704.5999755859</ele>
        <time>2014-01-11T07:28:30.000Z</time>
      </trkpt>
      <trkpt lat="45.1967" lon="6.34457">
        <ele>1704.5999755859</ele>
        <time>2014-01-11T07:28:31.000Z</time>
      </trkpt>
      <trkpt lat="45.19669" lon="6.34458">
        <ele>1704.8000488281</ele>
        <time>2014-01-11T07:28:32.000Z</time>
      </trkpt>
      <trkpt lat="45.19668" lon="6.34457">
        <ele>1704.8000488281</ele>
        <time>2014-01-11T07:28:33.000Z</time>
      </trkpt>
      <trkpt lat="45.19667" lon="6.34457">
        <ele>1704.8000488281</ele>
        <time>2014-01-11T07:28:34.000Z</time>
      </trkpt>
      <trkpt lat="45.19666" lon="6.34457">
        <ele>1705</ele>
        <time>2014-01-11T07:28:35.000Z</time>
      </trkpt>
      <trkpt lat="45.19665" lon="6.34457">
        <ele>1705</ele>
        <time>2014-01-11T07:28:36.000Z</time>
      </trkpt>
      <trkpt lat="45.19664" lon="6.34457">
        <ele>1705</ele>
        <time>2014-01-11T07:28:37.000Z</time>
      </trkpt>
      <trkpt lat="45.19663" lon="6.34457">
        <ele>1705</ele>
        <time>2014-01-11T07:28:38.000Z</time>
      </trkpt>
      <trkpt lat="45.19663" lon="6.34457">
        <ele>1705.1999511719</ele>
        <time>2014-01-11T07:28:39.000Z</time>
      </trkpt>
      <trkpt lat="45.19661" lon="6.34457">
        <ele>1705.4000244141</ele>
        <time>2014-01-11T07:28:40.000Z</time>
      </trkpt>
      <trkpt lat="45.1966" lon="6.34457">
        <ele>1705.4000244141</ele>
        <time>2014-01-11T07:28:41.000Z</time>
      </trkpt>
      <trkpt lat="45.19659" lon="6.34456">
        <ele>1705.4000244141</ele>
        <time>2014-01-11T07:28:42.000Z</time>
      </trkpt>
      <trkpt lat="45.19658" lon="6.34456">
        <ele>1705.5999755859</ele>
        <time>2014-01-11T07:28:43.000Z</time>
      </trkpt>
      <trkpt lat="45.19657" lon="6.34456">
        <ele>1705.8000488281</ele>
        <time>2014-01-11T07:28:44.000Z</time>
      </trkpt>
      <trkpt lat="45.19656" lon="6.34456">
        <ele>1705.8000488281</ele>
        <time>2014-01-11T07:28:45.000Z</time>
      </trkpt>
      <trkpt lat="45.19655" lon="6.34456">
        <ele>1706</ele>
        <time>2014-01-11T07:28:46.000Z</time>
      </trkpt>
      <trkpt lat="45.19654" lon="6.34456">
        <ele>1706</ele>
        <time>2014-01-11T07:28:47.000Z</time>
      </trkpt>
      <trkpt lat="45.19653" lon="6.34456">
        <ele>1706.1999511719</ele>
        <time>2014-01-11T07:28:48.000Z</time>
      </trkpt>
      <trkpt lat="45.19652" lon="6.34456">
        <ele>1706.4000244141</ele>
        <time>2014-01-11T07:28:49.000Z</time>
      </trkpt>
      <trkpt lat="45.1965" lon="6.34456">
        <ele>1706.5999755859</ele>
        <time>2014-01-11T07:28:50.000Z</time>
      </trkpt>
      <trkpt lat="45.1965" lon="6.34456">
        <ele>1706.5999755859</ele>
        <time>2014-01-11T07:28:51.000Z</time>
      </trkpt>
      <trkpt lat="45.19649" lon="6.34456">
        <ele>1706.8000488281</ele>
        <time>2014-01-11T07:28:52.000Z</time>
      </trkpt>
      <trkpt lat="45.19648" lon="6.34457">
        <ele>1707</ele>
        <time>2014-01-11T07:28:53.000Z</time>
      </trkpt>
      <trkpt lat="45.19647" lon="6.34457">
        <ele>1707</ele>
        <time>2014-01-11T07:28:54.000Z</time>
      </trkpt>
      <trkpt lat="45.19646" lon="6.34457">
        <ele>1707.1999511719</ele>
        <time>2014-01-11T07:28:55.000Z</time>
      </trkpt>
      <trkpt lat="45.19645" lon="6.34457">
        <ele>1707.4000244141</ele>
        <time>2014-01-11T07:28:56.000Z</time>
      </trkpt>
      <trkpt lat="45.19645" lon="6.34458">
        <ele>1707.4000244141</ele>
        <time>2014-01-11T07:28:57.000Z</time>
      </trkpt>
      <trkpt lat="45.19645" lon="6.34457">
        <ele>1707.4000244141</ele>
        <time>2014-01-11T07:28:58.000Z</time>
      </trkpt>
      <trkpt lat="45.19645" lon="6.34457">
        <ele>1707.5999755859</ele>
        <time>2014-01-11T07:28:59.000Z</time>
      </trkpt>
      <trkpt lat="45.19645" lon="6.34457">
        <ele>1707.5999755859</ele>
        <time>2014-01-11T07:29:00.000Z</time>
      </trkpt>
      <trkpt lat="45.19645" lon="6.34457">
        <ele>1707.5999755859</ele>
        <time>2014-01-11T07:29:01.000Z</time>
      </trkpt>
      <trkpt lat="45.19645" lon="6.34457">
        <ele>1707.8000488281</ele>
        <time>2014-01-11T07:29:02.000Z</time>
      </trkpt>
      <trkpt lat="45.19644" lon="6.34457">
        <ele>1707.8000488281</ele>
        <time>2014-01-11T07:29:03.000Z</time>
      </trkpt>
      <trkpt lat="45.19644" lon="6.34457">
        <ele>1707.8000488281</ele>
        <time>2014-01-11T07:29:04.000Z</time>
      </trkpt>
      <trkpt lat="45.19644" lon="6.34457">
        <ele>1707.8000488281</ele>
        <time>2014-01-11T07:29:05.000Z</time>
      </trkpt>
      <trkpt lat="45.19644" lon="6.34457">
        <ele>1708</ele>
        <time>2014-01-11T07:29:06.000Z</time>
      </trkpt>
      <trkpt lat="45.19644" lon="6.34457">
        <ele>1708</ele>
        <time>2014-01-11T07:29:07.000Z</time>
      </trkpt>
      <trkpt lat="45.19644" lon="6.34457">
        <ele>1708.4000244141</ele>
        <time>2014-01-11T07:29:08.000Z</time>
      </trkpt>
      <trkpt lat="45.19643" lon="6.34457">
        <ele>1708.4000244141</ele>
        <time>2014-01-11T07:29:09.000Z</time>
      </trkpt>
      <trkpt lat="45.19643" lon="6.34458">
        <ele>1708.4000244141</ele>
        <time>2014-01-11T07:29:10.000Z</time>
      </trkpt>
      <trkpt lat="45.19643" lon="6.34458">
        <ele>1708.4000244141</ele>
        <time>2014-01-11T07:29:11.000Z</time>
      </trkpt>
      <trkpt lat="45.19643" lon="6.34458">
        <ele>1708.4000244141</ele>
        <time>2014-01-11T07:29:13.000Z</time>
      </trkpt>
      <trkpt lat="45.19643" lon="6.34458">
        <ele>1708.4000244141</ele>
        <time>2014-01-11T07:29:14.000Z</time>
      </trkpt>
      <trkpt lat="45.19643" lon="6.34458">
        <ele>1708.4000244141</ele>
        <time>2014-01-11T07:29:15.000Z</time>
      </trkpt>
      <trkpt lat="45.19643" lon="6.34458">
        <ele>1708.4000244141</ele>
        <time>2014-01-11T07:29:17.000Z</time>
      </trkpt>
      <trkpt lat="45.19642" lon="6.34458">
        <ele>1708.4000244141</ele>
        <time>2014-01-11T07:29:18.000Z</time>
      </trkpt>
      <trkpt lat="45.19642" lon="6.34458">
        <ele>1708.4000244141</ele>
        <time>2014-01-11T07:29:21.000Z</time>
      </trkpt>
      <trkpt lat="45.19642" lon="6.34458">
        <ele>1708.4000244141</ele>
        <time>2014-01-11T07:29:22.000Z</time>
      </trkpt>
      <trkpt lat="45.19642" lon="6.34458">
        <ele>1708.4000244141</ele>
        <time>2014-01-11T07:29:23.000Z</time>
      </trkpt>
      <trkpt lat="45.19642" lon="6.34458">
        <ele>1708.4000244141</ele>
        <time>2014-01-11T07:29:24.000Z</time>
      </trkpt>
      <trkpt lat="45.19642" lon="6.34458">
        <ele>1708.1999511719</ele>
        <time>2014-01-11T07:29:25.000Z</time>
      </trkpt>
      <trkpt lat="45.19642" lon="6.34458">
        <ele>1708.1999511719</ele>
        <time>2014-01-11T07:29:26.000Z</time>
      </trkpt>
      <trkpt lat="45.19642" lon="6.34458">
        <ele>1708.1999511719</ele>
        <time>2014-01-11T07:29:27.000Z</time>
      </trkpt>
      <trkpt lat="45.19642" lon="6.34458">
        <ele>1708.1999511719</ele>
        <time>2014-01-11T07:29:28.000Z</time>
      </trkpt>
      <trkpt lat="45.19642" lon="6.34458">
        <ele>1708.1999511719</ele>
        <time>2014-01-11T07:29:29.000Z</time>
      </trkpt>
      <trkpt lat="45.19642" lon="6.34458">
        <ele>1708.1999511719</ele>
        <time>2014-01-11T07:29:30.000Z</time>
      </trkpt>
      <trkpt lat="45.19642" lon="6.34458">
        <ele>1708.1999511719</ele>
        <time>2014-01-11T07:29:31.000Z</time>
      </trkpt>
      <trkpt lat="45.19642" lon="6.34458">
        <ele>1708.4000244141</ele>
        <time>2014-01-11T07:29:32.000Z</time>
      </trkpt>
      <trkpt lat="45.19641" lon="6.34458">
        <ele>1708.4000244141</ele>
        <time>2014-01-11T07:29:33.000Z</time>
      </trkpt>
      <trkpt lat="45.1964" lon="6.34459">
        <ele>1708.4000244141</ele>
        <time>2014-01-11T07:29:34.000Z</time>
      </trkpt>
      <trkpt lat="45.19639" lon="6.34458">
        <ele>1708.4000244141</ele>
        <time>2014-01-11T07:29:35.000Z</time>
      </trkpt>
      <trkpt lat="45.19639" lon="6.34459">
        <ele>1708.4000244141</ele>
        <time>2014-01-11T07:29:36.000Z</time>
      </trkpt>
      <trkpt lat="45.19639" lon="6.34459">
        <ele>1708.4000244141</ele>
        <time>2014-01-11T07:29:37.000Z</time>
      </trkpt>
      <trkpt lat="45.19636" lon="6.3446">
        <ele>1708.4000244141</ele>
        <time>2014-01-11T07:29:38.000Z</time>
      </trkpt>
      <trkpt lat="45.19635" lon="6.3446">
        <ele>1708.4000244141</ele>
        <time>2014-01-11T07:29:40.000Z</time>
      </trkpt>
      <trkpt lat="45.19634" lon="6.34461">
        <ele>1708.4000244141</ele>
        <time>2014-01-11T07:29:41.000Z</time>
      </trkpt>
      <trkpt lat="45.19633" lon="6.34461">
        <ele>1708.5999755859</ele>
        <time>2014-01-11T07:29:42.000Z</time>
      </trkpt>
      <trkpt lat="45.19632" lon="6.34462">
        <ele>1708.5999755859</ele>
        <time>2014-01-11T07:29:43.000Z</time>
      </trkpt>
      <trkpt lat="45.19631" lon="6.34462">
        <ele>1708.8000488281</ele>
        <time>2014-01-11T07:29:44.000Z</time>
      </trkpt>
      <trkpt lat="45.1963" lon="6.34462">
        <ele>1708.8000488281</ele>
        <time>2014-01-11T07:29:45.000Z</time>
      </trkpt>
      <trkpt lat="45.19629" lon="6.34462">
        <ele>1708.8000488281</ele>
        <time>2014-01-11T07:29:46.000Z</time>
      </trkpt>
      <trkpt lat="45.19628" lon="6.34463">
        <ele>1708.8000488281</ele>
        <time>2014-01-11T07:29:47.000Z</time>
      </trkpt>
      <trkpt lat="45.19626" lon="6.34463">
        <ele>1708.8000488281</ele>
        <time>2014-01-11T07:29:48.000Z</time>
      </trkpt>
      <trkpt lat="45.19625" lon="6.34464">
        <ele>1708.8000488281</ele>
        <time>2014-01-11T07:29:49.000Z</time>
      </trkpt>
      <trkpt lat="45.19623" lon="6.34465">
        <ele>1708.8000488281</ele>
        <time>2014-01-11T07:29:52.000Z</time>
      </trkpt>
      <trkpt lat="45.19622" lon="6.34466">
        <ele>1709</ele>
        <time>2014-01-11T07:29:53.000Z</time>
      </trkpt>
      <trkpt lat="45.19621" lon="6.34466">
        <ele>1709.1999511719</ele>
        <time>2014-01-11T07:29:54.000Z</time>
      </trkpt>
      <trkpt lat="45.1962" lon="6.34466">
        <ele>1709.4000244141</ele>
        <time>2014-01-11T07:29:55.000Z</time>
      </trkpt>
      <trkpt lat="45.19618" lon="6.34466">
        <ele>1709.5999755859</ele>
        <time>2014-01-11T07:29:56.000Z</time>
      </trkpt>
      <trkpt lat="45.19617" lon="6.34466">
        <ele>1709.8000488281</ele>
        <time>2014-01-11T07:29:57.000Z</time>
      </trkpt>
      <trkpt lat="45.19616" lon="6.34466">
        <ele>1709.5999755859</ele>
        <time>2014-01-11T07:29:59.000Z</time>
      </trkpt>
      <trkpt lat="45.19615" lon="6.34467">
        <ele>1709.5999755859</ele>
        <time>2014-01-11T07:30:00.000Z</time>
      </trkpt>
      <trkpt lat="45.19612" lon="6.34467">
        <ele>1709.8000488281</ele>
        <time>2014-01-11T07:30:02.000Z</time>
      </trkpt>
      <trkpt lat="45.19611" lon="6.34467">
        <ele>1709.8000488281</ele>
        <time>2014-01-11T07:30:03.000Z</time>
      </trkpt>
      <trkpt lat="45.1961" lon="6.34467">
        <ele>1709.8000488281</ele>
        <time>2014-01-11T07:30:04.000Z</time>
      </trkpt>
      <trkpt lat="45.19608" lon="6.34467">
        <ele>1709.8000488281</ele>
        <time>2014-01-11T07:30:05.000Z</time>
      </trkpt>
      <trkpt lat="45.19608" lon="6.34467">
        <ele>1710</ele>
        <time>2014-01-11T07:30:06.000Z</time>
      </trkpt>
      <trkpt lat="45.19607" lon="6.34467">
        <ele>1710</ele>
        <time>2014-01-11T07:30:07.000Z</time>
      </trkpt>
      <trkpt lat="45.19605" lon="6.34468">
        <ele>1710.1999511719</ele>
        <time>2014-01-11T07:30:08.000Z</time>
      </trkpt>
      <trkpt lat="45.19604" lon="6.34468">
        <ele>1710.1999511719</ele>
        <time>2014-01-11T07:30:09.000Z</time>
      </trkpt>
      <trkpt lat="45.19602" lon="6.34468">
        <ele>1710.1999511719</ele>
        <time>2014-01-11T07:30:10.000Z</time>
      </trkpt>
      <trkpt lat="45.19601" lon="6.34468">
        <ele>1710.1999511719</ele>
        <time>2014-01-11T07:30:11.000Z</time>
      </trkpt>
      <trkpt lat="45.196" lon="6.34468">
        <ele>1710.4000244141</ele>
        <time>2014-01-11T07:30:12.000Z</time>
      </trkpt>
      <trkpt lat="45.19598" lon="6.34468">
        <ele>1710.4000244141</ele>
        <time>2014-01-11T07:30:13.000Z</time>
      </trkpt>
      <trkpt lat="45.19596" lon="6.34468">
        <ele>1710.4000244141</ele>
        <time>2014-01-11T07:30:14.000Z</time>
      </trkpt>
      <trkpt lat="45.19595" lon="6.34468">
        <ele>1710.4000244141</ele>
        <time>2014-01-11T07:30:15.000Z</time>
      </trkpt>
      <trkpt lat="45.19594" lon="6.34467">
        <ele>1710.5999755859</ele>
        <time>2014-01-11T07:30:16.000Z</time>
      </trkpt>
      <trkpt lat="45.19593" lon="6.34467">
        <ele>1710.5999755859</ele>
        <time>2014-01-11T07:30:17.000Z</time>
      </trkpt>
      <trkpt lat="45.19591" lon="6.34467">
        <ele>1710.5999755859</ele>
        <time>2014-01-11T07:30:18.000Z</time>
      </trkpt>
      <trkpt lat="45.19591" lon="6.34467">
        <ele>1710.5999755859</ele>
        <time>2014-01-11T07:30:19.000Z</time>
      </trkpt>
      <trkpt lat="45.1959" lon="6.34467">
        <ele>1710.8000488281</ele>
        <time>2014-01-11T07:30:20.000Z</time>
      </trkpt>
      <trkpt lat="45.19588" lon="6.34467">
        <ele>1710.8000488281</ele>
        <time>2014-01-11T07:30:21.000Z</time>
      </trkpt>
      <trkpt lat="45.19587" lon="6.34467">
        <ele>1711</ele>
        <time>2014-01-11T07:30:22.000Z</time>
      </trkpt>
      <trkpt lat="45.19586" lon="6.34468">
        <ele>1711</ele>
        <time>2014-01-11T07:30:23.000Z</time>
      </trkpt>
      <trkpt lat="45.19585" lon="6.34468">
        <ele>1711</ele>
        <time>2014-01-11T07:30:24.000Z</time>
      </trkpt>
      <trkpt lat="45.19583" lon="6.34468">
        <ele>1711</ele>
        <time>2014-01-11T07:30:25.000Z</time>
      </trkpt>
      <trkpt lat="45.19582" lon="6.34469">
        <ele>1711</ele>
        <time>2014-01-11T07:30:26.000Z</time>
      </trkpt>
      <trkpt lat="45.19581" lon="6.34469">
        <ele>1711.1999511719</ele>
        <time>2014-01-11T07:30:27.000Z</time>
      </trkpt>
      <trkpt lat="45.1958" lon="6.34468">
        <ele>1711.1999511719</ele>
        <time>2014-01-11T07:30:28.000Z</time>
      </trkpt>
      <trkpt lat="45.19579" lon="6.34468">
        <ele>1711.1999511719</ele>
        <time>2014-01-11T07:30:29.000Z</time>
      </trkpt>
      <trkpt lat="45.19577" lon="6.34468">
        <ele>1711.1999511719</ele>
        <time>2014-01-11T07:30:30.000Z</time>
      </trkpt>
      <trkpt lat="45.19576" lon="6.34468">
        <ele>1711.4000244141</ele>
        <time>2014-01-11T07:30:31.000Z</time>
      </trkpt>
      <trkpt lat="45.19575" lon="6.34468">
        <ele>1711.4000244141</ele>
        <time>2014-01-11T07:30:32.000Z</time>
      </trkpt>
      <trkpt lat="45.19574" lon="6.34468">
        <ele>1711.4000244141</ele>
        <time>2014-01-11T07:30:33.000Z</time>
      </trkpt>
      <trkpt lat="45.19572" lon="6.34468">
        <ele>1711.4000244141</ele>
        <time>2014-01-11T07:30:34.000Z</time>
      </trkpt>
      <trkpt lat="45.19572" lon="6.34468">
        <ele>1711.4000244141</ele>
        <time>2014-01-11T07:30:35.000Z</time>
      </trkpt>
      <trkpt lat="45.19571" lon="6.34469">
        <ele>1711.4000244141</ele>
        <time>2014-01-11T07:30:36.000Z</time>
      </trkpt>
      <trkpt lat="45.19569" lon="6.34469">
        <ele>1711.4000244141</ele>
        <time>2014-01-11T07:30:37.000Z</time>
      </trkpt>
      <trkpt lat="45.19568" lon="6.34469">
        <ele>1711.4000244141</ele>
        <time>2014-01-11T07:30:38.000Z</time>
      </trkpt>
      <trkpt lat="45.19569" lon="6.34469">
        <ele>1711.4000244141</ele>
        <time>2014-01-11T07:30:39.000Z</time>
      </trkpt>
      <trkpt lat="45.19569" lon="6.34469">
        <ele>1711.4000244141</ele>
        <time>2014-01-11T07:30:40.000Z</time>
      </trkpt>
      <trkpt lat="45.19569" lon="6.34469">
        <ele>1711.4000244141</ele>
        <time>2014-01-11T07:30:41.000Z</time>
      </trkpt>
      <trkpt lat="45.19569" lon="6.34469">
        <ele>1711.4000244141</ele>
        <time>2014-01-11T07:30:42.000Z</time>
      </trkpt>
      <trkpt lat="45.19569" lon="6.34469">
        <ele>1711.4000244141</ele>
        <time>2014-01-11T07:30:43.000Z</time>
      </trkpt>
      <trkpt lat="45.19569" lon="6.34469">
        <ele>1711.1999511719</ele>
        <time>2014-01-11T07:30:44.000Z</time>
      </trkpt>
      <trkpt lat="45.19569" lon="6.34469">
        <ele>1711.1999511719</ele>
        <time>2014-01-11T07:30:45.000Z</time>
      </trkpt>
      <trkpt lat="45.19569" lon="6.34469">
        <ele>1711.1999511719</ele>
        <time>2014-01-11T07:30:46.000Z</time>
      </trkpt>
      <trkpt lat="45.19569" lon="6.34469">
        <ele>1711.1999511719</ele>
        <time>2014-01-11T07:30:47.000Z</time>
      </trkpt>
      <trkpt lat="45.1957" lon="6.34468">
        <ele>1711.1999511719</ele>
        <time>2014-01-11T07:30:48.000Z</time>
      </trkpt>
      <trkpt lat="45.1957" lon="6.34468">
        <ele>1711.1999511719</ele>
        <time>2014-01-11T07:30:49.000Z</time>
      </trkpt>
      <trkpt lat="45.1957" lon="6.34468">
        <ele>1711.1999511719</ele>
        <time>2014-01-11T07:30:51.000Z</time>
      </trkpt>
      <trkpt lat="45.1957" lon="6.34468">
        <ele>1711.1999511719</ele>
        <time>2014-01-11T07:30:52.000Z</time>
      </trkpt>
      <trkpt lat="45.1957" lon="6.34468">
        <ele>1711.1999511719</ele>
        <time>2014-01-11T07:30:53.000Z</time>
      </trkpt>
      <trkpt lat="45.1957" lon="6.34468">
        <ele>1711.1999511719</ele>
        <time>2014-01-11T07:30:56.000Z</time>
      </trkpt>
      <trkpt lat="45.1957" lon="6.34468">
        <ele>1711.1999511719</ele>
        <time>2014-01-11T07:30:57.000Z</time>
      </trkpt>
      <trkpt lat="45.1957" lon="6.34468">
        <ele>1711.1999511719</ele>
        <time>2014-01-11T07:30:58.000Z</time>
      </trkpt>
      <trkpt lat="45.1957" lon="6.34468">
        <ele>1711.1999511719</ele>
        <time>2014-01-11T07:30:59.000Z</time>
      </trkpt>
      <trkpt lat="45.1957" lon="6.34468">
        <ele>1711.1999511719</ele>
        <time>2014-01-11T07:31:01.000Z</time>
      </trkpt>
      <trkpt lat="45.1957" lon="6.34468">
        <ele>1711.1999511719</ele>
        <time>2014-01-11T07:31:02.000Z</time>
      </trkpt>
      <trkpt lat="45.1957" lon="6.34468">
        <ele>1711.1999511719</ele>
        <time>2014-01-11T07:31:03.000Z</time>
      </trkpt>
      <trkpt lat="45.1957" lon="6.34468">
        <ele>1711.1999511719</ele>
        <time>2014-01-11T07:31:04.000Z</time>
      </trkpt>
      <trkpt lat="45.1957" lon="6.34468">
        <ele>1711</ele>
        <time>2014-01-11T07:31:05.000Z</time>
      </trkpt>
      <trkpt lat="45.1957" lon="6.34468">
        <ele>1711</ele>
        <time>2014-01-11T07:31:06.000Z</time>
      </trkpt>
      <trkpt lat="45.1957" lon="6.34468">
        <ele>1711</ele>
        <time>2014-01-11T07:31:07.000Z</time>
      </trkpt>
      <trkpt lat="45.1957" lon="6.34468">
        <ele>1711</ele>
        <time>2014-01-11T07:31:08.000Z</time>
      </trkpt>
      <trkpt lat="45.19571" lon="6.34468">
        <ele>1711</ele>
        <time>2014-01-11T07:31:11.000Z</time>
      </trkpt>
      <trkpt lat="45.19571" lon="6.34467">
        <ele>1711</ele>
        <time>2014-01-11T07:31:12.000Z</time>
      </trkpt>
      <trkpt lat="45.19571" lon="6.34466">
        <ele>1711</ele>
        <time>2014-01-11T07:31:13.000Z</time>
      </trkpt>
      <trkpt lat="45.19571" lon="6.34464">
        <ele>1711</ele>
        <time>2014-01-11T07:31:14.000Z</time>
      </trkpt>
      <trkpt lat="45.19572" lon="6.34462">
        <ele>1711</ele>
        <time>2014-01-11T07:31:15.000Z</time>
      </trkpt>
      <trkpt lat="45.19572" lon="6.3446">
        <ele>1711</ele>
        <time>2014-01-11T07:31:16.000Z</time>
      </trkpt>
      <trkpt lat="45.19572" lon="6.34458">
        <ele>1710.8000488281</ele>
        <time>2014-01-11T07:31:17.000Z</time>
      </trkpt>
      <trkpt lat="45.19573" lon="6.34455">
        <ele>1710.5999755859</ele>
        <time>2014-01-11T07:31:18.000Z</time>
      </trkpt>
      <trkpt lat="45.19573" lon="6.34453">
        <ele>1710.5999755859</ele>
        <time>2014-01-11T07:31:19.000Z</time>
      </trkpt>
      <trkpt lat="45.19573" lon="6.3445">
        <ele>1710.4000244141</ele>
        <time>2014-01-11T07:31:20.000Z</time>
      </trkpt>
      <trkpt lat="45.19573" lon="6.34448">
        <ele>1710</ele>
        <time>2014-01-11T07:31:21.000Z</time>
      </trkpt>
      <trkpt lat="45.19573" lon="6.34445">
        <ele>1709.8000488281</ele>
        <time>2014-01-11T07:31:22.000Z</time>
      </trkpt>
      <trkpt lat="45.19573" lon="6.34443">
        <ele>1709.5999755859</ele>
        <time>2014-01-11T07:31:23.000Z</time>
      </trkpt>
      <trkpt lat="45.19573" lon="6.34439">
        <ele>1709.4000244141</ele>
        <time>2014-01-11T07:31:24.000Z</time>
      </trkpt>
      <trkpt lat="45.19573" lon="6.34436">
        <ele>1709.1999511719</ele>
        <time>2014-01-11T07:31:25.000Z</time>
      </trkpt>
      <trkpt lat="45.19573" lon="6.34433">
        <ele>1708.8000488281</ele>
        <time>2014-01-11T07:31:26.000Z</time>
      </trkpt>
      <trkpt lat="45.19573" lon="6.3443">
        <ele>1708.4000244141</ele>
        <time>2014-01-11T07:31:27.000Z</time>
      </trkpt>
      <trkpt lat="45.19572" lon="6.34428">
        <ele>1708.1999511719</ele>
        <time>2014-01-11T07:31:28.000Z</time>
      </trkpt>
      <trkpt lat="45.19572" lon="6.34426">
        <ele>1707.8000488281</ele>
        <time>2014-01-11T07:31:29.000Z</time>
      </trkpt>
      <trkpt lat="45.19572" lon="6.34424">
        <ele>1707.4000244141</ele>
        <time>2014-01-11T07:31:30.000Z</time>
      </trkpt>
      <trkpt lat="45.19572" lon="6.34421">
        <ele>1707</ele>
        <time>2014-01-11T07:31:31.000Z</time>
      </trkpt>
      <trkpt lat="45.19572" lon="6.34418">
        <ele>1706.1999511719</ele>
        <time>2014-01-11T07:31:32.000Z</time>
      </trkpt>
      <trkpt lat="45.19572" lon="6.34415">
        <ele>1705.8000488281</ele>
        <time>2014-01-11T07:31:33.000Z</time>
      </trkpt>
      <trkpt lat="45.19572" lon="6.34412">
        <ele>1705.5999755859</ele>
        <time>2014-01-11T07:31:34.000Z</time>
      </trkpt>
      <trkpt lat="45.19572" lon="6.34409">
        <ele>1705.1999511719</ele>
        <time>2014-01-11T07:31:35.000Z</time>
      </trkpt>
      <trkpt lat="45.19571" lon="6.34406">
        <ele>1704.8000488281</ele>
        <time>2014-01-11T07:31:36.000Z</time>
      </trkpt>
      <trkpt lat="45.19571" lon="6.34404">
        <ele>1704.1999511719</ele>
        <time>2014-01-11T07:31:37.000Z</time>
      </trkpt>
      <trkpt lat="45.19571" lon="6.344">
        <ele>1703.5999755859</ele>
        <time>2014-01-11T07:31:38.000Z</time>
      </trkpt>
      <trkpt lat="45.19571" lon="6.34398">
        <ele>1703.1999511719</ele>
        <time>2014-01-11T07:31:39.000Z</time>
      </trkpt>
      <trkpt lat="45.19571" lon="6.34396">
        <ele>1702.5999755859</ele>
        <time>2014-01-11T07:31:40.000Z</time>
      </trkpt>
      <trkpt lat="45.19571" lon="6.34395">
        <ele>1702.1999511719</ele>
        <time>2014-01-11T07:31:41.000Z</time>
      </trkpt>
      <trkpt lat="45.19571" lon="6.34393">
        <ele>1701.5999755859</ele>
        <time>2014-01-11T07:31:42.000Z</time>
      </trkpt>
      <trkpt lat="45.19571" lon="6.34391">
        <ele>1701.1999511719</ele>
        <time>2014-01-11T07:31:43.000Z</time>
      </trkpt>
      <trkpt lat="45.19572" lon="6.34387">
        <ele>1700.8000488281</ele>
        <time>2014-01-11T07:31:44.000Z</time>
      </trkpt>
      <trkpt lat="45.19572" lon="6.34384">
        <ele>1700.4000244141</ele>
        <time>2014-01-11T07:31:45.000Z</time>
      </trkpt>
      <trkpt lat="45.19572" lon="6.34381">
        <ele>1700.1999511719</ele>
        <time>2014-01-11T07:31:46.000Z</time>
      </trkpt>
      <trkpt lat="45.19572" lon="6.34378">
        <ele>1699.8000488281</ele>
        <time>2014-01-11T07:31:47.000Z</time>
      </trkpt>
      <trkpt lat="45.19572" lon="6.34375">
        <ele>1699.4000244141</ele>
        <time>2014-01-11T07:31:48.000Z</time>
      </trkpt>
      <trkpt lat="45.19571" lon="6.34372">
        <ele>1699</ele>
        <time>2014-01-11T07:31:49.000Z</time>
      </trkpt>
      <trkpt lat="45.19571" lon="6.3437">
        <ele>1698.5999755859</ele>
        <time>2014-01-11T07:31:50.000Z</time>
      </trkpt>
      <trkpt lat="45.1957" lon="6.34368">
        <ele>1698</ele>
        <time>2014-01-11T07:31:51.000Z</time>
      </trkpt>
      <trkpt lat="45.19569" lon="6.34366">
        <ele>1697.4000244141</ele>
        <time>2014-01-11T07:31:52.000Z</time>
      </trkpt>
      <trkpt lat="45.19568" lon="6.34364">
        <ele>1696.8000488281</ele>
        <time>2014-01-11T07:31:53.000Z</time>
      </trkpt>
      <trkpt lat="45.19567" lon="6.34362">
        <ele>1696.4000244141</ele>
        <time>2014-01-11T07:31:54.000Z</time>
      </trkpt>
      <trkpt lat="45.19567" lon="6.3436">
        <ele>1696</ele>
        <time>2014-01-11T07:31:55.000Z</time>
      </trkpt>
      <trkpt lat="45.19566" lon="6.34358">
        <ele>1695.1999511719</ele>
        <time>2014-01-11T07:31:56.000Z</time>
      </trkpt>
      <trkpt lat="45.19565" lon="6.34355">
        <ele>1694.8000488281</ele>
        <time>2014-01-11T07:31:57.000Z</time>
      </trkpt>
      <trkpt lat="45.19563" lon="6.34353">
        <ele>1694.4000244141</ele>
        <time>2014-01-11T07:31:58.000Z</time>
      </trkpt>
      <trkpt lat="45.19562" lon="6.34351">
        <ele>1694</ele>
        <time>2014-01-11T07:31:59.000Z</time>
      </trkpt>
      <trkpt lat="45.19561" lon="6.34349">
        <ele>1693.4000244141</ele>
        <time>2014-01-11T07:32:00.000Z</time>
      </trkpt>
      <trkpt lat="45.19559" lon="6.34346">
        <ele>1693</ele>
        <time>2014-01-11T07:32:01.000Z</time>
      </trkpt>
      <trkpt lat="45.19558" lon="6.34344">
        <ele>1692.4000244141</ele>
        <time>2014-01-11T07:32:02.000Z</time>
      </trkpt>
      <trkpt lat="45.19557" lon="6.34343">
        <ele>1692</ele>
        <time>2014-01-11T07:32:03.000Z</time>
      </trkpt>
      <trkpt lat="45.19556" lon="6.34341">
        <ele>1691.4000244141</ele>
        <time>2014-01-11T07:32:04.000Z</time>
      </trkpt>
      <trkpt lat="45.19555" lon="6.34341">
        <ele>1691</ele>
        <time>2014-01-11T07:32:05.000Z</time>
      </trkpt>
      <trkpt lat="45.19554" lon="6.3434">
        <ele>1690.5999755859</ele>
        <time>2014-01-11T07:32:06.000Z</time>
      </trkpt>
      <trkpt lat="45.19552" lon="6.34339">
        <ele>1690</ele>
        <time>2014-01-11T07:32:07.000Z</time>
      </trkpt>
      <trkpt lat="45.1955" lon="6.34337">
        <ele>1689.8000488281</ele>
        <time>2014-01-11T07:32:08.000Z</time>
      </trkpt>
      <trkpt lat="45.19549" lon="6.34336">
        <ele>1689.5999755859</ele>
        <time>2014-01-11T07:32:09.000Z</time>
      </trkpt>
      <trkpt lat="45.19547" lon="6.34335">
        <ele>1689.1999511719</ele>
        <time>2014-01-11T07:32:10.000Z</time>
      </trkpt>
      <trkpt lat="45.19546" lon="6.34334">
        <ele>1689</ele>
        <time>2014-01-11T07:32:11.000Z</time>
      </trkpt>
      <trkpt lat="45.19545" lon="6.34334">
        <ele>1688.8000488281</ele>
        <time>2014-01-11T07:32:12.000Z</time>
      </trkpt>
      <trkpt lat="45.19544" lon="6.34333">
        <ele>1688.4000244141</ele>
        <time>2014-01-11T07:32:13.000Z</time>
      </trkpt>
      <trkpt lat="45.19541" lon="6.34333">
        <ele>1688.1999511719</ele>
        <time>2014-01-11T07:32:14.000Z</time>
      </trkpt>
      <trkpt lat="45.1954" lon="6.34332">
        <ele>1687.8000488281</ele>
        <time>2014-01-11T07:32:15.000Z</time>
      </trkpt>
      <trkpt lat="45.19538" lon="6.34331">
        <ele>1687.5999755859</ele>
        <time>2014-01-11T07:32:16.000Z</time>
      </trkpt>
      <trkpt lat="45.19537" lon="6.3433">
        <ele>1687.4000244141</ele>
        <time>2014-01-11T07:32:17.000Z</time>
      </trkpt>
      <trkpt lat="45.19536" lon="6.34329">
        <ele>1687.1999511719</ele>
        <time>2014-01-11T07:32:18.000Z</time>
      </trkpt>
      <trkpt lat="45.19534" lon="6.34328">
        <ele>1687.1999511719</ele>
        <time>2014-01-11T07:32:19.000Z</time>
      </trkpt>
      <trkpt lat="45.19533" lon="6.34327">
        <ele>1686.8000488281</ele>
        <time>2014-01-11T07:32:20.000Z</time>
      </trkpt>
      <trkpt lat="45.19532" lon="6.34326">
        <ele>1686.5999755859</ele>
        <time>2014-01-11T07:32:21.000Z</time>
      </trkpt>
      <trkpt lat="45.19531" lon="6.34324">
        <ele>1686.4000244141</ele>
        <time>2014-01-11T07:32:22.000Z</time>
      </trkpt>
      <trkpt lat="45.19529" lon="6.34322">
        <ele>1686.1999511719</ele>
        <time>2014-01-11T07:32:23.000Z</time>
      </trkpt>
      <trkpt lat="45.19528" lon="6.3432">
        <ele>1686.1999511719</ele>
        <time>2014-01-11T07:32:24.000Z</time>
      </trkpt>
      <trkpt lat="45.19527" lon="6.34318">
        <ele>1685.8000488281</ele>
        <time>2014-01-11T07:32:25.000Z</time>
      </trkpt>
      <trkpt lat="45.19526" lon="6.34316">
        <ele>1685.5999755859</ele>
        <time>2014-01-11T07:32:26.000Z</time>
      </trkpt>
      <trkpt lat="45.19525" lon="6.34314">
        <ele>1685.4000244141</ele>
        <time>2014-01-11T07:32:27.000Z</time>
      </trkpt>
      <trkpt lat="45.19523" lon="6.34311">
        <ele>1685</ele>
        <time>2014-01-11T07:32:28.000Z</time>
      </trkpt>
      <trkpt lat="45.19523" lon="6.34309">
        <ele>1684.5999755859</ele>
        <time>2014-01-11T07:32:29.000Z</time>
      </trkpt>
      <trkpt lat="45.19522" lon="6.34307">
        <ele>1684.1999511719</ele>
        <time>2014-01-11T07:32:30.000Z</time>
      </trkpt>
      <trkpt lat="45.19522" lon="6.34306">
        <ele>1683.5999755859</ele>
        <time>2014-01-11T07:32:31.000Z</time>
      </trkpt>
      <trkpt lat="45.19522" lon="6.34305">
        <ele>1683.1999511719</ele>
        <time>2014-01-11T07:32:32.000Z</time>
      </trkpt>
      <trkpt lat="45.19522" lon="6.34303">
        <ele>1682.8000488281</ele>
        <time>2014-01-11T07:32:33.000Z</time>
      </trkpt>
      <trkpt lat="45.19522" lon="6.34301">
        <ele>1682.5999755859</ele>
        <time>2014-01-11T07:32:34.000Z</time>
      </trkpt>
      <trkpt lat="45.19522" lon="6.34301">
        <ele>1682.1999511719</ele>
        <time>2014-01-11T07:32:35.000Z</time>
      </trkpt>
      <trkpt lat="45.19523" lon="6.343">
        <ele>1682</ele>
        <time>2014-01-11T07:32:36.000Z</time>
      </trkpt>
      <trkpt lat="45.19523" lon="6.343">
        <ele>1681.5999755859</ele>
        <time>2014-01-11T07:32:37.000Z</time>
      </trkpt>
      <trkpt lat="45.19523" lon="6.343">
        <ele>1681.5999755859</ele>
        <time>2014-01-11T07:32:38.000Z</time>
      </trkpt>
      <trkpt lat="45.19522" lon="6.34299">
        <ele>1681.4000244141</ele>
        <time>2014-01-11T07:32:39.000Z</time>
      </trkpt>
      <trkpt lat="45.19521" lon="6.34298">
        <ele>1681.4000244141</ele>
        <time>2014-01-11T07:32:40.000Z</time>
      </trkpt>
      <trkpt lat="45.1952" lon="6.34297">
        <ele>1681.4000244141</ele>
        <time>2014-01-11T07:32:41.000Z</time>
      </trkpt>
      <trkpt lat="45.19518" lon="6.34296">
        <ele>1681.1999511719</ele>
        <time>2014-01-11T07:32:42.000Z</time>
      </trkpt>
      <trkpt lat="45.19515" lon="6.34295">
        <ele>1681.1999511719</ele>
        <time>2014-01-11T07:32:43.000Z</time>
      </trkpt>
      <trkpt lat="45.19515" lon="6.34295">
        <ele>1680.8000488281</ele>
        <time>2014-01-11T07:32:44.000Z</time>
      </trkpt>
      <trkpt lat="45.19513" lon="6.34295">
        <ele>1680.1999511719</ele>
        <time>2014-01-11T07:32:45.000Z</time>
      </trkpt>
      <trkpt lat="45.19512" lon="6.34297">
        <ele>1679.8000488281</ele>
        <time>2014-01-11T07:32:46.000Z</time>
      </trkpt>
      <trkpt lat="45.19512" lon="6.34297">
        <ele>1679.1999511719</ele>
        <time>2014-01-11T07:32:47.000Z</time>
      </trkpt>
      <trkpt lat="45.1951" lon="6.34299">
        <ele>1679</ele>
        <time>2014-01-11T07:32:48.000Z</time>
      </trkpt>
      <trkpt lat="45.19509" lon="6.343">
        <ele>1678.8000488281</ele>
        <time>2014-01-11T07:32:49.000Z</time>
      </trkpt>
      <trkpt lat="45.19509" lon="6.34302">
        <ele>1678.5999755859</ele>
        <time>2014-01-11T07:32:50.000Z</time>
      </trkpt>
      <trkpt lat="45.19508" lon="6.34303">
        <ele>1678.5999755859</ele>
        <time>2014-01-11T07:32:51.000Z</time>
      </trkpt>
      <trkpt lat="45.19508" lon="6.34306">
        <ele>1678.5999755859</ele>
        <time>2014-01-11T07:32:52.000Z</time>
      </trkpt>
      <trkpt lat="45.19508" lon="6.34308">
        <ele>1678.5999755859</ele>
        <time>2014-01-11T07:32:53.000Z</time>
      </trkpt>
      <trkpt lat="45.19507" lon="6.3431">
        <ele>1678.4000244141</ele>
        <time>2014-01-11T07:32:54.000Z</time>
      </trkpt>
      <trkpt lat="45.19507" lon="6.34312">
        <ele>1678.4000244141</ele>
        <time>2014-01-11T07:32:55.000Z</time>
      </trkpt>
      <trkpt lat="45.19506" lon="6.34314">
        <ele>1678.4000244141</ele>
        <time>2014-01-11T07:32:56.000Z</time>
      </trkpt>
      <trkpt lat="45.19506" lon="6.34317">
        <ele>1678.4000244141</ele>
        <time>2014-01-11T07:32:57.000Z</time>
      </trkpt>
      <trkpt lat="45.19506" lon="6.34319">
        <ele>1678.4000244141</ele>
        <time>2014-01-11T07:32:58.000Z</time>
      </trkpt>
      <trkpt lat="45.19506" lon="6.3432">
        <ele>1678.1999511719</ele>
        <time>2014-01-11T07:32:59.000Z</time>
      </trkpt>
      <trkpt lat="45.19506" lon="6.34322">
        <ele>1678.1999511719</ele>
        <time>2014-01-11T07:33:00.000Z</time>
      </trkpt>
      <trkpt lat="45.19506" lon="6.34324">
        <ele>1678.1999511719</ele>
        <time>2014-01-11T07:33:01.000Z</time>
      </trkpt>
      <trkpt lat="45.19506" lon="6.34327">
        <ele>1678</ele>
        <time>2014-01-11T07:33:02.000Z</time>
      </trkpt>
      <trkpt lat="45.19506" lon="6.34329">
        <ele>1678</ele>
        <time>2014-01-11T07:33:03.000Z</time>
      </trkpt>
      <trkpt lat="45.19505" lon="6.3433">
        <ele>1678</ele>
        <time>2014-01-11T07:33:04.000Z</time>
      </trkpt>
      <trkpt lat="45.19505" lon="6.34333">
        <ele>1678</ele>
        <time>2014-01-11T07:33:05.000Z</time>
      </trkpt>
      <trkpt lat="45.19505" lon="6.34335">
        <ele>1678</ele>
        <time>2014-01-11T07:33:06.000Z</time>
      </trkpt>
      <trkpt lat="45.19505" lon="6.34337">
        <ele>1677.8000488281</ele>
        <time>2014-01-11T07:33:07.000Z</time>
      </trkpt>
      <trkpt lat="45.19504" lon="6.34341">
        <ele>1677.8000488281</ele>
        <time>2014-01-11T07:33:09.000Z</time>
      </trkpt>
      <trkpt lat="45.19504" lon="6.34343">
        <ele>1677.8000488281</ele>
        <time>2014-01-11T07:33:10.000Z</time>
      </trkpt>
      <trkpt lat="45.19504" lon="6.34345">
        <ele>1677.8000488281</ele>
        <time>2014-01-11T07:33:11.000Z</time>
      </trkpt>
      <trkpt lat="45.19503" lon="6.34347">
        <ele>1677.8000488281</ele>
        <time>2014-01-11T07:33:12.000Z</time>
      </trkpt>
      <trkpt lat="45.19503" lon="6.34348">
        <ele>1677.5999755859</ele>
        <time>2014-01-11T07:33:13.000Z</time>
      </trkpt>
      <trkpt lat="45.19503" lon="6.3435">
        <ele>1677.5999755859</ele>
        <time>2014-01-11T07:33:14.000Z</time>
      </trkpt>
      <trkpt lat="45.19502" lon="6.34351">
        <ele>1677.5999755859</ele>
        <time>2014-01-11T07:33:15.000Z</time>
      </trkpt>
      <trkpt lat="45.19501" lon="6.34353">
        <ele>1677.5999755859</ele>
        <time>2014-01-11T07:33:16.000Z</time>
      </trkpt>
      <trkpt lat="45.195" lon="6.34353">
        <ele>1677.5999755859</ele>
        <time>2014-01-11T07:33:17.000Z</time>
      </trkpt>
      <trkpt lat="45.19498" lon="6.34355">
        <ele>1677.5999755859</ele>
        <time>2014-01-11T07:33:18.000Z</time>
      </trkpt>
      <trkpt lat="45.19491" lon="6.34358">
        <ele>1677.5999755859</ele>
        <time>2014-01-11T07:33:23.000Z</time>
      </trkpt>
      <trkpt lat="45.1949" lon="6.34358">
        <ele>1677.5999755859</ele>
        <time>2014-01-11T07:33:24.000Z</time>
      </trkpt>
      <trkpt lat="45.19489" lon="6.34358">
        <ele>1677.5999755859</ele>
        <time>2014-01-11T07:33:25.000Z</time>
      </trkpt>
      <trkpt lat="45.19488" lon="6.34357">
        <ele>1677.5999755859</ele>
        <time>2014-01-11T07:33:26.000Z</time>
      </trkpt>
      <trkpt lat="45.19486" lon="6.34357">
        <ele>1677.5999755859</ele>
        <time>2014-01-11T07:33:27.000Z</time>
      </trkpt>
      <trkpt lat="45.19484" lon="6.34355">
        <ele>1677.5999755859</ele>
        <time>2014-01-11T07:33:29.000Z</time>
      </trkpt>
      <trkpt lat="45.19482" lon="6.34355">
        <ele>1677.5999755859</ele>
        <time>2014-01-11T07:33:30.000Z</time>
      </trkpt>
      <trkpt lat="45.19481" lon="6.34354">
        <ele>1677.8000488281</ele>
        <time>2014-01-11T07:33:31.000Z</time>
      </trkpt>
      <trkpt lat="45.1948" lon="6.34354">
        <ele>1677.8000488281</ele>
        <time>2014-01-11T07:33:32.000Z</time>
      </trkpt>
      <trkpt lat="45.19479" lon="6.34353">
        <ele>1677.8000488281</ele>
        <time>2014-01-11T07:33:33.000Z</time>
      </trkpt>
      <trkpt lat="45.19477" lon="6.34352">
        <ele>1677.8000488281</ele>
        <time>2014-01-11T07:33:34.000Z</time>
      </trkpt>
      <trkpt lat="45.19477" lon="6.34351">
        <ele>1677.8000488281</ele>
        <time>2014-01-11T07:33:35.000Z</time>
      </trkpt>
      <trkpt lat="45.19476" lon="6.34351">
        <ele>1677.8000488281</ele>
        <time>2014-01-11T07:33:36.000Z</time>
      </trkpt>
      <trkpt lat="45.19474" lon="6.34349">
        <ele>1677.8000488281</ele>
        <time>2014-01-11T07:33:37.000Z</time>
      </trkpt>
      <trkpt lat="45.19473" lon="6.34348">
        <ele>1677.8000488281</ele>
        <time>2014-01-11T07:33:38.000Z</time>
      </trkpt>
      <trkpt lat="45.19473" lon="6.34347">
        <ele>1678</ele>
        <time>2014-01-11T07:33:39.000Z</time>
      </trkpt>
      <trkpt lat="45.19472" lon="6.34346">
        <ele>1678.1999511719</ele>
        <time>2014-01-11T07:33:40.000Z</time>
      </trkpt>
      <trkpt lat="45.1947" lon="6.34345">
        <ele>1678.1999511719</ele>
        <time>2014-01-11T07:33:41.000Z</time>
      </trkpt>
      <trkpt lat="45.19469" lon="6.34344">
        <ele>1678.1999511719</ele>
        <time>2014-01-11T07:33:42.000Z</time>
      </trkpt>
      <trkpt lat="45.19468" lon="6.34344">
        <ele>1678.4000244141</ele>
        <time>2014-01-11T07:33:43.000Z</time>
      </trkpt>
      <trkpt lat="45.19467" lon="6.34344">
        <ele>1678.4000244141</ele>
        <time>2014-01-11T07:33:44.000Z</time>
      </trkpt>
      <trkpt lat="45.19466" lon="6.34343">
        <ele>1678.5999755859</ele>
        <time>2014-01-11T07:33:45.000Z</time>
      </trkpt>
      <trkpt lat="45.19464" lon="6.34343">
        <ele>1678.5999755859</ele>
        <time>2014-01-11T07:33:46.000Z</time>
      </trkpt>
      <trkpt lat="45.19463" lon="6.34343">
        <ele>1678.5999755859</ele>
        <time>2014-01-11T07:33:47.000Z</time>
      </trkpt>
      <trkpt lat="45.19462" lon="6.34343">
        <ele>1678.5999755859</ele>
        <time>2014-01-11T07:33:48.000Z</time>
      </trkpt>
      <trkpt lat="45.1946" lon="6.34344">
        <ele>1678.5999755859</ele>
        <time>2014-01-11T07:33:49.000Z</time>
      </trkpt>
      <trkpt lat="45.19459" lon="6.34344">
        <ele>1678.5999755859</ele>
        <time>2014-01-11T07:33:50.000Z</time>
      </trkpt>
      <trkpt lat="45.19458" lon="6.34344">
        <ele>1678.5999755859</ele>
        <time>2014-01-11T07:33:51.000Z</time>
      </trkpt>
      <trkpt lat="45.19457" lon="6.34345">
        <ele>1678.8000488281</ele>
        <time>2014-01-11T07:33:52.000Z</time>
      </trkpt>
      <trkpt lat="45.19455" lon="6.34345">
        <ele>1678.8000488281</ele>
        <time>2014-01-11T07:33:53.000Z</time>
      </trkpt>
      <trkpt lat="45.19455" lon="6.34345">
        <ele>1679</ele>
        <time>2014-01-11T07:33:54.000Z</time>
      </trkpt>
      <trkpt lat="45.19453" lon="6.34346">
        <ele>1679</ele>
        <time>2014-01-11T07:33:55.000Z</time>
      </trkpt>
      <trkpt lat="45.19452" lon="6.34347">
        <ele>1679</ele>
        <time>2014-01-11T07:33:56.000Z</time>
      </trkpt>
      <trkpt lat="45.19451" lon="6.34347">
        <ele>1679.1999511719</ele>
        <time>2014-01-11T07:33:57.000Z</time>
      </trkpt>
      <trkpt lat="45.1945" lon="6.34347">
        <ele>1679.4000244141</ele>
        <time>2014-01-11T07:33:58.000Z</time>
      </trkpt>
      <trkpt lat="45.19449" lon="6.34348">
        <ele>1679.4000244141</ele>
        <time>2014-01-11T07:33:59.000Z</time>
      </trkpt>
      <trkpt lat="45.19447" lon="6.3435">
        <ele>1679.4000244141</ele>
        <time>2014-01-11T07:34:00.000Z</time>
      </trkpt>
      <trkpt lat="45.19447" lon="6.34351">
        <ele>1679.5999755859</ele>
        <time>2014-01-11T07:34:01.000Z</time>
      </trkpt>
      <trkpt lat="45.19446" lon="6.34351">
        <ele>1679.5999755859</ele>
        <time>2014-01-11T07:34:02.000Z</time>
      </trkpt>
      <trkpt lat="45.19445" lon="6.34352">
        <ele>1679.8000488281</ele>
        <time>2014-01-11T07:34:03.000Z</time>
      </trkpt>
      <trkpt lat="45.19444" lon="6.34352">
        <ele>1679.8000488281</ele>
        <time>2014-01-11T07:34:04.000Z</time>
      </trkpt>
      <trkpt lat="45.19443" lon="6.34352">
        <ele>1679.8000488281</ele>
        <time>2014-01-11T07:34:05.000Z</time>
      </trkpt>
      <trkpt lat="45.19442" lon="6.34352">
        <ele>1680</ele>
        <time>2014-01-11T07:34:06.000Z</time>
      </trkpt>
      <trkpt lat="45.19441" lon="6.34353">
        <ele>1680</ele>
        <time>2014-01-11T07:34:07.000Z</time>
      </trkpt>
      <trkpt lat="45.1944" lon="6.34354">
        <ele>1680</ele>
        <time>2014-01-11T07:34:08.000Z</time>
      </trkpt>
      <trkpt lat="45.19439" lon="6.34354">
        <ele>1680.1999511719</ele>
        <time>2014-01-11T07:34:09.000Z</time>
      </trkpt>
      <trkpt lat="45.19438" lon="6.34355">
        <ele>1680.1999511719</ele>
        <time>2014-01-11T07:34:10.000Z</time>
      </trkpt>
      <trkpt lat="45.19437" lon="6.34355">
        <ele>1680.1999511719</ele>
        <time>2014-01-11T07:34:11.000Z</time>
      </trkpt>
      <trkpt lat="45.19435" lon="6.34355">
        <ele>1680.1999511719</ele>
        <time>2014-01-11T07:34:12.000Z</time>
      </trkpt>
      <trkpt lat="45.19435" lon="6.34356">
        <ele>1680.4000244141</ele>
        <time>2014-01-11T07:34:13.000Z</time>
      </trkpt>
      <trkpt lat="45.19434" lon="6.34356">
        <ele>1680.4000244141</ele>
        <time>2014-01-11T07:34:14.000Z</time>
      </trkpt>
      <trkpt lat="45.19432" lon="6.34357">
        <ele>1680.4000244141</ele>
        <time>2014-01-11T07:34:15.000Z</time>
      </trkpt>
      <trkpt lat="45.19431" lon="6.34358">
        <ele>1680.5999755859</ele>
        <time>2014-01-11T07:34:16.000Z</time>
      </trkpt>
      <trkpt lat="45.19431" lon="6.34358">
        <ele>1680.5999755859</ele>
        <time>2014-01-11T07:34:17.000Z</time>
      </trkpt>
      <trkpt lat="45.19429" lon="6.34358">
        <ele>1680.5999755859</ele>
        <time>2014-01-11T07:34:18.000Z</time>
      </trkpt>
      <trkpt lat="45.19428" lon="6.34358">
        <ele>1680.5999755859</ele>
        <time>2014-01-11T07:34:19.000Z</time>
      </trkpt>
      <trkpt lat="45.19427" lon="6.34359">
        <ele>1680.8000488281</ele>
        <time>2014-01-11T07:34:20.000Z</time>
      </trkpt>
      <trkpt lat="45.19425" lon="6.34359">
        <ele>1681</ele>
        <time>2014-01-11T07:34:21.000Z</time>
      </trkpt>
      <trkpt lat="45.19424" lon="6.34359">
        <ele>1681</ele>
        <time>2014-01-11T07:34:22.000Z</time>
      </trkpt>
      <trkpt lat="45.19423" lon="6.34359">
        <ele>1681.1999511719</ele>
        <time>2014-01-11T07:34:23.000Z</time>
      </trkpt>
      <trkpt lat="45.19421" lon="6.34359">
        <ele>1681.5999755859</ele>
        <time>2014-01-11T07:34:24.000Z</time>
      </trkpt>
      <trkpt lat="45.1942" lon="6.3436">
        <ele>1681.8000488281</ele>
        <time>2014-01-11T07:34:25.000Z</time>
      </trkpt>
      <trkpt lat="45.19419" lon="6.3436">
        <ele>1682</ele>
        <time>2014-01-11T07:34:26.000Z</time>
      </trkpt>
      <trkpt lat="45.19418" lon="6.34361">
        <ele>1682</ele>
        <time>2014-01-11T07:34:27.000Z</time>
      </trkpt>
      <trkpt lat="45.19417" lon="6.34361">
        <ele>1682.1999511719</ele>
        <time>2014-01-11T07:34:28.000Z</time>
      </trkpt>
      <trkpt lat="45.19416" lon="6.34362">
        <ele>1682.1999511719</ele>
        <time>2014-01-11T07:34:29.000Z</time>
      </trkpt>
      <trkpt lat="45.19414" lon="6.34362">
        <ele>1682.1999511719</ele>
        <time>2014-01-11T07:34:30.000Z</time>
      </trkpt>
      <trkpt lat="45.19413" lon="6.34361">
        <ele>1682.1999511719</ele>
        <time>2014-01-11T07:34:31.000Z</time>
      </trkpt>
      <trkpt lat="45.19412" lon="6.34361">
        <ele>1682.1999511719</ele>
        <time>2014-01-11T07:34:32.000Z</time>
      </trkpt>
      <trkpt lat="45.19411" lon="6.34362">
        <ele>1682.1999511719</ele>
        <time>2014-01-11T07:34:33.000Z</time>
      </trkpt>
      <trkpt lat="45.19409" lon="6.34363">
        <ele>1682.4000244141</ele>
        <time>2014-01-11T07:34:34.000Z</time>
      </trkpt>
      <trkpt lat="45.19408" lon="6.34363">
        <ele>1682.4000244141</ele>
        <time>2014-01-11T07:34:35.000Z</time>
      </trkpt>
      <trkpt lat="45.19408" lon="6.34363">
        <ele>1682.5999755859</ele>
        <time>2014-01-11T07:34:36.000Z</time>
      </trkpt>
      <trkpt lat="45.19407" lon="6.34364">
        <ele>1682.5999755859</ele>
        <time>2014-01-11T07:34:37.000Z</time>
      </trkpt>
      <trkpt lat="45.19405" lon="6.34364">
        <ele>1682.8000488281</ele>
        <time>2014-01-11T07:34:38.000Z</time>
      </trkpt>
      <trkpt lat="45.19404" lon="6.34364">
        <ele>1682.8000488281</ele>
        <time>2014-01-11T07:34:39.000Z</time>
      </trkpt>
      <trkpt lat="45.19403" lon="6.34364">
        <ele>1682.8000488281</ele>
        <time>2014-01-11T07:34:40.000Z</time>
      </trkpt>
      <trkpt lat="45.19402" lon="6.34365">
        <ele>1682.8000488281</ele>
        <time>2014-01-11T07:34:41.000Z</time>
      </trkpt>
      <trkpt lat="45.19399" lon="6.34365">
        <ele>1682.8000488281</ele>
        <time>2014-01-11T07:34:43.000Z</time>
      </trkpt>
      <trkpt lat="45.19398" lon="6.34365">
        <ele>1683</ele>
        <time>2014-01-11T07:34:44.000Z</time>
      </trkpt>
      <trkpt lat="45.19397" lon="6.34365">
        <ele>1683</ele>
        <time>2014-01-11T07:34:45.000Z</time>
      </trkpt>
      <trkpt lat="45.19396" lon="6.34365">
        <ele>1683</ele>
        <time>2014-01-11T07:34:46.000Z</time>
      </trkpt>
      <trkpt lat="45.19394" lon="6.34365">
        <ele>1683.1999511719</ele>
        <time>2014-01-11T07:34:47.000Z</time>
      </trkpt>
      <trkpt lat="45.19393" lon="6.34364">
        <ele>1683.1999511719</ele>
        <time>2014-01-11T07:34:48.000Z</time>
      </trkpt>
      <trkpt lat="45.19392" lon="6.34365">
        <ele>1683.1999511719</ele>
        <time>2014-01-11T07:34:49.000Z</time>
      </trkpt>
      <trkpt lat="45.19391" lon="6.34365">
        <ele>1683.1999511719</ele>
        <time>2014-01-11T07:34:50.000Z</time>
      </trkpt>
      <trkpt lat="45.19389" lon="6.34364">
        <ele>1683.1999511719</ele>
        <time>2014-01-11T07:34:51.000Z</time>
      </trkpt>
      <trkpt lat="45.19388" lon="6.34364">
        <ele>1683.1999511719</ele>
        <time>2014-01-11T07:34:52.000Z</time>
      </trkpt>
      <trkpt lat="45.19387" lon="6.34364">
        <ele>1683.4000244141</ele>
        <time>2014-01-11T07:34:53.000Z</time>
      </trkpt>
      <trkpt lat="45.19386" lon="6.34364">
        <ele>1683.5999755859</ele>
        <time>2014-01-11T07:34:54.000Z</time>
      </trkpt>
      <trkpt lat="45.19384" lon="6.34363">
        <ele>1683.5999755859</ele>
        <time>2014-01-11T07:34:55.000Z</time>
      </trkpt>
      <trkpt lat="45.19383" lon="6.34362">
        <ele>1683.8000488281</ele>
        <time>2014-01-11T07:34:56.000Z</time>
      </trkpt>
      <trkpt lat="45.19382" lon="6.34363">
        <ele>1683.8000488281</ele>
        <time>2014-01-11T07:34:57.000Z</time>
      </trkpt>
      <trkpt lat="45.1938" lon="6.34363">
        <ele>1683.8000488281</ele>
        <time>2014-01-11T07:34:58.000Z</time>
      </trkpt>
      <trkpt lat="45.19379" lon="6.34363">
        <ele>1683.8000488281</ele>
        <time>2014-01-11T07:34:59.000Z</time>
      </trkpt>
      <trkpt lat="45.19377" lon="6.34362">
        <ele>1683.8000488281</ele>
        <time>2014-01-11T07:35:01.000Z</time>
      </trkpt>
      <trkpt lat="45.19376" lon="6.34361">
        <ele>1683.8000488281</ele>
        <time>2014-01-11T07:35:02.000Z</time>
      </trkpt>
      <trkpt lat="45.19375" lon="6.3436">
        <ele>1683.8000488281</ele>
        <time>2014-01-11T07:35:03.000Z</time>
      </trkpt>
      <trkpt lat="45.19374" lon="6.3436">
        <ele>1683.8000488281</ele>
        <time>2014-01-11T07:35:04.000Z</time>
      </trkpt>
      <trkpt lat="45.19373" lon="6.34359">
        <ele>1683.5999755859</ele>
        <time>2014-01-11T07:35:05.000Z</time>
      </trkpt>
      <trkpt lat="45.19368" lon="6.34357">
        <ele>1683.5999755859</ele>
        <time>2014-01-11T07:35:09.000Z</time>
      </trkpt>
      <trkpt lat="45.19367" lon="6.34356">
        <ele>1683.5999755859</ele>
        <time>2014-01-11T07:35:10.000Z</time>
      </trkpt>
      <trkpt lat="45.19366" lon="6.34356">
        <ele>1683.5999755859</ele>
        <time>2014-01-11T07:35:11.000Z</time>
      </trkpt>
      <trkpt lat="45.19365" lon="6.34355">
        <ele>1683.5999755859</ele>
        <time>2014-01-11T07:35:12.000Z</time>
      </trkpt>
      <trkpt lat="45.19363" lon="6.34355">
        <ele>1683.4000244141</ele>
        <time>2014-01-11T07:35:13.000Z</time>
      </trkpt>
      <trkpt lat="45.19361" lon="6.34354">
        <ele>1683.5999755859</ele>
        <time>2014-01-11T07:35:14.000Z</time>
      </trkpt>
      <trkpt lat="45.1936" lon="6.34353">
        <ele>1683.5999755859</ele>
        <time>2014-01-11T07:35:15.000Z</time>
      </trkpt>
      <trkpt lat="45.19359" lon="6.34353">
        <ele>1683.5999755859</ele>
        <time>2014-01-11T07:35:16.000Z</time>
      </trkpt>
      <trkpt lat="45.19357" lon="6.34352">
        <ele>1683.5999755859</ele>
        <time>2014-01-11T07:35:17.000Z</time>
      </trkpt>
      <trkpt lat="45.19356" lon="6.34352">
        <ele>1683.8000488281</ele>
        <time>2014-01-11T07:35:18.000Z</time>
      </trkpt>
      <trkpt lat="45.19354" lon="6.34352">
        <ele>1683.8000488281</ele>
        <time>2014-01-11T07:35:19.000Z</time>
      </trkpt>
      <trkpt lat="45.19353" lon="6.34352">
        <ele>1683.8000488281</ele>
        <time>2014-01-11T07:35:20.000Z</time>
      </trkpt>
      <trkpt lat="45.19351" lon="6.34352">
        <ele>1683.8000488281</ele>
        <time>2014-01-11T07:35:21.000Z</time>
      </trkpt>
      <trkpt lat="45.1935" lon="6.34351">
        <ele>1684</ele>
        <time>2014-01-11T07:35:22.000Z</time>
      </trkpt>
      <trkpt lat="45.19348" lon="6.34351">
        <ele>1684</ele>
        <time>2014-01-11T07:35:23.000Z</time>
      </trkpt>
      <trkpt lat="45.19347" lon="6.34351">
        <ele>1684</ele>
        <time>2014-01-11T07:35:24.000Z</time>
      </trkpt>
      <trkpt lat="45.19346" lon="6.3435">
        <ele>1684</ele>
        <time>2014-01-11T07:35:25.000Z</time>
      </trkpt>
      <trkpt lat="45.19344" lon="6.34349">
        <ele>1684.1999511719</ele>
        <time>2014-01-11T07:35:26.000Z</time>
      </trkpt>
      <trkpt lat="45.19342" lon="6.34348">
        <ele>1684.1999511719</ele>
        <time>2014-01-11T07:35:27.000Z</time>
      </trkpt>
      <trkpt lat="45.19341" lon="6.34348">
        <ele>1684.1999511719</ele>
        <time>2014-01-11T07:35:28.000Z</time>
      </trkpt>
      <trkpt lat="45.1934" lon="6.34347">
        <ele>1684.1999511719</ele>
        <time>2014-01-11T07:35:29.000Z</time>
      </trkpt>
      <trkpt lat="45.19339" lon="6.34347">
        <ele>1684.4000244141</ele>
        <time>2014-01-11T07:35:30.000Z</time>
      </trkpt>
      <trkpt lat="45.19337" lon="6.34346">
        <ele>1684.4000244141</ele>
        <time>2014-01-11T07:35:31.000Z</time>
      </trkpt>
      <trkpt lat="45.19336" lon="6.34346">
        <ele>1684.4000244141</ele>
        <time>2014-01-11T07:35:32.000Z</time>
      </trkpt>
      <trkpt lat="45.19335" lon="6.34346">
        <ele>1684.5999755859</ele>
        <time>2014-01-11T07:35:33.000Z</time>
      </trkpt>
      <trkpt lat="45.19334" lon="6.34345">
        <ele>1684.5999755859</ele>
        <time>2014-01-11T07:35:34.000Z</time>
      </trkpt>
      <trkpt lat="45.19333" lon="6.34344">
        <ele>1684.8000488281</ele>
        <time>2014-01-11T07:35:35.000Z</time>
      </trkpt>
      <trkpt lat="45.19331" lon="6.34344">
        <ele>1684.8000488281</ele>
        <time>2014-01-11T07:35:36.000Z</time>
      </trkpt>
      <trkpt lat="45.1933" lon="6.34344">
        <ele>1684.8000488281</ele>
        <time>2014-01-11T07:35:37.000Z</time>
      </trkpt>
      <trkpt lat="45.19329" lon="6.34343">
        <ele>1685</ele>
        <time>2014-01-11T07:35:38.000Z</time>
      </trkpt>
      <trkpt lat="45.19328" lon="6.34342">
        <ele>1685</ele>
        <time>2014-01-11T07:35:39.000Z</time>
      </trkpt>
      <trkpt lat="45.19326" lon="6.34342">
        <ele>1685</ele>
        <time>2014-01-11T07:35:40.000Z</time>
      </trkpt>
      <trkpt lat="45.19324" lon="6.34341">
        <ele>1685.1999511719</ele>
        <time>2014-01-11T07:35:41.000Z</time>
      </trkpt>
      <trkpt lat="45.19324" lon="6.3434">
        <ele>1685.1999511719</ele>
        <time>2014-01-11T07:35:42.000Z</time>
      </trkpt>
      <trkpt lat="45.19323" lon="6.3434">
        <ele>1685.1999511719</ele>
        <time>2014-01-11T07:35:43.000Z</time>
      </trkpt>
      <trkpt lat="45.19321" lon="6.3434">
        <ele>1685.1999511719</ele>
        <time>2014-01-11T07:35:44.000Z</time>
      </trkpt>
      <trkpt lat="45.1932" lon="6.34339">
        <ele>1685.1999511719</ele>
        <time>2014-01-11T07:35:45.000Z</time>
      </trkpt>
      <trkpt lat="45.19319" lon="6.34339">
        <ele>1685.4000244141</ele>
        <time>2014-01-11T07:35:46.000Z</time>
      </trkpt>
      <trkpt lat="45.19319" lon="6.34339">
        <ele>1685.4000244141</ele>
        <time>2014-01-11T07:35:47.000Z</time>
      </trkpt>
      <trkpt lat="45.19317" lon="6.34339">
        <ele>1685.5999755859</ele>
        <time>2014-01-11T07:35:48.000Z</time>
      </trkpt>
      <trkpt lat="45.19315" lon="6.34338">
        <ele>1685.5999755859</ele>
        <time>2014-01-11T07:35:49.000Z</time>
      </trkpt>
      <trkpt lat="45.19314" lon="6.34338">
        <ele>1685.5999755859</ele>
        <time>2014-01-11T07:35:50.000Z</time>
      </trkpt>
      <trkpt lat="45.19314" lon="6.34338">
        <ele>1685.8000488281</ele>
        <time>2014-01-11T07:35:51.000Z</time>
      </trkpt>
      <trkpt lat="45.19312" lon="6.34337">
        <ele>1685.8000488281</ele>
        <time>2014-01-11T07:35:52.000Z</time>
      </trkpt>
      <trkpt lat="45.1931" lon="6.34337">
        <ele>1685.8000488281</ele>
        <time>2014-01-11T07:35:53.000Z</time>
      </trkpt>
      <trkpt lat="45.19309" lon="6.34336">
        <ele>1686</ele>
        <time>2014-01-11T07:35:54.000Z</time>
      </trkpt>
      <trkpt lat="45.19308" lon="6.34335">
        <ele>1686</ele>
        <time>2014-01-11T07:35:55.000Z</time>
      </trkpt>
      <trkpt lat="45.19307" lon="6.34335">
        <ele>1686</ele>
        <time>2014-01-11T07:35:56.000Z</time>
      </trkpt>
      <trkpt lat="45.19305" lon="6.34334">
        <ele>1686.1999511719</ele>
        <time>2014-01-11T07:35:57.000Z</time>
      </trkpt>
      <trkpt lat="45.19304" lon="6.34334">
        <ele>1686.1999511719</ele>
        <time>2014-01-11T07:35:58.000Z</time>
      </trkpt>
      <trkpt lat="45.19302" lon="6.34334">
        <ele>1686.4000244141</ele>
        <time>2014-01-11T07:35:59.000Z</time>
      </trkpt>
      <trkpt lat="45.19302" lon="6.34334">
        <ele>1686.4000244141</ele>
        <time>2014-01-11T07:36:00.000Z</time>
      </trkpt>
      <trkpt lat="45.19301" lon="6.34334">
        <ele>1686.5999755859</ele>
        <time>2014-01-11T07:36:01.000Z</time>
      </trkpt>
      <trkpt lat="45.19299" lon="6.34334">
        <ele>1686.5999755859</ele>
        <time>2014-01-11T07:36:02.000Z</time>
      </trkpt>
      <trkpt lat="45.19298" lon="6.34334">
        <ele>1686.5999755859</ele>
        <time>2014-01-11T07:36:03.000Z</time>
      </trkpt>
      <trkpt lat="45.19296" lon="6.34333">
        <ele>1686.8000488281</ele>
        <time>2014-01-11T07:36:04.000Z</time>
      </trkpt>
      <trkpt lat="45.19295" lon="6.34333">
        <ele>1686.8000488281</ele>
        <time>2014-01-11T07:36:05.000Z</time>
      </trkpt>
      <trkpt lat="45.19294" lon="6.34333">
        <ele>1686.8000488281</ele>
        <time>2014-01-11T07:36:06.000Z</time>
      </trkpt>
      <trkpt lat="45.19292" lon="6.34333">
        <ele>1687</ele>
        <time>2014-01-11T07:36:07.000Z</time>
      </trkpt>
      <trkpt lat="45.19291" lon="6.34332">
        <ele>1687</ele>
        <time>2014-01-11T07:36:08.000Z</time>
      </trkpt>
      <trkpt lat="45.1929" lon="6.34332">
        <ele>1687.1999511719</ele>
        <time>2014-01-11T07:36:09.000Z</time>
      </trkpt>
      <trkpt lat="45.19289" lon="6.34332">
        <ele>1687.1999511719</ele>
        <time>2014-01-11T07:36:10.000Z</time>
      </trkpt>
      <trkpt lat="45.19287" lon="6.34331">
        <ele>1687.1999511719</ele>
        <time>2014-01-11T07:36:11.000Z</time>
      </trkpt>
      <trkpt lat="45.19286" lon="6.34331">
        <ele>1687.4000244141</ele>
        <time>2014-01-11T07:36:12.000Z</time>
      </trkpt>
      <trkpt lat="45.19285" lon="6.34331">
        <ele>1687.4000244141</ele>
        <time>2014-01-11T07:36:13.000Z</time>
      </trkpt>
      <trkpt lat="45.19284" lon="6.3433">
        <ele>1687.5999755859</ele>
        <time>2014-01-11T07:36:14.000Z</time>
      </trkpt>
      <trkpt lat="45.19282" lon="6.3433">
        <ele>1687.5999755859</ele>
        <time>2014-01-11T07:36:15.000Z</time>
      </trkpt>
      <trkpt lat="45.19281" lon="6.3433">
        <ele>1687.8000488281</ele>
        <time>2014-01-11T07:36:16.000Z</time>
      </trkpt>
      <trkpt lat="45.19281" lon="6.3433">
        <ele>1687.8000488281</ele>
        <time>2014-01-11T07:36:17.000Z</time>
      </trkpt>
      <trkpt lat="45.19279" lon="6.34329">
        <ele>1688</ele>
        <time>2014-01-11T07:36:18.000Z</time>
      </trkpt>
      <trkpt lat="45.19277" lon="6.34329">
        <ele>1688</ele>
        <time>2014-01-11T07:36:19.000Z</time>
      </trkpt>
      <trkpt lat="45.19276" lon="6.34328">
        <ele>1688</ele>
        <time>2014-01-11T07:36:20.000Z</time>
      </trkpt>
      <trkpt lat="45.19276" lon="6.34328">
        <ele>1688.1999511719</ele>
        <time>2014-01-11T07:36:21.000Z</time>
      </trkpt>
      <trkpt lat="45.19274" lon="6.34327">
        <ele>1688.4000244141</ele>
        <time>2014-01-11T07:36:22.000Z</time>
      </trkpt>
      <trkpt lat="45.19272" lon="6.34327">
        <ele>1688.4000244141</ele>
        <time>2014-01-11T07:36:23.000Z</time>
      </trkpt>
      <trkpt lat="45.19271" lon="6.34327">
        <ele>1688.4000244141</ele>
        <time>2014-01-11T07:36:24.000Z</time>
      </trkpt>
      <trkpt lat="45.19271" lon="6.34326">
        <ele>1688.5999755859</ele>
        <time>2014-01-11T07:36:25.000Z</time>
      </trkpt>
      <trkpt lat="45.1927" lon="6.34326">
        <ele>1688.5999755859</ele>
        <time>2014-01-11T07:36:26.000Z</time>
      </trkpt>
      <trkpt lat="45.19268" lon="6.34326">
        <ele>1688.5999755859</ele>
        <time>2014-01-11T07:36:27.000Z</time>
      </trkpt>
      <trkpt lat="45.19267" lon="6.34326">
        <ele>1688.5999755859</ele>
        <time>2014-01-11T07:36:28.000Z</time>
      </trkpt>
      <trkpt lat="45.19265" lon="6.34325">
        <ele>1688.8000488281</ele>
        <time>2014-01-11T07:36:29.000Z</time>
      </trkpt>
      <trkpt lat="45.19264" lon="6.34325">
        <ele>1689</ele>
        <time>2014-01-11T07:36:30.000Z</time>
      </trkpt>
      <trkpt lat="45.19263" lon="6.34324">
        <ele>1689.1999511719</ele>
        <time>2014-01-11T07:36:31.000Z</time>
      </trkpt>
      <trkpt lat="45.19261" lon="6.34324">
        <ele>1689.1999511719</ele>
        <time>2014-01-11T07:36:32.000Z</time>
      </trkpt>
      <trkpt lat="45.1926" lon="6.34324">
        <ele>1689.4000244141</ele>
        <time>2014-01-11T07:36:33.000Z</time>
      </trkpt>
      <trkpt lat="45.19259" lon="6.34323">
        <ele>1689.4000244141</ele>
        <time>2014-01-11T07:36:34.000Z</time>
      </trkpt>
      <trkpt lat="45.19258" lon="6.34323">
        <ele>1689.5999755859</ele>
        <time>2014-01-11T07:36:35.000Z</time>
      </trkpt>
      <trkpt lat="45.19256" lon="6.34323">
        <ele>1689.5999755859</ele>
        <time>2014-01-11T07:36:36.000Z</time>
      </trkpt>
      <trkpt lat="45.19255" lon="6.34322">
        <ele>1689.5999755859</ele>
        <time>2014-01-11T07:36:37.000Z</time>
      </trkpt>
      <trkpt lat="45.19254" lon="6.34322">
        <ele>1689.5999755859</ele>
        <time>2014-01-11T07:36:38.000Z</time>
      </trkpt>
      <trkpt lat="45.19253" lon="6.34322">
        <ele>1689.5999755859</ele>
        <time>2014-01-11T07:36:39.000Z</time>
      </trkpt>
      <trkpt lat="45.19251" lon="6.34322">
        <ele>1689.8000488281</ele>
        <time>2014-01-11T07:36:40.000Z</time>
      </trkpt>
      <trkpt lat="45.1925" lon="6.34321">
        <ele>1689.8000488281</ele>
        <time>2014-01-11T07:36:41.000Z</time>
      </trkpt>
      <trkpt lat="45.19249" lon="6.34321">
        <ele>1690</ele>
        <time>2014-01-11T07:36:42.000Z</time>
      </trkpt>
      <trkpt lat="45.19248" lon="6.34321">
        <ele>1690</ele>
        <time>2014-01-11T07:36:43.000Z</time>
      </trkpt>
      <trkpt lat="45.19246" lon="6.3432">
        <ele>1690.1999511719</ele>
        <time>2014-01-11T07:36:44.000Z</time>
      </trkpt>
      <trkpt lat="45.19245" lon="6.34319">
        <ele>1690.4000244141</ele>
        <time>2014-01-11T07:36:45.000Z</time>
      </trkpt>
      <trkpt lat="45.19244" lon="6.34319">
        <ele>1690.4000244141</ele>
        <time>2014-01-11T07:36:46.000Z</time>
      </trkpt>
      <trkpt lat="45.19242" lon="6.34319">
        <ele>1690.4000244141</ele>
        <time>2014-01-11T07:36:47.000Z</time>
      </trkpt>
      <trkpt lat="45.19241" lon="6.34318">
        <ele>1690.5999755859</ele>
        <time>2014-01-11T07:36:48.000Z</time>
      </trkpt>
      <trkpt lat="45.1924" lon="6.34317">
        <ele>1690.5999755859</ele>
        <time>2014-01-11T07:36:49.000Z</time>
      </trkpt>
      <trkpt lat="45.19238" lon="6.34317">
        <ele>1690.5999755859</ele>
        <time>2014-01-11T07:36:50.000Z</time>
      </trkpt>
      <trkpt lat="45.19237" lon="6.34317">
        <ele>1690.8000488281</ele>
        <time>2014-01-11T07:36:51.000Z</time>
      </trkpt>
      <trkpt lat="45.19236" lon="6.34317">
        <ele>1690.8000488281</ele>
        <time>2014-01-11T07:36:52.000Z</time>
      </trkpt>
      <trkpt lat="45.19235" lon="6.34316">
        <ele>1690.8000488281</ele>
        <time>2014-01-11T07:36:53.000Z</time>
      </trkpt>
      <trkpt lat="45.19234" lon="6.34316">
        <ele>1691</ele>
        <time>2014-01-11T07:36:54.000Z</time>
      </trkpt>
      <trkpt lat="45.19232" lon="6.34316">
        <ele>1691</ele>
        <time>2014-01-11T07:36:55.000Z</time>
      </trkpt>
      <trkpt lat="45.19231" lon="6.34316">
        <ele>1691</ele>
        <time>2014-01-11T07:36:56.000Z</time>
      </trkpt>
      <trkpt lat="45.19231" lon="6.34316">
        <ele>1691.1999511719</ele>
        <time>2014-01-11T07:36:57.000Z</time>
      </trkpt>
      <trkpt lat="45.19229" lon="6.34315">
        <ele>1691.1999511719</ele>
        <time>2014-01-11T07:36:58.000Z</time>
      </trkpt>
      <trkpt lat="45.19228" lon="6.34315">
        <ele>1691.4000244141</ele>
        <time>2014-01-11T07:36:59.000Z</time>
      </trkpt>
      <trkpt lat="45.19227" lon="6.34314">
        <ele>1691.4000244141</ele>
        <time>2014-01-11T07:37:00.000Z</time>
      </trkpt>
      <trkpt lat="45.19226" lon="6.34314">
        <ele>1691.5999755859</ele>
        <time>2014-01-11T07:37:01.000Z</time>
      </trkpt>
      <trkpt lat="45.19224" lon="6.34313">
        <ele>1691.5999755859</ele>
        <time>2014-01-11T07:37:02.000Z</time>
      </trkpt>
      <trkpt lat="45.19223" lon="6.34313">
        <ele>1691.8000488281</ele>
        <time>2014-01-11T07:37:03.000Z</time>
      </trkpt>
      <trkpt lat="45.19222" lon="6.34313">
        <ele>1691.8000488281</ele>
        <time>2014-01-11T07:37:04.000Z</time>
      </trkpt>
      <trkpt lat="45.19221" lon="6.34312">
        <ele>1691.8000488281</ele>
        <time>2014-01-11T07:37:05.000Z</time>
      </trkpt>
      <trkpt lat="45.1922" lon="6.34312">
        <ele>1692</ele>
        <time>2014-01-11T07:37:06.000Z</time>
      </trkpt>
      <trkpt lat="45.19218" lon="6.34312">
        <ele>1692</ele>
        <time>2014-01-11T07:37:07.000Z</time>
      </trkpt>
      <trkpt lat="45.19217" lon="6.34311">
        <ele>1692</ele>
        <time>2014-01-11T07:37:08.000Z</time>
      </trkpt>
      <trkpt lat="45.19216" lon="6.34311">
        <ele>1692.1999511719</ele>
        <time>2014-01-11T07:37:09.000Z</time>
      </trkpt>
      <trkpt lat="45.19215" lon="6.3431">
        <ele>1692.1999511719</ele>
        <time>2014-01-11T07:37:10.000Z</time>
      </trkpt>
      <trkpt lat="45.19213" lon="6.34309">
        <ele>1692.1999511719</ele>
        <time>2014-01-11T07:37:11.000Z</time>
      </trkpt>
      <trkpt lat="45.19212" lon="6.34309">
        <ele>1692.1999511719</ele>
        <time>2014-01-11T07:37:12.000Z</time>
      </trkpt>
      <trkpt lat="45.19211" lon="6.34309">
        <ele>1692.4000244141</ele>
        <time>2014-01-11T07:37:13.000Z</time>
      </trkpt>
      <trkpt lat="45.19209" lon="6.34308">
        <ele>1692.4000244141</ele>
        <time>2014-01-11T07:37:14.000Z</time>
      </trkpt>
      <trkpt lat="45.19208" lon="6.34308">
        <ele>1692.5999755859</ele>
        <time>2014-01-11T07:37:15.000Z</time>
      </trkpt>
      <trkpt lat="45.19208" lon="6.34307">
        <ele>1692.5999755859</ele>
        <time>2014-01-11T07:37:16.000Z</time>
      </trkpt>
      <trkpt lat="45.19206" lon="6.34307">
        <ele>1692.8000488281</ele>
        <time>2014-01-11T07:37:17.000Z</time>
      </trkpt>
      <trkpt lat="45.19205" lon="6.34306">
        <ele>1692.8000488281</ele>
        <time>2014-01-11T07:37:18.000Z</time>
      </trkpt>
      <trkpt lat="45.19204" lon="6.34306">
        <ele>1692.8000488281</ele>
        <time>2014-01-11T07:37:19.000Z</time>
      </trkpt>
      <trkpt lat="45.19203" lon="6.34306">
        <ele>1693</ele>
        <time>2014-01-11T07:37:20.000Z</time>
      </trkpt>
      <trkpt lat="45.19202" lon="6.34305">
        <ele>1693</ele>
        <time>2014-01-11T07:37:21.000Z</time>
      </trkpt>
      <trkpt lat="45.192" lon="6.34305">
        <ele>1693.1999511719</ele>
        <time>2014-01-11T07:37:22.000Z</time>
      </trkpt>
      <trkpt lat="45.19199" lon="6.34304">
        <ele>1693.1999511719</ele>
        <time>2014-01-11T07:37:23.000Z</time>
      </trkpt>
      <trkpt lat="45.19198" lon="6.34303">
        <ele>1693.4000244141</ele>
        <time>2014-01-11T07:37:24.000Z</time>
      </trkpt>
      <trkpt lat="45.19197" lon="6.34303">
        <ele>1693.4000244141</ele>
        <time>2014-01-11T07:37:25.000Z</time>
      </trkpt>
      <trkpt lat="45.19195" lon="6.34303">
        <ele>1693.5999755859</ele>
        <time>2014-01-11T07:37:26.000Z</time>
      </trkpt>
      <trkpt lat="45.19194" lon="6.34302">
        <ele>1693.5999755859</ele>
        <time>2014-01-11T07:37:27.000Z</time>
      </trkpt>
      <trkpt lat="45.19193" lon="6.34302">
        <ele>1693.8000488281</ele>
        <time>2014-01-11T07:37:28.000Z</time>
      </trkpt>
      <trkpt lat="45.19192" lon="6.34301">
        <ele>1693.8000488281</ele>
        <time>2014-01-11T07:37:29.000Z</time>
      </trkpt>
      <trkpt lat="45.1919" lon="6.34301">
        <ele>1694</ele>
        <time>2014-01-11T07:37:30.000Z</time>
      </trkpt>
      <trkpt lat="45.19188" lon="6.34301">
        <ele>1694</ele>
        <time>2014-01-11T07:37:31.000Z</time>
      </trkpt>
      <trkpt lat="45.19187" lon="6.343">
        <ele>1694</ele>
        <time>2014-01-11T07:37:32.000Z</time>
      </trkpt>
      <trkpt lat="45.19186" lon="6.34299">
        <ele>1694.1999511719</ele>
        <time>2014-01-11T07:37:33.000Z</time>
      </trkpt>
      <trkpt lat="45.19185" lon="6.34298">
        <ele>1694.1999511719</ele>
        <time>2014-01-11T07:37:34.000Z</time>
      </trkpt>
      <trkpt lat="45.19183" lon="6.34298">
        <ele>1694.4000244141</ele>
        <time>2014-01-11T07:37:35.000Z</time>
      </trkpt>
      <trkpt lat="45.19182" lon="6.34297">
        <ele>1694.4000244141</ele>
        <time>2014-01-11T07:37:36.000Z</time>
      </trkpt>
      <trkpt lat="45.19181" lon="6.34296">
        <ele>1694.5999755859</ele>
        <time>2014-01-11T07:37:37.000Z</time>
      </trkpt>
      <trkpt lat="45.1918" lon="6.34296">
        <ele>1694.5999755859</ele>
        <time>2014-01-11T07:37:38.000Z</time>
      </trkpt>
      <trkpt lat="45.19178" lon="6.34295">
        <ele>1694.5999755859</ele>
        <time>2014-01-11T07:37:39.000Z</time>
      </trkpt>
      <trkpt lat="45.19177" lon="6.34295">
        <ele>1694.5999755859</ele>
        <time>2014-01-11T07:37:40.000Z</time>
      </trkpt>
      <trkpt lat="45.19177" lon="6.34295">
        <ele>1694.8000488281</ele>
        <time>2014-01-11T07:37:41.000Z</time>
      </trkpt>
      <trkpt lat="45.19175" lon="6.34295">
        <ele>1694.8000488281</ele>
        <time>2014-01-11T07:37:42.000Z</time>
      </trkpt>
      <trkpt lat="45.19174" lon="6.34294">
        <ele>1694.8000488281</ele>
        <time>2014-01-11T07:37:43.000Z</time>
      </trkpt>
      <trkpt lat="45.19173" lon="6.34293">
        <ele>1694.8000488281</ele>
        <time>2014-01-11T07:37:44.000Z</time>
      </trkpt>
      <trkpt lat="45.19172" lon="6.34293">
        <ele>1695</ele>
        <time>2014-01-11T07:37:45.000Z</time>
      </trkpt>
      <trkpt lat="45.19171" lon="6.34292">
        <ele>1695</ele>
        <time>2014-01-11T07:37:46.000Z</time>
      </trkpt>
      <trkpt lat="45.1917" lon="6.34291">
        <ele>1695</ele>
        <time>2014-01-11T07:37:47.000Z</time>
      </trkpt>
      <trkpt lat="45.19168" lon="6.34291">
        <ele>1695.1999511719</ele>
        <time>2014-01-11T07:37:48.000Z</time>
      </trkpt>
      <trkpt lat="45.19167" lon="6.3429">
        <ele>1695.1999511719</ele>
        <time>2014-01-11T07:37:49.000Z</time>
      </trkpt>
      <trkpt lat="45.19166" lon="6.3429">
        <ele>1695.1999511719</ele>
        <time>2014-01-11T07:37:50.000Z</time>
      </trkpt>
      <trkpt lat="45.19165" lon="6.3429">
        <ele>1695.1999511719</ele>
        <time>2014-01-11T07:37:51.000Z</time>
      </trkpt>
      <trkpt lat="45.19163" lon="6.34289">
        <ele>1695.4000244141</ele>
        <time>2014-01-11T07:37:52.000Z</time>
      </trkpt>
      <trkpt lat="45.19163" lon="6.34289">
        <ele>1695.4000244141</ele>
        <time>2014-01-11T07:37:53.000Z</time>
      </trkpt>
      <trkpt lat="45.19162" lon="6.34289">
        <ele>1695.5999755859</ele>
        <time>2014-01-11T07:37:54.000Z</time>
      </trkpt>
      <trkpt lat="45.1916" lon="6.34288">
        <ele>1695.5999755859</ele>
        <time>2014-01-11T07:37:55.000Z</time>
      </trkpt>
      <trkpt lat="45.19159" lon="6.34288">
        <ele>1695.5999755859</ele>
        <time>2014-01-11T07:37:56.000Z</time>
      </trkpt>
      <trkpt lat="45.19158" lon="6.34288">
        <ele>1695.5999755859</ele>
        <time>2014-01-11T07:37:57.000Z</time>
      </trkpt>
      <trkpt lat="45.19157" lon="6.34288">
        <ele>1695.8000488281</ele>
        <time>2014-01-11T07:37:58.000Z</time>
      </trkpt>
      <trkpt lat="45.19155" lon="6.34287">
        <ele>1695.8000488281</ele>
        <time>2014-01-11T07:37:59.000Z</time>
      </trkpt>
      <trkpt lat="45.19155" lon="6.34287">
        <ele>1695.8000488281</ele>
        <time>2014-01-11T07:38:00.000Z</time>
      </trkpt>
      <trkpt lat="45.19153" lon="6.34288">
        <ele>1695.8000488281</ele>
        <time>2014-01-11T07:38:01.000Z</time>
      </trkpt>
      <trkpt lat="45.19152" lon="6.34289">
        <ele>1695.8000488281</ele>
        <time>2014-01-11T07:38:02.000Z</time>
      </trkpt>
      <trkpt lat="45.19151" lon="6.3429">
        <ele>1695.8000488281</ele>
        <time>2014-01-11T07:38:03.000Z</time>
      </trkpt>
      <trkpt lat="45.1915" lon="6.34291">
        <ele>1695.8000488281</ele>
        <time>2014-01-11T07:38:04.000Z</time>
      </trkpt>
      <trkpt lat="45.19149" lon="6.34293">
        <ele>1695.8000488281</ele>
        <time>2014-01-11T07:38:05.000Z</time>
      </trkpt>
      <trkpt lat="45.19148" lon="6.34294">
        <ele>1695.8000488281</ele>
        <time>2014-01-11T07:38:06.000Z</time>
      </trkpt>
      <trkpt lat="45.19147" lon="6.34296">
        <ele>1695.8000488281</ele>
        <time>2014-01-11T07:38:07.000Z</time>
      </trkpt>
      <trkpt lat="45.19146" lon="6.34296">
        <ele>1696</ele>
        <time>2014-01-11T07:38:08.000Z</time>
      </trkpt>
      <trkpt lat="45.19144" lon="6.34297">
        <ele>1696</ele>
        <time>2014-01-11T07:38:11.000Z</time>
      </trkpt>
      <trkpt lat="45.19143" lon="6.34298">
        <ele>1696</ele>
        <time>2014-01-11T07:38:12.000Z</time>
      </trkpt>
      <trkpt lat="45.19143" lon="6.34298">
        <ele>1696</ele>
        <time>2014-01-11T07:38:13.000Z</time>
      </trkpt>
      <trkpt lat="45.19142" lon="6.34299">
        <ele>1696</ele>
        <time>2014-01-11T07:38:14.000Z</time>
      </trkpt>
      <trkpt lat="45.19141" lon="6.34301">
        <ele>1696</ele>
        <time>2014-01-11T07:38:15.000Z</time>
      </trkpt>
      <trkpt lat="45.19141" lon="6.34301">
        <ele>1696</ele>
        <time>2014-01-11T07:38:16.000Z</time>
      </trkpt>
      <trkpt lat="45.1914" lon="6.34302">
        <ele>1696</ele>
        <time>2014-01-11T07:38:17.000Z</time>
      </trkpt>
      <trkpt lat="45.1914" lon="6.34304">
        <ele>1696</ele>
        <time>2014-01-11T07:38:18.000Z</time>
      </trkpt>
      <trkpt lat="45.19139" lon="6.34306">
        <ele>1696.1999511719</ele>
        <time>2014-01-11T07:38:19.000Z</time>
      </trkpt>
      <trkpt lat="45.19139" lon="6.34307">
        <ele>1696.1999511719</ele>
        <time>2014-01-11T07:38:20.000Z</time>
      </trkpt>
      <trkpt lat="45.19138" lon="6.34308">
        <ele>1696.1999511719</ele>
        <time>2014-01-11T07:38:21.000Z</time>
      </trkpt>
      <trkpt lat="45.19137" lon="6.34311">
        <ele>1696.1999511719</ele>
        <time>2014-01-11T07:38:22.000Z</time>
      </trkpt>
      <trkpt lat="45.19136" lon="6.34312">
        <ele>1696.1999511719</ele>
        <time>2014-01-11T07:38:23.000Z</time>
      </trkpt>
      <trkpt lat="45.19136" lon="6.34313">
        <ele>1696.1999511719</ele>
        <time>2014-01-11T07:38:24.000Z</time>
      </trkpt>
      <trkpt lat="45.19135" lon="6.34315">
        <ele>1696.1999511719</ele>
        <time>2014-01-11T07:38:25.000Z</time>
      </trkpt>
      <trkpt lat="45.19134" lon="6.34317">
        <ele>1696.4000244141</ele>
        <time>2014-01-11T07:38:26.000Z</time>
      </trkpt>
      <trkpt lat="45.19134" lon="6.34318">
        <ele>1696.4000244141</ele>
        <time>2014-01-11T07:38:27.000Z</time>
      </trkpt>
      <trkpt lat="45.19134" lon="6.34319">
        <ele>1696.4000244141</ele>
        <time>2014-01-11T07:38:28.000Z</time>
      </trkpt>
      <trkpt lat="45.19133" lon="6.3432">
        <ele>1696.4000244141</ele>
        <time>2014-01-11T07:38:29.000Z</time>
      </trkpt>
      <trkpt lat="45.19132" lon="6.34322">
        <ele>1696.4000244141</ele>
        <time>2014-01-11T07:38:30.000Z</time>
      </trkpt>
      <trkpt lat="45.19132" lon="6.34323">
        <ele>1696.5999755859</ele>
        <time>2014-01-11T07:38:31.000Z</time>
      </trkpt>
      <trkpt lat="45.19132" lon="6.34324">
        <ele>1696.5999755859</ele>
        <time>2014-01-11T07:38:32.000Z</time>
      </trkpt>
      <trkpt lat="45.19131" lon="6.34326">
        <ele>1696.5999755859</ele>
        <time>2014-01-11T07:38:33.000Z</time>
      </trkpt>
      <trkpt lat="45.1913" lon="6.34328">
        <ele>1696.5999755859</ele>
        <time>2014-01-11T07:38:34.000Z</time>
      </trkpt>
      <trkpt lat="45.1913" lon="6.34329">
        <ele>1696.5999755859</ele>
        <time>2014-01-11T07:38:35.000Z</time>
      </trkpt>
      <trkpt lat="45.1913" lon="6.34331">
        <ele>1696.5999755859</ele>
        <time>2014-01-11T07:38:36.000Z</time>
      </trkpt>
      <trkpt lat="45.19129" lon="6.34334">
        <ele>1696.8000488281</ele>
        <time>2014-01-11T07:38:37.000Z</time>
      </trkpt>
      <trkpt lat="45.19129" lon="6.34335">
        <ele>1696.8000488281</ele>
        <time>2014-01-11T07:38:38.000Z</time>
      </trkpt>
      <trkpt lat="45.19128" lon="6.34336">
        <ele>1697</ele>
        <time>2014-01-11T07:38:39.000Z</time>
      </trkpt>
      <trkpt lat="45.19128" lon="6.34338">
        <ele>1697</ele>
        <time>2014-01-11T07:38:40.000Z</time>
      </trkpt>
      <trkpt lat="45.19127" lon="6.3434">
        <ele>1697.1999511719</ele>
        <time>2014-01-11T07:38:41.000Z</time>
      </trkpt>
      <trkpt lat="45.19127" lon="6.34341">
        <ele>1697.1999511719</ele>
        <time>2014-01-11T07:38:42.000Z</time>
      </trkpt>
      <trkpt lat="45.19126" lon="6.34342">
        <ele>1697.1999511719</ele>
        <time>2014-01-11T07:38:43.000Z</time>
      </trkpt>
      <trkpt lat="45.19126" lon="6.34344">
        <ele>1697.1999511719</ele>
        <time>2014-01-11T07:38:44.000Z</time>
      </trkpt>
      <trkpt lat="45.19126" lon="6.34346">
        <ele>1697.1999511719</ele>
        <time>2014-01-11T07:38:45.000Z</time>
      </trkpt>
      <trkpt lat="45.19125" lon="6.34347">
        <ele>1697.4000244141</ele>
        <time>2014-01-11T07:38:46.000Z</time>
      </trkpt>
      <trkpt lat="45.19125" lon="6.34348">
        <ele>1697.4000244141</ele>
        <time>2014-01-11T07:38:47.000Z</time>
      </trkpt>
      <trkpt lat="45.19124" lon="6.34351">
        <ele>1697.5999755859</ele>
        <time>2014-01-11T07:38:48.000Z</time>
      </trkpt>
      <trkpt lat="45.19123" lon="6.34354">
        <ele>1697.5999755859</ele>
        <time>2014-01-11T07:38:49.000Z</time>
      </trkpt>
      <trkpt lat="45.19123" lon="6.34355">
        <ele>1697.5999755859</ele>
        <time>2014-01-11T07:38:50.000Z</time>
      </trkpt>
      <trkpt lat="45.19122" lon="6.34356">
        <ele>1697.8000488281</ele>
        <time>2014-01-11T07:38:51.000Z</time>
      </trkpt>
      <trkpt lat="45.19122" lon="6.34359">
        <ele>1697.8000488281</ele>
        <time>2014-01-11T07:38:52.000Z</time>
      </trkpt>
      <trkpt lat="45.19122" lon="6.3436">
        <ele>1697.8000488281</ele>
        <time>2014-01-11T07:38:53.000Z</time>
      </trkpt>
      <trkpt lat="45.19121" lon="6.34361">
        <ele>1697.8000488281</ele>
        <time>2014-01-11T07:38:54.000Z</time>
      </trkpt>
      <trkpt lat="45.1912" lon="6.34362">
        <ele>1697.8000488281</ele>
        <time>2014-01-11T07:38:55.000Z</time>
      </trkpt>
      <trkpt lat="45.1912" lon="6.34364">
        <ele>1698</ele>
        <time>2014-01-11T07:38:56.000Z</time>
      </trkpt>
      <trkpt lat="45.19119" lon="6.34365">
        <ele>1698</ele>
        <time>2014-01-11T07:38:57.000Z</time>
      </trkpt>
      <trkpt lat="45.19118" lon="6.34367">
        <ele>1698</ele>
        <time>2014-01-11T07:38:58.000Z</time>
      </trkpt>
      <trkpt lat="45.19117" lon="6.34369">
        <ele>1698</ele>
        <time>2014-01-11T07:38:59.000Z</time>
      </trkpt>
      <trkpt lat="45.19117" lon="6.3437">
        <ele>1698.1999511719</ele>
        <time>2014-01-11T07:39:00.000Z</time>
      </trkpt>
      <trkpt lat="45.19117" lon="6.3437">
        <ele>1698.1999511719</ele>
        <time>2014-01-11T07:39:01.000Z</time>
      </trkpt>
      <trkpt lat="45.19116" lon="6.34372">
        <ele>1698.1999511719</ele>
        <time>2014-01-11T07:39:02.000Z</time>
      </trkpt>
      <trkpt lat="45.19115" lon="6.34374">
        <ele>1698.4000244141</ele>
        <time>2014-01-11T07:39:03.000Z</time>
      </trkpt>
      <trkpt lat="45.19114" lon="6.34375">
        <ele>1698.4000244141</ele>
        <time>2014-01-11T07:39:04.000Z</time>
      </trkpt>
      <trkpt lat="45.19114" lon="6.34375">
        <ele>1698.4000244141</ele>
        <time>2014-01-11T07:39:05.000Z</time>
      </trkpt>
      <trkpt lat="45.19113" lon="6.34377">
        <ele>1698.5999755859</ele>
        <time>2014-01-11T07:39:06.000Z</time>
      </trkpt>
      <trkpt lat="45.19113" lon="6.34378">
        <ele>1698.5999755859</ele>
        <time>2014-01-11T07:39:07.000Z</time>
      </trkpt>
      <trkpt lat="45.19112" lon="6.3438">
        <ele>1698.5999755859</ele>
        <time>2014-01-11T07:39:08.000Z</time>
      </trkpt>
      <trkpt lat="45.19112" lon="6.34381">
        <ele>1698.8000488281</ele>
        <time>2014-01-11T07:39:09.000Z</time>
      </trkpt>
      <trkpt lat="45.19112" lon="6.34383">
        <ele>1698.8000488281</ele>
        <time>2014-01-11T07:39:10.000Z</time>
      </trkpt>
      <trkpt lat="45.19111" lon="6.34385">
        <ele>1699</ele>
        <time>2014-01-11T07:39:11.000Z</time>
      </trkpt>
      <trkpt lat="45.19111" lon="6.34384">
        <ele>1699</ele>
        <time>2014-01-11T07:39:12.000Z</time>
      </trkpt>
      <trkpt lat="45.19111" lon="6.34387">
        <ele>1699</ele>
        <time>2014-01-11T07:39:13.000Z</time>
      </trkpt>
      <trkpt lat="45.1911" lon="6.34389">
        <ele>1699.1999511719</ele>
        <time>2014-01-11T07:39:14.000Z</time>
      </trkpt>
      <trkpt lat="45.19109" lon="6.3439">
        <ele>1699.1999511719</ele>
        <time>2014-01-11T07:39:15.000Z</time>
      </trkpt>
      <trkpt lat="45.19109" lon="6.34391">
        <ele>1699.1999511719</ele>
        <time>2014-01-11T07:39:16.000Z</time>
      </trkpt>
      <trkpt lat="45.19108" lon="6.34393">
        <ele>1699.4000244141</ele>
        <time>2014-01-11T07:39:17.000Z</time>
      </trkpt>
      <trkpt lat="45.19107" lon="6.34395">
        <ele>1699.5999755859</ele>
        <time>2014-01-11T07:39:18.000Z</time>
      </trkpt>
      <trkpt lat="45.19107" lon="6.34396">
        <ele>1699.5999755859</ele>
        <time>2014-01-11T07:39:19.000Z</time>
      </trkpt>
      <trkpt lat="45.19106" lon="6.34397">
        <ele>1699.5999755859</ele>
        <time>2014-01-11T07:39:20.000Z</time>
      </trkpt>
      <trkpt lat="45.19106" lon="6.34399">
        <ele>1699.5999755859</ele>
        <time>2014-01-11T07:39:21.000Z</time>
      </trkpt>
      <trkpt lat="45.19105" lon="6.34401">
        <ele>1699.8000488281</ele>
        <time>2014-01-11T07:39:22.000Z</time>
      </trkpt>
      <trkpt lat="45.19104" lon="6.34402">
        <ele>1699.8000488281</ele>
        <time>2014-01-11T07:39:23.000Z</time>
      </trkpt>
      <trkpt lat="45.19104" lon="6.34402">
        <ele>1700</ele>
        <time>2014-01-11T07:39:24.000Z</time>
      </trkpt>
      <trkpt lat="45.19103" lon="6.34405">
        <ele>1700</ele>
        <time>2014-01-11T07:39:25.000Z</time>
      </trkpt>
      <trkpt lat="45.19102" lon="6.34407">
        <ele>1700.1999511719</ele>
        <time>2014-01-11T07:39:26.000Z</time>
      </trkpt>
      <trkpt lat="45.19102" lon="6.34408">
        <ele>1700.1999511719</ele>
        <time>2014-01-11T07:39:27.000Z</time>
      </trkpt>
      <trkpt lat="45.19101" lon="6.3441">
        <ele>1700.4000244141</ele>
        <time>2014-01-11T07:39:28.000Z</time>
      </trkpt>
      <trkpt lat="45.191" lon="6.34412">
        <ele>1700.4000244141</ele>
        <time>2014-01-11T07:39:29.000Z</time>
      </trkpt>
      <trkpt lat="45.191" lon="6.34412">
        <ele>1700.4000244141</ele>
        <time>2014-01-11T07:39:30.000Z</time>
      </trkpt>
      <trkpt lat="45.19099" lon="6.34413">
        <ele>1700.5999755859</ele>
        <time>2014-01-11T07:39:31.000Z</time>
      </trkpt>
      <trkpt lat="45.19099" lon="6.34415">
        <ele>1700.5999755859</ele>
        <time>2014-01-11T07:39:32.000Z</time>
      </trkpt>
      <trkpt lat="45.19098" lon="6.34417">
        <ele>1700.8000488281</ele>
        <time>2014-01-11T07:39:33.000Z</time>
      </trkpt>
      <trkpt lat="45.19098" lon="6.34418">
        <ele>1700.8000488281</ele>
        <time>2014-01-11T07:39:34.000Z</time>
      </trkpt>
      <trkpt lat="45.19097" lon="6.34419">
        <ele>1701</ele>
        <time>2014-01-11T07:39:35.000Z</time>
      </trkpt>
      <trkpt lat="45.19097" lon="6.3442">
        <ele>1701</ele>
        <time>2014-01-11T07:39:36.000Z</time>
      </trkpt>
      <trkpt lat="45.19097" lon="6.3442">
        <ele>1701.1999511719</ele>
        <time>2014-01-11T07:39:37.000Z</time>
      </trkpt>
      <trkpt lat="45.19096" lon="6.34423">
        <ele>1701.4000244141</ele>
        <time>2014-01-11T07:39:38.000Z</time>
      </trkpt>
      <trkpt lat="45.19096" lon="6.34425">
        <ele>1701.4000244141</ele>
        <time>2014-01-11T07:39:39.000Z</time>
      </trkpt>
      <trkpt lat="45.19095" lon="6.34426">
        <ele>1701.4000244141</ele>
        <time>2014-01-11T07:39:40.000Z</time>
      </trkpt>
      <trkpt lat="45.19095" lon="6.34426">
        <ele>1701.4000244141</ele>
        <time>2014-01-11T07:39:41.000Z</time>
      </trkpt>
      <trkpt lat="45.19094" lon="6.34429">
        <ele>1701.5999755859</ele>
        <time>2014-01-11T07:39:42.000Z</time>
      </trkpt>
      <trkpt lat="45.19094" lon="6.3443">
        <ele>1701.5999755859</ele>
        <time>2014-01-11T07:39:43.000Z</time>
      </trkpt>
      <trkpt lat="45.19094" lon="6.3443">
        <ele>1701.5999755859</ele>
        <time>2014-01-11T07:39:44.000Z</time>
      </trkpt>
      <trkpt lat="45.19093" lon="6.34432">
        <ele>1701.8000488281</ele>
        <time>2014-01-11T07:39:45.000Z</time>
      </trkpt>
      <trkpt lat="45.19092" lon="6.34434">
        <ele>1701.8000488281</ele>
        <time>2014-01-11T07:39:46.000Z</time>
      </trkpt>
      <trkpt lat="45.19092" lon="6.34435">
        <ele>1702</ele>
        <time>2014-01-11T07:39:47.000Z</time>
      </trkpt>
      <trkpt lat="45.19092" lon="6.34435">
        <ele>1702</ele>
        <time>2014-01-11T07:39:48.000Z</time>
      </trkpt>
      <trkpt lat="45.19091" lon="6.34437">
        <ele>1702</ele>
        <time>2014-01-11T07:39:49.000Z</time>
      </trkpt>
      <trkpt lat="45.1909" lon="6.34439">
        <ele>1702</ele>
        <time>2014-01-11T07:39:50.000Z</time>
      </trkpt>
      <trkpt lat="45.1909" lon="6.34439">
        <ele>1702.1999511719</ele>
        <time>2014-01-11T07:39:51.000Z</time>
      </trkpt>
      <trkpt lat="45.19089" lon="6.34441">
        <ele>1702.1999511719</ele>
        <time>2014-01-11T07:39:52.000Z</time>
      </trkpt>
      <trkpt lat="45.19089" lon="6.34443">
        <ele>1702.1999511719</ele>
        <time>2014-01-11T07:39:53.000Z</time>
      </trkpt>
      <trkpt lat="45.19088" lon="6.34444">
        <ele>1702.4000244141</ele>
        <time>2014-01-11T07:39:54.000Z</time>
      </trkpt>
      <trkpt lat="45.19088" lon="6.34445">
        <ele>1702.4000244141</ele>
        <time>2014-01-11T07:39:55.000Z</time>
      </trkpt>
      <trkpt lat="45.19087" lon="6.34447">
        <ele>1702.5999755859</ele>
        <time>2014-01-11T07:39:56.000Z</time>
      </trkpt>
      <trkpt lat="45.19087" lon="6.34449">
        <ele>1702.8000488281</ele>
        <time>2014-01-11T07:39:57.000Z</time>
      </trkpt>
      <trkpt lat="45.19087" lon="6.34449">
        <ele>1702.8000488281</ele>
        <time>2014-01-11T07:39:58.000Z</time>
      </trkpt>
      <trkpt lat="45.19087" lon="6.34452">
        <ele>1702.8000488281</ele>
        <time>2014-01-11T07:39:59.000Z</time>
      </trkpt>
      <trkpt lat="45.19087" lon="6.34454">
        <ele>1703</ele>
        <time>2014-01-11T07:40:00.000Z</time>
      </trkpt>
      <trkpt lat="45.19087" lon="6.34454">
        <ele>1703.1999511719</ele>
        <time>2014-01-11T07:40:01.000Z</time>
      </trkpt>
      <trkpt lat="45.19086" lon="6.34456">
        <ele>1703.1999511719</ele>
        <time>2014-01-11T07:40:02.000Z</time>
      </trkpt>
      <trkpt lat="45.19086" lon="6.34458">
        <ele>1703.4000244141</ele>
        <time>2014-01-11T07:40:03.000Z</time>
      </trkpt>
      <trkpt lat="45.19086" lon="6.34459">
        <ele>1703.5999755859</ele>
        <time>2014-01-11T07:40:04.000Z</time>
      </trkpt>
      <trkpt lat="45.19086" lon="6.34461">
        <ele>1703.8000488281</ele>
        <time>2014-01-11T07:40:05.000Z</time>
      </trkpt>
      <trkpt lat="45.19085" lon="6.34463">
        <ele>1703.8000488281</ele>
        <time>2014-01-11T07:40:06.000Z</time>
      </trkpt>
      <trkpt lat="45.19085" lon="6.34464">
        <ele>1704</ele>
        <time>2014-01-11T07:40:07.000Z</time>
      </trkpt>
      <trkpt lat="45.19084" lon="6.34465">
        <ele>1704</ele>
        <time>2014-01-11T07:40:08.000Z</time>
      </trkpt>
      <trkpt lat="45.19084" lon="6.34467">
        <ele>1704.1999511719</ele>
        <time>2014-01-11T07:40:09.000Z</time>
      </trkpt>
      <trkpt lat="45.19084" lon="6.3447">
        <ele>1704.1999511719</ele>
        <time>2014-01-11T07:40:10.000Z</time>
      </trkpt>
      <trkpt lat="45.19084" lon="6.3447">
        <ele>1704.1999511719</ele>
        <time>2014-01-11T07:40:11.000Z</time>
      </trkpt>
      <trkpt lat="45.19084" lon="6.3447">
        <ele>1704.4000244141</ele>
        <time>2014-01-11T07:40:12.000Z</time>
      </trkpt>
      <trkpt lat="45.19084" lon="6.34473">
        <ele>1704.4000244141</ele>
        <time>2014-01-11T07:40:13.000Z</time>
      </trkpt>
      <trkpt lat="45.19084" lon="6.34475">
        <ele>1704.4000244141</ele>
        <time>2014-01-11T07:40:14.000Z</time>
      </trkpt>
      <trkpt lat="45.19085" lon="6.34476">
        <ele>1704.5999755859</ele>
        <time>2014-01-11T07:40:15.000Z</time>
      </trkpt>
      <trkpt lat="45.19085" lon="6.34477">
        <ele>1704.5999755859</ele>
        <time>2014-01-11T07:40:16.000Z</time>
      </trkpt>
      <trkpt lat="45.19085" lon="6.34479">
        <ele>1704.5999755859</ele>
        <time>2014-01-11T07:40:17.000Z</time>
      </trkpt>
      <trkpt lat="45.19086" lon="6.34481">
        <ele>1704.5999755859</ele>
        <time>2014-01-11T07:40:18.000Z</time>
      </trkpt>
      <trkpt lat="45.19086" lon="6.34481">
        <ele>1704.8000488281</ele>
        <time>2014-01-11T07:40:19.000Z</time>
      </trkpt>
      <trkpt lat="45.19085" lon="6.34484">
        <ele>1704.8000488281</ele>
        <time>2014-01-11T07:40:20.000Z</time>
      </trkpt>
      <trkpt lat="45.19085" lon="6.34486">
        <ele>1705</ele>
        <time>2014-01-11T07:40:21.000Z</time>
      </trkpt>
      <trkpt lat="45.19085" lon="6.34487">
        <ele>1705.1999511719</ele>
        <time>2014-01-11T07:40:22.000Z</time>
      </trkpt>
      <trkpt lat="45.19085" lon="6.34489">
        <ele>1705.1999511719</ele>
        <time>2014-01-11T07:40:23.000Z</time>
      </trkpt>
      <trkpt lat="45.19086" lon="6.34491">
        <ele>1705.4000244141</ele>
        <time>2014-01-11T07:40:24.000Z</time>
      </trkpt>
      <trkpt lat="45.19087" lon="6.34492">
        <ele>1705.5999755859</ele>
        <time>2014-01-11T07:40:25.000Z</time>
      </trkpt>
      <trkpt lat="45.19086" lon="6.34494">
        <ele>1705.5999755859</ele>
        <time>2014-01-11T07:40:26.000Z</time>
      </trkpt>
      <trkpt lat="45.19086" lon="6.34495">
        <ele>1705.8000488281</ele>
        <time>2014-01-11T07:40:27.000Z</time>
      </trkpt>
      <trkpt lat="45.19086" lon="6.34496">
        <ele>1705.8000488281</ele>
        <time>2014-01-11T07:40:28.000Z</time>
      </trkpt>
      <trkpt lat="45.19086" lon="6.34496">
        <ele>1705.8000488281</ele>
        <time>2014-01-11T07:40:29.000Z</time>
      </trkpt>
      <trkpt lat="45.19086" lon="6.34499">
        <ele>1706</ele>
        <time>2014-01-11T07:40:30.000Z</time>
      </trkpt>
      <trkpt lat="45.19087" lon="6.34501">
        <ele>1706</ele>
        <time>2014-01-11T07:40:31.000Z</time>
      </trkpt>
      <trkpt lat="45.19087" lon="6.34503">
        <ele>1706</ele>
        <time>2014-01-11T07:40:32.000Z</time>
      </trkpt>
      <trkpt lat="45.19087" lon="6.34504">
        <ele>1706.1999511719</ele>
        <time>2014-01-11T07:40:33.000Z</time>
      </trkpt>
      <trkpt lat="45.19087" lon="6.34505">
        <ele>1706.1999511719</ele>
        <time>2014-01-11T07:40:34.000Z</time>
      </trkpt>
      <trkpt lat="45.19086" lon="6.34506">
        <ele>1706.4000244141</ele>
        <time>2014-01-11T07:40:35.000Z</time>
      </trkpt>
      <trkpt lat="45.19087" lon="6.34507">
        <ele>1706.4000244141</ele>
        <time>2014-01-11T07:40:36.000Z</time>
      </trkpt>
      <trkpt lat="45.19087" lon="6.34509">
        <ele>1706.4000244141</ele>
        <time>2014-01-11T07:40:37.000Z</time>
      </trkpt>
      <trkpt lat="45.19087" lon="6.34511">
        <ele>1706.4000244141</ele>
        <time>2014-01-11T07:40:38.000Z</time>
      </trkpt>
      <trkpt lat="45.19087" lon="6.34512">
        <ele>1706.4000244141</ele>
        <time>2014-01-11T07:40:39.000Z</time>
      </trkpt>
      <trkpt lat="45.19087" lon="6.34513">
        <ele>1706.4000244141</ele>
        <time>2014-01-11T07:40:40.000Z</time>
      </trkpt>
      <trkpt lat="45.19088" lon="6.34516">
        <ele>1706.5999755859</ele>
        <time>2014-01-11T07:40:41.000Z</time>
      </trkpt>
      <trkpt lat="45.19088" lon="6.34517">
        <ele>1706.5999755859</ele>
        <time>2014-01-11T07:40:42.000Z</time>
      </trkpt>
      <trkpt lat="45.19088" lon="6.34518">
        <ele>1706.8000488281</ele>
        <time>2014-01-11T07:40:43.000Z</time>
      </trkpt>
      <trkpt lat="45.19087" lon="6.3452">
        <ele>1706.8000488281</ele>
        <time>2014-01-11T07:40:44.000Z</time>
      </trkpt>
      <trkpt lat="45.19087" lon="6.34521">
        <ele>1706.8000488281</ele>
        <time>2014-01-11T07:40:45.000Z</time>
      </trkpt>
      <trkpt lat="45.19087" lon="6.34522">
        <ele>1707</ele>
        <time>2014-01-11T07:40:46.000Z</time>
      </trkpt>
      <trkpt lat="45.19087" lon="6.34525">
        <ele>1707</ele>
        <time>2014-01-11T07:40:47.000Z</time>
      </trkpt>
      <trkpt lat="45.19087" lon="6.34526">
        <ele>1707</ele>
        <time>2014-01-11T07:40:48.000Z</time>
      </trkpt>
      <trkpt lat="45.19087" lon="6.34526">
        <ele>1707</ele>
        <time>2014-01-11T07:40:49.000Z</time>
      </trkpt>
      <trkpt lat="45.19088" lon="6.34529">
        <ele>1707.1999511719</ele>
        <time>2014-01-11T07:40:50.000Z</time>
      </trkpt>
      <trkpt lat="45.19089" lon="6.34531">
        <ele>1707.1999511719</ele>
        <time>2014-01-11T07:40:51.000Z</time>
      </trkpt>
      <trkpt lat="45.19089" lon="6.34532">
        <ele>1707.1999511719</ele>
        <time>2014-01-11T07:40:52.000Z</time>
      </trkpt>
      <trkpt lat="45.19089" lon="6.34533">
        <ele>1707.4000244141</ele>
        <time>2014-01-11T07:40:53.000Z</time>
      </trkpt>
      <trkpt lat="45.19089" lon="6.34535">
        <ele>1707.4000244141</ele>
        <time>2014-01-11T07:40:54.000Z</time>
      </trkpt>
      <trkpt lat="45.1909" lon="6.34537">
        <ele>1707.4000244141</ele>
        <time>2014-01-11T07:40:55.000Z</time>
      </trkpt>
      <trkpt lat="45.1909" lon="6.34538">
        <ele>1707.4000244141</ele>
        <time>2014-01-11T07:40:56.000Z</time>
      </trkpt>
      <trkpt lat="45.1909" lon="6.3454">
        <ele>1707.5999755859</ele>
        <time>2014-01-11T07:40:57.000Z</time>
      </trkpt>
      <trkpt lat="45.19091" lon="6.34543">
        <ele>1707.5999755859</ele>
        <time>2014-01-11T07:40:58.000Z</time>
      </trkpt>
      <trkpt lat="45.19091" lon="6.34544">
        <ele>1707.5999755859</ele>
        <time>2014-01-11T07:40:59.000Z</time>
      </trkpt>
      <trkpt lat="45.19091" lon="6.34544">
        <ele>1707.5999755859</ele>
        <time>2014-01-11T07:41:00.000Z</time>
      </trkpt>
      <trkpt lat="45.19091" lon="6.34547">
        <ele>1707.8000488281</ele>
        <time>2014-01-11T07:41:01.000Z</time>
      </trkpt>
      <trkpt lat="45.19091" lon="6.34549">
        <ele>1707.8000488281</ele>
        <time>2014-01-11T07:41:02.000Z</time>
      </trkpt>
      <trkpt lat="45.19091" lon="6.34551">
        <ele>1707.8000488281</ele>
        <time>2014-01-11T07:41:03.000Z</time>
      </trkpt>
      <trkpt lat="45.19091" lon="6.34552">
        <ele>1707.8000488281</ele>
        <time>2014-01-11T07:41:04.000Z</time>
      </trkpt>
      <trkpt lat="45.19091" lon="6.34555">
        <ele>1707.8000488281</ele>
        <time>2014-01-11T07:41:05.000Z</time>
      </trkpt>
      <trkpt lat="45.19091" lon="6.34556">
        <ele>1708</ele>
        <time>2014-01-11T07:41:06.000Z</time>
      </trkpt>
      <trkpt lat="45.1909" lon="6.34558">
        <ele>1708</ele>
        <time>2014-01-11T07:41:07.000Z</time>
      </trkpt>
      <trkpt lat="45.19091" lon="6.34559">
        <ele>1708</ele>
        <time>2014-01-11T07:41:08.000Z</time>
      </trkpt>
      <trkpt lat="45.19091" lon="6.34562">
        <ele>1708</ele>
        <time>2014-01-11T07:41:09.000Z</time>
      </trkpt>
      <trkpt lat="45.19091" lon="6.34564">
        <ele>1708.1999511719</ele>
        <time>2014-01-11T07:41:10.000Z</time>
      </trkpt>
      <trkpt lat="45.19091" lon="6.34566">
        <ele>1708.1999511719</ele>
        <time>2014-01-11T07:41:11.000Z</time>
      </trkpt>
      <trkpt lat="45.19091" lon="6.34567">
        <ele>1708.4000244141</ele>
        <time>2014-01-11T07:41:12.000Z</time>
      </trkpt>
      <trkpt lat="45.1909" lon="6.34569">
        <ele>1708.5999755859</ele>
        <time>2014-01-11T07:41:13.000Z</time>
      </trkpt>
      <trkpt lat="45.1909" lon="6.34569">
        <ele>1708.5999755859</ele>
        <time>2014-01-11T07:41:14.000Z</time>
      </trkpt>
      <trkpt lat="45.1909" lon="6.34573">
        <ele>1708.8000488281</ele>
        <time>2014-01-11T07:41:15.000Z</time>
      </trkpt>
      <trkpt lat="45.1909" lon="6.34575">
        <ele>1708.8000488281</ele>
        <time>2014-01-11T07:41:16.000Z</time>
      </trkpt>
      <trkpt lat="45.1909" lon="6.34577">
        <ele>1708.8000488281</ele>
        <time>2014-01-11T07:41:17.000Z</time>
      </trkpt>
      <trkpt lat="45.1909" lon="6.34579">
        <ele>1708.8000488281</ele>
        <time>2014-01-11T07:41:18.000Z</time>
      </trkpt>
      <trkpt lat="45.1909" lon="6.34581">
        <ele>1708.8000488281</ele>
        <time>2014-01-11T07:41:19.000Z</time>
      </trkpt>
      <trkpt lat="45.19089" lon="6.34582">
        <ele>1708.8000488281</ele>
        <time>2014-01-11T07:41:20.000Z</time>
      </trkpt>
      <trkpt lat="45.19089" lon="6.34583">
        <ele>1708.8000488281</ele>
        <time>2014-01-11T07:41:21.000Z</time>
      </trkpt>
      <trkpt lat="45.19089" lon="6.34585">
        <ele>1708.8000488281</ele>
        <time>2014-01-11T07:41:22.000Z</time>
      </trkpt>
      <trkpt lat="45.19088" lon="6.34587">
        <ele>1708.8000488281</ele>
        <time>2014-01-11T07:41:23.000Z</time>
      </trkpt>
      <trkpt lat="45.19088" lon="6.34587">
        <ele>1708.8000488281</ele>
        <time>2014-01-11T07:41:24.000Z</time>
      </trkpt>
      <trkpt lat="45.19088" lon="6.34591">
        <ele>1709</ele>
        <time>2014-01-11T07:41:25.000Z</time>
      </trkpt>
      <trkpt lat="45.19088" lon="6.34593">
        <ele>1709</ele>
        <time>2014-01-11T07:41:26.000Z</time>
      </trkpt>
      <trkpt lat="45.19088" lon="6.34594">
        <ele>1709</ele>
        <time>2014-01-11T07:41:27.000Z</time>
      </trkpt>
      <trkpt lat="45.19087" lon="6.34595">
        <ele>1709.1999511719</ele>
        <time>2014-01-11T07:41:28.000Z</time>
      </trkpt>
      <trkpt lat="45.19086" lon="6.34597">
        <ele>1709.1999511719</ele>
        <time>2014-01-11T07:41:29.000Z</time>
      </trkpt>
      <trkpt lat="45.19086" lon="6.34597">
        <ele>1709.4000244141</ele>
        <time>2014-01-11T07:41:30.000Z</time>
      </trkpt>
      <trkpt lat="45.19085" lon="6.34597">
        <ele>1709.4000244141</ele>
        <time>2014-01-11T07:41:31.000Z</time>
      </trkpt>
      <trkpt lat="45.19084" lon="6.34599">
        <ele>1709.4000244141</ele>
        <time>2014-01-11T07:41:32.000Z</time>
      </trkpt>
      <trkpt lat="45.19083" lon="6.346">
        <ele>1709.5999755859</ele>
        <time>2014-01-11T07:41:33.000Z</time>
      </trkpt>
      <trkpt lat="45.19082" lon="6.346">
        <ele>1709.5999755859</ele>
        <time>2014-01-11T07:41:34.000Z</time>
      </trkpt>
      <trkpt lat="45.19081" lon="6.34601">
        <ele>1709.5999755859</ele>
        <time>2014-01-11T07:41:35.000Z</time>
      </trkpt>
      <trkpt lat="45.19079" lon="6.34602">
        <ele>1709.5999755859</ele>
        <time>2014-01-11T07:41:36.000Z</time>
      </trkpt>
      <trkpt lat="45.19078" lon="6.34602">
        <ele>1709.8000488281</ele>
        <time>2014-01-11T07:41:37.000Z</time>
      </trkpt>
      <trkpt lat="45.19076" lon="6.34603">
        <ele>1709.8000488281</ele>
        <time>2014-01-11T07:41:38.000Z</time>
      </trkpt>
      <trkpt lat="45.19074" lon="6.34603">
        <ele>1709.8000488281</ele>
        <time>2014-01-11T07:41:39.000Z</time>
      </trkpt>
      <trkpt lat="45.19073" lon="6.34603">
        <ele>1709.8000488281</ele>
        <time>2014-01-11T07:41:40.000Z</time>
      </trkpt>
      <trkpt lat="45.19072" lon="6.34603">
        <ele>1709.8000488281</ele>
        <time>2014-01-11T07:41:41.000Z</time>
      </trkpt>
      <trkpt lat="45.1907" lon="6.34603">
        <ele>1709.8000488281</ele>
        <time>2014-01-11T07:41:42.000Z</time>
      </trkpt>
      <trkpt lat="45.19069" lon="6.34604">
        <ele>1709.8000488281</ele>
        <time>2014-01-11T07:41:43.000Z</time>
      </trkpt>
      <trkpt lat="45.19069" lon="6.34604">
        <ele>1710</ele>
        <time>2014-01-11T07:41:44.000Z</time>
      </trkpt>
      <trkpt lat="45.19066" lon="6.34603">
        <ele>1710</ele>
        <time>2014-01-11T07:41:45.000Z</time>
      </trkpt>
      <trkpt lat="45.19064" lon="6.34603">
        <ele>1710</ele>
        <time>2014-01-11T07:41:46.000Z</time>
      </trkpt>
      <trkpt lat="45.19063" lon="6.34602">
        <ele>1710</ele>
        <time>2014-01-11T07:41:47.000Z</time>
      </trkpt>
      <trkpt lat="45.19061" lon="6.34602">
        <ele>1710</ele>
        <time>2014-01-11T07:41:48.000Z</time>
      </trkpt>
      <trkpt lat="45.19059" lon="6.34601">
        <ele>1710.1999511719</ele>
        <time>2014-01-11T07:41:50.000Z</time>
      </trkpt>
      <trkpt lat="45.1906" lon="6.34601">
        <ele>1710.1999511719</ele>
        <time>2014-01-11T07:41:51.000Z</time>
      </trkpt>
      <trkpt lat="45.19058" lon="6.346">
        <ele>1710.1999511719</ele>
        <time>2014-01-11T07:41:52.000Z</time>
      </trkpt>
      <trkpt lat="45.19056" lon="6.346">
        <ele>1710.1999511719</ele>
        <time>2014-01-11T07:41:53.000Z</time>
      </trkpt>
      <trkpt lat="45.19055" lon="6.34599">
        <ele>1710.4000244141</ele>
        <time>2014-01-11T07:41:54.000Z</time>
      </trkpt>
      <trkpt lat="45.19054" lon="6.34599">
        <ele>1710.5999755859</ele>
        <time>2014-01-11T07:41:55.000Z</time>
      </trkpt>
      <trkpt lat="45.19052" lon="6.34598">
        <ele>1710.8000488281</ele>
        <time>2014-01-11T07:41:56.000Z</time>
      </trkpt>
      <trkpt lat="45.19051" lon="6.34597">
        <ele>1711</ele>
        <time>2014-01-11T07:41:57.000Z</time>
      </trkpt>
      <trkpt lat="45.1905" lon="6.34596">
        <ele>1711.1999511719</ele>
        <time>2014-01-11T07:41:58.000Z</time>
      </trkpt>
      <trkpt lat="45.19049" lon="6.34596">
        <ele>1711.1999511719</ele>
        <time>2014-01-11T07:41:59.000Z</time>
      </trkpt>
      <trkpt lat="45.19047" lon="6.34595">
        <ele>1711.1999511719</ele>
        <time>2014-01-11T07:42:00.000Z</time>
      </trkpt>
      <trkpt lat="45.19046" lon="6.34594">
        <ele>1711.1999511719</ele>
        <time>2014-01-11T07:42:01.000Z</time>
      </trkpt>
      <trkpt lat="45.19045" lon="6.34593">
        <ele>1711.1999511719</ele>
        <time>2014-01-11T07:42:02.000Z</time>
      </trkpt>
      <trkpt lat="45.19043" lon="6.34593">
        <ele>1711.4000244141</ele>
        <time>2014-01-11T07:42:03.000Z</time>
      </trkpt>
      <trkpt lat="45.19042" lon="6.34592">
        <ele>1711.4000244141</ele>
        <time>2014-01-11T07:42:04.000Z</time>
      </trkpt>
      <trkpt lat="45.19041" lon="6.34592">
        <ele>1711.4000244141</ele>
        <time>2014-01-11T07:42:05.000Z</time>
      </trkpt>
      <trkpt lat="45.1904" lon="6.34592">
        <ele>1711.4000244141</ele>
        <time>2014-01-11T07:42:06.000Z</time>
      </trkpt>
      <trkpt lat="45.19039" lon="6.34592">
        <ele>1711.4000244141</ele>
        <time>2014-01-11T07:42:07.000Z</time>
      </trkpt>
      <trkpt lat="45.19038" lon="6.34591">
        <ele>1711.4000244141</ele>
        <time>2014-01-11T07:42:08.000Z</time>
      </trkpt>
      <trkpt lat="45.19037" lon="6.34591">
        <ele>1711.4000244141</ele>
        <time>2014-01-11T07:42:09.000Z</time>
      </trkpt>
      <trkpt lat="45.19037" lon="6.34591">
        <ele>1711.4000244141</ele>
        <time>2014-01-11T07:42:10.000Z</time>
      </trkpt>
      <trkpt lat="45.19037" lon="6.34591">
        <ele>1711.5999755859</ele>
        <time>2014-01-11T07:42:11.000Z</time>
      </trkpt>
      <trkpt lat="45.19035" lon="6.34591">
        <ele>1711.5999755859</ele>
        <time>2014-01-11T07:42:12.000Z</time>
      </trkpt>
      <trkpt lat="45.19034" lon="6.34592">
        <ele>1711.5999755859</ele>
        <time>2014-01-11T07:42:13.000Z</time>
      </trkpt>
      <trkpt lat="45.19034" lon="6.34592">
        <ele>1711.5999755859</ele>
        <time>2014-01-11T07:42:14.000Z</time>
      </trkpt>
      <trkpt lat="45.19034" lon="6.34592">
        <ele>1711.5999755859</ele>
        <time>2014-01-11T07:42:15.000Z</time>
      </trkpt>
      <trkpt lat="45.19034" lon="6.34592">
        <ele>1711.5999755859</ele>
        <time>2014-01-11T07:42:16.000Z</time>
      </trkpt>
      <trkpt lat="45.19034" lon="6.34592">
        <ele>1711.8000488281</ele>
        <time>2014-01-11T07:42:17.000Z</time>
      </trkpt>
      <trkpt lat="45.19034" lon="6.34592">
        <ele>1711.8000488281</ele>
        <time>2014-01-11T07:42:18.000Z</time>
      </trkpt>
      <trkpt lat="45.19034" lon="6.34592">
        <ele>1712</ele>
        <time>2014-01-11T07:42:19.000Z</time>
      </trkpt>
      <trkpt lat="45.19034" lon="6.34592">
        <ele>1712</ele>
        <time>2014-01-11T07:42:20.000Z</time>
      </trkpt>
      <trkpt lat="45.19034" lon="6.34592">
        <ele>1712</ele>
        <time>2014-01-11T07:42:21.000Z</time>
      </trkpt>
      <trkpt lat="45.19034" lon="6.34592">
        <ele>1712</ele>
        <time>2014-01-11T07:42:24.000Z</time>
      </trkpt>
      <trkpt lat="45.19034" lon="6.34592">
        <ele>1712</ele>
        <time>2014-01-11T07:42:25.000Z</time>
      </trkpt>
      <trkpt lat="45.19034" lon="6.34592">
        <ele>1712</ele>
        <time>2014-01-11T07:42:26.000Z</time>
      </trkpt>
      <trkpt lat="45.19034" lon="6.34592">
        <ele>1712</ele>
        <time>2014-01-11T07:42:27.000Z</time>
      </trkpt>
      <trkpt lat="45.19034" lon="6.34592">
        <ele>1711.8000488281</ele>
        <time>2014-01-11T07:42:28.000Z</time>
      </trkpt>
      <trkpt lat="45.19034" lon="6.34592">
        <ele>1711.8000488281</ele>
        <time>2014-01-11T07:42:29.000Z</time>
      </trkpt>
      <trkpt lat="45.19034" lon="6.34592">
        <ele>1711.8000488281</ele>
        <time>2014-01-11T07:42:31.000Z</time>
      </trkpt>
      <trkpt lat="45.19034" lon="6.34592">
        <ele>1712</ele>
        <time>2014-01-11T07:42:32.000Z</time>
      </trkpt>
      <trkpt lat="45.19034" lon="6.34592">
        <ele>1712</ele>
        <time>2014-01-11T07:42:33.000Z</time>
      </trkpt>
      <trkpt lat="45.19034" lon="6.34592">
        <ele>1712</ele>
        <time>2014-01-11T07:42:35.000Z</time>
      </trkpt>
      <trkpt lat="45.19034" lon="6.34592">
        <ele>1712</ele>
        <time>2014-01-11T07:42:37.000Z</time>
      </trkpt>
      <trkpt lat="45.19034" lon="6.34592">
        <ele>1711.8000488281</ele>
        <time>2014-01-11T07:42:38.000Z</time>
      </trkpt>
      <trkpt lat="45.19034" lon="6.34592">
        <ele>1711.8000488281</ele>
        <time>2014-01-11T07:42:39.000Z</time>
      </trkpt>
      <trkpt lat="45.19034" lon="6.34592">
        <ele>1711.8000488281</ele>
        <time>2014-01-11T07:42:41.000Z</time>
      </trkpt>
      <trkpt lat="45.19034" lon="6.34592">
        <ele>1711.8000488281</ele>
        <time>2014-01-11T07:42:42.000Z</time>
      </trkpt>
      <trkpt lat="45.19034" lon="6.34592">
        <ele>1712</ele>
        <time>2014-01-11T07:42:43.000Z</time>
      </trkpt>
      <trkpt lat="45.19034" lon="6.34592">
        <ele>1712</ele>
        <time>2014-01-11T07:42:44.000Z</time>
      </trkpt>
      <trkpt lat="45.19034" lon="6.34592">
        <ele>1712</ele>
        <time>2014-01-11T07:42:45.000Z</time>
      </trkpt>
      <trkpt lat="45.19034" lon="6.34592">
        <ele>1712</ele>
        <time>2014-01-11T07:42:47.000Z</time>
      </trkpt>
      <trkpt lat="45.19034" lon="6.34592">
        <ele>1712</ele>
        <time>2014-01-11T07:42:48.000Z</time>
      </trkpt>
      <trkpt lat="45.19034" lon="6.34592">
        <ele>1712</ele>
        <time>2014-01-11T07:42:49.000Z</time>
      </trkpt>
      <trkpt lat="45.19034" lon="6.34592">
        <ele>1712</ele>
        <time>2014-01-11T07:42:50.000Z</time>
      </trkpt>
      <trkpt lat="45.19034" lon="6.34592">
        <ele>1712.1999511719</ele>
        <time>2014-01-11T07:42:51.000Z</time>
      </trkpt>
      <trkpt lat="45.19034" lon="6.34592">
        <ele>1712.1999511719</ele>
        <time>2014-01-11T07:42:52.000Z</time>
      </trkpt>
      <trkpt lat="45.19034" lon="6.34592">
        <ele>1712.1999511719</ele>
        <time>2014-01-11T07:42:53.000Z</time>
      </trkpt>
      <trkpt lat="45.19034" lon="6.34592">
        <ele>1712.1999511719</ele>
        <time>2014-01-11T07:42:54.000Z</time>
      </trkpt>
      <trkpt lat="45.19034" lon="6.34592">
        <ele>1712.1999511719</ele>
        <time>2014-01-11T07:42:55.000Z</time>
      </trkpt>
      <trkpt lat="45.19034" lon="6.34592">
        <ele>1712</ele>
        <time>2014-01-11T07:42:56.000Z</time>
      </trkpt>
      <trkpt lat="45.19034" lon="6.34592">
        <ele>1712</ele>
        <time>2014-01-11T07:42:57.000Z</time>
      </trkpt>
      <trkpt lat="45.19034" lon="6.34592">
        <ele>1711.8000488281</ele>
        <time>2014-01-11T07:42:58.000Z</time>
      </trkpt>
      <trkpt lat="45.19034" lon="6.34592">
        <ele>1711.8000488281</ele>
        <time>2014-01-11T07:42:59.000Z</time>
      </trkpt>
      <trkpt lat="45.19034" lon="6.34592">
        <ele>1711.8000488281</ele>
        <time>2014-01-11T07:43:00.000Z</time>
      </trkpt>
      <trkpt lat="45.19034" lon="6.34592">
        <ele>1711.8000488281</ele>
        <time>2014-01-11T07:43:01.000Z</time>
      </trkpt>
      <trkpt lat="45.19034" lon="6.34592">
        <ele>1712</ele>
        <time>2014-01-11T07:43:02.000Z</time>
      </trkpt>
      <trkpt lat="45.19034" lon="6.34592">
        <ele>1712</ele>
        <time>2014-01-11T07:43:03.000Z</time>
      </trkpt>
      <trkpt lat="45.19034" lon="6.34592">
        <ele>1712.1999511719</ele>
        <time>2014-01-11T07:43:04.000Z</time>
      </trkpt>
      <trkpt lat="45.19034" lon="6.34592">
        <ele>1712.1999511719</ele>
        <time>2014-01-11T07:43:05.000Z</time>
      </trkpt>
      <trkpt lat="45.19034" lon="6.34592">
        <ele>1712.1999511719</ele>
        <time>2014-01-11T07:43:06.000Z</time>
      </trkpt>
      <trkpt lat="45.19034" lon="6.34592">
        <ele>1712.1999511719</ele>
        <time>2014-01-11T07:43:08.000Z</time>
      </trkpt>
      <trkpt lat="45.19034" lon="6.34592">
        <ele>1712.1999511719</ele>
        <time>2014-01-11T07:43:09.000Z</time>
      </trkpt>
      <trkpt lat="45.19034" lon="6.34592">
        <ele>1712.1999511719</ele>
        <time>2014-01-11T07:43:10.000Z</time>
      </trkpt>
      <trkpt lat="45.19034" lon="6.34592">
        <ele>1712</ele>
        <time>2014-01-11T07:43:11.000Z</time>
      </trkpt>
      <trkpt lat="45.19034" lon="6.34592">
        <ele>1712</ele>
        <time>2014-01-11T07:43:12.000Z</time>
      </trkpt>
      <trkpt lat="45.19034" lon="6.34592">
        <ele>1712</ele>
        <time>2014-01-11T07:43:13.000Z</time>
      </trkpt>
      <trkpt lat="45.19034" lon="6.34592">
        <ele>1712.1999511719</ele>
        <time>2014-01-11T07:43:14.000Z</time>
      </trkpt>
      <trkpt lat="45.19034" lon="6.34592">
        <ele>1712.1999511719</ele>
        <time>2014-01-11T07:43:15.000Z</time>
      </trkpt>
      <trkpt lat="45.19034" lon="6.34592">
        <ele>1712.1999511719</ele>
        <time>2014-01-11T07:43:16.000Z</time>
      </trkpt>
      <trkpt lat="45.19034" lon="6.34592">
        <ele>1712.1999511719</ele>
        <time>2014-01-11T07:43:17.000Z</time>
      </trkpt>
      <trkpt lat="45.19034" lon="6.34592">
        <ele>1712.1999511719</ele>
        <time>2014-01-11T07:43:18.000Z</time>
      </trkpt>
      <trkpt lat="45.19034" lon="6.34592">
        <ele>1712.1999511719</ele>
        <time>2014-01-11T07:43:19.000Z</time>
      </trkpt>
      <trkpt lat="45.19034" lon="6.34592">
        <ele>1712.1999511719</ele>
        <time>2014-01-11T07:43:21.000Z</time>
      </trkpt>
      <trkpt lat="45.19034" lon="6.34592">
        <ele>1712.1999511719</ele>
        <time>2014-01-11T07:43:23.000Z</time>
      </trkpt>
      <trkpt lat="45.19034" lon="6.34592">
        <ele>1712.1999511719</ele>
        <time>2014-01-11T07:43:24.000Z</time>
      </trkpt>
      <trkpt lat="45.19034" lon="6.34592">
        <ele>1712.1999511719</ele>
        <time>2014-01-11T07:43:25.000Z</time>
      </trkpt>
      <trkpt lat="45.19034" lon="6.34592">
        <ele>1712.1999511719</ele>
        <time>2014-01-11T07:43:28.000Z</time>
      </trkpt>
      <trkpt lat="45.19034" lon="6.34592">
        <ele>1712.1999511719</ele>
        <time>2014-01-11T07:43:29.000Z</time>
      </trkpt>
      <trkpt lat="45.19034" lon="6.34592">
        <ele>1712.1999511719</ele>
        <time>2014-01-11T07:43:30.000Z</time>
      </trkpt>
      <trkpt lat="45.19034" lon="6.34592">
        <ele>1712.4000244141</ele>
        <time>2014-01-11T07:43:31.000Z</time>
      </trkpt>
      <trkpt lat="45.19034" lon="6.34592">
        <ele>1712.4000244141</ele>
        <time>2014-01-11T07:43:32.000Z</time>
      </trkpt>
      <trkpt lat="45.19034" lon="6.34592">
        <ele>1712.4000244141</ele>
        <time>2014-01-11T07:43:33.000Z</time>
      </trkpt>
      <trkpt lat="45.19034" lon="6.34592">
        <ele>1712.1999511719</ele>
        <time>2014-01-11T07:43:34.000Z</time>
      </trkpt>
      <trkpt lat="45.19034" lon="6.34592">
        <ele>1712.1999511719</ele>
        <time>2014-01-11T07:43:35.000Z</time>
      </trkpt>
      <trkpt lat="45.19034" lon="6.34592">
        <ele>1712.1999511719</ele>
        <time>2014-01-11T07:43:36.000Z</time>
      </trkpt>
      <trkpt lat="45.19034" lon="6.34592">
        <ele>1712.1999511719</ele>
        <time>2014-01-11T07:43:37.000Z</time>
      </trkpt>
      <trkpt lat="45.19034" lon="6.34592">
        <ele>1712.1999511719</ele>
        <time>2014-01-11T07:43:38.000Z</time>
      </trkpt>
      <trkpt lat="45.19034" lon="6.34592">
        <ele>1712.1999511719</ele>
        <time>2014-01-11T07:43:41.000Z</time>
      </trkpt>
      <trkpt lat="45.19034" lon="6.34592">
        <ele>1712.1999511719</ele>
        <time>2014-01-11T07:43:42.000Z</time>
      </trkpt>
      <trkpt lat="45.19034" lon="6.34592">
        <ele>1712.1999511719</ele>
        <time>2014-01-11T07:43:43.000Z</time>
      </trkpt>
      <trkpt lat="45.19034" lon="6.34592">
        <ele>1712.4000244141</ele>
        <time>2014-01-11T07:43:44.000Z</time>
      </trkpt>
      <trkpt lat="45.19034" lon="6.34592">
        <ele>1712.4000244141</ele>
        <time>2014-01-11T07:43:45.000Z</time>
      </trkpt>
      <trkpt lat="45.19034" lon="6.34592">
        <ele>1712.4000244141</ele>
        <time>2014-01-11T07:43:46.000Z</time>
      </trkpt>
      <trkpt lat="45.19034" lon="6.34592">
        <ele>1712.4000244141</ele>
        <time>2014-01-11T07:43:48.000Z</time>
      </trkpt>
      <trkpt lat="45.19034" lon="6.34592">
        <ele>1712.1999511719</ele>
        <time>2014-01-11T07:43:50.000Z</time>
      </trkpt>
      <trkpt lat="45.19034" lon="6.34592">
        <ele>1712.1999511719</ele>
        <time>2014-01-11T07:43:52.000Z</time>
      </trkpt>
      <trkpt lat="45.19034" lon="6.34592">
        <ele>1712.1999511719</ele>
        <time>2014-01-11T07:43:53.000Z</time>
      </trkpt>
      <trkpt lat="45.19034" lon="6.34592">
        <ele>1712.4000244141</ele>
        <time>2014-01-11T07:43:54.000Z</time>
      </trkpt>
      <trkpt lat="45.19034" lon="6.34592">
        <ele>1712.4000244141</ele>
        <time>2014-01-11T07:43:55.000Z</time>
      </trkpt>
      <trkpt lat="45.19034" lon="6.34592">
        <ele>1712.4000244141</ele>
        <time>2014-01-11T07:43:56.000Z</time>
      </trkpt>
      <trkpt lat="45.19034" lon="6.34592">
        <ele>1712.4000244141</ele>
        <time>2014-01-11T07:43:57.000Z</time>
      </trkpt>
      <trkpt lat="45.19034" lon="6.34592">
        <ele>1712.4000244141</ele>
        <time>2014-01-11T07:43:58.000Z</time>
      </trkpt>
      <trkpt lat="45.19034" lon="6.34592">
        <ele>1712.4000244141</ele>
        <time>2014-01-11T07:43:59.000Z</time>
      </trkpt>
      <trkpt lat="45.19034" lon="6.34592">
        <ele>1712.4000244141</ele>
        <time>2014-01-11T07:44:00.000Z</time>
      </trkpt>
      <trkpt lat="45.19034" lon="6.34592">
        <ele>1712.4000244141</ele>
        <time>2014-01-11T07:44:02.000Z</time>
      </trkpt>
      <trkpt lat="45.19034" lon="6.34592">
        <ele>1712.4000244141</ele>
        <time>2014-01-11T07:44:05.000Z</time>
      </trkpt>
      <trkpt lat="45.19034" lon="6.34592">
        <ele>1712.4000244141</ele>
        <time>2014-01-11T07:44:06.000Z</time>
      </trkpt>
      <trkpt lat="45.19034" lon="6.34592">
        <ele>1712.4000244141</ele>
        <time>2014-01-11T07:44:07.000Z</time>
      </trkpt>
      <trkpt lat="45.19034" lon="6.34592">
        <ele>1712.4000244141</ele>
        <time>2014-01-11T07:44:08.000Z</time>
      </trkpt>
      <trkpt lat="45.19034" lon="6.34592">
        <ele>1712.4000244141</ele>
        <time>2014-01-11T07:44:12.000Z</time>
      </trkpt>
      <trkpt lat="45.19034" lon="6.34592">
        <ele>1712.4000244141</ele>
        <time>2014-01-11T07:44:13.000Z</time>
      </trkpt>
      <trkpt lat="45.19034" lon="6.34592">
        <ele>1712.4000244141</ele>
        <time>2014-01-11T07:44:14.000Z</time>
      </trkpt>
      <trkpt lat="45.19034" lon="6.34591">
        <ele>1712.4000244141</ele>
        <time>2014-01-11T07:44:15.000Z</time>
      </trkpt>
      <trkpt lat="45.19034" lon="6.34591">
        <ele>1712.4000244141</ele>
        <time>2014-01-11T07:44:16.000Z</time>
      </trkpt>
      <trkpt lat="45.19034" lon="6.34591">
        <ele>1712.4000244141</ele>
        <time>2014-01-11T07:44:17.000Z</time>
      </trkpt>
      <trkpt lat="45.19034" lon="6.34591">
        <ele>1712.4000244141</ele>
        <time>2014-01-11T07:44:19.000Z</time>
      </trkpt>
      <trkpt lat="45.19034" lon="6.34591">
        <ele>1712.4000244141</ele>
        <time>2014-01-11T07:44:20.000Z</time>
      </trkpt>
      <trkpt lat="45.19034" lon="6.34591">
        <ele>1712.4000244141</ele>
        <time>2014-01-11T07:44:21.000Z</time>
      </trkpt>
      <trkpt lat="45.19034" lon="6.34591">
        <ele>1712.4000244141</ele>
        <time>2014-01-11T07:44:22.000Z</time>
      </trkpt>
      <trkpt lat="45.19034" lon="6.34591">
        <ele>1712.4000244141</ele>
        <time>2014-01-11T07:44:23.000Z</time>
      </trkpt>
      <trkpt lat="45.19034" lon="6.34591">
        <ele>1712.4000244141</ele>
        <time>2014-01-11T07:44:24.000Z</time>
      </trkpt>
      <trkpt lat="45.19034" lon="6.34591">
        <ele>1712.4000244141</ele>
        <time>2014-01-11T07:44:28.000Z</time>
      </trkpt>
      <trkpt lat="45.19034" lon="6.34591">
        <ele>1712.4000244141</ele>
        <time>2014-01-11T07:44:30.000Z</time>
      </trkpt>
      <trkpt lat="45.19034" lon="6.34591">
        <ele>1712.5999755859</ele>
        <time>2014-01-11T07:44:31.000Z</time>
      </trkpt>
      <trkpt lat="45.19034" lon="6.34591">
        <ele>1712.5999755859</ele>
        <time>2014-01-11T07:44:32.000Z</time>
      </trkpt>
      <trkpt lat="45.19034" lon="6.34591">
        <ele>1712.5999755859</ele>
        <time>2014-01-11T07:44:34.000Z</time>
      </trkpt>
      <trkpt lat="45.19034" lon="6.34591">
        <ele>1712.5999755859</ele>
        <time>2014-01-11T07:44:36.000Z</time>
      </trkpt>
      <trkpt lat="45.19034" lon="6.34591">
        <ele>1712.5999755859</ele>
        <time>2014-01-11T07:44:37.000Z</time>
      </trkpt>
      <trkpt lat="45.19034" lon="6.34591">
        <ele>1712.5999755859</ele>
        <time>2014-01-11T07:44:38.000Z</time>
      </trkpt>
      <trkpt lat="45.19034" lon="6.34591">
        <ele>1712.5999755859</ele>
        <time>2014-01-11T07:44:39.000Z</time>
      </trkpt>
      <trkpt lat="45.19034" lon="6.34591">
        <ele>1712.5999755859</ele>
        <time>2014-01-11T07:44:40.000Z</time>
      </trkpt>
      <trkpt lat="45.19033" lon="6.34591">
        <ele>1712.5999755859</ele>
        <time>2014-01-11T07:44:41.000Z</time>
      </trkpt>
      <trkpt lat="45.19033" lon="6.34591">
        <ele>1712.5999755859</ele>
        <time>2014-01-11T07:44:42.000Z</time>
      </trkpt>
      <trkpt lat="45.19032" lon="6.34591">
        <ele>1712.5999755859</ele>
        <time>2014-01-11T07:44:43.000Z</time>
      </trkpt>
      <trkpt lat="45.19031" lon="6.34591">
        <ele>1712.5999755859</ele>
        <time>2014-01-11T07:44:45.000Z</time>
      </trkpt>
      <trkpt lat="45.1903" lon="6.34591">
        <ele>1712.5999755859</ele>
        <time>2014-01-11T07:44:46.000Z</time>
      </trkpt>
      <trkpt lat="45.19028" lon="6.34591">
        <ele>1712.8000488281</ele>
        <time>2014-01-11T07:44:47.000Z</time>
      </trkpt>
      <trkpt lat="45.19028" lon="6.3459">
        <ele>1712.8000488281</ele>
        <time>2014-01-11T07:44:48.000Z</time>
      </trkpt>
      <trkpt lat="45.19027" lon="6.3459">
        <ele>1712.8000488281</ele>
        <time>2014-01-11T07:44:49.000Z</time>
      </trkpt>
      <trkpt lat="45.19026" lon="6.3459">
        <ele>1712.8000488281</ele>
        <time>2014-01-11T07:44:50.000Z</time>
      </trkpt>
      <trkpt lat="45.19025" lon="6.34589">
        <ele>1713</ele>
        <time>2014-01-11T07:44:51.000Z</time>
      </trkpt>
      <trkpt lat="45.19023" lon="6.34588">
        <ele>1713</ele>
        <time>2014-01-11T07:44:52.000Z</time>
      </trkpt>
      <trkpt lat="45.19023" lon="6.34587">
        <ele>1713</ele>
        <time>2014-01-11T07:44:53.000Z</time>
      </trkpt>
      <trkpt lat="45.19022" lon="6.34587">
        <ele>1713.1999511719</ele>
        <time>2014-01-11T07:44:54.000Z</time>
      </trkpt>
      <trkpt lat="45.19021" lon="6.34586">
        <ele>1713.1999511719</ele>
        <time>2014-01-11T07:44:55.000Z</time>
      </trkpt>
      <trkpt lat="45.1902" lon="6.34585">
        <ele>1713.1999511719</ele>
        <time>2014-01-11T07:44:56.000Z</time>
      </trkpt>
      <trkpt lat="45.1902" lon="6.34583">
        <ele>1713.4000244141</ele>
        <time>2014-01-11T07:44:57.000Z</time>
      </trkpt>
      <trkpt lat="45.19019" lon="6.34582">
        <ele>1713.4000244141</ele>
        <time>2014-01-11T07:44:58.000Z</time>
      </trkpt>
      <trkpt lat="45.19018" lon="6.3458">
        <ele>1713.4000244141</ele>
        <time>2014-01-11T07:44:59.000Z</time>
      </trkpt>
      <trkpt lat="45.19018" lon="6.34579">
        <ele>1713.4000244141</ele>
        <time>2014-01-11T07:45:00.000Z</time>
      </trkpt>
      <trkpt lat="45.19017" lon="6.34578">
        <ele>1713.4000244141</ele>
        <time>2014-01-11T07:45:01.000Z</time>
      </trkpt>
      <trkpt lat="45.19017" lon="6.34576">
        <ele>1713.4000244141</ele>
        <time>2014-01-11T07:45:02.000Z</time>
      </trkpt>
      <trkpt lat="45.19016" lon="6.34573">
        <ele>1713.4000244141</ele>
        <time>2014-01-11T07:45:03.000Z</time>
      </trkpt>
      <trkpt lat="45.19016" lon="6.34571">
        <ele>1713.5999755859</ele>
        <time>2014-01-11T07:45:04.000Z</time>
      </trkpt>
      <trkpt lat="45.19015" lon="6.34569">
        <ele>1713.5999755859</ele>
        <time>2014-01-11T07:45:05.000Z</time>
      </trkpt>
      <trkpt lat="45.19015" lon="6.34567">
        <ele>1713.8000488281</ele>
        <time>2014-01-11T07:45:06.000Z</time>
      </trkpt>
      <trkpt lat="45.19014" lon="6.34565">
        <ele>1713.8000488281</ele>
        <time>2014-01-11T07:45:07.000Z</time>
      </trkpt>
      <trkpt lat="45.19013" lon="6.34563">
        <ele>1713.8000488281</ele>
        <time>2014-01-11T07:45:08.000Z</time>
      </trkpt>
      <trkpt lat="45.19013" lon="6.34561">
        <ele>1713.8000488281</ele>
        <time>2014-01-11T07:45:09.000Z</time>
      </trkpt>
      <trkpt lat="45.19012" lon="6.34558">
        <ele>1714</ele>
        <time>2014-01-11T07:45:10.000Z</time>
      </trkpt>
      <trkpt lat="45.19011" lon="6.34556">
        <ele>1714</ele>
        <time>2014-01-11T07:45:11.000Z</time>
      </trkpt>
      <trkpt lat="45.19011" lon="6.34555">
        <ele>1714.1999511719</ele>
        <time>2014-01-11T07:45:12.000Z</time>
      </trkpt>
      <trkpt lat="45.1901" lon="6.34553">
        <ele>1714.1999511719</ele>
        <time>2014-01-11T07:45:13.000Z</time>
      </trkpt>
      <trkpt lat="45.1901" lon="6.34551">
        <ele>1714.1999511719</ele>
        <time>2014-01-11T07:45:14.000Z</time>
      </trkpt>
      <trkpt lat="45.19009" lon="6.34549">
        <ele>1714.1999511719</ele>
        <time>2014-01-11T07:45:15.000Z</time>
      </trkpt>
      <trkpt lat="45.19008" lon="6.34547">
        <ele>1714.1999511719</ele>
        <time>2014-01-11T07:45:16.000Z</time>
      </trkpt>
      <trkpt lat="45.19007" lon="6.34546">
        <ele>1714.4000244141</ele>
        <time>2014-01-11T07:45:17.000Z</time>
      </trkpt>
      <trkpt lat="45.19007" lon="6.34544">
        <ele>1714.4000244141</ele>
        <time>2014-01-11T07:45:18.000Z</time>
      </trkpt>
      <trkpt lat="45.19006" lon="6.34543">
        <ele>1714.4000244141</ele>
        <time>2014-01-11T07:45:19.000Z</time>
      </trkpt>
      <trkpt lat="45.19005" lon="6.34542">
        <ele>1714.4000244141</ele>
        <time>2014-01-11T07:45:20.000Z</time>
      </trkpt>
      <trkpt lat="45.19004" lon="6.3454">
        <ele>1714.4000244141</ele>
        <time>2014-01-11T07:45:21.000Z</time>
      </trkpt>
      <trkpt lat="45.19003" lon="6.34538">
        <ele>1714.4000244141</ele>
        <time>2014-01-11T07:45:22.000Z</time>
      </trkpt>
      <trkpt lat="45.19002" lon="6.34536">
        <ele>1714.5999755859</ele>
        <time>2014-01-11T07:45:23.000Z</time>
      </trkpt>
      <trkpt lat="45.19002" lon="6.34534">
        <ele>1714.5999755859</ele>
        <time>2014-01-11T07:45:24.000Z</time>
      </trkpt>
      <trkpt lat="45.19001" lon="6.34533">
        <ele>1714.5999755859</ele>
        <time>2014-01-11T07:45:25.000Z</time>
      </trkpt>
      <trkpt lat="45.19" lon="6.34531">
        <ele>1714.8000488281</ele>
        <time>2014-01-11T07:45:26.000Z</time>
      </trkpt>
      <trkpt lat="45.18999" lon="6.34529">
        <ele>1714.8000488281</ele>
        <time>2014-01-11T07:45:27.000Z</time>
      </trkpt>
      <trkpt lat="45.18998" lon="6.34528">
        <ele>1714.8000488281</ele>
        <time>2014-01-11T07:45:28.000Z</time>
      </trkpt>
      <trkpt lat="45.18997" lon="6.34526">
        <ele>1714.8000488281</ele>
        <time>2014-01-11T07:45:29.000Z</time>
      </trkpt>
      <trkpt lat="45.18996" lon="6.34524">
        <ele>1714.8000488281</ele>
        <time>2014-01-11T07:45:30.000Z</time>
      </trkpt>
      <trkpt lat="45.18996" lon="6.34523">
        <ele>1715</ele>
        <time>2014-01-11T07:45:31.000Z</time>
      </trkpt>
      <trkpt lat="45.18995" lon="6.34522">
        <ele>1715</ele>
        <time>2014-01-11T07:45:32.000Z</time>
      </trkpt>
      <trkpt lat="45.18994" lon="6.3452">
        <ele>1715</ele>
        <time>2014-01-11T07:45:33.000Z</time>
      </trkpt>
      <trkpt lat="45.18994" lon="6.34518">
        <ele>1715.1999511719</ele>
        <time>2014-01-11T07:45:34.000Z</time>
      </trkpt>
      <trkpt lat="45.18993" lon="6.34516">
        <ele>1715.1999511719</ele>
        <time>2014-01-11T07:45:35.000Z</time>
      </trkpt>
      <trkpt lat="45.18992" lon="6.34515">
        <ele>1715.1999511719</ele>
        <time>2014-01-11T07:45:36.000Z</time>
      </trkpt>
      <trkpt lat="45.18992" lon="6.34513">
        <ele>1715.4000244141</ele>
        <time>2014-01-11T07:45:37.000Z</time>
      </trkpt>
      <trkpt lat="45.18992" lon="6.34512">
        <ele>1715.4000244141</ele>
        <time>2014-01-11T07:45:38.000Z</time>
      </trkpt>
      <trkpt lat="45.18991" lon="6.3451">
        <ele>1715.4000244141</ele>
        <time>2014-01-11T07:45:39.000Z</time>
      </trkpt>
      <trkpt lat="45.18991" lon="6.34508">
        <ele>1715.5999755859</ele>
        <time>2014-01-11T07:45:40.000Z</time>
      </trkpt>
      <trkpt lat="45.1899" lon="6.34506">
        <ele>1715.5999755859</ele>
        <time>2014-01-11T07:45:41.000Z</time>
      </trkpt>
      <trkpt lat="45.1899" lon="6.34505">
        <ele>1715.5999755859</ele>
        <time>2014-01-11T07:45:42.000Z</time>
      </trkpt>
      <trkpt lat="45.18989" lon="6.34503">
        <ele>1715.8000488281</ele>
        <time>2014-01-11T07:45:43.000Z</time>
      </trkpt>
      <trkpt lat="45.18989" lon="6.34502">
        <ele>1715.8000488281</ele>
        <time>2014-01-11T07:45:44.000Z</time>
      </trkpt>
      <trkpt lat="45.18988" lon="6.345">
        <ele>1716</ele>
        <time>2014-01-11T07:45:45.000Z</time>
      </trkpt>
      <trkpt lat="45.18988" lon="6.34498">
        <ele>1716</ele>
        <time>2014-01-11T07:45:46.000Z</time>
      </trkpt>
      <trkpt lat="45.18987" lon="6.34496">
        <ele>1716</ele>
        <time>2014-01-11T07:45:47.000Z</time>
      </trkpt>
      <trkpt lat="45.18987" lon="6.34494">
        <ele>1716.1999511719</ele>
        <time>2014-01-11T07:45:48.000Z</time>
      </trkpt>
      <trkpt lat="45.18987" lon="6.34492">
        <ele>1716.1999511719</ele>
        <time>2014-01-11T07:45:49.000Z</time>
      </trkpt>
      <trkpt lat="45.18986" lon="6.3449">
        <ele>1716.4000244141</ele>
        <time>2014-01-11T07:45:50.000Z</time>
      </trkpt>
      <trkpt lat="45.18986" lon="6.34487">
        <ele>1716.4000244141</ele>
        <time>2014-01-11T07:45:51.000Z</time>
      </trkpt>
      <trkpt lat="45.18985" lon="6.34485">
        <ele>1716.5999755859</ele>
        <time>2014-01-11T07:45:52.000Z</time>
      </trkpt>
      <trkpt lat="45.18985" lon="6.34484">
        <ele>1716.5999755859</ele>
        <time>2014-01-11T07:45:53.000Z</time>
      </trkpt>
      <trkpt lat="45.18985" lon="6.34482">
        <ele>1716.5999755859</ele>
        <time>2014-01-11T07:45:54.000Z</time>
      </trkpt>
      <trkpt lat="45.18984" lon="6.34479">
        <ele>1716.5999755859</ele>
        <time>2014-01-11T07:45:55.000Z</time>
      </trkpt>
      <trkpt lat="45.18984" lon="6.34478">
        <ele>1716.5999755859</ele>
        <time>2014-01-11T07:45:56.000Z</time>
      </trkpt>
      <trkpt lat="45.18984" lon="6.34476">
        <ele>1716.8000488281</ele>
        <time>2014-01-11T07:45:57.000Z</time>
      </trkpt>
      <trkpt lat="45.18983" lon="6.34475">
        <ele>1716.8000488281</ele>
        <time>2014-01-11T07:45:58.000Z</time>
      </trkpt>
      <trkpt lat="45.18983" lon="6.34473">
        <ele>1717</ele>
        <time>2014-01-11T07:45:59.000Z</time>
      </trkpt>
      <trkpt lat="45.18983" lon="6.34471">
        <ele>1717</ele>
        <time>2014-01-11T07:46:00.000Z</time>
      </trkpt>
      <trkpt lat="45.18983" lon="6.34469">
        <ele>1717.1999511719</ele>
        <time>2014-01-11T07:46:01.000Z</time>
      </trkpt>
      <trkpt lat="45.18983" lon="6.34468">
        <ele>1717.1999511719</ele>
        <time>2014-01-11T07:46:02.000Z</time>
      </trkpt>
      <trkpt lat="45.18983" lon="6.34466">
        <ele>1717.1999511719</ele>
        <time>2014-01-11T07:46:03.000Z</time>
      </trkpt>
      <trkpt lat="45.18983" lon="6.34464">
        <ele>1717.1999511719</ele>
        <time>2014-01-11T07:46:04.000Z</time>
      </trkpt>
      <trkpt lat="45.18983" lon="6.34463">
        <ele>1717.1999511719</ele>
        <time>2014-01-11T07:46:05.000Z</time>
      </trkpt>
      <trkpt lat="45.18984" lon="6.34462">
        <ele>1717.4000244141</ele>
        <time>2014-01-11T07:46:06.000Z</time>
      </trkpt>
      <trkpt lat="45.18984" lon="6.3446">
        <ele>1717.4000244141</ele>
        <time>2014-01-11T07:46:07.000Z</time>
      </trkpt>
      <trkpt lat="45.18984" lon="6.34458">
        <ele>1717.4000244141</ele>
        <time>2014-01-11T07:46:08.000Z</time>
      </trkpt>
      <trkpt lat="45.18983" lon="6.34455">
        <ele>1717.4000244141</ele>
        <time>2014-01-11T07:46:09.000Z</time>
      </trkpt>
      <trkpt lat="45.18983" lon="6.34453">
        <ele>1717.4000244141</ele>
        <time>2014-01-11T07:46:10.000Z</time>
      </trkpt>
      <trkpt lat="45.18982" lon="6.34452">
        <ele>1717.4000244141</ele>
        <time>2014-01-11T07:46:11.000Z</time>
      </trkpt>
      <trkpt lat="45.18982" lon="6.3445">
        <ele>1717.5999755859</ele>
        <time>2014-01-11T07:46:12.000Z</time>
      </trkpt>
      <trkpt lat="45.18981" lon="6.34447">
        <ele>1717.5999755859</ele>
        <time>2014-01-11T07:46:13.000Z</time>
      </trkpt>
      <trkpt lat="45.1898" lon="6.34445">
        <ele>1717.5999755859</ele>
        <time>2014-01-11T07:46:14.000Z</time>
      </trkpt>
      <trkpt lat="45.18979" lon="6.34443">
        <ele>1717.8000488281</ele>
        <time>2014-01-11T07:46:15.000Z</time>
      </trkpt>
      <trkpt lat="45.18979" lon="6.34442">
        <ele>1717.8000488281</ele>
        <time>2014-01-11T07:46:16.000Z</time>
      </trkpt>
      <trkpt lat="45.18978" lon="6.3444">
        <ele>1718</ele>
        <time>2014-01-11T07:46:17.000Z</time>
      </trkpt>
      <trkpt lat="45.18978" lon="6.34438">
        <ele>1718</ele>
        <time>2014-01-11T07:46:18.000Z</time>
      </trkpt>
      <trkpt lat="45.18978" lon="6.34437">
        <ele>1718</ele>
        <time>2014-01-11T07:46:19.000Z</time>
      </trkpt>
      <trkpt lat="45.18978" lon="6.34436">
        <ele>1718.1999511719</ele>
        <time>2014-01-11T07:46:20.000Z</time>
      </trkpt>
      <trkpt lat="45.18978" lon="6.34434">
        <ele>1718.1999511719</ele>
        <time>2014-01-11T07:46:21.000Z</time>
      </trkpt>
      <trkpt lat="45.18977" lon="6.34432">
        <ele>1718.1999511719</ele>
        <time>2014-01-11T07:46:22.000Z</time>
      </trkpt>
      <trkpt lat="45.18976" lon="6.34431">
        <ele>1718.1999511719</ele>
        <time>2014-01-11T07:46:23.000Z</time>
      </trkpt>
      <trkpt lat="45.18976" lon="6.34429">
        <ele>1718.4000244141</ele>
        <time>2014-01-11T07:46:24.000Z</time>
      </trkpt>
      <trkpt lat="45.18976" lon="6.34427">
        <ele>1718.4000244141</ele>
        <time>2014-01-11T07:46:25.000Z</time>
      </trkpt>
      <trkpt lat="45.18975" lon="6.34425">
        <ele>1718.4000244141</ele>
        <time>2014-01-11T07:46:26.000Z</time>
      </trkpt>
      <trkpt lat="45.18975" lon="6.34424">
        <ele>1718.5999755859</ele>
        <time>2014-01-11T07:46:27.000Z</time>
      </trkpt>
      <trkpt lat="45.18975" lon="6.34422">
        <ele>1718.5999755859</ele>
        <time>2014-01-11T07:46:28.000Z</time>
      </trkpt>
      <trkpt lat="45.18974" lon="6.34421">
        <ele>1718.8000488281</ele>
        <time>2014-01-11T07:46:29.000Z</time>
      </trkpt>
      <trkpt lat="45.18974" lon="6.3442">
        <ele>1718.8000488281</ele>
        <time>2014-01-11T07:46:30.000Z</time>
      </trkpt>
      <trkpt lat="45.18973" lon="6.34418">
        <ele>1718.8000488281</ele>
        <time>2014-01-11T07:46:31.000Z</time>
      </trkpt>
      <trkpt lat="45.18973" lon="6.34417">
        <ele>1719</ele>
        <time>2014-01-11T07:46:32.000Z</time>
      </trkpt>
      <trkpt lat="45.18973" lon="6.34415">
        <ele>1719</ele>
        <time>2014-01-11T07:46:33.000Z</time>
      </trkpt>
      <trkpt lat="45.18972" lon="6.34414">
        <ele>1719.1999511719</ele>
        <time>2014-01-11T07:46:34.000Z</time>
      </trkpt>
      <trkpt lat="45.18972" lon="6.34412">
        <ele>1719.1999511719</ele>
        <time>2014-01-11T07:46:35.000Z</time>
      </trkpt>
      <trkpt lat="45.18971" lon="6.34411">
        <ele>1719.4000244141</ele>
        <time>2014-01-11T07:46:36.000Z</time>
      </trkpt>
      <trkpt lat="45.18971" lon="6.34409">
        <ele>1719.4000244141</ele>
        <time>2014-01-11T07:46:37.000Z</time>
      </trkpt>
      <trkpt lat="45.1897" lon="6.34407">
        <ele>1719.5999755859</ele>
        <time>2014-01-11T07:46:38.000Z</time>
      </trkpt>
      <trkpt lat="45.18969" lon="6.34406">
        <ele>1719.5999755859</ele>
        <time>2014-01-11T07:46:39.000Z</time>
      </trkpt>
      <trkpt lat="45.18969" lon="6.34404">
        <ele>1719.8000488281</ele>
        <time>2014-01-11T07:46:40.000Z</time>
      </trkpt>
      <trkpt lat="45.18968" lon="6.34402">
        <ele>1719.8000488281</ele>
        <time>2014-01-11T07:46:41.000Z</time>
      </trkpt>
      <trkpt lat="45.18968" lon="6.344">
        <ele>1719.8000488281</ele>
        <time>2014-01-11T07:46:42.000Z</time>
      </trkpt>
      <trkpt lat="45.18967" lon="6.34399">
        <ele>1719.8000488281</ele>
        <time>2014-01-11T07:46:43.000Z</time>
      </trkpt>
      <trkpt lat="45.18967" lon="6.34398">
        <ele>1719.8000488281</ele>
        <time>2014-01-11T07:46:44.000Z</time>
      </trkpt>
      <trkpt lat="45.18966" lon="6.34396">
        <ele>1719.8000488281</ele>
        <time>2014-01-11T07:46:45.000Z</time>
      </trkpt>
      <trkpt lat="45.18966" lon="6.34394">
        <ele>1720</ele>
        <time>2014-01-11T07:46:46.000Z</time>
      </trkpt>
      <trkpt lat="45.18965" lon="6.34394">
        <ele>1720.1999511719</ele>
        <time>2014-01-11T07:46:47.000Z</time>
      </trkpt>
      <trkpt lat="45.18965" lon="6.34392">
        <ele>1720.1999511719</ele>
        <time>2014-01-11T07:46:48.000Z</time>
      </trkpt>
      <trkpt lat="45.18964" lon="6.34391">
        <ele>1720.4000244141</ele>
        <time>2014-01-11T07:46:49.000Z</time>
      </trkpt>
      <trkpt lat="45.18963" lon="6.34389">
        <ele>1720.4000244141</ele>
        <time>2014-01-11T07:46:50.000Z</time>
      </trkpt>
      <trkpt lat="45.18963" lon="6.34388">
        <ele>1720.4000244141</ele>
        <time>2014-01-11T07:46:51.000Z</time>
      </trkpt>
      <trkpt lat="45.18962" lon="6.34387">
        <ele>1720.4000244141</ele>
        <time>2014-01-11T07:46:52.000Z</time>
      </trkpt>
      <trkpt lat="45.18961" lon="6.34387">
        <ele>1720.5999755859</ele>
        <time>2014-01-11T07:46:53.000Z</time>
      </trkpt>
      <trkpt lat="45.1896" lon="6.34386">
        <ele>1720.5999755859</ele>
        <time>2014-01-11T07:46:54.000Z</time>
      </trkpt>
      <trkpt lat="45.18959" lon="6.34385">
        <ele>1720.5999755859</ele>
        <time>2014-01-11T07:46:55.000Z</time>
      </trkpt>
      <trkpt lat="45.18958" lon="6.34385">
        <ele>1720.8000488281</ele>
        <time>2014-01-11T07:46:56.000Z</time>
      </trkpt>
      <trkpt lat="45.18957" lon="6.34384">
        <ele>1720.8000488281</ele>
        <time>2014-01-11T07:46:57.000Z</time>
      </trkpt>
      <trkpt lat="45.18956" lon="6.34384">
        <ele>1721</ele>
        <time>2014-01-11T07:46:58.000Z</time>
      </trkpt>
      <trkpt lat="45.18955" lon="6.34383">
        <ele>1721</ele>
        <time>2014-01-11T07:46:59.000Z</time>
      </trkpt>
      <trkpt lat="45.18953" lon="6.34382">
        <ele>1721</ele>
        <time>2014-01-11T07:47:00.000Z</time>
      </trkpt>
      <trkpt lat="45.18951" lon="6.34382">
        <ele>1721.1999511719</ele>
        <time>2014-01-11T07:47:02.000Z</time>
      </trkpt>
      <trkpt lat="45.18949" lon="6.34381">
        <ele>1721.1999511719</ele>
        <time>2014-01-11T07:47:03.000Z</time>
      </trkpt>
      <trkpt lat="45.18948" lon="6.3438">
        <ele>1721.4000244141</ele>
        <time>2014-01-11T07:47:04.000Z</time>
      </trkpt>
      <trkpt lat="45.18947" lon="6.3438">
        <ele>1721.4000244141</ele>
        <time>2014-01-11T07:47:05.000Z</time>
      </trkpt>
      <trkpt lat="45.18946" lon="6.3438">
        <ele>1721.5999755859</ele>
        <time>2014-01-11T07:47:06.000Z</time>
      </trkpt>
      <trkpt lat="45.18944" lon="6.3438">
        <ele>1721.5999755859</ele>
        <time>2014-01-11T07:47:07.000Z</time>
      </trkpt>
      <trkpt lat="45.18943" lon="6.3438">
        <ele>1721.5999755859</ele>
        <time>2014-01-11T07:47:08.000Z</time>
      </trkpt>
      <trkpt lat="45.18942" lon="6.34379">
        <ele>1721.8000488281</ele>
        <time>2014-01-11T07:47:09.000Z</time>
      </trkpt>
      <trkpt lat="45.1894" lon="6.34379">
        <ele>1721.8000488281</ele>
        <time>2014-01-11T07:47:10.000Z</time>
      </trkpt>
      <trkpt lat="45.18938" lon="6.34378">
        <ele>1722</ele>
        <time>2014-01-11T07:47:12.000Z</time>
      </trkpt>
      <trkpt lat="45.18937" lon="6.34378">
        <ele>1722.1999511719</ele>
        <time>2014-01-11T07:47:13.000Z</time>
      </trkpt>
      <trkpt lat="45.18936" lon="6.34378">
        <ele>1722.1999511719</ele>
        <time>2014-01-11T07:47:14.000Z</time>
      </trkpt>
      <trkpt lat="45.18935" lon="6.34377">
        <ele>1722.1999511719</ele>
        <time>2014-01-11T07:47:15.000Z</time>
      </trkpt>
      <trkpt lat="45.18934" lon="6.34377">
        <ele>1722.1999511719</ele>
        <time>2014-01-11T07:47:16.000Z</time>
      </trkpt>
      <trkpt lat="45.18933" lon="6.34377">
        <ele>1722.1999511719</ele>
        <time>2014-01-11T07:47:17.000Z</time>
      </trkpt>
      <trkpt lat="45.18931" lon="6.34377">
        <ele>1722.4000244141</ele>
        <time>2014-01-11T07:47:18.000Z</time>
      </trkpt>
      <trkpt lat="45.1893" lon="6.34378">
        <ele>1722.4000244141</ele>
        <time>2014-01-11T07:47:19.000Z</time>
      </trkpt>
      <trkpt lat="45.18929" lon="6.34377">
        <ele>1722.4000244141</ele>
        <time>2014-01-11T07:47:20.000Z</time>
      </trkpt>
      <trkpt lat="45.18928" lon="6.34377">
        <ele>1722.5999755859</ele>
        <time>2014-01-11T07:47:21.000Z</time>
      </trkpt>
      <trkpt lat="45.18926" lon="6.34378">
        <ele>1722.8000488281</ele>
        <time>2014-01-11T07:47:22.000Z</time>
      </trkpt>
      <trkpt lat="45.18925" lon="6.34378">
        <ele>1722.8000488281</ele>
        <time>2014-01-11T07:47:23.000Z</time>
      </trkpt>
      <trkpt lat="45.18924" lon="6.34378">
        <ele>1723</ele>
        <time>2014-01-11T07:47:24.000Z</time>
      </trkpt>
      <trkpt lat="45.18923" lon="6.34378">
        <ele>1723</ele>
        <time>2014-01-11T07:47:25.000Z</time>
      </trkpt>
      <trkpt lat="45.18921" lon="6.34378">
        <ele>1723</ele>
        <time>2014-01-11T07:47:26.000Z</time>
      </trkpt>
      <trkpt lat="45.1892" lon="6.34378">
        <ele>1723.1999511719</ele>
        <time>2014-01-11T07:47:27.000Z</time>
      </trkpt>
      <trkpt lat="45.18919" lon="6.34378">
        <ele>1723.1999511719</ele>
        <time>2014-01-11T07:47:28.000Z</time>
      </trkpt>
      <trkpt lat="45.18918" lon="6.34378">
        <ele>1723.4000244141</ele>
        <time>2014-01-11T07:47:29.000Z</time>
      </trkpt>
      <trkpt lat="45.18916" lon="6.34379">
        <ele>1723.4000244141</ele>
        <time>2014-01-11T07:47:30.000Z</time>
      </trkpt>
      <trkpt lat="45.18915" lon="6.3438">
        <ele>1723.4000244141</ele>
        <time>2014-01-11T07:47:31.000Z</time>
      </trkpt>
      <trkpt lat="45.18914" lon="6.34381">
        <ele>1723.5999755859</ele>
        <time>2014-01-11T07:47:32.000Z</time>
      </trkpt>
      <trkpt lat="45.18914" lon="6.34382">
        <ele>1723.5999755859</ele>
        <time>2014-01-11T07:47:33.000Z</time>
      </trkpt>
      <trkpt lat="45.18913" lon="6.34384">
        <ele>1723.5999755859</ele>
        <time>2014-01-11T07:47:34.000Z</time>
      </trkpt>
      <trkpt lat="45.18912" lon="6.34384">
        <ele>1723.8000488281</ele>
        <time>2014-01-11T07:47:35.000Z</time>
      </trkpt>
      <trkpt lat="45.18911" lon="6.34386">
        <ele>1723.8000488281</ele>
        <time>2014-01-11T07:47:36.000Z</time>
      </trkpt>
      <trkpt lat="45.1891" lon="6.34387">
        <ele>1724</ele>
        <time>2014-01-11T07:47:37.000Z</time>
      </trkpt>
      <trkpt lat="45.1891" lon="6.34389">
        <ele>1724</ele>
        <time>2014-01-11T07:47:38.000Z</time>
      </trkpt>
      <trkpt lat="45.18909" lon="6.3439">
        <ele>1724.1999511719</ele>
        <time>2014-01-11T07:47:39.000Z</time>
      </trkpt>
      <trkpt lat="45.18908" lon="6.34391">
        <ele>1724.1999511719</ele>
        <time>2014-01-11T07:47:40.000Z</time>
      </trkpt>
      <trkpt lat="45.18907" lon="6.34393">
        <ele>1724.1999511719</ele>
        <time>2014-01-11T07:47:41.000Z</time>
      </trkpt>
      <trkpt lat="45.18907" lon="6.34395">
        <ele>1724.4000244141</ele>
        <time>2014-01-11T07:47:42.000Z</time>
      </trkpt>
      <trkpt lat="45.18906" lon="6.34396">
        <ele>1724.4000244141</ele>
        <time>2014-01-11T07:47:43.000Z</time>
      </trkpt>
      <trkpt lat="45.18905" lon="6.34398">
        <ele>1724.4000244141</ele>
        <time>2014-01-11T07:47:44.000Z</time>
      </trkpt>
      <trkpt lat="45.18905" lon="6.344">
        <ele>1724.4000244141</ele>
        <time>2014-01-11T07:47:45.000Z</time>
      </trkpt>
      <trkpt lat="45.18904" lon="6.34401">
        <ele>1724.5999755859</ele>
        <time>2014-01-11T07:47:46.000Z</time>
      </trkpt>
      <trkpt lat="45.18903" lon="6.34402">
        <ele>1724.5999755859</ele>
        <time>2014-01-11T07:47:47.000Z</time>
      </trkpt>
      <trkpt lat="45.18903" lon="6.34404">
        <ele>1724.8000488281</ele>
        <time>2014-01-11T07:47:48.000Z</time>
      </trkpt>
      <trkpt lat="45.18902" lon="6.34405">
        <ele>1724.8000488281</ele>
        <time>2014-01-11T07:47:49.000Z</time>
      </trkpt>
      <trkpt lat="45.18901" lon="6.34407">
        <ele>1724.8000488281</ele>
        <time>2014-01-11T07:47:50.000Z</time>
      </trkpt>
      <trkpt lat="45.18901" lon="6.34408">
        <ele>1725</ele>
        <time>2014-01-11T07:47:51.000Z</time>
      </trkpt>
      <trkpt lat="45.189" lon="6.3441">
        <ele>1725</ele>
        <time>2014-01-11T07:47:52.000Z</time>
      </trkpt>
      <trkpt lat="45.18899" lon="6.34411">
        <ele>1725.1999511719</ele>
        <time>2014-01-11T07:47:53.000Z</time>
      </trkpt>
      <trkpt lat="45.18898" lon="6.34413">
        <ele>1725.1999511719</ele>
        <time>2014-01-11T07:47:54.000Z</time>
      </trkpt>
      <trkpt lat="45.18897" lon="6.34414">
        <ele>1725.1999511719</ele>
        <time>2014-01-11T07:47:55.000Z</time>
      </trkpt>
      <trkpt lat="45.18896" lon="6.34415">
        <ele>1725.4000244141</ele>
        <time>2014-01-11T07:47:56.000Z</time>
      </trkpt>
      <trkpt lat="45.18896" lon="6.34417">
        <ele>1725.4000244141</ele>
        <time>2014-01-11T07:47:57.000Z</time>
      </trkpt>
      <trkpt lat="45.18895" lon="6.34418">
        <ele>1725.5999755859</ele>
        <time>2014-01-11T07:47:58.000Z</time>
      </trkpt>
      <trkpt lat="45.18894" lon="6.34419">
        <ele>1725.5999755859</ele>
        <time>2014-01-11T07:47:59.000Z</time>
      </trkpt>
      <trkpt lat="45.18893" lon="6.3442">
        <ele>1725.5999755859</ele>
        <time>2014-01-11T07:48:00.000Z</time>
      </trkpt>
      <trkpt lat="45.18892" lon="6.34422">
        <ele>1725.8000488281</ele>
        <time>2014-01-11T07:48:01.000Z</time>
      </trkpt>
      <trkpt lat="45.18891" lon="6.34423">
        <ele>1725.8000488281</ele>
        <time>2014-01-11T07:48:02.000Z</time>
      </trkpt>
      <trkpt lat="45.1889" lon="6.34425">
        <ele>1726</ele>
        <time>2014-01-11T07:48:03.000Z</time>
      </trkpt>
      <trkpt lat="45.18889" lon="6.34426">
        <ele>1726</ele>
        <time>2014-01-11T07:48:04.000Z</time>
      </trkpt>
      <trkpt lat="45.18888" lon="6.34427">
        <ele>1726.1999511719</ele>
        <time>2014-01-11T07:48:05.000Z</time>
      </trkpt>
      <trkpt lat="45.18887" lon="6.34428">
        <ele>1726.4000244141</ele>
        <time>2014-01-11T07:48:06.000Z</time>
      </trkpt>
      <trkpt lat="45.18886" lon="6.34429">
        <ele>1726.4000244141</ele>
        <time>2014-01-11T07:48:07.000Z</time>
      </trkpt>
      <trkpt lat="45.18885" lon="6.3443">
        <ele>1726.4000244141</ele>
        <time>2014-01-11T07:48:08.000Z</time>
      </trkpt>
      <trkpt lat="45.18884" lon="6.34432">
        <ele>1726.5999755859</ele>
        <time>2014-01-11T07:48:09.000Z</time>
      </trkpt>
      <trkpt lat="45.18884" lon="6.34432">
        <ele>1726.5999755859</ele>
        <time>2014-01-11T07:48:10.000Z</time>
      </trkpt>
      <trkpt lat="45.18882" lon="6.34433">
        <ele>1726.8000488281</ele>
        <time>2014-01-11T07:48:11.000Z</time>
      </trkpt>
      <trkpt lat="45.18881" lon="6.34434">
        <ele>1726.8000488281</ele>
        <time>2014-01-11T07:48:12.000Z</time>
      </trkpt>
      <trkpt lat="45.1888" lon="6.34435">
        <ele>1727</ele>
        <time>2014-01-11T07:48:13.000Z</time>
      </trkpt>
      <trkpt lat="45.18879" lon="6.34436">
        <ele>1727</ele>
        <time>2014-01-11T07:48:14.000Z</time>
      </trkpt>
      <trkpt lat="45.18878" lon="6.34436">
        <ele>1727</ele>
        <time>2014-01-11T07:48:15.000Z</time>
      </trkpt>
      <trkpt lat="45.18876" lon="6.34437">
        <ele>1727</ele>
        <time>2014-01-11T07:48:16.000Z</time>
      </trkpt>
      <trkpt lat="45.18875" lon="6.34438">
        <ele>1727.1999511719</ele>
        <time>2014-01-11T07:48:17.000Z</time>
      </trkpt>
      <trkpt lat="45.18874" lon="6.34438">
        <ele>1727.1999511719</ele>
        <time>2014-01-11T07:48:18.000Z</time>
      </trkpt>
      <trkpt lat="45.18873" lon="6.34438">
        <ele>1727.4000244141</ele>
        <time>2014-01-11T07:48:19.000Z</time>
      </trkpt>
      <trkpt lat="45.18871" lon="6.34438">
        <ele>1727.4000244141</ele>
        <time>2014-01-11T07:48:20.000Z</time>
      </trkpt>
      <trkpt lat="45.1887" lon="6.34438">
        <ele>1727.5999755859</ele>
        <time>2014-01-11T07:48:21.000Z</time>
      </trkpt>
      <trkpt lat="45.18869" lon="6.34439">
        <ele>1727.5999755859</ele>
        <time>2014-01-11T07:48:22.000Z</time>
      </trkpt>
      <trkpt lat="45.18868" lon="6.34439">
        <ele>1727.8000488281</ele>
        <time>2014-01-11T07:48:23.000Z</time>
      </trkpt>
      <trkpt lat="45.18866" lon="6.34439">
        <ele>1727.8000488281</ele>
        <time>2014-01-11T07:48:24.000Z</time>
      </trkpt>
      <trkpt lat="45.18865" lon="6.34439">
        <ele>1727.8000488281</ele>
        <time>2014-01-11T07:48:25.000Z</time>
      </trkpt>
      <trkpt lat="45.18864" lon="6.34439">
        <ele>1728</ele>
        <time>2014-01-11T07:48:26.000Z</time>
      </trkpt>
      <trkpt lat="45.18863" lon="6.34439">
        <ele>1728</ele>
        <time>2014-01-11T07:48:27.000Z</time>
      </trkpt>
      <trkpt lat="45.18861" lon="6.34439">
        <ele>1728</ele>
        <time>2014-01-11T07:48:28.000Z</time>
      </trkpt>
      <trkpt lat="45.1886" lon="6.34439">
        <ele>1728</ele>
        <time>2014-01-11T07:48:29.000Z</time>
      </trkpt>
      <trkpt lat="45.18858" lon="6.34439">
        <ele>1728.1999511719</ele>
        <time>2014-01-11T07:48:30.000Z</time>
      </trkpt>
      <trkpt lat="45.18857" lon="6.34438">
        <ele>1728.1999511719</ele>
        <time>2014-01-11T07:48:31.000Z</time>
      </trkpt>
      <trkpt lat="45.18856" lon="6.34438">
        <ele>1728.1999511719</ele>
        <time>2014-01-11T07:48:32.000Z</time>
      </trkpt>
      <trkpt lat="45.18855" lon="6.34438">
        <ele>1728.4000244141</ele>
        <time>2014-01-11T07:48:33.000Z</time>
      </trkpt>
      <trkpt lat="45.18853" lon="6.34439">
        <ele>1728.4000244141</ele>
        <time>2014-01-11T07:48:34.000Z</time>
      </trkpt>
      <trkpt lat="45.18852" lon="6.34439">
        <ele>1728.4000244141</ele>
        <time>2014-01-11T07:48:35.000Z</time>
      </trkpt>
      <trkpt lat="45.18851" lon="6.34438">
        <ele>1728.5999755859</ele>
        <time>2014-01-11T07:48:36.000Z</time>
      </trkpt>
      <trkpt lat="45.18849" lon="6.34439">
        <ele>1728.5999755859</ele>
        <time>2014-01-11T07:48:37.000Z</time>
      </trkpt>
      <trkpt lat="45.18848" lon="6.34439">
        <ele>1728.5999755859</ele>
        <time>2014-01-11T07:48:38.000Z</time>
      </trkpt>
      <trkpt lat="45.18847" lon="6.34439">
        <ele>1728.8000488281</ele>
        <time>2014-01-11T07:48:39.000Z</time>
      </trkpt>
      <trkpt lat="45.18846" lon="6.34439">
        <ele>1728.8000488281</ele>
        <time>2014-01-11T07:48:40.000Z</time>
      </trkpt>
      <trkpt lat="45.18845" lon="6.34439">
        <ele>1728.8000488281</ele>
        <time>2014-01-11T07:48:41.000Z</time>
      </trkpt>
      <trkpt lat="45.18843" lon="6.34439">
        <ele>1729</ele>
        <time>2014-01-11T07:48:42.000Z</time>
      </trkpt>
      <trkpt lat="45.18842" lon="6.3444">
        <ele>1729</ele>
        <time>2014-01-11T07:48:43.000Z</time>
      </trkpt>
      <trkpt lat="45.18841" lon="6.3444">
        <ele>1729.1999511719</ele>
        <time>2014-01-11T07:48:44.000Z</time>
      </trkpt>
      <trkpt lat="45.1884" lon="6.3444">
        <ele>1729.1999511719</ele>
        <time>2014-01-11T07:48:45.000Z</time>
      </trkpt>
      <trkpt lat="45.18838" lon="6.3444">
        <ele>1729.4000244141</ele>
        <time>2014-01-11T07:48:46.000Z</time>
      </trkpt>
      <trkpt lat="45.18837" lon="6.3444">
        <ele>1729.4000244141</ele>
        <time>2014-01-11T07:48:47.000Z</time>
      </trkpt>
      <trkpt lat="45.18836" lon="6.3444">
        <ele>1729.5999755859</ele>
        <time>2014-01-11T07:48:48.000Z</time>
      </trkpt>
      <trkpt lat="45.18835" lon="6.3444">
        <ele>1729.5999755859</ele>
        <time>2014-01-11T07:48:49.000Z</time>
      </trkpt>
      <trkpt lat="45.18833" lon="6.3444">
        <ele>1729.8000488281</ele>
        <time>2014-01-11T07:48:50.000Z</time>
      </trkpt>
      <trkpt lat="45.18832" lon="6.3444">
        <ele>1729.8000488281</ele>
        <time>2014-01-11T07:48:51.000Z</time>
      </trkpt>
      <trkpt lat="45.18831" lon="6.34439">
        <ele>1730</ele>
        <time>2014-01-11T07:48:52.000Z</time>
      </trkpt>
      <trkpt lat="45.18829" lon="6.34439">
        <ele>1730</ele>
        <time>2014-01-11T07:48:53.000Z</time>
      </trkpt>
      <trkpt lat="45.18828" lon="6.3444">
        <ele>1730.1999511719</ele>
        <time>2014-01-11T07:48:54.000Z</time>
      </trkpt>
      <trkpt lat="45.18827" lon="6.3444">
        <ele>1730.1999511719</ele>
        <time>2014-01-11T07:48:55.000Z</time>
      </trkpt>
      <trkpt lat="45.18826" lon="6.3444">
        <ele>1730.1999511719</ele>
        <time>2014-01-11T07:48:56.000Z</time>
      </trkpt>
      <trkpt lat="45.18824" lon="6.3444">
        <ele>1730.4000244141</ele>
        <time>2014-01-11T07:48:57.000Z</time>
      </trkpt>
      <trkpt lat="45.18823" lon="6.3444">
        <ele>1730.5999755859</ele>
        <time>2014-01-11T07:48:58.000Z</time>
      </trkpt>
      <trkpt lat="45.18822" lon="6.3444">
        <ele>1730.5999755859</ele>
        <time>2014-01-11T07:48:59.000Z</time>
      </trkpt>
      <trkpt lat="45.18821" lon="6.3444">
        <ele>1730.8000488281</ele>
        <time>2014-01-11T07:49:00.000Z</time>
      </trkpt>
      <trkpt lat="45.18819" lon="6.34441">
        <ele>1730.8000488281</ele>
        <time>2014-01-11T07:49:01.000Z</time>
      </trkpt>
      <trkpt lat="45.18818" lon="6.34441">
        <ele>1730.8000488281</ele>
        <time>2014-01-11T07:49:02.000Z</time>
      </trkpt>
      <trkpt lat="45.18817" lon="6.34441">
        <ele>1731</ele>
        <time>2014-01-11T07:49:03.000Z</time>
      </trkpt>
      <trkpt lat="45.18816" lon="6.34441">
        <ele>1731</ele>
        <time>2014-01-11T07:49:04.000Z</time>
      </trkpt>
      <trkpt lat="45.18814" lon="6.34441">
        <ele>1731.1999511719</ele>
        <time>2014-01-11T07:49:05.000Z</time>
      </trkpt>
      <trkpt lat="45.18813" lon="6.34441">
        <ele>1731.1999511719</ele>
        <time>2014-01-11T07:49:06.000Z</time>
      </trkpt>
      <trkpt lat="45.18812" lon="6.34442">
        <ele>1731.1999511719</ele>
        <time>2014-01-11T07:49:07.000Z</time>
      </trkpt>
      <trkpt lat="45.18811" lon="6.34442">
        <ele>1731.4000244141</ele>
        <time>2014-01-11T07:49:08.000Z</time>
      </trkpt>
      <trkpt lat="45.18809" lon="6.34442">
        <ele>1731.4000244141</ele>
        <time>2014-01-11T07:49:09.000Z</time>
      </trkpt>
      <trkpt lat="45.18808" lon="6.34442">
        <ele>1731.4000244141</ele>
        <time>2014-01-11T07:49:10.000Z</time>
      </trkpt>
      <trkpt lat="45.18807" lon="6.34442">
        <ele>1731.5999755859</ele>
        <time>2014-01-11T07:49:11.000Z</time>
      </trkpt>
      <trkpt lat="45.18806" lon="6.34442">
        <ele>1731.5999755859</ele>
        <time>2014-01-11T07:49:12.000Z</time>
      </trkpt>
      <trkpt lat="45.18804" lon="6.34443">
        <ele>1731.5999755859</ele>
        <time>2014-01-11T07:49:13.000Z</time>
      </trkpt>
      <trkpt lat="45.18803" lon="6.34443">
        <ele>1731.8000488281</ele>
        <time>2014-01-11T07:49:14.000Z</time>
      </trkpt>
      <trkpt lat="45.18802" lon="6.34443">
        <ele>1731.8000488281</ele>
        <time>2014-01-11T07:49:15.000Z</time>
      </trkpt>
      <trkpt lat="45.18801" lon="6.34443">
        <ele>1731.8000488281</ele>
        <time>2014-01-11T07:49:16.000Z</time>
      </trkpt>
      <trkpt lat="45.188" lon="6.34443">
        <ele>1732</ele>
        <time>2014-01-11T07:49:17.000Z</time>
      </trkpt>
      <trkpt lat="45.18798" lon="6.34443">
        <ele>1732</ele>
        <time>2014-01-11T07:49:18.000Z</time>
      </trkpt>
      <trkpt lat="45.18797" lon="6.34443">
        <ele>1732</ele>
        <time>2014-01-11T07:49:19.000Z</time>
      </trkpt>
      <trkpt lat="45.18796" lon="6.34443">
        <ele>1732</ele>
        <time>2014-01-11T07:49:20.000Z</time>
      </trkpt>
      <trkpt lat="45.18795" lon="6.34442">
        <ele>1732.1999511719</ele>
        <time>2014-01-11T07:49:21.000Z</time>
      </trkpt>
      <trkpt lat="45.18794" lon="6.34442">
        <ele>1732.1999511719</ele>
        <time>2014-01-11T07:49:22.000Z</time>
      </trkpt>
      <trkpt lat="45.18793" lon="6.34441">
        <ele>1732.4000244141</ele>
        <time>2014-01-11T07:49:23.000Z</time>
      </trkpt>
      <trkpt lat="45.18791" lon="6.34441">
        <ele>1732.4000244141</ele>
        <time>2014-01-11T07:49:24.000Z</time>
      </trkpt>
      <trkpt lat="45.1879" lon="6.3444">
        <ele>1732.4000244141</ele>
        <time>2014-01-11T07:49:25.000Z</time>
      </trkpt>
      <trkpt lat="45.18788" lon="6.34439">
        <ele>1732.4000244141</ele>
        <time>2014-01-11T07:49:26.000Z</time>
      </trkpt>
      <trkpt lat="45.18787" lon="6.34439">
        <ele>1732.4000244141</ele>
        <time>2014-01-11T07:49:27.000Z</time>
      </trkpt>
      <trkpt lat="45.18786" lon="6.34438">
        <ele>1732.5999755859</ele>
        <time>2014-01-11T07:49:28.000Z</time>
      </trkpt>
      <trkpt lat="45.18784" lon="6.34438">
        <ele>1732.5999755859</ele>
        <time>2014-01-11T07:49:29.000Z</time>
      </trkpt>
      <trkpt lat="45.18783" lon="6.34438">
        <ele>1732.5999755859</ele>
        <time>2014-01-11T07:49:30.000Z</time>
      </trkpt>
      <trkpt lat="45.18782" lon="6.34438">
        <ele>1732.8000488281</ele>
        <time>2014-01-11T07:49:31.000Z</time>
      </trkpt>
      <trkpt lat="45.18781" lon="6.34438">
        <ele>1732.8000488281</ele>
        <time>2014-01-11T07:49:32.000Z</time>
      </trkpt>
      <trkpt lat="45.18779" lon="6.34437">
        <ele>1733</ele>
        <time>2014-01-11T07:49:33.000Z</time>
      </trkpt>
      <trkpt lat="45.18779" lon="6.34437">
        <ele>1733.1999511719</ele>
        <time>2014-01-11T07:49:34.000Z</time>
      </trkpt>
      <trkpt lat="45.18777" lon="6.34437">
        <ele>1733.4000244141</ele>
        <time>2014-01-11T07:49:35.000Z</time>
      </trkpt>
      <trkpt lat="45.18776" lon="6.34437">
        <ele>1733.4000244141</ele>
        <time>2014-01-11T07:49:36.000Z</time>
      </trkpt>
      <trkpt lat="45.18775" lon="6.34436">
        <ele>1733.5999755859</ele>
        <time>2014-01-11T07:49:37.000Z</time>
      </trkpt>
      <trkpt lat="45.18774" lon="6.34436">
        <ele>1733.5999755859</ele>
        <time>2014-01-11T07:49:38.000Z</time>
      </trkpt>
      <trkpt lat="45.18772" lon="6.34436">
        <ele>1733.5999755859</ele>
        <time>2014-01-11T07:49:39.000Z</time>
      </trkpt>
      <trkpt lat="45.1877" lon="6.34436">
        <ele>1733.8000488281</ele>
        <time>2014-01-11T07:49:40.000Z</time>
      </trkpt>
      <trkpt lat="45.18769" lon="6.34436">
        <ele>1733.8000488281</ele>
        <time>2014-01-11T07:49:41.000Z</time>
      </trkpt>
      <trkpt lat="45.18768" lon="6.34436">
        <ele>1734</ele>
        <time>2014-01-11T07:49:42.000Z</time>
      </trkpt>
      <trkpt lat="45.18767" lon="6.34436">
        <ele>1734</ele>
        <time>2014-01-11T07:49:43.000Z</time>
      </trkpt>
      <trkpt lat="45.18765" lon="6.34436">
        <ele>1734.1999511719</ele>
        <time>2014-01-11T07:49:44.000Z</time>
      </trkpt>
      <trkpt lat="45.18765" lon="6.34436">
        <ele>1734.1999511719</ele>
        <time>2014-01-11T07:49:45.000Z</time>
      </trkpt>
      <trkpt lat="45.18763" lon="6.34436">
        <ele>1734.1999511719</ele>
        <time>2014-01-11T07:49:46.000Z</time>
      </trkpt>
      <trkpt lat="45.18762" lon="6.34436">
        <ele>1734.1999511719</ele>
        <time>2014-01-11T07:49:47.000Z</time>
      </trkpt>
      <trkpt lat="45.18761" lon="6.34436">
        <ele>1734.1999511719</ele>
        <time>2014-01-11T07:49:48.000Z</time>
      </trkpt>
      <trkpt lat="45.1876" lon="6.34436">
        <ele>1734.1999511719</ele>
        <time>2014-01-11T07:49:49.000Z</time>
      </trkpt>
      <trkpt lat="45.18759" lon="6.34436">
        <ele>1734.1999511719</ele>
        <time>2014-01-11T07:49:50.000Z</time>
      </trkpt>
      <trkpt lat="45.18757" lon="6.34436">
        <ele>1734.4000244141</ele>
        <time>2014-01-11T07:49:51.000Z</time>
      </trkpt>
      <trkpt lat="45.18756" lon="6.34436">
        <ele>1734.4000244141</ele>
        <time>2014-01-11T07:49:52.000Z</time>
      </trkpt>
      <trkpt lat="45.18755" lon="6.34436">
        <ele>1734.4000244141</ele>
        <time>2014-01-11T07:49:53.000Z</time>
      </trkpt>
      <trkpt lat="45.18754" lon="6.34435">
        <ele>1734.4000244141</ele>
        <time>2014-01-11T07:49:54.000Z</time>
      </trkpt>
      <trkpt lat="45.18753" lon="6.34435">
        <ele>1734.4000244141</ele>
        <time>2014-01-11T07:49:55.000Z</time>
      </trkpt>
      <trkpt lat="45.18751" lon="6.34434">
        <ele>1734.5999755859</ele>
        <time>2014-01-11T07:49:56.000Z</time>
      </trkpt>
      <trkpt lat="45.1875" lon="6.34434">
        <ele>1734.5999755859</ele>
        <time>2014-01-11T07:49:57.000Z</time>
      </trkpt>
      <trkpt lat="45.18749" lon="6.34433">
        <ele>1734.8000488281</ele>
        <time>2014-01-11T07:49:58.000Z</time>
      </trkpt>
      <trkpt lat="45.18748" lon="6.34433">
        <ele>1734.8000488281</ele>
        <time>2014-01-11T07:49:59.000Z</time>
      </trkpt>
      <trkpt lat="45.18747" lon="6.34432">
        <ele>1734.8000488281</ele>
        <time>2014-01-11T07:50:00.000Z</time>
      </trkpt>
      <trkpt lat="45.18745" lon="6.34431">
        <ele>1735</ele>
        <time>2014-01-11T07:50:01.000Z</time>
      </trkpt>
      <trkpt lat="45.18744" lon="6.3443">
        <ele>1735</ele>
        <time>2014-01-11T07:50:02.000Z</time>
      </trkpt>
      <trkpt lat="45.18743" lon="6.3443">
        <ele>1735</ele>
        <time>2014-01-11T07:50:03.000Z</time>
      </trkpt>
      <trkpt lat="45.18741" lon="6.34429">
        <ele>1735.1999511719</ele>
        <time>2014-01-11T07:50:04.000Z</time>
      </trkpt>
      <trkpt lat="45.1874" lon="6.34429">
        <ele>1735.1999511719</ele>
        <time>2014-01-11T07:50:05.000Z</time>
      </trkpt>
      <trkpt lat="45.18739" lon="6.34428">
        <ele>1735.4000244141</ele>
        <time>2014-01-11T07:50:06.000Z</time>
      </trkpt>
      <trkpt lat="45.18738" lon="6.34428">
        <ele>1735.4000244141</ele>
        <time>2014-01-11T07:50:07.000Z</time>
      </trkpt>
      <trkpt lat="45.18737" lon="6.34428">
        <ele>1735.4000244141</ele>
        <time>2014-01-11T07:50:08.000Z</time>
      </trkpt>
      <trkpt lat="45.18735" lon="6.34427">
        <ele>1735.5999755859</ele>
        <time>2014-01-11T07:50:09.000Z</time>
      </trkpt>
      <trkpt lat="45.18735" lon="6.34427">
        <ele>1735.5999755859</ele>
        <time>2014-01-11T07:50:10.000Z</time>
      </trkpt>
      <trkpt lat="45.18733" lon="6.34427">
        <ele>1735.5999755859</ele>
        <time>2014-01-11T07:50:11.000Z</time>
      </trkpt>
      <trkpt lat="45.18732" lon="6.34426">
        <ele>1735.8000488281</ele>
        <time>2014-01-11T07:50:12.000Z</time>
      </trkpt>
      <trkpt lat="45.18731" lon="6.34426">
        <ele>1735.8000488281</ele>
        <time>2014-01-11T07:50:13.000Z</time>
      </trkpt>
      <trkpt lat="45.1873" lon="6.34425">
        <ele>1735.8000488281</ele>
        <time>2014-01-11T07:50:14.000Z</time>
      </trkpt>
      <trkpt lat="45.18728" lon="6.34425">
        <ele>1735.8000488281</ele>
        <time>2014-01-11T07:50:15.000Z</time>
      </trkpt>
      <trkpt lat="45.18727" lon="6.34424">
        <ele>1735.8000488281</ele>
        <time>2014-01-11T07:50:16.000Z</time>
      </trkpt>
      <trkpt lat="45.18726" lon="6.34423">
        <ele>1735.8000488281</ele>
        <time>2014-01-11T07:50:17.000Z</time>
      </trkpt>
      <trkpt lat="45.18725" lon="6.34422">
        <ele>1736</ele>
        <time>2014-01-11T07:50:18.000Z</time>
      </trkpt>
      <trkpt lat="45.18724" lon="6.34421">
        <ele>1736</ele>
        <time>2014-01-11T07:50:19.000Z</time>
      </trkpt>
      <trkpt lat="45.18723" lon="6.3442">
        <ele>1736</ele>
        <time>2014-01-11T07:50:20.000Z</time>
      </trkpt>
      <trkpt lat="45.18723" lon="6.34419">
        <ele>1736</ele>
        <time>2014-01-11T07:50:21.000Z</time>
      </trkpt>
      <trkpt lat="45.18722" lon="6.34418">
        <ele>1736</ele>
        <time>2014-01-11T07:50:22.000Z</time>
      </trkpt>
      <trkpt lat="45.18721" lon="6.34416">
        <ele>1736.1999511719</ele>
        <time>2014-01-11T07:50:23.000Z</time>
      </trkpt>
      <trkpt lat="45.1872" lon="6.34415">
        <ele>1736.1999511719</ele>
        <time>2014-01-11T07:50:24.000Z</time>
      </trkpt>
      <trkpt lat="45.1872" lon="6.34414">
        <ele>1736.1999511719</ele>
        <time>2014-01-11T07:50:25.000Z</time>
      </trkpt>
      <trkpt lat="45.1872" lon="6.34413">
        <ele>1736.4000244141</ele>
        <time>2014-01-11T07:50:26.000Z</time>
      </trkpt>
      <trkpt lat="45.1872" lon="6.3441">
        <ele>1736.4000244141</ele>
        <time>2014-01-11T07:50:27.000Z</time>
      </trkpt>
      <trkpt lat="45.18719" lon="6.34408">
        <ele>1736.5999755859</ele>
        <time>2014-01-11T07:50:28.000Z</time>
      </trkpt>
      <trkpt lat="45.18719" lon="6.34407">
        <ele>1736.5999755859</ele>
        <time>2014-01-11T07:50:29.000Z</time>
      </trkpt>
      <trkpt lat="45.18719" lon="6.34405">
        <ele>1736.5999755859</ele>
        <time>2014-01-11T07:50:30.000Z</time>
      </trkpt>
      <trkpt lat="45.18719" lon="6.34403">
        <ele>1736.5999755859</ele>
        <time>2014-01-11T07:50:31.000Z</time>
      </trkpt>
      <trkpt lat="45.18719" lon="6.34401">
        <ele>1736.8000488281</ele>
        <time>2014-01-11T07:50:32.000Z</time>
      </trkpt>
      <trkpt lat="45.18719" lon="6.34399">
        <ele>1736.8000488281</ele>
        <time>2014-01-11T07:50:33.000Z</time>
      </trkpt>
      <trkpt lat="45.18719" lon="6.34397">
        <ele>1736.8000488281</ele>
        <time>2014-01-11T07:50:34.000Z</time>
      </trkpt>
      <trkpt lat="45.18719" lon="6.34394">
        <ele>1736.8000488281</ele>
        <time>2014-01-11T07:50:35.000Z</time>
      </trkpt>
      <trkpt lat="45.18719" lon="6.34392">
        <ele>1736.8000488281</ele>
        <time>2014-01-11T07:50:36.000Z</time>
      </trkpt>
      <trkpt lat="45.1872" lon="6.3439">
        <ele>1737</ele>
        <time>2014-01-11T07:50:37.000Z</time>
      </trkpt>
      <trkpt lat="45.1872" lon="6.34388">
        <ele>1737</ele>
        <time>2014-01-11T07:50:38.000Z</time>
      </trkpt>
      <trkpt lat="45.18721" lon="6.34386">
        <ele>1737</ele>
        <time>2014-01-11T07:50:39.000Z</time>
      </trkpt>
      <trkpt lat="45.18722" lon="6.34385">
        <ele>1737</ele>
        <time>2014-01-11T07:50:40.000Z</time>
      </trkpt>
      <trkpt lat="45.18722" lon="6.34383">
        <ele>1737</ele>
        <time>2014-01-11T07:50:41.000Z</time>
      </trkpt>
      <trkpt lat="45.18723" lon="6.34382">
        <ele>1737.1999511719</ele>
        <time>2014-01-11T07:50:42.000Z</time>
      </trkpt>
      <trkpt lat="45.18724" lon="6.34381">
        <ele>1737.1999511719</ele>
        <time>2014-01-11T07:50:43.000Z</time>
      </trkpt>
      <trkpt lat="45.18725" lon="6.34379">
        <ele>1737.1999511719</ele>
        <time>2014-01-11T07:50:44.000Z</time>
      </trkpt>
      <trkpt lat="45.18726" lon="6.34377">
        <ele>1737.1999511719</ele>
        <time>2014-01-11T07:50:45.000Z</time>
      </trkpt>
      <trkpt lat="45.18727" lon="6.34375">
        <ele>1737.1999511719</ele>
        <time>2014-01-11T07:50:46.000Z</time>
      </trkpt>
      <trkpt lat="45.18728" lon="6.34375">
        <ele>1737.1999511719</ele>
        <time>2014-01-11T07:50:47.000Z</time>
      </trkpt>
      <trkpt lat="45.18729" lon="6.34374">
        <ele>1737.4000244141</ele>
        <time>2014-01-11T07:50:48.000Z</time>
      </trkpt>
      <trkpt lat="45.1873" lon="6.34372">
        <ele>1737.4000244141</ele>
        <time>2014-01-11T07:50:49.000Z</time>
      </trkpt>
      <trkpt lat="45.18731" lon="6.3437">
        <ele>1737.4000244141</ele>
        <time>2014-01-11T07:50:50.000Z</time>
      </trkpt>
      <trkpt lat="45.18733" lon="6.3437">
        <ele>1737.4000244141</ele>
        <time>2014-01-11T07:50:51.000Z</time>
      </trkpt>
      <trkpt lat="45.18734" lon="6.34369">
        <ele>1737.4000244141</ele>
        <time>2014-01-11T07:50:52.000Z</time>
      </trkpt>
      <trkpt lat="45.18735" lon="6.34368">
        <ele>1737.4000244141</ele>
        <time>2014-01-11T07:50:53.000Z</time>
      </trkpt>
      <trkpt lat="45.18736" lon="6.34367">
        <ele>1737.5999755859</ele>
        <time>2014-01-11T07:50:54.000Z</time>
      </trkpt>
      <trkpt lat="45.18737" lon="6.34366">
        <ele>1737.5999755859</ele>
        <time>2014-01-11T07:50:55.000Z</time>
      </trkpt>
      <trkpt lat="45.18738" lon="6.34365">
        <ele>1737.5999755859</ele>
        <time>2014-01-11T07:50:56.000Z</time>
      </trkpt>
      <trkpt lat="45.18739" lon="6.34363">
        <ele>1737.5999755859</ele>
        <time>2014-01-11T07:50:57.000Z</time>
      </trkpt>
      <trkpt lat="45.18739" lon="6.34362">
        <ele>1737.8000488281</ele>
        <time>2014-01-11T07:50:58.000Z</time>
      </trkpt>
      <trkpt lat="45.1874" lon="6.34361">
        <ele>1737.8000488281</ele>
        <time>2014-01-11T07:50:59.000Z</time>
      </trkpt>
      <trkpt lat="45.1874" lon="6.34358">
        <ele>1737.8000488281</ele>
        <time>2014-01-11T07:51:00.000Z</time>
      </trkpt>
      <trkpt lat="45.1874" lon="6.34356">
        <ele>1737.8000488281</ele>
        <time>2014-01-11T07:51:01.000Z</time>
      </trkpt>
      <trkpt lat="45.18739" lon="6.34352">
        <ele>1737.8000488281</ele>
        <time>2014-01-11T07:51:05.000Z</time>
      </trkpt>
      <trkpt lat="45.18739" lon="6.34352">
        <ele>1737.8000488281</ele>
        <time>2014-01-11T07:51:06.000Z</time>
      </trkpt>
      <trkpt lat="45.18739" lon="6.34352">
        <ele>1737.8000488281</ele>
        <time>2014-01-11T07:51:08.000Z</time>
      </trkpt>
      <trkpt lat="45.18739" lon="6.34352">
        <ele>1737.8000488281</ele>
        <time>2014-01-11T07:51:09.000Z</time>
      </trkpt>
      <trkpt lat="45.18739" lon="6.34352">
        <ele>1737.8000488281</ele>
        <time>2014-01-11T07:51:10.000Z</time>
      </trkpt>
      <trkpt lat="45.18739" lon="6.34352">
        <ele>1737.8000488281</ele>
        <time>2014-01-11T07:51:11.000Z</time>
      </trkpt>
      <trkpt lat="45.18739" lon="6.34352">
        <ele>1737.8000488281</ele>
        <time>2014-01-11T07:51:13.000Z</time>
      </trkpt>
      <trkpt lat="45.18739" lon="6.34352">
        <ele>1737.8000488281</ele>
        <time>2014-01-11T07:51:14.000Z</time>
      </trkpt>
      <trkpt lat="45.18739" lon="6.34352">
        <ele>1737.8000488281</ele>
        <time>2014-01-11T07:51:17.000Z</time>
      </trkpt>
      <trkpt lat="45.18739" lon="6.34352">
        <ele>1737.8000488281</ele>
        <time>2014-01-11T07:51:18.000Z</time>
      </trkpt>
      <trkpt lat="45.18739" lon="6.34352">
        <ele>1738</ele>
        <time>2014-01-11T07:51:19.000Z</time>
      </trkpt>
      <trkpt lat="45.18739" lon="6.34352">
        <ele>1738</ele>
        <time>2014-01-11T07:51:20.000Z</time>
      </trkpt>
      <trkpt lat="45.18739" lon="6.34352">
        <ele>1738.1999511719</ele>
        <time>2014-01-11T07:51:21.000Z</time>
      </trkpt>
      <trkpt lat="45.18739" lon="6.34352">
        <ele>1738.1999511719</ele>
        <time>2014-01-11T07:51:22.000Z</time>
      </trkpt>
      <trkpt lat="45.18739" lon="6.34352">
        <ele>1738.4000244141</ele>
        <time>2014-01-11T07:51:23.000Z</time>
      </trkpt>
      <trkpt lat="45.18739" lon="6.34352">
        <ele>1738.4000244141</ele>
        <time>2014-01-11T07:51:24.000Z</time>
      </trkpt>
      <trkpt lat="45.18739" lon="6.34352">
        <ele>1738.4000244141</ele>
        <time>2014-01-11T07:51:25.000Z</time>
      </trkpt>
      <trkpt lat="45.18739" lon="6.34352">
        <ele>1738.4000244141</ele>
        <time>2014-01-11T07:51:26.000Z</time>
      </trkpt>
      <trkpt lat="45.18739" lon="6.34352">
        <ele>1738.4000244141</ele>
        <time>2014-01-11T07:51:27.000Z</time>
      </trkpt>
      <trkpt lat="45.18739" lon="6.34354">
        <ele>1738.4000244141</ele>
        <time>2014-01-11T07:51:28.000Z</time>
      </trkpt>
      <trkpt lat="45.18739" lon="6.34354">
        <ele>1738.4000244141</ele>
        <time>2014-01-11T07:51:30.000Z</time>
      </trkpt>
      <trkpt lat="45.18739" lon="6.34354">
        <ele>1738.4000244141</ele>
        <time>2014-01-11T07:51:31.000Z</time>
      </trkpt>
      <trkpt lat="45.18738" lon="6.34354">
        <ele>1738.4000244141</ele>
        <time>2014-01-11T07:51:32.000Z</time>
      </trkpt>
      <trkpt lat="45.18738" lon="6.34354">
        <ele>1738.4000244141</ele>
        <time>2014-01-11T07:51:33.000Z</time>
      </trkpt>
      <trkpt lat="45.18738" lon="6.34355">
        <ele>1738.4000244141</ele>
        <time>2014-01-11T07:51:34.000Z</time>
      </trkpt>
      <trkpt lat="45.18737" lon="6.34356">
        <ele>1738.4000244141</ele>
        <time>2014-01-11T07:51:35.000Z</time>
      </trkpt>
      <trkpt lat="45.18737" lon="6.34358">
        <ele>1738.4000244141</ele>
        <time>2014-01-11T07:51:36.000Z</time>
      </trkpt>
      <trkpt lat="45.18737" lon="6.34359">
        <ele>1738.1999511719</ele>
        <time>2014-01-11T07:51:37.000Z</time>
      </trkpt>
      <trkpt lat="45.18737" lon="6.34361">
        <ele>1738</ele>
        <time>2014-01-11T07:51:38.000Z</time>
      </trkpt>
      <trkpt lat="45.18737" lon="6.34363">
        <ele>1738</ele>
        <time>2014-01-11T07:51:39.000Z</time>
      </trkpt>
      <trkpt lat="45.18737" lon="6.34365">
        <ele>1737.8000488281</ele>
        <time>2014-01-11T07:51:40.000Z</time>
      </trkpt>
      <trkpt lat="45.18736" lon="6.34366">
        <ele>1737.8000488281</ele>
        <time>2014-01-11T07:51:41.000Z</time>
      </trkpt>
      <trkpt lat="45.18736" lon="6.34367">
        <ele>1737.8000488281</ele>
        <time>2014-01-11T07:51:42.000Z</time>
      </trkpt>
      <trkpt lat="45.18735" lon="6.34369">
        <ele>1737.8000488281</ele>
        <time>2014-01-11T07:51:43.000Z</time>
      </trkpt>
      <trkpt lat="45.18734" lon="6.3437">
        <ele>1737.8000488281</ele>
        <time>2014-01-11T07:51:44.000Z</time>
      </trkpt>
      <trkpt lat="45.18732" lon="6.34371">
        <ele>1737.5999755859</ele>
        <time>2014-01-11T07:51:45.000Z</time>
      </trkpt>
      <trkpt lat="45.18731" lon="6.34371">
        <ele>1737.5999755859</ele>
        <time>2014-01-11T07:51:46.000Z</time>
      </trkpt>
      <trkpt lat="45.18731" lon="6.34373">
        <ele>1737.5999755859</ele>
        <time>2014-01-11T07:51:47.000Z</time>
      </trkpt>
      <trkpt lat="45.18729" lon="6.34374">
        <ele>1737.4000244141</ele>
        <time>2014-01-11T07:51:48.000Z</time>
      </trkpt>
      <trkpt lat="45.18728" lon="6.34375">
        <ele>1737.4000244141</ele>
        <time>2014-01-11T07:51:49.000Z</time>
      </trkpt>
      <trkpt lat="45.18727" lon="6.34376">
        <ele>1737.4000244141</ele>
        <time>2014-01-11T07:51:50.000Z</time>
      </trkpt>
      <trkpt lat="45.18727" lon="6.34377">
        <ele>1737.1999511719</ele>
        <time>2014-01-11T07:51:51.000Z</time>
      </trkpt>
      <trkpt lat="45.18726" lon="6.34378">
        <ele>1737.1999511719</ele>
        <time>2014-01-11T07:51:52.000Z</time>
      </trkpt>
      <trkpt lat="45.18725" lon="6.34379">
        <ele>1737</ele>
        <time>2014-01-11T07:51:53.000Z</time>
      </trkpt>
      <trkpt lat="45.18724" lon="6.3438">
        <ele>1737</ele>
        <time>2014-01-11T07:51:54.000Z</time>
      </trkpt>
      <trkpt lat="45.18724" lon="6.34381">
        <ele>1736.8000488281</ele>
        <time>2014-01-11T07:51:55.000Z</time>
      </trkpt>
      <trkpt lat="45.18723" lon="6.34382">
        <ele>1736.8000488281</ele>
        <time>2014-01-11T07:51:56.000Z</time>
      </trkpt>
      <trkpt lat="45.18722" lon="6.34383">
        <ele>1736.8000488281</ele>
        <time>2014-01-11T07:51:57.000Z</time>
      </trkpt>
      <trkpt lat="45.18722" lon="6.34384">
        <ele>1736.8000488281</ele>
        <time>2014-01-11T07:51:58.000Z</time>
      </trkpt>
      <trkpt lat="45.18721" lon="6.34385">
        <ele>1736.5999755859</ele>
        <time>2014-01-11T07:51:59.000Z</time>
      </trkpt>
      <trkpt lat="45.1872" lon="6.34386">
        <ele>1736.5999755859</ele>
        <time>2014-01-11T07:52:00.000Z</time>
      </trkpt>
      <trkpt lat="45.1872" lon="6.34387">
        <ele>1736.4000244141</ele>
        <time>2014-01-11T07:52:01.000Z</time>
      </trkpt>
      <trkpt lat="45.18719" lon="6.34389">
        <ele>1736.4000244141</ele>
        <time>2014-01-11T07:52:02.000Z</time>
      </trkpt>
      <trkpt lat="45.18719" lon="6.3439">
        <ele>1736.4000244141</ele>
        <time>2014-01-11T07:52:03.000Z</time>
      </trkpt>
      <trkpt lat="45.18718" lon="6.34391">
        <ele>1736.4000244141</ele>
        <time>2014-01-11T07:52:04.000Z</time>
      </trkpt>
      <trkpt lat="45.18718" lon="6.34393">
        <ele>1736.1999511719</ele>
        <time>2014-01-11T07:52:05.000Z</time>
      </trkpt>
      <trkpt lat="45.18718" lon="6.34394">
        <ele>1736.1999511719</ele>
        <time>2014-01-11T07:52:06.000Z</time>
      </trkpt>
      <trkpt lat="45.18718" lon="6.34395">
        <ele>1736.1999511719</ele>
        <time>2014-01-11T07:52:07.000Z</time>
      </trkpt>
      <trkpt lat="45.18718" lon="6.34395">
        <ele>1736.1999511719</ele>
        <time>2014-01-11T07:52:09.000Z</time>
      </trkpt>
      <trkpt lat="45.18718" lon="6.34395">
        <ele>1736.1999511719</ele>
        <time>2014-01-11T07:52:10.000Z</time>
      </trkpt>
      <trkpt lat="45.18718" lon="6.34395">
        <ele>1736.1999511719</ele>
        <time>2014-01-11T07:52:11.000Z</time>
      </trkpt>
      <trkpt lat="45.18718" lon="6.34395">
        <ele>1736</ele>
        <time>2014-01-11T07:52:12.000Z</time>
      </trkpt>
      <trkpt lat="45.18718" lon="6.34395">
        <ele>1736</ele>
        <time>2014-01-11T07:52:13.000Z</time>
      </trkpt>
      <trkpt lat="45.18718" lon="6.34395">
        <ele>1736</ele>
        <time>2014-01-11T07:52:14.000Z</time>
      </trkpt>
      <trkpt lat="45.18718" lon="6.34395">
        <ele>1736</ele>
        <time>2014-01-11T07:52:15.000Z</time>
      </trkpt>
      <trkpt lat="45.18718" lon="6.34395">
        <ele>1736</ele>
        <time>2014-01-11T07:52:16.000Z</time>
      </trkpt>
      <trkpt lat="45.18718" lon="6.34395">
        <ele>1736</ele>
        <time>2014-01-11T07:52:17.000Z</time>
      </trkpt>
      <trkpt lat="45.18718" lon="6.34395">
        <ele>1736</ele>
        <time>2014-01-11T07:52:18.000Z</time>
      </trkpt>
      <trkpt lat="45.18718" lon="6.34395">
        <ele>1735.8000488281</ele>
        <time>2014-01-11T07:52:19.000Z</time>
      </trkpt>
      <trkpt lat="45.18718" lon="6.34395">
        <ele>1735.8000488281</ele>
        <time>2014-01-11T07:52:20.000Z</time>
      </trkpt>
      <trkpt lat="45.18718" lon="6.34395">
        <ele>1735.8000488281</ele>
        <time>2014-01-11T07:52:21.000Z</time>
      </trkpt>
      <trkpt lat="45.18718" lon="6.34395">
        <ele>1735.8000488281</ele>
        <time>2014-01-11T07:52:22.000Z</time>
      </trkpt>
      <trkpt lat="45.18717" lon="6.34395">
        <ele>1735.8000488281</ele>
        <time>2014-01-11T07:52:23.000Z</time>
      </trkpt>
      <trkpt lat="45.18717" lon="6.34396">
        <ele>1735.8000488281</ele>
        <time>2014-01-11T07:52:24.000Z</time>
      </trkpt>
      <trkpt lat="45.18717" lon="6.34396">
        <ele>1735.8000488281</ele>
        <time>2014-01-11T07:52:25.000Z</time>
      </trkpt>
      <trkpt lat="45.18717" lon="6.34396">
        <ele>1735.8000488281</ele>
        <time>2014-01-11T07:52:26.000Z</time>
      </trkpt>
      <trkpt lat="45.18717" lon="6.34396">
        <ele>1735.8000488281</ele>
        <time>2014-01-11T07:52:27.000Z</time>
      </trkpt>
      <trkpt lat="45.18717" lon="6.34396">
        <ele>1735.8000488281</ele>
        <time>2014-01-11T07:52:29.000Z</time>
      </trkpt>
      <trkpt lat="45.18717" lon="6.34396">
        <ele>1735.8000488281</ele>
        <time>2014-01-11T07:52:30.000Z</time>
      </trkpt>
      <trkpt lat="45.18717" lon="6.34396">
        <ele>1735.8000488281</ele>
        <time>2014-01-11T07:52:31.000Z</time>
      </trkpt>
      <trkpt lat="45.18717" lon="6.34396">
        <ele>1735.8000488281</ele>
        <time>2014-01-11T07:52:32.000Z</time>
      </trkpt>
      <trkpt lat="45.18717" lon="6.34396">
        <ele>1735.8000488281</ele>
        <time>2014-01-11T07:52:35.000Z</time>
      </trkpt>
      <trkpt lat="45.18717" lon="6.34396">
        <ele>1735.8000488281</ele>
        <time>2014-01-11T07:52:40.000Z</time>
      </trkpt>
      <trkpt lat="45.18717" lon="6.34396">
        <ele>1735.8000488281</ele>
        <time>2014-01-11T07:52:43.000Z</time>
      </trkpt>
      <trkpt lat="45.18717" lon="6.34396">
        <ele>1735.8000488281</ele>
        <time>2014-01-11T07:52:44.000Z</time>
      </trkpt>
      <trkpt lat="45.18717" lon="6.34396">
        <ele>1735.8000488281</ele>
        <time>2014-01-11T07:52:50.000Z</time>
      </trkpt>
      <trkpt lat="45.18716" lon="6.34397">
        <ele>1735.8000488281</ele>
        <time>2014-01-11T07:52:51.000Z</time>
      </trkpt>
      <trkpt lat="45.18715" lon="6.34398">
        <ele>1735.8000488281</ele>
        <time>2014-01-11T07:52:52.000Z</time>
      </trkpt>
      <trkpt lat="45.18715" lon="6.34399">
        <ele>1735.8000488281</ele>
        <time>2014-01-11T07:52:53.000Z</time>
      </trkpt>
      <trkpt lat="45.18715" lon="6.344">
        <ele>1735.8000488281</ele>
        <time>2014-01-11T07:52:54.000Z</time>
      </trkpt>
      <trkpt lat="45.18715" lon="6.34401">
        <ele>1735.8000488281</ele>
        <time>2014-01-11T07:52:55.000Z</time>
      </trkpt>
      <trkpt lat="45.18715" lon="6.34401">
        <ele>1736</ele>
        <time>2014-01-11T07:52:56.000Z</time>
      </trkpt>
      <trkpt lat="45.18715" lon="6.34401">
        <ele>1736.1999511719</ele>
        <time>2014-01-11T07:52:57.000Z</time>
      </trkpt>
      <trkpt lat="45.18715" lon="6.34401">
        <ele>1736.1999511719</ele>
        <time>2014-01-11T07:52:58.000Z</time>
      </trkpt>
      <trkpt lat="45.18715" lon="6.34401">
        <ele>1736.1999511719</ele>
        <time>2014-01-11T07:52:59.000Z</time>
      </trkpt>
      <trkpt lat="45.18715" lon="6.34401">
        <ele>1736.1999511719</ele>
        <time>2014-01-11T07:53:00.000Z</time>
      </trkpt>
      <trkpt lat="45.18715" lon="6.34401">
        <ele>1736.1999511719</ele>
        <time>2014-01-11T07:53:01.000Z</time>
      </trkpt>
      <trkpt lat="45.18715" lon="6.34401">
        <ele>1736.1999511719</ele>
        <time>2014-01-11T07:53:03.000Z</time>
      </trkpt>
      <trkpt lat="45.18715" lon="6.34401">
        <ele>1736.1999511719</ele>
        <time>2014-01-11T07:53:04.000Z</time>
      </trkpt>
      <trkpt lat="45.18715" lon="6.34401">
        <ele>1736.1999511719</ele>
        <time>2014-01-11T07:53:05.000Z</time>
      </trkpt>
      <trkpt lat="45.18715" lon="6.34401">
        <ele>1736.1999511719</ele>
        <time>2014-01-11T07:53:07.000Z</time>
      </trkpt>
      <trkpt lat="45.18715" lon="6.34401">
        <ele>1736.1999511719</ele>
        <time>2014-01-11T07:53:08.000Z</time>
      </trkpt>
      <trkpt lat="45.18715" lon="6.34401">
        <ele>1736.4000244141</ele>
        <time>2014-01-11T07:53:09.000Z</time>
      </trkpt>
      <trkpt lat="45.18715" lon="6.34401">
        <ele>1736.4000244141</ele>
        <time>2014-01-11T07:53:10.000Z</time>
      </trkpt>
      <trkpt lat="45.18715" lon="6.34401">
        <ele>1736.4000244141</ele>
        <time>2014-01-11T07:53:11.000Z</time>
      </trkpt>
      <trkpt lat="45.18715" lon="6.34401">
        <ele>1736.4000244141</ele>
        <time>2014-01-11T07:53:12.000Z</time>
      </trkpt>
      <trkpt lat="45.18715" lon="6.34401">
        <ele>1736.4000244141</ele>
        <time>2014-01-11T07:53:16.000Z</time>
      </trkpt>
      <trkpt lat="45.18715" lon="6.34401">
        <ele>1736.4000244141</ele>
        <time>2014-01-11T07:53:17.000Z</time>
      </trkpt>
      <trkpt lat="45.18715" lon="6.34401">
        <ele>1736.4000244141</ele>
        <time>2014-01-11T07:53:18.000Z</time>
      </trkpt>
      <trkpt lat="45.18715" lon="6.34401">
        <ele>1736.4000244141</ele>
        <time>2014-01-11T07:53:19.000Z</time>
      </trkpt>
      <trkpt lat="45.18715" lon="6.34401">
        <ele>1736.4000244141</ele>
        <time>2014-01-11T07:53:20.000Z</time>
      </trkpt>
      <trkpt lat="45.18715" lon="6.34401">
        <ele>1736.4000244141</ele>
        <time>2014-01-11T07:53:21.000Z</time>
      </trkpt>
      <trkpt lat="45.18715" lon="6.34401">
        <ele>1736.4000244141</ele>
        <time>2014-01-11T07:53:22.000Z</time>
      </trkpt>
      <trkpt lat="45.18715" lon="6.34401">
        <ele>1736.4000244141</ele>
        <time>2014-01-11T07:53:23.000Z</time>
      </trkpt>
      <trkpt lat="45.18715" lon="6.34401">
        <ele>1736.4000244141</ele>
        <time>2014-01-11T07:53:25.000Z</time>
      </trkpt>
      <trkpt lat="45.18715" lon="6.34401">
        <ele>1736.4000244141</ele>
        <time>2014-01-11T07:53:26.000Z</time>
      </trkpt>
      <trkpt lat="45.18715" lon="6.34401">
        <ele>1736.4000244141</ele>
        <time>2014-01-11T07:53:27.000Z</time>
      </trkpt>
      <trkpt lat="45.18715" lon="6.34401">
        <ele>1736.4000244141</ele>
        <time>2014-01-11T07:53:28.000Z</time>
      </trkpt>
      <trkpt lat="45.18715" lon="6.34401">
        <ele>1736.4000244141</ele>
        <time>2014-01-11T07:53:30.000Z</time>
      </trkpt>
      <trkpt lat="45.18715" lon="6.34401">
        <ele>1736.4000244141</ele>
        <time>2014-01-11T07:53:31.000Z</time>
      </trkpt>
      <trkpt lat="45.18715" lon="6.34401">
        <ele>1736.4000244141</ele>
        <time>2014-01-11T07:53:32.000Z</time>
      </trkpt>
      <trkpt lat="45.18716" lon="6.34401">
        <ele>1736.1999511719</ele>
        <time>2014-01-11T07:53:33.000Z</time>
      </trkpt>
      <trkpt lat="45.18716" lon="6.34401">
        <ele>1736.1999511719</ele>
        <time>2014-01-11T07:53:34.000Z</time>
      </trkpt>
      <trkpt lat="45.18716" lon="6.34401">
        <ele>1736.1999511719</ele>
        <time>2014-01-11T07:53:35.000Z</time>
      </trkpt>
      <trkpt lat="45.18716" lon="6.34401">
        <ele>1736.4000244141</ele>
        <time>2014-01-11T07:53:36.000Z</time>
      </trkpt>
      <trkpt lat="45.18716" lon="6.34401">
        <ele>1736.4000244141</ele>
        <time>2014-01-11T07:53:37.000Z</time>
      </trkpt>
      <trkpt lat="45.18716" lon="6.34401">
        <ele>1736.4000244141</ele>
        <time>2014-01-11T07:53:38.000Z</time>
      </trkpt>
      <trkpt lat="45.18716" lon="6.34401">
        <ele>1736.4000244141</ele>
        <time>2014-01-11T07:53:40.000Z</time>
      </trkpt>
      <trkpt lat="45.18716" lon="6.34401">
        <ele>1736.1999511719</ele>
        <time>2014-01-11T07:53:41.000Z</time>
      </trkpt>
      <trkpt lat="45.18716" lon="6.34401">
        <ele>1736.1999511719</ele>
        <time>2014-01-11T07:53:42.000Z</time>
      </trkpt>
      <trkpt lat="45.18716" lon="6.34401">
        <ele>1736.1999511719</ele>
        <time>2014-01-11T07:53:43.000Z</time>
      </trkpt>
      <trkpt lat="45.18716" lon="6.34401">
        <ele>1736</ele>
        <time>2014-01-11T07:53:44.000Z</time>
      </trkpt>
      <trkpt lat="45.18716" lon="6.34401">
        <ele>1736</ele>
        <time>2014-01-11T07:53:45.000Z</time>
      </trkpt>
      <trkpt lat="45.18716" lon="6.34401">
        <ele>1736</ele>
        <time>2014-01-11T07:53:46.000Z</time>
      </trkpt>
      <trkpt lat="45.18716" lon="6.34401">
        <ele>1736</ele>
        <time>2014-01-11T07:53:48.000Z</time>
      </trkpt>
      <trkpt lat="45.18716" lon="6.34401">
        <ele>1736</ele>
        <time>2014-01-11T07:53:52.000Z</time>
      </trkpt>
      <trkpt lat="45.18716" lon="6.34401">
        <ele>1736</ele>
        <time>2014-01-11T07:53:53.000Z</time>
      </trkpt>
      <trkpt lat="45.18716" lon="6.34401">
        <ele>1736</ele>
        <time>2014-01-11T07:53:54.000Z</time>
      </trkpt>
      <trkpt lat="45.18716" lon="6.34401">
        <ele>1736</ele>
        <time>2014-01-11T07:54:00.000Z</time>
      </trkpt>
      <trkpt lat="45.18716" lon="6.34401">
        <ele>1736</ele>
        <time>2014-01-11T07:54:01.000Z</time>
      </trkpt>
      <trkpt lat="45.18716" lon="6.34401">
        <ele>1736</ele>
        <time>2014-01-11T07:54:02.000Z</time>
      </trkpt>
      <trkpt lat="45.18716" lon="6.34401">
        <ele>1736</ele>
        <time>2014-01-11T07:54:03.000Z</time>
      </trkpt>
      <trkpt lat="45.18716" lon="6.34401">
        <ele>1736.1999511719</ele>
        <time>2014-01-11T07:54:04.000Z</time>
      </trkpt>
      <trkpt lat="45.18716" lon="6.34401">
        <ele>1736.1999511719</ele>
        <time>2014-01-11T07:54:05.000Z</time>
      </trkpt>
      <trkpt lat="45.18716" lon="6.34401">
        <ele>1736.1999511719</ele>
        <time>2014-01-11T07:54:09.000Z</time>
      </trkpt>
      <trkpt lat="45.18716" lon="6.34401">
        <ele>1736</ele>
        <time>2014-01-11T07:54:10.000Z</time>
      </trkpt>
      <trkpt lat="45.18716" lon="6.34401">
        <ele>1736</ele>
        <time>2014-01-11T07:54:11.000Z</time>
      </trkpt>
      <trkpt lat="45.18716" lon="6.34401">
        <ele>1736</ele>
        <time>2014-01-11T07:54:12.000Z</time>
      </trkpt>
      <trkpt lat="45.18716" lon="6.34401">
        <ele>1736</ele>
        <time>2014-01-11T07:54:13.000Z</time>
      </trkpt>
      <trkpt lat="45.18716" lon="6.34401">
        <ele>1736</ele>
        <time>2014-01-11T07:54:21.000Z</time>
      </trkpt>
      <trkpt lat="45.18716" lon="6.34401">
        <ele>1736</ele>
        <time>2014-01-11T07:54:22.000Z</time>
      </trkpt>
      <trkpt lat="45.18716" lon="6.34401">
        <ele>1736</ele>
        <time>2014-01-11T07:54:23.000Z</time>
      </trkpt>
      <trkpt lat="45.18716" lon="6.34401">
        <ele>1736</ele>
        <time>2014-01-11T07:54:24.000Z</time>
      </trkpt>
      <trkpt lat="45.18716" lon="6.34401">
        <ele>1736</ele>
        <time>2014-01-11T07:54:25.000Z</time>
      </trkpt>
      <trkpt lat="45.18716" lon="6.34401">
        <ele>1736</ele>
        <time>2014-01-11T07:54:26.000Z</time>
      </trkpt>
      <trkpt lat="45.18716" lon="6.34401">
        <ele>1736</ele>
        <time>2014-01-11T07:54:27.000Z</time>
      </trkpt>
      <trkpt lat="45.18716" lon="6.34401">
        <ele>1736.1999511719</ele>
        <time>2014-01-11T07:54:28.000Z</time>
      </trkpt>
      <trkpt lat="45.18716" lon="6.34401">
        <ele>1736.1999511719</ele>
        <time>2014-01-11T07:54:29.000Z</time>
      </trkpt>
      <trkpt lat="45.18716" lon="6.34401">
        <ele>1736.1999511719</ele>
        <time>2014-01-11T07:54:30.000Z</time>
      </trkpt>
      <trkpt lat="45.18716" lon="6.34401">
        <ele>1736.1999511719</ele>
        <time>2014-01-11T07:54:33.000Z</time>
      </trkpt>
      <trkpt lat="45.18716" lon="6.34401">
        <ele>1736</ele>
        <time>2014-01-11T07:54:34.000Z</time>
      </trkpt>
      <trkpt lat="45.18716" lon="6.34401">
        <ele>1736</ele>
        <time>2014-01-11T07:54:35.000Z</time>
      </trkpt>
      <trkpt lat="45.18716" lon="6.34401">
        <ele>1736</ele>
        <time>2014-01-11T07:54:36.000Z</time>
      </trkpt>
      <trkpt lat="45.18716" lon="6.34401">
        <ele>1736</ele>
        <time>2014-01-11T07:54:37.000Z</time>
      </trkpt>
      <trkpt lat="45.18716" lon="6.34401">
        <ele>1736</ele>
        <time>2014-01-11T07:54:38.000Z</time>
      </trkpt>
      <trkpt lat="45.18716" lon="6.34401">
        <ele>1736</ele>
        <time>2014-01-11T07:54:39.000Z</time>
      </trkpt>
      <trkpt lat="45.18716" lon="6.34401">
        <ele>1736</ele>
        <time>2014-01-11T07:54:40.000Z</time>
      </trkpt>
      <trkpt lat="45.18716" lon="6.34401">
        <ele>1736</ele>
        <time>2014-01-11T07:54:41.000Z</time>
      </trkpt>
      <trkpt lat="45.18716" lon="6.34401">
        <ele>1736</ele>
        <time>2014-01-11T07:54:43.000Z</time>
      </trkpt>
      <trkpt lat="45.18716" lon="6.34401">
        <ele>1736</ele>
        <time>2014-01-11T07:54:44.000Z</time>
      </trkpt>
      <trkpt lat="45.18716" lon="6.34401">
        <ele>1736</ele>
        <time>2014-01-11T07:54:45.000Z</time>
      </trkpt>
      <trkpt lat="45.18716" lon="6.34401">
        <ele>1736</ele>
        <time>2014-01-11T07:54:46.000Z</time>
      </trkpt>
      <trkpt lat="45.18716" lon="6.34401">
        <ele>1736</ele>
        <time>2014-01-11T07:54:47.000Z</time>
      </trkpt>
      <trkpt lat="45.18716" lon="6.34401">
        <ele>1736</ele>
        <time>2014-01-11T07:54:48.000Z</time>
      </trkpt>
      <trkpt lat="45.18716" lon="6.34401">
        <ele>1736</ele>
        <time>2014-01-11T07:54:49.000Z</time>
      </trkpt>
      <trkpt lat="45.18716" lon="6.34401">
        <ele>1736</ele>
        <time>2014-01-11T07:54:51.000Z</time>
      </trkpt>
      <trkpt lat="45.18716" lon="6.34401">
        <ele>1736</ele>
        <time>2014-01-11T07:54:52.000Z</time>
      </trkpt>
      <trkpt lat="45.18716" lon="6.34401">
        <ele>1736</ele>
        <time>2014-01-11T07:54:55.000Z</time>
      </trkpt>
      <trkpt lat="45.18716" lon="6.34401">
        <ele>1736</ele>
        <time>2014-01-11T07:54:56.000Z</time>
      </trkpt>
      <trkpt lat="45.18716" lon="6.34401">
        <ele>1736</ele>
        <time>2014-01-11T07:55:00.000Z</time>
      </trkpt>
      <trkpt lat="45.18716" lon="6.34401">
        <ele>1736</ele>
        <time>2014-01-11T07:55:01.000Z</time>
      </trkpt>
      <trkpt lat="45.18716" lon="6.34401">
        <ele>1736</ele>
        <time>2014-01-11T07:55:02.000Z</time>
      </trkpt>
      <trkpt lat="45.18716" lon="6.34401">
        <ele>1736</ele>
        <time>2014-01-11T07:55:03.000Z</time>
      </trkpt>
      <trkpt lat="45.18716" lon="6.34401">
        <ele>1736.1999511719</ele>
        <time>2014-01-11T07:55:04.000Z</time>
      </trkpt>
      <trkpt lat="45.18716" lon="6.34401">
        <ele>1736.1999511719</ele>
        <time>2014-01-11T07:55:05.000Z</time>
      </trkpt>
      <trkpt lat="45.18716" lon="6.34401">
        <ele>1736.1999511719</ele>
        <time>2014-01-11T07:55:06.000Z</time>
      </trkpt>
      <trkpt lat="45.18716" lon="6.34401">
        <ele>1736.1999511719</ele>
        <time>2014-01-11T07:55:08.000Z</time>
      </trkpt>
      <trkpt lat="45.18716" lon="6.34401">
        <ele>1736</ele>
        <time>2014-01-11T07:55:09.000Z</time>
      </trkpt>
      <trkpt lat="45.18716" lon="6.34401">
        <ele>1736</ele>
        <time>2014-01-11T07:55:10.000Z</time>
      </trkpt>
      <trkpt lat="45.18716" lon="6.34401">
        <ele>1736</ele>
        <time>2014-01-11T07:55:11.000Z</time>
      </trkpt>
      <trkpt lat="45.18716" lon="6.34401">
        <ele>1736</ele>
        <time>2014-01-11T07:55:12.000Z</time>
      </trkpt>
      <trkpt lat="45.18716" lon="6.34401">
        <ele>1736</ele>
        <time>2014-01-11T07:55:15.000Z</time>
      </trkpt>
      <trkpt lat="45.18716" lon="6.34401">
        <ele>1736</ele>
        <time>2014-01-11T07:55:16.000Z</time>
      </trkpt>
      <trkpt lat="45.18716" lon="6.34401">
        <ele>1736</ele>
        <time>2014-01-11T07:55:23.000Z</time>
      </trkpt>
      <trkpt lat="45.18716" lon="6.34401">
        <ele>1736</ele>
        <time>2014-01-11T07:55:26.000Z</time>
      </trkpt>
      <trkpt lat="45.18716" lon="6.34401">
        <ele>1736</ele>
        <time>2014-01-11T07:55:28.000Z</time>
      </trkpt>
      <trkpt lat="45.18716" lon="6.34401">
        <ele>1736</ele>
        <time>2014-01-11T07:55:36.000Z</time>
      </trkpt>
      <trkpt lat="45.18716" lon="6.34401">
        <ele>1736</ele>
        <time>2014-01-11T07:55:39.000Z</time>
      </trkpt>
      <trkpt lat="45.18716" lon="6.34401">
        <ele>1736</ele>
        <time>2014-01-11T07:55:40.000Z</time>
      </trkpt>
      <trkpt lat="45.18716" lon="6.34401">
        <ele>1736</ele>
        <time>2014-01-11T07:55:41.000Z</time>
      </trkpt>
      <trkpt lat="45.18716" lon="6.34401">
        <ele>1736</ele>
        <time>2014-01-11T07:55:42.000Z</time>
      </trkpt>
      <trkpt lat="45.18716" lon="6.34401">
        <ele>1736</ele>
        <time>2014-01-11T07:55:43.000Z</time>
      </trkpt>
      <trkpt lat="45.18716" lon="6.34401">
        <ele>1736</ele>
        <time>2014-01-11T07:55:45.000Z</time>
      </trkpt>
      <trkpt lat="45.18716" lon="6.34401">
        <ele>1736</ele>
        <time>2014-01-11T07:55:46.000Z</time>
      </trkpt>
      <trkpt lat="45.18716" lon="6.34401">
        <ele>1736</ele>
        <time>2014-01-11T07:55:47.000Z</time>
      </trkpt>
      <trkpt lat="45.18716" lon="6.34401">
        <ele>1736</ele>
        <time>2014-01-11T07:55:48.000Z</time>
      </trkpt>
      <trkpt lat="45.18716" lon="6.34401">
        <ele>1736</ele>
        <time>2014-01-11T07:55:49.000Z</time>
      </trkpt>
      <trkpt lat="45.18716" lon="6.34401">
        <ele>1736</ele>
        <time>2014-01-11T07:55:50.000Z</time>
      </trkpt>
      <trkpt lat="45.18716" lon="6.34401">
        <ele>1736</ele>
        <time>2014-01-11T07:55:56.000Z</time>
      </trkpt>
      <trkpt lat="45.18716" lon="6.34401">
        <ele>1736</ele>
        <time>2014-01-11T07:55:57.000Z</time>
      </trkpt>
      <trkpt lat="45.18716" lon="6.34401">
        <ele>1736</ele>
        <time>2014-01-11T07:55:58.000Z</time>
      </trkpt>
      <trkpt lat="45.18716" lon="6.34401">
        <ele>1736</ele>
        <time>2014-01-11T07:55:59.000Z</time>
      </trkpt>
      <trkpt lat="45.18716" lon="6.34401">
        <ele>1736</ele>
        <time>2014-01-11T07:56:00.000Z</time>
      </trkpt>
      <trkpt lat="45.18716" lon="6.34401">
        <ele>1736</ele>
        <time>2014-01-11T07:56:01.000Z</time>
      </trkpt>
      <trkpt lat="45.18716" lon="6.34401">
        <ele>1736</ele>
        <time>2014-01-11T07:56:02.000Z</time>
      </trkpt>
      <trkpt lat="45.18716" lon="6.34401">
        <ele>1736</ele>
        <time>2014-01-11T07:56:03.000Z</time>
      </trkpt>
      <trkpt lat="45.18716" lon="6.34401">
        <ele>1736</ele>
        <time>2014-01-11T07:56:04.000Z</time>
      </trkpt>
      <trkpt lat="45.18716" lon="6.34401">
        <ele>1736</ele>
        <time>2014-01-11T07:56:11.000Z</time>
      </trkpt>
      <trkpt lat="45.18716" lon="6.34401">
        <ele>1736</ele>
        <time>2014-01-11T07:56:12.000Z</time>
      </trkpt>
      <trkpt lat="45.18716" lon="6.34401">
        <ele>1735.8000488281</ele>
        <time>2014-01-11T07:56:13.000Z</time>
      </trkpt>
      <trkpt lat="45.18716" lon="6.34401">
        <ele>1735.8000488281</ele>
        <time>2014-01-11T07:56:14.000Z</time>
      </trkpt>
      <trkpt lat="45.18716" lon="6.34401">
        <ele>1735.8000488281</ele>
        <time>2014-01-11T07:56:15.000Z</time>
      </trkpt>
      <trkpt lat="45.18716" lon="6.34401">
        <ele>1735.8000488281</ele>
        <time>2014-01-11T07:56:21.000Z</time>
      </trkpt>
      <trkpt lat="45.18716" lon="6.34401">
        <ele>1735.8000488281</ele>
        <time>2014-01-11T07:56:24.000Z</time>
      </trkpt>
      <trkpt lat="45.18716" lon="6.34401">
        <ele>1735.8000488281</ele>
        <time>2014-01-11T07:56:26.000Z</time>
      </trkpt>
      <trkpt lat="45.18716" lon="6.34401">
        <ele>1735.8000488281</ele>
        <time>2014-01-11T07:56:27.000Z</time>
      </trkpt>
      <trkpt lat="45.18716" lon="6.34401">
        <ele>1735.8000488281</ele>
        <time>2014-01-11T07:56:28.000Z</time>
      </trkpt>
      <trkpt lat="45.18716" lon="6.34401">
        <ele>1735.8000488281</ele>
        <time>2014-01-11T07:56:31.000Z</time>
      </trkpt>
      <trkpt lat="45.18716" lon="6.34401">
        <ele>1735.8000488281</ele>
        <time>2014-01-11T07:56:32.000Z</time>
      </trkpt>
      <trkpt lat="45.18716" lon="6.34401">
        <ele>1735.8000488281</ele>
        <time>2014-01-11T07:56:35.000Z</time>
      </trkpt>
      <trkpt lat="45.18716" lon="6.34401">
        <ele>1735.8000488281</ele>
        <time>2014-01-11T07:56:37.000Z</time>
      </trkpt>
      <trkpt lat="45.18716" lon="6.34401">
        <ele>1735.8000488281</ele>
        <time>2014-01-11T07:56:38.000Z</time>
      </trkpt>
      <trkpt lat="45.18716" lon="6.34401">
        <ele>1735.8000488281</ele>
        <time>2014-01-11T07:56:39.000Z</time>
      </trkpt>
      <trkpt lat="45.18716" lon="6.34401">
        <ele>1735.8000488281</ele>
        <time>2014-01-11T07:56:42.000Z</time>
      </trkpt>
      <trkpt lat="45.18716" lon="6.34401">
        <ele>1735.8000488281</ele>
        <time>2014-01-11T07:56:43.000Z</time>
      </trkpt>
      <trkpt lat="45.18716" lon="6.34401">
        <ele>1736</ele>
        <time>2014-01-11T07:56:44.000Z</time>
      </trkpt>
      <trkpt lat="45.18716" lon="6.34401">
        <ele>1736</ele>
        <time>2014-01-11T07:56:45.000Z</time>
      </trkpt>
      <trkpt lat="45.18716" lon="6.34401">
        <ele>1736</ele>
        <time>2014-01-11T07:56:46.000Z</time>
      </trkpt>
      <trkpt lat="45.18716" lon="6.34401">
        <ele>1736</ele>
        <time>2014-01-11T07:56:47.000Z</time>
      </trkpt>
      <trkpt lat="45.18716" lon="6.34401">
        <ele>1736</ele>
        <time>2014-01-11T07:56:48.000Z</time>
      </trkpt>
      <trkpt lat="45.18716" lon="6.34401">
        <ele>1736</ele>
        <time>2014-01-11T07:56:49.000Z</time>
      </trkpt>
      <trkpt lat="45.18716" lon="6.34401">
        <ele>1736</ele>
        <time>2014-01-11T07:56:50.000Z</time>
      </trkpt>
      <trkpt lat="45.18716" lon="6.34401">
        <ele>1736</ele>
        <time>2014-01-11T07:56:51.000Z</time>
      </trkpt>
      <trkpt lat="45.18716" lon="6.34401">
        <ele>1736</ele>
        <time>2014-01-11T07:56:52.000Z</time>
      </trkpt>
      <trkpt lat="45.18715" lon="6.34401">
        <ele>1735.8000488281</ele>
        <time>2014-01-11T07:56:53.000Z</time>
      </trkpt>
      <trkpt lat="45.18715" lon="6.34401">
        <ele>1735.8000488281</ele>
        <time>2014-01-11T07:56:54.000Z</time>
      </trkpt>
      <trkpt lat="45.18715" lon="6.34401">
        <ele>1735.8000488281</ele>
        <time>2014-01-11T07:56:55.000Z</time>
      </trkpt>
      <trkpt lat="45.18715" lon="6.34401">
        <ele>1735.8000488281</ele>
        <time>2014-01-11T07:57:00.000Z</time>
      </trkpt>
      <trkpt lat="45.18715" lon="6.34401">
        <ele>1735.8000488281</ele>
        <time>2014-01-11T07:57:04.000Z</time>
      </trkpt>
      <trkpt lat="45.18715" lon="6.34401">
        <ele>1735.8000488281</ele>
        <time>2014-01-11T07:57:05.000Z</time>
      </trkpt>
      <trkpt lat="45.18715" lon="6.34401">
        <ele>1735.8000488281</ele>
        <time>2014-01-11T07:57:07.000Z</time>
      </trkpt>
      <trkpt lat="45.18715" lon="6.34401">
        <ele>1735.8000488281</ele>
        <time>2014-01-11T07:57:08.000Z</time>
      </trkpt>
      <trkpt lat="45.18715" lon="6.34401">
        <ele>1735.8000488281</ele>
        <time>2014-01-11T07:57:09.000Z</time>
      </trkpt>
      <trkpt lat="45.18715" lon="6.34401">
        <ele>1735.8000488281</ele>
        <time>2014-01-11T07:57:10.000Z</time>
      </trkpt>
      <trkpt lat="45.18715" lon="6.34401">
        <ele>1735.8000488281</ele>
        <time>2014-01-11T07:57:11.000Z</time>
      </trkpt>
      <trkpt lat="45.18715" lon="6.34401">
        <ele>1735.5999755859</ele>
        <time>2014-01-11T07:57:12.000Z</time>
      </trkpt>
      <trkpt lat="45.18715" lon="6.34401">
        <ele>1735.5999755859</ele>
        <time>2014-01-11T07:57:13.000Z</time>
      </trkpt>
      <trkpt lat="45.18715" lon="6.34401">
        <ele>1735.5999755859</ele>
        <time>2014-01-11T07:57:16.000Z</time>
      </trkpt>
      <trkpt lat="45.18715" lon="6.34401">
        <ele>1735.8000488281</ele>
        <time>2014-01-11T07:57:17.000Z</time>
      </trkpt>
      <trkpt lat="45.18715" lon="6.34401">
        <ele>1735.8000488281</ele>
        <time>2014-01-11T07:57:18.000Z</time>
      </trkpt>
      <trkpt lat="45.18715" lon="6.34401">
        <ele>1735.8000488281</ele>
        <time>2014-01-11T07:57:19.000Z</time>
      </trkpt>
      <trkpt lat="45.18715" lon="6.34401">
        <ele>1735.8000488281</ele>
        <time>2014-01-11T07:57:23.000Z</time>
      </trkpt>
      <trkpt lat="45.18715" lon="6.34401">
        <ele>1735.8000488281</ele>
        <time>2014-01-11T07:57:24.000Z</time>
      </trkpt>
      <trkpt lat="45.18715" lon="6.34401">
        <ele>1735.5999755859</ele>
        <time>2014-01-11T07:57:25.000Z</time>
      </trkpt>
      <trkpt lat="45.18715" lon="6.34401">
        <ele>1735.5999755859</ele>
        <time>2014-01-11T07:57:26.000Z</time>
      </trkpt>
      <trkpt lat="45.18715" lon="6.34401">
        <ele>1735.5999755859</ele>
        <time>2014-01-11T07:57:28.000Z</time>
      </trkpt>
      <trkpt lat="45.18715" lon="6.34401">
        <ele>1735.5999755859</ele>
        <time>2014-01-11T07:57:29.000Z</time>
      </trkpt>
      <trkpt lat="45.18715" lon="6.34401">
        <ele>1735.5999755859</ele>
        <time>2014-01-11T07:57:30.000Z</time>
      </trkpt>
      <trkpt lat="45.18715" lon="6.34401">
        <ele>1735.5999755859</ele>
        <time>2014-01-11T07:57:31.000Z</time>
      </trkpt>
      <trkpt lat="45.18715" lon="6.34401">
        <ele>1735.5999755859</ele>
        <time>2014-01-11T07:57:32.000Z</time>
      </trkpt>
      <trkpt lat="45.18715" lon="6.34401">
        <ele>1735.5999755859</ele>
        <time>2014-01-11T07:57:33.000Z</time>
      </trkpt>
      <trkpt lat="45.18715" lon="6.34401">
        <ele>1735.5999755859</ele>
        <time>2014-01-11T07:57:34.000Z</time>
      </trkpt>
      <trkpt lat="45.18715" lon="6.34401">
        <ele>1735.8000488281</ele>
        <time>2014-01-11T07:57:35.000Z</time>
      </trkpt>
      <trkpt lat="45.18715" lon="6.34401">
        <ele>1735.8000488281</ele>
        <time>2014-01-11T07:57:36.000Z</time>
      </trkpt>
      <trkpt lat="45.18715" lon="6.34401">
        <ele>1735.8000488281</ele>
        <time>2014-01-11T07:57:37.000Z</time>
      </trkpt>
      <trkpt lat="45.18715" lon="6.34401">
        <ele>1735.8000488281</ele>
        <time>2014-01-11T07:57:38.000Z</time>
      </trkpt>
      <trkpt lat="45.18715" lon="6.34401">
        <ele>1735.8000488281</ele>
        <time>2014-01-11T07:57:39.000Z</time>
      </trkpt>
      <trkpt lat="45.18715" lon="6.34402">
        <ele>1735.8000488281</ele>
        <time>2014-01-11T07:57:40.000Z</time>
      </trkpt>
      <trkpt lat="45.18714" lon="6.34402">
        <ele>1735.8000488281</ele>
        <time>2014-01-11T07:57:41.000Z</time>
      </trkpt>
      <trkpt lat="45.18713" lon="6.34402">
        <ele>1735.5999755859</ele>
        <time>2014-01-11T07:57:42.000Z</time>
      </trkpt>
      <trkpt lat="45.18712" lon="6.34403">
        <ele>1735.8000488281</ele>
        <time>2014-01-11T07:57:43.000Z</time>
      </trkpt>
      <trkpt lat="45.18711" lon="6.34403">
        <ele>1735.8000488281</ele>
        <time>2014-01-11T07:57:44.000Z</time>
      </trkpt>
      <trkpt lat="45.18711" lon="6.34404">
        <ele>1735.8000488281</ele>
        <time>2014-01-11T07:57:45.000Z</time>
      </trkpt>
      <trkpt lat="45.18711" lon="6.34404">
        <ele>1736</ele>
        <time>2014-01-11T07:57:46.000Z</time>
      </trkpt>
      <trkpt lat="45.18711" lon="6.34404">
        <ele>1736.1999511719</ele>
        <time>2014-01-11T07:57:47.000Z</time>
      </trkpt>
      <trkpt lat="45.18711" lon="6.34404">
        <ele>1736.4000244141</ele>
        <time>2014-01-11T07:57:48.000Z</time>
      </trkpt>
      <trkpt lat="45.18711" lon="6.34404">
        <ele>1736.4000244141</ele>
        <time>2014-01-11T07:57:49.000Z</time>
      </trkpt>
      <trkpt lat="45.18711" lon="6.34404">
        <ele>1736.4000244141</ele>
        <time>2014-01-11T07:57:50.000Z</time>
      </trkpt>
      <trkpt lat="45.18711" lon="6.34404">
        <ele>1736.4000244141</ele>
        <time>2014-01-11T07:57:51.000Z</time>
      </trkpt>
      <trkpt lat="45.18711" lon="6.34404">
        <ele>1736.4000244141</ele>
        <time>2014-01-11T07:57:52.000Z</time>
      </trkpt>
      <trkpt lat="45.18711" lon="6.34404">
        <ele>1736.5999755859</ele>
        <time>2014-01-11T07:57:53.000Z</time>
      </trkpt>
      <trkpt lat="45.1871" lon="6.34404">
        <ele>1736.5999755859</ele>
        <time>2014-01-11T07:57:55.000Z</time>
      </trkpt>
      <trkpt lat="45.1871" lon="6.34405">
        <ele>1736.5999755859</ele>
        <time>2014-01-11T07:57:56.000Z</time>
      </trkpt>
      <trkpt lat="45.1871" lon="6.34405">
        <ele>1736.5999755859</ele>
        <time>2014-01-11T07:57:57.000Z</time>
      </trkpt>
      <trkpt lat="45.1871" lon="6.34405">
        <ele>1736.5999755859</ele>
        <time>2014-01-11T07:57:58.000Z</time>
      </trkpt>
      <trkpt lat="45.1871" lon="6.34405">
        <ele>1736.5999755859</ele>
        <time>2014-01-11T07:57:59.000Z</time>
      </trkpt>
      <trkpt lat="45.1871" lon="6.34405">
        <ele>1736.5999755859</ele>
        <time>2014-01-11T07:58:00.000Z</time>
      </trkpt>
      <trkpt lat="45.1871" lon="6.34405">
        <ele>1736.5999755859</ele>
        <time>2014-01-11T07:58:01.000Z</time>
      </trkpt>
      <trkpt lat="45.1871" lon="6.34405">
        <ele>1736.5999755859</ele>
        <time>2014-01-11T07:58:02.000Z</time>
      </trkpt>
      <trkpt lat="45.1871" lon="6.34405">
        <ele>1736.8000488281</ele>
        <time>2014-01-11T07:58:03.000Z</time>
      </trkpt>
      <trkpt lat="45.1871" lon="6.34405">
        <ele>1736.8000488281</ele>
        <time>2014-01-11T07:58:04.000Z</time>
      </trkpt>
      <trkpt lat="45.1871" lon="6.34405">
        <ele>1736.8000488281</ele>
        <time>2014-01-11T07:58:05.000Z</time>
      </trkpt>
      <trkpt lat="45.1871" lon="6.34405">
        <ele>1736.8000488281</ele>
        <time>2014-01-11T07:58:08.000Z</time>
      </trkpt>
      <trkpt lat="45.1871" lon="6.34405">
        <ele>1736.8000488281</ele>
        <time>2014-01-11T07:58:12.000Z</time>
      </trkpt>
      <trkpt lat="45.1871" lon="6.34405">
        <ele>1736.8000488281</ele>
        <time>2014-01-11T07:58:13.000Z</time>
      </trkpt>
      <trkpt lat="45.1871" lon="6.34405">
        <ele>1736.5999755859</ele>
        <time>2014-01-11T07:58:14.000Z</time>
      </trkpt>
      <trkpt lat="45.1871" lon="6.34405">
        <ele>1736.5999755859</ele>
        <time>2014-01-11T07:58:15.000Z</time>
      </trkpt>
      <trkpt lat="45.1871" lon="6.34405">
        <ele>1736.5999755859</ele>
        <time>2014-01-11T07:58:16.000Z</time>
      </trkpt>
      <trkpt lat="45.1871" lon="6.34405">
        <ele>1736.5999755859</ele>
        <time>2014-01-11T07:58:17.000Z</time>
      </trkpt>
      <trkpt lat="45.1871" lon="6.34405">
        <ele>1736.5999755859</ele>
        <time>2014-01-11T07:58:19.000Z</time>
      </trkpt>
      <trkpt lat="45.1871" lon="6.34405">
        <ele>1736.8000488281</ele>
        <time>2014-01-11T07:58:20.000Z</time>
      </trkpt>
      <trkpt lat="45.1871" lon="6.34405">
        <ele>1736.8000488281</ele>
        <time>2014-01-11T07:58:21.000Z</time>
      </trkpt>
      <trkpt lat="45.1871" lon="6.34405">
        <ele>1736.8000488281</ele>
        <time>2014-01-11T07:58:22.000Z</time>
      </trkpt>
      <trkpt lat="45.1871" lon="6.34405">
        <ele>1736.8000488281</ele>
        <time>2014-01-11T07:58:23.000Z</time>
      </trkpt>
      <trkpt lat="45.1871" lon="6.34405">
        <ele>1736.8000488281</ele>
        <time>2014-01-11T07:58:24.000Z</time>
      </trkpt>
      <trkpt lat="45.1871" lon="6.34405">
        <ele>1736.8000488281</ele>
        <time>2014-01-11T07:58:25.000Z</time>
      </trkpt>
      <trkpt lat="45.1871" lon="6.34405">
        <ele>1736.8000488281</ele>
        <time>2014-01-11T07:58:27.000Z</time>
      </trkpt>
      <trkpt lat="45.1871" lon="6.34405">
        <ele>1736.5999755859</ele>
        <time>2014-01-11T07:58:28.000Z</time>
      </trkpt>
      <trkpt lat="45.1871" lon="6.34405">
        <ele>1736.5999755859</ele>
        <time>2014-01-11T07:58:30.000Z</time>
      </trkpt>
      <trkpt lat="45.1871" lon="6.34405">
        <ele>1736.5999755859</ele>
        <time>2014-01-11T07:58:31.000Z</time>
      </trkpt>
      <trkpt lat="45.1871" lon="6.34405">
        <ele>1736.5999755859</ele>
        <time>2014-01-11T07:58:32.000Z</time>
      </trkpt>
      <trkpt lat="45.1871" lon="6.34405">
        <ele>1736.5999755859</ele>
        <time>2014-01-11T07:58:34.000Z</time>
      </trkpt>
      <trkpt lat="45.1871" lon="6.34405">
        <ele>1736.5999755859</ele>
        <time>2014-01-11T07:58:35.000Z</time>
      </trkpt>
      <trkpt lat="45.18709" lon="6.34405">
        <ele>1736.5999755859</ele>
        <time>2014-01-11T07:58:36.000Z</time>
      </trkpt>
      <trkpt lat="45.18708" lon="6.34406">
        <ele>1736.5999755859</ele>
        <time>2014-01-11T07:58:37.000Z</time>
      </trkpt>
      <trkpt lat="45.18706" lon="6.34407">
        <ele>1736.5999755859</ele>
        <time>2014-01-11T07:58:38.000Z</time>
      </trkpt>
      <trkpt lat="45.18705" lon="6.34408">
        <ele>1736.8000488281</ele>
        <time>2014-01-11T07:58:40.000Z</time>
      </trkpt>
      <trkpt lat="45.18704" lon="6.34409">
        <ele>1736.8000488281</ele>
        <time>2014-01-11T07:58:41.000Z</time>
      </trkpt>
      <trkpt lat="45.18703" lon="6.34411">
        <ele>1737</ele>
        <time>2014-01-11T07:58:42.000Z</time>
      </trkpt>
      <trkpt lat="45.18702" lon="6.34411">
        <ele>1737.1999511719</ele>
        <time>2014-01-11T07:58:43.000Z</time>
      </trkpt>
      <trkpt lat="45.18701" lon="6.34412">
        <ele>1737.4000244141</ele>
        <time>2014-01-11T07:58:44.000Z</time>
      </trkpt>
      <trkpt lat="45.18701" lon="6.34413">
        <ele>1737.4000244141</ele>
        <time>2014-01-11T07:58:45.000Z</time>
      </trkpt>
      <trkpt lat="45.187" lon="6.34413">
        <ele>1737.5999755859</ele>
        <time>2014-01-11T07:58:46.000Z</time>
      </trkpt>
      <trkpt lat="45.18699" lon="6.34414">
        <ele>1737.8000488281</ele>
        <time>2014-01-11T07:58:47.000Z</time>
      </trkpt>
      <trkpt lat="45.18698" lon="6.34414">
        <ele>1737.8000488281</ele>
        <time>2014-01-11T07:58:48.000Z</time>
      </trkpt>
      <trkpt lat="45.18698" lon="6.34415">
        <ele>1738</ele>
        <time>2014-01-11T07:58:49.000Z</time>
      </trkpt>
      <trkpt lat="45.18697" lon="6.34416">
        <ele>1738.1999511719</ele>
        <time>2014-01-11T07:58:50.000Z</time>
      </trkpt>
      <trkpt lat="45.18696" lon="6.34417">
        <ele>1738.1999511719</ele>
        <time>2014-01-11T07:58:51.000Z</time>
      </trkpt>
      <trkpt lat="45.18695" lon="6.34418">
        <ele>1738.4000244141</ele>
        <time>2014-01-11T07:58:52.000Z</time>
      </trkpt>
      <trkpt lat="45.18695" lon="6.34419">
        <ele>1738.5999755859</ele>
        <time>2014-01-11T07:58:53.000Z</time>
      </trkpt>
      <trkpt lat="45.18694" lon="6.34419">
        <ele>1738.5999755859</ele>
        <time>2014-01-11T07:58:54.000Z</time>
      </trkpt>
      <trkpt lat="45.18694" lon="6.3442">
        <ele>1738.8000488281</ele>
        <time>2014-01-11T07:58:55.000Z</time>
      </trkpt>
      <trkpt lat="45.18693" lon="6.34421">
        <ele>1739</ele>
        <time>2014-01-11T07:58:56.000Z</time>
      </trkpt>
      <trkpt lat="45.18692" lon="6.34421">
        <ele>1739.1999511719</ele>
        <time>2014-01-11T07:58:57.000Z</time>
      </trkpt>
      <trkpt lat="45.18691" lon="6.34422">
        <ele>1739.4000244141</ele>
        <time>2014-01-11T07:58:58.000Z</time>
      </trkpt>
      <trkpt lat="45.18691" lon="6.34423">
        <ele>1739.4000244141</ele>
        <time>2014-01-11T07:58:59.000Z</time>
      </trkpt>
      <trkpt lat="45.1869" lon="6.34423">
        <ele>1739.5999755859</ele>
        <time>2014-01-11T07:59:00.000Z</time>
      </trkpt>
      <trkpt lat="45.18689" lon="6.34424">
        <ele>1739.8000488281</ele>
        <time>2014-01-11T07:59:01.000Z</time>
      </trkpt>
      <trkpt lat="45.18689" lon="6.34424">
        <ele>1740</ele>
        <time>2014-01-11T07:59:02.000Z</time>
      </trkpt>
      <trkpt lat="45.18688" lon="6.34425">
        <ele>1740.1999511719</ele>
        <time>2014-01-11T07:59:03.000Z</time>
      </trkpt>
      <trkpt lat="45.18687" lon="6.34425">
        <ele>1740.4000244141</ele>
        <time>2014-01-11T07:59:04.000Z</time>
      </trkpt>
      <trkpt lat="45.18687" lon="6.34426">
        <ele>1740.5999755859</ele>
        <time>2014-01-11T07:59:05.000Z</time>
      </trkpt>
      <trkpt lat="45.18686" lon="6.34426">
        <ele>1740.5999755859</ele>
        <time>2014-01-11T07:59:06.000Z</time>
      </trkpt>
      <trkpt lat="45.18686" lon="6.34427">
        <ele>1740.8000488281</ele>
        <time>2014-01-11T07:59:07.000Z</time>
      </trkpt>
      <trkpt lat="45.18684" lon="6.34428">
        <ele>1741</ele>
        <time>2014-01-11T07:59:08.000Z</time>
      </trkpt>
      <trkpt lat="45.18684" lon="6.34428">
        <ele>1741.1999511719</ele>
        <time>2014-01-11T07:59:09.000Z</time>
      </trkpt>
      <trkpt lat="45.18683" lon="6.34429">
        <ele>1741.1999511719</ele>
        <time>2014-01-11T07:59:10.000Z</time>
      </trkpt>
      <trkpt lat="45.18682" lon="6.3443">
        <ele>1741.5999755859</ele>
        <time>2014-01-11T07:59:11.000Z</time>
      </trkpt>
      <trkpt lat="45.18682" lon="6.3443">
        <ele>1741.5999755859</ele>
        <time>2014-01-11T07:59:12.000Z</time>
      </trkpt>
      <trkpt lat="45.18681" lon="6.34431">
        <ele>1741.8000488281</ele>
        <time>2014-01-11T07:59:13.000Z</time>
      </trkpt>
      <trkpt lat="45.1868" lon="6.34431">
        <ele>1742</ele>
        <time>2014-01-11T07:59:14.000Z</time>
      </trkpt>
      <trkpt lat="45.1868" lon="6.34432">
        <ele>1742.1999511719</ele>
        <time>2014-01-11T07:59:15.000Z</time>
      </trkpt>
      <trkpt lat="45.18679" lon="6.34433">
        <ele>1742.1999511719</ele>
        <time>2014-01-11T07:59:16.000Z</time>
      </trkpt>
      <trkpt lat="45.18679" lon="6.34434">
        <ele>1742.4000244141</ele>
        <time>2014-01-11T07:59:17.000Z</time>
      </trkpt>
      <trkpt lat="45.18678" lon="6.34435">
        <ele>1742.5999755859</ele>
        <time>2014-01-11T07:59:18.000Z</time>
      </trkpt>
      <trkpt lat="45.18678" lon="6.34435">
        <ele>1742.8000488281</ele>
        <time>2014-01-11T07:59:19.000Z</time>
      </trkpt>
      <trkpt lat="45.18677" lon="6.34436">
        <ele>1743</ele>
        <time>2014-01-11T07:59:20.000Z</time>
      </trkpt>
      <trkpt lat="45.18676" lon="6.34437">
        <ele>1743.1999511719</ele>
        <time>2014-01-11T07:59:21.000Z</time>
      </trkpt>
      <trkpt lat="45.18676" lon="6.34437">
        <ele>1743.1999511719</ele>
        <time>2014-01-11T07:59:22.000Z</time>
      </trkpt>
      <trkpt lat="45.18675" lon="6.34437">
        <ele>1743.4000244141</ele>
        <time>2014-01-11T07:59:23.000Z</time>
      </trkpt>
      <trkpt lat="45.18675" lon="6.34438">
        <ele>1743.4000244141</ele>
        <time>2014-01-11T07:59:24.000Z</time>
      </trkpt>
      <trkpt lat="45.18674" lon="6.34439">
        <ele>1743.5999755859</ele>
        <time>2014-01-11T07:59:25.000Z</time>
      </trkpt>
      <trkpt lat="45.18674" lon="6.3444">
        <ele>1743.8000488281</ele>
        <time>2014-01-11T07:59:26.000Z</time>
      </trkpt>
      <trkpt lat="45.18673" lon="6.3444">
        <ele>1743.8000488281</ele>
        <time>2014-01-11T07:59:27.000Z</time>
      </trkpt>
      <trkpt lat="45.18672" lon="6.34441">
        <ele>1743.8000488281</ele>
        <time>2014-01-11T07:59:28.000Z</time>
      </trkpt>
      <trkpt lat="45.18671" lon="6.34442">
        <ele>1744</ele>
        <time>2014-01-11T07:59:29.000Z</time>
      </trkpt>
      <trkpt lat="45.1867" lon="6.34443">
        <ele>1744</ele>
        <time>2014-01-11T07:59:30.000Z</time>
      </trkpt>
      <trkpt lat="45.1867" lon="6.34444">
        <ele>1744.1999511719</ele>
        <time>2014-01-11T07:59:31.000Z</time>
      </trkpt>
      <trkpt lat="45.18669" lon="6.34445">
        <ele>1744.1999511719</ele>
        <time>2014-01-11T07:59:32.000Z</time>
      </trkpt>
      <trkpt lat="45.18669" lon="6.34446">
        <ele>1744.4000244141</ele>
        <time>2014-01-11T07:59:33.000Z</time>
      </trkpt>
      <trkpt lat="45.18669" lon="6.34447">
        <ele>1744.5999755859</ele>
        <time>2014-01-11T07:59:34.000Z</time>
      </trkpt>
      <trkpt lat="45.18668" lon="6.34447">
        <ele>1745</ele>
        <time>2014-01-11T07:59:35.000Z</time>
      </trkpt>
      <trkpt lat="45.18668" lon="6.34447">
        <ele>1745</ele>
        <time>2014-01-11T07:59:36.000Z</time>
      </trkpt>
      <trkpt lat="45.18668" lon="6.34447">
        <ele>1745.1999511719</ele>
        <time>2014-01-11T07:59:37.000Z</time>
      </trkpt>
      <trkpt lat="45.18668" lon="6.34447">
        <ele>1745.1999511719</ele>
        <time>2014-01-11T07:59:38.000Z</time>
      </trkpt>
      <trkpt lat="45.18668" lon="6.34447">
        <ele>1745.1999511719</ele>
        <time>2014-01-11T07:59:39.000Z</time>
      </trkpt>
      <trkpt lat="45.18668" lon="6.34447">
        <ele>1745.1999511719</ele>
        <time>2014-01-11T07:59:40.000Z</time>
      </trkpt>
      <trkpt lat="45.18668" lon="6.34447">
        <ele>1745.1999511719</ele>
        <time>2014-01-11T07:59:41.000Z</time>
      </trkpt>
      <trkpt lat="45.18668" lon="6.34447">
        <ele>1745</ele>
        <time>2014-01-11T07:59:42.000Z</time>
      </trkpt>
      <trkpt lat="45.18668" lon="6.34447">
        <ele>1745</ele>
        <time>2014-01-11T07:59:43.000Z</time>
      </trkpt>
      <trkpt lat="45.18668" lon="6.34447">
        <ele>1745</ele>
        <time>2014-01-11T07:59:44.000Z</time>
      </trkpt>
      <trkpt lat="45.18668" lon="6.34448">
        <ele>1745</ele>
        <time>2014-01-11T07:59:45.000Z</time>
      </trkpt>
      <trkpt lat="45.18667" lon="6.34449">
        <ele>1745.1999511719</ele>
        <time>2014-01-11T07:59:46.000Z</time>
      </trkpt>
      <trkpt lat="45.18667" lon="6.34449">
        <ele>1745.1999511719</ele>
        <time>2014-01-11T07:59:47.000Z</time>
      </trkpt>
      <trkpt lat="45.18666" lon="6.3445">
        <ele>1745.4000244141</ele>
        <time>2014-01-11T07:59:48.000Z</time>
      </trkpt>
      <trkpt lat="45.18665" lon="6.34452">
        <ele>1745.4000244141</ele>
        <time>2014-01-11T07:59:49.000Z</time>
      </trkpt>
      <trkpt lat="45.18665" lon="6.34452">
        <ele>1745.5999755859</ele>
        <time>2014-01-11T07:59:50.000Z</time>
      </trkpt>
      <trkpt lat="45.18664" lon="6.34453">
        <ele>1745.5999755859</ele>
        <time>2014-01-11T07:59:51.000Z</time>
      </trkpt>
      <trkpt lat="45.18663" lon="6.34454">
        <ele>1745.8000488281</ele>
        <time>2014-01-11T07:59:52.000Z</time>
      </trkpt>
      <trkpt lat="45.18662" lon="6.34455">
        <ele>1745.8000488281</ele>
        <time>2014-01-11T07:59:53.000Z</time>
      </trkpt>
      <trkpt lat="45.18661" lon="6.34456">
        <ele>1745.8000488281</ele>
        <time>2014-01-11T07:59:54.000Z</time>
      </trkpt>
      <trkpt lat="45.18661" lon="6.34456">
        <ele>1746</ele>
        <time>2014-01-11T07:59:55.000Z</time>
      </trkpt>
      <trkpt lat="45.1866" lon="6.34457">
        <ele>1746</ele>
        <time>2014-01-11T07:59:56.000Z</time>
      </trkpt>
      <trkpt lat="45.18659" lon="6.34458">
        <ele>1746.1999511719</ele>
        <time>2014-01-11T07:59:57.000Z</time>
      </trkpt>
      <trkpt lat="45.18658" lon="6.34458">
        <ele>1746.4000244141</ele>
        <time>2014-01-11T07:59:58.000Z</time>
      </trkpt>
      <trkpt lat="45.18657" lon="6.34459">
        <ele>1746.8000488281</ele>
        <time>2014-01-11T07:59:59.000Z</time>
      </trkpt>
      <trkpt lat="45.18656" lon="6.3446">
        <ele>1747</ele>
        <time>2014-01-11T08:00:00.000Z</time>
      </trkpt>
      <trkpt lat="45.18656" lon="6.3446">
        <ele>1747.1999511719</ele>
        <time>2014-01-11T08:00:01.000Z</time>
      </trkpt>
      <trkpt lat="45.18655" lon="6.34461">
        <ele>1747.4000244141</ele>
        <time>2014-01-11T08:00:02.000Z</time>
      </trkpt>
      <trkpt lat="45.18654" lon="6.34463">
        <ele>1747.5999755859</ele>
        <time>2014-01-11T08:00:03.000Z</time>
      </trkpt>
      <trkpt lat="45.18654" lon="6.34463">
        <ele>1747.8000488281</ele>
        <time>2014-01-11T08:00:04.000Z</time>
      </trkpt>
      <trkpt lat="45.18653" lon="6.34463">
        <ele>1748</ele>
        <time>2014-01-11T08:00:05.000Z</time>
      </trkpt>
      <trkpt lat="45.18653" lon="6.34463">
        <ele>1748.1999511719</ele>
        <time>2014-01-11T08:00:06.000Z</time>
      </trkpt>
      <trkpt lat="45.18652" lon="6.34464">
        <ele>1748.4000244141</ele>
        <time>2014-01-11T08:00:07.000Z</time>
      </trkpt>
      <trkpt lat="45.18651" lon="6.34465">
        <ele>1748.5999755859</ele>
        <time>2014-01-11T08:00:08.000Z</time>
      </trkpt>
      <trkpt lat="45.18651" lon="6.34465">
        <ele>1748.8000488281</ele>
        <time>2014-01-11T08:00:09.000Z</time>
      </trkpt>
      <trkpt lat="45.1865" lon="6.34466">
        <ele>1749</ele>
        <time>2014-01-11T08:00:10.000Z</time>
      </trkpt>
      <trkpt lat="45.18649" lon="6.34466">
        <ele>1749.1999511719</ele>
        <time>2014-01-11T08:00:11.000Z</time>
      </trkpt>
      <trkpt lat="45.18649" lon="6.34466">
        <ele>1749.4000244141</ele>
        <time>2014-01-11T08:00:12.000Z</time>
      </trkpt>
      <trkpt lat="45.18648" lon="6.34468">
        <ele>1749.5999755859</ele>
        <time>2014-01-11T08:00:13.000Z</time>
      </trkpt>
      <trkpt lat="45.18647" lon="6.34468">
        <ele>1749.8000488281</ele>
        <time>2014-01-11T08:00:14.000Z</time>
      </trkpt>
      <trkpt lat="45.18647" lon="6.34468">
        <ele>1750</ele>
        <time>2014-01-11T08:00:15.000Z</time>
      </trkpt>
      <trkpt lat="45.18646" lon="6.34469">
        <ele>1750.1999511719</ele>
        <time>2014-01-11T08:00:16.000Z</time>
      </trkpt>
      <trkpt lat="45.18646" lon="6.3447">
        <ele>1750.4000244141</ele>
        <time>2014-01-11T08:00:17.000Z</time>
      </trkpt>
      <trkpt lat="45.18645" lon="6.3447">
        <ele>1750.5999755859</ele>
        <time>2014-01-11T08:00:18.000Z</time>
      </trkpt>
      <trkpt lat="45.18645" lon="6.3447">
        <ele>1750.8000488281</ele>
        <time>2014-01-11T08:00:19.000Z</time>
      </trkpt>
      <trkpt lat="45.18644" lon="6.34471">
        <ele>1750.8000488281</ele>
        <time>2014-01-11T08:00:20.000Z</time>
      </trkpt>
      <trkpt lat="45.18643" lon="6.34472">
        <ele>1751</ele>
        <time>2014-01-11T08:00:21.000Z</time>
      </trkpt>
      <trkpt lat="45.18642" lon="6.34473">
        <ele>1751.1999511719</ele>
        <time>2014-01-11T08:00:22.000Z</time>
      </trkpt>
      <trkpt lat="45.18641" lon="6.34474">
        <ele>1751.4000244141</ele>
        <time>2014-01-11T08:00:23.000Z</time>
      </trkpt>
      <trkpt lat="45.1864" lon="6.34475">
        <ele>1751.5999755859</ele>
        <time>2014-01-11T08:00:24.000Z</time>
      </trkpt>
      <trkpt lat="45.1864" lon="6.34475">
        <ele>1751.8000488281</ele>
        <time>2014-01-11T08:00:25.000Z</time>
      </trkpt>
      <trkpt lat="45.18639" lon="6.34475">
        <ele>1751.8000488281</ele>
        <time>2014-01-11T08:00:26.000Z</time>
      </trkpt>
      <trkpt lat="45.18638" lon="6.34476">
        <ele>1752</ele>
        <time>2014-01-11T08:00:27.000Z</time>
      </trkpt>
      <trkpt lat="45.18638" lon="6.34476">
        <ele>1752.1999511719</ele>
        <time>2014-01-11T08:00:28.000Z</time>
      </trkpt>
      <trkpt lat="45.18636" lon="6.34477">
        <ele>1752.4000244141</ele>
        <time>2014-01-11T08:00:29.000Z</time>
      </trkpt>
      <trkpt lat="45.18636" lon="6.34477">
        <ele>1752.4000244141</ele>
        <time>2014-01-11T08:00:30.000Z</time>
      </trkpt>
      <trkpt lat="45.18635" lon="6.34478">
        <ele>1752.5999755859</ele>
        <time>2014-01-11T08:00:31.000Z</time>
      </trkpt>
      <trkpt lat="45.18634" lon="6.34478">
        <ele>1752.8000488281</ele>
        <time>2014-01-11T08:00:32.000Z</time>
      </trkpt>
      <trkpt lat="45.18634" lon="6.34478">
        <ele>1753</ele>
        <time>2014-01-11T08:00:33.000Z</time>
      </trkpt>
      <trkpt lat="45.18633" lon="6.34479">
        <ele>1753.1999511719</ele>
        <time>2014-01-11T08:00:34.000Z</time>
      </trkpt>
      <trkpt lat="45.18632" lon="6.34479">
        <ele>1753.1999511719</ele>
        <time>2014-01-11T08:00:35.000Z</time>
      </trkpt>
      <trkpt lat="45.18632" lon="6.34479">
        <ele>1753.4000244141</ele>
        <time>2014-01-11T08:00:36.000Z</time>
      </trkpt>
      <trkpt lat="45.18631" lon="6.3448">
        <ele>1753.5999755859</ele>
        <time>2014-01-11T08:00:37.000Z</time>
      </trkpt>
      <trkpt lat="45.18631" lon="6.3448">
        <ele>1753.8000488281</ele>
        <time>2014-01-11T08:00:38.000Z</time>
      </trkpt>
      <trkpt lat="45.1863" lon="6.34481">
        <ele>1754</ele>
        <time>2014-01-11T08:00:39.000Z</time>
      </trkpt>
      <trkpt lat="45.18629" lon="6.34481">
        <ele>1754.4000244141</ele>
        <time>2014-01-11T08:00:40.000Z</time>
      </trkpt>
      <trkpt lat="45.18628" lon="6.34482">
        <ele>1754.5999755859</ele>
        <time>2014-01-11T08:00:41.000Z</time>
      </trkpt>
      <trkpt lat="45.18627" lon="6.34483">
        <ele>1754.8000488281</ele>
        <time>2014-01-11T08:00:42.000Z</time>
      </trkpt>
      <trkpt lat="45.18627" lon="6.34483">
        <ele>1755</ele>
        <time>2014-01-11T08:00:43.000Z</time>
      </trkpt>
      <trkpt lat="45.18626" lon="6.34484">
        <ele>1755.1999511719</ele>
        <time>2014-01-11T08:00:44.000Z</time>
      </trkpt>
      <trkpt lat="45.18625" lon="6.34484">
        <ele>1755.1999511719</ele>
        <time>2014-01-11T08:00:45.000Z</time>
      </trkpt>
      <trkpt lat="45.18625" lon="6.34484">
        <ele>1755.4000244141</ele>
        <time>2014-01-11T08:00:46.000Z</time>
      </trkpt>
      <trkpt lat="45.18624" lon="6.34485">
        <ele>1755.8000488281</ele>
        <time>2014-01-11T08:00:47.000Z</time>
      </trkpt>
      <trkpt lat="45.18624" lon="6.34485">
        <ele>1756</ele>
        <time>2014-01-11T08:00:48.000Z</time>
      </trkpt>
      <trkpt lat="45.18623" lon="6.34486">
        <ele>1756.1999511719</ele>
        <time>2014-01-11T08:00:49.000Z</time>
      </trkpt>
      <trkpt lat="45.18623" lon="6.34486">
        <ele>1756.1999511719</ele>
        <time>2014-01-11T08:00:50.000Z</time>
      </trkpt>
      <trkpt lat="45.18622" lon="6.34487">
        <ele>1756.4000244141</ele>
        <time>2014-01-11T08:00:51.000Z</time>
      </trkpt>
      <trkpt lat="45.18621" lon="6.34488">
        <ele>1756.5999755859</ele>
        <time>2014-01-11T08:00:52.000Z</time>
      </trkpt>
      <trkpt lat="45.18621" lon="6.34488">
        <ele>1756.8000488281</ele>
        <time>2014-01-11T08:00:53.000Z</time>
      </trkpt>
      <trkpt lat="45.1862" lon="6.34489">
        <ele>1757</ele>
        <time>2014-01-11T08:00:54.000Z</time>
      </trkpt>
      <trkpt lat="45.18619" lon="6.34489">
        <ele>1757.1999511719</ele>
        <time>2014-01-11T08:00:55.000Z</time>
      </trkpt>
      <trkpt lat="45.18618" lon="6.3449">
        <ele>1757.4000244141</ele>
        <time>2014-01-11T08:00:56.000Z</time>
      </trkpt>
      <trkpt lat="45.18618" lon="6.3449">
        <ele>1757.4000244141</ele>
        <time>2014-01-11T08:00:57.000Z</time>
      </trkpt>
      <trkpt lat="45.18617" lon="6.3449">
        <ele>1757.5999755859</ele>
        <time>2014-01-11T08:00:58.000Z</time>
      </trkpt>
      <trkpt lat="45.18616" lon="6.34491">
        <ele>1757.5999755859</ele>
        <time>2014-01-11T08:00:59.000Z</time>
      </trkpt>
      <trkpt lat="45.18615" lon="6.34491">
        <ele>1757.8000488281</ele>
        <time>2014-01-11T08:01:00.000Z</time>
      </trkpt>
      <trkpt lat="45.18614" lon="6.34491">
        <ele>1758</ele>
        <time>2014-01-11T08:01:01.000Z</time>
      </trkpt>
      <trkpt lat="45.18614" lon="6.34491">
        <ele>1758.1999511719</ele>
        <time>2014-01-11T08:01:02.000Z</time>
      </trkpt>
      <trkpt lat="45.18613" lon="6.34491">
        <ele>1758.5999755859</ele>
        <time>2014-01-11T08:01:03.000Z</time>
      </trkpt>
      <trkpt lat="45.18612" lon="6.34492">
        <ele>1758.8000488281</ele>
        <time>2014-01-11T08:01:04.000Z</time>
      </trkpt>
      <trkpt lat="45.18612" lon="6.34492">
        <ele>1759</ele>
        <time>2014-01-11T08:01:05.000Z</time>
      </trkpt>
      <trkpt lat="45.18611" lon="6.34492">
        <ele>1759.1999511719</ele>
        <time>2014-01-11T08:01:06.000Z</time>
      </trkpt>
      <trkpt lat="45.18611" lon="6.34492">
        <ele>1759.4000244141</ele>
        <time>2014-01-11T08:01:07.000Z</time>
      </trkpt>
      <trkpt lat="45.1861" lon="6.34493">
        <ele>1759.4000244141</ele>
        <time>2014-01-11T08:01:08.000Z</time>
      </trkpt>
      <trkpt lat="45.18609" lon="6.34493">
        <ele>1759.5999755859</ele>
        <time>2014-01-11T08:01:09.000Z</time>
      </trkpt>
      <trkpt lat="45.18609" lon="6.34493">
        <ele>1759.8000488281</ele>
        <time>2014-01-11T08:01:10.000Z</time>
      </trkpt>
      <trkpt lat="45.18608" lon="6.34494">
        <ele>1760</ele>
        <time>2014-01-11T08:01:11.000Z</time>
      </trkpt>
      <trkpt lat="45.18607" lon="6.34494">
        <ele>1760.1999511719</ele>
        <time>2014-01-11T08:01:12.000Z</time>
      </trkpt>
      <trkpt lat="45.18606" lon="6.34494">
        <ele>1760.4000244141</ele>
        <time>2014-01-11T08:01:13.000Z</time>
      </trkpt>
      <trkpt lat="45.18606" lon="6.34494">
        <ele>1760.5999755859</ele>
        <time>2014-01-11T08:01:14.000Z</time>
      </trkpt>
      <trkpt lat="45.18605" lon="6.34495">
        <ele>1760.8000488281</ele>
        <time>2014-01-11T08:01:15.000Z</time>
      </trkpt>
      <trkpt lat="45.18604" lon="6.34495">
        <ele>1761</ele>
        <time>2014-01-11T08:01:16.000Z</time>
      </trkpt>
      <trkpt lat="45.18604" lon="6.34495">
        <ele>1761.1999511719</ele>
        <time>2014-01-11T08:01:17.000Z</time>
      </trkpt>
      <trkpt lat="45.18603" lon="6.34496">
        <ele>1761.4000244141</ele>
        <time>2014-01-11T08:01:18.000Z</time>
      </trkpt>
      <trkpt lat="45.18603" lon="6.34496">
        <ele>1761.5999755859</ele>
        <time>2014-01-11T08:01:19.000Z</time>
      </trkpt>
      <trkpt lat="45.18602" lon="6.34496">
        <ele>1761.8000488281</ele>
        <time>2014-01-11T08:01:20.000Z</time>
      </trkpt>
      <trkpt lat="45.18601" lon="6.34497">
        <ele>1762</ele>
        <time>2014-01-11T08:01:21.000Z</time>
      </trkpt>
      <trkpt lat="45.18601" lon="6.34497">
        <ele>1762.1999511719</ele>
        <time>2014-01-11T08:01:22.000Z</time>
      </trkpt>
      <trkpt lat="45.18601" lon="6.34497">
        <ele>1762.4000244141</ele>
        <time>2014-01-11T08:01:23.000Z</time>
      </trkpt>
      <trkpt lat="45.186" lon="6.34498">
        <ele>1762.4000244141</ele>
        <time>2014-01-11T08:01:24.000Z</time>
      </trkpt>
      <trkpt lat="45.186" lon="6.345">
        <ele>1762.5999755859</ele>
        <time>2014-01-11T08:01:25.000Z</time>
      </trkpt>
      <trkpt lat="45.18599" lon="6.345">
        <ele>1762.8000488281</ele>
        <time>2014-01-11T08:01:26.000Z</time>
      </trkpt>
      <trkpt lat="45.18599" lon="6.34502">
        <ele>1763</ele>
        <time>2014-01-11T08:01:27.000Z</time>
      </trkpt>
      <trkpt lat="45.18599" lon="6.34503">
        <ele>1763.1999511719</ele>
        <time>2014-01-11T08:01:28.000Z</time>
      </trkpt>
      <trkpt lat="45.18598" lon="6.34504">
        <ele>1763.4000244141</ele>
        <time>2014-01-11T08:01:29.000Z</time>
      </trkpt>
      <trkpt lat="45.18598" lon="6.34504">
        <ele>1763.5999755859</ele>
        <time>2014-01-11T08:01:30.000Z</time>
      </trkpt>
      <trkpt lat="45.18598" lon="6.34504">
        <ele>1763.8000488281</ele>
        <time>2014-01-11T08:01:31.000Z</time>
      </trkpt>
      <trkpt lat="45.18598" lon="6.34504">
        <ele>1764</ele>
        <time>2014-01-11T08:01:32.000Z</time>
      </trkpt>
      <trkpt lat="45.18598" lon="6.34504">
        <ele>1764.1999511719</ele>
        <time>2014-01-11T08:01:33.000Z</time>
      </trkpt>
      <trkpt lat="45.18598" lon="6.34504">
        <ele>1764.4000244141</ele>
        <time>2014-01-11T08:01:34.000Z</time>
      </trkpt>
      <trkpt lat="45.18598" lon="6.34504">
        <ele>1764.5999755859</ele>
        <time>2014-01-11T08:01:35.000Z</time>
      </trkpt>
      <trkpt lat="45.18598" lon="6.34505">
        <ele>1764.5999755859</ele>
        <time>2014-01-11T08:01:36.000Z</time>
      </trkpt>
      <trkpt lat="45.18598" lon="6.34505">
        <ele>1764.8000488281</ele>
        <time>2014-01-11T08:01:37.000Z</time>
      </trkpt>
      <trkpt lat="45.18598" lon="6.34505">
        <ele>1764.8000488281</ele>
        <time>2014-01-11T08:01:38.000Z</time>
      </trkpt>
      <trkpt lat="45.18598" lon="6.34505">
        <ele>1764.8000488281</ele>
        <time>2014-01-11T08:01:39.000Z</time>
      </trkpt>
      <trkpt lat="45.18597" lon="6.34506">
        <ele>1765</ele>
        <time>2014-01-11T08:01:40.000Z</time>
      </trkpt>
      <trkpt lat="45.18596" lon="6.34507">
        <ele>1765.1999511719</ele>
        <time>2014-01-11T08:01:41.000Z</time>
      </trkpt>
      <trkpt lat="45.18595" lon="6.34508">
        <ele>1765.5999755859</ele>
        <time>2014-01-11T08:01:42.000Z</time>
      </trkpt>
      <trkpt lat="45.18595" lon="6.34509">
        <ele>1765.8000488281</ele>
        <time>2014-01-11T08:01:43.000Z</time>
      </trkpt>
      <trkpt lat="45.18595" lon="6.34509">
        <ele>1766</ele>
        <time>2014-01-11T08:01:44.000Z</time>
      </trkpt>
      <trkpt lat="45.18594" lon="6.34509">
        <ele>1766.1999511719</ele>
        <time>2014-01-11T08:01:45.000Z</time>
      </trkpt>
      <trkpt lat="45.18593" lon="6.3451">
        <ele>1766.4000244141</ele>
        <time>2014-01-11T08:01:46.000Z</time>
      </trkpt>
      <trkpt lat="45.18592" lon="6.3451">
        <ele>1766.5999755859</ele>
        <time>2014-01-11T08:01:47.000Z</time>
      </trkpt>
      <trkpt lat="45.18592" lon="6.3451">
        <ele>1766.8000488281</ele>
        <time>2014-01-11T08:01:48.000Z</time>
      </trkpt>
      <trkpt lat="45.18591" lon="6.34511">
        <ele>1767</ele>
        <time>2014-01-11T08:01:49.000Z</time>
      </trkpt>
      <trkpt lat="45.18591" lon="6.34511">
        <ele>1767.1999511719</ele>
        <time>2014-01-11T08:01:50.000Z</time>
      </trkpt>
      <trkpt lat="45.1859" lon="6.34512">
        <ele>1767.5999755859</ele>
        <time>2014-01-11T08:01:51.000Z</time>
      </trkpt>
      <trkpt lat="45.1859" lon="6.34512">
        <ele>1767.8000488281</ele>
        <time>2014-01-11T08:01:52.000Z</time>
      </trkpt>
      <trkpt lat="45.18589" lon="6.34513">
        <ele>1768</ele>
        <time>2014-01-11T08:01:53.000Z</time>
      </trkpt>
      <trkpt lat="45.18589" lon="6.34514">
        <ele>1768.1999511719</ele>
        <time>2014-01-11T08:01:54.000Z</time>
      </trkpt>
      <trkpt lat="45.18588" lon="6.34514">
        <ele>1768.4000244141</ele>
        <time>2014-01-11T08:01:55.000Z</time>
      </trkpt>
      <trkpt lat="45.18587" lon="6.34514">
        <ele>1768.5999755859</ele>
        <time>2014-01-11T08:01:56.000Z</time>
      </trkpt>
      <trkpt lat="45.18587" lon="6.34514">
        <ele>1769</ele>
        <time>2014-01-11T08:01:57.000Z</time>
      </trkpt>
      <trkpt lat="45.18587" lon="6.34514">
        <ele>1769.1999511719</ele>
        <time>2014-01-11T08:01:58.000Z</time>
      </trkpt>
      <trkpt lat="45.18587" lon="6.34514">
        <ele>1769.5999755859</ele>
        <time>2014-01-11T08:01:59.000Z</time>
      </trkpt>
      <trkpt lat="45.18587" lon="6.34514">
        <ele>1769.5999755859</ele>
        <time>2014-01-11T08:02:00.000Z</time>
      </trkpt>
      <trkpt lat="45.18586" lon="6.34514">
        <ele>1769.8000488281</ele>
        <time>2014-01-11T08:02:01.000Z</time>
      </trkpt>
      <trkpt lat="45.18586" lon="6.34514">
        <ele>1769.8000488281</ele>
        <time>2014-01-11T08:02:02.000Z</time>
      </trkpt>
      <trkpt lat="45.18585" lon="6.34514">
        <ele>1769.8000488281</ele>
        <time>2014-01-11T08:02:03.000Z</time>
      </trkpt>
      <trkpt lat="45.18585" lon="6.34514">
        <ele>1770</ele>
        <time>2014-01-11T08:02:04.000Z</time>
      </trkpt>
      <trkpt lat="45.18584" lon="6.34514">
        <ele>1770</ele>
        <time>2014-01-11T08:02:05.000Z</time>
      </trkpt>
      <trkpt lat="45.18584" lon="6.34514">
        <ele>1770.1999511719</ele>
        <time>2014-01-11T08:02:06.000Z</time>
      </trkpt>
      <trkpt lat="45.18583" lon="6.34513">
        <ele>1770.4000244141</ele>
        <time>2014-01-11T08:02:07.000Z</time>
      </trkpt>
      <trkpt lat="45.18582" lon="6.34513">
        <ele>1770.5999755859</ele>
        <time>2014-01-11T08:02:08.000Z</time>
      </trkpt>
      <trkpt lat="45.18581" lon="6.34512">
        <ele>1770.8000488281</ele>
        <time>2014-01-11T08:02:09.000Z</time>
      </trkpt>
      <trkpt lat="45.1858" lon="6.34512">
        <ele>1771</ele>
        <time>2014-01-11T08:02:10.000Z</time>
      </trkpt>
      <trkpt lat="45.1858" lon="6.34512">
        <ele>1771</ele>
        <time>2014-01-11T08:02:11.000Z</time>
      </trkpt>
      <trkpt lat="45.18579" lon="6.34512">
        <ele>1771.1999511719</ele>
        <time>2014-01-11T08:02:12.000Z</time>
      </trkpt>
      <trkpt lat="45.18578" lon="6.34512">
        <ele>1771.1999511719</ele>
        <time>2014-01-11T08:02:13.000Z</time>
      </trkpt>
      <trkpt lat="45.18578" lon="6.34513">
        <ele>1771.4000244141</ele>
        <time>2014-01-11T08:02:14.000Z</time>
      </trkpt>
      <trkpt lat="45.18578" lon="6.34512">
        <ele>1771.5999755859</ele>
        <time>2014-01-11T08:02:15.000Z</time>
      </trkpt>
      <trkpt lat="45.18578" lon="6.34512">
        <ele>1771.8000488281</ele>
        <time>2014-01-11T08:02:16.000Z</time>
      </trkpt>
      <trkpt lat="45.18577" lon="6.34512">
        <ele>1771.8000488281</ele>
        <time>2014-01-11T08:02:17.000Z</time>
      </trkpt>
      <trkpt lat="45.18576" lon="6.34512">
        <ele>1772</ele>
        <time>2014-01-11T08:02:18.000Z</time>
      </trkpt>
      <trkpt lat="45.18576" lon="6.34512">
        <ele>1772</ele>
        <time>2014-01-11T08:02:19.000Z</time>
      </trkpt>
      <trkpt lat="45.18576" lon="6.34512">
        <ele>1772</ele>
        <time>2014-01-11T08:02:20.000Z</time>
      </trkpt>
      <trkpt lat="45.18576" lon="6.34512">
        <ele>1772</ele>
        <time>2014-01-11T08:02:21.000Z</time>
      </trkpt>
      <trkpt lat="45.18576" lon="6.34512">
        <ele>1772</ele>
        <time>2014-01-11T08:02:22.000Z</time>
      </trkpt>
      <trkpt lat="45.18576" lon="6.34512">
        <ele>1772</ele>
        <time>2014-01-11T08:02:23.000Z</time>
      </trkpt>
      <trkpt lat="45.18575" lon="6.34513">
        <ele>1772</ele>
        <time>2014-01-11T08:02:24.000Z</time>
      </trkpt>
      <trkpt lat="45.18575" lon="6.34513">
        <ele>1772.1999511719</ele>
        <time>2014-01-11T08:02:25.000Z</time>
      </trkpt>
      <trkpt lat="45.18574" lon="6.34514">
        <ele>1772.1999511719</ele>
        <time>2014-01-11T08:02:26.000Z</time>
      </trkpt>
      <trkpt lat="45.18573" lon="6.34514">
        <ele>1772.1999511719</ele>
        <time>2014-01-11T08:02:27.000Z</time>
      </trkpt>
      <trkpt lat="45.18572" lon="6.34515">
        <ele>1772.1999511719</ele>
        <time>2014-01-11T08:02:28.000Z</time>
      </trkpt>
      <trkpt lat="45.18572" lon="6.34515">
        <ele>1772.4000244141</ele>
        <time>2014-01-11T08:02:29.000Z</time>
      </trkpt>
      <trkpt lat="45.18571" lon="6.34516">
        <ele>1772.5999755859</ele>
        <time>2014-01-11T08:02:30.000Z</time>
      </trkpt>
      <trkpt lat="45.1857" lon="6.34516">
        <ele>1772.8000488281</ele>
        <time>2014-01-11T08:02:31.000Z</time>
      </trkpt>
      <trkpt lat="45.18569" lon="6.34517">
        <ele>1773</ele>
        <time>2014-01-11T08:02:32.000Z</time>
      </trkpt>
      <trkpt lat="45.18569" lon="6.34518">
        <ele>1773.1999511719</ele>
        <time>2014-01-11T08:02:33.000Z</time>
      </trkpt>
      <trkpt lat="45.18569" lon="6.34518">
        <ele>1773.4000244141</ele>
        <time>2014-01-11T08:02:34.000Z</time>
      </trkpt>
      <trkpt lat="45.18568" lon="6.34519">
        <ele>1773.5999755859</ele>
        <time>2014-01-11T08:02:35.000Z</time>
      </trkpt>
      <trkpt lat="45.18567" lon="6.34519">
        <ele>1773.8000488281</ele>
        <time>2014-01-11T08:02:36.000Z</time>
      </trkpt>
      <trkpt lat="45.18567" lon="6.34519">
        <ele>1774</ele>
        <time>2014-01-11T08:02:37.000Z</time>
      </trkpt>
      <trkpt lat="45.18565" lon="6.3452">
        <ele>1774.4000244141</ele>
        <time>2014-01-11T08:02:38.000Z</time>
      </trkpt>
      <trkpt lat="45.18565" lon="6.3452">
        <ele>1774.5999755859</ele>
        <time>2014-01-11T08:02:39.000Z</time>
      </trkpt>
      <trkpt lat="45.18564" lon="6.34521">
        <ele>1774.8000488281</ele>
        <time>2014-01-11T08:02:40.000Z</time>
      </trkpt>
      <trkpt lat="45.18564" lon="6.34521">
        <ele>1775</ele>
        <time>2014-01-11T08:02:41.000Z</time>
      </trkpt>
      <trkpt lat="45.18563" lon="6.34522">
        <ele>1775.4000244141</ele>
        <time>2014-01-11T08:02:42.000Z</time>
      </trkpt>
      <trkpt lat="45.18562" lon="6.34523">
        <ele>1775.5999755859</ele>
        <time>2014-01-11T08:02:43.000Z</time>
      </trkpt>
      <trkpt lat="45.18561" lon="6.34524">
        <ele>1775.8000488281</ele>
        <time>2014-01-11T08:02:44.000Z</time>
      </trkpt>
      <trkpt lat="45.18561" lon="6.34524">
        <ele>1776</ele>
        <time>2014-01-11T08:02:45.000Z</time>
      </trkpt>
      <trkpt lat="45.1856" lon="6.34525">
        <ele>1776.1999511719</ele>
        <time>2014-01-11T08:02:46.000Z</time>
      </trkpt>
      <trkpt lat="45.1856" lon="6.34525">
        <ele>1776.5999755859</ele>
        <time>2014-01-11T08:02:47.000Z</time>
      </trkpt>
      <trkpt lat="45.18559" lon="6.34526">
        <ele>1776.8000488281</ele>
        <time>2014-01-11T08:02:48.000Z</time>
      </trkpt>
      <trkpt lat="45.18558" lon="6.34526">
        <ele>1777</ele>
        <time>2014-01-11T08:02:49.000Z</time>
      </trkpt>
      <trkpt lat="45.18557" lon="6.34526">
        <ele>1777.1999511719</ele>
        <time>2014-01-11T08:02:50.000Z</time>
      </trkpt>
      <trkpt lat="45.18556" lon="6.34526">
        <ele>1777.4000244141</ele>
        <time>2014-01-11T08:02:51.000Z</time>
      </trkpt>
      <trkpt lat="45.18556" lon="6.34526">
        <ele>1777.5999755859</ele>
        <time>2014-01-11T08:02:52.000Z</time>
      </trkpt>
      <trkpt lat="45.18555" lon="6.34527">
        <ele>1777.8000488281</ele>
        <time>2014-01-11T08:02:53.000Z</time>
      </trkpt>
      <trkpt lat="45.18554" lon="6.34527">
        <ele>1778</ele>
        <time>2014-01-11T08:02:54.000Z</time>
      </trkpt>
      <trkpt lat="45.18554" lon="6.34528">
        <ele>1778.1999511719</ele>
        <time>2014-01-11T08:02:55.000Z</time>
      </trkpt>
      <trkpt lat="45.18553" lon="6.34528">
        <ele>1778.5999755859</ele>
        <time>2014-01-11T08:02:56.000Z</time>
      </trkpt>
      <trkpt lat="45.18553" lon="6.34529">
        <ele>1778.5999755859</ele>
        <time>2014-01-11T08:02:57.000Z</time>
      </trkpt>
      <trkpt lat="45.18553" lon="6.3453">
        <ele>1778.8000488281</ele>
        <time>2014-01-11T08:02:58.000Z</time>
      </trkpt>
      <trkpt lat="45.18552" lon="6.34531">
        <ele>1779</ele>
        <time>2014-01-11T08:02:59.000Z</time>
      </trkpt>
      <trkpt lat="45.18551" lon="6.34531">
        <ele>1779</ele>
        <time>2014-01-11T08:03:00.000Z</time>
      </trkpt>
      <trkpt lat="45.18551" lon="6.34532">
        <ele>1779.1999511719</ele>
        <time>2014-01-11T08:03:01.000Z</time>
      </trkpt>
      <trkpt lat="45.1855" lon="6.34532">
        <ele>1779.4000244141</ele>
        <time>2014-01-11T08:03:02.000Z</time>
      </trkpt>
      <trkpt lat="45.1855" lon="6.34533">
        <ele>1779.5999755859</ele>
        <time>2014-01-11T08:03:03.000Z</time>
      </trkpt>
      <trkpt lat="45.1855" lon="6.34533">
        <ele>1779.8000488281</ele>
        <time>2014-01-11T08:03:04.000Z</time>
      </trkpt>
      <trkpt lat="45.18549" lon="6.34533">
        <ele>1779.8000488281</ele>
        <time>2014-01-11T08:03:05.000Z</time>
      </trkpt>
      <trkpt lat="45.18549" lon="6.34534">
        <ele>1780</ele>
        <time>2014-01-11T08:03:06.000Z</time>
      </trkpt>
      <trkpt lat="45.18548" lon="6.34535">
        <ele>1780.1999511719</ele>
        <time>2014-01-11T08:03:07.000Z</time>
      </trkpt>
      <trkpt lat="45.18547" lon="6.34535">
        <ele>1780.4000244141</ele>
        <time>2014-01-11T08:03:08.000Z</time>
      </trkpt>
      <trkpt lat="45.18546" lon="6.34536">
        <ele>1780.5999755859</ele>
        <time>2014-01-11T08:03:09.000Z</time>
      </trkpt>
      <trkpt lat="45.18546" lon="6.34536">
        <ele>1780.8000488281</ele>
        <time>2014-01-11T08:03:10.000Z</time>
      </trkpt>
      <trkpt lat="45.18546" lon="6.34536">
        <ele>1781.1999511719</ele>
        <time>2014-01-11T08:03:11.000Z</time>
      </trkpt>
      <trkpt lat="45.18544" lon="6.34538">
        <ele>1781.4000244141</ele>
        <time>2014-01-11T08:03:12.000Z</time>
      </trkpt>
      <trkpt lat="45.18544" lon="6.34538">
        <ele>1781.5999755859</ele>
        <time>2014-01-11T08:03:13.000Z</time>
      </trkpt>
      <trkpt lat="45.18543" lon="6.34539">
        <ele>1781.8000488281</ele>
        <time>2014-01-11T08:03:14.000Z</time>
      </trkpt>
      <trkpt lat="45.18543" lon="6.3454">
        <ele>1782</ele>
        <time>2014-01-11T08:03:15.000Z</time>
      </trkpt>
      <trkpt lat="45.18542" lon="6.34541">
        <ele>1782.1999511719</ele>
        <time>2014-01-11T08:03:16.000Z</time>
      </trkpt>
      <trkpt lat="45.18541" lon="6.34541">
        <ele>1782.4000244141</ele>
        <time>2014-01-11T08:03:17.000Z</time>
      </trkpt>
      <trkpt lat="45.18541" lon="6.34541">
        <ele>1782.5999755859</ele>
        <time>2014-01-11T08:03:18.000Z</time>
      </trkpt>
      <trkpt lat="45.1854" lon="6.34542">
        <ele>1782.8000488281</ele>
        <time>2014-01-11T08:03:19.000Z</time>
      </trkpt>
      <trkpt lat="45.1854" lon="6.34543">
        <ele>1783</ele>
        <time>2014-01-11T08:03:20.000Z</time>
      </trkpt>
      <trkpt lat="45.18539" lon="6.34543">
        <ele>1783.1999511719</ele>
        <time>2014-01-11T08:03:21.000Z</time>
      </trkpt>
      <trkpt lat="45.18538" lon="6.34544">
        <ele>1783.1999511719</ele>
        <time>2014-01-11T08:03:22.000Z</time>
      </trkpt>
      <trkpt lat="45.18538" lon="6.34544">
        <ele>1783.4000244141</ele>
        <time>2014-01-11T08:03:23.000Z</time>
      </trkpt>
      <trkpt lat="45.18537" lon="6.34545">
        <ele>1783.5999755859</ele>
        <time>2014-01-11T08:03:24.000Z</time>
      </trkpt>
      <trkpt lat="45.18537" lon="6.34546">
        <ele>1783.8000488281</ele>
        <time>2014-01-11T08:03:25.000Z</time>
      </trkpt>
      <trkpt lat="45.18537" lon="6.34546">
        <ele>1784</ele>
        <time>2014-01-11T08:03:26.000Z</time>
      </trkpt>
      <trkpt lat="45.18536" lon="6.34547">
        <ele>1784.1999511719</ele>
        <time>2014-01-11T08:03:27.000Z</time>
      </trkpt>
      <trkpt lat="45.18536" lon="6.34547">
        <ele>1784.4000244141</ele>
        <time>2014-01-11T08:03:28.000Z</time>
      </trkpt>
      <trkpt lat="45.18535" lon="6.34548">
        <ele>1784.5999755859</ele>
        <time>2014-01-11T08:03:29.000Z</time>
      </trkpt>
      <trkpt lat="45.18535" lon="6.34548">
        <ele>1784.8000488281</ele>
        <time>2014-01-11T08:03:30.000Z</time>
      </trkpt>
      <trkpt lat="45.18535" lon="6.34549">
        <ele>1785</ele>
        <time>2014-01-11T08:03:31.000Z</time>
      </trkpt>
      <trkpt lat="45.18534" lon="6.34549">
        <ele>1785.1999511719</ele>
        <time>2014-01-11T08:03:32.000Z</time>
      </trkpt>
      <trkpt lat="45.18533" lon="6.34549">
        <ele>1785.4000244141</ele>
        <time>2014-01-11T08:03:33.000Z</time>
      </trkpt>
      <trkpt lat="45.18532" lon="6.3455">
        <ele>1785.5999755859</ele>
        <time>2014-01-11T08:03:34.000Z</time>
      </trkpt>
      <trkpt lat="45.18532" lon="6.3455">
        <ele>1786</ele>
        <time>2014-01-11T08:03:35.000Z</time>
      </trkpt>
      <trkpt lat="45.18531" lon="6.3455">
        <ele>1786.1999511719</ele>
        <time>2014-01-11T08:03:36.000Z</time>
      </trkpt>
      <trkpt lat="45.1853" lon="6.34551">
        <ele>1786.5999755859</ele>
        <time>2014-01-11T08:03:37.000Z</time>
      </trkpt>
      <trkpt lat="45.1853" lon="6.34551">
        <ele>1786.8000488281</ele>
        <time>2014-01-11T08:03:38.000Z</time>
      </trkpt>
      <trkpt lat="45.1853" lon="6.34552">
        <ele>1787.1999511719</ele>
        <time>2014-01-11T08:03:39.000Z</time>
      </trkpt>
      <trkpt lat="45.1853" lon="6.34553">
        <ele>1787.4000244141</ele>
        <time>2014-01-11T08:03:40.000Z</time>
      </trkpt>
      <trkpt lat="45.1853" lon="6.34553">
        <ele>1787.5999755859</ele>
        <time>2014-01-11T08:03:41.000Z</time>
      </trkpt>
      <trkpt lat="45.18529" lon="6.34553">
        <ele>1787.8000488281</ele>
        <time>2014-01-11T08:03:42.000Z</time>
      </trkpt>
      <trkpt lat="45.18529" lon="6.34553">
        <ele>1788</ele>
        <time>2014-01-11T08:03:43.000Z</time>
      </trkpt>
      <trkpt lat="45.18529" lon="6.34554">
        <ele>1788.1999511719</ele>
        <time>2014-01-11T08:03:44.000Z</time>
      </trkpt>
      <trkpt lat="45.18528" lon="6.34555">
        <ele>1788.4000244141</ele>
        <time>2014-01-11T08:03:45.000Z</time>
      </trkpt>
      <trkpt lat="45.18527" lon="6.34556">
        <ele>1788.5999755859</ele>
        <time>2014-01-11T08:03:46.000Z</time>
      </trkpt>
      <trkpt lat="45.18526" lon="6.34556">
        <ele>1788.8000488281</ele>
        <time>2014-01-11T08:03:47.000Z</time>
      </trkpt>
      <trkpt lat="45.18525" lon="6.34557">
        <ele>1789.1999511719</ele>
        <time>2014-01-11T08:03:48.000Z</time>
      </trkpt>
      <trkpt lat="45.18525" lon="6.34558">
        <ele>1789.4000244141</ele>
        <time>2014-01-11T08:03:49.000Z</time>
      </trkpt>
      <trkpt lat="45.18524" lon="6.34558">
        <ele>1789.5999755859</ele>
        <time>2014-01-11T08:03:50.000Z</time>
      </trkpt>
      <trkpt lat="45.18524" lon="6.3456">
        <ele>1789.8000488281</ele>
        <time>2014-01-11T08:03:51.000Z</time>
      </trkpt>
      <trkpt lat="45.18524" lon="6.3456">
        <ele>1789.8000488281</ele>
        <time>2014-01-11T08:03:52.000Z</time>
      </trkpt>
      <trkpt lat="45.18523" lon="6.34562">
        <ele>1790</ele>
        <time>2014-01-11T08:03:53.000Z</time>
      </trkpt>
      <trkpt lat="45.18523" lon="6.34562">
        <ele>1790.1999511719</ele>
        <time>2014-01-11T08:03:54.000Z</time>
      </trkpt>
      <trkpt lat="45.18522" lon="6.34563">
        <ele>1790.5999755859</ele>
        <time>2014-01-11T08:03:55.000Z</time>
      </trkpt>
      <trkpt lat="45.18522" lon="6.34564">
        <ele>1790.5999755859</ele>
        <time>2014-01-11T08:03:56.000Z</time>
      </trkpt>
      <trkpt lat="45.18522" lon="6.34565">
        <ele>1790.8000488281</ele>
        <time>2014-01-11T08:03:57.000Z</time>
      </trkpt>
      <trkpt lat="45.18521" lon="6.34565">
        <ele>1791</ele>
        <time>2014-01-11T08:03:58.000Z</time>
      </trkpt>
      <trkpt lat="45.18521" lon="6.34566">
        <ele>1791.4000244141</ele>
        <time>2014-01-11T08:03:59.000Z</time>
      </trkpt>
      <trkpt lat="45.18521" lon="6.34566">
        <ele>1791.5999755859</ele>
        <time>2014-01-11T08:04:00.000Z</time>
      </trkpt>
      <trkpt lat="45.1852" lon="6.34567">
        <ele>1791.8000488281</ele>
        <time>2014-01-11T08:04:01.000Z</time>
      </trkpt>
      <trkpt lat="45.1852" lon="6.34568">
        <ele>1792</ele>
        <time>2014-01-11T08:04:02.000Z</time>
      </trkpt>
      <trkpt lat="45.1852" lon="6.34568">
        <ele>1792.1999511719</ele>
        <time>2014-01-11T08:04:03.000Z</time>
      </trkpt>
      <trkpt lat="45.1852" lon="6.34569">
        <ele>1792.5999755859</ele>
        <time>2014-01-11T08:04:04.000Z</time>
      </trkpt>
      <trkpt lat="45.18519" lon="6.3457">
        <ele>1792.8000488281</ele>
        <time>2014-01-11T08:04:05.000Z</time>
      </trkpt>
      <trkpt lat="45.18519" lon="6.3457">
        <ele>1793</ele>
        <time>2014-01-11T08:04:06.000Z</time>
      </trkpt>
      <trkpt lat="45.18519" lon="6.34571">
        <ele>1793.1999511719</ele>
        <time>2014-01-11T08:04:07.000Z</time>
      </trkpt>
      <trkpt lat="45.18519" lon="6.34572">
        <ele>1793.4000244141</ele>
        <time>2014-01-11T08:04:08.000Z</time>
      </trkpt>
      <trkpt lat="45.18518" lon="6.34572">
        <ele>1793.5999755859</ele>
        <time>2014-01-11T08:04:09.000Z</time>
      </trkpt>
      <trkpt lat="45.18519" lon="6.34573">
        <ele>1793.8000488281</ele>
        <time>2014-01-11T08:04:10.000Z</time>
      </trkpt>
      <trkpt lat="45.18518" lon="6.34574">
        <ele>1794</ele>
        <time>2014-01-11T08:04:11.000Z</time>
      </trkpt>
      <trkpt lat="45.18518" lon="6.34575">
        <ele>1794</ele>
        <time>2014-01-11T08:04:12.000Z</time>
      </trkpt>
      <trkpt lat="45.18518" lon="6.34575">
        <ele>1794.1999511719</ele>
        <time>2014-01-11T08:04:13.000Z</time>
      </trkpt>
      <trkpt lat="45.18518" lon="6.34575">
        <ele>1794.4000244141</ele>
        <time>2014-01-11T08:04:14.000Z</time>
      </trkpt>
      <trkpt lat="45.18518" lon="6.34575">
        <ele>1794.8000488281</ele>
        <time>2014-01-11T08:04:15.000Z</time>
      </trkpt>
      <trkpt lat="45.18518" lon="6.34575">
        <ele>1795</ele>
        <time>2014-01-11T08:04:16.000Z</time>
      </trkpt>
      <trkpt lat="45.18518" lon="6.34576">
        <ele>1795.1999511719</ele>
        <time>2014-01-11T08:04:17.000Z</time>
      </trkpt>
      <trkpt lat="45.18517" lon="6.34577">
        <ele>1795.1999511719</ele>
        <time>2014-01-11T08:04:18.000Z</time>
      </trkpt>
      <trkpt lat="45.18516" lon="6.34578">
        <ele>1795.4000244141</ele>
        <time>2014-01-11T08:04:19.000Z</time>
      </trkpt>
      <trkpt lat="45.18516" lon="6.34578">
        <ele>1795.4000244141</ele>
        <time>2014-01-11T08:04:20.000Z</time>
      </trkpt>
      <trkpt lat="45.18515" lon="6.34579">
        <ele>1795.5999755859</ele>
        <time>2014-01-11T08:04:21.000Z</time>
      </trkpt>
      <trkpt lat="45.18516" lon="6.3458">
        <ele>1795.8000488281</ele>
        <time>2014-01-11T08:04:22.000Z</time>
      </trkpt>
      <trkpt lat="45.18516" lon="6.3458">
        <ele>1796.1999511719</ele>
        <time>2014-01-11T08:04:23.000Z</time>
      </trkpt>
      <trkpt lat="45.18516" lon="6.3458">
        <ele>1796.4000244141</ele>
        <time>2014-01-11T08:04:24.000Z</time>
      </trkpt>
      <trkpt lat="45.18516" lon="6.34581">
        <ele>1796.5999755859</ele>
        <time>2014-01-11T08:04:25.000Z</time>
      </trkpt>
      <trkpt lat="45.18517" lon="6.34582">
        <ele>1797</ele>
        <time>2014-01-11T08:04:26.000Z</time>
      </trkpt>
      <trkpt lat="45.18518" lon="6.34582">
        <ele>1797.1999511719</ele>
        <time>2014-01-11T08:04:27.000Z</time>
      </trkpt>
      <trkpt lat="45.18518" lon="6.34582">
        <ele>1797.1999511719</ele>
        <time>2014-01-11T08:04:28.000Z</time>
      </trkpt>
      <trkpt lat="45.18518" lon="6.34583">
        <ele>1797.4000244141</ele>
        <time>2014-01-11T08:04:29.000Z</time>
      </trkpt>
      <trkpt lat="45.18518" lon="6.34583">
        <ele>1797.4000244141</ele>
        <time>2014-01-11T08:04:30.000Z</time>
      </trkpt>
      <trkpt lat="45.18518" lon="6.34583">
        <ele>1797.5999755859</ele>
        <time>2014-01-11T08:04:31.000Z</time>
      </trkpt>
      <trkpt lat="45.18518" lon="6.34584">
        <ele>1797.8000488281</ele>
        <time>2014-01-11T08:04:32.000Z</time>
      </trkpt>
      <trkpt lat="45.18517" lon="6.34585">
        <ele>1798</ele>
        <time>2014-01-11T08:04:33.000Z</time>
      </trkpt>
      <trkpt lat="45.18517" lon="6.34586">
        <ele>1798.4000244141</ele>
        <time>2014-01-11T08:04:34.000Z</time>
      </trkpt>
      <trkpt lat="45.18517" lon="6.34587">
        <ele>1798.5999755859</ele>
        <time>2014-01-11T08:04:35.000Z</time>
      </trkpt>
      <trkpt lat="45.18517" lon="6.34588">
        <ele>1798.8000488281</ele>
        <time>2014-01-11T08:04:36.000Z</time>
      </trkpt>
      <trkpt lat="45.18516" lon="6.34589">
        <ele>1799</ele>
        <time>2014-01-11T08:04:37.000Z</time>
      </trkpt>
      <trkpt lat="45.18516" lon="6.3459">
        <ele>1799.1999511719</ele>
        <time>2014-01-11T08:04:38.000Z</time>
      </trkpt>
      <trkpt lat="45.18516" lon="6.3459">
        <ele>1799.4000244141</ele>
        <time>2014-01-11T08:04:39.000Z</time>
      </trkpt>
      <trkpt lat="45.18516" lon="6.3459">
        <ele>1799.8000488281</ele>
        <time>2014-01-11T08:04:40.000Z</time>
      </trkpt>
      <trkpt lat="45.18516" lon="6.34591">
        <ele>1800</ele>
        <time>2014-01-11T08:04:41.000Z</time>
      </trkpt>
      <trkpt lat="45.18516" lon="6.34593">
        <ele>1800.1999511719</ele>
        <time>2014-01-11T08:04:42.000Z</time>
      </trkpt>
      <trkpt lat="45.18516" lon="6.34593">
        <ele>1800.4000244141</ele>
        <time>2014-01-11T08:04:43.000Z</time>
      </trkpt>
      <trkpt lat="45.18516" lon="6.34593">
        <ele>1800.5999755859</ele>
        <time>2014-01-11T08:04:44.000Z</time>
      </trkpt>
      <trkpt lat="45.18516" lon="6.34595">
        <ele>1800.8000488281</ele>
        <time>2014-01-11T08:04:45.000Z</time>
      </trkpt>
      <trkpt lat="45.18516" lon="6.34595">
        <ele>1801</ele>
        <time>2014-01-11T08:04:46.000Z</time>
      </trkpt>
      <trkpt lat="45.18515" lon="6.34596">
        <ele>1801.4000244141</ele>
        <time>2014-01-11T08:04:47.000Z</time>
      </trkpt>
      <trkpt lat="45.18515" lon="6.34597">
        <ele>1801.5999755859</ele>
        <time>2014-01-11T08:04:48.000Z</time>
      </trkpt>
      <trkpt lat="45.18515" lon="6.34597">
        <ele>1801.8000488281</ele>
        <time>2014-01-11T08:04:49.000Z</time>
      </trkpt>
      <trkpt lat="45.18515" lon="6.34598">
        <ele>1802</ele>
        <time>2014-01-11T08:04:50.000Z</time>
      </trkpt>
      <trkpt lat="45.18514" lon="6.34599">
        <ele>1802</ele>
        <time>2014-01-11T08:04:51.000Z</time>
      </trkpt>
      <trkpt lat="45.18513" lon="6.34599">
        <ele>1802.1999511719</ele>
        <time>2014-01-11T08:04:52.000Z</time>
      </trkpt>
      <trkpt lat="45.18513" lon="6.346">
        <ele>1802.4000244141</ele>
        <time>2014-01-11T08:04:53.000Z</time>
      </trkpt>
      <trkpt lat="45.18513" lon="6.34601">
        <ele>1802.5999755859</ele>
        <time>2014-01-11T08:04:54.000Z</time>
      </trkpt>
      <trkpt lat="45.18513" lon="6.34601">
        <ele>1802.5999755859</ele>
        <time>2014-01-11T08:04:55.000Z</time>
      </trkpt>
      <trkpt lat="45.18513" lon="6.34601">
        <ele>1802.8000488281</ele>
        <time>2014-01-11T08:04:56.000Z</time>
      </trkpt>
      <trkpt lat="45.18513" lon="6.34601">
        <ele>1803</ele>
        <time>2014-01-11T08:04:57.000Z</time>
      </trkpt>
      <trkpt lat="45.18512" lon="6.34603">
        <ele>1803</ele>
        <time>2014-01-11T08:04:58.000Z</time>
      </trkpt>
      <trkpt lat="45.18512" lon="6.34603">
        <ele>1803.1999511719</ele>
        <time>2014-01-11T08:04:59.000Z</time>
      </trkpt>
      <trkpt lat="45.18511" lon="6.34605">
        <ele>1803.1999511719</ele>
        <time>2014-01-11T08:05:00.000Z</time>
      </trkpt>
      <trkpt lat="45.1851" lon="6.34606">
        <ele>1803.1999511719</ele>
        <time>2014-01-11T08:05:01.000Z</time>
      </trkpt>
      <trkpt lat="45.1851" lon="6.34607">
        <ele>1803.4000244141</ele>
        <time>2014-01-11T08:05:02.000Z</time>
      </trkpt>
      <trkpt lat="45.18509" lon="6.34608">
        <ele>1803.4000244141</ele>
        <time>2014-01-11T08:05:03.000Z</time>
      </trkpt>
      <trkpt lat="45.18509" lon="6.34609">
        <ele>1803.5999755859</ele>
        <time>2014-01-11T08:05:04.000Z</time>
      </trkpt>
      <trkpt lat="45.18509" lon="6.3461">
        <ele>1803.5999755859</ele>
        <time>2014-01-11T08:05:05.000Z</time>
      </trkpt>
      <trkpt lat="45.18508" lon="6.34611">
        <ele>1803.8000488281</ele>
        <time>2014-01-11T08:05:06.000Z</time>
      </trkpt>
      <trkpt lat="45.18508" lon="6.34612">
        <ele>1803.8000488281</ele>
        <time>2014-01-11T08:05:07.000Z</time>
      </trkpt>
      <trkpt lat="45.18507" lon="6.34613">
        <ele>1804</ele>
        <time>2014-01-11T08:05:08.000Z</time>
      </trkpt>
      <trkpt lat="45.18506" lon="6.34614">
        <ele>1804.1999511719</ele>
        <time>2014-01-11T08:05:09.000Z</time>
      </trkpt>
      <trkpt lat="45.18506" lon="6.34614">
        <ele>1804.4000244141</ele>
        <time>2014-01-11T08:05:10.000Z</time>
      </trkpt>
      <trkpt lat="45.18505" lon="6.34615">
        <ele>1804.8000488281</ele>
        <time>2014-01-11T08:05:11.000Z</time>
      </trkpt>
      <trkpt lat="45.18504" lon="6.34616">
        <ele>1805</ele>
        <time>2014-01-11T08:05:12.000Z</time>
      </trkpt>
      <trkpt lat="45.18504" lon="6.34616">
        <ele>1805.1999511719</ele>
        <time>2014-01-11T08:05:13.000Z</time>
      </trkpt>
      <trkpt lat="45.18503" lon="6.34618">
        <ele>1805.4000244141</ele>
        <time>2014-01-11T08:05:14.000Z</time>
      </trkpt>
      <trkpt lat="45.18503" lon="6.34618">
        <ele>1805.5999755859</ele>
        <time>2014-01-11T08:05:15.000Z</time>
      </trkpt>
      <trkpt lat="45.18502" lon="6.34619">
        <ele>1806</ele>
        <time>2014-01-11T08:05:16.000Z</time>
      </trkpt>
      <trkpt lat="45.18502" lon="6.34619">
        <ele>1806.1999511719</ele>
        <time>2014-01-11T08:05:17.000Z</time>
      </trkpt>
      <trkpt lat="45.18502" lon="6.34619">
        <ele>1806.4000244141</ele>
        <time>2014-01-11T08:05:18.000Z</time>
      </trkpt>
      <trkpt lat="45.18501" lon="6.34621">
        <ele>1806.5999755859</ele>
        <time>2014-01-11T08:05:19.000Z</time>
      </trkpt>
      <trkpt lat="45.185" lon="6.34621">
        <ele>1806.8000488281</ele>
        <time>2014-01-11T08:05:20.000Z</time>
      </trkpt>
      <trkpt lat="45.185" lon="6.34622">
        <ele>1807.1999511719</ele>
        <time>2014-01-11T08:05:21.000Z</time>
      </trkpt>
      <trkpt lat="45.185" lon="6.34622">
        <ele>1807.4000244141</ele>
        <time>2014-01-11T08:05:22.000Z</time>
      </trkpt>
      <trkpt lat="45.185" lon="6.34622">
        <ele>1807.8000488281</ele>
        <time>2014-01-11T08:05:23.000Z</time>
      </trkpt>
      <trkpt lat="45.185" lon="6.34622">
        <ele>1808</ele>
        <time>2014-01-11T08:05:24.000Z</time>
      </trkpt>
      <trkpt lat="45.185" lon="6.34623">
        <ele>1808</ele>
        <time>2014-01-11T08:05:25.000Z</time>
      </trkpt>
      <trkpt lat="45.185" lon="6.34623">
        <ele>1808.1999511719</ele>
        <time>2014-01-11T08:05:26.000Z</time>
      </trkpt>
      <trkpt lat="45.185" lon="6.34625">
        <ele>1808.1999511719</ele>
        <time>2014-01-11T08:05:27.000Z</time>
      </trkpt>
      <trkpt lat="45.18499" lon="6.34626">
        <ele>1808.1999511719</ele>
        <time>2014-01-11T08:05:28.000Z</time>
      </trkpt>
      <trkpt lat="45.18499" lon="6.34626">
        <ele>1808.4000244141</ele>
        <time>2014-01-11T08:05:29.000Z</time>
      </trkpt>
      <trkpt lat="45.18499" lon="6.34627">
        <ele>1808.4000244141</ele>
        <time>2014-01-11T08:05:30.000Z</time>
      </trkpt>
      <trkpt lat="45.18499" lon="6.34628">
        <ele>1808.5999755859</ele>
        <time>2014-01-11T08:05:31.000Z</time>
      </trkpt>
      <trkpt lat="45.18498" lon="6.34629">
        <ele>1808.8000488281</ele>
        <time>2014-01-11T08:05:32.000Z</time>
      </trkpt>
      <trkpt lat="45.18498" lon="6.3463">
        <ele>1808.8000488281</ele>
        <time>2014-01-11T08:05:33.000Z</time>
      </trkpt>
      <trkpt lat="45.18497" lon="6.34629">
        <ele>1808.8000488281</ele>
        <time>2014-01-11T08:05:34.000Z</time>
      </trkpt>
      <trkpt lat="45.18497" lon="6.34629">
        <ele>1809</ele>
        <time>2014-01-11T08:05:35.000Z</time>
      </trkpt>
      <trkpt lat="45.18497" lon="6.34629">
        <ele>1809</ele>
        <time>2014-01-11T08:05:36.000Z</time>
      </trkpt>
      <trkpt lat="45.18497" lon="6.34629">
        <ele>1809</ele>
        <time>2014-01-11T08:05:37.000Z</time>
      </trkpt>
      <trkpt lat="45.18497" lon="6.34629">
        <ele>1809</ele>
        <time>2014-01-11T08:05:38.000Z</time>
      </trkpt>
      <trkpt lat="45.18498" lon="6.34629">
        <ele>1809</ele>
        <time>2014-01-11T08:05:39.000Z</time>
      </trkpt>
      <trkpt lat="45.18498" lon="6.34629">
        <ele>1809</ele>
        <time>2014-01-11T08:05:40.000Z</time>
      </trkpt>
      <trkpt lat="45.18498" lon="6.34629">
        <ele>1809.1999511719</ele>
        <time>2014-01-11T08:05:41.000Z</time>
      </trkpt>
      <trkpt lat="45.18498" lon="6.34629">
        <ele>1809.1999511719</ele>
        <time>2014-01-11T08:05:42.000Z</time>
      </trkpt>
      <trkpt lat="45.18498" lon="6.34629">
        <ele>1809.1999511719</ele>
        <time>2014-01-11T08:05:43.000Z</time>
      </trkpt>
      <trkpt lat="45.18497" lon="6.3463">
        <ele>1809.1999511719</ele>
        <time>2014-01-11T08:05:44.000Z</time>
      </trkpt>
      <trkpt lat="45.18496" lon="6.34631">
        <ele>1809.1999511719</ele>
        <time>2014-01-11T08:05:45.000Z</time>
      </trkpt>
      <trkpt lat="45.18496" lon="6.34632">
        <ele>1809.1999511719</ele>
        <time>2014-01-11T08:05:47.000Z</time>
      </trkpt>
      <trkpt lat="45.18496" lon="6.34632">
        <ele>1809.1999511719</ele>
        <time>2014-01-11T08:05:49.000Z</time>
      </trkpt>
      <trkpt lat="45.18496" lon="6.34632">
        <ele>1809.1999511719</ele>
        <time>2014-01-11T08:05:50.000Z</time>
      </trkpt>
      <trkpt lat="45.18496" lon="6.34631">
        <ele>1809.1999511719</ele>
        <time>2014-01-11T08:05:51.000Z</time>
      </trkpt>
      <trkpt lat="45.18496" lon="6.34631">
        <ele>1809.1999511719</ele>
        <time>2014-01-11T08:05:52.000Z</time>
      </trkpt>
      <trkpt lat="45.18496" lon="6.34631">
        <ele>1809.1999511719</ele>
        <time>2014-01-11T08:05:53.000Z</time>
      </trkpt>
      <trkpt lat="45.18496" lon="6.34631">
        <ele>1809.1999511719</ele>
        <time>2014-01-11T08:05:54.000Z</time>
      </trkpt>
      <trkpt lat="45.18496" lon="6.34631">
        <ele>1809</ele>
        <time>2014-01-11T08:05:55.000Z</time>
      </trkpt>
      <trkpt lat="45.18496" lon="6.34631">
        <ele>1809</ele>
        <time>2014-01-11T08:05:56.000Z</time>
      </trkpt>
      <trkpt lat="45.18496" lon="6.34631">
        <ele>1809</ele>
        <time>2014-01-11T08:05:57.000Z</time>
      </trkpt>
      <trkpt lat="45.18496" lon="6.34631">
        <ele>1809</ele>
        <time>2014-01-11T08:05:58.000Z</time>
      </trkpt>
      <trkpt lat="45.18496" lon="6.34631">
        <ele>1808.8000488281</ele>
        <time>2014-01-11T08:05:59.000Z</time>
      </trkpt>
      <trkpt lat="45.18496" lon="6.34631">
        <ele>1808.8000488281</ele>
        <time>2014-01-11T08:06:00.000Z</time>
      </trkpt>
      <trkpt lat="45.18496" lon="6.34631">
        <ele>1808.8000488281</ele>
        <time>2014-01-11T08:06:01.000Z</time>
      </trkpt>
      <trkpt lat="45.18496" lon="6.34631">
        <ele>1808.5999755859</ele>
        <time>2014-01-11T08:06:02.000Z</time>
      </trkpt>
      <trkpt lat="45.18496" lon="6.34631">
        <ele>1808.5999755859</ele>
        <time>2014-01-11T08:06:03.000Z</time>
      </trkpt>
      <trkpt lat="45.18496" lon="6.34631">
        <ele>1808.5999755859</ele>
        <time>2014-01-11T08:06:04.000Z</time>
      </trkpt>
      <trkpt lat="45.18496" lon="6.34632">
        <ele>1808.4000244141</ele>
        <time>2014-01-11T08:06:05.000Z</time>
      </trkpt>
      <trkpt lat="45.18496" lon="6.34633">
        <ele>1808.4000244141</ele>
        <time>2014-01-11T08:06:06.000Z</time>
      </trkpt>
      <trkpt lat="45.18496" lon="6.34634">
        <ele>1808.1999511719</ele>
        <time>2014-01-11T08:06:07.000Z</time>
      </trkpt>
      <trkpt lat="45.18496" lon="6.34636">
        <ele>1808.1999511719</ele>
        <time>2014-01-11T08:06:08.000Z</time>
      </trkpt>
      <trkpt lat="45.18495" lon="6.34637">
        <ele>1808.1999511719</ele>
        <time>2014-01-11T08:06:09.000Z</time>
      </trkpt>
      <trkpt lat="45.18495" lon="6.34638">
        <ele>1808.4000244141</ele>
        <time>2014-01-11T08:06:10.000Z</time>
      </trkpt>
      <trkpt lat="45.18495" lon="6.34638">
        <ele>1808.8000488281</ele>
        <time>2014-01-11T08:06:11.000Z</time>
      </trkpt>
      <trkpt lat="45.18494" lon="6.34639">
        <ele>1809.1999511719</ele>
        <time>2014-01-11T08:06:12.000Z</time>
      </trkpt>
      <trkpt lat="45.18494" lon="6.34639">
        <ele>1809.5999755859</ele>
        <time>2014-01-11T08:06:13.000Z</time>
      </trkpt>
      <trkpt lat="45.18494" lon="6.34639">
        <ele>1810</ele>
        <time>2014-01-11T08:06:14.000Z</time>
      </trkpt>
      <trkpt lat="45.18494" lon="6.34639">
        <ele>1810.1999511719</ele>
        <time>2014-01-11T08:06:15.000Z</time>
      </trkpt>
      <trkpt lat="45.18493" lon="6.34642">
        <ele>1810.4000244141</ele>
        <time>2014-01-11T08:06:16.000Z</time>
      </trkpt>
      <trkpt lat="45.18493" lon="6.34642">
        <ele>1810.4000244141</ele>
        <time>2014-01-11T08:06:17.000Z</time>
      </trkpt>
      <trkpt lat="45.18492" lon="6.34644">
        <ele>1810.5999755859</ele>
        <time>2014-01-11T08:06:18.000Z</time>
      </trkpt>
      <trkpt lat="45.18492" lon="6.34645">
        <ele>1810.5999755859</ele>
        <time>2014-01-11T08:06:19.000Z</time>
      </trkpt>
      <trkpt lat="45.18492" lon="6.34645">
        <ele>1810.5999755859</ele>
        <time>2014-01-11T08:06:20.000Z</time>
      </trkpt>
      <trkpt lat="45.18491" lon="6.34647">
        <ele>1810.8000488281</ele>
        <time>2014-01-11T08:06:21.000Z</time>
      </trkpt>
      <trkpt lat="45.18491" lon="6.34648">
        <ele>1811</ele>
        <time>2014-01-11T08:06:22.000Z</time>
      </trkpt>
      <trkpt lat="45.1849" lon="6.34649">
        <ele>1811.8000488281</ele>
        <time>2014-01-11T08:06:23.000Z</time>
      </trkpt>
      <trkpt lat="45.18489" lon="6.3465">
        <ele>1812</ele>
        <time>2014-01-11T08:06:24.000Z</time>
      </trkpt>
      <trkpt lat="45.18488" lon="6.34651">
        <ele>1812.4000244141</ele>
        <time>2014-01-11T08:06:25.000Z</time>
      </trkpt>
      <trkpt lat="45.18487" lon="6.34652">
        <ele>1812.5999755859</ele>
        <time>2014-01-11T08:06:26.000Z</time>
      </trkpt>
      <trkpt lat="45.18487" lon="6.34652">
        <ele>1812.8000488281</ele>
        <time>2014-01-11T08:06:27.000Z</time>
      </trkpt>
      <trkpt lat="45.18486" lon="6.34652">
        <ele>1813</ele>
        <time>2014-01-11T08:06:28.000Z</time>
      </trkpt>
      <trkpt lat="45.18485" lon="6.34654">
        <ele>1813.1999511719</ele>
        <time>2014-01-11T08:06:29.000Z</time>
      </trkpt>
      <trkpt lat="45.18485" lon="6.34654">
        <ele>1813.5999755859</ele>
        <time>2014-01-11T08:06:30.000Z</time>
      </trkpt>
      <trkpt lat="45.18484" lon="6.34655">
        <ele>1813.8000488281</ele>
        <time>2014-01-11T08:06:31.000Z</time>
      </trkpt>
      <trkpt lat="45.18484" lon="6.34655">
        <ele>1814</ele>
        <time>2014-01-11T08:06:32.000Z</time>
      </trkpt>
      <trkpt lat="45.18483" lon="6.34656">
        <ele>1814.1999511719</ele>
        <time>2014-01-11T08:06:33.000Z</time>
      </trkpt>
      <trkpt lat="45.18482" lon="6.34657">
        <ele>1814.1999511719</ele>
        <time>2014-01-11T08:06:34.000Z</time>
      </trkpt>
      <trkpt lat="45.18482" lon="6.34658">
        <ele>1814.5999755859</ele>
        <time>2014-01-11T08:06:35.000Z</time>
      </trkpt>
      <trkpt lat="45.18481" lon="6.34658">
        <ele>1814.8000488281</ele>
        <time>2014-01-11T08:06:36.000Z</time>
      </trkpt>
      <trkpt lat="45.18481" lon="6.34659">
        <ele>1815</ele>
        <time>2014-01-11T08:06:37.000Z</time>
      </trkpt>
      <trkpt lat="45.1848" lon="6.34659">
        <ele>1815.1999511719</ele>
        <time>2014-01-11T08:06:38.000Z</time>
      </trkpt>
      <trkpt lat="45.1848" lon="6.34659">
        <ele>1815.5999755859</ele>
        <time>2014-01-11T08:06:39.000Z</time>
      </trkpt>
      <trkpt lat="45.1848" lon="6.34659">
        <ele>1815.8000488281</ele>
        <time>2014-01-11T08:06:40.000Z</time>
      </trkpt>
      <trkpt lat="45.1848" lon="6.34659">
        <ele>1815.8000488281</ele>
        <time>2014-01-11T08:06:41.000Z</time>
      </trkpt>
      <trkpt lat="45.1848" lon="6.34659">
        <ele>1816</ele>
        <time>2014-01-11T08:06:42.000Z</time>
      </trkpt>
      <trkpt lat="45.1848" lon="6.34659">
        <ele>1815.8000488281</ele>
        <time>2014-01-11T08:06:43.000Z</time>
      </trkpt>
      <trkpt lat="45.1848" lon="6.3466">
        <ele>1815.8000488281</ele>
        <time>2014-01-11T08:06:44.000Z</time>
      </trkpt>
      <trkpt lat="45.1848" lon="6.3466">
        <ele>1815.5999755859</ele>
        <time>2014-01-11T08:06:45.000Z</time>
      </trkpt>
      <trkpt lat="45.1848" lon="6.34661">
        <ele>1815.4000244141</ele>
        <time>2014-01-11T08:06:46.000Z</time>
      </trkpt>
      <trkpt lat="45.18481" lon="6.34662">
        <ele>1815.4000244141</ele>
        <time>2014-01-11T08:06:47.000Z</time>
      </trkpt>
      <trkpt lat="45.18481" lon="6.34663">
        <ele>1815.4000244141</ele>
        <time>2014-01-11T08:06:48.000Z</time>
      </trkpt>
      <trkpt lat="45.18482" lon="6.34664">
        <ele>1815.4000244141</ele>
        <time>2014-01-11T08:06:49.000Z</time>
      </trkpt>
      <trkpt lat="45.18483" lon="6.34664">
        <ele>1815.4000244141</ele>
        <time>2014-01-11T08:06:50.000Z</time>
      </trkpt>
      <trkpt lat="45.18484" lon="6.34665">
        <ele>1815.5999755859</ele>
        <time>2014-01-11T08:06:51.000Z</time>
      </trkpt>
      <trkpt lat="45.18485" lon="6.34665">
        <ele>1815.8000488281</ele>
        <time>2014-01-11T08:06:52.000Z</time>
      </trkpt>
      <trkpt lat="45.18486" lon="6.34665">
        <ele>1816.1999511719</ele>
        <time>2014-01-11T08:06:53.000Z</time>
      </trkpt>
      <trkpt lat="45.18486" lon="6.34666">
        <ele>1816.4000244141</ele>
        <time>2014-01-11T08:06:54.000Z</time>
      </trkpt>
      <trkpt lat="45.18487" lon="6.34666">
        <ele>1816.8000488281</ele>
        <time>2014-01-11T08:06:55.000Z</time>
      </trkpt>
      <trkpt lat="45.18487" lon="6.34666">
        <ele>1817</ele>
        <time>2014-01-11T08:06:56.000Z</time>
      </trkpt>
      <trkpt lat="45.18488" lon="6.34667">
        <ele>1817.4000244141</ele>
        <time>2014-01-11T08:06:57.000Z</time>
      </trkpt>
      <trkpt lat="45.18489" lon="6.34667">
        <ele>1817.5999755859</ele>
        <time>2014-01-11T08:06:58.000Z</time>
      </trkpt>
      <trkpt lat="45.18489" lon="6.34667">
        <ele>1817.8000488281</ele>
        <time>2014-01-11T08:06:59.000Z</time>
      </trkpt>
      <trkpt lat="45.1849" lon="6.34668">
        <ele>1818</ele>
        <time>2014-01-11T08:07:00.000Z</time>
      </trkpt>
      <trkpt lat="45.1849" lon="6.34668">
        <ele>1818.1999511719</ele>
        <time>2014-01-11T08:07:01.000Z</time>
      </trkpt>
      <trkpt lat="45.18491" lon="6.34668">
        <ele>1818.5999755859</ele>
        <time>2014-01-11T08:07:02.000Z</time>
      </trkpt>
      <trkpt lat="45.18491" lon="6.34669">
        <ele>1818.8000488281</ele>
        <time>2014-01-11T08:07:03.000Z</time>
      </trkpt>
      <trkpt lat="45.18492" lon="6.3467">
        <ele>1819</ele>
        <time>2014-01-11T08:07:04.000Z</time>
      </trkpt>
      <trkpt lat="45.18492" lon="6.3467">
        <ele>1819.4000244141</ele>
        <time>2014-01-11T08:07:05.000Z</time>
      </trkpt>
      <trkpt lat="45.18492" lon="6.34671">
        <ele>1819.5999755859</ele>
        <time>2014-01-11T08:07:06.000Z</time>
      </trkpt>
      <trkpt lat="45.18492" lon="6.34671">
        <ele>1820</ele>
        <time>2014-01-11T08:07:07.000Z</time>
      </trkpt>
      <trkpt lat="45.18492" lon="6.34671">
        <ele>1820.1999511719</ele>
        <time>2014-01-11T08:07:08.000Z</time>
      </trkpt>
      <trkpt lat="45.18492" lon="6.34671">
        <ele>1820.5999755859</ele>
        <time>2014-01-11T08:07:09.000Z</time>
      </trkpt>
      <trkpt lat="45.18491" lon="6.34673">
        <ele>1821.1999511719</ele>
        <time>2014-01-11T08:07:10.000Z</time>
      </trkpt>
      <trkpt lat="45.18491" lon="6.34673">
        <ele>1821.8000488281</ele>
        <time>2014-01-11T08:07:11.000Z</time>
      </trkpt>
      <trkpt lat="45.1849" lon="6.34674">
        <ele>1822</ele>
        <time>2014-01-11T08:07:12.000Z</time>
      </trkpt>
      <trkpt lat="45.1849" lon="6.34674">
        <ele>1822</ele>
        <time>2014-01-11T08:07:13.000Z</time>
      </trkpt>
      <trkpt lat="45.1849" lon="6.34675">
        <ele>1822.1999511719</ele>
        <time>2014-01-11T08:07:14.000Z</time>
      </trkpt>
      <trkpt lat="45.18489" lon="6.34676">
        <ele>1822.4000244141</ele>
        <time>2014-01-11T08:07:15.000Z</time>
      </trkpt>
      <trkpt lat="45.18489" lon="6.34677">
        <ele>1822.8000488281</ele>
        <time>2014-01-11T08:07:16.000Z</time>
      </trkpt>
      <trkpt lat="45.18488" lon="6.34678">
        <ele>1823</ele>
        <time>2014-01-11T08:07:17.000Z</time>
      </trkpt>
      <trkpt lat="45.18488" lon="6.34679">
        <ele>1823.1999511719</ele>
        <time>2014-01-11T08:07:18.000Z</time>
      </trkpt>
      <trkpt lat="45.18488" lon="6.3468">
        <ele>1823.5999755859</ele>
        <time>2014-01-11T08:07:19.000Z</time>
      </trkpt>
      <trkpt lat="45.18488" lon="6.34681">
        <ele>1823.8000488281</ele>
        <time>2014-01-11T08:07:20.000Z</time>
      </trkpt>
      <trkpt lat="45.18489" lon="6.34681">
        <ele>1824</ele>
        <time>2014-01-11T08:07:21.000Z</time>
      </trkpt>
      <trkpt lat="45.18489" lon="6.34683">
        <ele>1824.1999511719</ele>
        <time>2014-01-11T08:07:22.000Z</time>
      </trkpt>
      <trkpt lat="45.18489" lon="6.34683">
        <ele>1824.4000244141</ele>
        <time>2014-01-11T08:07:23.000Z</time>
      </trkpt>
      <trkpt lat="45.1849" lon="6.34684">
        <ele>1824.8000488281</ele>
        <time>2014-01-11T08:07:24.000Z</time>
      </trkpt>
      <trkpt lat="45.1849" lon="6.34684">
        <ele>1825.1999511719</ele>
        <time>2014-01-11T08:07:25.000Z</time>
      </trkpt>
      <trkpt lat="45.18491" lon="6.34684">
        <ele>1825.4000244141</ele>
        <time>2014-01-11T08:07:26.000Z</time>
      </trkpt>
      <trkpt lat="45.18491" lon="6.34686">
        <ele>1825.5999755859</ele>
        <time>2014-01-11T08:07:27.000Z</time>
      </trkpt>
      <trkpt lat="45.18492" lon="6.34687">
        <ele>1825.8000488281</ele>
        <time>2014-01-11T08:07:28.000Z</time>
      </trkpt>
      <trkpt lat="45.18492" lon="6.34687">
        <ele>1826</ele>
        <time>2014-01-11T08:07:29.000Z</time>
      </trkpt>
      <trkpt lat="45.18493" lon="6.34689">
        <ele>1826.4000244141</ele>
        <time>2014-01-11T08:07:30.000Z</time>
      </trkpt>
      <trkpt lat="45.18493" lon="6.3469">
        <ele>1826.5999755859</ele>
        <time>2014-01-11T08:07:31.000Z</time>
      </trkpt>
      <trkpt lat="45.18494" lon="6.34691">
        <ele>1827</ele>
        <time>2014-01-11T08:07:33.000Z</time>
      </trkpt>
      <trkpt lat="45.18494" lon="6.34691">
        <ele>1827.1999511719</ele>
        <time>2014-01-11T08:07:34.000Z</time>
      </trkpt>
      <trkpt lat="45.18494" lon="6.34692">
        <ele>1827.1999511719</ele>
        <time>2014-01-11T08:07:35.000Z</time>
      </trkpt>
      <trkpt lat="45.18495" lon="6.34693">
        <ele>1827.8000488281</ele>
        <time>2014-01-11T08:07:36.000Z</time>
      </trkpt>
      <trkpt lat="45.18496" lon="6.34693">
        <ele>1828.1999511719</ele>
        <time>2014-01-11T08:07:37.000Z</time>
      </trkpt>
      <trkpt lat="45.18496" lon="6.34694">
        <ele>1828.5999755859</ele>
        <time>2014-01-11T08:07:38.000Z</time>
      </trkpt>
      <trkpt lat="45.18496" lon="6.34695">
        <ele>1828.8000488281</ele>
        <time>2014-01-11T08:07:39.000Z</time>
      </trkpt>
      <trkpt lat="45.18496" lon="6.34695">
        <ele>1829.1999511719</ele>
        <time>2014-01-11T08:07:40.000Z</time>
      </trkpt>
      <trkpt lat="45.18495" lon="6.34697">
        <ele>1829.4000244141</ele>
        <time>2014-01-11T08:07:41.000Z</time>
      </trkpt>
      <trkpt lat="45.18495" lon="6.34697">
        <ele>1829.8000488281</ele>
        <time>2014-01-11T08:07:42.000Z</time>
      </trkpt>
      <trkpt lat="45.18494" lon="6.34698">
        <ele>1830.1999511719</ele>
        <time>2014-01-11T08:07:43.000Z</time>
      </trkpt>
      <trkpt lat="45.18493" lon="6.34698">
        <ele>1830.4000244141</ele>
        <time>2014-01-11T08:07:44.000Z</time>
      </trkpt>
      <trkpt lat="45.18493" lon="6.34699">
        <ele>1830.5999755859</ele>
        <time>2014-01-11T08:07:45.000Z</time>
      </trkpt>
      <trkpt lat="45.18492" lon="6.347">
        <ele>1830.8000488281</ele>
        <time>2014-01-11T08:07:46.000Z</time>
      </trkpt>
      <trkpt lat="45.18492" lon="6.347">
        <ele>1831.1999511719</ele>
        <time>2014-01-11T08:07:47.000Z</time>
      </trkpt>
      <trkpt lat="45.18491" lon="6.34702">
        <ele>1831.4000244141</ele>
        <time>2014-01-11T08:07:48.000Z</time>
      </trkpt>
      <trkpt lat="45.18491" lon="6.34702">
        <ele>1831.8000488281</ele>
        <time>2014-01-11T08:07:49.000Z</time>
      </trkpt>
      <trkpt lat="45.1849" lon="6.34703">
        <ele>1832</ele>
        <time>2014-01-11T08:07:50.000Z</time>
      </trkpt>
      <trkpt lat="45.18489" lon="6.34704">
        <ele>1832.1999511719</ele>
        <time>2014-01-11T08:07:51.000Z</time>
      </trkpt>
      <trkpt lat="45.18489" lon="6.34704">
        <ele>1832.4000244141</ele>
        <time>2014-01-11T08:07:52.000Z</time>
      </trkpt>
      <trkpt lat="45.18488" lon="6.34705">
        <ele>1832.5999755859</ele>
        <time>2014-01-11T08:07:53.000Z</time>
      </trkpt>
      <trkpt lat="45.18488" lon="6.34706">
        <ele>1833</ele>
        <time>2014-01-11T08:07:54.000Z</time>
      </trkpt>
      <trkpt lat="45.18488" lon="6.34706">
        <ele>1833.1999511719</ele>
        <time>2014-01-11T08:07:55.000Z</time>
      </trkpt>
      <trkpt lat="45.18488" lon="6.34708">
        <ele>1833.5999755859</ele>
        <time>2014-01-11T08:07:56.000Z</time>
      </trkpt>
      <trkpt lat="45.18487" lon="6.34708">
        <ele>1834</ele>
        <time>2014-01-11T08:07:57.000Z</time>
      </trkpt>
      <trkpt lat="45.18487" lon="6.3471">
        <ele>1834.1999511719</ele>
        <time>2014-01-11T08:07:58.000Z</time>
      </trkpt>
      <trkpt lat="45.18487" lon="6.3471">
        <ele>1834.1999511719</ele>
        <time>2014-01-11T08:07:59.000Z</time>
      </trkpt>
      <trkpt lat="45.18486" lon="6.34712">
        <ele>1834.8000488281</ele>
        <time>2014-01-11T08:08:00.000Z</time>
      </trkpt>
      <trkpt lat="45.18485" lon="6.34713">
        <ele>1835</ele>
        <time>2014-01-11T08:08:01.000Z</time>
      </trkpt>
      <trkpt lat="45.18485" lon="6.34713">
        <ele>1835.4000244141</ele>
        <time>2014-01-11T08:08:02.000Z</time>
      </trkpt>
      <trkpt lat="45.18484" lon="6.34714">
        <ele>1835.5999755859</ele>
        <time>2014-01-11T08:08:03.000Z</time>
      </trkpt>
      <trkpt lat="45.18484" lon="6.34714">
        <ele>1835.5999755859</ele>
        <time>2014-01-11T08:08:04.000Z</time>
      </trkpt>
      <trkpt lat="45.18484" lon="6.34715">
        <ele>1835.8000488281</ele>
        <time>2014-01-11T08:08:05.000Z</time>
      </trkpt>
      <trkpt lat="45.18483" lon="6.34717">
        <ele>1836</ele>
        <time>2014-01-11T08:08:06.000Z</time>
      </trkpt>
      <trkpt lat="45.18483" lon="6.34717">
        <ele>1836</ele>
        <time>2014-01-11T08:08:07.000Z</time>
      </trkpt>
      <trkpt lat="45.18482" lon="6.34718">
        <ele>1836.1999511719</ele>
        <time>2014-01-11T08:08:08.000Z</time>
      </trkpt>
      <trkpt lat="45.18482" lon="6.34719">
        <ele>1836.4000244141</ele>
        <time>2014-01-11T08:08:09.000Z</time>
      </trkpt>
      <trkpt lat="45.18482" lon="6.3472">
        <ele>1836.5999755859</ele>
        <time>2014-01-11T08:08:10.000Z</time>
      </trkpt>
      <trkpt lat="45.18481" lon="6.34721">
        <ele>1836.8000488281</ele>
        <time>2014-01-11T08:08:11.000Z</time>
      </trkpt>
      <trkpt lat="45.18481" lon="6.34721">
        <ele>1837</ele>
        <time>2014-01-11T08:08:12.000Z</time>
      </trkpt>
      <trkpt lat="45.1848" lon="6.34722">
        <ele>1837.4000244141</ele>
        <time>2014-01-11T08:08:13.000Z</time>
      </trkpt>
      <trkpt lat="45.18479" lon="6.34724">
        <ele>1837.5999755859</ele>
        <time>2014-01-11T08:08:14.000Z</time>
      </trkpt>
      <trkpt lat="45.18479" lon="6.34725">
        <ele>1838</ele>
        <time>2014-01-11T08:08:15.000Z</time>
      </trkpt>
      <trkpt lat="45.18479" lon="6.34725">
        <ele>1838.4000244141</ele>
        <time>2014-01-11T08:08:16.000Z</time>
      </trkpt>
      <trkpt lat="45.18479" lon="6.34725">
        <ele>1838.8000488281</ele>
        <time>2014-01-11T08:08:17.000Z</time>
      </trkpt>
      <trkpt lat="45.18479" lon="6.34725">
        <ele>1839.1999511719</ele>
        <time>2014-01-11T08:08:18.000Z</time>
      </trkpt>
      <trkpt lat="45.18479" lon="6.34726">
        <ele>1839.5999755859</ele>
        <time>2014-01-11T08:08:19.000Z</time>
      </trkpt>
      <trkpt lat="45.18478" lon="6.34727">
        <ele>1839.8000488281</ele>
        <time>2014-01-11T08:08:20.000Z</time>
      </trkpt>
      <trkpt lat="45.18477" lon="6.34728">
        <ele>1840</ele>
        <time>2014-01-11T08:08:21.000Z</time>
      </trkpt>
      <trkpt lat="45.18477" lon="6.34729">
        <ele>1840.1999511719</ele>
        <time>2014-01-11T08:08:22.000Z</time>
      </trkpt>
      <trkpt lat="45.18476" lon="6.3473">
        <ele>1840.1999511719</ele>
        <time>2014-01-11T08:08:23.000Z</time>
      </trkpt>
      <trkpt lat="45.18476" lon="6.34731">
        <ele>1840.4000244141</ele>
        <time>2014-01-11T08:08:24.000Z</time>
      </trkpt>
      <trkpt lat="45.18475" lon="6.34731">
        <ele>1840.5999755859</ele>
        <time>2014-01-11T08:08:25.000Z</time>
      </trkpt>
      <trkpt lat="45.18475" lon="6.34732">
        <ele>1840.8000488281</ele>
        <time>2014-01-11T08:08:26.000Z</time>
      </trkpt>
      <trkpt lat="45.18474" lon="6.34733">
        <ele>1841</ele>
        <time>2014-01-11T08:08:27.000Z</time>
      </trkpt>
      <trkpt lat="45.18474" lon="6.34734">
        <ele>1841.1999511719</ele>
        <time>2014-01-11T08:08:28.000Z</time>
      </trkpt>
      <trkpt lat="45.18473" lon="6.34735">
        <ele>1841.4000244141</ele>
        <time>2014-01-11T08:08:29.000Z</time>
      </trkpt>
      <trkpt lat="45.18473" lon="6.34736">
        <ele>1841.5999755859</ele>
        <time>2014-01-11T08:08:30.000Z</time>
      </trkpt>
      <trkpt lat="45.18472" lon="6.34737">
        <ele>1841.8000488281</ele>
        <time>2014-01-11T08:08:31.000Z</time>
      </trkpt>
      <trkpt lat="45.18472" lon="6.34738">
        <ele>1842</ele>
        <time>2014-01-11T08:08:32.000Z</time>
      </trkpt>
      <trkpt lat="45.18471" lon="6.34739">
        <ele>1842.1999511719</ele>
        <time>2014-01-11T08:08:33.000Z</time>
      </trkpt>
      <trkpt lat="45.1847" lon="6.34739">
        <ele>1842.4000244141</ele>
        <time>2014-01-11T08:08:34.000Z</time>
      </trkpt>
      <trkpt lat="45.18469" lon="6.3474">
        <ele>1842.5999755859</ele>
        <time>2014-01-11T08:08:35.000Z</time>
      </trkpt>
      <trkpt lat="45.18469" lon="6.3474">
        <ele>1842.8000488281</ele>
        <time>2014-01-11T08:08:36.000Z</time>
      </trkpt>
      <trkpt lat="45.18468" lon="6.34741">
        <ele>1843</ele>
        <time>2014-01-11T08:08:37.000Z</time>
      </trkpt>
      <trkpt lat="45.18468" lon="6.34742">
        <ele>1843.1999511719</ele>
        <time>2014-01-11T08:08:38.000Z</time>
      </trkpt>
      <trkpt lat="45.18467" lon="6.34742">
        <ele>1843.4000244141</ele>
        <time>2014-01-11T08:08:39.000Z</time>
      </trkpt>
      <trkpt lat="45.18467" lon="6.34744">
        <ele>1843.4000244141</ele>
        <time>2014-01-11T08:08:40.000Z</time>
      </trkpt>
      <trkpt lat="45.18467" lon="6.34744">
        <ele>1843.5999755859</ele>
        <time>2014-01-11T08:08:41.000Z</time>
      </trkpt>
      <trkpt lat="45.18465" lon="6.34745">
        <ele>1843.5999755859</ele>
        <time>2014-01-11T08:08:42.000Z</time>
      </trkpt>
      <trkpt lat="45.18464" lon="6.34746">
        <ele>1843.8000488281</ele>
        <time>2014-01-11T08:08:43.000Z</time>
      </trkpt>
      <trkpt lat="45.18464" lon="6.34746">
        <ele>1843.8000488281</ele>
        <time>2014-01-11T08:08:44.000Z</time>
      </trkpt>
      <trkpt lat="45.18463" lon="6.34747">
        <ele>1843.8000488281</ele>
        <time>2014-01-11T08:08:45.000Z</time>
      </trkpt>
      <trkpt lat="45.18462" lon="6.34749">
        <ele>1843.8000488281</ele>
        <time>2014-01-11T08:08:46.000Z</time>
      </trkpt>
      <trkpt lat="45.18462" lon="6.34749">
        <ele>1843.8000488281</ele>
        <time>2014-01-11T08:08:47.000Z</time>
      </trkpt>
      <trkpt lat="45.18461" lon="6.3475">
        <ele>1844</ele>
        <time>2014-01-11T08:08:48.000Z</time>
      </trkpt>
      <trkpt lat="45.1846" lon="6.34751">
        <ele>1844</ele>
        <time>2014-01-11T08:08:49.000Z</time>
      </trkpt>
      <trkpt lat="45.1846" lon="6.34751">
        <ele>1844.1999511719</ele>
        <time>2014-01-11T08:08:50.000Z</time>
      </trkpt>
      <trkpt lat="45.18459" lon="6.34752">
        <ele>1844.1999511719</ele>
        <time>2014-01-11T08:08:51.000Z</time>
      </trkpt>
      <trkpt lat="45.18459" lon="6.34753">
        <ele>1844.4000244141</ele>
        <time>2014-01-11T08:08:52.000Z</time>
      </trkpt>
      <trkpt lat="45.18458" lon="6.34753">
        <ele>1844.4000244141</ele>
        <time>2014-01-11T08:08:53.000Z</time>
      </trkpt>
      <trkpt lat="45.18457" lon="6.34754">
        <ele>1844.4000244141</ele>
        <time>2014-01-11T08:08:54.000Z</time>
      </trkpt>
      <trkpt lat="45.18457" lon="6.34755">
        <ele>1844.5999755859</ele>
        <time>2014-01-11T08:08:55.000Z</time>
      </trkpt>
      <trkpt lat="45.18456" lon="6.34755">
        <ele>1844.8000488281</ele>
        <time>2014-01-11T08:08:56.000Z</time>
      </trkpt>
      <trkpt lat="45.18456" lon="6.34757">
        <ele>1845</ele>
        <time>2014-01-11T08:08:57.000Z</time>
      </trkpt>
      <trkpt lat="45.18455" lon="6.34757">
        <ele>1845.1999511719</ele>
        <time>2014-01-11T08:08:58.000Z</time>
      </trkpt>
      <trkpt lat="45.18454" lon="6.34758">
        <ele>1845.1999511719</ele>
        <time>2014-01-11T08:08:59.000Z</time>
      </trkpt>
      <trkpt lat="45.18454" lon="6.34758">
        <ele>1845.4000244141</ele>
        <time>2014-01-11T08:09:00.000Z</time>
      </trkpt>
      <trkpt lat="45.18453" lon="6.34758">
        <ele>1845.5999755859</ele>
        <time>2014-01-11T08:09:01.000Z</time>
      </trkpt>
      <trkpt lat="45.18452" lon="6.34759">
        <ele>1845.8000488281</ele>
        <time>2014-01-11T08:09:02.000Z</time>
      </trkpt>
      <trkpt lat="45.18452" lon="6.34759">
        <ele>1846</ele>
        <time>2014-01-11T08:09:03.000Z</time>
      </trkpt>
      <trkpt lat="45.18451" lon="6.3476">
        <ele>1846</ele>
        <time>2014-01-11T08:09:04.000Z</time>
      </trkpt>
      <trkpt lat="45.1845" lon="6.3476">
        <ele>1846.1999511719</ele>
        <time>2014-01-11T08:09:05.000Z</time>
      </trkpt>
      <trkpt lat="45.1845" lon="6.34761">
        <ele>1846.4000244141</ele>
        <time>2014-01-11T08:09:06.000Z</time>
      </trkpt>
      <trkpt lat="45.18448" lon="6.34761">
        <ele>1846.8000488281</ele>
        <time>2014-01-11T08:09:07.000Z</time>
      </trkpt>
      <trkpt lat="45.18448" lon="6.34762">
        <ele>1847</ele>
        <time>2014-01-11T08:09:08.000Z</time>
      </trkpt>
      <trkpt lat="45.18447" lon="6.34763">
        <ele>1847</ele>
        <time>2014-01-11T08:09:09.000Z</time>
      </trkpt>
      <trkpt lat="45.18447" lon="6.34763">
        <ele>1847.1999511719</ele>
        <time>2014-01-11T08:09:10.000Z</time>
      </trkpt>
      <trkpt lat="45.18446" lon="6.34763">
        <ele>1847.5999755859</ele>
        <time>2014-01-11T08:09:11.000Z</time>
      </trkpt>
      <trkpt lat="45.18445" lon="6.34764">
        <ele>1848</ele>
        <time>2014-01-11T08:09:12.000Z</time>
      </trkpt>
      <trkpt lat="45.18445" lon="6.34763">
        <ele>1848.1999511719</ele>
        <time>2014-01-11T08:09:13.000Z</time>
      </trkpt>
      <trkpt lat="45.18444" lon="6.34764">
        <ele>1848.4000244141</ele>
        <time>2014-01-11T08:09:14.000Z</time>
      </trkpt>
      <trkpt lat="45.18444" lon="6.34764">
        <ele>1848.5999755859</ele>
        <time>2014-01-11T08:09:15.000Z</time>
      </trkpt>
      <trkpt lat="45.18443" lon="6.34765">
        <ele>1848.8000488281</ele>
        <time>2014-01-11T08:09:16.000Z</time>
      </trkpt>
      <trkpt lat="45.18442" lon="6.34766">
        <ele>1849</ele>
        <time>2014-01-11T08:09:17.000Z</time>
      </trkpt>
      <trkpt lat="45.18442" lon="6.34766">
        <ele>1849.1999511719</ele>
        <time>2014-01-11T08:09:18.000Z</time>
      </trkpt>
      <trkpt lat="45.18441" lon="6.34766">
        <ele>1849.5999755859</ele>
        <time>2014-01-11T08:09:19.000Z</time>
      </trkpt>
      <trkpt lat="45.1844" lon="6.34767">
        <ele>1849.5999755859</ele>
        <time>2014-01-11T08:09:20.000Z</time>
      </trkpt>
      <trkpt lat="45.18439" lon="6.34767">
        <ele>1849.8000488281</ele>
        <time>2014-01-11T08:09:21.000Z</time>
      </trkpt>
      <trkpt lat="45.18438" lon="6.34768">
        <ele>1850</ele>
        <time>2014-01-11T08:09:22.000Z</time>
      </trkpt>
      <trkpt lat="45.18438" lon="6.34769">
        <ele>1850.1999511719</ele>
        <time>2014-01-11T08:09:23.000Z</time>
      </trkpt>
      <trkpt lat="45.18437" lon="6.34769">
        <ele>1850.4000244141</ele>
        <time>2014-01-11T08:09:24.000Z</time>
      </trkpt>
      <trkpt lat="45.18437" lon="6.34769">
        <ele>1850.5999755859</ele>
        <time>2014-01-11T08:09:25.000Z</time>
      </trkpt>
      <trkpt lat="45.18435" lon="6.3477">
        <ele>1850.8000488281</ele>
        <time>2014-01-11T08:09:26.000Z</time>
      </trkpt>
      <trkpt lat="45.18435" lon="6.34771">
        <ele>1851</ele>
        <time>2014-01-11T08:09:27.000Z</time>
      </trkpt>
      <trkpt lat="45.18435" lon="6.3477">
        <ele>1851.1999511719</ele>
        <time>2014-01-11T08:09:28.000Z</time>
      </trkpt>
      <trkpt lat="45.18434" lon="6.34771">
        <ele>1851.4000244141</ele>
        <time>2014-01-11T08:09:29.000Z</time>
      </trkpt>
      <trkpt lat="45.18434" lon="6.34771">
        <ele>1851.5999755859</ele>
        <time>2014-01-11T08:09:30.000Z</time>
      </trkpt>
      <trkpt lat="45.18433" lon="6.34772">
        <ele>1852</ele>
        <time>2014-01-11T08:09:31.000Z</time>
      </trkpt>
      <trkpt lat="45.18432" lon="6.34773">
        <ele>1852.1999511719</ele>
        <time>2014-01-11T08:09:32.000Z</time>
      </trkpt>
      <trkpt lat="45.18432" lon="6.34773">
        <ele>1852.4000244141</ele>
        <time>2014-01-11T08:09:33.000Z</time>
      </trkpt>
      <trkpt lat="45.18431" lon="6.34775">
        <ele>1852.5999755859</ele>
        <time>2014-01-11T08:09:34.000Z</time>
      </trkpt>
      <trkpt lat="45.1843" lon="6.34776">
        <ele>1852.8000488281</ele>
        <time>2014-01-11T08:09:35.000Z</time>
      </trkpt>
      <trkpt lat="45.1843" lon="6.34777">
        <ele>1853.1999511719</ele>
        <time>2014-01-11T08:09:36.000Z</time>
      </trkpt>
      <trkpt lat="45.18429" lon="6.34778">
        <ele>1853.1999511719</ele>
        <time>2014-01-11T08:09:37.000Z</time>
      </trkpt>
      <trkpt lat="45.18429" lon="6.34779">
        <ele>1853.4000244141</ele>
        <time>2014-01-11T08:09:38.000Z</time>
      </trkpt>
      <trkpt lat="45.18428" lon="6.3478">
        <ele>1853.5999755859</ele>
        <time>2014-01-11T08:09:39.000Z</time>
      </trkpt>
      <trkpt lat="45.18428" lon="6.34781">
        <ele>1853.5999755859</ele>
        <time>2014-01-11T08:09:40.000Z</time>
      </trkpt>
      <trkpt lat="45.18428" lon="6.34781">
        <ele>1853.8000488281</ele>
        <time>2014-01-11T08:09:41.000Z</time>
      </trkpt>
      <trkpt lat="45.18428" lon="6.34783">
        <ele>1854</ele>
        <time>2014-01-11T08:09:42.000Z</time>
      </trkpt>
      <trkpt lat="45.18427" lon="6.34784">
        <ele>1854.1999511719</ele>
        <time>2014-01-11T08:09:43.000Z</time>
      </trkpt>
      <trkpt lat="45.18427" lon="6.34785">
        <ele>1854.4000244141</ele>
        <time>2014-01-11T08:09:44.000Z</time>
      </trkpt>
      <trkpt lat="45.18426" lon="6.34786">
        <ele>1854.8000488281</ele>
        <time>2014-01-11T08:09:45.000Z</time>
      </trkpt>
      <trkpt lat="45.18426" lon="6.34786">
        <ele>1855</ele>
        <time>2014-01-11T08:09:46.000Z</time>
      </trkpt>
      <trkpt lat="45.18425" lon="6.34787">
        <ele>1855.1999511719</ele>
        <time>2014-01-11T08:09:47.000Z</time>
      </trkpt>
      <trkpt lat="45.18425" lon="6.34788">
        <ele>1855.4000244141</ele>
        <time>2014-01-11T08:09:48.000Z</time>
      </trkpt>
      <trkpt lat="45.18425" lon="6.34789">
        <ele>1855.5999755859</ele>
        <time>2014-01-11T08:09:49.000Z</time>
      </trkpt>
      <trkpt lat="45.18425" lon="6.3479">
        <ele>1855.5999755859</ele>
        <time>2014-01-11T08:09:50.000Z</time>
      </trkpt>
      <trkpt lat="45.18425" lon="6.3479">
        <ele>1855.8000488281</ele>
        <time>2014-01-11T08:09:51.000Z</time>
      </trkpt>
      <trkpt lat="45.18424" lon="6.34791">
        <ele>1856</ele>
        <time>2014-01-11T08:09:52.000Z</time>
      </trkpt>
      <trkpt lat="45.18424" lon="6.34793">
        <ele>1856.4000244141</ele>
        <time>2014-01-11T08:09:53.000Z</time>
      </trkpt>
      <trkpt lat="45.18424" lon="6.34794">
        <ele>1856.5999755859</ele>
        <time>2014-01-11T08:09:54.000Z</time>
      </trkpt>
      <trkpt lat="45.18423" lon="6.34795">
        <ele>1856.8000488281</ele>
        <time>2014-01-11T08:09:55.000Z</time>
      </trkpt>
      <trkpt lat="45.18423" lon="6.34795">
        <ele>1857</ele>
        <time>2014-01-11T08:09:56.000Z</time>
      </trkpt>
      <trkpt lat="45.18422" lon="6.34796">
        <ele>1857.1999511719</ele>
        <time>2014-01-11T08:09:57.000Z</time>
      </trkpt>
      <trkpt lat="45.18421" lon="6.34797">
        <ele>1857.5999755859</ele>
        <time>2014-01-11T08:09:58.000Z</time>
      </trkpt>
      <trkpt lat="45.1842" lon="6.34797">
        <ele>1857.8000488281</ele>
        <time>2014-01-11T08:09:59.000Z</time>
      </trkpt>
      <trkpt lat="45.1842" lon="6.34797">
        <ele>1858</ele>
        <time>2014-01-11T08:10:00.000Z</time>
      </trkpt>
      <trkpt lat="45.18419" lon="6.34798">
        <ele>1858.4000244141</ele>
        <time>2014-01-11T08:10:01.000Z</time>
      </trkpt>
      <trkpt lat="45.18419" lon="6.34799">
        <ele>1858.5999755859</ele>
        <time>2014-01-11T08:10:02.000Z</time>
      </trkpt>
      <trkpt lat="45.18418" lon="6.348">
        <ele>1859</ele>
        <time>2014-01-11T08:10:03.000Z</time>
      </trkpt>
      <trkpt lat="45.18417" lon="6.348">
        <ele>1859.1999511719</ele>
        <time>2014-01-11T08:10:04.000Z</time>
      </trkpt>
      <trkpt lat="45.18417" lon="6.34801">
        <ele>1859.4000244141</ele>
        <time>2014-01-11T08:10:05.000Z</time>
      </trkpt>
      <trkpt lat="45.18416" lon="6.34802">
        <ele>1859.8000488281</ele>
        <time>2014-01-11T08:10:06.000Z</time>
      </trkpt>
      <trkpt lat="45.18415" lon="6.34803">
        <ele>1860</ele>
        <time>2014-01-11T08:10:07.000Z</time>
      </trkpt>
      <trkpt lat="45.18415" lon="6.34804">
        <ele>1860</ele>
        <time>2014-01-11T08:10:08.000Z</time>
      </trkpt>
      <trkpt lat="45.18414" lon="6.34804">
        <ele>1860.1999511719</ele>
        <time>2014-01-11T08:10:09.000Z</time>
      </trkpt>
      <trkpt lat="45.18413" lon="6.34805">
        <ele>1860.4000244141</ele>
        <time>2014-01-11T08:10:10.000Z</time>
      </trkpt>
      <trkpt lat="45.18412" lon="6.34806">
        <ele>1860.5999755859</ele>
        <time>2014-01-11T08:10:11.000Z</time>
      </trkpt>
      <trkpt lat="45.18412" lon="6.34806">
        <ele>1860.8000488281</ele>
        <time>2014-01-11T08:10:12.000Z</time>
      </trkpt>
      <trkpt lat="45.18411" lon="6.34807">
        <ele>1861</ele>
        <time>2014-01-11T08:10:13.000Z</time>
      </trkpt>
      <trkpt lat="45.18411" lon="6.34807">
        <ele>1861.1999511719</ele>
        <time>2014-01-11T08:10:14.000Z</time>
      </trkpt>
      <trkpt lat="45.18411" lon="6.34809">
        <ele>1861.5999755859</ele>
        <time>2014-01-11T08:10:15.000Z</time>
      </trkpt>
      <trkpt lat="45.18411" lon="6.34809">
        <ele>1861.8000488281</ele>
        <time>2014-01-11T08:10:16.000Z</time>
      </trkpt>
      <trkpt lat="45.1841" lon="6.3481">
        <ele>1862</ele>
        <time>2014-01-11T08:10:17.000Z</time>
      </trkpt>
      <trkpt lat="45.1841" lon="6.34812">
        <ele>1862.4000244141</ele>
        <time>2014-01-11T08:10:18.000Z</time>
      </trkpt>
      <trkpt lat="45.1841" lon="6.34813">
        <ele>1862.5999755859</ele>
        <time>2014-01-11T08:10:19.000Z</time>
      </trkpt>
      <trkpt lat="45.1841" lon="6.34814">
        <ele>1862.8000488281</ele>
        <time>2014-01-11T08:10:20.000Z</time>
      </trkpt>
      <trkpt lat="45.1841" lon="6.34815">
        <ele>1863</ele>
        <time>2014-01-11T08:10:21.000Z</time>
      </trkpt>
      <trkpt lat="45.18409" lon="6.34816">
        <ele>1863.4000244141</ele>
        <time>2014-01-11T08:10:22.000Z</time>
      </trkpt>
      <trkpt lat="45.18409" lon="6.34817">
        <ele>1863.5999755859</ele>
        <time>2014-01-11T08:10:23.000Z</time>
      </trkpt>
      <trkpt lat="45.18409" lon="6.34818">
        <ele>1863.5999755859</ele>
        <time>2014-01-11T08:10:24.000Z</time>
      </trkpt>
      <trkpt lat="45.18409" lon="6.34819">
        <ele>1864</ele>
        <time>2014-01-11T08:10:25.000Z</time>
      </trkpt>
      <trkpt lat="45.18409" lon="6.34819">
        <ele>1864.1999511719</ele>
        <time>2014-01-11T08:10:26.000Z</time>
      </trkpt>
      <trkpt lat="45.18409" lon="6.3482">
        <ele>1864.4000244141</ele>
        <time>2014-01-11T08:10:27.000Z</time>
      </trkpt>
      <trkpt lat="45.18408" lon="6.34821">
        <ele>1864.8000488281</ele>
        <time>2014-01-11T08:10:28.000Z</time>
      </trkpt>
      <trkpt lat="45.18408" lon="6.34821">
        <ele>1865</ele>
        <time>2014-01-11T08:10:29.000Z</time>
      </trkpt>
      <trkpt lat="45.18407" lon="6.34823">
        <ele>1865.4000244141</ele>
        <time>2014-01-11T08:10:30.000Z</time>
      </trkpt>
      <trkpt lat="45.18407" lon="6.34823">
        <ele>1865.8000488281</ele>
        <time>2014-01-11T08:10:31.000Z</time>
      </trkpt>
      <trkpt lat="45.18407" lon="6.34824">
        <ele>1866</ele>
        <time>2014-01-11T08:10:32.000Z</time>
      </trkpt>
      <trkpt lat="45.18407" lon="6.34824">
        <ele>1866.1999511719</ele>
        <time>2014-01-11T08:10:33.000Z</time>
      </trkpt>
      <trkpt lat="45.18406" lon="6.34826">
        <ele>1866.5999755859</ele>
        <time>2014-01-11T08:10:34.000Z</time>
      </trkpt>
      <trkpt lat="45.18406" lon="6.34826">
        <ele>1866.8000488281</ele>
        <time>2014-01-11T08:10:35.000Z</time>
      </trkpt>
      <trkpt lat="45.18406" lon="6.34826">
        <ele>1867</ele>
        <time>2014-01-11T08:10:36.000Z</time>
      </trkpt>
      <trkpt lat="45.18405" lon="6.34828">
        <ele>1867.1999511719</ele>
        <time>2014-01-11T08:10:37.000Z</time>
      </trkpt>
      <trkpt lat="45.18405" lon="6.34828">
        <ele>1867.4000244141</ele>
        <time>2014-01-11T08:10:38.000Z</time>
      </trkpt>
      <trkpt lat="45.18405" lon="6.34829">
        <ele>1867.8000488281</ele>
        <time>2014-01-11T08:10:39.000Z</time>
      </trkpt>
      <trkpt lat="45.18405" lon="6.3483">
        <ele>1868</ele>
        <time>2014-01-11T08:10:40.000Z</time>
      </trkpt>
      <trkpt lat="45.18405" lon="6.3483">
        <ele>1868.1999511719</ele>
        <time>2014-01-11T08:10:41.000Z</time>
      </trkpt>
      <trkpt lat="45.18405" lon="6.3483">
        <ele>1868.4000244141</ele>
        <time>2014-01-11T08:10:42.000Z</time>
      </trkpt>
      <trkpt lat="45.18405" lon="6.3483">
        <ele>1868.4000244141</ele>
        <time>2014-01-11T08:10:43.000Z</time>
      </trkpt>
      <trkpt lat="45.18405" lon="6.3483">
        <ele>1868.5999755859</ele>
        <time>2014-01-11T08:10:44.000Z</time>
      </trkpt>
      <trkpt lat="45.18404" lon="6.3483">
        <ele>1868.8000488281</ele>
        <time>2014-01-11T08:10:45.000Z</time>
      </trkpt>
      <trkpt lat="45.18403" lon="6.34831">
        <ele>1869</ele>
        <time>2014-01-11T08:10:46.000Z</time>
      </trkpt>
      <trkpt lat="45.18403" lon="6.34832">
        <ele>1869</ele>
        <time>2014-01-11T08:10:47.000Z</time>
      </trkpt>
      <trkpt lat="45.18402" lon="6.34833">
        <ele>1869.1999511719</ele>
        <time>2014-01-11T08:10:48.000Z</time>
      </trkpt>
      <trkpt lat="45.18401" lon="6.34833">
        <ele>1869.4000244141</ele>
        <time>2014-01-11T08:10:49.000Z</time>
      </trkpt>
      <trkpt lat="45.184" lon="6.34834">
        <ele>1869.5999755859</ele>
        <time>2014-01-11T08:10:50.000Z</time>
      </trkpt>
      <trkpt lat="45.184" lon="6.34835">
        <ele>1869.8000488281</ele>
        <time>2014-01-11T08:10:51.000Z</time>
      </trkpt>
      <trkpt lat="45.184" lon="6.34835">
        <ele>1870</ele>
        <time>2014-01-11T08:10:52.000Z</time>
      </trkpt>
      <trkpt lat="45.18399" lon="6.34836">
        <ele>1870.1999511719</ele>
        <time>2014-01-11T08:10:53.000Z</time>
      </trkpt>
      <trkpt lat="45.18399" lon="6.34837">
        <ele>1870.5999755859</ele>
        <time>2014-01-11T08:10:54.000Z</time>
      </trkpt>
      <trkpt lat="45.18398" lon="6.34838">
        <ele>1870.8000488281</ele>
        <time>2014-01-11T08:10:55.000Z</time>
      </trkpt>
      <trkpt lat="45.18398" lon="6.34838">
        <ele>1871</ele>
        <time>2014-01-11T08:10:56.000Z</time>
      </trkpt>
      <trkpt lat="45.18398" lon="6.3484">
        <ele>1871.1999511719</ele>
        <time>2014-01-11T08:10:57.000Z</time>
      </trkpt>
      <trkpt lat="45.18398" lon="6.3484">
        <ele>1871.4000244141</ele>
        <time>2014-01-11T08:10:58.000Z</time>
      </trkpt>
      <trkpt lat="45.18398" lon="6.34842">
        <ele>1871.5999755859</ele>
        <time>2014-01-11T08:10:59.000Z</time>
      </trkpt>
      <trkpt lat="45.18397" lon="6.34843">
        <ele>1871.8000488281</ele>
        <time>2014-01-11T08:11:00.000Z</time>
      </trkpt>
      <trkpt lat="45.18397" lon="6.34844">
        <ele>1872</ele>
        <time>2014-01-11T08:11:01.000Z</time>
      </trkpt>
      <trkpt lat="45.18397" lon="6.34845">
        <ele>1872.1999511719</ele>
        <time>2014-01-11T08:11:02.000Z</time>
      </trkpt>
      <trkpt lat="45.18396" lon="6.34846">
        <ele>1872.4000244141</ele>
        <time>2014-01-11T08:11:03.000Z</time>
      </trkpt>
      <trkpt lat="45.18396" lon="6.34847">
        <ele>1872.5999755859</ele>
        <time>2014-01-11T08:11:04.000Z</time>
      </trkpt>
      <trkpt lat="45.18396" lon="6.34848">
        <ele>1872.8000488281</ele>
        <time>2014-01-11T08:11:05.000Z</time>
      </trkpt>
      <trkpt lat="45.18396" lon="6.34849">
        <ele>1873</ele>
        <time>2014-01-11T08:11:06.000Z</time>
      </trkpt>
      <trkpt lat="45.18396" lon="6.3485">
        <ele>1873.1999511719</ele>
        <time>2014-01-11T08:11:07.000Z</time>
      </trkpt>
      <trkpt lat="45.18396" lon="6.34851">
        <ele>1873.4000244141</ele>
        <time>2014-01-11T08:11:08.000Z</time>
      </trkpt>
      <trkpt lat="45.18396" lon="6.34852">
        <ele>1873.5999755859</ele>
        <time>2014-01-11T08:11:09.000Z</time>
      </trkpt>
      <trkpt lat="45.18395" lon="6.34853">
        <ele>1873.8000488281</ele>
        <time>2014-01-11T08:11:10.000Z</time>
      </trkpt>
      <trkpt lat="45.18395" lon="6.34854">
        <ele>1874.1999511719</ele>
        <time>2014-01-11T08:11:11.000Z</time>
      </trkpt>
      <trkpt lat="45.18395" lon="6.34854">
        <ele>1874.4000244141</ele>
        <time>2014-01-11T08:11:12.000Z</time>
      </trkpt>
      <trkpt lat="45.18395" lon="6.34855">
        <ele>1874.8000488281</ele>
        <time>2014-01-11T08:11:13.000Z</time>
      </trkpt>
      <trkpt lat="45.18395" lon="6.34856">
        <ele>1875</ele>
        <time>2014-01-11T08:11:14.000Z</time>
      </trkpt>
      <trkpt lat="45.18395" lon="6.34856">
        <ele>1875.1999511719</ele>
        <time>2014-01-11T08:11:15.000Z</time>
      </trkpt>
      <trkpt lat="45.18395" lon="6.34856">
        <ele>1875.4000244141</ele>
        <time>2014-01-11T08:11:16.000Z</time>
      </trkpt>
      <trkpt lat="45.18395" lon="6.34856">
        <ele>1875.5999755859</ele>
        <time>2014-01-11T08:11:17.000Z</time>
      </trkpt>
      <trkpt lat="45.18395" lon="6.34856">
        <ele>1875.8000488281</ele>
        <time>2014-01-11T08:11:18.000Z</time>
      </trkpt>
      <trkpt lat="45.18395" lon="6.34856">
        <ele>1876</ele>
        <time>2014-01-11T08:11:19.000Z</time>
      </trkpt>
      <trkpt lat="45.18395" lon="6.34856">
        <ele>1876.1999511719</ele>
        <time>2014-01-11T08:11:20.000Z</time>
      </trkpt>
      <trkpt lat="45.18395" lon="6.34856">
        <ele>1876.1999511719</ele>
        <time>2014-01-11T08:11:21.000Z</time>
      </trkpt>
      <trkpt lat="45.18395" lon="6.34856">
        <ele>1876.1999511719</ele>
        <time>2014-01-11T08:11:22.000Z</time>
      </trkpt>
      <trkpt lat="45.18395" lon="6.34856">
        <ele>1876.1999511719</ele>
        <time>2014-01-11T08:11:23.000Z</time>
      </trkpt>
      <trkpt lat="45.18395" lon="6.34856">
        <ele>1876.1999511719</ele>
        <time>2014-01-11T08:11:26.000Z</time>
      </trkpt>
      <trkpt lat="45.18395" lon="6.34856">
        <ele>1876.1999511719</ele>
        <time>2014-01-11T08:11:27.000Z</time>
      </trkpt>
      <trkpt lat="45.18395" lon="6.34856">
        <ele>1876.1999511719</ele>
        <time>2014-01-11T08:11:28.000Z</time>
      </trkpt>
      <trkpt lat="45.18395" lon="6.34856">
        <ele>1876.1999511719</ele>
        <time>2014-01-11T08:11:29.000Z</time>
      </trkpt>
      <trkpt lat="45.18395" lon="6.34856">
        <ele>1876.1999511719</ele>
        <time>2014-01-11T08:11:30.000Z</time>
      </trkpt>
      <trkpt lat="45.18395" lon="6.34857">
        <ele>1876.1999511719</ele>
        <time>2014-01-11T08:11:31.000Z</time>
      </trkpt>
      <trkpt lat="45.18394" lon="6.34858">
        <ele>1876.1999511719</ele>
        <time>2014-01-11T08:11:32.000Z</time>
      </trkpt>
      <trkpt lat="45.18394" lon="6.34859">
        <ele>1876.1999511719</ele>
        <time>2014-01-11T08:11:33.000Z</time>
      </trkpt>
      <trkpt lat="45.18393" lon="6.3486">
        <ele>1876.1999511719</ele>
        <time>2014-01-11T08:11:34.000Z</time>
      </trkpt>
      <trkpt lat="45.18393" lon="6.3486">
        <ele>1876.1999511719</ele>
        <time>2014-01-11T08:11:35.000Z</time>
      </trkpt>
      <trkpt lat="45.18392" lon="6.34861">
        <ele>1876.4000244141</ele>
        <time>2014-01-11T08:11:36.000Z</time>
      </trkpt>
      <trkpt lat="45.18392" lon="6.34861">
        <ele>1876.4000244141</ele>
        <time>2014-01-11T08:11:37.000Z</time>
      </trkpt>
      <trkpt lat="45.18392" lon="6.34861">
        <ele>1876.5999755859</ele>
        <time>2014-01-11T08:11:38.000Z</time>
      </trkpt>
      <trkpt lat="45.18392" lon="6.34861">
        <ele>1876.8000488281</ele>
        <time>2014-01-11T08:11:39.000Z</time>
      </trkpt>
      <trkpt lat="45.18392" lon="6.34861">
        <ele>1876.8000488281</ele>
        <time>2014-01-11T08:11:40.000Z</time>
      </trkpt>
      <trkpt lat="45.18392" lon="6.34861">
        <ele>1877</ele>
        <time>2014-01-11T08:11:41.000Z</time>
      </trkpt>
      <trkpt lat="45.18392" lon="6.34861">
        <ele>1877.1999511719</ele>
        <time>2014-01-11T08:11:42.000Z</time>
      </trkpt>
      <trkpt lat="45.18392" lon="6.34861">
        <ele>1877.1999511719</ele>
        <time>2014-01-11T08:11:43.000Z</time>
      </trkpt>
      <trkpt lat="45.18392" lon="6.34861">
        <ele>1877.1999511719</ele>
        <time>2014-01-11T08:11:44.000Z</time>
      </trkpt>
      <trkpt lat="45.18392" lon="6.34861">
        <ele>1877.1999511719</ele>
        <time>2014-01-11T08:11:45.000Z</time>
      </trkpt>
      <trkpt lat="45.18392" lon="6.34861">
        <ele>1877.1999511719</ele>
        <time>2014-01-11T08:11:46.000Z</time>
      </trkpt>
      <trkpt lat="45.18392" lon="6.34861">
        <ele>1877.4000244141</ele>
        <time>2014-01-11T08:11:47.000Z</time>
      </trkpt>
      <trkpt lat="45.18392" lon="6.34861">
        <ele>1877.4000244141</ele>
        <time>2014-01-11T08:11:48.000Z</time>
      </trkpt>
      <trkpt lat="45.18392" lon="6.34861">
        <ele>1877.4000244141</ele>
        <time>2014-01-11T08:11:49.000Z</time>
      </trkpt>
      <trkpt lat="45.18392" lon="6.34862">
        <ele>1877.4000244141</ele>
        <time>2014-01-11T08:11:53.000Z</time>
      </trkpt>
      <trkpt lat="45.18392" lon="6.34865">
        <ele>1877.4000244141</ele>
        <time>2014-01-11T08:11:55.000Z</time>
      </trkpt>
      <trkpt lat="45.18391" lon="6.34866">
        <ele>1877.4000244141</ele>
        <time>2014-01-11T08:11:56.000Z</time>
      </trkpt>
      <trkpt lat="45.18391" lon="6.34866">
        <ele>1877.4000244141</ele>
        <time>2014-01-11T08:11:57.000Z</time>
      </trkpt>
      <trkpt lat="45.18391" lon="6.34867">
        <ele>1877.5999755859</ele>
        <time>2014-01-11T08:11:58.000Z</time>
      </trkpt>
      <trkpt lat="45.18391" lon="6.34868">
        <ele>1877.8000488281</ele>
        <time>2014-01-11T08:11:59.000Z</time>
      </trkpt>
      <trkpt lat="45.18391" lon="6.34869">
        <ele>1878</ele>
        <time>2014-01-11T08:12:00.000Z</time>
      </trkpt>
      <trkpt lat="45.18392" lon="6.3487">
        <ele>1878.1999511719</ele>
        <time>2014-01-11T08:12:01.000Z</time>
      </trkpt>
      <trkpt lat="45.18392" lon="6.34871">
        <ele>1878.4000244141</ele>
        <time>2014-01-11T08:12:02.000Z</time>
      </trkpt>
      <trkpt lat="45.18392" lon="6.34871">
        <ele>1878.5999755859</ele>
        <time>2014-01-11T08:12:03.000Z</time>
      </trkpt>
      <trkpt lat="45.18392" lon="6.34872">
        <ele>1878.8000488281</ele>
        <time>2014-01-11T08:12:04.000Z</time>
      </trkpt>
      <trkpt lat="45.18391" lon="6.34873">
        <ele>1879</ele>
        <time>2014-01-11T08:12:05.000Z</time>
      </trkpt>
      <trkpt lat="45.18391" lon="6.34873">
        <ele>1879.1999511719</ele>
        <time>2014-01-11T08:12:06.000Z</time>
      </trkpt>
      <trkpt lat="45.18392" lon="6.34874">
        <ele>1879.4000244141</ele>
        <time>2014-01-11T08:12:07.000Z</time>
      </trkpt>
      <trkpt lat="45.18392" lon="6.34876">
        <ele>1879.4000244141</ele>
        <time>2014-01-11T08:12:08.000Z</time>
      </trkpt>
      <trkpt lat="45.18392" lon="6.34877">
        <ele>1879.5999755859</ele>
        <time>2014-01-11T08:12:09.000Z</time>
      </trkpt>
      <trkpt lat="45.18393" lon="6.34877">
        <ele>1879.5999755859</ele>
        <time>2014-01-11T08:12:10.000Z</time>
      </trkpt>
      <trkpt lat="45.18393" lon="6.34878">
        <ele>1879.8000488281</ele>
        <time>2014-01-11T08:12:11.000Z</time>
      </trkpt>
      <trkpt lat="45.18394" lon="6.34878">
        <ele>1880</ele>
        <time>2014-01-11T08:12:12.000Z</time>
      </trkpt>
      <trkpt lat="45.18395" lon="6.34878">
        <ele>1880</ele>
        <time>2014-01-11T08:12:13.000Z</time>
      </trkpt>
      <trkpt lat="45.18396" lon="6.34878">
        <ele>1880.1999511719</ele>
        <time>2014-01-11T08:12:14.000Z</time>
      </trkpt>
      <trkpt lat="45.18396" lon="6.34878">
        <ele>1880.4000244141</ele>
        <time>2014-01-11T08:12:15.000Z</time>
      </trkpt>
      <trkpt lat="45.18397" lon="6.34879">
        <ele>1880.5999755859</ele>
        <time>2014-01-11T08:12:16.000Z</time>
      </trkpt>
      <trkpt lat="45.18397" lon="6.34879">
        <ele>1880.8000488281</ele>
        <time>2014-01-11T08:12:17.000Z</time>
      </trkpt>
      <trkpt lat="45.18397" lon="6.34879">
        <ele>1881</ele>
        <time>2014-01-11T08:12:18.000Z</time>
      </trkpt>
      <trkpt lat="45.18397" lon="6.34879">
        <ele>1881.1999511719</ele>
        <time>2014-01-11T08:12:19.000Z</time>
      </trkpt>
      <trkpt lat="45.18397" lon="6.34879">
        <ele>1881.4000244141</ele>
        <time>2014-01-11T08:12:20.000Z</time>
      </trkpt>
      <trkpt lat="45.18397" lon="6.34879">
        <ele>1881.5999755859</ele>
        <time>2014-01-11T08:12:21.000Z</time>
      </trkpt>
      <trkpt lat="45.18397" lon="6.34879">
        <ele>1881.8000488281</ele>
        <time>2014-01-11T08:12:22.000Z</time>
      </trkpt>
      <trkpt lat="45.18397" lon="6.34879">
        <ele>1882</ele>
        <time>2014-01-11T08:12:23.000Z</time>
      </trkpt>
      <trkpt lat="45.18397" lon="6.34879">
        <ele>1882</ele>
        <time>2014-01-11T08:12:24.000Z</time>
      </trkpt>
      <trkpt lat="45.18397" lon="6.34879">
        <ele>1882</ele>
        <time>2014-01-11T08:12:25.000Z</time>
      </trkpt>
      <trkpt lat="45.18397" lon="6.34879">
        <ele>1882</ele>
        <time>2014-01-11T08:12:26.000Z</time>
      </trkpt>
      <trkpt lat="45.18397" lon="6.34879">
        <ele>1882</ele>
        <time>2014-01-11T08:12:27.000Z</time>
      </trkpt>
      <trkpt lat="45.18397" lon="6.34879">
        <ele>1882</ele>
        <time>2014-01-11T08:12:28.000Z</time>
      </trkpt>
      <trkpt lat="45.18397" lon="6.34879">
        <ele>1882</ele>
        <time>2014-01-11T08:12:29.000Z</time>
      </trkpt>
      <trkpt lat="45.18397" lon="6.34879">
        <ele>1882</ele>
        <time>2014-01-11T08:12:30.000Z</time>
      </trkpt>
      <trkpt lat="45.18397" lon="6.34879">
        <ele>1882</ele>
        <time>2014-01-11T08:12:32.000Z</time>
      </trkpt>
      <trkpt lat="45.18397" lon="6.34879">
        <ele>1882</ele>
        <time>2014-01-11T08:12:33.000Z</time>
      </trkpt>
      <trkpt lat="45.18397" lon="6.34879">
        <ele>1882</ele>
        <time>2014-01-11T08:12:35.000Z</time>
      </trkpt>
      <trkpt lat="45.18397" lon="6.34879">
        <ele>1882</ele>
        <time>2014-01-11T08:12:36.000Z</time>
      </trkpt>
      <trkpt lat="45.18397" lon="6.34879">
        <ele>1881.8000488281</ele>
        <time>2014-01-11T08:12:37.000Z</time>
      </trkpt>
      <trkpt lat="45.18397" lon="6.34879">
        <ele>1881.8000488281</ele>
        <time>2014-01-11T08:12:38.000Z</time>
      </trkpt>
      <trkpt lat="45.18397" lon="6.34879">
        <ele>1881.8000488281</ele>
        <time>2014-01-11T08:12:39.000Z</time>
      </trkpt>
      <trkpt lat="45.18397" lon="6.34879">
        <ele>1881.8000488281</ele>
        <time>2014-01-11T08:12:40.000Z</time>
      </trkpt>
      <trkpt lat="45.18397" lon="6.34879">
        <ele>1881.5999755859</ele>
        <time>2014-01-11T08:12:41.000Z</time>
      </trkpt>
      <trkpt lat="45.18397" lon="6.34879">
        <ele>1881.5999755859</ele>
        <time>2014-01-11T08:12:42.000Z</time>
      </trkpt>
      <trkpt lat="45.18397" lon="6.34879">
        <ele>1881.5999755859</ele>
        <time>2014-01-11T08:12:43.000Z</time>
      </trkpt>
      <trkpt lat="45.18397" lon="6.34879">
        <ele>1881.5999755859</ele>
        <time>2014-01-11T08:12:44.000Z</time>
      </trkpt>
      <trkpt lat="45.18397" lon="6.34879">
        <ele>1881.4000244141</ele>
        <time>2014-01-11T08:12:45.000Z</time>
      </trkpt>
      <trkpt lat="45.18397" lon="6.34879">
        <ele>1881.4000244141</ele>
        <time>2014-01-11T08:12:46.000Z</time>
      </trkpt>
      <trkpt lat="45.18397" lon="6.34879">
        <ele>1881.4000244141</ele>
        <time>2014-01-11T08:12:47.000Z</time>
      </trkpt>
      <trkpt lat="45.18397" lon="6.34879">
        <ele>1881.4000244141</ele>
        <time>2014-01-11T08:12:48.000Z</time>
      </trkpt>
      <trkpt lat="45.18397" lon="6.34879">
        <ele>1881.4000244141</ele>
        <time>2014-01-11T08:12:49.000Z</time>
      </trkpt>
      <trkpt lat="45.18397" lon="6.34879">
        <ele>1881.4000244141</ele>
        <time>2014-01-11T08:12:50.000Z</time>
      </trkpt>
      <trkpt lat="45.18397" lon="6.34879">
        <ele>1881.4000244141</ele>
        <time>2014-01-11T08:12:51.000Z</time>
      </trkpt>
      <trkpt lat="45.18397" lon="6.34879">
        <ele>1881.4000244141</ele>
        <time>2014-01-11T08:12:52.000Z</time>
      </trkpt>
      <trkpt lat="45.18397" lon="6.34879">
        <ele>1881.4000244141</ele>
        <time>2014-01-11T08:12:53.000Z</time>
      </trkpt>
      <trkpt lat="45.18397" lon="6.34879">
        <ele>1881.4000244141</ele>
        <time>2014-01-11T08:12:55.000Z</time>
      </trkpt>
      <trkpt lat="45.18397" lon="6.34879">
        <ele>1881.4000244141</ele>
        <time>2014-01-11T08:12:56.000Z</time>
      </trkpt>
      <trkpt lat="45.18397" lon="6.34879">
        <ele>1881.4000244141</ele>
        <time>2014-01-11T08:12:59.000Z</time>
      </trkpt>
      <trkpt lat="45.18397" lon="6.34879">
        <ele>1881.4000244141</ele>
        <time>2014-01-11T08:13:00.000Z</time>
      </trkpt>
      <trkpt lat="45.18397" lon="6.34879">
        <ele>1881.4000244141</ele>
        <time>2014-01-11T08:13:01.000Z</time>
      </trkpt>
      <trkpt lat="45.18397" lon="6.34879">
        <ele>1881.4000244141</ele>
        <time>2014-01-11T08:13:03.000Z</time>
      </trkpt>
      <trkpt lat="45.18397" lon="6.34879">
        <ele>1881.4000244141</ele>
        <time>2014-01-11T08:13:04.000Z</time>
      </trkpt>
      <trkpt lat="45.18397" lon="6.34879">
        <ele>1881.4000244141</ele>
        <time>2014-01-11T08:13:05.000Z</time>
      </trkpt>
      <trkpt lat="45.18397" lon="6.34879">
        <ele>1881.4000244141</ele>
        <time>2014-01-11T08:13:06.000Z</time>
      </trkpt>
      <trkpt lat="45.18397" lon="6.34879">
        <ele>1881.4000244141</ele>
        <time>2014-01-11T08:13:09.000Z</time>
      </trkpt>
      <trkpt lat="45.18397" lon="6.34879">
        <ele>1881.4000244141</ele>
        <time>2014-01-11T08:13:10.000Z</time>
      </trkpt>
      <trkpt lat="45.18397" lon="6.34879">
        <ele>1881.4000244141</ele>
        <time>2014-01-11T08:13:11.000Z</time>
      </trkpt>
      <trkpt lat="45.18397" lon="6.34879">
        <ele>1881.4000244141</ele>
        <time>2014-01-11T08:13:13.000Z</time>
      </trkpt>
      <trkpt lat="45.18397" lon="6.34879">
        <ele>1881.4000244141</ele>
        <time>2014-01-11T08:13:18.000Z</time>
      </trkpt>
      <trkpt lat="45.18397" lon="6.34879">
        <ele>1881.4000244141</ele>
        <time>2014-01-11T08:13:19.000Z</time>
      </trkpt>
      <trkpt lat="45.18397" lon="6.34879">
        <ele>1881.4000244141</ele>
        <time>2014-01-11T08:13:20.000Z</time>
      </trkpt>
      <trkpt lat="45.18397" lon="6.34879">
        <ele>1881.4000244141</ele>
        <time>2014-01-11T08:13:21.000Z</time>
      </trkpt>
      <trkpt lat="45.18397" lon="6.34879">
        <ele>1881.4000244141</ele>
        <time>2014-01-11T08:13:22.000Z</time>
      </trkpt>
      <trkpt lat="45.18397" lon="6.34879">
        <ele>1881.4000244141</ele>
        <time>2014-01-11T08:13:23.000Z</time>
      </trkpt>
      <trkpt lat="45.18397" lon="6.34879">
        <ele>1881.4000244141</ele>
        <time>2014-01-11T08:13:24.000Z</time>
      </trkpt>
      <trkpt lat="45.18397" lon="6.34879">
        <ele>1881.4000244141</ele>
        <time>2014-01-11T08:13:25.000Z</time>
      </trkpt>
      <trkpt lat="45.18397" lon="6.34879">
        <ele>1881.4000244141</ele>
        <time>2014-01-11T08:13:27.000Z</time>
      </trkpt>
      <trkpt lat="45.18397" lon="6.34879">
        <ele>1881.4000244141</ele>
        <time>2014-01-11T08:13:28.000Z</time>
      </trkpt>
      <trkpt lat="45.18397" lon="6.34879">
        <ele>1881.4000244141</ele>
        <time>2014-01-11T08:13:29.000Z</time>
      </trkpt>
      <trkpt lat="45.18397" lon="6.34879">
        <ele>1881.4000244141</ele>
        <time>2014-01-11T08:13:32.000Z</time>
      </trkpt>
      <trkpt lat="45.18397" lon="6.34879">
        <ele>1881.4000244141</ele>
        <time>2014-01-11T08:13:33.000Z</time>
      </trkpt>
      <trkpt lat="45.18397" lon="6.34879">
        <ele>1881.4000244141</ele>
        <time>2014-01-11T08:13:34.000Z</time>
      </trkpt>
      <trkpt lat="45.18397" lon="6.34879">
        <ele>1881.4000244141</ele>
        <time>2014-01-11T08:13:39.000Z</time>
      </trkpt>
      <trkpt lat="45.18397" lon="6.34879">
        <ele>1881.4000244141</ele>
        <time>2014-01-11T08:13:41.000Z</time>
      </trkpt>
      <trkpt lat="45.18397" lon="6.34879">
        <ele>1881.5999755859</ele>
        <time>2014-01-11T08:13:42.000Z</time>
      </trkpt>
      <trkpt lat="45.18397" lon="6.34879">
        <ele>1881.5999755859</ele>
        <time>2014-01-11T08:13:43.000Z</time>
      </trkpt>
      <trkpt lat="45.18397" lon="6.34879">
        <ele>1881.5999755859</ele>
        <time>2014-01-11T08:13:44.000Z</time>
      </trkpt>
      <trkpt lat="45.18397" lon="6.34879">
        <ele>1881.5999755859</ele>
        <time>2014-01-11T08:13:45.000Z</time>
      </trkpt>
      <trkpt lat="45.18397" lon="6.34879">
        <ele>1881.5999755859</ele>
        <time>2014-01-11T08:13:47.000Z</time>
      </trkpt>
      <trkpt lat="45.18397" lon="6.34879">
        <ele>1881.5999755859</ele>
        <time>2014-01-11T08:13:49.000Z</time>
      </trkpt>
      <trkpt lat="45.18397" lon="6.34879">
        <ele>1881.5999755859</ele>
        <time>2014-01-11T08:13:50.000Z</time>
      </trkpt>
      <trkpt lat="45.18397" lon="6.34879">
        <ele>1881.5999755859</ele>
        <time>2014-01-11T08:13:51.000Z</time>
      </trkpt>
      <trkpt lat="45.18397" lon="6.34879">
        <ele>1881.4000244141</ele>
        <time>2014-01-11T08:13:52.000Z</time>
      </trkpt>
      <trkpt lat="45.18397" lon="6.34879">
        <ele>1881.4000244141</ele>
        <time>2014-01-11T08:13:53.000Z</time>
      </trkpt>
      <trkpt lat="45.18397" lon="6.34879">
        <ele>1881.4000244141</ele>
        <time>2014-01-11T08:13:54.000Z</time>
      </trkpt>
      <trkpt lat="45.18397" lon="6.34879">
        <ele>1881.1999511719</ele>
        <time>2014-01-11T08:13:55.000Z</time>
      </trkpt>
      <trkpt lat="45.18397" lon="6.34879">
        <ele>1881.4000244141</ele>
        <time>2014-01-11T08:13:56.000Z</time>
      </trkpt>
      <trkpt lat="45.18397" lon="6.34879">
        <ele>1881.5999755859</ele>
        <time>2014-01-11T08:13:57.000Z</time>
      </trkpt>
      <trkpt lat="45.18397" lon="6.34879">
        <ele>1881.8000488281</ele>
        <time>2014-01-11T08:13:58.000Z</time>
      </trkpt>
      <trkpt lat="45.18397" lon="6.34879">
        <ele>1882</ele>
        <time>2014-01-11T08:13:59.000Z</time>
      </trkpt>
      <trkpt lat="45.18397" lon="6.34879">
        <ele>1882</ele>
        <time>2014-01-11T08:14:00.000Z</time>
      </trkpt>
      <trkpt lat="45.18397" lon="6.34879">
        <ele>1882</ele>
        <time>2014-01-11T08:14:02.000Z</time>
      </trkpt>
      <trkpt lat="45.18397" lon="6.34879">
        <ele>1882</ele>
        <time>2014-01-11T08:14:03.000Z</time>
      </trkpt>
      <trkpt lat="45.18397" lon="6.34879">
        <ele>1881.8000488281</ele>
        <time>2014-01-11T08:14:04.000Z</time>
      </trkpt>
      <trkpt lat="45.18397" lon="6.34879">
        <ele>1881.8000488281</ele>
        <time>2014-01-11T08:14:05.000Z</time>
      </trkpt>
      <trkpt lat="45.18397" lon="6.34879">
        <ele>1881.8000488281</ele>
        <time>2014-01-11T08:14:06.000Z</time>
      </trkpt>
      <trkpt lat="45.18397" lon="6.34879">
        <ele>1881.8000488281</ele>
        <time>2014-01-11T08:14:07.000Z</time>
      </trkpt>
      <trkpt lat="45.18397" lon="6.34879">
        <ele>1881.8000488281</ele>
        <time>2014-01-11T08:14:08.000Z</time>
      </trkpt>
      <trkpt lat="45.18397" lon="6.34879">
        <ele>1881.8000488281</ele>
        <time>2014-01-11T08:14:09.000Z</time>
      </trkpt>
      <trkpt lat="45.18397" lon="6.34879">
        <ele>1881.8000488281</ele>
        <time>2014-01-11T08:14:11.000Z</time>
      </trkpt>
      <trkpt lat="45.18397" lon="6.34879">
        <ele>1881.8000488281</ele>
        <time>2014-01-11T08:14:12.000Z</time>
      </trkpt>
      <trkpt lat="45.18397" lon="6.34879">
        <ele>1881.8000488281</ele>
        <time>2014-01-11T08:14:13.000Z</time>
      </trkpt>
      <trkpt lat="45.18397" lon="6.34879">
        <ele>1881.8000488281</ele>
        <time>2014-01-11T08:14:14.000Z</time>
      </trkpt>
      <trkpt lat="45.18397" lon="6.34879">
        <ele>1881.8000488281</ele>
        <time>2014-01-11T08:14:15.000Z</time>
      </trkpt>
      <trkpt lat="45.18397" lon="6.34879">
        <ele>1881.8000488281</ele>
        <time>2014-01-11T08:14:16.000Z</time>
      </trkpt>
      <trkpt lat="45.18397" lon="6.34879">
        <ele>1881.8000488281</ele>
        <time>2014-01-11T08:14:17.000Z</time>
      </trkpt>
      <trkpt lat="45.18397" lon="6.34879">
        <ele>1881.8000488281</ele>
        <time>2014-01-11T08:14:18.000Z</time>
      </trkpt>
      <trkpt lat="45.18397" lon="6.34879">
        <ele>1881.8000488281</ele>
        <time>2014-01-11T08:14:19.000Z</time>
      </trkpt>
      <trkpt lat="45.18397" lon="6.34879">
        <ele>1882</ele>
        <time>2014-01-11T08:14:20.000Z</time>
      </trkpt>
      <trkpt lat="45.18397" lon="6.34879">
        <ele>1882</ele>
        <time>2014-01-11T08:14:21.000Z</time>
      </trkpt>
      <trkpt lat="45.18397" lon="6.34879">
        <ele>1882</ele>
        <time>2014-01-11T08:14:22.000Z</time>
      </trkpt>
      <trkpt lat="45.18397" lon="6.34879">
        <ele>1882</ele>
        <time>2014-01-11T08:14:23.000Z</time>
      </trkpt>
      <trkpt lat="45.18397" lon="6.34879">
        <ele>1882</ele>
        <time>2014-01-11T08:14:24.000Z</time>
      </trkpt>
      <trkpt lat="45.18397" lon="6.34879">
        <ele>1882</ele>
        <time>2014-01-11T08:14:25.000Z</time>
      </trkpt>
      <trkpt lat="45.18397" lon="6.34879">
        <ele>1882</ele>
        <time>2014-01-11T08:14:26.000Z</time>
      </trkpt>
      <trkpt lat="45.18397" lon="6.34879">
        <ele>1882</ele>
        <time>2014-01-11T08:14:27.000Z</time>
      </trkpt>
      <trkpt lat="45.18397" lon="6.34879">
        <ele>1882</ele>
        <time>2014-01-11T08:14:28.000Z</time>
      </trkpt>
      <trkpt lat="45.18397" lon="6.34879">
        <ele>1882</ele>
        <time>2014-01-11T08:14:29.000Z</time>
      </trkpt>
      <trkpt lat="45.18397" lon="6.34879">
        <ele>1882</ele>
        <time>2014-01-11T08:14:30.000Z</time>
      </trkpt>
      <trkpt lat="45.18397" lon="6.34879">
        <ele>1882</ele>
        <time>2014-01-11T08:14:31.000Z</time>
      </trkpt>
      <trkpt lat="45.18397" lon="6.34879">
        <ele>1882</ele>
        <time>2014-01-11T08:14:32.000Z</time>
      </trkpt>
      <trkpt lat="45.18397" lon="6.34879">
        <ele>1882</ele>
        <time>2014-01-11T08:14:33.000Z</time>
      </trkpt>
      <trkpt lat="45.18397" lon="6.34879">
        <ele>1882</ele>
        <time>2014-01-11T08:14:34.000Z</time>
      </trkpt>
      <trkpt lat="45.18397" lon="6.34879">
        <ele>1882</ele>
        <time>2014-01-11T08:14:35.000Z</time>
      </trkpt>
      <trkpt lat="45.18397" lon="6.34879">
        <ele>1882.1999511719</ele>
        <time>2014-01-11T08:14:36.000Z</time>
      </trkpt>
      <trkpt lat="45.18397" lon="6.34879">
        <ele>1882.1999511719</ele>
        <time>2014-01-11T08:14:37.000Z</time>
      </trkpt>
      <trkpt lat="45.18397" lon="6.34879">
        <ele>1882.1999511719</ele>
        <time>2014-01-11T08:14:40.000Z</time>
      </trkpt>
      <trkpt lat="45.18397" lon="6.34879">
        <ele>1882.1999511719</ele>
        <time>2014-01-11T08:14:42.000Z</time>
      </trkpt>
      <trkpt lat="45.18397" lon="6.34879">
        <ele>1882.1999511719</ele>
        <time>2014-01-11T08:14:43.000Z</time>
      </trkpt>
      <trkpt lat="45.18397" lon="6.34879">
        <ele>1882.1999511719</ele>
        <time>2014-01-11T08:14:45.000Z</time>
      </trkpt>
      <trkpt lat="45.18397" lon="6.34879">
        <ele>1882.1999511719</ele>
        <time>2014-01-11T08:14:48.000Z</time>
      </trkpt>
      <trkpt lat="45.18397" lon="6.34879">
        <ele>1882.1999511719</ele>
        <time>2014-01-11T08:14:49.000Z</time>
      </trkpt>
      <trkpt lat="45.18397" lon="6.34879">
        <ele>1882.1999511719</ele>
        <time>2014-01-11T08:14:50.000Z</time>
      </trkpt>
      <trkpt lat="45.18397" lon="6.34879">
        <ele>1882.1999511719</ele>
        <time>2014-01-11T08:14:51.000Z</time>
      </trkpt>
      <trkpt lat="45.18396" lon="6.34879">
        <ele>1882.1999511719</ele>
        <time>2014-01-11T08:14:52.000Z</time>
      </trkpt>
      <trkpt lat="45.18396" lon="6.34879">
        <ele>1882.1999511719</ele>
        <time>2014-01-11T08:14:53.000Z</time>
      </trkpt>
      <trkpt lat="45.18395" lon="6.34882">
        <ele>1882.1999511719</ele>
        <time>2014-01-11T08:14:54.000Z</time>
      </trkpt>
      <trkpt lat="45.18395" lon="6.34882">
        <ele>1882.4000244141</ele>
        <time>2014-01-11T08:14:55.000Z</time>
      </trkpt>
      <trkpt lat="45.18394" lon="6.34884">
        <ele>1882.4000244141</ele>
        <time>2014-01-11T08:14:56.000Z</time>
      </trkpt>
      <trkpt lat="45.18393" lon="6.34886">
        <ele>1882.4000244141</ele>
        <time>2014-01-11T08:14:57.000Z</time>
      </trkpt>
      <trkpt lat="45.18393" lon="6.34886">
        <ele>1882.4000244141</ele>
        <time>2014-01-11T08:14:58.000Z</time>
      </trkpt>
      <trkpt lat="45.18392" lon="6.34888">
        <ele>1882.5999755859</ele>
        <time>2014-01-11T08:14:59.000Z</time>
      </trkpt>
      <trkpt lat="45.18391" lon="6.34889">
        <ele>1882.8000488281</ele>
        <time>2014-01-11T08:15:00.000Z</time>
      </trkpt>
      <trkpt lat="45.18391" lon="6.34889">
        <ele>1883</ele>
        <time>2014-01-11T08:15:01.000Z</time>
      </trkpt>
      <trkpt lat="45.1839" lon="6.34891">
        <ele>1883</ele>
        <time>2014-01-11T08:15:02.000Z</time>
      </trkpt>
      <trkpt lat="45.18389" lon="6.34892">
        <ele>1883.1999511719</ele>
        <time>2014-01-11T08:15:03.000Z</time>
      </trkpt>
      <trkpt lat="45.18389" lon="6.34892">
        <ele>1883.1999511719</ele>
        <time>2014-01-11T08:15:04.000Z</time>
      </trkpt>
      <trkpt lat="45.18388" lon="6.34893">
        <ele>1883.1999511719</ele>
        <time>2014-01-11T08:15:05.000Z</time>
      </trkpt>
      <trkpt lat="45.18387" lon="6.34895">
        <ele>1883.4000244141</ele>
        <time>2014-01-11T08:15:06.000Z</time>
      </trkpt>
      <trkpt lat="45.18386" lon="6.34896">
        <ele>1883.4000244141</ele>
        <time>2014-01-11T08:15:07.000Z</time>
      </trkpt>
      <trkpt lat="45.18386" lon="6.34897">
        <ele>1883.4000244141</ele>
        <time>2014-01-11T08:15:08.000Z</time>
      </trkpt>
      <trkpt lat="45.18385" lon="6.34899">
        <ele>1883.4000244141</ele>
        <time>2014-01-11T08:15:09.000Z</time>
      </trkpt>
      <trkpt lat="45.18384" lon="6.34899">
        <ele>1883.4000244141</ele>
        <time>2014-01-11T08:15:10.000Z</time>
      </trkpt>
      <trkpt lat="45.18384" lon="6.34899">
        <ele>1883.5999755859</ele>
        <time>2014-01-11T08:15:11.000Z</time>
      </trkpt>
      <trkpt lat="45.18383" lon="6.349">
        <ele>1883.8000488281</ele>
        <time>2014-01-11T08:15:12.000Z</time>
      </trkpt>
      <trkpt lat="45.18383" lon="6.34901">
        <ele>1884</ele>
        <time>2014-01-11T08:15:13.000Z</time>
      </trkpt>
      <trkpt lat="45.18382" lon="6.34901">
        <ele>1884</ele>
        <time>2014-01-11T08:15:14.000Z</time>
      </trkpt>
      <trkpt lat="45.18382" lon="6.34901">
        <ele>1884.1999511719</ele>
        <time>2014-01-11T08:15:15.000Z</time>
      </trkpt>
      <trkpt lat="45.1838" lon="6.34902">
        <ele>1884.4000244141</ele>
        <time>2014-01-11T08:15:16.000Z</time>
      </trkpt>
      <trkpt lat="45.1838" lon="6.34904">
        <ele>1884.8000488281</ele>
        <time>2014-01-11T08:15:17.000Z</time>
      </trkpt>
      <trkpt lat="45.18379" lon="6.34904">
        <ele>1885</ele>
        <time>2014-01-11T08:15:18.000Z</time>
      </trkpt>
      <trkpt lat="45.18378" lon="6.34905">
        <ele>1885.1999511719</ele>
        <time>2014-01-11T08:15:19.000Z</time>
      </trkpt>
      <trkpt lat="45.18378" lon="6.34906">
        <ele>1885.4000244141</ele>
        <time>2014-01-11T08:15:20.000Z</time>
      </trkpt>
      <trkpt lat="45.18377" lon="6.34907">
        <ele>1885.5999755859</ele>
        <time>2014-01-11T08:15:21.000Z</time>
      </trkpt>
      <trkpt lat="45.18376" lon="6.34908">
        <ele>1885.8000488281</ele>
        <time>2014-01-11T08:15:22.000Z</time>
      </trkpt>
      <trkpt lat="45.18376" lon="6.34909">
        <ele>1886</ele>
        <time>2014-01-11T08:15:23.000Z</time>
      </trkpt>
      <trkpt lat="45.18375" lon="6.34909">
        <ele>1886.4000244141</ele>
        <time>2014-01-11T08:15:24.000Z</time>
      </trkpt>
      <trkpt lat="45.18374" lon="6.3491">
        <ele>1886.4000244141</ele>
        <time>2014-01-11T08:15:25.000Z</time>
      </trkpt>
      <trkpt lat="45.18374" lon="6.3491">
        <ele>1886.5999755859</ele>
        <time>2014-01-11T08:15:26.000Z</time>
      </trkpt>
      <trkpt lat="45.18374" lon="6.3491">
        <ele>1886.8000488281</ele>
        <time>2014-01-11T08:15:27.000Z</time>
      </trkpt>
      <trkpt lat="45.18373" lon="6.3491">
        <ele>1887</ele>
        <time>2014-01-11T08:15:28.000Z</time>
      </trkpt>
      <trkpt lat="45.18372" lon="6.34911">
        <ele>1887.1999511719</ele>
        <time>2014-01-11T08:15:29.000Z</time>
      </trkpt>
      <trkpt lat="45.18371" lon="6.34912">
        <ele>1887.4000244141</ele>
        <time>2014-01-11T08:15:30.000Z</time>
      </trkpt>
      <trkpt lat="45.1837" lon="6.34912">
        <ele>1887.5999755859</ele>
        <time>2014-01-11T08:15:31.000Z</time>
      </trkpt>
      <trkpt lat="45.1837" lon="6.34912">
        <ele>1887.8000488281</ele>
        <time>2014-01-11T08:15:32.000Z</time>
      </trkpt>
      <trkpt lat="45.18369" lon="6.34912">
        <ele>1888</ele>
        <time>2014-01-11T08:15:33.000Z</time>
      </trkpt>
      <trkpt lat="45.18369" lon="6.34913">
        <ele>1888.1999511719</ele>
        <time>2014-01-11T08:15:34.000Z</time>
      </trkpt>
      <trkpt lat="45.18368" lon="6.34914">
        <ele>1888.4000244141</ele>
        <time>2014-01-11T08:15:35.000Z</time>
      </trkpt>
      <trkpt lat="45.18368" lon="6.34914">
        <ele>1888.8000488281</ele>
        <time>2014-01-11T08:15:36.000Z</time>
      </trkpt>
      <trkpt lat="45.18367" lon="6.34916">
        <ele>1889.4000244141</ele>
        <time>2014-01-11T08:15:37.000Z</time>
      </trkpt>
      <trkpt lat="45.18367" lon="6.34916">
        <ele>1889.5999755859</ele>
        <time>2014-01-11T08:15:38.000Z</time>
      </trkpt>
      <trkpt lat="45.18366" lon="6.34916">
        <ele>1889.8000488281</ele>
        <time>2014-01-11T08:15:39.000Z</time>
      </trkpt>
      <trkpt lat="45.18365" lon="6.34917">
        <ele>1890</ele>
        <time>2014-01-11T08:15:40.000Z</time>
      </trkpt>
      <trkpt lat="45.18365" lon="6.34917">
        <ele>1890.1999511719</ele>
        <time>2014-01-11T08:15:41.000Z</time>
      </trkpt>
      <trkpt lat="45.18364" lon="6.34918">
        <ele>1890.4000244141</ele>
        <time>2014-01-11T08:15:42.000Z</time>
      </trkpt>
      <trkpt lat="45.18363" lon="6.34918">
        <ele>1890.5999755859</ele>
        <time>2014-01-11T08:15:43.000Z</time>
      </trkpt>
      <trkpt lat="45.18362" lon="6.34919">
        <ele>1891</ele>
        <time>2014-01-11T08:15:44.000Z</time>
      </trkpt>
      <trkpt lat="45.18362" lon="6.34919">
        <ele>1891.1999511719</ele>
        <time>2014-01-11T08:15:45.000Z</time>
      </trkpt>
      <trkpt lat="45.18361" lon="6.34919">
        <ele>1891.4000244141</ele>
        <time>2014-01-11T08:15:46.000Z</time>
      </trkpt>
      <trkpt lat="45.18361" lon="6.34919">
        <ele>1891.5999755859</ele>
        <time>2014-01-11T08:15:47.000Z</time>
      </trkpt>
      <trkpt lat="45.1836" lon="6.3492">
        <ele>1891.8000488281</ele>
        <time>2014-01-11T08:15:48.000Z</time>
      </trkpt>
      <trkpt lat="45.18359" lon="6.34921">
        <ele>1892</ele>
        <time>2014-01-11T08:15:49.000Z</time>
      </trkpt>
      <trkpt lat="45.18359" lon="6.34921">
        <ele>1892.1999511719</ele>
        <time>2014-01-11T08:15:50.000Z</time>
      </trkpt>
      <trkpt lat="45.18358" lon="6.34922">
        <ele>1892.5999755859</ele>
        <time>2014-01-11T08:15:51.000Z</time>
      </trkpt>
      <trkpt lat="45.18358" lon="6.34923">
        <ele>1892.8000488281</ele>
        <time>2014-01-11T08:15:52.000Z</time>
      </trkpt>
      <trkpt lat="45.18357" lon="6.34923">
        <ele>1893</ele>
        <time>2014-01-11T08:15:53.000Z</time>
      </trkpt>
      <trkpt lat="45.18357" lon="6.34923">
        <ele>1893.1999511719</ele>
        <time>2014-01-11T08:15:54.000Z</time>
      </trkpt>
      <trkpt lat="45.18356" lon="6.34923">
        <ele>1893.4000244141</ele>
        <time>2014-01-11T08:15:55.000Z</time>
      </trkpt>
      <trkpt lat="45.18356" lon="6.34924">
        <ele>1893.5999755859</ele>
        <time>2014-01-11T08:15:56.000Z</time>
      </trkpt>
      <trkpt lat="45.18355" lon="6.34925">
        <ele>1893.8000488281</ele>
        <time>2014-01-11T08:15:57.000Z</time>
      </trkpt>
      <trkpt lat="45.18355" lon="6.34926">
        <ele>1894.1999511719</ele>
        <time>2014-01-11T08:15:58.000Z</time>
      </trkpt>
      <trkpt lat="45.18355" lon="6.34926">
        <ele>1894.4000244141</ele>
        <time>2014-01-11T08:15:59.000Z</time>
      </trkpt>
      <trkpt lat="45.18353" lon="6.34927">
        <ele>1894.8000488281</ele>
        <time>2014-01-11T08:16:00.000Z</time>
      </trkpt>
      <trkpt lat="45.18353" lon="6.34927">
        <ele>1895.4000244141</ele>
        <time>2014-01-11T08:16:01.000Z</time>
      </trkpt>
      <trkpt lat="45.18353" lon="6.34927">
        <ele>1895.5999755859</ele>
        <time>2014-01-11T08:16:02.000Z</time>
      </trkpt>
      <trkpt lat="45.18353" lon="6.34928">
        <ele>1895.8000488281</ele>
        <time>2014-01-11T08:16:03.000Z</time>
      </trkpt>
      <trkpt lat="45.18352" lon="6.34929">
        <ele>1896</ele>
        <time>2014-01-11T08:16:04.000Z</time>
      </trkpt>
      <trkpt lat="45.18352" lon="6.34929">
        <ele>1896.1999511719</ele>
        <time>2014-01-11T08:16:05.000Z</time>
      </trkpt>
      <trkpt lat="45.18351" lon="6.34929">
        <ele>1896.5999755859</ele>
        <time>2014-01-11T08:16:06.000Z</time>
      </trkpt>
      <trkpt lat="45.18351" lon="6.3493">
        <ele>1896.8000488281</ele>
        <time>2014-01-11T08:16:07.000Z</time>
      </trkpt>
      <trkpt lat="45.1835" lon="6.3493">
        <ele>1897</ele>
        <time>2014-01-11T08:16:08.000Z</time>
      </trkpt>
      <trkpt lat="45.1835" lon="6.3493">
        <ele>1897.4000244141</ele>
        <time>2014-01-11T08:16:09.000Z</time>
      </trkpt>
      <trkpt lat="45.1835" lon="6.34931">
        <ele>1897.5999755859</ele>
        <time>2014-01-11T08:16:10.000Z</time>
      </trkpt>
      <trkpt lat="45.1835" lon="6.34931">
        <ele>1897.8000488281</ele>
        <time>2014-01-11T08:16:11.000Z</time>
      </trkpt>
      <trkpt lat="45.1835" lon="6.34931">
        <ele>1898.1999511719</ele>
        <time>2014-01-11T08:16:12.000Z</time>
      </trkpt>
      <trkpt lat="45.18349" lon="6.34932">
        <ele>1898.4000244141</ele>
        <time>2014-01-11T08:16:13.000Z</time>
      </trkpt>
      <trkpt lat="45.18348" lon="6.34932">
        <ele>1898.5999755859</ele>
        <time>2014-01-11T08:16:14.000Z</time>
      </trkpt>
      <trkpt lat="45.18348" lon="6.34932">
        <ele>1898.8000488281</ele>
        <time>2014-01-11T08:16:15.000Z</time>
      </trkpt>
      <trkpt lat="45.18348" lon="6.34932">
        <ele>1899</ele>
        <time>2014-01-11T08:16:16.000Z</time>
      </trkpt>
      <trkpt lat="45.18347" lon="6.34933">
        <ele>1899.1999511719</ele>
        <time>2014-01-11T08:16:17.000Z</time>
      </trkpt>
      <trkpt lat="45.18347" lon="6.34934">
        <ele>1899.4000244141</ele>
        <time>2014-01-11T08:16:18.000Z</time>
      </trkpt>
      <trkpt lat="45.18346" lon="6.34934">
        <ele>1899.5999755859</ele>
        <time>2014-01-11T08:16:19.000Z</time>
      </trkpt>
      <trkpt lat="45.18345" lon="6.34935">
        <ele>1899.8000488281</ele>
        <time>2014-01-11T08:16:20.000Z</time>
      </trkpt>
      <trkpt lat="45.18345" lon="6.34935">
        <ele>1900.1999511719</ele>
        <time>2014-01-11T08:16:21.000Z</time>
      </trkpt>
      <trkpt lat="45.18344" lon="6.34937">
        <ele>1900.4000244141</ele>
        <time>2014-01-11T08:16:22.000Z</time>
      </trkpt>
      <trkpt lat="45.18344" lon="6.34937">
        <ele>1900.5999755859</ele>
        <time>2014-01-11T08:16:23.000Z</time>
      </trkpt>
      <trkpt lat="45.18343" lon="6.34938">
        <ele>1901</ele>
        <time>2014-01-11T08:16:24.000Z</time>
      </trkpt>
      <trkpt lat="45.18343" lon="6.34938">
        <ele>1901.4000244141</ele>
        <time>2014-01-11T08:16:25.000Z</time>
      </trkpt>
      <trkpt lat="45.18343" lon="6.34938">
        <ele>1901.5999755859</ele>
        <time>2014-01-11T08:16:26.000Z</time>
      </trkpt>
      <trkpt lat="45.18343" lon="6.34938">
        <ele>1901.8000488281</ele>
        <time>2014-01-11T08:16:27.000Z</time>
      </trkpt>
      <trkpt lat="45.18342" lon="6.34939">
        <ele>1902.1999511719</ele>
        <time>2014-01-11T08:16:28.000Z</time>
      </trkpt>
      <trkpt lat="45.18342" lon="6.34939">
        <ele>1902.4000244141</ele>
        <time>2014-01-11T08:16:29.000Z</time>
      </trkpt>
      <trkpt lat="45.18342" lon="6.34939">
        <ele>1902.5999755859</ele>
        <time>2014-01-11T08:16:30.000Z</time>
      </trkpt>
      <trkpt lat="45.18342" lon="6.3494">
        <ele>1902.8000488281</ele>
        <time>2014-01-11T08:16:31.000Z</time>
      </trkpt>
      <trkpt lat="45.18341" lon="6.34941">
        <ele>1903.1999511719</ele>
        <time>2014-01-11T08:16:32.000Z</time>
      </trkpt>
      <trkpt lat="45.18341" lon="6.34942">
        <ele>1903.4000244141</ele>
        <time>2014-01-11T08:16:33.000Z</time>
      </trkpt>
      <trkpt lat="45.18341" lon="6.34942">
        <ele>1903.5999755859</ele>
        <time>2014-01-11T08:16:34.000Z</time>
      </trkpt>
      <trkpt lat="45.1834" lon="6.34944">
        <ele>1903.8000488281</ele>
        <time>2014-01-11T08:16:35.000Z</time>
      </trkpt>
      <trkpt lat="45.1834" lon="6.34944">
        <ele>1904.1999511719</ele>
        <time>2014-01-11T08:16:36.000Z</time>
      </trkpt>
      <trkpt lat="45.18339" lon="6.34946">
        <ele>1904.4000244141</ele>
        <time>2014-01-11T08:16:37.000Z</time>
      </trkpt>
      <trkpt lat="45.18339" lon="6.34946">
        <ele>1904.5999755859</ele>
        <time>2014-01-11T08:16:38.000Z</time>
      </trkpt>
      <trkpt lat="45.18339" lon="6.34947">
        <ele>1904.8000488281</ele>
        <time>2014-01-11T08:16:39.000Z</time>
      </trkpt>
      <trkpt lat="45.18339" lon="6.34947">
        <ele>1905</ele>
        <time>2014-01-11T08:16:40.000Z</time>
      </trkpt>
      <trkpt lat="45.18339" lon="6.34948">
        <ele>1905.1999511719</ele>
        <time>2014-01-11T08:16:41.000Z</time>
      </trkpt>
      <trkpt lat="45.18338" lon="6.34949">
        <ele>1905.4000244141</ele>
        <time>2014-01-11T08:16:42.000Z</time>
      </trkpt>
      <trkpt lat="45.18337" lon="6.34949">
        <ele>1905.5999755859</ele>
        <time>2014-01-11T08:16:43.000Z</time>
      </trkpt>
      <trkpt lat="45.18336" lon="6.3495">
        <ele>1906</ele>
        <time>2014-01-11T08:16:44.000Z</time>
      </trkpt>
      <trkpt lat="45.18336" lon="6.3495">
        <ele>1906.4000244141</ele>
        <time>2014-01-11T08:16:45.000Z</time>
      </trkpt>
      <trkpt lat="45.18335" lon="6.3495">
        <ele>1906.8000488281</ele>
        <time>2014-01-11T08:16:46.000Z</time>
      </trkpt>
      <trkpt lat="45.18335" lon="6.3495">
        <ele>1907</ele>
        <time>2014-01-11T08:16:47.000Z</time>
      </trkpt>
      <trkpt lat="45.18334" lon="6.3495">
        <ele>1907.4000244141</ele>
        <time>2014-01-11T08:16:48.000Z</time>
      </trkpt>
      <trkpt lat="45.18334" lon="6.34951">
        <ele>1907.8000488281</ele>
        <time>2014-01-11T08:16:49.000Z</time>
      </trkpt>
      <trkpt lat="45.18333" lon="6.34951">
        <ele>1908</ele>
        <time>2014-01-11T08:16:50.000Z</time>
      </trkpt>
      <trkpt lat="45.18332" lon="6.34952">
        <ele>1908.1999511719</ele>
        <time>2014-01-11T08:16:51.000Z</time>
      </trkpt>
      <trkpt lat="45.18332" lon="6.34952">
        <ele>1908.4000244141</ele>
        <time>2014-01-11T08:16:52.000Z</time>
      </trkpt>
      <trkpt lat="45.18331" lon="6.34953">
        <ele>1908.8000488281</ele>
        <time>2014-01-11T08:16:53.000Z</time>
      </trkpt>
      <trkpt lat="45.18331" lon="6.34954">
        <ele>1909</ele>
        <time>2014-01-11T08:16:54.000Z</time>
      </trkpt>
      <trkpt lat="45.1833" lon="6.34955">
        <ele>1909.1999511719</ele>
        <time>2014-01-11T08:16:55.000Z</time>
      </trkpt>
      <trkpt lat="45.1833" lon="6.34955">
        <ele>1909.4000244141</ele>
        <time>2014-01-11T08:16:56.000Z</time>
      </trkpt>
      <trkpt lat="45.18329" lon="6.34955">
        <ele>1909.5999755859</ele>
        <time>2014-01-11T08:16:57.000Z</time>
      </trkpt>
      <trkpt lat="45.18329" lon="6.34955">
        <ele>1909.8000488281</ele>
        <time>2014-01-11T08:16:58.000Z</time>
      </trkpt>
      <trkpt lat="45.18328" lon="6.34957">
        <ele>1910</ele>
        <time>2014-01-11T08:16:59.000Z</time>
      </trkpt>
      <trkpt lat="45.18328" lon="6.34957">
        <ele>1910.4000244141</ele>
        <time>2014-01-11T08:17:00.000Z</time>
      </trkpt>
      <trkpt lat="45.18327" lon="6.34957">
        <ele>1910.5999755859</ele>
        <time>2014-01-11T08:17:01.000Z</time>
      </trkpt>
      <trkpt lat="45.18326" lon="6.34959">
        <ele>1911</ele>
        <time>2014-01-11T08:17:02.000Z</time>
      </trkpt>
      <trkpt lat="45.18326" lon="6.34959">
        <ele>1911.1999511719</ele>
        <time>2014-01-11T08:17:03.000Z</time>
      </trkpt>
      <trkpt lat="45.18325" lon="6.3496">
        <ele>1911.4000244141</ele>
        <time>2014-01-11T08:17:04.000Z</time>
      </trkpt>
      <trkpt lat="45.18325" lon="6.3496">
        <ele>1911.5999755859</ele>
        <time>2014-01-11T08:17:05.000Z</time>
      </trkpt>
      <trkpt lat="45.18325" lon="6.34961">
        <ele>1911.8000488281</ele>
        <time>2014-01-11T08:17:06.000Z</time>
      </trkpt>
      <trkpt lat="45.18325" lon="6.34961">
        <ele>1912</ele>
        <time>2014-01-11T08:17:07.000Z</time>
      </trkpt>
      <trkpt lat="45.18325" lon="6.34962">
        <ele>1912.1999511719</ele>
        <time>2014-01-11T08:17:08.000Z</time>
      </trkpt>
      <trkpt lat="45.18325" lon="6.34962">
        <ele>1912.4000244141</ele>
        <time>2014-01-11T08:17:09.000Z</time>
      </trkpt>
      <trkpt lat="45.18324" lon="6.34962">
        <ele>1912.5999755859</ele>
        <time>2014-01-11T08:17:10.000Z</time>
      </trkpt>
      <trkpt lat="45.18323" lon="6.34964">
        <ele>1912.5999755859</ele>
        <time>2014-01-11T08:17:11.000Z</time>
      </trkpt>
      <trkpt lat="45.18323" lon="6.34964">
        <ele>1912.8000488281</ele>
        <time>2014-01-11T08:17:12.000Z</time>
      </trkpt>
      <trkpt lat="45.18322" lon="6.34965">
        <ele>1913.1999511719</ele>
        <time>2014-01-11T08:17:13.000Z</time>
      </trkpt>
      <trkpt lat="45.18322" lon="6.34965">
        <ele>1913.5999755859</ele>
        <time>2014-01-11T08:17:14.000Z</time>
      </trkpt>
      <trkpt lat="45.18321" lon="6.34966">
        <ele>1913.8000488281</ele>
        <time>2014-01-11T08:17:15.000Z</time>
      </trkpt>
      <trkpt lat="45.18321" lon="6.34967">
        <ele>1914</ele>
        <time>2014-01-11T08:17:16.000Z</time>
      </trkpt>
      <trkpt lat="45.1832" lon="6.34967">
        <ele>1914.1999511719</ele>
        <time>2014-01-11T08:17:17.000Z</time>
      </trkpt>
      <trkpt lat="45.1832" lon="6.34967">
        <ele>1914.4000244141</ele>
        <time>2014-01-11T08:17:18.000Z</time>
      </trkpt>
      <trkpt lat="45.1832" lon="6.34967">
        <ele>1914.5999755859</ele>
        <time>2014-01-11T08:17:19.000Z</time>
      </trkpt>
      <trkpt lat="45.1832" lon="6.34967">
        <ele>1914.8000488281</ele>
        <time>2014-01-11T08:17:20.000Z</time>
      </trkpt>
      <trkpt lat="45.1832" lon="6.34967">
        <ele>1915</ele>
        <time>2014-01-11T08:17:21.000Z</time>
      </trkpt>
      <trkpt lat="45.1832" lon="6.34968">
        <ele>1915.1999511719</ele>
        <time>2014-01-11T08:17:22.000Z</time>
      </trkpt>
      <trkpt lat="45.1832" lon="6.34968">
        <ele>1915.4000244141</ele>
        <time>2014-01-11T08:17:23.000Z</time>
      </trkpt>
      <trkpt lat="45.1832" lon="6.34968">
        <ele>1915.5999755859</ele>
        <time>2014-01-11T08:17:24.000Z</time>
      </trkpt>
      <trkpt lat="45.18319" lon="6.3497">
        <ele>1916</ele>
        <time>2014-01-11T08:17:25.000Z</time>
      </trkpt>
      <trkpt lat="45.18319" lon="6.34971">
        <ele>1916.1999511719</ele>
        <time>2014-01-11T08:17:26.000Z</time>
      </trkpt>
      <trkpt lat="45.18318" lon="6.34972">
        <ele>1916.4000244141</ele>
        <time>2014-01-11T08:17:27.000Z</time>
      </trkpt>
      <trkpt lat="45.18318" lon="6.34973">
        <ele>1916.5999755859</ele>
        <time>2014-01-11T08:17:28.000Z</time>
      </trkpt>
      <trkpt lat="45.18318" lon="6.34974">
        <ele>1916.8000488281</ele>
        <time>2014-01-11T08:17:29.000Z</time>
      </trkpt>
      <trkpt lat="45.18317" lon="6.34974">
        <ele>1917</ele>
        <time>2014-01-11T08:17:30.000Z</time>
      </trkpt>
      <trkpt lat="45.18316" lon="6.34975">
        <ele>1917.1999511719</ele>
        <time>2014-01-11T08:17:31.000Z</time>
      </trkpt>
      <trkpt lat="45.18316" lon="6.34976">
        <ele>1917.1999511719</ele>
        <time>2014-01-11T08:17:32.000Z</time>
      </trkpt>
      <trkpt lat="45.18316" lon="6.34976">
        <ele>1917.4000244141</ele>
        <time>2014-01-11T08:17:33.000Z</time>
      </trkpt>
      <trkpt lat="45.18315" lon="6.34978">
        <ele>1917.5999755859</ele>
        <time>2014-01-11T08:17:34.000Z</time>
      </trkpt>
      <trkpt lat="45.18315" lon="6.34979">
        <ele>1917.8000488281</ele>
        <time>2014-01-11T08:17:35.000Z</time>
      </trkpt>
      <trkpt lat="45.18314" lon="6.34979">
        <ele>1918</ele>
        <time>2014-01-11T08:17:36.000Z</time>
      </trkpt>
      <trkpt lat="45.18314" lon="6.34981">
        <ele>1918.1999511719</ele>
        <time>2014-01-11T08:17:37.000Z</time>
      </trkpt>
      <trkpt lat="45.18314" lon="6.34981">
        <ele>1918.4000244141</ele>
        <time>2014-01-11T08:17:38.000Z</time>
      </trkpt>
      <trkpt lat="45.18313" lon="6.34982">
        <ele>1918.5999755859</ele>
        <time>2014-01-11T08:17:39.000Z</time>
      </trkpt>
      <trkpt lat="45.18313" lon="6.34984">
        <ele>1918.5999755859</ele>
        <time>2014-01-11T08:17:40.000Z</time>
      </trkpt>
      <trkpt lat="45.18313" lon="6.34984">
        <ele>1918.8000488281</ele>
        <time>2014-01-11T08:17:41.000Z</time>
      </trkpt>
      <trkpt lat="45.18312" lon="6.34985">
        <ele>1918.8000488281</ele>
        <time>2014-01-11T08:17:42.000Z</time>
      </trkpt>
      <trkpt lat="45.18311" lon="6.34986">
        <ele>1919</ele>
        <time>2014-01-11T08:17:43.000Z</time>
      </trkpt>
      <trkpt lat="45.18312" lon="6.34986">
        <ele>1919</ele>
        <time>2014-01-11T08:17:44.000Z</time>
      </trkpt>
      <trkpt lat="45.18311" lon="6.34987">
        <ele>1919.1999511719</ele>
        <time>2014-01-11T08:17:45.000Z</time>
      </trkpt>
      <trkpt lat="45.18311" lon="6.34988">
        <ele>1919.4000244141</ele>
        <time>2014-01-11T08:17:46.000Z</time>
      </trkpt>
      <trkpt lat="45.18311" lon="6.34988">
        <ele>1919.5999755859</ele>
        <time>2014-01-11T08:17:47.000Z</time>
      </trkpt>
      <trkpt lat="45.1831" lon="6.34991">
        <ele>1919.8000488281</ele>
        <time>2014-01-11T08:17:48.000Z</time>
      </trkpt>
      <trkpt lat="45.1831" lon="6.34991">
        <ele>1920</ele>
        <time>2014-01-11T08:17:49.000Z</time>
      </trkpt>
      <trkpt lat="45.18309" lon="6.34992">
        <ele>1920.1999511719</ele>
        <time>2014-01-11T08:17:50.000Z</time>
      </trkpt>
      <trkpt lat="45.18309" lon="6.34992">
        <ele>1920.4000244141</ele>
        <time>2014-01-11T08:17:51.000Z</time>
      </trkpt>
      <trkpt lat="45.18309" lon="6.34993">
        <ele>1920.5999755859</ele>
        <time>2014-01-11T08:17:52.000Z</time>
      </trkpt>
      <trkpt lat="45.18307" lon="6.34994">
        <ele>1920.8000488281</ele>
        <time>2014-01-11T08:17:53.000Z</time>
      </trkpt>
      <trkpt lat="45.18306" lon="6.34994">
        <ele>1921</ele>
        <time>2014-01-11T08:17:54.000Z</time>
      </trkpt>
      <trkpt lat="45.18306" lon="6.34995">
        <ele>1921.4000244141</ele>
        <time>2014-01-11T08:17:55.000Z</time>
      </trkpt>
      <trkpt lat="45.18305" lon="6.34996">
        <ele>1921.5999755859</ele>
        <time>2014-01-11T08:17:56.000Z</time>
      </trkpt>
      <trkpt lat="45.18304" lon="6.34997">
        <ele>1921.5999755859</ele>
        <time>2014-01-11T08:17:57.000Z</time>
      </trkpt>
      <trkpt lat="45.18303" lon="6.34997">
        <ele>1921.8000488281</ele>
        <time>2014-01-11T08:17:58.000Z</time>
      </trkpt>
      <trkpt lat="45.18302" lon="6.34998">
        <ele>1922</ele>
        <time>2014-01-11T08:17:59.000Z</time>
      </trkpt>
      <trkpt lat="45.18302" lon="6.34998">
        <ele>1922</ele>
        <time>2014-01-11T08:18:00.000Z</time>
      </trkpt>
      <trkpt lat="45.18302" lon="6.34999">
        <ele>1922.1999511719</ele>
        <time>2014-01-11T08:18:01.000Z</time>
      </trkpt>
      <trkpt lat="45.183" lon="6.35">
        <ele>1922.4000244141</ele>
        <time>2014-01-11T08:18:02.000Z</time>
      </trkpt>
      <trkpt lat="45.18299" lon="6.35">
        <ele>1922.4000244141</ele>
        <time>2014-01-11T08:18:03.000Z</time>
      </trkpt>
      <trkpt lat="45.18299" lon="6.35001">
        <ele>1922.4000244141</ele>
        <time>2014-01-11T08:18:04.000Z</time>
      </trkpt>
      <trkpt lat="45.18298" lon="6.35002">
        <ele>1922.5999755859</ele>
        <time>2014-01-11T08:18:05.000Z</time>
      </trkpt>
      <trkpt lat="45.18298" lon="6.35002">
        <ele>1922.5999755859</ele>
        <time>2014-01-11T08:18:06.000Z</time>
      </trkpt>
      <trkpt lat="45.18297" lon="6.35003">
        <ele>1922.8000488281</ele>
        <time>2014-01-11T08:18:07.000Z</time>
      </trkpt>
      <trkpt lat="45.18296" lon="6.35004">
        <ele>1923</ele>
        <time>2014-01-11T08:18:08.000Z</time>
      </trkpt>
      <trkpt lat="45.18295" lon="6.35004">
        <ele>1923</ele>
        <time>2014-01-11T08:18:09.000Z</time>
      </trkpt>
      <trkpt lat="45.18295" lon="6.35004">
        <ele>1923.1999511719</ele>
        <time>2014-01-11T08:18:10.000Z</time>
      </trkpt>
      <trkpt lat="45.18294" lon="6.35006">
        <ele>1923.1999511719</ele>
        <time>2014-01-11T08:18:11.000Z</time>
      </trkpt>
      <trkpt lat="45.18293" lon="6.35006">
        <ele>1923.4000244141</ele>
        <time>2014-01-11T08:18:12.000Z</time>
      </trkpt>
      <trkpt lat="45.18292" lon="6.35007">
        <ele>1923.4000244141</ele>
        <time>2014-01-11T08:18:13.000Z</time>
      </trkpt>
      <trkpt lat="45.18291" lon="6.35008">
        <ele>1923.5999755859</ele>
        <time>2014-01-11T08:18:14.000Z</time>
      </trkpt>
      <trkpt lat="45.18291" lon="6.35008">
        <ele>1923.8000488281</ele>
        <time>2014-01-11T08:18:15.000Z</time>
      </trkpt>
      <trkpt lat="45.1829" lon="6.3501">
        <ele>1923.8000488281</ele>
        <time>2014-01-11T08:18:16.000Z</time>
      </trkpt>
      <trkpt lat="45.18289" lon="6.35011">
        <ele>1924</ele>
        <time>2014-01-11T08:18:17.000Z</time>
      </trkpt>
      <trkpt lat="45.18289" lon="6.35012">
        <ele>1924.1999511719</ele>
        <time>2014-01-11T08:18:18.000Z</time>
      </trkpt>
      <trkpt lat="45.18289" lon="6.35013">
        <ele>1924.1999511719</ele>
        <time>2014-01-11T08:18:19.000Z</time>
      </trkpt>
      <trkpt lat="45.18288" lon="6.35014">
        <ele>1924.1999511719</ele>
        <time>2014-01-11T08:18:20.000Z</time>
      </trkpt>
      <trkpt lat="45.18287" lon="6.35014">
        <ele>1924.4000244141</ele>
        <time>2014-01-11T08:18:21.000Z</time>
      </trkpt>
      <trkpt lat="45.18287" lon="6.35016">
        <ele>1924.5999755859</ele>
        <time>2014-01-11T08:18:22.000Z</time>
      </trkpt>
      <trkpt lat="45.18287" lon="6.35016">
        <ele>1924.8000488281</ele>
        <time>2014-01-11T08:18:23.000Z</time>
      </trkpt>
      <trkpt lat="45.18286" lon="6.35017">
        <ele>1925</ele>
        <time>2014-01-11T08:18:24.000Z</time>
      </trkpt>
      <trkpt lat="45.18286" lon="6.35019">
        <ele>1925.4000244141</ele>
        <time>2014-01-11T08:18:25.000Z</time>
      </trkpt>
      <trkpt lat="45.18286" lon="6.35019">
        <ele>1925.5999755859</ele>
        <time>2014-01-11T08:18:26.000Z</time>
      </trkpt>
      <trkpt lat="45.18286" lon="6.35021">
        <ele>1925.8000488281</ele>
        <time>2014-01-11T08:18:27.000Z</time>
      </trkpt>
      <trkpt lat="45.18286" lon="6.35021">
        <ele>1926</ele>
        <time>2014-01-11T08:18:28.000Z</time>
      </trkpt>
      <trkpt lat="45.18285" lon="6.35022">
        <ele>1926.1999511719</ele>
        <time>2014-01-11T08:18:29.000Z</time>
      </trkpt>
      <trkpt lat="45.18284" lon="6.35022">
        <ele>1926.4000244141</ele>
        <time>2014-01-11T08:18:30.000Z</time>
      </trkpt>
      <trkpt lat="45.18284" lon="6.35023">
        <ele>1926.8000488281</ele>
        <time>2014-01-11T08:18:31.000Z</time>
      </trkpt>
      <trkpt lat="45.18283" lon="6.35024">
        <ele>1927</ele>
        <time>2014-01-11T08:18:32.000Z</time>
      </trkpt>
      <trkpt lat="45.18283" lon="6.35024">
        <ele>1927.4000244141</ele>
        <time>2014-01-11T08:18:33.000Z</time>
      </trkpt>
      <trkpt lat="45.18282" lon="6.35025">
        <ele>1927.5999755859</ele>
        <time>2014-01-11T08:18:34.000Z</time>
      </trkpt>
      <trkpt lat="45.18282" lon="6.35026">
        <ele>1927.8000488281</ele>
        <time>2014-01-11T08:18:35.000Z</time>
      </trkpt>
      <trkpt lat="45.18282" lon="6.35027">
        <ele>1928.1999511719</ele>
        <time>2014-01-11T08:18:36.000Z</time>
      </trkpt>
      <trkpt lat="45.18281" lon="6.35027">
        <ele>1928.4000244141</ele>
        <time>2014-01-11T08:18:37.000Z</time>
      </trkpt>
      <trkpt lat="45.18281" lon="6.35028">
        <ele>1928.5999755859</ele>
        <time>2014-01-11T08:18:38.000Z</time>
      </trkpt>
      <trkpt lat="45.1828" lon="6.35029">
        <ele>1929</ele>
        <time>2014-01-11T08:18:39.000Z</time>
      </trkpt>
      <trkpt lat="45.1828" lon="6.35029">
        <ele>1929.1999511719</ele>
        <time>2014-01-11T08:18:40.000Z</time>
      </trkpt>
      <trkpt lat="45.18279" lon="6.3503">
        <ele>1929.4000244141</ele>
        <time>2014-01-11T08:18:41.000Z</time>
      </trkpt>
      <trkpt lat="45.18279" lon="6.3503">
        <ele>1929.5999755859</ele>
        <time>2014-01-11T08:18:42.000Z</time>
      </trkpt>
      <trkpt lat="45.18279" lon="6.35031">
        <ele>1930</ele>
        <time>2014-01-11T08:18:43.000Z</time>
      </trkpt>
      <trkpt lat="45.18279" lon="6.35032">
        <ele>1930.1999511719</ele>
        <time>2014-01-11T08:18:44.000Z</time>
      </trkpt>
      <trkpt lat="45.18279" lon="6.35033">
        <ele>1930.4000244141</ele>
        <time>2014-01-11T08:18:45.000Z</time>
      </trkpt>
      <trkpt lat="45.18278" lon="6.35034">
        <ele>1930.5999755859</ele>
        <time>2014-01-11T08:18:46.000Z</time>
      </trkpt>
      <trkpt lat="45.18278" lon="6.35034">
        <ele>1930.8000488281</ele>
        <time>2014-01-11T08:18:47.000Z</time>
      </trkpt>
      <trkpt lat="45.18278" lon="6.35034">
        <ele>1931.1999511719</ele>
        <time>2014-01-11T08:18:48.000Z</time>
      </trkpt>
      <trkpt lat="45.18278" lon="6.35035">
        <ele>1931.5999755859</ele>
        <time>2014-01-11T08:18:49.000Z</time>
      </trkpt>
      <trkpt lat="45.18278" lon="6.35035">
        <ele>1931.8000488281</ele>
        <time>2014-01-11T08:18:50.000Z</time>
      </trkpt>
      <trkpt lat="45.18278" lon="6.35036">
        <ele>1932</ele>
        <time>2014-01-11T08:18:51.000Z</time>
      </trkpt>
      <trkpt lat="45.18277" lon="6.35037">
        <ele>1932.1999511719</ele>
        <time>2014-01-11T08:18:52.000Z</time>
      </trkpt>
      <trkpt lat="45.18277" lon="6.35038">
        <ele>1932.5999755859</ele>
        <time>2014-01-11T08:18:53.000Z</time>
      </trkpt>
      <trkpt lat="45.18276" lon="6.35039">
        <ele>1932.8000488281</ele>
        <time>2014-01-11T08:18:54.000Z</time>
      </trkpt>
      <trkpt lat="45.18276" lon="6.35039">
        <ele>1933</ele>
        <time>2014-01-11T08:18:55.000Z</time>
      </trkpt>
      <trkpt lat="45.18275" lon="6.3504">
        <ele>1933.1999511719</ele>
        <time>2014-01-11T08:18:56.000Z</time>
      </trkpt>
      <trkpt lat="45.18275" lon="6.3504">
        <ele>1933.4000244141</ele>
        <time>2014-01-11T08:18:57.000Z</time>
      </trkpt>
      <trkpt lat="45.18275" lon="6.3504">
        <ele>1933.8000488281</ele>
        <time>2014-01-11T08:18:58.000Z</time>
      </trkpt>
      <trkpt lat="45.18274" lon="6.35041">
        <ele>1934</ele>
        <time>2014-01-11T08:18:59.000Z</time>
      </trkpt>
      <trkpt lat="45.18274" lon="6.35041">
        <ele>1934.1999511719</ele>
        <time>2014-01-11T08:19:00.000Z</time>
      </trkpt>
      <trkpt lat="45.18274" lon="6.35041">
        <ele>1934.4000244141</ele>
        <time>2014-01-11T08:19:01.000Z</time>
      </trkpt>
      <trkpt lat="45.18274" lon="6.35041">
        <ele>1934.4000244141</ele>
        <time>2014-01-11T08:19:02.000Z</time>
      </trkpt>
      <trkpt lat="45.18274" lon="6.35042">
        <ele>1934.5999755859</ele>
        <time>2014-01-11T08:19:03.000Z</time>
      </trkpt>
      <trkpt lat="45.18274" lon="6.35042">
        <ele>1934.8000488281</ele>
        <time>2014-01-11T08:19:04.000Z</time>
      </trkpt>
      <trkpt lat="45.18274" lon="6.35042">
        <ele>1935</ele>
        <time>2014-01-11T08:19:05.000Z</time>
      </trkpt>
      <trkpt lat="45.18274" lon="6.35042">
        <ele>1935.1999511719</ele>
        <time>2014-01-11T08:19:06.000Z</time>
      </trkpt>
      <trkpt lat="45.18274" lon="6.35042">
        <ele>1935.4000244141</ele>
        <time>2014-01-11T08:19:07.000Z</time>
      </trkpt>
      <trkpt lat="45.18274" lon="6.35042">
        <ele>1935.5999755859</ele>
        <time>2014-01-11T08:19:08.000Z</time>
      </trkpt>
      <trkpt lat="45.18274" lon="6.35042">
        <ele>1935.8000488281</ele>
        <time>2014-01-11T08:19:09.000Z</time>
      </trkpt>
      <trkpt lat="45.18274" lon="6.35042">
        <ele>1936</ele>
        <time>2014-01-11T08:19:10.000Z</time>
      </trkpt>
      <trkpt lat="45.18274" lon="6.35042">
        <ele>1936</ele>
        <time>2014-01-11T08:19:11.000Z</time>
      </trkpt>
      <trkpt lat="45.18274" lon="6.35043">
        <ele>1936</ele>
        <time>2014-01-11T08:19:12.000Z</time>
      </trkpt>
      <trkpt lat="45.18273" lon="6.35043">
        <ele>1936.1999511719</ele>
        <time>2014-01-11T08:19:13.000Z</time>
      </trkpt>
      <trkpt lat="45.18273" lon="6.35043">
        <ele>1936.4000244141</ele>
        <time>2014-01-11T08:19:14.000Z</time>
      </trkpt>
      <trkpt lat="45.18273" lon="6.35044">
        <ele>1936.4000244141</ele>
        <time>2014-01-11T08:19:15.000Z</time>
      </trkpt>
      <trkpt lat="45.18272" lon="6.35045">
        <ele>1936.5999755859</ele>
        <time>2014-01-11T08:19:16.000Z</time>
      </trkpt>
      <trkpt lat="45.18272" lon="6.35045">
        <ele>1936.8000488281</ele>
        <time>2014-01-11T08:19:17.000Z</time>
      </trkpt>
      <trkpt lat="45.18272" lon="6.35046">
        <ele>1937</ele>
        <time>2014-01-11T08:19:18.000Z</time>
      </trkpt>
      <trkpt lat="45.18271" lon="6.35047">
        <ele>1937.1999511719</ele>
        <time>2014-01-11T08:19:19.000Z</time>
      </trkpt>
      <trkpt lat="45.18271" lon="6.35047">
        <ele>1937.4000244141</ele>
        <time>2014-01-11T08:19:20.000Z</time>
      </trkpt>
      <trkpt lat="45.18271" lon="6.35048">
        <ele>1937.5999755859</ele>
        <time>2014-01-11T08:19:21.000Z</time>
      </trkpt>
      <trkpt lat="45.18271" lon="6.35048">
        <ele>1937.8000488281</ele>
        <time>2014-01-11T08:19:22.000Z</time>
      </trkpt>
      <trkpt lat="45.18271" lon="6.35049">
        <ele>1938</ele>
        <time>2014-01-11T08:19:23.000Z</time>
      </trkpt>
      <trkpt lat="45.18271" lon="6.35049">
        <ele>1938.4000244141</ele>
        <time>2014-01-11T08:19:24.000Z</time>
      </trkpt>
      <trkpt lat="45.18271" lon="6.3505">
        <ele>1938.5999755859</ele>
        <time>2014-01-11T08:19:25.000Z</time>
      </trkpt>
      <trkpt lat="45.18272" lon="6.3505">
        <ele>1938.8000488281</ele>
        <time>2014-01-11T08:19:26.000Z</time>
      </trkpt>
      <trkpt lat="45.18272" lon="6.3505">
        <ele>1939.1999511719</ele>
        <time>2014-01-11T08:19:27.000Z</time>
      </trkpt>
      <trkpt lat="45.18273" lon="6.3505">
        <ele>1939.5999755859</ele>
        <time>2014-01-11T08:19:28.000Z</time>
      </trkpt>
      <trkpt lat="45.18273" lon="6.35051">
        <ele>1939.8000488281</ele>
        <time>2014-01-11T08:19:29.000Z</time>
      </trkpt>
      <trkpt lat="45.18274" lon="6.35051">
        <ele>1940</ele>
        <time>2014-01-11T08:19:30.000Z</time>
      </trkpt>
      <trkpt lat="45.18274" lon="6.35051">
        <ele>1940.4000244141</ele>
        <time>2014-01-11T08:19:31.000Z</time>
      </trkpt>
      <trkpt lat="45.18275" lon="6.35051">
        <ele>1940.5999755859</ele>
        <time>2014-01-11T08:19:32.000Z</time>
      </trkpt>
      <trkpt lat="45.18275" lon="6.35051">
        <ele>1940.8000488281</ele>
        <time>2014-01-11T08:19:33.000Z</time>
      </trkpt>
      <trkpt lat="45.18275" lon="6.35051">
        <ele>1941</ele>
        <time>2014-01-11T08:19:34.000Z</time>
      </trkpt>
      <trkpt lat="45.18275" lon="6.35051">
        <ele>1941.1999511719</ele>
        <time>2014-01-11T08:19:35.000Z</time>
      </trkpt>
      <trkpt lat="45.18275" lon="6.35051">
        <ele>1941.4000244141</ele>
        <time>2014-01-11T08:19:36.000Z</time>
      </trkpt>
      <trkpt lat="45.18277" lon="6.35052">
        <ele>1941.8000488281</ele>
        <time>2014-01-11T08:19:37.000Z</time>
      </trkpt>
      <trkpt lat="45.18277" lon="6.35051">
        <ele>1942</ele>
        <time>2014-01-11T08:19:38.000Z</time>
      </trkpt>
      <trkpt lat="45.18278" lon="6.35051">
        <ele>1942.1999511719</ele>
        <time>2014-01-11T08:19:39.000Z</time>
      </trkpt>
      <trkpt lat="45.18278" lon="6.35051">
        <ele>1942.4000244141</ele>
        <time>2014-01-11T08:19:40.000Z</time>
      </trkpt>
      <trkpt lat="45.18279" lon="6.35051">
        <ele>1942.5999755859</ele>
        <time>2014-01-11T08:19:41.000Z</time>
      </trkpt>
      <trkpt lat="45.1828" lon="6.35052">
        <ele>1942.8000488281</ele>
        <time>2014-01-11T08:19:42.000Z</time>
      </trkpt>
      <trkpt lat="45.1828" lon="6.35052">
        <ele>1943.1999511719</ele>
        <time>2014-01-11T08:19:43.000Z</time>
      </trkpt>
      <trkpt lat="45.1828" lon="6.35053">
        <ele>1943.4000244141</ele>
        <time>2014-01-11T08:19:44.000Z</time>
      </trkpt>
      <trkpt lat="45.1828" lon="6.35053">
        <ele>1943.8000488281</ele>
        <time>2014-01-11T08:19:45.000Z</time>
      </trkpt>
      <trkpt lat="45.1828" lon="6.35055">
        <ele>1944</ele>
        <time>2014-01-11T08:19:46.000Z</time>
      </trkpt>
      <trkpt lat="45.1828" lon="6.35056">
        <ele>1944.4000244141</ele>
        <time>2014-01-11T08:19:47.000Z</time>
      </trkpt>
      <trkpt lat="45.1828" lon="6.35057">
        <ele>1944.8000488281</ele>
        <time>2014-01-11T08:19:48.000Z</time>
      </trkpt>
      <trkpt lat="45.18279" lon="6.35058">
        <ele>1945</ele>
        <time>2014-01-11T08:19:49.000Z</time>
      </trkpt>
      <trkpt lat="45.18279" lon="6.35059">
        <ele>1945.1999511719</ele>
        <time>2014-01-11T08:19:50.000Z</time>
      </trkpt>
      <trkpt lat="45.18279" lon="6.3506">
        <ele>1945.4000244141</ele>
        <time>2014-01-11T08:19:51.000Z</time>
      </trkpt>
      <trkpt lat="45.18279" lon="6.35062">
        <ele>1945.5999755859</ele>
        <time>2014-01-11T08:19:52.000Z</time>
      </trkpt>
      <trkpt lat="45.18279" lon="6.35062">
        <ele>1945.8000488281</ele>
        <time>2014-01-11T08:19:53.000Z</time>
      </trkpt>
      <trkpt lat="45.18279" lon="6.35064">
        <ele>1946</ele>
        <time>2014-01-11T08:19:54.000Z</time>
      </trkpt>
      <trkpt lat="45.18279" lon="6.35064">
        <ele>1946.1999511719</ele>
        <time>2014-01-11T08:19:55.000Z</time>
      </trkpt>
      <trkpt lat="45.18278" lon="6.35065">
        <ele>1946.4000244141</ele>
        <time>2014-01-11T08:19:56.000Z</time>
      </trkpt>
      <trkpt lat="45.18278" lon="6.35065">
        <ele>1946.5999755859</ele>
        <time>2014-01-11T08:19:57.000Z</time>
      </trkpt>
      <trkpt lat="45.18278" lon="6.35066">
        <ele>1946.8000488281</ele>
        <time>2014-01-11T08:19:58.000Z</time>
      </trkpt>
      <trkpt lat="45.18278" lon="6.35066">
        <ele>1947</ele>
        <time>2014-01-11T08:19:59.000Z</time>
      </trkpt>
      <trkpt lat="45.18278" lon="6.35067">
        <ele>1947.1999511719</ele>
        <time>2014-01-11T08:20:00.000Z</time>
      </trkpt>
      <trkpt lat="45.18278" lon="6.35068">
        <ele>1947.5999755859</ele>
        <time>2014-01-11T08:20:01.000Z</time>
      </trkpt>
      <trkpt lat="45.18277" lon="6.35069">
        <ele>1948</ele>
        <time>2014-01-11T08:20:02.000Z</time>
      </trkpt>
      <trkpt lat="45.18277" lon="6.3507">
        <ele>1948.1999511719</ele>
        <time>2014-01-11T08:20:03.000Z</time>
      </trkpt>
      <trkpt lat="45.18277" lon="6.35071">
        <ele>1948.4000244141</ele>
        <time>2014-01-11T08:20:04.000Z</time>
      </trkpt>
      <trkpt lat="45.18276" lon="6.35072">
        <ele>1948.5999755859</ele>
        <time>2014-01-11T08:20:05.000Z</time>
      </trkpt>
      <trkpt lat="45.18276" lon="6.35072">
        <ele>1948.8000488281</ele>
        <time>2014-01-11T08:20:06.000Z</time>
      </trkpt>
      <trkpt lat="45.18275" lon="6.35074">
        <ele>1948.8000488281</ele>
        <time>2014-01-11T08:20:07.000Z</time>
      </trkpt>
      <trkpt lat="45.18275" lon="6.35074">
        <ele>1949</ele>
        <time>2014-01-11T08:20:08.000Z</time>
      </trkpt>
      <trkpt lat="45.18274" lon="6.35075">
        <ele>1949.1999511719</ele>
        <time>2014-01-11T08:20:09.000Z</time>
      </trkpt>
      <trkpt lat="45.18274" lon="6.35076">
        <ele>1949.4000244141</ele>
        <time>2014-01-11T08:20:10.000Z</time>
      </trkpt>
      <trkpt lat="45.18274" lon="6.35078">
        <ele>1949.4000244141</ele>
        <time>2014-01-11T08:20:11.000Z</time>
      </trkpt>
      <trkpt lat="45.18273" lon="6.35079">
        <ele>1949.5999755859</ele>
        <time>2014-01-11T08:20:12.000Z</time>
      </trkpt>
      <trkpt lat="45.18273" lon="6.35079">
        <ele>1949.8000488281</ele>
        <time>2014-01-11T08:20:13.000Z</time>
      </trkpt>
      <trkpt lat="45.18273" lon="6.35081">
        <ele>1949.8000488281</ele>
        <time>2014-01-11T08:20:14.000Z</time>
      </trkpt>
      <trkpt lat="45.18273" lon="6.35081">
        <ele>1950</ele>
        <time>2014-01-11T08:20:15.000Z</time>
      </trkpt>
      <trkpt lat="45.18272" lon="6.35082">
        <ele>1950.1999511719</ele>
        <time>2014-01-11T08:20:16.000Z</time>
      </trkpt>
      <trkpt lat="45.18272" lon="6.35082">
        <ele>1950.4000244141</ele>
        <time>2014-01-11T08:20:17.000Z</time>
      </trkpt>
      <trkpt lat="45.18272" lon="6.35083">
        <ele>1950.4000244141</ele>
        <time>2014-01-11T08:20:18.000Z</time>
      </trkpt>
      <trkpt lat="45.18272" lon="6.35084">
        <ele>1950.5999755859</ele>
        <time>2014-01-11T08:20:19.000Z</time>
      </trkpt>
      <trkpt lat="45.18271" lon="6.35084">
        <ele>1950.5999755859</ele>
        <time>2014-01-11T08:20:20.000Z</time>
      </trkpt>
      <trkpt lat="45.18271" lon="6.35084">
        <ele>1950.8000488281</ele>
        <time>2014-01-11T08:20:21.000Z</time>
      </trkpt>
      <trkpt lat="45.1827" lon="6.35086">
        <ele>1951</ele>
        <time>2014-01-11T08:20:22.000Z</time>
      </trkpt>
      <trkpt lat="45.1827" lon="6.35087">
        <ele>1951.1999511719</ele>
        <time>2014-01-11T08:20:23.000Z</time>
      </trkpt>
      <trkpt lat="45.1827" lon="6.35087">
        <ele>1951.4000244141</ele>
        <time>2014-01-11T08:20:24.000Z</time>
      </trkpt>
      <trkpt lat="45.1827" lon="6.35089">
        <ele>1951.8000488281</ele>
        <time>2014-01-11T08:20:25.000Z</time>
      </trkpt>
      <trkpt lat="45.18269" lon="6.35089">
        <ele>1952</ele>
        <time>2014-01-11T08:20:26.000Z</time>
      </trkpt>
      <trkpt lat="45.18269" lon="6.3509">
        <ele>1952.4000244141</ele>
        <time>2014-01-11T08:20:27.000Z</time>
      </trkpt>
      <trkpt lat="45.18269" lon="6.3509">
        <ele>1952.5999755859</ele>
        <time>2014-01-11T08:20:28.000Z</time>
      </trkpt>
      <trkpt lat="45.18269" lon="6.35092">
        <ele>1952.5999755859</ele>
        <time>2014-01-11T08:20:29.000Z</time>
      </trkpt>
      <trkpt lat="45.18269" lon="6.35092">
        <ele>1952.8000488281</ele>
        <time>2014-01-11T08:20:30.000Z</time>
      </trkpt>
      <trkpt lat="45.18269" lon="6.35093">
        <ele>1953</ele>
        <time>2014-01-11T08:20:31.000Z</time>
      </trkpt>
      <trkpt lat="45.18268" lon="6.35095">
        <ele>1953.1999511719</ele>
        <time>2014-01-11T08:20:32.000Z</time>
      </trkpt>
      <trkpt lat="45.18268" lon="6.35095">
        <ele>1953.4000244141</ele>
        <time>2014-01-11T08:20:33.000Z</time>
      </trkpt>
      <trkpt lat="45.18268" lon="6.35097">
        <ele>1953.5999755859</ele>
        <time>2014-01-11T08:20:34.000Z</time>
      </trkpt>
      <trkpt lat="45.18269" lon="6.35097">
        <ele>1953.8000488281</ele>
        <time>2014-01-11T08:20:35.000Z</time>
      </trkpt>
      <trkpt lat="45.18269" lon="6.35098">
        <ele>1954.1999511719</ele>
        <time>2014-01-11T08:20:36.000Z</time>
      </trkpt>
      <trkpt lat="45.18269" lon="6.35098">
        <ele>1954.4000244141</ele>
        <time>2014-01-11T08:20:37.000Z</time>
      </trkpt>
      <trkpt lat="45.1827" lon="6.35099">
        <ele>1954.8000488281</ele>
        <time>2014-01-11T08:20:38.000Z</time>
      </trkpt>
      <trkpt lat="45.1827" lon="6.35099">
        <ele>1955</ele>
        <time>2014-01-11T08:20:39.000Z</time>
      </trkpt>
      <trkpt lat="45.1827" lon="6.35099">
        <ele>1955.1999511719</ele>
        <time>2014-01-11T08:20:40.000Z</time>
      </trkpt>
      <trkpt lat="45.18271" lon="6.351">
        <ele>1955.5999755859</ele>
        <time>2014-01-11T08:20:41.000Z</time>
      </trkpt>
      <trkpt lat="45.18271" lon="6.351">
        <ele>1955.8000488281</ele>
        <time>2014-01-11T08:20:42.000Z</time>
      </trkpt>
      <trkpt lat="45.1827" lon="6.35101">
        <ele>1956</ele>
        <time>2014-01-11T08:20:43.000Z</time>
      </trkpt>
      <trkpt lat="45.1827" lon="6.35101">
        <ele>1956.1999511719</ele>
        <time>2014-01-11T08:20:44.000Z</time>
      </trkpt>
      <trkpt lat="45.1827" lon="6.35101">
        <ele>1956.4000244141</ele>
        <time>2014-01-11T08:20:45.000Z</time>
      </trkpt>
      <trkpt lat="45.18269" lon="6.35102">
        <ele>1956.8000488281</ele>
        <time>2014-01-11T08:20:46.000Z</time>
      </trkpt>
      <trkpt lat="45.18269" lon="6.35102">
        <ele>1957</ele>
        <time>2014-01-11T08:20:47.000Z</time>
      </trkpt>
      <trkpt lat="45.18269" lon="6.35102">
        <ele>1957.4000244141</ele>
        <time>2014-01-11T08:20:48.000Z</time>
      </trkpt>
      <trkpt lat="45.18269" lon="6.35102">
        <ele>1957.8000488281</ele>
        <time>2014-01-11T08:20:49.000Z</time>
      </trkpt>
      <trkpt lat="45.1827" lon="6.35103">
        <ele>1958</ele>
        <time>2014-01-11T08:20:50.000Z</time>
      </trkpt>
      <trkpt lat="45.1827" lon="6.35103">
        <ele>1958</ele>
        <time>2014-01-11T08:20:51.000Z</time>
      </trkpt>
      <trkpt lat="45.1827" lon="6.35103">
        <ele>1958.1999511719</ele>
        <time>2014-01-11T08:20:52.000Z</time>
      </trkpt>
      <trkpt lat="45.1827" lon="6.35103">
        <ele>1958.1999511719</ele>
        <time>2014-01-11T08:20:53.000Z</time>
      </trkpt>
      <trkpt lat="45.18271" lon="6.35103">
        <ele>1958.4000244141</ele>
        <time>2014-01-11T08:20:54.000Z</time>
      </trkpt>
      <trkpt lat="45.18271" lon="6.35103">
        <ele>1958.5999755859</ele>
        <time>2014-01-11T08:20:55.000Z</time>
      </trkpt>
      <trkpt lat="45.18271" lon="6.35103">
        <ele>1958.8000488281</ele>
        <time>2014-01-11T08:20:56.000Z</time>
      </trkpt>
      <trkpt lat="45.18271" lon="6.35103">
        <ele>1959</ele>
        <time>2014-01-11T08:20:57.000Z</time>
      </trkpt>
      <trkpt lat="45.18271" lon="6.35103">
        <ele>1959.1999511719</ele>
        <time>2014-01-11T08:20:58.000Z</time>
      </trkpt>
      <trkpt lat="45.1827" lon="6.35104">
        <ele>1959.4000244141</ele>
        <time>2014-01-11T08:20:59.000Z</time>
      </trkpt>
      <trkpt lat="45.1827" lon="6.35104">
        <ele>1959.4000244141</ele>
        <time>2014-01-11T08:21:00.000Z</time>
      </trkpt>
      <trkpt lat="45.18269" lon="6.35104">
        <ele>1959.4000244141</ele>
        <time>2014-01-11T08:21:01.000Z</time>
      </trkpt>
      <trkpt lat="45.18268" lon="6.35105">
        <ele>1959.5999755859</ele>
        <time>2014-01-11T08:21:02.000Z</time>
      </trkpt>
      <trkpt lat="45.18268" lon="6.35105">
        <ele>1959.5999755859</ele>
        <time>2014-01-11T08:21:03.000Z</time>
      </trkpt>
      <trkpt lat="45.18268" lon="6.35106">
        <ele>1959.5999755859</ele>
        <time>2014-01-11T08:21:04.000Z</time>
      </trkpt>
      <trkpt lat="45.18267" lon="6.35106">
        <ele>1959.8000488281</ele>
        <time>2014-01-11T08:21:05.000Z</time>
      </trkpt>
      <trkpt lat="45.18267" lon="6.35106">
        <ele>1960</ele>
        <time>2014-01-11T08:21:06.000Z</time>
      </trkpt>
      <trkpt lat="45.18267" lon="6.35107">
        <ele>1960.1999511719</ele>
        <time>2014-01-11T08:21:07.000Z</time>
      </trkpt>
      <trkpt lat="45.18266" lon="6.35108">
        <ele>1960.4000244141</ele>
        <time>2014-01-11T08:21:08.000Z</time>
      </trkpt>
      <trkpt lat="45.18266" lon="6.35109">
        <ele>1960.5999755859</ele>
        <time>2014-01-11T08:21:09.000Z</time>
      </trkpt>
      <trkpt lat="45.18266" lon="6.3511">
        <ele>1960.8000488281</ele>
        <time>2014-01-11T08:21:10.000Z</time>
      </trkpt>
      <trkpt lat="45.18266" lon="6.35113">
        <ele>1961</ele>
        <time>2014-01-11T08:21:11.000Z</time>
      </trkpt>
      <trkpt lat="45.18266" lon="6.35113">
        <ele>1961.1999511719</ele>
        <time>2014-01-11T08:21:12.000Z</time>
      </trkpt>
      <trkpt lat="45.18266" lon="6.35115">
        <ele>1961.8000488281</ele>
        <time>2014-01-11T08:21:13.000Z</time>
      </trkpt>
      <trkpt lat="45.18266" lon="6.35115">
        <ele>1962</ele>
        <time>2014-01-11T08:21:14.000Z</time>
      </trkpt>
      <trkpt lat="45.18266" lon="6.35116">
        <ele>1962.4000244141</ele>
        <time>2014-01-11T08:21:15.000Z</time>
      </trkpt>
      <trkpt lat="45.18266" lon="6.35116">
        <ele>1962.5999755859</ele>
        <time>2014-01-11T08:21:16.000Z</time>
      </trkpt>
      <trkpt lat="45.18267" lon="6.35117">
        <ele>1962.8000488281</ele>
        <time>2014-01-11T08:21:17.000Z</time>
      </trkpt>
      <trkpt lat="45.18267" lon="6.35117">
        <ele>1963</ele>
        <time>2014-01-11T08:21:18.000Z</time>
      </trkpt>
      <trkpt lat="45.18267" lon="6.35118">
        <ele>1963.1999511719</ele>
        <time>2014-01-11T08:21:19.000Z</time>
      </trkpt>
      <trkpt lat="45.18267" lon="6.35118">
        <ele>1963.4000244141</ele>
        <time>2014-01-11T08:21:20.000Z</time>
      </trkpt>
      <trkpt lat="45.18268" lon="6.35119">
        <ele>1963.8000488281</ele>
        <time>2014-01-11T08:21:21.000Z</time>
      </trkpt>
      <trkpt lat="45.18268" lon="6.3512">
        <ele>1964</ele>
        <time>2014-01-11T08:21:22.000Z</time>
      </trkpt>
      <trkpt lat="45.18269" lon="6.3512">
        <ele>1964.1999511719</ele>
        <time>2014-01-11T08:21:23.000Z</time>
      </trkpt>
      <trkpt lat="45.18269" lon="6.35122">
        <ele>1964.4000244141</ele>
        <time>2014-01-11T08:21:24.000Z</time>
      </trkpt>
      <trkpt lat="45.18269" lon="6.35122">
        <ele>1964.8000488281</ele>
        <time>2014-01-11T08:21:25.000Z</time>
      </trkpt>
      <trkpt lat="45.18269" lon="6.35123">
        <ele>1965</ele>
        <time>2014-01-11T08:21:26.000Z</time>
      </trkpt>
      <trkpt lat="45.18269" lon="6.35123">
        <ele>1965.1999511719</ele>
        <time>2014-01-11T08:21:27.000Z</time>
      </trkpt>
      <trkpt lat="45.18268" lon="6.35125">
        <ele>1965.5999755859</ele>
        <time>2014-01-11T08:21:28.000Z</time>
      </trkpt>
      <trkpt lat="45.18268" lon="6.35125">
        <ele>1965.8000488281</ele>
        <time>2014-01-11T08:21:29.000Z</time>
      </trkpt>
      <trkpt lat="45.18268" lon="6.35126">
        <ele>1966</ele>
        <time>2014-01-11T08:21:30.000Z</time>
      </trkpt>
      <trkpt lat="45.18267" lon="6.35126">
        <ele>1966.4000244141</ele>
        <time>2014-01-11T08:21:31.000Z</time>
      </trkpt>
      <trkpt lat="45.18266" lon="6.35127">
        <ele>1966.4000244141</ele>
        <time>2014-01-11T08:21:32.000Z</time>
      </trkpt>
      <trkpt lat="45.18265" lon="6.35128">
        <ele>1966.5999755859</ele>
        <time>2014-01-11T08:21:33.000Z</time>
      </trkpt>
      <trkpt lat="45.18265" lon="6.35129">
        <ele>1966.8000488281</ele>
        <time>2014-01-11T08:21:34.000Z</time>
      </trkpt>
      <trkpt lat="45.18264" lon="6.3513">
        <ele>1967</ele>
        <time>2014-01-11T08:21:35.000Z</time>
      </trkpt>
      <trkpt lat="45.18264" lon="6.3513">
        <ele>1967.1999511719</ele>
        <time>2014-01-11T08:21:36.000Z</time>
      </trkpt>
      <trkpt lat="45.18264" lon="6.3513">
        <ele>1967.8000488281</ele>
        <time>2014-01-11T08:21:37.000Z</time>
      </trkpt>
      <trkpt lat="45.18264" lon="6.35131">
        <ele>1968</ele>
        <time>2014-01-11T08:21:38.000Z</time>
      </trkpt>
      <trkpt lat="45.18264" lon="6.35132">
        <ele>1968.4000244141</ele>
        <time>2014-01-11T08:21:39.000Z</time>
      </trkpt>
      <trkpt lat="45.18264" lon="6.35133">
        <ele>1968.5999755859</ele>
        <time>2014-01-11T08:21:40.000Z</time>
      </trkpt>
      <trkpt lat="45.18264" lon="6.35133">
        <ele>1968.8000488281</ele>
        <time>2014-01-11T08:21:41.000Z</time>
      </trkpt>
      <trkpt lat="45.18264" lon="6.35133">
        <ele>1969</ele>
        <time>2014-01-11T08:21:42.000Z</time>
      </trkpt>
      <trkpt lat="45.18264" lon="6.35133">
        <ele>1969.1999511719</ele>
        <time>2014-01-11T08:21:43.000Z</time>
      </trkpt>
      <trkpt lat="45.18265" lon="6.35134">
        <ele>1969.1999511719</ele>
        <time>2014-01-11T08:21:44.000Z</time>
      </trkpt>
      <trkpt lat="45.18265" lon="6.35134">
        <ele>1969.1999511719</ele>
        <time>2014-01-11T08:21:45.000Z</time>
      </trkpt>
      <trkpt lat="45.18266" lon="6.35135">
        <ele>1969.4000244141</ele>
        <time>2014-01-11T08:21:46.000Z</time>
      </trkpt>
      <trkpt lat="45.18267" lon="6.35135">
        <ele>1969.5999755859</ele>
        <time>2014-01-11T08:21:47.000Z</time>
      </trkpt>
      <trkpt lat="45.18268" lon="6.35136">
        <ele>1969.8000488281</ele>
        <time>2014-01-11T08:21:48.000Z</time>
      </trkpt>
      <trkpt lat="45.18268" lon="6.35135">
        <ele>1970</ele>
        <time>2014-01-11T08:21:49.000Z</time>
      </trkpt>
      <trkpt lat="45.18269" lon="6.35136">
        <ele>1970.1999511719</ele>
        <time>2014-01-11T08:21:50.000Z</time>
      </trkpt>
      <trkpt lat="45.18269" lon="6.35136">
        <ele>1970.4000244141</ele>
        <time>2014-01-11T08:21:51.000Z</time>
      </trkpt>
      <trkpt lat="45.1827" lon="6.35136">
        <ele>1970.8000488281</ele>
        <time>2014-01-11T08:21:52.000Z</time>
      </trkpt>
      <trkpt lat="45.1827" lon="6.35136">
        <ele>1971</ele>
        <time>2014-01-11T08:21:53.000Z</time>
      </trkpt>
      <trkpt lat="45.18271" lon="6.35137">
        <ele>1971.1999511719</ele>
        <time>2014-01-11T08:21:54.000Z</time>
      </trkpt>
      <trkpt lat="45.18271" lon="6.35137">
        <ele>1971.4000244141</ele>
        <time>2014-01-11T08:21:55.000Z</time>
      </trkpt>
      <trkpt lat="45.18272" lon="6.35138">
        <ele>1971.8000488281</ele>
        <time>2014-01-11T08:21:56.000Z</time>
      </trkpt>
      <trkpt lat="45.18272" lon="6.35138">
        <ele>1972</ele>
        <time>2014-01-11T08:21:57.000Z</time>
      </trkpt>
      <trkpt lat="45.18274" lon="6.35139">
        <ele>1972.1999511719</ele>
        <time>2014-01-11T08:21:58.000Z</time>
      </trkpt>
      <trkpt lat="45.18273" lon="6.35138">
        <ele>1972.4000244141</ele>
        <time>2014-01-11T08:21:59.000Z</time>
      </trkpt>
      <trkpt lat="45.18274" lon="6.35139">
        <ele>1972.5999755859</ele>
        <time>2014-01-11T08:22:00.000Z</time>
      </trkpt>
      <trkpt lat="45.18274" lon="6.35139">
        <ele>1973</ele>
        <time>2014-01-11T08:22:01.000Z</time>
      </trkpt>
      <trkpt lat="45.18274" lon="6.35139">
        <ele>1973.1999511719</ele>
        <time>2014-01-11T08:22:02.000Z</time>
      </trkpt>
      <trkpt lat="45.18274" lon="6.35139">
        <ele>1973.4000244141</ele>
        <time>2014-01-11T08:22:03.000Z</time>
      </trkpt>
      <trkpt lat="45.18274" lon="6.35139">
        <ele>1973.5999755859</ele>
        <time>2014-01-11T08:22:04.000Z</time>
      </trkpt>
      <trkpt lat="45.18274" lon="6.35139">
        <ele>1973.8000488281</ele>
        <time>2014-01-11T08:22:05.000Z</time>
      </trkpt>
      <trkpt lat="45.18274" lon="6.35139">
        <ele>1974</ele>
        <time>2014-01-11T08:22:06.000Z</time>
      </trkpt>
      <trkpt lat="45.18274" lon="6.35139">
        <ele>1974</ele>
        <time>2014-01-11T08:22:07.000Z</time>
      </trkpt>
      <trkpt lat="45.18275" lon="6.35139">
        <ele>1974.1999511719</ele>
        <time>2014-01-11T08:22:08.000Z</time>
      </trkpt>
      <trkpt lat="45.18275" lon="6.35139">
        <ele>1974.1999511719</ele>
        <time>2014-01-11T08:22:09.000Z</time>
      </trkpt>
      <trkpt lat="45.18274" lon="6.35139">
        <ele>1974.4000244141</ele>
        <time>2014-01-11T08:22:10.000Z</time>
      </trkpt>
      <trkpt lat="45.18274" lon="6.35139">
        <ele>1974.4000244141</ele>
        <time>2014-01-11T08:22:11.000Z</time>
      </trkpt>
      <trkpt lat="45.18274" lon="6.35139">
        <ele>1974.4000244141</ele>
        <time>2014-01-11T08:22:12.000Z</time>
      </trkpt>
      <trkpt lat="45.18274" lon="6.35139">
        <ele>1974.4000244141</ele>
        <time>2014-01-11T08:22:13.000Z</time>
      </trkpt>
      <trkpt lat="45.18274" lon="6.35139">
        <ele>1974.4000244141</ele>
        <time>2014-01-11T08:22:14.000Z</time>
      </trkpt>
      <trkpt lat="45.18274" lon="6.35139">
        <ele>1974.1999511719</ele>
        <time>2014-01-11T08:22:15.000Z</time>
      </trkpt>
      <trkpt lat="45.18274" lon="6.35139">
        <ele>1974</ele>
        <time>2014-01-11T08:22:16.000Z</time>
      </trkpt>
      <trkpt lat="45.18274" lon="6.35139">
        <ele>1974</ele>
        <time>2014-01-11T08:22:17.000Z</time>
      </trkpt>
      <trkpt lat="45.18274" lon="6.35139">
        <ele>1974</ele>
        <time>2014-01-11T08:22:18.000Z</time>
      </trkpt>
      <trkpt lat="45.18274" lon="6.35139">
        <ele>1974</ele>
        <time>2014-01-11T08:22:19.000Z</time>
      </trkpt>
      <trkpt lat="45.18274" lon="6.35139">
        <ele>1974.1999511719</ele>
        <time>2014-01-11T08:22:20.000Z</time>
      </trkpt>
      <trkpt lat="45.18274" lon="6.35139">
        <ele>1974.1999511719</ele>
        <time>2014-01-11T08:22:21.000Z</time>
      </trkpt>
      <trkpt lat="45.18274" lon="6.35139">
        <ele>1974.1999511719</ele>
        <time>2014-01-11T08:22:22.000Z</time>
      </trkpt>
      <trkpt lat="45.18274" lon="6.35139">
        <ele>1974.1999511719</ele>
        <time>2014-01-11T08:22:23.000Z</time>
      </trkpt>
      <trkpt lat="45.18274" lon="6.35139">
        <ele>1974.1999511719</ele>
        <time>2014-01-11T08:22:25.000Z</time>
      </trkpt>
      <trkpt lat="45.18274" lon="6.35139">
        <ele>1974.1999511719</ele>
        <time>2014-01-11T08:22:26.000Z</time>
      </trkpt>
      <trkpt lat="45.18274" lon="6.35139">
        <ele>1974.1999511719</ele>
        <time>2014-01-11T08:22:27.000Z</time>
      </trkpt>
      <trkpt lat="45.18274" lon="6.35139">
        <ele>1974.1999511719</ele>
        <time>2014-01-11T08:22:28.000Z</time>
      </trkpt>
      <trkpt lat="45.18274" lon="6.35139">
        <ele>1974.1999511719</ele>
        <time>2014-01-11T08:22:29.000Z</time>
      </trkpt>
      <trkpt lat="45.18274" lon="6.35139">
        <ele>1974.1999511719</ele>
        <time>2014-01-11T08:22:30.000Z</time>
      </trkpt>
      <trkpt lat="45.18274" lon="6.35139">
        <ele>1974.1999511719</ele>
        <time>2014-01-11T08:22:35.000Z</time>
      </trkpt>
      <trkpt lat="45.18274" lon="6.35139">
        <ele>1974.1999511719</ele>
        <time>2014-01-11T08:22:37.000Z</time>
      </trkpt>
      <trkpt lat="45.18274" lon="6.35139">
        <ele>1974.1999511719</ele>
        <time>2014-01-11T08:22:38.000Z</time>
      </trkpt>
      <trkpt lat="45.18274" lon="6.35139">
        <ele>1974.1999511719</ele>
        <time>2014-01-11T08:22:39.000Z</time>
      </trkpt>
      <trkpt lat="45.18274" lon="6.35139">
        <ele>1974.1999511719</ele>
        <time>2014-01-11T08:22:40.000Z</time>
      </trkpt>
      <trkpt lat="45.18274" lon="6.35139">
        <ele>1974.1999511719</ele>
        <time>2014-01-11T08:22:41.000Z</time>
      </trkpt>
      <trkpt lat="45.18274" lon="6.35139">
        <ele>1974.1999511719</ele>
        <time>2014-01-11T08:22:42.000Z</time>
      </trkpt>
      <trkpt lat="45.18274" lon="6.35139">
        <ele>1974.1999511719</ele>
        <time>2014-01-11T08:22:43.000Z</time>
      </trkpt>
      <trkpt lat="45.18274" lon="6.35139">
        <ele>1974.4000244141</ele>
        <time>2014-01-11T08:22:44.000Z</time>
      </trkpt>
      <trkpt lat="45.18274" lon="6.35139">
        <ele>1974.4000244141</ele>
        <time>2014-01-11T08:22:45.000Z</time>
      </trkpt>
      <trkpt lat="45.18274" lon="6.35139">
        <ele>1974.4000244141</ele>
        <time>2014-01-11T08:22:46.000Z</time>
      </trkpt>
      <trkpt lat="45.18274" lon="6.35139">
        <ele>1974.4000244141</ele>
        <time>2014-01-11T08:22:47.000Z</time>
      </trkpt>
      <trkpt lat="45.18274" lon="6.35139">
        <ele>1974.4000244141</ele>
        <time>2014-01-11T08:22:48.000Z</time>
      </trkpt>
      <trkpt lat="45.18274" lon="6.35139">
        <ele>1974.4000244141</ele>
        <time>2014-01-11T08:22:49.000Z</time>
      </trkpt>
      <trkpt lat="45.18274" lon="6.35139">
        <ele>1974.4000244141</ele>
        <time>2014-01-11T08:22:52.000Z</time>
      </trkpt>
      <trkpt lat="45.18274" lon="6.35139">
        <ele>1974.4000244141</ele>
        <time>2014-01-11T08:22:53.000Z</time>
      </trkpt>
      <trkpt lat="45.18274" lon="6.35139">
        <ele>1974.4000244141</ele>
        <time>2014-01-11T08:22:54.000Z</time>
      </trkpt>
      <trkpt lat="45.18274" lon="6.35139">
        <ele>1974.5999755859</ele>
        <time>2014-01-11T08:22:55.000Z</time>
      </trkpt>
      <trkpt lat="45.18274" lon="6.35139">
        <ele>1974.5999755859</ele>
        <time>2014-01-11T08:22:56.000Z</time>
      </trkpt>
      <trkpt lat="45.18274" lon="6.35139">
        <ele>1974.5999755859</ele>
        <time>2014-01-11T08:22:59.000Z</time>
      </trkpt>
      <trkpt lat="45.18274" lon="6.35139">
        <ele>1974.5999755859</ele>
        <time>2014-01-11T08:23:02.000Z</time>
      </trkpt>
      <trkpt lat="45.18275" lon="6.3514">
        <ele>1974.5999755859</ele>
        <time>2014-01-11T08:23:03.000Z</time>
      </trkpt>
      <trkpt lat="45.18274" lon="6.35139">
        <ele>1974.5999755859</ele>
        <time>2014-01-11T08:23:04.000Z</time>
      </trkpt>
      <trkpt lat="45.18274" lon="6.35139">
        <ele>1974.5999755859</ele>
        <time>2014-01-11T08:23:05.000Z</time>
      </trkpt>
      <trkpt lat="45.18274" lon="6.35139">
        <ele>1974.5999755859</ele>
        <time>2014-01-11T08:23:06.000Z</time>
      </trkpt>
      <trkpt lat="45.18275" lon="6.3514">
        <ele>1974.5999755859</ele>
        <time>2014-01-11T08:23:07.000Z</time>
      </trkpt>
      <trkpt lat="45.18275" lon="6.3514">
        <ele>1974.5999755859</ele>
        <time>2014-01-11T08:23:08.000Z</time>
      </trkpt>
      <trkpt lat="45.18276" lon="6.35141">
        <ele>1974.8000488281</ele>
        <time>2014-01-11T08:23:09.000Z</time>
      </trkpt>
      <trkpt lat="45.18276" lon="6.35142">
        <ele>1974.8000488281</ele>
        <time>2014-01-11T08:23:10.000Z</time>
      </trkpt>
      <trkpt lat="45.18277" lon="6.35143">
        <ele>1974.8000488281</ele>
        <time>2014-01-11T08:23:11.000Z</time>
      </trkpt>
      <trkpt lat="45.18278" lon="6.35143">
        <ele>1975</ele>
        <time>2014-01-11T08:23:12.000Z</time>
      </trkpt>
      <trkpt lat="45.18278" lon="6.35144">
        <ele>1975.1999511719</ele>
        <time>2014-01-11T08:23:13.000Z</time>
      </trkpt>
      <trkpt lat="45.1828" lon="6.35146">
        <ele>1975.4000244141</ele>
        <time>2014-01-11T08:23:14.000Z</time>
      </trkpt>
      <trkpt lat="45.1828" lon="6.35146">
        <ele>1975.5999755859</ele>
        <time>2014-01-11T08:23:15.000Z</time>
      </trkpt>
      <trkpt lat="45.1828" lon="6.35146">
        <ele>1975.8000488281</ele>
        <time>2014-01-11T08:23:16.000Z</time>
      </trkpt>
      <trkpt lat="45.18281" lon="6.35146">
        <ele>1976</ele>
        <time>2014-01-11T08:23:17.000Z</time>
      </trkpt>
      <trkpt lat="45.18282" lon="6.35147">
        <ele>1976.1999511719</ele>
        <time>2014-01-11T08:23:18.000Z</time>
      </trkpt>
      <trkpt lat="45.18282" lon="6.35147">
        <ele>1976.1999511719</ele>
        <time>2014-01-11T08:23:19.000Z</time>
      </trkpt>
      <trkpt lat="45.18283" lon="6.35148">
        <ele>1976.4000244141</ele>
        <time>2014-01-11T08:23:20.000Z</time>
      </trkpt>
      <trkpt lat="45.18283" lon="6.35148">
        <ele>1976.5999755859</ele>
        <time>2014-01-11T08:23:21.000Z</time>
      </trkpt>
      <trkpt lat="45.18283" lon="6.35148">
        <ele>1976.8000488281</ele>
        <time>2014-01-11T08:23:22.000Z</time>
      </trkpt>
      <trkpt lat="45.18283" lon="6.35148">
        <ele>1976.8000488281</ele>
        <time>2014-01-11T08:23:23.000Z</time>
      </trkpt>
      <trkpt lat="45.18284" lon="6.35148">
        <ele>1977</ele>
        <time>2014-01-11T08:23:24.000Z</time>
      </trkpt>
      <trkpt lat="45.18284" lon="6.35148">
        <ele>1977</ele>
        <time>2014-01-11T08:23:25.000Z</time>
      </trkpt>
      <trkpt lat="45.18284" lon="6.35148">
        <ele>1977</ele>
        <time>2014-01-11T08:23:26.000Z</time>
      </trkpt>
      <trkpt lat="45.18284" lon="6.35148">
        <ele>1977.1999511719</ele>
        <time>2014-01-11T08:23:27.000Z</time>
      </trkpt>
      <trkpt lat="45.18284" lon="6.35148">
        <ele>1977.1999511719</ele>
        <time>2014-01-11T08:23:28.000Z</time>
      </trkpt>
      <trkpt lat="45.18284" lon="6.35148">
        <ele>1977.4000244141</ele>
        <time>2014-01-11T08:23:29.000Z</time>
      </trkpt>
      <trkpt lat="45.18284" lon="6.35148">
        <ele>1977.4000244141</ele>
        <time>2014-01-11T08:23:30.000Z</time>
      </trkpt>
      <trkpt lat="45.18284" lon="6.35148">
        <ele>1977.5999755859</ele>
        <time>2014-01-11T08:23:31.000Z</time>
      </trkpt>
      <trkpt lat="45.18284" lon="6.35148">
        <ele>1977.5999755859</ele>
        <time>2014-01-11T08:23:32.000Z</time>
      </trkpt>
      <trkpt lat="45.18284" lon="6.35148">
        <ele>1977.5999755859</ele>
        <time>2014-01-11T08:23:33.000Z</time>
      </trkpt>
      <trkpt lat="45.18284" lon="6.35148">
        <ele>1977.5999755859</ele>
        <time>2014-01-11T08:23:36.000Z</time>
      </trkpt>
      <trkpt lat="45.18284" lon="6.35148">
        <ele>1977.5999755859</ele>
        <time>2014-01-11T08:23:37.000Z</time>
      </trkpt>
      <trkpt lat="45.18284" lon="6.35148">
        <ele>1977.5999755859</ele>
        <time>2014-01-11T08:23:38.000Z</time>
      </trkpt>
      <trkpt lat="45.18284" lon="6.35148">
        <ele>1977.5999755859</ele>
        <time>2014-01-11T08:23:39.000Z</time>
      </trkpt>
      <trkpt lat="45.18284" lon="6.35148">
        <ele>1977.5999755859</ele>
        <time>2014-01-11T08:23:41.000Z</time>
      </trkpt>
      <trkpt lat="45.18284" lon="6.35148">
        <ele>1977.5999755859</ele>
        <time>2014-01-11T08:23:42.000Z</time>
      </trkpt>
      <trkpt lat="45.18284" lon="6.35148">
        <ele>1977.5999755859</ele>
        <time>2014-01-11T08:23:43.000Z</time>
      </trkpt>
      <trkpt lat="45.18284" lon="6.35148">
        <ele>1977.5999755859</ele>
        <time>2014-01-11T08:23:44.000Z</time>
      </trkpt>
      <trkpt lat="45.18284" lon="6.35148">
        <ele>1977.5999755859</ele>
        <time>2014-01-11T08:23:45.000Z</time>
      </trkpt>
      <trkpt lat="45.18284" lon="6.35149">
        <ele>1977.5999755859</ele>
        <time>2014-01-11T08:23:46.000Z</time>
      </trkpt>
      <trkpt lat="45.18285" lon="6.3515">
        <ele>1977.5999755859</ele>
        <time>2014-01-11T08:23:47.000Z</time>
      </trkpt>
      <trkpt lat="45.18286" lon="6.3515">
        <ele>1977.5999755859</ele>
        <time>2014-01-11T08:23:48.000Z</time>
      </trkpt>
      <trkpt lat="45.18286" lon="6.3515">
        <ele>1977.5999755859</ele>
        <time>2014-01-11T08:23:49.000Z</time>
      </trkpt>
      <trkpt lat="45.18286" lon="6.3515">
        <ele>1977.8000488281</ele>
        <time>2014-01-11T08:23:50.000Z</time>
      </trkpt>
      <trkpt lat="45.18286" lon="6.3515">
        <ele>1977.8000488281</ele>
        <time>2014-01-11T08:23:51.000Z</time>
      </trkpt>
      <trkpt lat="45.18286" lon="6.35151">
        <ele>1978</ele>
        <time>2014-01-11T08:23:52.000Z</time>
      </trkpt>
      <trkpt lat="45.18288" lon="6.35152">
        <ele>1978</ele>
        <time>2014-01-11T08:23:53.000Z</time>
      </trkpt>
      <trkpt lat="45.18288" lon="6.35152">
        <ele>1978.1999511719</ele>
        <time>2014-01-11T08:23:54.000Z</time>
      </trkpt>
      <trkpt lat="45.18289" lon="6.35153">
        <ele>1978.1999511719</ele>
        <time>2014-01-11T08:23:55.000Z</time>
      </trkpt>
      <trkpt lat="45.18289" lon="6.35152">
        <ele>1978.1999511719</ele>
        <time>2014-01-11T08:23:56.000Z</time>
      </trkpt>
      <trkpt lat="45.18289" lon="6.35152">
        <ele>1978.4000244141</ele>
        <time>2014-01-11T08:23:57.000Z</time>
      </trkpt>
      <trkpt lat="45.18289" lon="6.35152">
        <ele>1978.4000244141</ele>
        <time>2014-01-11T08:23:58.000Z</time>
      </trkpt>
      <trkpt lat="45.18289" lon="6.35152">
        <ele>1978.5999755859</ele>
        <time>2014-01-11T08:23:59.000Z</time>
      </trkpt>
      <trkpt lat="45.18289" lon="6.35152">
        <ele>1978.5999755859</ele>
        <time>2014-01-11T08:24:00.000Z</time>
      </trkpt>
      <trkpt lat="45.18289" lon="6.35152">
        <ele>1978.8000488281</ele>
        <time>2014-01-11T08:24:01.000Z</time>
      </trkpt>
      <trkpt lat="45.18289" lon="6.35152">
        <ele>1979</ele>
        <time>2014-01-11T08:24:02.000Z</time>
      </trkpt>
      <trkpt lat="45.18289" lon="6.35152">
        <ele>1979</ele>
        <time>2014-01-11T08:24:03.000Z</time>
      </trkpt>
      <trkpt lat="45.18289" lon="6.35152">
        <ele>1979</ele>
        <time>2014-01-11T08:24:04.000Z</time>
      </trkpt>
      <trkpt lat="45.18288" lon="6.35153">
        <ele>1979.1999511719</ele>
        <time>2014-01-11T08:24:05.000Z</time>
      </trkpt>
      <trkpt lat="45.18288" lon="6.35153">
        <ele>1979.4000244141</ele>
        <time>2014-01-11T08:24:06.000Z</time>
      </trkpt>
      <trkpt lat="45.18287" lon="6.35154">
        <ele>1979.4000244141</ele>
        <time>2014-01-11T08:24:07.000Z</time>
      </trkpt>
      <trkpt lat="45.18286" lon="6.35155">
        <ele>1979.4000244141</ele>
        <time>2014-01-11T08:24:08.000Z</time>
      </trkpt>
      <trkpt lat="45.18286" lon="6.35155">
        <ele>1979.5999755859</ele>
        <time>2014-01-11T08:24:09.000Z</time>
      </trkpt>
      <trkpt lat="45.18284" lon="6.35156">
        <ele>1979.5999755859</ele>
        <time>2014-01-11T08:24:10.000Z</time>
      </trkpt>
      <trkpt lat="45.18285" lon="6.35157">
        <ele>1979.8000488281</ele>
        <time>2014-01-11T08:24:11.000Z</time>
      </trkpt>
      <trkpt lat="45.18284" lon="6.35157">
        <ele>1980.1999511719</ele>
        <time>2014-01-11T08:24:12.000Z</time>
      </trkpt>
      <trkpt lat="45.18283" lon="6.35158">
        <ele>1980.4000244141</ele>
        <time>2014-01-11T08:24:13.000Z</time>
      </trkpt>
      <trkpt lat="45.18283" lon="6.35159">
        <ele>1980.5999755859</ele>
        <time>2014-01-11T08:24:14.000Z</time>
      </trkpt>
      <trkpt lat="45.18281" lon="6.35159">
        <ele>1980.8000488281</ele>
        <time>2014-01-11T08:24:15.000Z</time>
      </trkpt>
      <trkpt lat="45.18281" lon="6.35159">
        <ele>1981</ele>
        <time>2014-01-11T08:24:16.000Z</time>
      </trkpt>
      <trkpt lat="45.18281" lon="6.3516">
        <ele>1981.1999511719</ele>
        <time>2014-01-11T08:24:17.000Z</time>
      </trkpt>
      <trkpt lat="45.1828" lon="6.35161">
        <ele>1981.4000244141</ele>
        <time>2014-01-11T08:24:18.000Z</time>
      </trkpt>
      <trkpt lat="45.1828" lon="6.35161">
        <ele>1981.4000244141</ele>
        <time>2014-01-11T08:24:19.000Z</time>
      </trkpt>
      <trkpt lat="45.18279" lon="6.35162">
        <ele>1981.5999755859</ele>
        <time>2014-01-11T08:24:20.000Z</time>
      </trkpt>
      <trkpt lat="45.18279" lon="6.35162">
        <ele>1981.5999755859</ele>
        <time>2014-01-11T08:24:21.000Z</time>
      </trkpt>
      <trkpt lat="45.18278" lon="6.35163">
        <ele>1981.8000488281</ele>
        <time>2014-01-11T08:24:22.000Z</time>
      </trkpt>
      <trkpt lat="45.18277" lon="6.35163">
        <ele>1981.8000488281</ele>
        <time>2014-01-11T08:24:23.000Z</time>
      </trkpt>
      <trkpt lat="45.18277" lon="6.35163">
        <ele>1982</ele>
        <time>2014-01-11T08:24:24.000Z</time>
      </trkpt>
      <trkpt lat="45.18276" lon="6.35164">
        <ele>1982.1999511719</ele>
        <time>2014-01-11T08:24:25.000Z</time>
      </trkpt>
      <trkpt lat="45.18276" lon="6.35164">
        <ele>1982.8000488281</ele>
        <time>2014-01-11T08:24:26.000Z</time>
      </trkpt>
      <trkpt lat="45.18274" lon="6.35165">
        <ele>1983</ele>
        <time>2014-01-11T08:24:27.000Z</time>
      </trkpt>
      <trkpt lat="45.18274" lon="6.35164">
        <ele>1983.1999511719</ele>
        <time>2014-01-11T08:24:28.000Z</time>
      </trkpt>
      <trkpt lat="45.18273" lon="6.35165">
        <ele>1983.4000244141</ele>
        <time>2014-01-11T08:24:29.000Z</time>
      </trkpt>
      <trkpt lat="45.18273" lon="6.35164">
        <ele>1983.5999755859</ele>
        <time>2014-01-11T08:24:30.000Z</time>
      </trkpt>
      <trkpt lat="45.18272" lon="6.35165">
        <ele>1983.8000488281</ele>
        <time>2014-01-11T08:24:31.000Z</time>
      </trkpt>
      <trkpt lat="45.18272" lon="6.35165">
        <ele>1983.8000488281</ele>
        <time>2014-01-11T08:24:32.000Z</time>
      </trkpt>
      <trkpt lat="45.18271" lon="6.35165">
        <ele>1984</ele>
        <time>2014-01-11T08:24:33.000Z</time>
      </trkpt>
      <trkpt lat="45.1827" lon="6.35165">
        <ele>1984.1999511719</ele>
        <time>2014-01-11T08:24:34.000Z</time>
      </trkpt>
      <trkpt lat="45.1827" lon="6.35165">
        <ele>1984.4000244141</ele>
        <time>2014-01-11T08:24:35.000Z</time>
      </trkpt>
      <trkpt lat="45.18269" lon="6.35165">
        <ele>1984.5999755859</ele>
        <time>2014-01-11T08:24:36.000Z</time>
      </trkpt>
      <trkpt lat="45.18268" lon="6.35166">
        <ele>1984.8000488281</ele>
        <time>2014-01-11T08:24:37.000Z</time>
      </trkpt>
      <trkpt lat="45.18267" lon="6.35167">
        <ele>1985</ele>
        <time>2014-01-11T08:24:38.000Z</time>
      </trkpt>
      <trkpt lat="45.18267" lon="6.35167">
        <ele>1985.4000244141</ele>
        <time>2014-01-11T08:24:39.000Z</time>
      </trkpt>
      <trkpt lat="45.18266" lon="6.35168">
        <ele>1985.5999755859</ele>
        <time>2014-01-11T08:24:40.000Z</time>
      </trkpt>
      <trkpt lat="45.18266" lon="6.35168">
        <ele>1985.8000488281</ele>
        <time>2014-01-11T08:24:41.000Z</time>
      </trkpt>
      <trkpt lat="45.18265" lon="6.35169">
        <ele>1986</ele>
        <time>2014-01-11T08:24:42.000Z</time>
      </trkpt>
      <trkpt lat="45.18265" lon="6.35169">
        <ele>1986.4000244141</ele>
        <time>2014-01-11T08:24:43.000Z</time>
      </trkpt>
      <trkpt lat="45.18265" lon="6.35169">
        <ele>1986.5999755859</ele>
        <time>2014-01-11T08:24:44.000Z</time>
      </trkpt>
      <trkpt lat="45.18264" lon="6.3517">
        <ele>1986.8000488281</ele>
        <time>2014-01-11T08:24:45.000Z</time>
      </trkpt>
      <trkpt lat="45.18264" lon="6.3517">
        <ele>1987</ele>
        <time>2014-01-11T08:24:46.000Z</time>
      </trkpt>
      <trkpt lat="45.18263" lon="6.35172">
        <ele>1987.1999511719</ele>
        <time>2014-01-11T08:24:47.000Z</time>
      </trkpt>
      <trkpt lat="45.18263" lon="6.35172">
        <ele>1987.4000244141</ele>
        <time>2014-01-11T08:24:48.000Z</time>
      </trkpt>
      <trkpt lat="45.18262" lon="6.35173">
        <ele>1987.5999755859</ele>
        <time>2014-01-11T08:24:49.000Z</time>
      </trkpt>
      <trkpt lat="45.18262" lon="6.35173">
        <ele>1988</ele>
        <time>2014-01-11T08:24:50.000Z</time>
      </trkpt>
      <trkpt lat="45.18262" lon="6.35174">
        <ele>1988</ele>
        <time>2014-01-11T08:24:51.000Z</time>
      </trkpt>
      <trkpt lat="45.18262" lon="6.35175">
        <ele>1988.1999511719</ele>
        <time>2014-01-11T08:24:52.000Z</time>
      </trkpt>
      <trkpt lat="45.18261" lon="6.35176">
        <ele>1988.4000244141</ele>
        <time>2014-01-11T08:24:53.000Z</time>
      </trkpt>
      <trkpt lat="45.18262" lon="6.35176">
        <ele>1988.5999755859</ele>
        <time>2014-01-11T08:24:54.000Z</time>
      </trkpt>
      <trkpt lat="45.18261" lon="6.35177">
        <ele>1988.8000488281</ele>
        <time>2014-01-11T08:24:55.000Z</time>
      </trkpt>
      <trkpt lat="45.18261" lon="6.35179">
        <ele>1989</ele>
        <time>2014-01-11T08:24:56.000Z</time>
      </trkpt>
      <trkpt lat="45.18261" lon="6.3518">
        <ele>1989.1999511719</ele>
        <time>2014-01-11T08:24:57.000Z</time>
      </trkpt>
      <trkpt lat="45.18261" lon="6.35182">
        <ele>1989.5999755859</ele>
        <time>2014-01-11T08:24:58.000Z</time>
      </trkpt>
      <trkpt lat="45.18261" lon="6.35182">
        <ele>1989.8000488281</ele>
        <time>2014-01-11T08:24:59.000Z</time>
      </trkpt>
      <trkpt lat="45.18261" lon="6.35184">
        <ele>1990</ele>
        <time>2014-01-11T08:25:00.000Z</time>
      </trkpt>
      <trkpt lat="45.18261" lon="6.35183">
        <ele>1990.1999511719</ele>
        <time>2014-01-11T08:25:01.000Z</time>
      </trkpt>
      <trkpt lat="45.18261" lon="6.35185">
        <ele>1990.4000244141</ele>
        <time>2014-01-11T08:25:02.000Z</time>
      </trkpt>
      <trkpt lat="45.18261" lon="6.35185">
        <ele>1990.5999755859</ele>
        <time>2014-01-11T08:25:03.000Z</time>
      </trkpt>
      <trkpt lat="45.1826" lon="6.35187">
        <ele>1990.5999755859</ele>
        <time>2014-01-11T08:25:04.000Z</time>
      </trkpt>
      <trkpt lat="45.1826" lon="6.35188">
        <ele>1990.8000488281</ele>
        <time>2014-01-11T08:25:05.000Z</time>
      </trkpt>
      <trkpt lat="45.1826" lon="6.35189">
        <ele>1991</ele>
        <time>2014-01-11T08:25:06.000Z</time>
      </trkpt>
      <trkpt lat="45.18259" lon="6.3519">
        <ele>1991</ele>
        <time>2014-01-11T08:25:07.000Z</time>
      </trkpt>
      <trkpt lat="45.18259" lon="6.3519">
        <ele>1991.1999511719</ele>
        <time>2014-01-11T08:25:08.000Z</time>
      </trkpt>
      <trkpt lat="45.18259" lon="6.35191">
        <ele>1991.4000244141</ele>
        <time>2014-01-11T08:25:09.000Z</time>
      </trkpt>
      <trkpt lat="45.18258" lon="6.35192">
        <ele>1991.5999755859</ele>
        <time>2014-01-11T08:25:10.000Z</time>
      </trkpt>
      <trkpt lat="45.18258" lon="6.35193">
        <ele>1991.5999755859</ele>
        <time>2014-01-11T08:25:11.000Z</time>
      </trkpt>
      <trkpt lat="45.18258" lon="6.35193">
        <ele>1991.8000488281</ele>
        <time>2014-01-11T08:25:12.000Z</time>
      </trkpt>
      <trkpt lat="45.18258" lon="6.35194">
        <ele>1992</ele>
        <time>2014-01-11T08:25:13.000Z</time>
      </trkpt>
      <trkpt lat="45.18258" lon="6.35193">
        <ele>1992.4000244141</ele>
        <time>2014-01-11T08:25:14.000Z</time>
      </trkpt>
      <trkpt lat="45.18258" lon="6.35194">
        <ele>1992.5999755859</ele>
        <time>2014-01-11T08:25:15.000Z</time>
      </trkpt>
      <trkpt lat="45.18257" lon="6.35195">
        <ele>1992.8000488281</ele>
        <time>2014-01-11T08:25:16.000Z</time>
      </trkpt>
      <trkpt lat="45.18257" lon="6.35196">
        <ele>1993</ele>
        <time>2014-01-11T08:25:17.000Z</time>
      </trkpt>
      <trkpt lat="45.18257" lon="6.35198">
        <ele>1993.1999511719</ele>
        <time>2014-01-11T08:25:18.000Z</time>
      </trkpt>
      <trkpt lat="45.18257" lon="6.35198">
        <ele>1993.4000244141</ele>
        <time>2014-01-11T08:25:19.000Z</time>
      </trkpt>
      <trkpt lat="45.18256" lon="6.352">
        <ele>1993.5999755859</ele>
        <time>2014-01-11T08:25:20.000Z</time>
      </trkpt>
      <trkpt lat="45.18256" lon="6.352">
        <ele>1993.8000488281</ele>
        <time>2014-01-11T08:25:21.000Z</time>
      </trkpt>
      <trkpt lat="45.18256" lon="6.35202">
        <ele>1994</ele>
        <time>2014-01-11T08:25:22.000Z</time>
      </trkpt>
      <trkpt lat="45.18255" lon="6.35202">
        <ele>1994.1999511719</ele>
        <time>2014-01-11T08:25:23.000Z</time>
      </trkpt>
      <trkpt lat="45.18255" lon="6.35204">
        <ele>1994.4000244141</ele>
        <time>2014-01-11T08:25:24.000Z</time>
      </trkpt>
      <trkpt lat="45.18255" lon="6.35204">
        <ele>1994.5999755859</ele>
        <time>2014-01-11T08:25:25.000Z</time>
      </trkpt>
      <trkpt lat="45.18255" lon="6.35206">
        <ele>1994.8000488281</ele>
        <time>2014-01-11T08:25:26.000Z</time>
      </trkpt>
      <trkpt lat="45.18255" lon="6.35207">
        <ele>1995</ele>
        <time>2014-01-11T08:25:27.000Z</time>
      </trkpt>
      <trkpt lat="45.18255" lon="6.35207">
        <ele>1995.1999511719</ele>
        <time>2014-01-11T08:25:28.000Z</time>
      </trkpt>
      <trkpt lat="45.18255" lon="6.35208">
        <ele>1995.4000244141</ele>
        <time>2014-01-11T08:25:29.000Z</time>
      </trkpt>
      <trkpt lat="45.18255" lon="6.35208">
        <ele>1995.5999755859</ele>
        <time>2014-01-11T08:25:30.000Z</time>
      </trkpt>
      <trkpt lat="45.18255" lon="6.3521">
        <ele>1995.8000488281</ele>
        <time>2014-01-11T08:25:31.000Z</time>
      </trkpt>
      <trkpt lat="45.18255" lon="6.35212">
        <ele>1996</ele>
        <time>2014-01-11T08:25:32.000Z</time>
      </trkpt>
      <trkpt lat="45.18255" lon="6.35211">
        <ele>1996</ele>
        <time>2014-01-11T08:25:33.000Z</time>
      </trkpt>
      <trkpt lat="45.18254" lon="6.35214">
        <ele>1996.1999511719</ele>
        <time>2014-01-11T08:25:34.000Z</time>
      </trkpt>
      <trkpt lat="45.18254" lon="6.35214">
        <ele>1996.4000244141</ele>
        <time>2014-01-11T08:25:35.000Z</time>
      </trkpt>
      <trkpt lat="45.18254" lon="6.35216">
        <ele>1996.5999755859</ele>
        <time>2014-01-11T08:25:36.000Z</time>
      </trkpt>
      <trkpt lat="45.18254" lon="6.35217">
        <ele>1996.8000488281</ele>
        <time>2014-01-11T08:25:37.000Z</time>
      </trkpt>
      <trkpt lat="45.18254" lon="6.35217">
        <ele>1997</ele>
        <time>2014-01-11T08:25:38.000Z</time>
      </trkpt>
      <trkpt lat="45.18254" lon="6.35219">
        <ele>1997.1999511719</ele>
        <time>2014-01-11T08:25:39.000Z</time>
      </trkpt>
      <trkpt lat="45.18254" lon="6.35219">
        <ele>1997.4000244141</ele>
        <time>2014-01-11T08:25:40.000Z</time>
      </trkpt>
      <trkpt lat="45.18253" lon="6.35221">
        <ele>1997.4000244141</ele>
        <time>2014-01-11T08:25:41.000Z</time>
      </trkpt>
      <trkpt lat="45.18253" lon="6.35221">
        <ele>1997.8000488281</ele>
        <time>2014-01-11T08:25:42.000Z</time>
      </trkpt>
      <trkpt lat="45.18253" lon="6.35222">
        <ele>1998</ele>
        <time>2014-01-11T08:25:43.000Z</time>
      </trkpt>
      <trkpt lat="45.18253" lon="6.35222">
        <ele>1998.1999511719</ele>
        <time>2014-01-11T08:25:44.000Z</time>
      </trkpt>
      <trkpt lat="45.18253" lon="6.35223">
        <ele>1998.4000244141</ele>
        <time>2014-01-11T08:25:45.000Z</time>
      </trkpt>
      <trkpt lat="45.18253" lon="6.35225">
        <ele>1998.5999755859</ele>
        <time>2014-01-11T08:25:46.000Z</time>
      </trkpt>
      <trkpt lat="45.18253" lon="6.35225">
        <ele>1998.5999755859</ele>
        <time>2014-01-11T08:25:47.000Z</time>
      </trkpt>
      <trkpt lat="45.18252" lon="6.35227">
        <ele>1999</ele>
        <time>2014-01-11T08:25:48.000Z</time>
      </trkpt>
      <trkpt lat="45.18252" lon="6.35227">
        <ele>1999</ele>
        <time>2014-01-11T08:25:49.000Z</time>
      </trkpt>
      <trkpt lat="45.18252" lon="6.35229">
        <ele>1999.1999511719</ele>
        <time>2014-01-11T08:25:50.000Z</time>
      </trkpt>
      <trkpt lat="45.18252" lon="6.3523">
        <ele>1999.4000244141</ele>
        <time>2014-01-11T08:25:51.000Z</time>
      </trkpt>
      <trkpt lat="45.18251" lon="6.35231">
        <ele>1999.5999755859</ele>
        <time>2014-01-11T08:25:52.000Z</time>
      </trkpt>
      <trkpt lat="45.18251" lon="6.35233">
        <ele>2000</ele>
        <time>2014-01-11T08:25:53.000Z</time>
      </trkpt>
      <trkpt lat="45.18251" lon="6.35233">
        <ele>2000.1999511719</ele>
        <time>2014-01-11T08:25:54.000Z</time>
      </trkpt>
      <trkpt lat="45.18251" lon="6.35235">
        <ele>2000.4000244141</ele>
        <time>2014-01-11T08:25:55.000Z</time>
      </trkpt>
      <trkpt lat="45.18251" lon="6.35235">
        <ele>2000.5999755859</ele>
        <time>2014-01-11T08:25:56.000Z</time>
      </trkpt>
      <trkpt lat="45.18251" lon="6.35236">
        <ele>2000.5999755859</ele>
        <time>2014-01-11T08:25:57.000Z</time>
      </trkpt>
      <trkpt lat="45.18251" lon="6.35238">
        <ele>2000.8000488281</ele>
        <time>2014-01-11T08:25:58.000Z</time>
      </trkpt>
      <trkpt lat="45.18251" lon="6.35238">
        <ele>2001</ele>
        <time>2014-01-11T08:25:59.000Z</time>
      </trkpt>
      <trkpt lat="45.18251" lon="6.35241">
        <ele>2001.1999511719</ele>
        <time>2014-01-11T08:26:00.000Z</time>
      </trkpt>
      <trkpt lat="45.18252" lon="6.3524">
        <ele>2001.4000244141</ele>
        <time>2014-01-11T08:26:01.000Z</time>
      </trkpt>
      <trkpt lat="45.18252" lon="6.35242">
        <ele>2001.8000488281</ele>
        <time>2014-01-11T08:26:02.000Z</time>
      </trkpt>
      <trkpt lat="45.18252" lon="6.35243">
        <ele>2001.8000488281</ele>
        <time>2014-01-11T08:26:03.000Z</time>
      </trkpt>
      <trkpt lat="45.18252" lon="6.35243">
        <ele>2002</ele>
        <time>2014-01-11T08:26:04.000Z</time>
      </trkpt>
      <trkpt lat="45.18251" lon="6.35245">
        <ele>2002</ele>
        <time>2014-01-11T08:26:05.000Z</time>
      </trkpt>
      <trkpt lat="45.18251" lon="6.35244">
        <ele>2002.1999511719</ele>
        <time>2014-01-11T08:26:06.000Z</time>
      </trkpt>
      <trkpt lat="45.18251" lon="6.35246">
        <ele>2002.1999511719</ele>
        <time>2014-01-11T08:26:07.000Z</time>
      </trkpt>
      <trkpt lat="45.18251" lon="6.35246">
        <ele>2002.4000244141</ele>
        <time>2014-01-11T08:26:08.000Z</time>
      </trkpt>
      <trkpt lat="45.18251" lon="6.35248">
        <ele>2002.5999755859</ele>
        <time>2014-01-11T08:26:09.000Z</time>
      </trkpt>
      <trkpt lat="45.18251" lon="6.35249">
        <ele>2002.8000488281</ele>
        <time>2014-01-11T08:26:10.000Z</time>
      </trkpt>
      <trkpt lat="45.18251" lon="6.35249">
        <ele>2003</ele>
        <time>2014-01-11T08:26:11.000Z</time>
      </trkpt>
      <trkpt lat="45.18251" lon="6.35251">
        <ele>2003.1999511719</ele>
        <time>2014-01-11T08:26:12.000Z</time>
      </trkpt>
      <trkpt lat="45.18251" lon="6.3525">
        <ele>2003.1999511719</ele>
        <time>2014-01-11T08:26:13.000Z</time>
      </trkpt>
      <trkpt lat="45.1825" lon="6.35252">
        <ele>2003.4000244141</ele>
        <time>2014-01-11T08:26:14.000Z</time>
      </trkpt>
      <trkpt lat="45.1825" lon="6.35254">
        <ele>2003.5999755859</ele>
        <time>2014-01-11T08:26:15.000Z</time>
      </trkpt>
      <trkpt lat="45.1825" lon="6.35254">
        <ele>2003.8000488281</ele>
        <time>2014-01-11T08:26:16.000Z</time>
      </trkpt>
      <trkpt lat="45.1825" lon="6.35256">
        <ele>2004</ele>
        <time>2014-01-11T08:26:17.000Z</time>
      </trkpt>
      <trkpt lat="45.18249" lon="6.35256">
        <ele>2004.1999511719</ele>
        <time>2014-01-11T08:26:18.000Z</time>
      </trkpt>
      <trkpt lat="45.18249" lon="6.35258">
        <ele>2004.1999511719</ele>
        <time>2014-01-11T08:26:19.000Z</time>
      </trkpt>
      <trkpt lat="45.18249" lon="6.35259">
        <ele>2004.4000244141</ele>
        <time>2014-01-11T08:26:20.000Z</time>
      </trkpt>
      <trkpt lat="45.18249" lon="6.35259">
        <ele>2004.5999755859</ele>
        <time>2014-01-11T08:26:21.000Z</time>
      </trkpt>
      <trkpt lat="45.18248" lon="6.35262">
        <ele>2004.8000488281</ele>
        <time>2014-01-11T08:26:22.000Z</time>
      </trkpt>
      <trkpt lat="45.18248" lon="6.35262">
        <ele>2004.8000488281</ele>
        <time>2014-01-11T08:26:23.000Z</time>
      </trkpt>
      <trkpt lat="45.18247" lon="6.35263">
        <ele>2005</ele>
        <time>2014-01-11T08:26:24.000Z</time>
      </trkpt>
      <trkpt lat="45.18247" lon="6.35264">
        <ele>2005.1999511719</ele>
        <time>2014-01-11T08:26:25.000Z</time>
      </trkpt>
      <trkpt lat="45.18247" lon="6.35266">
        <ele>2005.5999755859</ele>
        <time>2014-01-11T08:26:26.000Z</time>
      </trkpt>
      <trkpt lat="45.18247" lon="6.35266">
        <ele>2005.8000488281</ele>
        <time>2014-01-11T08:26:27.000Z</time>
      </trkpt>
      <trkpt lat="45.18247" lon="6.35267">
        <ele>2005.8000488281</ele>
        <time>2014-01-11T08:26:28.000Z</time>
      </trkpt>
      <trkpt lat="45.18246" lon="6.35269">
        <ele>2006</ele>
        <time>2014-01-11T08:26:29.000Z</time>
      </trkpt>
      <trkpt lat="45.18246" lon="6.35269">
        <ele>2006.1999511719</ele>
        <time>2014-01-11T08:26:30.000Z</time>
      </trkpt>
      <trkpt lat="45.18246" lon="6.35271">
        <ele>2006.5999755859</ele>
        <time>2014-01-11T08:26:31.000Z</time>
      </trkpt>
      <trkpt lat="45.18246" lon="6.35271">
        <ele>2006.8000488281</ele>
        <time>2014-01-11T08:26:32.000Z</time>
      </trkpt>
      <trkpt lat="45.18246" lon="6.35271">
        <ele>2006.8000488281</ele>
        <time>2014-01-11T08:26:33.000Z</time>
      </trkpt>
      <trkpt lat="45.18246" lon="6.35271">
        <ele>2007</ele>
        <time>2014-01-11T08:26:34.000Z</time>
      </trkpt>
      <trkpt lat="45.18246" lon="6.35272">
        <ele>2007.1999511719</ele>
        <time>2014-01-11T08:26:35.000Z</time>
      </trkpt>
      <trkpt lat="45.18246" lon="6.35272">
        <ele>2007.4000244141</ele>
        <time>2014-01-11T08:26:36.000Z</time>
      </trkpt>
      <trkpt lat="45.18245" lon="6.35273">
        <ele>2007.5999755859</ele>
        <time>2014-01-11T08:26:37.000Z</time>
      </trkpt>
      <trkpt lat="45.18245" lon="6.35273">
        <ele>2007.8000488281</ele>
        <time>2014-01-11T08:26:38.000Z</time>
      </trkpt>
      <trkpt lat="45.18245" lon="6.35274">
        <ele>2008.1999511719</ele>
        <time>2014-01-11T08:26:39.000Z</time>
      </trkpt>
      <trkpt lat="45.18245" lon="6.35275">
        <ele>2008.4000244141</ele>
        <time>2014-01-11T08:26:40.000Z</time>
      </trkpt>
      <trkpt lat="45.18245" lon="6.35277">
        <ele>2008.5999755859</ele>
        <time>2014-01-11T08:26:41.000Z</time>
      </trkpt>
      <trkpt lat="45.18245" lon="6.35278">
        <ele>2008.8000488281</ele>
        <time>2014-01-11T08:26:42.000Z</time>
      </trkpt>
      <trkpt lat="45.18245" lon="6.35278">
        <ele>2009</ele>
        <time>2014-01-11T08:26:43.000Z</time>
      </trkpt>
      <trkpt lat="45.18245" lon="6.35281">
        <ele>2009.1999511719</ele>
        <time>2014-01-11T08:26:44.000Z</time>
      </trkpt>
      <trkpt lat="45.18245" lon="6.35281">
        <ele>2009.5999755859</ele>
        <time>2014-01-11T08:26:45.000Z</time>
      </trkpt>
      <trkpt lat="45.18245" lon="6.35281">
        <ele>2009.8000488281</ele>
        <time>2014-01-11T08:26:46.000Z</time>
      </trkpt>
      <trkpt lat="45.18245" lon="6.35282">
        <ele>2010</ele>
        <time>2014-01-11T08:26:47.000Z</time>
      </trkpt>
      <trkpt lat="45.18245" lon="6.35283">
        <ele>2010.1999511719</ele>
        <time>2014-01-11T08:26:48.000Z</time>
      </trkpt>
      <trkpt lat="45.18245" lon="6.35283">
        <ele>2010.4000244141</ele>
        <time>2014-01-11T08:26:49.000Z</time>
      </trkpt>
      <trkpt lat="45.18245" lon="6.35284">
        <ele>2010.8000488281</ele>
        <time>2014-01-11T08:26:50.000Z</time>
      </trkpt>
      <trkpt lat="45.18245" lon="6.35287">
        <ele>2011</ele>
        <time>2014-01-11T08:26:51.000Z</time>
      </trkpt>
      <trkpt lat="45.18245" lon="6.35287">
        <ele>2011.1999511719</ele>
        <time>2014-01-11T08:26:52.000Z</time>
      </trkpt>
      <trkpt lat="45.18245" lon="6.35289">
        <ele>2011.1999511719</ele>
        <time>2014-01-11T08:26:53.000Z</time>
      </trkpt>
      <trkpt lat="45.18244" lon="6.3529">
        <ele>2011.4000244141</ele>
        <time>2014-01-11T08:26:54.000Z</time>
      </trkpt>
      <trkpt lat="45.18244" lon="6.35292">
        <ele>2011.5999755859</ele>
        <time>2014-01-11T08:26:55.000Z</time>
      </trkpt>
      <trkpt lat="45.18244" lon="6.35293">
        <ele>2011.5999755859</ele>
        <time>2014-01-11T08:26:56.000Z</time>
      </trkpt>
      <trkpt lat="45.18243" lon="6.35293">
        <ele>2011.8000488281</ele>
        <time>2014-01-11T08:26:57.000Z</time>
      </trkpt>
      <trkpt lat="45.18243" lon="6.35296">
        <ele>2012</ele>
        <time>2014-01-11T08:26:58.000Z</time>
      </trkpt>
      <trkpt lat="45.18243" lon="6.35295">
        <ele>2012.1999511719</ele>
        <time>2014-01-11T08:26:59.000Z</time>
      </trkpt>
      <trkpt lat="45.18243" lon="6.35298">
        <ele>2012.1999511719</ele>
        <time>2014-01-11T08:27:00.000Z</time>
      </trkpt>
      <trkpt lat="45.18243" lon="6.35298">
        <ele>2012.4000244141</ele>
        <time>2014-01-11T08:27:01.000Z</time>
      </trkpt>
      <trkpt lat="45.18243" lon="6.353">
        <ele>2012.5999755859</ele>
        <time>2014-01-11T08:27:02.000Z</time>
      </trkpt>
      <trkpt lat="45.18243" lon="6.35299">
        <ele>2012.5999755859</ele>
        <time>2014-01-11T08:27:03.000Z</time>
      </trkpt>
      <trkpt lat="45.18243" lon="6.35301">
        <ele>2012.8000488281</ele>
        <time>2014-01-11T08:27:04.000Z</time>
      </trkpt>
      <trkpt lat="45.18243" lon="6.35302">
        <ele>2013</ele>
        <time>2014-01-11T08:27:05.000Z</time>
      </trkpt>
      <trkpt lat="45.18243" lon="6.35302">
        <ele>2013.1999511719</ele>
        <time>2014-01-11T08:27:06.000Z</time>
      </trkpt>
      <trkpt lat="45.18243" lon="6.35304">
        <ele>2013.1999511719</ele>
        <time>2014-01-11T08:27:07.000Z</time>
      </trkpt>
      <trkpt lat="45.18243" lon="6.35304">
        <ele>2013.4000244141</ele>
        <time>2014-01-11T08:27:08.000Z</time>
      </trkpt>
      <trkpt lat="45.18243" lon="6.35305">
        <ele>2013.5999755859</ele>
        <time>2014-01-11T08:27:09.000Z</time>
      </trkpt>
      <trkpt lat="45.18243" lon="6.35306">
        <ele>2013.8000488281</ele>
        <time>2014-01-11T08:27:10.000Z</time>
      </trkpt>
      <trkpt lat="45.18243" lon="6.35307">
        <ele>2014</ele>
        <time>2014-01-11T08:27:11.000Z</time>
      </trkpt>
      <trkpt lat="45.18243" lon="6.35308">
        <ele>2014.1999511719</ele>
        <time>2014-01-11T08:27:12.000Z</time>
      </trkpt>
      <trkpt lat="45.18243" lon="6.35309">
        <ele>2014.4000244141</ele>
        <time>2014-01-11T08:27:13.000Z</time>
      </trkpt>
      <trkpt lat="45.18243" lon="6.35309">
        <ele>2014.8000488281</ele>
        <time>2014-01-11T08:27:14.000Z</time>
      </trkpt>
      <trkpt lat="45.18243" lon="6.3531">
        <ele>2015.1999511719</ele>
        <time>2014-01-11T08:27:15.000Z</time>
      </trkpt>
      <trkpt lat="45.18243" lon="6.35311">
        <ele>2015.4000244141</ele>
        <time>2014-01-11T08:27:16.000Z</time>
      </trkpt>
      <trkpt lat="45.18243" lon="6.35313">
        <ele>2015.5999755859</ele>
        <time>2014-01-11T08:27:17.000Z</time>
      </trkpt>
      <trkpt lat="45.18243" lon="6.35312">
        <ele>2015.8000488281</ele>
        <time>2014-01-11T08:27:18.000Z</time>
      </trkpt>
      <trkpt lat="45.18242" lon="6.35314">
        <ele>2016</ele>
        <time>2014-01-11T08:27:19.000Z</time>
      </trkpt>
      <trkpt lat="45.18242" lon="6.35314">
        <ele>2016.1999511719</ele>
        <time>2014-01-11T08:27:20.000Z</time>
      </trkpt>
      <trkpt lat="45.18241" lon="6.35315">
        <ele>2016.5999755859</ele>
        <time>2014-01-11T08:27:21.000Z</time>
      </trkpt>
      <trkpt lat="45.18241" lon="6.35315">
        <ele>2016.8000488281</ele>
        <time>2014-01-11T08:27:22.000Z</time>
      </trkpt>
      <trkpt lat="45.18241" lon="6.35316">
        <ele>2017</ele>
        <time>2014-01-11T08:27:23.000Z</time>
      </trkpt>
      <trkpt lat="45.18241" lon="6.35316">
        <ele>2017.1999511719</ele>
        <time>2014-01-11T08:27:24.000Z</time>
      </trkpt>
      <trkpt lat="45.18241" lon="6.35316">
        <ele>2017.4000244141</ele>
        <time>2014-01-11T08:27:25.000Z</time>
      </trkpt>
      <trkpt lat="45.18241" lon="6.35317">
        <ele>2017.5999755859</ele>
        <time>2014-01-11T08:27:26.000Z</time>
      </trkpt>
      <trkpt lat="45.18241" lon="6.35317">
        <ele>2017.8000488281</ele>
        <time>2014-01-11T08:27:27.000Z</time>
      </trkpt>
      <trkpt lat="45.18241" lon="6.35318">
        <ele>2018</ele>
        <time>2014-01-11T08:27:28.000Z</time>
      </trkpt>
      <trkpt lat="45.18241" lon="6.35319">
        <ele>2018.1999511719</ele>
        <time>2014-01-11T08:27:29.000Z</time>
      </trkpt>
      <trkpt lat="45.18241" lon="6.3532">
        <ele>2018.5999755859</ele>
        <time>2014-01-11T08:27:30.000Z</time>
      </trkpt>
      <trkpt lat="45.18241" lon="6.35321">
        <ele>2018.8000488281</ele>
        <time>2014-01-11T08:27:31.000Z</time>
      </trkpt>
      <trkpt lat="45.18241" lon="6.35322">
        <ele>2019</ele>
        <time>2014-01-11T08:27:32.000Z</time>
      </trkpt>
      <trkpt lat="45.18241" lon="6.35322">
        <ele>2019.1999511719</ele>
        <time>2014-01-11T08:27:33.000Z</time>
      </trkpt>
      <trkpt lat="45.18241" lon="6.35323">
        <ele>2019.4000244141</ele>
        <time>2014-01-11T08:27:34.000Z</time>
      </trkpt>
      <trkpt lat="45.18241" lon="6.35323">
        <ele>2019.5999755859</ele>
        <time>2014-01-11T08:27:35.000Z</time>
      </trkpt>
      <trkpt lat="45.18242" lon="6.35324">
        <ele>2019.8000488281</ele>
        <time>2014-01-11T08:27:36.000Z</time>
      </trkpt>
      <trkpt lat="45.18242" lon="6.35324">
        <ele>2019.8000488281</ele>
        <time>2014-01-11T08:27:37.000Z</time>
      </trkpt>
      <trkpt lat="45.18242" lon="6.35325">
        <ele>2020.4000244141</ele>
        <time>2014-01-11T08:27:38.000Z</time>
      </trkpt>
      <trkpt lat="45.18242" lon="6.35326">
        <ele>2020.5999755859</ele>
        <time>2014-01-11T08:27:39.000Z</time>
      </trkpt>
      <trkpt lat="45.18243" lon="6.35326">
        <ele>2020.8000488281</ele>
        <time>2014-01-11T08:27:40.000Z</time>
      </trkpt>
      <trkpt lat="45.18242" lon="6.35326">
        <ele>2021.1999511719</ele>
        <time>2014-01-11T08:27:41.000Z</time>
      </trkpt>
      <trkpt lat="45.18243" lon="6.35327">
        <ele>2021.4000244141</ele>
        <time>2014-01-11T08:27:42.000Z</time>
      </trkpt>
      <trkpt lat="45.18243" lon="6.35327">
        <ele>2021.5999755859</ele>
        <time>2014-01-11T08:27:43.000Z</time>
      </trkpt>
      <trkpt lat="45.18243" lon="6.35328">
        <ele>2021.8000488281</ele>
        <time>2014-01-11T08:27:44.000Z</time>
      </trkpt>
      <trkpt lat="45.18243" lon="6.35328">
        <ele>2021.8000488281</ele>
        <time>2014-01-11T08:27:45.000Z</time>
      </trkpt>
      <trkpt lat="45.18244" lon="6.35329">
        <ele>2022</ele>
        <time>2014-01-11T08:27:46.000Z</time>
      </trkpt>
      <trkpt lat="45.18244" lon="6.3533">
        <ele>2022.1999511719</ele>
        <time>2014-01-11T08:27:47.000Z</time>
      </trkpt>
      <trkpt lat="45.18244" lon="6.3533">
        <ele>2022.4000244141</ele>
        <time>2014-01-11T08:27:48.000Z</time>
      </trkpt>
      <trkpt lat="45.18244" lon="6.35331">
        <ele>2022.5999755859</ele>
        <time>2014-01-11T08:27:49.000Z</time>
      </trkpt>
      <trkpt lat="45.18245" lon="6.35333">
        <ele>2022.8000488281</ele>
        <time>2014-01-11T08:27:50.000Z</time>
      </trkpt>
      <trkpt lat="45.18245" lon="6.35333">
        <ele>2023</ele>
        <time>2014-01-11T08:27:51.000Z</time>
      </trkpt>
      <trkpt lat="45.18244" lon="6.35334">
        <ele>2023.1999511719</ele>
        <time>2014-01-11T08:27:52.000Z</time>
      </trkpt>
      <trkpt lat="45.18244" lon="6.35334">
        <ele>2023.4000244141</ele>
        <time>2014-01-11T08:27:53.000Z</time>
      </trkpt>
      <trkpt lat="45.18244" lon="6.35335">
        <ele>2023.5999755859</ele>
        <time>2014-01-11T08:27:54.000Z</time>
      </trkpt>
      <trkpt lat="45.18243" lon="6.35336">
        <ele>2024</ele>
        <time>2014-01-11T08:27:55.000Z</time>
      </trkpt>
      <trkpt lat="45.18243" lon="6.35336">
        <ele>2024</ele>
        <time>2014-01-11T08:27:56.000Z</time>
      </trkpt>
      <trkpt lat="45.18243" lon="6.35336">
        <ele>2024.1999511719</ele>
        <time>2014-01-11T08:27:57.000Z</time>
      </trkpt>
      <trkpt lat="45.18243" lon="6.35337">
        <ele>2024.1999511719</ele>
        <time>2014-01-11T08:27:58.000Z</time>
      </trkpt>
      <trkpt lat="45.18242" lon="6.35337">
        <ele>2024.5999755859</ele>
        <time>2014-01-11T08:27:59.000Z</time>
      </trkpt>
      <trkpt lat="45.18242" lon="6.35337">
        <ele>2024.8000488281</ele>
        <time>2014-01-11T08:28:00.000Z</time>
      </trkpt>
      <trkpt lat="45.18241" lon="6.35338">
        <ele>2025</ele>
        <time>2014-01-11T08:28:01.000Z</time>
      </trkpt>
      <trkpt lat="45.18241" lon="6.35338">
        <ele>2025.5999755859</ele>
        <time>2014-01-11T08:28:02.000Z</time>
      </trkpt>
      <trkpt lat="45.1824" lon="6.3534">
        <ele>2025.8000488281</ele>
        <time>2014-01-11T08:28:03.000Z</time>
      </trkpt>
      <trkpt lat="45.1824" lon="6.3534">
        <ele>2026</ele>
        <time>2014-01-11T08:28:04.000Z</time>
      </trkpt>
      <trkpt lat="45.18239" lon="6.35341">
        <ele>2026</ele>
        <time>2014-01-11T08:28:05.000Z</time>
      </trkpt>
      <trkpt lat="45.18239" lon="6.35341">
        <ele>2026.1999511719</ele>
        <time>2014-01-11T08:28:06.000Z</time>
      </trkpt>
      <trkpt lat="45.18239" lon="6.35342">
        <ele>2026.4000244141</ele>
        <time>2014-01-11T08:28:07.000Z</time>
      </trkpt>
      <trkpt lat="45.18239" lon="6.35342">
        <ele>2026.5999755859</ele>
        <time>2014-01-11T08:28:08.000Z</time>
      </trkpt>
      <trkpt lat="45.18238" lon="6.35343">
        <ele>2026.8000488281</ele>
        <time>2014-01-11T08:28:09.000Z</time>
      </trkpt>
      <trkpt lat="45.18238" lon="6.35343">
        <ele>2027</ele>
        <time>2014-01-11T08:28:10.000Z</time>
      </trkpt>
      <trkpt lat="45.18238" lon="6.35343">
        <ele>2027.1999511719</ele>
        <time>2014-01-11T08:28:11.000Z</time>
      </trkpt>
      <trkpt lat="45.18237" lon="6.35343">
        <ele>2027.4000244141</ele>
        <time>2014-01-11T08:28:12.000Z</time>
      </trkpt>
      <trkpt lat="45.18238" lon="6.35343">
        <ele>2027.5999755859</ele>
        <time>2014-01-11T08:28:13.000Z</time>
      </trkpt>
      <trkpt lat="45.18237" lon="6.35344">
        <ele>2027.8000488281</ele>
        <time>2014-01-11T08:28:14.000Z</time>
      </trkpt>
      <trkpt lat="45.18237" lon="6.35344">
        <ele>2028</ele>
        <time>2014-01-11T08:28:15.000Z</time>
      </trkpt>
      <trkpt lat="45.18237" lon="6.35345">
        <ele>2028.1999511719</ele>
        <time>2014-01-11T08:28:16.000Z</time>
      </trkpt>
      <trkpt lat="45.18237" lon="6.35345">
        <ele>2028.4000244141</ele>
        <time>2014-01-11T08:28:17.000Z</time>
      </trkpt>
      <trkpt lat="45.18237" lon="6.35345">
        <ele>2028.5999755859</ele>
        <time>2014-01-11T08:28:18.000Z</time>
      </trkpt>
      <trkpt lat="45.18236" lon="6.35346">
        <ele>2028.5999755859</ele>
        <time>2014-01-11T08:28:19.000Z</time>
      </trkpt>
      <trkpt lat="45.18236" lon="6.35346">
        <ele>2028.8000488281</ele>
        <time>2014-01-11T08:28:20.000Z</time>
      </trkpt>
      <trkpt lat="45.18236" lon="6.35347">
        <ele>2029</ele>
        <time>2014-01-11T08:28:21.000Z</time>
      </trkpt>
      <trkpt lat="45.18235" lon="6.35347">
        <ele>2029.1999511719</ele>
        <time>2014-01-11T08:28:22.000Z</time>
      </trkpt>
      <trkpt lat="45.18235" lon="6.35348">
        <ele>2029.4000244141</ele>
        <time>2014-01-11T08:28:23.000Z</time>
      </trkpt>
      <trkpt lat="45.18235" lon="6.35348">
        <ele>2029.5999755859</ele>
        <time>2014-01-11T08:28:24.000Z</time>
      </trkpt>
      <trkpt lat="45.18235" lon="6.35348">
        <ele>2029.8000488281</ele>
        <time>2014-01-11T08:28:25.000Z</time>
      </trkpt>
      <trkpt lat="45.18234" lon="6.35349">
        <ele>2030.1999511719</ele>
        <time>2014-01-11T08:28:26.000Z</time>
      </trkpt>
      <trkpt lat="45.18234" lon="6.3535">
        <ele>2030.4000244141</ele>
        <time>2014-01-11T08:28:27.000Z</time>
      </trkpt>
      <trkpt lat="45.18234" lon="6.3535">
        <ele>2030.5999755859</ele>
        <time>2014-01-11T08:28:28.000Z</time>
      </trkpt>
      <trkpt lat="45.18233" lon="6.35351">
        <ele>2030.8000488281</ele>
        <time>2014-01-11T08:28:29.000Z</time>
      </trkpt>
      <trkpt lat="45.18233" lon="6.35351">
        <ele>2031</ele>
        <time>2014-01-11T08:28:30.000Z</time>
      </trkpt>
      <trkpt lat="45.18233" lon="6.35351">
        <ele>2031.1999511719</ele>
        <time>2014-01-11T08:28:31.000Z</time>
      </trkpt>
      <trkpt lat="45.18233" lon="6.35351">
        <ele>2031.4000244141</ele>
        <time>2014-01-11T08:28:32.000Z</time>
      </trkpt>
      <trkpt lat="45.18233" lon="6.35351">
        <ele>2031.5999755859</ele>
        <time>2014-01-11T08:28:33.000Z</time>
      </trkpt>
      <trkpt lat="45.18233" lon="6.35351">
        <ele>2031.8000488281</ele>
        <time>2014-01-11T08:28:34.000Z</time>
      </trkpt>
      <trkpt lat="45.18233" lon="6.35351">
        <ele>2031.8000488281</ele>
        <time>2014-01-11T08:28:35.000Z</time>
      </trkpt>
      <trkpt lat="45.18232" lon="6.35352">
        <ele>2032</ele>
        <time>2014-01-11T08:28:36.000Z</time>
      </trkpt>
      <trkpt lat="45.18232" lon="6.35353">
        <ele>2032</ele>
        <time>2014-01-11T08:28:37.000Z</time>
      </trkpt>
      <trkpt lat="45.18232" lon="6.35353">
        <ele>2032.1999511719</ele>
        <time>2014-01-11T08:28:38.000Z</time>
      </trkpt>
      <trkpt lat="45.18231" lon="6.35355">
        <ele>2032.1999511719</ele>
        <time>2014-01-11T08:28:39.000Z</time>
      </trkpt>
      <trkpt lat="45.18231" lon="6.35355">
        <ele>2032.1999511719</ele>
        <time>2014-01-11T08:28:40.000Z</time>
      </trkpt>
      <trkpt lat="45.18231" lon="6.35356">
        <ele>2032.4000244141</ele>
        <time>2014-01-11T08:28:41.000Z</time>
      </trkpt>
      <trkpt lat="45.18231" lon="6.35356">
        <ele>2032.4000244141</ele>
        <time>2014-01-11T08:28:42.000Z</time>
      </trkpt>
      <trkpt lat="45.18231" lon="6.35357">
        <ele>2032.5999755859</ele>
        <time>2014-01-11T08:28:43.000Z</time>
      </trkpt>
      <trkpt lat="45.1823" lon="6.35358">
        <ele>2032.8000488281</ele>
        <time>2014-01-11T08:28:44.000Z</time>
      </trkpt>
      <trkpt lat="45.1823" lon="6.35359">
        <ele>2033</ele>
        <time>2014-01-11T08:28:45.000Z</time>
      </trkpt>
      <trkpt lat="45.1823" lon="6.3536">
        <ele>2033.4000244141</ele>
        <time>2014-01-11T08:28:46.000Z</time>
      </trkpt>
      <trkpt lat="45.1823" lon="6.3536">
        <ele>2033.5999755859</ele>
        <time>2014-01-11T08:28:47.000Z</time>
      </trkpt>
      <trkpt lat="45.1823" lon="6.35361">
        <ele>2033.8000488281</ele>
        <time>2014-01-11T08:28:48.000Z</time>
      </trkpt>
      <trkpt lat="45.18231" lon="6.35362">
        <ele>2034.1999511719</ele>
        <time>2014-01-11T08:28:49.000Z</time>
      </trkpt>
      <trkpt lat="45.1823" lon="6.35362">
        <ele>2034.8000488281</ele>
        <time>2014-01-11T08:28:50.000Z</time>
      </trkpt>
      <trkpt lat="45.18231" lon="6.35362">
        <ele>2035</ele>
        <time>2014-01-11T08:28:51.000Z</time>
      </trkpt>
      <trkpt lat="45.18231" lon="6.35362">
        <ele>2035.4000244141</ele>
        <time>2014-01-11T08:28:52.000Z</time>
      </trkpt>
      <trkpt lat="45.18231" lon="6.35363">
        <ele>2035.5999755859</ele>
        <time>2014-01-11T08:28:53.000Z</time>
      </trkpt>
      <trkpt lat="45.18231" lon="6.35363">
        <ele>2035.8000488281</ele>
        <time>2014-01-11T08:28:54.000Z</time>
      </trkpt>
      <trkpt lat="45.18232" lon="6.35364">
        <ele>2035.8000488281</ele>
        <time>2014-01-11T08:28:55.000Z</time>
      </trkpt>
      <trkpt lat="45.18232" lon="6.35363">
        <ele>2036</ele>
        <time>2014-01-11T08:28:56.000Z</time>
      </trkpt>
      <trkpt lat="45.18233" lon="6.35365">
        <ele>2036.1999511719</ele>
        <time>2014-01-11T08:28:57.000Z</time>
      </trkpt>
      <trkpt lat="45.18233" lon="6.35365">
        <ele>2036.4000244141</ele>
        <time>2014-01-11T08:28:58.000Z</time>
      </trkpt>
      <trkpt lat="45.18233" lon="6.35365">
        <ele>2036.5999755859</ele>
        <time>2014-01-11T08:28:59.000Z</time>
      </trkpt>
      <trkpt lat="45.18233" lon="6.35366">
        <ele>2036.8000488281</ele>
        <time>2014-01-11T08:29:00.000Z</time>
      </trkpt>
      <trkpt lat="45.18234" lon="6.35366">
        <ele>2037.1999511719</ele>
        <time>2014-01-11T08:29:01.000Z</time>
      </trkpt>
      <trkpt lat="45.18234" lon="6.35367">
        <ele>2037.4000244141</ele>
        <time>2014-01-11T08:29:02.000Z</time>
      </trkpt>
      <trkpt lat="45.18234" lon="6.35368">
        <ele>2037.5999755859</ele>
        <time>2014-01-11T08:29:03.000Z</time>
      </trkpt>
      <trkpt lat="45.18235" lon="6.35368">
        <ele>2037.8000488281</ele>
        <time>2014-01-11T08:29:04.000Z</time>
      </trkpt>
      <trkpt lat="45.18235" lon="6.35368">
        <ele>2038.1999511719</ele>
        <time>2014-01-11T08:29:05.000Z</time>
      </trkpt>
      <trkpt lat="45.18236" lon="6.35369">
        <ele>2038.4000244141</ele>
        <time>2014-01-11T08:29:06.000Z</time>
      </trkpt>
      <trkpt lat="45.18236" lon="6.35369">
        <ele>2038.5999755859</ele>
        <time>2014-01-11T08:29:07.000Z</time>
      </trkpt>
      <trkpt lat="45.18237" lon="6.3537">
        <ele>2038.8000488281</ele>
        <time>2014-01-11T08:29:08.000Z</time>
      </trkpt>
      <trkpt lat="45.18237" lon="6.3537">
        <ele>2039</ele>
        <time>2014-01-11T08:29:09.000Z</time>
      </trkpt>
      <trkpt lat="45.18238" lon="6.35371">
        <ele>2039.1999511719</ele>
        <time>2014-01-11T08:29:10.000Z</time>
      </trkpt>
      <trkpt lat="45.18238" lon="6.35371">
        <ele>2039.4000244141</ele>
        <time>2014-01-11T08:29:11.000Z</time>
      </trkpt>
      <trkpt lat="45.18238" lon="6.35372">
        <ele>2039.5999755859</ele>
        <time>2014-01-11T08:29:12.000Z</time>
      </trkpt>
      <trkpt lat="45.18238" lon="6.35372">
        <ele>2039.8000488281</ele>
        <time>2014-01-11T08:29:13.000Z</time>
      </trkpt>
      <trkpt lat="45.18239" lon="6.35373">
        <ele>2040.1999511719</ele>
        <time>2014-01-11T08:29:14.000Z</time>
      </trkpt>
      <trkpt lat="45.18239" lon="6.35373">
        <ele>2040.5999755859</ele>
        <time>2014-01-11T08:29:15.000Z</time>
      </trkpt>
      <trkpt lat="45.1824" lon="6.35374">
        <ele>2040.8000488281</ele>
        <time>2014-01-11T08:29:16.000Z</time>
      </trkpt>
      <trkpt lat="45.1824" lon="6.35374">
        <ele>2041.1999511719</ele>
        <time>2014-01-11T08:29:17.000Z</time>
      </trkpt>
      <trkpt lat="45.1824" lon="6.35375">
        <ele>2041.4000244141</ele>
        <time>2014-01-11T08:29:18.000Z</time>
      </trkpt>
      <trkpt lat="45.18241" lon="6.35375">
        <ele>2041.5999755859</ele>
        <time>2014-01-11T08:29:19.000Z</time>
      </trkpt>
      <trkpt lat="45.18241" lon="6.35375">
        <ele>2041.8000488281</ele>
        <time>2014-01-11T08:29:20.000Z</time>
      </trkpt>
      <trkpt lat="45.18241" lon="6.35375">
        <ele>2041.8000488281</ele>
        <time>2014-01-11T08:29:21.000Z</time>
      </trkpt>
      <trkpt lat="45.18242" lon="6.35376">
        <ele>2042</ele>
        <time>2014-01-11T08:29:22.000Z</time>
      </trkpt>
      <trkpt lat="45.18243" lon="6.35376">
        <ele>2042.1999511719</ele>
        <time>2014-01-11T08:29:23.000Z</time>
      </trkpt>
      <trkpt lat="45.18243" lon="6.35376">
        <ele>2042.4000244141</ele>
        <time>2014-01-11T08:29:24.000Z</time>
      </trkpt>
      <trkpt lat="45.18244" lon="6.35377">
        <ele>2042.4000244141</ele>
        <time>2014-01-11T08:29:25.000Z</time>
      </trkpt>
      <trkpt lat="45.18244" lon="6.35377">
        <ele>2042.8000488281</ele>
        <time>2014-01-11T08:29:26.000Z</time>
      </trkpt>
      <trkpt lat="45.18245" lon="6.35377">
        <ele>2043</ele>
        <time>2014-01-11T08:29:27.000Z</time>
      </trkpt>
      <trkpt lat="45.18245" lon="6.35378">
        <ele>2043.1999511719</ele>
        <time>2014-01-11T08:29:28.000Z</time>
      </trkpt>
      <trkpt lat="45.18246" lon="6.35378">
        <ele>2043.4000244141</ele>
        <time>2014-01-11T08:29:29.000Z</time>
      </trkpt>
      <trkpt lat="45.18246" lon="6.35378">
        <ele>2043.8000488281</ele>
        <time>2014-01-11T08:29:30.000Z</time>
      </trkpt>
      <trkpt lat="45.18246" lon="6.35379">
        <ele>2044</ele>
        <time>2014-01-11T08:29:31.000Z</time>
      </trkpt>
      <trkpt lat="45.18247" lon="6.35379">
        <ele>2044.1999511719</ele>
        <time>2014-01-11T08:29:32.000Z</time>
      </trkpt>
      <trkpt lat="45.18247" lon="6.35379">
        <ele>2044.4000244141</ele>
        <time>2014-01-11T08:29:33.000Z</time>
      </trkpt>
      <trkpt lat="45.18247" lon="6.3538">
        <ele>2044.5999755859</ele>
        <time>2014-01-11T08:29:34.000Z</time>
      </trkpt>
      <trkpt lat="45.18247" lon="6.3538">
        <ele>2044.5999755859</ele>
        <time>2014-01-11T08:29:35.000Z</time>
      </trkpt>
      <trkpt lat="45.18247" lon="6.35381">
        <ele>2044.8000488281</ele>
        <time>2014-01-11T08:29:36.000Z</time>
      </trkpt>
      <trkpt lat="45.18247" lon="6.35381">
        <ele>2045</ele>
        <time>2014-01-11T08:29:37.000Z</time>
      </trkpt>
      <trkpt lat="45.18248" lon="6.35382">
        <ele>2045.5999755859</ele>
        <time>2014-01-11T08:29:38.000Z</time>
      </trkpt>
      <trkpt lat="45.18248" lon="6.35383">
        <ele>2045.8000488281</ele>
        <time>2014-01-11T08:29:39.000Z</time>
      </trkpt>
      <trkpt lat="45.18248" lon="6.35383">
        <ele>2046.1999511719</ele>
        <time>2014-01-11T08:29:40.000Z</time>
      </trkpt>
      <trkpt lat="45.18248" lon="6.35384">
        <ele>2046.4000244141</ele>
        <time>2014-01-11T08:29:41.000Z</time>
      </trkpt>
      <trkpt lat="45.18249" lon="6.35385">
        <ele>2046.5999755859</ele>
        <time>2014-01-11T08:29:42.000Z</time>
      </trkpt>
      <trkpt lat="45.18249" lon="6.35385">
        <ele>2047</ele>
        <time>2014-01-11T08:29:43.000Z</time>
      </trkpt>
      <trkpt lat="45.18249" lon="6.35386">
        <ele>2047.1999511719</ele>
        <time>2014-01-11T08:29:44.000Z</time>
      </trkpt>
      <trkpt lat="45.18249" lon="6.35386">
        <ele>2047.4000244141</ele>
        <time>2014-01-11T08:29:45.000Z</time>
      </trkpt>
      <trkpt lat="45.1825" lon="6.35386">
        <ele>2047.5999755859</ele>
        <time>2014-01-11T08:29:46.000Z</time>
      </trkpt>
      <trkpt lat="45.18251" lon="6.35387">
        <ele>2047.8000488281</ele>
        <time>2014-01-11T08:29:47.000Z</time>
      </trkpt>
      <trkpt lat="45.18251" lon="6.35387">
        <ele>2048</ele>
        <time>2014-01-11T08:29:48.000Z</time>
      </trkpt>
      <trkpt lat="45.18251" lon="6.35387">
        <ele>2048.1999511719</ele>
        <time>2014-01-11T08:29:49.000Z</time>
      </trkpt>
      <trkpt lat="45.18251" lon="6.35389">
        <ele>2048.3999023438</ele>
        <time>2014-01-11T08:29:50.000Z</time>
      </trkpt>
      <trkpt lat="45.18251" lon="6.35389">
        <ele>2048.6000976562</ele>
        <time>2014-01-11T08:29:51.000Z</time>
      </trkpt>
      <trkpt lat="45.18251" lon="6.3539">
        <ele>2048.8000488281</ele>
        <time>2014-01-11T08:29:52.000Z</time>
      </trkpt>
      <trkpt lat="45.18251" lon="6.35391">
        <ele>2049</ele>
        <time>2014-01-11T08:29:53.000Z</time>
      </trkpt>
      <trkpt lat="45.1825" lon="6.35391">
        <ele>2049.3999023438</ele>
        <time>2014-01-11T08:29:54.000Z</time>
      </trkpt>
      <trkpt lat="45.1825" lon="6.35391">
        <ele>2049.6000976562</ele>
        <time>2014-01-11T08:29:55.000Z</time>
      </trkpt>
      <trkpt lat="45.18248" lon="6.35392">
        <ele>2049.8000488281</ele>
        <time>2014-01-11T08:29:56.000Z</time>
      </trkpt>
      <trkpt lat="45.18249" lon="6.35392">
        <ele>2049.8000488281</ele>
        <time>2014-01-11T08:29:57.000Z</time>
      </trkpt>
      <trkpt lat="45.18249" lon="6.35392">
        <ele>2050</ele>
        <time>2014-01-11T08:29:58.000Z</time>
      </trkpt>
      <trkpt lat="45.18248" lon="6.35393">
        <ele>2050.1999511719</ele>
        <time>2014-01-11T08:29:59.000Z</time>
      </trkpt>
      <trkpt lat="45.18248" lon="6.35393">
        <ele>2050.3999023438</ele>
        <time>2014-01-11T08:30:00.000Z</time>
      </trkpt>
      <trkpt lat="45.18248" lon="6.35393">
        <ele>2050.6000976562</ele>
        <time>2014-01-11T08:30:01.000Z</time>
      </trkpt>
      <trkpt lat="45.18248" lon="6.35394">
        <ele>2050.8000488281</ele>
        <time>2014-01-11T08:30:02.000Z</time>
      </trkpt>
      <trkpt lat="45.18248" lon="6.35395">
        <ele>2051</ele>
        <time>2014-01-11T08:30:03.000Z</time>
      </trkpt>
      <trkpt lat="45.18248" lon="6.35396">
        <ele>2051.1999511719</ele>
        <time>2014-01-11T08:30:04.000Z</time>
      </trkpt>
      <trkpt lat="45.18247" lon="6.35397">
        <ele>2051.3999023438</ele>
        <time>2014-01-11T08:30:05.000Z</time>
      </trkpt>
      <trkpt lat="45.18248" lon="6.35397">
        <ele>2051.6000976562</ele>
        <time>2014-01-11T08:30:06.000Z</time>
      </trkpt>
      <trkpt lat="45.18247" lon="6.35398">
        <ele>2051.8000488281</ele>
        <time>2014-01-11T08:30:07.000Z</time>
      </trkpt>
      <trkpt lat="45.18247" lon="6.35399">
        <ele>2052</ele>
        <time>2014-01-11T08:30:08.000Z</time>
      </trkpt>
      <trkpt lat="45.18247" lon="6.354">
        <ele>2052.1999511719</ele>
        <time>2014-01-11T08:30:09.000Z</time>
      </trkpt>
      <trkpt lat="45.18247" lon="6.35401">
        <ele>2052.3999023438</ele>
        <time>2014-01-11T08:30:10.000Z</time>
      </trkpt>
      <trkpt lat="45.18247" lon="6.35401">
        <ele>2052.6000976562</ele>
        <time>2014-01-11T08:30:11.000Z</time>
      </trkpt>
      <trkpt lat="45.18247" lon="6.35401">
        <ele>2052.8000488281</ele>
        <time>2014-01-11T08:30:12.000Z</time>
      </trkpt>
      <trkpt lat="45.18247" lon="6.35402">
        <ele>2053.1999511719</ele>
        <time>2014-01-11T08:30:13.000Z</time>
      </trkpt>
      <trkpt lat="45.18247" lon="6.35402">
        <ele>2053.3999023438</ele>
        <time>2014-01-11T08:30:14.000Z</time>
      </trkpt>
      <trkpt lat="45.18246" lon="6.35402">
        <ele>2053.3999023438</ele>
        <time>2014-01-11T08:30:15.000Z</time>
      </trkpt>
      <trkpt lat="45.18246" lon="6.35403">
        <ele>2053.6000976562</ele>
        <time>2014-01-11T08:30:16.000Z</time>
      </trkpt>
      <trkpt lat="45.18246" lon="6.35403">
        <ele>2053.8000488281</ele>
        <time>2014-01-11T08:30:17.000Z</time>
      </trkpt>
      <trkpt lat="45.18246" lon="6.35403">
        <ele>2054</ele>
        <time>2014-01-11T08:30:18.000Z</time>
      </trkpt>
      <trkpt lat="45.18246" lon="6.35403">
        <ele>2054.1999511719</ele>
        <time>2014-01-11T08:30:19.000Z</time>
      </trkpt>
      <trkpt lat="45.18246" lon="6.35404">
        <ele>2054.3999023438</ele>
        <time>2014-01-11T08:30:20.000Z</time>
      </trkpt>
      <trkpt lat="45.18246" lon="6.35404">
        <ele>2054.3999023438</ele>
        <time>2014-01-11T08:30:21.000Z</time>
      </trkpt>
      <trkpt lat="45.18246" lon="6.35405">
        <ele>2054.6000976562</ele>
        <time>2014-01-11T08:30:22.000Z</time>
      </trkpt>
      <trkpt lat="45.18246" lon="6.35405">
        <ele>2054.8000488281</ele>
        <time>2014-01-11T08:30:23.000Z</time>
      </trkpt>
      <trkpt lat="45.18246" lon="6.35407">
        <ele>2055.1999511719</ele>
        <time>2014-01-11T08:30:24.000Z</time>
      </trkpt>
      <trkpt lat="45.18246" lon="6.35407">
        <ele>2055.3999023438</ele>
        <time>2014-01-11T08:30:25.000Z</time>
      </trkpt>
      <trkpt lat="45.18246" lon="6.35408">
        <ele>2055.8000488281</ele>
        <time>2014-01-11T08:30:26.000Z</time>
      </trkpt>
      <trkpt lat="45.18246" lon="6.35409">
        <ele>2056</ele>
        <time>2014-01-11T08:30:27.000Z</time>
      </trkpt>
      <trkpt lat="45.18246" lon="6.3541">
        <ele>2056</ele>
        <time>2014-01-11T08:30:28.000Z</time>
      </trkpt>
      <trkpt lat="45.18246" lon="6.35411">
        <ele>2056.1999511719</ele>
        <time>2014-01-11T08:30:29.000Z</time>
      </trkpt>
      <trkpt lat="45.18246" lon="6.35412">
        <ele>2056.3999023438</ele>
        <time>2014-01-11T08:30:30.000Z</time>
      </trkpt>
      <trkpt lat="45.18246" lon="6.35413">
        <ele>2056.6000976562</ele>
        <time>2014-01-11T08:30:31.000Z</time>
      </trkpt>
      <trkpt lat="45.18246" lon="6.35414">
        <ele>2057</ele>
        <time>2014-01-11T08:30:32.000Z</time>
      </trkpt>
      <trkpt lat="45.18246" lon="6.35415">
        <ele>2057.1999511719</ele>
        <time>2014-01-11T08:30:33.000Z</time>
      </trkpt>
      <trkpt lat="45.18246" lon="6.35415">
        <ele>2057.3999023438</ele>
        <time>2014-01-11T08:30:34.000Z</time>
      </trkpt>
      <trkpt lat="45.18246" lon="6.35416">
        <ele>2057.6000976562</ele>
        <time>2014-01-11T08:30:35.000Z</time>
      </trkpt>
      <trkpt lat="45.18246" lon="6.35417">
        <ele>2057.8000488281</ele>
        <time>2014-01-11T08:30:36.000Z</time>
      </trkpt>
      <trkpt lat="45.18246" lon="6.35418">
        <ele>2057.8000488281</ele>
        <time>2014-01-11T08:30:37.000Z</time>
      </trkpt>
      <trkpt lat="45.18246" lon="6.35419">
        <ele>2058.1999511719</ele>
        <time>2014-01-11T08:30:38.000Z</time>
      </trkpt>
      <trkpt lat="45.18245" lon="6.35419">
        <ele>2058.3999023438</ele>
        <time>2014-01-11T08:30:39.000Z</time>
      </trkpt>
      <trkpt lat="45.18245" lon="6.3542">
        <ele>2058.6000976562</ele>
        <time>2014-01-11T08:30:40.000Z</time>
      </trkpt>
      <trkpt lat="45.18245" lon="6.35421">
        <ele>2058.8000488281</ele>
        <time>2014-01-11T08:30:41.000Z</time>
      </trkpt>
      <trkpt lat="45.18245" lon="6.35422">
        <ele>2059</ele>
        <time>2014-01-11T08:30:42.000Z</time>
      </trkpt>
      <trkpt lat="45.18244" lon="6.35422">
        <ele>2059</ele>
        <time>2014-01-11T08:30:43.000Z</time>
      </trkpt>
      <trkpt lat="45.18244" lon="6.35423">
        <ele>2059.1999511719</ele>
        <time>2014-01-11T08:30:44.000Z</time>
      </trkpt>
      <trkpt lat="45.18244" lon="6.35424">
        <ele>2059.3999023438</ele>
        <time>2014-01-11T08:30:45.000Z</time>
      </trkpt>
      <trkpt lat="45.18244" lon="6.35425">
        <ele>2059.6000976562</ele>
        <time>2014-01-11T08:30:46.000Z</time>
      </trkpt>
      <trkpt lat="45.18244" lon="6.35425">
        <ele>2059.8000488281</ele>
        <time>2014-01-11T08:30:47.000Z</time>
      </trkpt>
      <trkpt lat="45.18244" lon="6.35427">
        <ele>2060</ele>
        <time>2014-01-11T08:30:48.000Z</time>
      </trkpt>
      <trkpt lat="45.18244" lon="6.35426">
        <ele>2060.1999511719</ele>
        <time>2014-01-11T08:30:49.000Z</time>
      </trkpt>
      <trkpt lat="45.18244" lon="6.35427">
        <ele>2060.6000976562</ele>
        <time>2014-01-11T08:30:50.000Z</time>
      </trkpt>
      <trkpt lat="45.18244" lon="6.35428">
        <ele>2060.6000976562</ele>
        <time>2014-01-11T08:30:51.000Z</time>
      </trkpt>
      <trkpt lat="45.18244" lon="6.35428">
        <ele>2060.8000488281</ele>
        <time>2014-01-11T08:30:52.000Z</time>
      </trkpt>
      <trkpt lat="45.18244" lon="6.35428">
        <ele>2061</ele>
        <time>2014-01-11T08:30:53.000Z</time>
      </trkpt>
      <trkpt lat="45.18244" lon="6.35429">
        <ele>2061.1999511719</ele>
        <time>2014-01-11T08:30:54.000Z</time>
      </trkpt>
      <trkpt lat="45.18244" lon="6.35429">
        <ele>2061.3999023438</ele>
        <time>2014-01-11T08:30:55.000Z</time>
      </trkpt>
      <trkpt lat="45.18244" lon="6.3543">
        <ele>2061.6000976562</ele>
        <time>2014-01-11T08:30:56.000Z</time>
      </trkpt>
      <trkpt lat="45.18244" lon="6.35431">
        <ele>2061.8000488281</ele>
        <time>2014-01-11T08:30:57.000Z</time>
      </trkpt>
      <trkpt lat="45.18244" lon="6.35431">
        <ele>2062.1999511719</ele>
        <time>2014-01-11T08:30:58.000Z</time>
      </trkpt>
      <trkpt lat="45.18244" lon="6.35431">
        <ele>2062.1999511719</ele>
        <time>2014-01-11T08:30:59.000Z</time>
      </trkpt>
      <trkpt lat="45.18244" lon="6.35432">
        <ele>2062.3999023438</ele>
        <time>2014-01-11T08:31:00.000Z</time>
      </trkpt>
      <trkpt lat="45.18244" lon="6.35432">
        <ele>2062.6000976562</ele>
        <time>2014-01-11T08:31:01.000Z</time>
      </trkpt>
      <trkpt lat="45.18244" lon="6.35433">
        <ele>2062.6000976562</ele>
        <time>2014-01-11T08:31:02.000Z</time>
      </trkpt>
      <trkpt lat="45.18245" lon="6.35434">
        <ele>2062.8000488281</ele>
        <time>2014-01-11T08:31:03.000Z</time>
      </trkpt>
      <trkpt lat="45.18245" lon="6.35435">
        <ele>2063</ele>
        <time>2014-01-11T08:31:04.000Z</time>
      </trkpt>
      <trkpt lat="45.18246" lon="6.35436">
        <ele>2063.3999023438</ele>
        <time>2014-01-11T08:31:05.000Z</time>
      </trkpt>
      <trkpt lat="45.18246" lon="6.35437">
        <ele>2063.6000976562</ele>
        <time>2014-01-11T08:31:06.000Z</time>
      </trkpt>
      <trkpt lat="45.18246" lon="6.35438">
        <ele>2063.8000488281</ele>
        <time>2014-01-11T08:31:07.000Z</time>
      </trkpt>
      <trkpt lat="45.18246" lon="6.35438">
        <ele>2064</ele>
        <time>2014-01-11T08:31:08.000Z</time>
      </trkpt>
      <trkpt lat="45.18247" lon="6.35438">
        <ele>2064.1999511719</ele>
        <time>2014-01-11T08:31:09.000Z</time>
      </trkpt>
      <trkpt lat="45.18247" lon="6.35438">
        <ele>2064.3999023438</ele>
        <time>2014-01-11T08:31:10.000Z</time>
      </trkpt>
      <trkpt lat="45.18247" lon="6.35438">
        <ele>2064.6000976562</ele>
        <time>2014-01-11T08:31:11.000Z</time>
      </trkpt>
      <trkpt lat="45.18247" lon="6.35438">
        <ele>2064.6000976562</ele>
        <time>2014-01-11T08:31:12.000Z</time>
      </trkpt>
      <trkpt lat="45.18247" lon="6.35439">
        <ele>2064.8000488281</ele>
        <time>2014-01-11T08:31:13.000Z</time>
      </trkpt>
      <trkpt lat="45.18247" lon="6.35439">
        <ele>2065</ele>
        <time>2014-01-11T08:31:14.000Z</time>
      </trkpt>
      <trkpt lat="45.18247" lon="6.3544">
        <ele>2065</ele>
        <time>2014-01-11T08:31:15.000Z</time>
      </trkpt>
      <trkpt lat="45.18247" lon="6.35441">
        <ele>2065.1999511719</ele>
        <time>2014-01-11T08:31:16.000Z</time>
      </trkpt>
      <trkpt lat="45.18247" lon="6.35441">
        <ele>2065.1999511719</ele>
        <time>2014-01-11T08:31:17.000Z</time>
      </trkpt>
      <trkpt lat="45.18247" lon="6.35441">
        <ele>2065.3999023438</ele>
        <time>2014-01-11T08:31:18.000Z</time>
      </trkpt>
      <trkpt lat="45.18247" lon="6.35442">
        <ele>2065.6000976562</ele>
        <time>2014-01-11T08:31:19.000Z</time>
      </trkpt>
      <trkpt lat="45.18247" lon="6.35442">
        <ele>2065.8000488281</ele>
        <time>2014-01-11T08:31:20.000Z</time>
      </trkpt>
      <trkpt lat="45.18247" lon="6.35443">
        <ele>2066</ele>
        <time>2014-01-11T08:31:21.000Z</time>
      </trkpt>
      <trkpt lat="45.18247" lon="6.35443">
        <ele>2066</ele>
        <time>2014-01-11T08:31:22.000Z</time>
      </trkpt>
      <trkpt lat="45.18247" lon="6.35444">
        <ele>2066.1999511719</ele>
        <time>2014-01-11T08:31:23.000Z</time>
      </trkpt>
      <trkpt lat="45.18247" lon="6.35444">
        <ele>2066.3999023438</ele>
        <time>2014-01-11T08:31:24.000Z</time>
      </trkpt>
      <trkpt lat="45.18247" lon="6.35445">
        <ele>2066.6000976562</ele>
        <time>2014-01-11T08:31:25.000Z</time>
      </trkpt>
      <trkpt lat="45.18247" lon="6.35445">
        <ele>2066.8000488281</ele>
        <time>2014-01-11T08:31:26.000Z</time>
      </trkpt>
      <trkpt lat="45.18247" lon="6.35445">
        <ele>2067</ele>
        <time>2014-01-11T08:31:27.000Z</time>
      </trkpt>
      <trkpt lat="45.18247" lon="6.35445">
        <ele>2067.1999511719</ele>
        <time>2014-01-11T08:31:28.000Z</time>
      </trkpt>
      <trkpt lat="45.18247" lon="6.35445">
        <ele>2067.3999023438</ele>
        <time>2014-01-11T08:31:29.000Z</time>
      </trkpt>
      <trkpt lat="45.18247" lon="6.35445">
        <ele>2067.6000976562</ele>
        <time>2014-01-11T08:31:30.000Z</time>
      </trkpt>
      <trkpt lat="45.18247" lon="6.35445">
        <ele>2067.6000976562</ele>
        <time>2014-01-11T08:31:31.000Z</time>
      </trkpt>
      <trkpt lat="45.18247" lon="6.35445">
        <ele>2067.6000976562</ele>
        <time>2014-01-11T08:31:32.000Z</time>
      </trkpt>
      <trkpt lat="45.18247" lon="6.35446">
        <ele>2067.6000976562</ele>
        <time>2014-01-11T08:31:33.000Z</time>
      </trkpt>
      <trkpt lat="45.18247" lon="6.35446">
        <ele>2067.6000976562</ele>
        <time>2014-01-11T08:31:34.000Z</time>
      </trkpt>
      <trkpt lat="45.18246" lon="6.35447">
        <ele>2067.6000976562</ele>
        <time>2014-01-11T08:31:35.000Z</time>
      </trkpt>
      <trkpt lat="45.18246" lon="6.35447">
        <ele>2067.8000488281</ele>
        <time>2014-01-11T08:31:36.000Z</time>
      </trkpt>
      <trkpt lat="45.18246" lon="6.35447">
        <ele>2067.8000488281</ele>
        <time>2014-01-11T08:31:37.000Z</time>
      </trkpt>
      <trkpt lat="45.18245" lon="6.35448">
        <ele>2068.1999511719</ele>
        <time>2014-01-11T08:31:38.000Z</time>
      </trkpt>
      <trkpt lat="45.18245" lon="6.35448">
        <ele>2068.3999023438</ele>
        <time>2014-01-11T08:31:39.000Z</time>
      </trkpt>
      <trkpt lat="45.18244" lon="6.35449">
        <ele>2068.8000488281</ele>
        <time>2014-01-11T08:31:40.000Z</time>
      </trkpt>
      <trkpt lat="45.18244" lon="6.35449">
        <ele>2069</ele>
        <time>2014-01-11T08:31:41.000Z</time>
      </trkpt>
      <trkpt lat="45.18242" lon="6.35451">
        <ele>2069.1999511719</ele>
        <time>2014-01-11T08:31:42.000Z</time>
      </trkpt>
      <trkpt lat="45.18243" lon="6.35451">
        <ele>2069.1999511719</ele>
        <time>2014-01-11T08:31:43.000Z</time>
      </trkpt>
      <trkpt lat="45.18242" lon="6.35452">
        <ele>2069.3999023438</ele>
        <time>2014-01-11T08:31:44.000Z</time>
      </trkpt>
      <trkpt lat="45.18242" lon="6.35452">
        <ele>2069.6000976562</ele>
        <time>2014-01-11T08:31:45.000Z</time>
      </trkpt>
      <trkpt lat="45.18242" lon="6.35452">
        <ele>2069.8000488281</ele>
        <time>2014-01-11T08:31:46.000Z</time>
      </trkpt>
      <trkpt lat="45.18242" lon="6.35452">
        <ele>2070</ele>
        <time>2014-01-11T08:31:47.000Z</time>
      </trkpt>
      <trkpt lat="45.18241" lon="6.35453">
        <ele>2070.1999511719</ele>
        <time>2014-01-11T08:31:48.000Z</time>
      </trkpt>
      <trkpt lat="45.18241" lon="6.35453">
        <ele>2070.3999023438</ele>
        <time>2014-01-11T08:31:49.000Z</time>
      </trkpt>
      <trkpt lat="45.18241" lon="6.35453">
        <ele>2070.6000976562</ele>
        <time>2014-01-11T08:31:50.000Z</time>
      </trkpt>
      <trkpt lat="45.18241" lon="6.35454">
        <ele>2070.8000488281</ele>
        <time>2014-01-11T08:31:51.000Z</time>
      </trkpt>
      <trkpt lat="45.1824" lon="6.35454">
        <ele>2071</ele>
        <time>2014-01-11T08:31:52.000Z</time>
      </trkpt>
      <trkpt lat="45.1824" lon="6.35454">
        <ele>2071.1999511719</ele>
        <time>2014-01-11T08:31:53.000Z</time>
      </trkpt>
      <trkpt lat="45.1824" lon="6.35455">
        <ele>2071.3999023438</ele>
        <time>2014-01-11T08:31:54.000Z</time>
      </trkpt>
      <trkpt lat="45.1824" lon="6.35455">
        <ele>2071.6000976562</ele>
        <time>2014-01-11T08:31:55.000Z</time>
      </trkpt>
      <trkpt lat="45.1824" lon="6.35456">
        <ele>2071.8000488281</ele>
        <time>2014-01-11T08:31:56.000Z</time>
      </trkpt>
      <trkpt lat="45.18239" lon="6.35457">
        <ele>2072</ele>
        <time>2014-01-11T08:31:57.000Z</time>
      </trkpt>
      <trkpt lat="45.18239" lon="6.35457">
        <ele>2072.1999511719</ele>
        <time>2014-01-11T08:31:58.000Z</time>
      </trkpt>
      <trkpt lat="45.18239" lon="6.35458">
        <ele>2072.6000976562</ele>
        <time>2014-01-11T08:31:59.000Z</time>
      </trkpt>
      <trkpt lat="45.18239" lon="6.35459">
        <ele>2072.6000976562</ele>
        <time>2014-01-11T08:32:00.000Z</time>
      </trkpt>
      <trkpt lat="45.18239" lon="6.35459">
        <ele>2072.8000488281</ele>
        <time>2014-01-11T08:32:01.000Z</time>
      </trkpt>
      <trkpt lat="45.18239" lon="6.35459">
        <ele>2073.1999511719</ele>
        <time>2014-01-11T08:32:02.000Z</time>
      </trkpt>
      <trkpt lat="45.18239" lon="6.3546">
        <ele>2073.3999023438</ele>
        <time>2014-01-11T08:32:03.000Z</time>
      </trkpt>
      <trkpt lat="45.18239" lon="6.35461">
        <ele>2073.6000976562</ele>
        <time>2014-01-11T08:32:04.000Z</time>
      </trkpt>
      <trkpt lat="45.18239" lon="6.35461">
        <ele>2073.8000488281</ele>
        <time>2014-01-11T08:32:05.000Z</time>
      </trkpt>
      <trkpt lat="45.18239" lon="6.35462">
        <ele>2074</ele>
        <time>2014-01-11T08:32:06.000Z</time>
      </trkpt>
      <trkpt lat="45.18239" lon="6.35462">
        <ele>2074.1999511719</ele>
        <time>2014-01-11T08:32:07.000Z</time>
      </trkpt>
      <trkpt lat="45.18239" lon="6.35463">
        <ele>2074.3999023438</ele>
        <time>2014-01-11T08:32:08.000Z</time>
      </trkpt>
      <trkpt lat="45.18239" lon="6.35463">
        <ele>2074.6000976562</ele>
        <time>2014-01-11T08:32:09.000Z</time>
      </trkpt>
      <trkpt lat="45.18239" lon="6.35463">
        <ele>2074.8000488281</ele>
        <time>2014-01-11T08:32:10.000Z</time>
      </trkpt>
      <trkpt lat="45.18239" lon="6.35464">
        <ele>2074.8000488281</ele>
        <time>2014-01-11T08:32:11.000Z</time>
      </trkpt>
      <trkpt lat="45.18239" lon="6.35464">
        <ele>2075</ele>
        <time>2014-01-11T08:32:12.000Z</time>
      </trkpt>
      <trkpt lat="45.18239" lon="6.35465">
        <ele>2075.1999511719</ele>
        <time>2014-01-11T08:32:13.000Z</time>
      </trkpt>
      <trkpt lat="45.18239" lon="6.35465">
        <ele>2075.3999023438</ele>
        <time>2014-01-11T08:32:14.000Z</time>
      </trkpt>
      <trkpt lat="45.18239" lon="6.35465">
        <ele>2075.3999023438</ele>
        <time>2014-01-11T08:32:15.000Z</time>
      </trkpt>
      <trkpt lat="45.18239" lon="6.35465">
        <ele>2075.6000976562</ele>
        <time>2014-01-11T08:32:16.000Z</time>
      </trkpt>
      <trkpt lat="45.18239" lon="6.35465">
        <ele>2075.8000488281</ele>
        <time>2014-01-11T08:32:17.000Z</time>
      </trkpt>
      <trkpt lat="45.18239" lon="6.35465">
        <ele>2075.8000488281</ele>
        <time>2014-01-11T08:32:18.000Z</time>
      </trkpt>
      <trkpt lat="45.18239" lon="6.35465">
        <ele>2076</ele>
        <time>2014-01-11T08:32:19.000Z</time>
      </trkpt>
      <trkpt lat="45.18239" lon="6.35466">
        <ele>2076.1999511719</ele>
        <time>2014-01-11T08:32:20.000Z</time>
      </trkpt>
      <trkpt lat="45.18239" lon="6.35467">
        <ele>2076.3999023438</ele>
        <time>2014-01-11T08:32:21.000Z</time>
      </trkpt>
      <trkpt lat="45.18239" lon="6.35468">
        <ele>2076.3999023438</ele>
        <time>2014-01-11T08:32:22.000Z</time>
      </trkpt>
      <trkpt lat="45.18239" lon="6.35469">
        <ele>2076.6000976562</ele>
        <time>2014-01-11T08:32:23.000Z</time>
      </trkpt>
      <trkpt lat="45.18239" lon="6.3547">
        <ele>2076.8000488281</ele>
        <time>2014-01-11T08:32:24.000Z</time>
      </trkpt>
      <trkpt lat="45.18239" lon="6.35471">
        <ele>2077</ele>
        <time>2014-01-11T08:32:25.000Z</time>
      </trkpt>
      <trkpt lat="45.18239" lon="6.35471">
        <ele>2077.1999511719</ele>
        <time>2014-01-11T08:32:26.000Z</time>
      </trkpt>
      <trkpt lat="45.18239" lon="6.35471">
        <ele>2077.3999023438</ele>
        <time>2014-01-11T08:32:27.000Z</time>
      </trkpt>
      <trkpt lat="45.18239" lon="6.35471">
        <ele>2077.6000976562</ele>
        <time>2014-01-11T08:32:28.000Z</time>
      </trkpt>
      <trkpt lat="45.18239" lon="6.35473">
        <ele>2077.8000488281</ele>
        <time>2014-01-11T08:32:29.000Z</time>
      </trkpt>
      <trkpt lat="45.18239" lon="6.35473">
        <ele>2078</ele>
        <time>2014-01-11T08:32:30.000Z</time>
      </trkpt>
      <trkpt lat="45.18239" lon="6.35474">
        <ele>2078.1999511719</ele>
        <time>2014-01-11T08:32:31.000Z</time>
      </trkpt>
      <trkpt lat="45.18239" lon="6.35475">
        <ele>2078.3999023438</ele>
        <time>2014-01-11T08:32:32.000Z</time>
      </trkpt>
      <trkpt lat="45.18239" lon="6.35475">
        <ele>2078.6000976562</ele>
        <time>2014-01-11T08:32:33.000Z</time>
      </trkpt>
      <trkpt lat="45.18238" lon="6.35475">
        <ele>2078.8000488281</ele>
        <time>2014-01-11T08:32:34.000Z</time>
      </trkpt>
      <trkpt lat="45.18238" lon="6.35475">
        <ele>2079</ele>
        <time>2014-01-11T08:32:35.000Z</time>
      </trkpt>
      <trkpt lat="45.18238" lon="6.35476">
        <ele>2079.1999511719</ele>
        <time>2014-01-11T08:32:36.000Z</time>
      </trkpt>
      <trkpt lat="45.18238" lon="6.35477">
        <ele>2079.3999023438</ele>
        <time>2014-01-11T08:32:37.000Z</time>
      </trkpt>
      <trkpt lat="45.18238" lon="6.35477">
        <ele>2079.6000976562</ele>
        <time>2014-01-11T08:32:38.000Z</time>
      </trkpt>
      <trkpt lat="45.18237" lon="6.35478">
        <ele>2079.8000488281</ele>
        <time>2014-01-11T08:32:39.000Z</time>
      </trkpt>
      <trkpt lat="45.18237" lon="6.35478">
        <ele>2080</ele>
        <time>2014-01-11T08:32:40.000Z</time>
      </trkpt>
      <trkpt lat="45.18237" lon="6.35479">
        <ele>2080.1999511719</ele>
        <time>2014-01-11T08:32:41.000Z</time>
      </trkpt>
      <trkpt lat="45.18237" lon="6.3548">
        <ele>2080.3999023438</ele>
        <time>2014-01-11T08:32:42.000Z</time>
      </trkpt>
      <trkpt lat="45.18237" lon="6.3548">
        <ele>2080.3999023438</ele>
        <time>2014-01-11T08:32:43.000Z</time>
      </trkpt>
      <trkpt lat="45.18237" lon="6.35481">
        <ele>2080.6000976562</ele>
        <time>2014-01-11T08:32:44.000Z</time>
      </trkpt>
      <trkpt lat="45.18237" lon="6.35482">
        <ele>2080.8000488281</ele>
        <time>2014-01-11T08:32:45.000Z</time>
      </trkpt>
      <trkpt lat="45.18237" lon="6.35482">
        <ele>2081</ele>
        <time>2014-01-11T08:32:46.000Z</time>
      </trkpt>
      <trkpt lat="45.18237" lon="6.35483">
        <ele>2081</ele>
        <time>2014-01-11T08:32:47.000Z</time>
      </trkpt>
      <trkpt lat="45.18238" lon="6.35484">
        <ele>2081.3999023438</ele>
        <time>2014-01-11T08:32:48.000Z</time>
      </trkpt>
      <trkpt lat="45.18238" lon="6.35484">
        <ele>2081.6000976562</ele>
        <time>2014-01-11T08:32:49.000Z</time>
      </trkpt>
      <trkpt lat="45.18238" lon="6.35484">
        <ele>2082</ele>
        <time>2014-01-11T08:32:50.000Z</time>
      </trkpt>
      <trkpt lat="45.18238" lon="6.35484">
        <ele>2082.3999023438</ele>
        <time>2014-01-11T08:32:51.000Z</time>
      </trkpt>
      <trkpt lat="45.18238" lon="6.35484">
        <ele>2082.6000976562</ele>
        <time>2014-01-11T08:32:52.000Z</time>
      </trkpt>
      <trkpt lat="45.18238" lon="6.35484">
        <ele>2082.6000976562</ele>
        <time>2014-01-11T08:32:53.000Z</time>
      </trkpt>
      <trkpt lat="45.18238" lon="6.35484">
        <ele>2082.6000976562</ele>
        <time>2014-01-11T08:32:54.000Z</time>
      </trkpt>
      <trkpt lat="45.18238" lon="6.35485">
        <ele>2082.6000976562</ele>
        <time>2014-01-11T08:32:55.000Z</time>
      </trkpt>
      <trkpt lat="45.18238" lon="6.35485">
        <ele>2082.6000976562</ele>
        <time>2014-01-11T08:32:56.000Z</time>
      </trkpt>
      <trkpt lat="45.18238" lon="6.35486">
        <ele>2082.8000488281</ele>
        <time>2014-01-11T08:32:58.000Z</time>
      </trkpt>
      <trkpt lat="45.18238" lon="6.35486">
        <ele>2082.8000488281</ele>
        <time>2014-01-11T08:32:59.000Z</time>
      </trkpt>
      <trkpt lat="45.18239" lon="6.35487">
        <ele>2083</ele>
        <time>2014-01-11T08:33:00.000Z</time>
      </trkpt>
      <trkpt lat="45.18239" lon="6.35487">
        <ele>2083.1999511719</ele>
        <time>2014-01-11T08:33:01.000Z</time>
      </trkpt>
      <trkpt lat="45.18239" lon="6.35488">
        <ele>2083.3999023438</ele>
        <time>2014-01-11T08:33:02.000Z</time>
      </trkpt>
      <trkpt lat="45.18239" lon="6.35489">
        <ele>2083.6000976562</ele>
        <time>2014-01-11T08:33:03.000Z</time>
      </trkpt>
      <trkpt lat="45.18239" lon="6.3549">
        <ele>2083.8000488281</ele>
        <time>2014-01-11T08:33:04.000Z</time>
      </trkpt>
      <trkpt lat="45.18239" lon="6.35491">
        <ele>2084</ele>
        <time>2014-01-11T08:33:05.000Z</time>
      </trkpt>
      <trkpt lat="45.18239" lon="6.35492">
        <ele>2084.1999511719</ele>
        <time>2014-01-11T08:33:06.000Z</time>
      </trkpt>
      <trkpt lat="45.1824" lon="6.35492">
        <ele>2084.3999023438</ele>
        <time>2014-01-11T08:33:07.000Z</time>
      </trkpt>
      <trkpt lat="45.1824" lon="6.35493">
        <ele>2084.8000488281</ele>
        <time>2014-01-11T08:33:08.000Z</time>
      </trkpt>
      <trkpt lat="45.1824" lon="6.35494">
        <ele>2085</ele>
        <time>2014-01-11T08:33:09.000Z</time>
      </trkpt>
      <trkpt lat="45.1824" lon="6.35494">
        <ele>2085.1999511719</ele>
        <time>2014-01-11T08:33:10.000Z</time>
      </trkpt>
      <trkpt lat="45.18241" lon="6.35494">
        <ele>2085.3999023438</ele>
        <time>2014-01-11T08:33:11.000Z</time>
      </trkpt>
      <trkpt lat="45.18241" lon="6.35494">
        <ele>2085.6000976562</ele>
        <time>2014-01-11T08:33:12.000Z</time>
      </trkpt>
      <trkpt lat="45.18242" lon="6.35495">
        <ele>2085.8000488281</ele>
        <time>2014-01-11T08:33:13.000Z</time>
      </trkpt>
      <trkpt lat="45.18242" lon="6.35495">
        <ele>2086.3999023438</ele>
        <time>2014-01-11T08:33:14.000Z</time>
      </trkpt>
      <trkpt lat="45.18242" lon="6.35496">
        <ele>2086.6000976562</ele>
        <time>2014-01-11T08:33:15.000Z</time>
      </trkpt>
      <trkpt lat="45.18243" lon="6.35496">
        <ele>2086.8000488281</ele>
        <time>2014-01-11T08:33:16.000Z</time>
      </trkpt>
      <trkpt lat="45.18243" lon="6.35497">
        <ele>2087.1999511719</ele>
        <time>2014-01-11T08:33:17.000Z</time>
      </trkpt>
      <trkpt lat="45.18243" lon="6.35497">
        <ele>2087.3999023438</ele>
        <time>2014-01-11T08:33:18.000Z</time>
      </trkpt>
      <trkpt lat="45.18243" lon="6.35497">
        <ele>2087.3999023438</ele>
        <time>2014-01-11T08:33:19.000Z</time>
      </trkpt>
      <trkpt lat="45.18244" lon="6.35497">
        <ele>2087.6000976562</ele>
        <time>2014-01-11T08:33:20.000Z</time>
      </trkpt>
      <trkpt lat="45.18245" lon="6.35497">
        <ele>2087.8000488281</ele>
        <time>2014-01-11T08:33:21.000Z</time>
      </trkpt>
      <trkpt lat="45.18245" lon="6.35498">
        <ele>2088</ele>
        <time>2014-01-11T08:33:22.000Z</time>
      </trkpt>
      <trkpt lat="45.18246" lon="6.35499">
        <ele>2088.3999023438</ele>
        <time>2014-01-11T08:33:23.000Z</time>
      </trkpt>
      <trkpt lat="45.18246" lon="6.355">
        <ele>2088.6000976562</ele>
        <time>2014-01-11T08:33:24.000Z</time>
      </trkpt>
      <trkpt lat="45.18245" lon="6.355">
        <ele>2088.8000488281</ele>
        <time>2014-01-11T08:33:25.000Z</time>
      </trkpt>
      <trkpt lat="45.18245" lon="6.355">
        <ele>2089</ele>
        <time>2014-01-11T08:33:26.000Z</time>
      </trkpt>
      <trkpt lat="45.18245" lon="6.35502">
        <ele>2089.1999511719</ele>
        <time>2014-01-11T08:33:27.000Z</time>
      </trkpt>
      <trkpt lat="45.18245" lon="6.35502">
        <ele>2089.3999023438</ele>
        <time>2014-01-11T08:33:28.000Z</time>
      </trkpt>
      <trkpt lat="45.18245" lon="6.35504">
        <ele>2089.6000976562</ele>
        <time>2014-01-11T08:33:29.000Z</time>
      </trkpt>
      <trkpt lat="45.18245" lon="6.35506">
        <ele>2089.8000488281</ele>
        <time>2014-01-11T08:33:30.000Z</time>
      </trkpt>
      <trkpt lat="45.18244" lon="6.35506">
        <ele>2090</ele>
        <time>2014-01-11T08:33:31.000Z</time>
      </trkpt>
      <trkpt lat="45.18244" lon="6.35508">
        <ele>2090.1999511719</ele>
        <time>2014-01-11T08:33:32.000Z</time>
      </trkpt>
      <trkpt lat="45.18244" lon="6.35508">
        <ele>2090.3999023438</ele>
        <time>2014-01-11T08:33:33.000Z</time>
      </trkpt>
      <trkpt lat="45.18244" lon="6.3551">
        <ele>2090.6000976562</ele>
        <time>2014-01-11T08:33:34.000Z</time>
      </trkpt>
      <trkpt lat="45.18244" lon="6.3551">
        <ele>2090.8000488281</ele>
        <time>2014-01-11T08:33:35.000Z</time>
      </trkpt>
      <trkpt lat="45.18244" lon="6.35511">
        <ele>2091</ele>
        <time>2014-01-11T08:33:36.000Z</time>
      </trkpt>
      <trkpt lat="45.18244" lon="6.35511">
        <ele>2091</ele>
        <time>2014-01-11T08:33:37.000Z</time>
      </trkpt>
      <trkpt lat="45.18244" lon="6.35511">
        <ele>2091.3999023438</ele>
        <time>2014-01-11T08:33:38.000Z</time>
      </trkpt>
      <trkpt lat="45.18244" lon="6.35511">
        <ele>2091.6000976562</ele>
        <time>2014-01-11T08:33:39.000Z</time>
      </trkpt>
      <trkpt lat="45.18244" lon="6.35511">
        <ele>2091.8000488281</ele>
        <time>2014-01-11T08:33:40.000Z</time>
      </trkpt>
      <trkpt lat="45.18244" lon="6.35512">
        <ele>2092</ele>
        <time>2014-01-11T08:33:41.000Z</time>
      </trkpt>
      <trkpt lat="45.18244" lon="6.35512">
        <ele>2092.1999511719</ele>
        <time>2014-01-11T08:33:42.000Z</time>
      </trkpt>
      <trkpt lat="45.18245" lon="6.35513">
        <ele>2092.3999023438</ele>
        <time>2014-01-11T08:33:43.000Z</time>
      </trkpt>
      <trkpt lat="45.18245" lon="6.35514">
        <ele>2092.3999023438</ele>
        <time>2014-01-11T08:33:44.000Z</time>
      </trkpt>
      <trkpt lat="45.18246" lon="6.35514">
        <ele>2092.6000976562</ele>
        <time>2014-01-11T08:33:45.000Z</time>
      </trkpt>
      <trkpt lat="45.18246" lon="6.35515">
        <ele>2092.8000488281</ele>
        <time>2014-01-11T08:33:46.000Z</time>
      </trkpt>
      <trkpt lat="45.18246" lon="6.35516">
        <ele>2093</ele>
        <time>2014-01-11T08:33:47.000Z</time>
      </trkpt>
      <trkpt lat="45.18246" lon="6.35516">
        <ele>2093.1999511719</ele>
        <time>2014-01-11T08:33:48.000Z</time>
      </trkpt>
      <trkpt lat="45.18246" lon="6.35516">
        <ele>2093.3999023438</ele>
        <time>2014-01-11T08:33:49.000Z</time>
      </trkpt>
      <trkpt lat="45.18246" lon="6.35517">
        <ele>2093.8000488281</ele>
        <time>2014-01-11T08:33:50.000Z</time>
      </trkpt>
      <trkpt lat="45.18246" lon="6.35517">
        <ele>2094</ele>
        <time>2014-01-11T08:33:51.000Z</time>
      </trkpt>
      <trkpt lat="45.18247" lon="6.35518">
        <ele>2094.1999511719</ele>
        <time>2014-01-11T08:33:52.000Z</time>
      </trkpt>
      <trkpt lat="45.18247" lon="6.35519">
        <ele>2094.3999023438</ele>
        <time>2014-01-11T08:33:53.000Z</time>
      </trkpt>
      <trkpt lat="45.18247" lon="6.35519">
        <ele>2094.6000976562</ele>
        <time>2014-01-11T08:33:54.000Z</time>
      </trkpt>
      <trkpt lat="45.18247" lon="6.35519">
        <ele>2094.8000488281</ele>
        <time>2014-01-11T08:33:55.000Z</time>
      </trkpt>
      <trkpt lat="45.18247" lon="6.3552">
        <ele>2095</ele>
        <time>2014-01-11T08:33:56.000Z</time>
      </trkpt>
      <trkpt lat="45.18247" lon="6.3552">
        <ele>2095.1999511719</ele>
        <time>2014-01-11T08:33:57.000Z</time>
      </trkpt>
      <trkpt lat="45.18246" lon="6.35521">
        <ele>2095.3999023438</ele>
        <time>2014-01-11T08:33:58.000Z</time>
      </trkpt>
      <trkpt lat="45.18246" lon="6.35521">
        <ele>2095.6000976562</ele>
        <time>2014-01-11T08:33:59.000Z</time>
      </trkpt>
      <trkpt lat="45.18247" lon="6.35522">
        <ele>2095.8000488281</ele>
        <time>2014-01-11T08:34:00.000Z</time>
      </trkpt>
      <trkpt lat="45.18247" lon="6.35524">
        <ele>2096</ele>
        <time>2014-01-11T08:34:01.000Z</time>
      </trkpt>
      <trkpt lat="45.18247" lon="6.35524">
        <ele>2096.6000976562</ele>
        <time>2014-01-11T08:34:02.000Z</time>
      </trkpt>
      <trkpt lat="45.18247" lon="6.35525">
        <ele>2096.8000488281</ele>
        <time>2014-01-11T08:34:03.000Z</time>
      </trkpt>
      <trkpt lat="45.18247" lon="6.35525">
        <ele>2097</ele>
        <time>2014-01-11T08:34:04.000Z</time>
      </trkpt>
      <trkpt lat="45.18247" lon="6.35526">
        <ele>2097.1999511719</ele>
        <time>2014-01-11T08:34:05.000Z</time>
      </trkpt>
      <trkpt lat="45.18246" lon="6.35528">
        <ele>2097.3999023438</ele>
        <time>2014-01-11T08:34:06.000Z</time>
      </trkpt>
      <trkpt lat="45.18247" lon="6.35529">
        <ele>2097.6000976562</ele>
        <time>2014-01-11T08:34:07.000Z</time>
      </trkpt>
      <trkpt lat="45.18247" lon="6.3553">
        <ele>2097.8000488281</ele>
        <time>2014-01-11T08:34:08.000Z</time>
      </trkpt>
      <trkpt lat="45.18247" lon="6.3553">
        <ele>2098</ele>
        <time>2014-01-11T08:34:09.000Z</time>
      </trkpt>
      <trkpt lat="45.18247" lon="6.35531">
        <ele>2098.1999511719</ele>
        <time>2014-01-11T08:34:10.000Z</time>
      </trkpt>
      <trkpt lat="45.18247" lon="6.35531">
        <ele>2098.3999023438</ele>
        <time>2014-01-11T08:34:11.000Z</time>
      </trkpt>
      <trkpt lat="45.18247" lon="6.35531">
        <ele>2098.6000976562</ele>
        <time>2014-01-11T08:34:12.000Z</time>
      </trkpt>
      <trkpt lat="45.18248" lon="6.35532">
        <ele>2099</ele>
        <time>2014-01-11T08:34:13.000Z</time>
      </trkpt>
      <trkpt lat="45.18248" lon="6.35533">
        <ele>2099.1999511719</ele>
        <time>2014-01-11T08:34:14.000Z</time>
      </trkpt>
      <trkpt lat="45.18249" lon="6.35534">
        <ele>2099.1999511719</ele>
        <time>2014-01-11T08:34:15.000Z</time>
      </trkpt>
      <trkpt lat="45.1825" lon="6.35536">
        <ele>2099.3999023438</ele>
        <time>2014-01-11T08:34:16.000Z</time>
      </trkpt>
      <trkpt lat="45.1825" lon="6.35536">
        <ele>2099.6000976562</ele>
        <time>2014-01-11T08:34:17.000Z</time>
      </trkpt>
      <trkpt lat="45.18251" lon="6.35537">
        <ele>2099.8000488281</ele>
        <time>2014-01-11T08:34:18.000Z</time>
      </trkpt>
      <trkpt lat="45.1825" lon="6.35538">
        <ele>2100</ele>
        <time>2014-01-11T08:34:19.000Z</time>
      </trkpt>
      <trkpt lat="45.1825" lon="6.35538">
        <ele>2100.3999023438</ele>
        <time>2014-01-11T08:34:20.000Z</time>
      </trkpt>
      <trkpt lat="45.1825" lon="6.35539">
        <ele>2100.6000976562</ele>
        <time>2014-01-11T08:34:21.000Z</time>
      </trkpt>
      <trkpt lat="45.1825" lon="6.3554">
        <ele>2101</ele>
        <time>2014-01-11T08:34:22.000Z</time>
      </trkpt>
      <trkpt lat="45.1825" lon="6.3554">
        <ele>2101.1999511719</ele>
        <time>2014-01-11T08:34:23.000Z</time>
      </trkpt>
      <trkpt lat="45.1825" lon="6.3554">
        <ele>2101.3999023438</ele>
        <time>2014-01-11T08:34:24.000Z</time>
      </trkpt>
      <trkpt lat="45.1825" lon="6.35541">
        <ele>2101.6000976562</ele>
        <time>2014-01-11T08:34:25.000Z</time>
      </trkpt>
      <trkpt lat="45.1825" lon="6.35541">
        <ele>2101.8000488281</ele>
        <time>2014-01-11T08:34:26.000Z</time>
      </trkpt>
      <trkpt lat="45.1825" lon="6.35541">
        <ele>2102</ele>
        <time>2014-01-11T08:34:27.000Z</time>
      </trkpt>
      <trkpt lat="45.1825" lon="6.35542">
        <ele>2102.1999511719</ele>
        <time>2014-01-11T08:34:28.000Z</time>
      </trkpt>
      <trkpt lat="45.1825" lon="6.35542">
        <ele>2102.3999023438</ele>
        <time>2014-01-11T08:34:29.000Z</time>
      </trkpt>
      <trkpt lat="45.18249" lon="6.35542">
        <ele>2102.6000976562</ele>
        <time>2014-01-11T08:34:30.000Z</time>
      </trkpt>
      <trkpt lat="45.18249" lon="6.35543">
        <ele>2102.8000488281</ele>
        <time>2014-01-11T08:34:31.000Z</time>
      </trkpt>
      <trkpt lat="45.18248" lon="6.35543">
        <ele>2103.1999511719</ele>
        <time>2014-01-11T08:34:32.000Z</time>
      </trkpt>
      <trkpt lat="45.18248" lon="6.35543">
        <ele>2103.3999023438</ele>
        <time>2014-01-11T08:34:34.000Z</time>
      </trkpt>
      <trkpt lat="45.18248" lon="6.35543">
        <ele>2103.6000976562</ele>
        <time>2014-01-11T08:34:35.000Z</time>
      </trkpt>
      <trkpt lat="45.18247" lon="6.35545">
        <ele>2103.8000488281</ele>
        <time>2014-01-11T08:34:36.000Z</time>
      </trkpt>
      <trkpt lat="45.18247" lon="6.35545">
        <ele>2103.8000488281</ele>
        <time>2014-01-11T08:34:37.000Z</time>
      </trkpt>
      <trkpt lat="45.18247" lon="6.35546">
        <ele>2104</ele>
        <time>2014-01-11T08:34:38.000Z</time>
      </trkpt>
      <trkpt lat="45.18247" lon="6.35546">
        <ele>2104.3999023438</ele>
        <time>2014-01-11T08:34:39.000Z</time>
      </trkpt>
      <trkpt lat="45.18247" lon="6.35546">
        <ele>2104.6000976562</ele>
        <time>2014-01-11T08:34:40.000Z</time>
      </trkpt>
      <trkpt lat="45.18246" lon="6.35547">
        <ele>2104.6000976562</ele>
        <time>2014-01-11T08:34:41.000Z</time>
      </trkpt>
      <trkpt lat="45.18246" lon="6.35547">
        <ele>2104.8000488281</ele>
        <time>2014-01-11T08:34:42.000Z</time>
      </trkpt>
      <trkpt lat="45.18246" lon="6.35547">
        <ele>2105</ele>
        <time>2014-01-11T08:34:43.000Z</time>
      </trkpt>
      <trkpt lat="45.18246" lon="6.35547">
        <ele>2105.1999511719</ele>
        <time>2014-01-11T08:34:44.000Z</time>
      </trkpt>
      <trkpt lat="45.18246" lon="6.35548">
        <ele>2105.6000976562</ele>
        <time>2014-01-11T08:34:45.000Z</time>
      </trkpt>
      <trkpt lat="45.18246" lon="6.35548">
        <ele>2105.6000976562</ele>
        <time>2014-01-11T08:34:46.000Z</time>
      </trkpt>
      <trkpt lat="45.18246" lon="6.35549">
        <ele>2105.8000488281</ele>
        <time>2014-01-11T08:34:47.000Z</time>
      </trkpt>
      <trkpt lat="45.18245" lon="6.3555">
        <ele>2106</ele>
        <time>2014-01-11T08:34:48.000Z</time>
      </trkpt>
      <trkpt lat="45.18245" lon="6.3555">
        <ele>2106.1999511719</ele>
        <time>2014-01-11T08:34:49.000Z</time>
      </trkpt>
      <trkpt lat="45.18245" lon="6.35551">
        <ele>2106.6000976562</ele>
        <time>2014-01-11T08:34:50.000Z</time>
      </trkpt>
      <trkpt lat="45.18245" lon="6.35551">
        <ele>2106.8000488281</ele>
        <time>2014-01-11T08:34:51.000Z</time>
      </trkpt>
      <trkpt lat="45.18245" lon="6.35551">
        <ele>2107</ele>
        <time>2014-01-11T08:34:52.000Z</time>
      </trkpt>
      <trkpt lat="45.18245" lon="6.35551">
        <ele>2107.1999511719</ele>
        <time>2014-01-11T08:34:53.000Z</time>
      </trkpt>
      <trkpt lat="45.18245" lon="6.35551">
        <ele>2107.1999511719</ele>
        <time>2014-01-11T08:34:54.000Z</time>
      </trkpt>
      <trkpt lat="45.18245" lon="6.35552">
        <ele>2107.3999023438</ele>
        <time>2014-01-11T08:34:55.000Z</time>
      </trkpt>
      <trkpt lat="45.18245" lon="6.35552">
        <ele>2107.6000976562</ele>
        <time>2014-01-11T08:34:56.000Z</time>
      </trkpt>
      <trkpt lat="45.18244" lon="6.35553">
        <ele>2107.8000488281</ele>
        <time>2014-01-11T08:34:57.000Z</time>
      </trkpt>
      <trkpt lat="45.18244" lon="6.35554">
        <ele>2108</ele>
        <time>2014-01-11T08:34:58.000Z</time>
      </trkpt>
      <trkpt lat="45.18244" lon="6.35554">
        <ele>2108.1999511719</ele>
        <time>2014-01-11T08:34:59.000Z</time>
      </trkpt>
      <trkpt lat="45.18244" lon="6.35554">
        <ele>2108.1999511719</ele>
        <time>2014-01-11T08:35:00.000Z</time>
      </trkpt>
      <trkpt lat="45.18244" lon="6.35555">
        <ele>2108.3999023438</ele>
        <time>2014-01-11T08:35:01.000Z</time>
      </trkpt>
      <trkpt lat="45.18244" lon="6.35555">
        <ele>2108.6000976562</ele>
        <time>2014-01-11T08:35:02.000Z</time>
      </trkpt>
      <trkpt lat="45.18243" lon="6.35555">
        <ele>2108.6000976562</ele>
        <time>2014-01-11T08:35:03.000Z</time>
      </trkpt>
      <trkpt lat="45.18243" lon="6.35556">
        <ele>2108.8000488281</ele>
        <time>2014-01-11T08:35:04.000Z</time>
      </trkpt>
      <trkpt lat="45.18243" lon="6.35556">
        <ele>2109</ele>
        <time>2014-01-11T08:35:05.000Z</time>
      </trkpt>
      <trkpt lat="45.18243" lon="6.35556">
        <ele>2109.1999511719</ele>
        <time>2014-01-11T08:35:06.000Z</time>
      </trkpt>
      <trkpt lat="45.18243" lon="6.35557">
        <ele>2109.3999023438</ele>
        <time>2014-01-11T08:35:07.000Z</time>
      </trkpt>
      <trkpt lat="45.18242" lon="6.35558">
        <ele>2109.6000976562</ele>
        <time>2014-01-11T08:35:08.000Z</time>
      </trkpt>
      <trkpt lat="45.18242" lon="6.35559">
        <ele>2109.8000488281</ele>
        <time>2014-01-11T08:35:09.000Z</time>
      </trkpt>
      <trkpt lat="45.18241" lon="6.3556">
        <ele>2110</ele>
        <time>2014-01-11T08:35:10.000Z</time>
      </trkpt>
      <trkpt lat="45.18241" lon="6.3556">
        <ele>2110.1999511719</ele>
        <time>2014-01-11T08:35:11.000Z</time>
      </trkpt>
      <trkpt lat="45.1824" lon="6.35561">
        <ele>2110.3999023438</ele>
        <time>2014-01-11T08:35:12.000Z</time>
      </trkpt>
      <trkpt lat="45.1824" lon="6.35562">
        <ele>2110.6000976562</ele>
        <time>2014-01-11T08:35:13.000Z</time>
      </trkpt>
      <trkpt lat="45.1824" lon="6.35562">
        <ele>2110.8000488281</ele>
        <time>2014-01-11T08:35:14.000Z</time>
      </trkpt>
      <trkpt lat="45.1824" lon="6.35563">
        <ele>2111</ele>
        <time>2014-01-11T08:35:15.000Z</time>
      </trkpt>
      <trkpt lat="45.1824" lon="6.35563">
        <ele>2111.1999511719</ele>
        <time>2014-01-11T08:35:16.000Z</time>
      </trkpt>
      <trkpt lat="45.18239" lon="6.35564">
        <ele>2111.3999023438</ele>
        <time>2014-01-11T08:35:17.000Z</time>
      </trkpt>
      <trkpt lat="45.18239" lon="6.35564">
        <ele>2111.6000976562</ele>
        <time>2014-01-11T08:35:18.000Z</time>
      </trkpt>
      <trkpt lat="45.18239" lon="6.35564">
        <ele>2111.8000488281</ele>
        <time>2014-01-11T08:35:19.000Z</time>
      </trkpt>
      <trkpt lat="45.18239" lon="6.35565">
        <ele>2111.8000488281</ele>
        <time>2014-01-11T08:35:20.000Z</time>
      </trkpt>
      <trkpt lat="45.18239" lon="6.35565">
        <ele>2112</ele>
        <time>2014-01-11T08:35:21.000Z</time>
      </trkpt>
      <trkpt lat="45.18239" lon="6.35565">
        <ele>2112.1999511719</ele>
        <time>2014-01-11T08:35:22.000Z</time>
      </trkpt>
      <trkpt lat="45.18238" lon="6.35566">
        <ele>2112.3999023438</ele>
        <time>2014-01-11T08:35:23.000Z</time>
      </trkpt>
      <trkpt lat="45.18238" lon="6.35567">
        <ele>2112.6000976562</ele>
        <time>2014-01-11T08:35:24.000Z</time>
      </trkpt>
      <trkpt lat="45.18238" lon="6.35568">
        <ele>2112.8000488281</ele>
        <time>2014-01-11T08:35:25.000Z</time>
      </trkpt>
      <trkpt lat="45.18238" lon="6.35568">
        <ele>2113</ele>
        <time>2014-01-11T08:35:26.000Z</time>
      </trkpt>
      <trkpt lat="45.18238" lon="6.35569">
        <ele>2113.1999511719</ele>
        <time>2014-01-11T08:35:27.000Z</time>
      </trkpt>
      <trkpt lat="45.18238" lon="6.35569">
        <ele>2113.1999511719</ele>
        <time>2014-01-11T08:35:28.000Z</time>
      </trkpt>
      <trkpt lat="45.18238" lon="6.35571">
        <ele>2113.3999023438</ele>
        <time>2014-01-11T08:35:29.000Z</time>
      </trkpt>
      <trkpt lat="45.18238" lon="6.35572">
        <ele>2113.6000976562</ele>
        <time>2014-01-11T08:35:30.000Z</time>
      </trkpt>
      <trkpt lat="45.18238" lon="6.35573">
        <ele>2113.6000976562</ele>
        <time>2014-01-11T08:35:31.000Z</time>
      </trkpt>
      <trkpt lat="45.18238" lon="6.35573">
        <ele>2113.8000488281</ele>
        <time>2014-01-11T08:35:32.000Z</time>
      </trkpt>
      <trkpt lat="45.18238" lon="6.35574">
        <ele>2114</ele>
        <time>2014-01-11T08:35:33.000Z</time>
      </trkpt>
      <trkpt lat="45.18238" lon="6.35575">
        <ele>2114</ele>
        <time>2014-01-11T08:35:34.000Z</time>
      </trkpt>
      <trkpt lat="45.18238" lon="6.35576">
        <ele>2114.3999023438</ele>
        <time>2014-01-11T08:35:35.000Z</time>
      </trkpt>
      <trkpt lat="45.18238" lon="6.35577">
        <ele>2114.6000976562</ele>
        <time>2014-01-11T08:35:36.000Z</time>
      </trkpt>
      <trkpt lat="45.18238" lon="6.35577">
        <ele>2114.8000488281</ele>
        <time>2014-01-11T08:35:37.000Z</time>
      </trkpt>
      <trkpt lat="45.18239" lon="6.35578">
        <ele>2115</ele>
        <time>2014-01-11T08:35:38.000Z</time>
      </trkpt>
      <trkpt lat="45.18239" lon="6.35579">
        <ele>2115.1999511719</ele>
        <time>2014-01-11T08:35:39.000Z</time>
      </trkpt>
      <trkpt lat="45.18239" lon="6.3558">
        <ele>2115.3999023438</ele>
        <time>2014-01-11T08:35:40.000Z</time>
      </trkpt>
      <trkpt lat="45.18239" lon="6.3558">
        <ele>2115.8000488281</ele>
        <time>2014-01-11T08:35:41.000Z</time>
      </trkpt>
      <trkpt lat="45.18239" lon="6.35581">
        <ele>2116</ele>
        <time>2014-01-11T08:35:42.000Z</time>
      </trkpt>
      <trkpt lat="45.18238" lon="6.35582">
        <ele>2116.1999511719</ele>
        <time>2014-01-11T08:35:43.000Z</time>
      </trkpt>
      <trkpt lat="45.18238" lon="6.35582">
        <ele>2116.1999511719</ele>
        <time>2014-01-11T08:35:44.000Z</time>
      </trkpt>
      <trkpt lat="45.18238" lon="6.35583">
        <ele>2116.3999023438</ele>
        <time>2014-01-11T08:35:45.000Z</time>
      </trkpt>
      <trkpt lat="45.18238" lon="6.35583">
        <ele>2116.6000976562</ele>
        <time>2014-01-11T08:35:46.000Z</time>
      </trkpt>
      <trkpt lat="45.18238" lon="6.35583">
        <ele>2116.8000488281</ele>
        <time>2014-01-11T08:35:47.000Z</time>
      </trkpt>
      <trkpt lat="45.18238" lon="6.35583">
        <ele>2117</ele>
        <time>2014-01-11T08:35:48.000Z</time>
      </trkpt>
      <trkpt lat="45.18238" lon="6.35585">
        <ele>2117.1999511719</ele>
        <time>2014-01-11T08:35:49.000Z</time>
      </trkpt>
      <trkpt lat="45.18239" lon="6.35586">
        <ele>2117.3999023438</ele>
        <time>2014-01-11T08:35:50.000Z</time>
      </trkpt>
      <trkpt lat="45.18239" lon="6.35587">
        <ele>2117.6000976562</ele>
        <time>2014-01-11T08:35:51.000Z</time>
      </trkpt>
      <trkpt lat="45.18239" lon="6.35587">
        <ele>2117.8000488281</ele>
        <time>2014-01-11T08:35:52.000Z</time>
      </trkpt>
      <trkpt lat="45.18239" lon="6.35588">
        <ele>2118</ele>
        <time>2014-01-11T08:35:53.000Z</time>
      </trkpt>
      <trkpt lat="45.18239" lon="6.35589">
        <ele>2118.1999511719</ele>
        <time>2014-01-11T08:35:54.000Z</time>
      </trkpt>
      <trkpt lat="45.18239" lon="6.3559">
        <ele>2118.3999023438</ele>
        <time>2014-01-11T08:35:55.000Z</time>
      </trkpt>
      <trkpt lat="45.18239" lon="6.35591">
        <ele>2118.3999023438</ele>
        <time>2014-01-11T08:35:56.000Z</time>
      </trkpt>
      <trkpt lat="45.18239" lon="6.35591">
        <ele>2118.6000976562</ele>
        <time>2014-01-11T08:35:57.000Z</time>
      </trkpt>
      <trkpt lat="45.18239" lon="6.35592">
        <ele>2118.6000976562</ele>
        <time>2014-01-11T08:35:58.000Z</time>
      </trkpt>
      <trkpt lat="45.18239" lon="6.35593">
        <ele>2118.8000488281</ele>
        <time>2014-01-11T08:35:59.000Z</time>
      </trkpt>
      <trkpt lat="45.18238" lon="6.35595">
        <ele>2119</ele>
        <time>2014-01-11T08:36:00.000Z</time>
      </trkpt>
      <trkpt lat="45.18238" lon="6.35596">
        <ele>2119.1999511719</ele>
        <time>2014-01-11T08:36:01.000Z</time>
      </trkpt>
      <trkpt lat="45.18238" lon="6.35597">
        <ele>2119.3999023438</ele>
        <time>2014-01-11T08:36:02.000Z</time>
      </trkpt>
      <trkpt lat="45.18238" lon="6.35597">
        <ele>2119.8000488281</ele>
        <time>2014-01-11T08:36:03.000Z</time>
      </trkpt>
      <trkpt lat="45.18238" lon="6.35597">
        <ele>2120</ele>
        <time>2014-01-11T08:36:04.000Z</time>
      </trkpt>
      <trkpt lat="45.18238" lon="6.35597">
        <ele>2120.1999511719</ele>
        <time>2014-01-11T08:36:05.000Z</time>
      </trkpt>
      <trkpt lat="45.18238" lon="6.35597">
        <ele>2120.1999511719</ele>
        <time>2014-01-11T08:36:06.000Z</time>
      </trkpt>
      <trkpt lat="45.18238" lon="6.35597">
        <ele>2120.3999023438</ele>
        <time>2014-01-11T08:36:07.000Z</time>
      </trkpt>
      <trkpt lat="45.18238" lon="6.35597">
        <ele>2120.3999023438</ele>
        <time>2014-01-11T08:36:08.000Z</time>
      </trkpt>
      <trkpt lat="45.18238" lon="6.35597">
        <ele>2120.3999023438</ele>
        <time>2014-01-11T08:36:09.000Z</time>
      </trkpt>
      <trkpt lat="45.18238" lon="6.35597">
        <ele>2120.3999023438</ele>
        <time>2014-01-11T08:36:10.000Z</time>
      </trkpt>
      <trkpt lat="45.18238" lon="6.35597">
        <ele>2120.3999023438</ele>
        <time>2014-01-11T08:36:11.000Z</time>
      </trkpt>
      <trkpt lat="45.18238" lon="6.35597">
        <ele>2120.3999023438</ele>
        <time>2014-01-11T08:36:13.000Z</time>
      </trkpt>
      <trkpt lat="45.18238" lon="6.35597">
        <ele>2120.3999023438</ele>
        <time>2014-01-11T08:36:14.000Z</time>
      </trkpt>
      <trkpt lat="45.18238" lon="6.35597">
        <ele>2120.3999023438</ele>
        <time>2014-01-11T08:36:15.000Z</time>
      </trkpt>
      <trkpt lat="45.18238" lon="6.35597">
        <ele>2120.3999023438</ele>
        <time>2014-01-11T08:36:16.000Z</time>
      </trkpt>
      <trkpt lat="45.18238" lon="6.35597">
        <ele>2120.6000976562</ele>
        <time>2014-01-11T08:36:17.000Z</time>
      </trkpt>
      <trkpt lat="45.18238" lon="6.35597">
        <ele>2120.8000488281</ele>
        <time>2014-01-11T08:36:18.000Z</time>
      </trkpt>
      <trkpt lat="45.18238" lon="6.35597">
        <ele>2120.8000488281</ele>
        <time>2014-01-11T08:36:19.000Z</time>
      </trkpt>
      <trkpt lat="45.18238" lon="6.35597">
        <ele>2120.8000488281</ele>
        <time>2014-01-11T08:36:20.000Z</time>
      </trkpt>
      <trkpt lat="45.18238" lon="6.35597">
        <ele>2121</ele>
        <time>2014-01-11T08:36:21.000Z</time>
      </trkpt>
      <trkpt lat="45.18238" lon="6.35597">
        <ele>2121</ele>
        <time>2014-01-11T08:36:22.000Z</time>
      </trkpt>
      <trkpt lat="45.18238" lon="6.35597">
        <ele>2121</ele>
        <time>2014-01-11T08:36:24.000Z</time>
      </trkpt>
      <trkpt lat="45.18238" lon="6.35597">
        <ele>2121</ele>
        <time>2014-01-11T08:36:25.000Z</time>
      </trkpt>
      <trkpt lat="45.18238" lon="6.35597">
        <ele>2121</ele>
        <time>2014-01-11T08:36:27.000Z</time>
      </trkpt>
      <trkpt lat="45.18238" lon="6.35597">
        <ele>2121</ele>
        <time>2014-01-11T08:36:28.000Z</time>
      </trkpt>
      <trkpt lat="45.18238" lon="6.35597">
        <ele>2121.1999511719</ele>
        <time>2014-01-11T08:36:29.000Z</time>
      </trkpt>
      <trkpt lat="45.18238" lon="6.35597">
        <ele>2121.1999511719</ele>
        <time>2014-01-11T08:36:30.000Z</time>
      </trkpt>
      <trkpt lat="45.18238" lon="6.35597">
        <ele>2121</ele>
        <time>2014-01-11T08:36:31.000Z</time>
      </trkpt>
      <trkpt lat="45.18238" lon="6.35597">
        <ele>2121</ele>
        <time>2014-01-11T08:36:32.000Z</time>
      </trkpt>
      <trkpt lat="45.18238" lon="6.35597">
        <ele>2121</ele>
        <time>2014-01-11T08:36:33.000Z</time>
      </trkpt>
      <trkpt lat="45.18238" lon="6.35597">
        <ele>2120.8000488281</ele>
        <time>2014-01-11T08:36:34.000Z</time>
      </trkpt>
      <trkpt lat="45.18238" lon="6.35597">
        <ele>2120.8000488281</ele>
        <time>2014-01-11T08:36:35.000Z</time>
      </trkpt>
      <trkpt lat="45.18238" lon="6.35597">
        <ele>2120.6000976562</ele>
        <time>2014-01-11T08:36:36.000Z</time>
      </trkpt>
      <trkpt lat="45.18238" lon="6.35597">
        <ele>2120.3999023438</ele>
        <time>2014-01-11T08:36:37.000Z</time>
      </trkpt>
      <trkpt lat="45.18238" lon="6.35597">
        <ele>2120.3999023438</ele>
        <time>2014-01-11T08:36:38.000Z</time>
      </trkpt>
      <trkpt lat="45.18238" lon="6.35597">
        <ele>2120.3999023438</ele>
        <time>2014-01-11T08:36:39.000Z</time>
      </trkpt>
      <trkpt lat="45.18238" lon="6.35597">
        <ele>2120.3999023438</ele>
        <time>2014-01-11T08:36:40.000Z</time>
      </trkpt>
      <trkpt lat="45.18238" lon="6.35597">
        <ele>2120.3999023438</ele>
        <time>2014-01-11T08:36:41.000Z</time>
      </trkpt>
      <trkpt lat="45.18238" lon="6.35597">
        <ele>2120.3999023438</ele>
        <time>2014-01-11T08:36:42.000Z</time>
      </trkpt>
      <trkpt lat="45.18238" lon="6.35597">
        <ele>2120.1999511719</ele>
        <time>2014-01-11T08:36:43.000Z</time>
      </trkpt>
      <trkpt lat="45.18238" lon="6.35597">
        <ele>2120.1999511719</ele>
        <time>2014-01-11T08:36:44.000Z</time>
      </trkpt>
      <trkpt lat="45.18238" lon="6.35597">
        <ele>2120.1999511719</ele>
        <time>2014-01-11T08:36:45.000Z</time>
      </trkpt>
      <trkpt lat="45.18238" lon="6.35597">
        <ele>2120.1999511719</ele>
        <time>2014-01-11T08:36:46.000Z</time>
      </trkpt>
      <trkpt lat="45.18238" lon="6.35597">
        <ele>2120.1999511719</ele>
        <time>2014-01-11T08:36:47.000Z</time>
      </trkpt>
      <trkpt lat="45.18238" lon="6.35597">
        <ele>2120.1999511719</ele>
        <time>2014-01-11T08:36:50.000Z</time>
      </trkpt>
      <trkpt lat="45.18238" lon="6.35597">
        <ele>2120.1999511719</ele>
        <time>2014-01-11T08:36:51.000Z</time>
      </trkpt>
      <trkpt lat="45.18238" lon="6.35597">
        <ele>2120.1999511719</ele>
        <time>2014-01-11T08:36:52.000Z</time>
      </trkpt>
      <trkpt lat="45.18238" lon="6.35597">
        <ele>2120.3999023438</ele>
        <time>2014-01-11T08:36:53.000Z</time>
      </trkpt>
      <trkpt lat="45.18238" lon="6.35597">
        <ele>2120.3999023438</ele>
        <time>2014-01-11T08:36:54.000Z</time>
      </trkpt>
      <trkpt lat="45.18238" lon="6.35597">
        <ele>2120.3999023438</ele>
        <time>2014-01-11T08:36:55.000Z</time>
      </trkpt>
      <trkpt lat="45.18238" lon="6.35597">
        <ele>2120.3999023438</ele>
        <time>2014-01-11T08:36:56.000Z</time>
      </trkpt>
      <trkpt lat="45.18238" lon="6.35597">
        <ele>2120.3999023438</ele>
        <time>2014-01-11T08:37:00.000Z</time>
      </trkpt>
      <trkpt lat="45.18238" lon="6.35597">
        <ele>2120.3999023438</ele>
        <time>2014-01-11T08:37:02.000Z</time>
      </trkpt>
      <trkpt lat="45.18238" lon="6.35597">
        <ele>2120.3999023438</ele>
        <time>2014-01-11T08:37:05.000Z</time>
      </trkpt>
      <trkpt lat="45.18238" lon="6.35597">
        <ele>2120.3999023438</ele>
        <time>2014-01-11T08:37:06.000Z</time>
      </trkpt>
      <trkpt lat="45.18238" lon="6.35597">
        <ele>2120.3999023438</ele>
        <time>2014-01-11T08:37:07.000Z</time>
      </trkpt>
      <trkpt lat="45.18238" lon="6.35597">
        <ele>2120.1999511719</ele>
        <time>2014-01-11T08:37:08.000Z</time>
      </trkpt>
      <trkpt lat="45.18238" lon="6.35597">
        <ele>2120.1999511719</ele>
        <time>2014-01-11T08:37:09.000Z</time>
      </trkpt>
      <trkpt lat="45.18238" lon="6.35597">
        <ele>2120.1999511719</ele>
        <time>2014-01-11T08:37:10.000Z</time>
      </trkpt>
      <trkpt lat="45.18238" lon="6.35597">
        <ele>2120.1999511719</ele>
        <time>2014-01-11T08:37:11.000Z</time>
      </trkpt>
      <trkpt lat="45.18238" lon="6.35597">
        <ele>2120.1999511719</ele>
        <time>2014-01-11T08:37:12.000Z</time>
      </trkpt>
      <trkpt lat="45.18238" lon="6.35597">
        <ele>2120.1999511719</ele>
        <time>2014-01-11T08:37:14.000Z</time>
      </trkpt>
      <trkpt lat="45.18238" lon="6.35597">
        <ele>2120.1999511719</ele>
        <time>2014-01-11T08:37:15.000Z</time>
      </trkpt>
      <trkpt lat="45.18238" lon="6.35597">
        <ele>2120.1999511719</ele>
        <time>2014-01-11T08:37:17.000Z</time>
      </trkpt>
      <trkpt lat="45.18238" lon="6.35597">
        <ele>2120.1999511719</ele>
        <time>2014-01-11T08:37:23.000Z</time>
      </trkpt>
      <trkpt lat="45.18238" lon="6.35597">
        <ele>2120.1999511719</ele>
        <time>2014-01-11T08:37:25.000Z</time>
      </trkpt>
      <trkpt lat="45.18238" lon="6.35597">
        <ele>2120.1999511719</ele>
        <time>2014-01-11T08:37:26.000Z</time>
      </trkpt>
      <trkpt lat="45.18238" lon="6.35597">
        <ele>2120.1999511719</ele>
        <time>2014-01-11T08:37:29.000Z</time>
      </trkpt>
      <trkpt lat="45.18238" lon="6.35597">
        <ele>2120.1999511719</ele>
        <time>2014-01-11T08:37:30.000Z</time>
      </trkpt>
      <trkpt lat="45.18238" lon="6.35597">
        <ele>2120.1999511719</ele>
        <time>2014-01-11T08:37:31.000Z</time>
      </trkpt>
      <trkpt lat="45.18238" lon="6.35597">
        <ele>2120.1999511719</ele>
        <time>2014-01-11T08:37:32.000Z</time>
      </trkpt>
      <trkpt lat="45.18238" lon="6.35597">
        <ele>2120.1999511719</ele>
        <time>2014-01-11T08:37:33.000Z</time>
      </trkpt>
      <trkpt lat="45.18238" lon="6.35597">
        <ele>2120.1999511719</ele>
        <time>2014-01-11T08:37:34.000Z</time>
      </trkpt>
      <trkpt lat="45.18238" lon="6.35597">
        <ele>2120.1999511719</ele>
        <time>2014-01-11T08:37:35.000Z</time>
      </trkpt>
      <trkpt lat="45.18238" lon="6.35597">
        <ele>2120.1999511719</ele>
        <time>2014-01-11T08:37:39.000Z</time>
      </trkpt>
      <trkpt lat="45.18238" lon="6.35597">
        <ele>2120.1999511719</ele>
        <time>2014-01-11T08:37:40.000Z</time>
      </trkpt>
      <trkpt lat="45.18238" lon="6.35597">
        <ele>2120.1999511719</ele>
        <time>2014-01-11T08:37:41.000Z</time>
      </trkpt>
      <trkpt lat="45.18238" lon="6.35597">
        <ele>2120.1999511719</ele>
        <time>2014-01-11T08:37:42.000Z</time>
      </trkpt>
      <trkpt lat="45.18238" lon="6.35597">
        <ele>2120.1999511719</ele>
        <time>2014-01-11T08:37:47.000Z</time>
      </trkpt>
      <trkpt lat="45.18238" lon="6.35597">
        <ele>2120.1999511719</ele>
        <time>2014-01-11T08:37:48.000Z</time>
      </trkpt>
      <trkpt lat="45.18238" lon="6.35597">
        <ele>2120.1999511719</ele>
        <time>2014-01-11T08:37:49.000Z</time>
      </trkpt>
      <trkpt lat="45.18238" lon="6.35597">
        <ele>2120</ele>
        <time>2014-01-11T08:37:50.000Z</time>
      </trkpt>
      <trkpt lat="45.18238" lon="6.35597">
        <ele>2120</ele>
        <time>2014-01-11T08:37:51.000Z</time>
      </trkpt>
      <trkpt lat="45.18238" lon="6.35597">
        <ele>2120</ele>
        <time>2014-01-11T08:37:52.000Z</time>
      </trkpt>
      <trkpt lat="45.18238" lon="6.35597">
        <ele>2120</ele>
        <time>2014-01-11T08:37:53.000Z</time>
      </trkpt>
      <trkpt lat="45.18238" lon="6.35597">
        <ele>2120</ele>
        <time>2014-01-11T08:37:54.000Z</time>
      </trkpt>
      <trkpt lat="45.18238" lon="6.35597">
        <ele>2120</ele>
        <time>2014-01-11T08:37:55.000Z</time>
      </trkpt>
      <trkpt lat="45.18238" lon="6.35597">
        <ele>2120.1999511719</ele>
        <time>2014-01-11T08:37:56.000Z</time>
      </trkpt>
      <trkpt lat="45.18238" lon="6.35597">
        <ele>2120.1999511719</ele>
        <time>2014-01-11T08:37:57.000Z</time>
      </trkpt>
      <trkpt lat="45.18238" lon="6.35597">
        <ele>2120.1999511719</ele>
        <time>2014-01-11T08:37:59.000Z</time>
      </trkpt>
      <trkpt lat="45.18238" lon="6.35597">
        <ele>2120</ele>
        <time>2014-01-11T08:38:00.000Z</time>
      </trkpt>
      <trkpt lat="45.18238" lon="6.35597">
        <ele>2120</ele>
        <time>2014-01-11T08:38:01.000Z</time>
      </trkpt>
      <trkpt lat="45.18238" lon="6.35597">
        <ele>2120</ele>
        <time>2014-01-11T08:38:02.000Z</time>
      </trkpt>
      <trkpt lat="45.18238" lon="6.35597">
        <ele>2120</ele>
        <time>2014-01-11T08:38:04.000Z</time>
      </trkpt>
      <trkpt lat="45.18238" lon="6.35597">
        <ele>2120</ele>
        <time>2014-01-11T08:38:05.000Z</time>
      </trkpt>
      <trkpt lat="45.18238" lon="6.35597">
        <ele>2120</ele>
        <time>2014-01-11T08:38:06.000Z</time>
      </trkpt>
      <trkpt lat="45.18238" lon="6.35597">
        <ele>2120</ele>
        <time>2014-01-11T08:38:10.000Z</time>
      </trkpt>
      <trkpt lat="45.18238" lon="6.35597">
        <ele>2120</ele>
        <time>2014-01-11T08:38:11.000Z</time>
      </trkpt>
      <trkpt lat="45.18238" lon="6.35597">
        <ele>2120</ele>
        <time>2014-01-11T08:38:12.000Z</time>
      </trkpt>
      <trkpt lat="45.18238" lon="6.35597">
        <ele>2120</ele>
        <time>2014-01-11T08:38:13.000Z</time>
      </trkpt>
      <trkpt lat="45.18238" lon="6.35597">
        <ele>2120</ele>
        <time>2014-01-11T08:38:14.000Z</time>
      </trkpt>
      <trkpt lat="45.18238" lon="6.35597">
        <ele>2119.8000488281</ele>
        <time>2014-01-11T08:38:15.000Z</time>
      </trkpt>
      <trkpt lat="45.18238" lon="6.35597">
        <ele>2119.8000488281</ele>
        <time>2014-01-11T08:38:16.000Z</time>
      </trkpt>
      <trkpt lat="45.18238" lon="6.35597">
        <ele>2119.8000488281</ele>
        <time>2014-01-11T08:38:17.000Z</time>
      </trkpt>
      <trkpt lat="45.18238" lon="6.35597">
        <ele>2119.8000488281</ele>
        <time>2014-01-11T08:38:18.000Z</time>
      </trkpt>
      <trkpt lat="45.18238" lon="6.35597">
        <ele>2119.8000488281</ele>
        <time>2014-01-11T08:38:20.000Z</time>
      </trkpt>
      <trkpt lat="45.18238" lon="6.35597">
        <ele>2119.8000488281</ele>
        <time>2014-01-11T08:38:21.000Z</time>
      </trkpt>
      <trkpt lat="45.18238" lon="6.35597">
        <ele>2119.8000488281</ele>
        <time>2014-01-11T08:38:23.000Z</time>
      </trkpt>
      <trkpt lat="45.18238" lon="6.35597">
        <ele>2119.8000488281</ele>
        <time>2014-01-11T08:38:29.000Z</time>
      </trkpt>
      <trkpt lat="45.18238" lon="6.35597">
        <ele>2120</ele>
        <time>2014-01-11T08:38:30.000Z</time>
      </trkpt>
      <trkpt lat="45.18238" lon="6.35597">
        <ele>2120</ele>
        <time>2014-01-11T08:38:31.000Z</time>
      </trkpt>
      <trkpt lat="45.18238" lon="6.35597">
        <ele>2120</ele>
        <time>2014-01-11T08:38:32.000Z</time>
      </trkpt>
      <trkpt lat="45.18238" lon="6.35597">
        <ele>2120</ele>
        <time>2014-01-11T08:38:33.000Z</time>
      </trkpt>
      <trkpt lat="45.18238" lon="6.35597">
        <ele>2120</ele>
        <time>2014-01-11T08:38:35.000Z</time>
      </trkpt>
      <trkpt lat="45.18238" lon="6.35597">
        <ele>2119.8000488281</ele>
        <time>2014-01-11T08:38:36.000Z</time>
      </trkpt>
      <trkpt lat="45.18238" lon="6.35597">
        <ele>2119.8000488281</ele>
        <time>2014-01-11T08:38:37.000Z</time>
      </trkpt>
      <trkpt lat="45.18238" lon="6.35597">
        <ele>2119.8000488281</ele>
        <time>2014-01-11T08:38:38.000Z</time>
      </trkpt>
      <trkpt lat="45.18238" lon="6.35597">
        <ele>2119.8000488281</ele>
        <time>2014-01-11T08:38:39.000Z</time>
      </trkpt>
      <trkpt lat="45.18238" lon="6.35597">
        <ele>2119.8000488281</ele>
        <time>2014-01-11T08:38:40.000Z</time>
      </trkpt>
      <trkpt lat="45.18238" lon="6.35597">
        <ele>2119.8000488281</ele>
        <time>2014-01-11T08:38:42.000Z</time>
      </trkpt>
      <trkpt lat="45.18238" lon="6.35597">
        <ele>2119.8000488281</ele>
        <time>2014-01-11T08:38:43.000Z</time>
      </trkpt>
      <trkpt lat="45.18238" lon="6.35597">
        <ele>2120</ele>
        <time>2014-01-11T08:38:44.000Z</time>
      </trkpt>
      <trkpt lat="45.18238" lon="6.35597">
        <ele>2120</ele>
        <time>2014-01-11T08:38:45.000Z</time>
      </trkpt>
      <trkpt lat="45.18238" lon="6.35597">
        <ele>2120</ele>
        <time>2014-01-11T08:38:46.000Z</time>
      </trkpt>
      <trkpt lat="45.18238" lon="6.35597">
        <ele>2120</ele>
        <time>2014-01-11T08:38:48.000Z</time>
      </trkpt>
      <trkpt lat="45.18238" lon="6.35597">
        <ele>2119.8000488281</ele>
        <time>2014-01-11T08:38:49.000Z</time>
      </trkpt>
      <trkpt lat="45.18238" lon="6.35597">
        <ele>2119.8000488281</ele>
        <time>2014-01-11T08:38:50.000Z</time>
      </trkpt>
      <trkpt lat="45.18238" lon="6.35597">
        <ele>2119.8000488281</ele>
        <time>2014-01-11T08:38:51.000Z</time>
      </trkpt>
      <trkpt lat="45.18238" lon="6.35597">
        <ele>2119.8000488281</ele>
        <time>2014-01-11T08:38:52.000Z</time>
      </trkpt>
      <trkpt lat="45.18238" lon="6.35597">
        <ele>2119.8000488281</ele>
        <time>2014-01-11T08:38:53.000Z</time>
      </trkpt>
      <trkpt lat="45.18238" lon="6.35597">
        <ele>2119.8000488281</ele>
        <time>2014-01-11T08:38:54.000Z</time>
      </trkpt>
      <trkpt lat="45.18239" lon="6.35597">
        <ele>2119.8000488281</ele>
        <time>2014-01-11T08:38:59.000Z</time>
      </trkpt>
      <trkpt lat="45.18239" lon="6.35597">
        <ele>2119.8000488281</ele>
        <time>2014-01-11T08:39:01.000Z</time>
      </trkpt>
      <trkpt lat="45.18239" lon="6.35597">
        <ele>2119.8000488281</ele>
        <time>2014-01-11T08:39:03.000Z</time>
      </trkpt>
      <trkpt lat="45.18239" lon="6.35597">
        <ele>2119.8000488281</ele>
        <time>2014-01-11T08:39:04.000Z</time>
      </trkpt>
      <trkpt lat="45.18239" lon="6.35597">
        <ele>2119.8000488281</ele>
        <time>2014-01-11T08:39:05.000Z</time>
      </trkpt>
      <trkpt lat="45.18239" lon="6.35597">
        <ele>2119.8000488281</ele>
        <time>2014-01-11T08:39:07.000Z</time>
      </trkpt>
      <trkpt lat="45.18239" lon="6.35597">
        <ele>2119.8000488281</ele>
        <time>2014-01-11T08:39:08.000Z</time>
      </trkpt>
      <trkpt lat="45.18239" lon="6.35597">
        <ele>2119.8000488281</ele>
        <time>2014-01-11T08:39:13.000Z</time>
      </trkpt>
      <trkpt lat="45.18239" lon="6.35597">
        <ele>2119.8000488281</ele>
        <time>2014-01-11T08:39:15.000Z</time>
      </trkpt>
      <trkpt lat="45.18239" lon="6.35597">
        <ele>2119.8000488281</ele>
        <time>2014-01-11T08:39:16.000Z</time>
      </trkpt>
      <trkpt lat="45.18239" lon="6.35597">
        <ele>2119.8000488281</ele>
        <time>2014-01-11T08:39:17.000Z</time>
      </trkpt>
      <trkpt lat="45.18239" lon="6.35597">
        <ele>2119.8000488281</ele>
        <time>2014-01-11T08:39:18.000Z</time>
      </trkpt>
      <trkpt lat="45.18239" lon="6.35597">
        <ele>2119.8000488281</ele>
        <time>2014-01-11T08:39:21.000Z</time>
      </trkpt>
      <trkpt lat="45.18239" lon="6.35597">
        <ele>2119.8000488281</ele>
        <time>2014-01-11T08:39:22.000Z</time>
      </trkpt>
      <trkpt lat="45.18239" lon="6.35597">
        <ele>2119.8000488281</ele>
        <time>2014-01-11T08:39:23.000Z</time>
      </trkpt>
      <trkpt lat="45.18239" lon="6.35597">
        <ele>2119.8000488281</ele>
        <time>2014-01-11T08:39:24.000Z</time>
      </trkpt>
      <trkpt lat="45.18239" lon="6.35597">
        <ele>2119.8000488281</ele>
        <time>2014-01-11T08:39:25.000Z</time>
      </trkpt>
      <trkpt lat="45.18239" lon="6.35597">
        <ele>2119.8000488281</ele>
        <time>2014-01-11T08:39:26.000Z</time>
      </trkpt>
      <trkpt lat="45.18239" lon="6.35597">
        <ele>2119.8000488281</ele>
        <time>2014-01-11T08:39:27.000Z</time>
      </trkpt>
      <trkpt lat="45.18239" lon="6.35597">
        <ele>2119.8000488281</ele>
        <time>2014-01-11T08:39:29.000Z</time>
      </trkpt>
      <trkpt lat="45.18239" lon="6.35597">
        <ele>2119.8000488281</ele>
        <time>2014-01-11T08:39:30.000Z</time>
      </trkpt>
      <trkpt lat="45.18239" lon="6.35597">
        <ele>2119.8000488281</ele>
        <time>2014-01-11T08:39:32.000Z</time>
      </trkpt>
      <trkpt lat="45.18239" lon="6.35597">
        <ele>2119.8000488281</ele>
        <time>2014-01-11T08:39:33.000Z</time>
      </trkpt>
      <trkpt lat="45.18239" lon="6.35597">
        <ele>2119.8000488281</ele>
        <time>2014-01-11T08:39:34.000Z</time>
      </trkpt>
      <trkpt lat="45.18239" lon="6.35597">
        <ele>2119.8000488281</ele>
        <time>2014-01-11T08:39:37.000Z</time>
      </trkpt>
      <trkpt lat="45.18239" lon="6.35597">
        <ele>2119.8000488281</ele>
        <time>2014-01-11T08:39:39.000Z</time>
      </trkpt>
      <trkpt lat="45.18239" lon="6.35597">
        <ele>2119.6000976562</ele>
        <time>2014-01-11T08:39:40.000Z</time>
      </trkpt>
      <trkpt lat="45.18239" lon="6.35597">
        <ele>2119.6000976562</ele>
        <time>2014-01-11T08:39:41.000Z</time>
      </trkpt>
      <trkpt lat="45.18239" lon="6.35597">
        <ele>2119.6000976562</ele>
        <time>2014-01-11T08:39:42.000Z</time>
      </trkpt>
      <trkpt lat="45.18239" lon="6.35597">
        <ele>2119.6000976562</ele>
        <time>2014-01-11T08:39:43.000Z</time>
      </trkpt>
      <trkpt lat="45.18239" lon="6.35597">
        <ele>2119.6000976562</ele>
        <time>2014-01-11T08:39:45.000Z</time>
      </trkpt>
      <trkpt lat="45.18239" lon="6.35597">
        <ele>2119.6000976562</ele>
        <time>2014-01-11T08:39:46.000Z</time>
      </trkpt>
      <trkpt lat="45.18239" lon="6.35597">
        <ele>2119.6000976562</ele>
        <time>2014-01-11T08:39:47.000Z</time>
      </trkpt>
      <trkpt lat="45.18239" lon="6.35597">
        <ele>2119.8000488281</ele>
        <time>2014-01-11T08:39:48.000Z</time>
      </trkpt>
      <trkpt lat="45.18239" lon="6.35597">
        <ele>2119.8000488281</ele>
        <time>2014-01-11T08:39:49.000Z</time>
      </trkpt>
      <trkpt lat="45.18239" lon="6.35597">
        <ele>2119.8000488281</ele>
        <time>2014-01-11T08:39:50.000Z</time>
      </trkpt>
      <trkpt lat="45.18239" lon="6.35597">
        <ele>2119.8000488281</ele>
        <time>2014-01-11T08:39:51.000Z</time>
      </trkpt>
      <trkpt lat="45.18239" lon="6.35597">
        <ele>2119.8000488281</ele>
        <time>2014-01-11T08:39:52.000Z</time>
      </trkpt>
      <trkpt lat="45.18239" lon="6.35597">
        <ele>2119.8000488281</ele>
        <time>2014-01-11T08:39:54.000Z</time>
      </trkpt>
      <trkpt lat="45.18239" lon="6.35597">
        <ele>2119.8000488281</ele>
        <time>2014-01-11T08:39:55.000Z</time>
      </trkpt>
      <trkpt lat="45.18239" lon="6.35597">
        <ele>2119.6000976562</ele>
        <time>2014-01-11T08:39:56.000Z</time>
      </trkpt>
      <trkpt lat="45.18239" lon="6.35597">
        <ele>2119.6000976562</ele>
        <time>2014-01-11T08:39:57.000Z</time>
      </trkpt>
      <trkpt lat="45.18239" lon="6.35597">
        <ele>2119.6000976562</ele>
        <time>2014-01-11T08:39:58.000Z</time>
      </trkpt>
      <trkpt lat="45.18239" lon="6.35597">
        <ele>2119.6000976562</ele>
        <time>2014-01-11T08:39:59.000Z</time>
      </trkpt>
      <trkpt lat="45.18239" lon="6.35597">
        <ele>2119.6000976562</ele>
        <time>2014-01-11T08:40:00.000Z</time>
      </trkpt>
      <trkpt lat="45.18239" lon="6.35597">
        <ele>2119.8000488281</ele>
        <time>2014-01-11T08:40:01.000Z</time>
      </trkpt>
      <trkpt lat="45.18239" lon="6.35597">
        <ele>2119.8000488281</ele>
        <time>2014-01-11T08:40:02.000Z</time>
      </trkpt>
      <trkpt lat="45.18239" lon="6.35597">
        <ele>2119.8000488281</ele>
        <time>2014-01-11T08:40:03.000Z</time>
      </trkpt>
      <trkpt lat="45.18239" lon="6.35597">
        <ele>2119.8000488281</ele>
        <time>2014-01-11T08:40:04.000Z</time>
      </trkpt>
      <trkpt lat="45.18239" lon="6.35597">
        <ele>2119.8000488281</ele>
        <time>2014-01-11T08:40:07.000Z</time>
      </trkpt>
      <trkpt lat="45.18239" lon="6.35597">
        <ele>2119.8000488281</ele>
        <time>2014-01-11T08:40:08.000Z</time>
      </trkpt>
      <trkpt lat="45.18239" lon="6.35597">
        <ele>2119.8000488281</ele>
        <time>2014-01-11T08:40:09.000Z</time>
      </trkpt>
      <trkpt lat="45.18239" lon="6.35597">
        <ele>2119.8000488281</ele>
        <time>2014-01-11T08:40:10.000Z</time>
      </trkpt>
      <trkpt lat="45.18239" lon="6.35597">
        <ele>2119.8000488281</ele>
        <time>2014-01-11T08:40:12.000Z</time>
      </trkpt>
      <trkpt lat="45.18239" lon="6.35597">
        <ele>2119.8000488281</ele>
        <time>2014-01-11T08:40:13.000Z</time>
      </trkpt>
      <trkpt lat="45.18239" lon="6.35597">
        <ele>2119.8000488281</ele>
        <time>2014-01-11T08:40:14.000Z</time>
      </trkpt>
      <trkpt lat="45.18239" lon="6.35597">
        <ele>2119.6000976562</ele>
        <time>2014-01-11T08:40:15.000Z</time>
      </trkpt>
      <trkpt lat="45.18239" lon="6.35597">
        <ele>2119.6000976562</ele>
        <time>2014-01-11T08:40:16.000Z</time>
      </trkpt>
      <trkpt lat="45.18239" lon="6.35597">
        <ele>2119.6000976562</ele>
        <time>2014-01-11T08:40:17.000Z</time>
      </trkpt>
      <trkpt lat="45.18239" lon="6.35597">
        <ele>2119.6000976562</ele>
        <time>2014-01-11T08:40:18.000Z</time>
      </trkpt>
      <trkpt lat="45.18239" lon="6.35597">
        <ele>2119.6000976562</ele>
        <time>2014-01-11T08:40:19.000Z</time>
      </trkpt>
      <trkpt lat="45.18239" lon="6.35597">
        <ele>2119.6000976562</ele>
        <time>2014-01-11T08:40:23.000Z</time>
      </trkpt>
      <trkpt lat="45.18239" lon="6.35597">
        <ele>2119.6000976562</ele>
        <time>2014-01-11T08:40:24.000Z</time>
      </trkpt>
      <trkpt lat="45.18239" lon="6.35597">
        <ele>2119.8000488281</ele>
        <time>2014-01-11T08:40:25.000Z</time>
      </trkpt>
      <trkpt lat="45.18239" lon="6.35597">
        <ele>2119.8000488281</ele>
        <time>2014-01-11T08:40:26.000Z</time>
      </trkpt>
      <trkpt lat="45.18239" lon="6.35597">
        <ele>2119.8000488281</ele>
        <time>2014-01-11T08:40:27.000Z</time>
      </trkpt>
      <trkpt lat="45.18239" lon="6.35597">
        <ele>2119.8000488281</ele>
        <time>2014-01-11T08:40:29.000Z</time>
      </trkpt>
      <trkpt lat="45.18239" lon="6.35597">
        <ele>2119.8000488281</ele>
        <time>2014-01-11T08:40:30.000Z</time>
      </trkpt>
      <trkpt lat="45.18239" lon="6.35597">
        <ele>2119.8000488281</ele>
        <time>2014-01-11T08:40:31.000Z</time>
      </trkpt>
      <trkpt lat="45.18239" lon="6.35597">
        <ele>2119.6000976562</ele>
        <time>2014-01-11T08:40:32.000Z</time>
      </trkpt>
      <trkpt lat="45.18239" lon="6.35597">
        <ele>2119.8000488281</ele>
        <time>2014-01-11T08:40:35.000Z</time>
      </trkpt>
      <trkpt lat="45.18239" lon="6.35597">
        <ele>2119.8000488281</ele>
        <time>2014-01-11T08:40:36.000Z</time>
      </trkpt>
      <trkpt lat="45.18239" lon="6.35597">
        <ele>2119.8000488281</ele>
        <time>2014-01-11T08:40:37.000Z</time>
      </trkpt>
      <trkpt lat="45.18239" lon="6.35597">
        <ele>2119.8000488281</ele>
        <time>2014-01-11T08:40:38.000Z</time>
      </trkpt>
      <trkpt lat="45.18239" lon="6.35597">
        <ele>2119.8000488281</ele>
        <time>2014-01-11T08:40:39.000Z</time>
      </trkpt>
      <trkpt lat="45.18239" lon="6.35597">
        <ele>2119.8000488281</ele>
        <time>2014-01-11T08:40:40.000Z</time>
      </trkpt>
      <trkpt lat="45.18239" lon="6.35597">
        <ele>2119.8000488281</ele>
        <time>2014-01-11T08:40:45.000Z</time>
      </trkpt>
      <trkpt lat="45.18239" lon="6.35597">
        <ele>2119.8000488281</ele>
        <time>2014-01-11T08:40:46.000Z</time>
      </trkpt>
      <trkpt lat="45.18239" lon="6.35597">
        <ele>2119.8000488281</ele>
        <time>2014-01-11T08:40:47.000Z</time>
      </trkpt>
      <trkpt lat="45.18239" lon="6.35597">
        <ele>2119.8000488281</ele>
        <time>2014-01-11T08:40:48.000Z</time>
      </trkpt>
      <trkpt lat="45.18239" lon="6.35597">
        <ele>2119.8000488281</ele>
        <time>2014-01-11T08:40:49.000Z</time>
      </trkpt>
      <trkpt lat="45.18239" lon="6.35597">
        <ele>2119.8000488281</ele>
        <time>2014-01-11T08:40:50.000Z</time>
      </trkpt>
      <trkpt lat="45.18239" lon="6.35597">
        <ele>2119.6000976562</ele>
        <time>2014-01-11T08:40:57.000Z</time>
      </trkpt>
      <trkpt lat="45.18239" lon="6.35597">
        <ele>2119.6000976562</ele>
        <time>2014-01-11T08:40:58.000Z</time>
      </trkpt>
      <trkpt lat="45.18239" lon="6.35597">
        <ele>2119.6000976562</ele>
        <time>2014-01-11T08:41:00.000Z</time>
      </trkpt>
      <trkpt lat="45.18239" lon="6.35597">
        <ele>2119.8000488281</ele>
        <time>2014-01-11T08:41:03.000Z</time>
      </trkpt>
      <trkpt lat="45.18239" lon="6.35597">
        <ele>2119.8000488281</ele>
        <time>2014-01-11T08:41:04.000Z</time>
      </trkpt>
      <trkpt lat="45.18239" lon="6.35597">
        <ele>2119.6000976562</ele>
        <time>2014-01-11T08:41:07.000Z</time>
      </trkpt>
      <trkpt lat="45.18239" lon="6.35597">
        <ele>2119.6000976562</ele>
        <time>2014-01-11T08:41:08.000Z</time>
      </trkpt>
      <trkpt lat="45.18239" lon="6.35597">
        <ele>2119.6000976562</ele>
        <time>2014-01-11T08:41:09.000Z</time>
      </trkpt>
      <trkpt lat="45.18239" lon="6.35597">
        <ele>2119.6000976562</ele>
        <time>2014-01-11T08:41:14.000Z</time>
      </trkpt>
      <trkpt lat="45.18239" lon="6.35597">
        <ele>2119.8000488281</ele>
        <time>2014-01-11T08:41:15.000Z</time>
      </trkpt>
      <trkpt lat="45.18239" lon="6.35597">
        <ele>2119.6000976562</ele>
        <time>2014-01-11T08:41:17.000Z</time>
      </trkpt>
      <trkpt lat="45.18239" lon="6.35597">
        <ele>2119.6000976562</ele>
        <time>2014-01-11T08:41:19.000Z</time>
      </trkpt>
      <trkpt lat="45.18239" lon="6.35597">
        <ele>2119.6000976562</ele>
        <time>2014-01-11T08:41:20.000Z</time>
      </trkpt>
      <trkpt lat="45.18239" lon="6.35597">
        <ele>2119.6000976562</ele>
        <time>2014-01-11T08:41:21.000Z</time>
      </trkpt>
      <trkpt lat="45.18239" lon="6.35597">
        <ele>2119.6000976562</ele>
        <time>2014-01-11T08:41:22.000Z</time>
      </trkpt>
      <trkpt lat="45.18239" lon="6.35597">
        <ele>2119.6000976562</ele>
        <time>2014-01-11T08:41:26.000Z</time>
      </trkpt>
      <trkpt lat="45.18239" lon="6.35597">
        <ele>2119.6000976562</ele>
        <time>2014-01-11T08:41:33.000Z</time>
      </trkpt>
      <trkpt lat="45.18239" lon="6.35597">
        <ele>2119.6000976562</ele>
        <time>2014-01-11T08:41:34.000Z</time>
      </trkpt>
      <trkpt lat="45.18239" lon="6.35597">
        <ele>2119.6000976562</ele>
        <time>2014-01-11T08:41:35.000Z</time>
      </trkpt>
      <trkpt lat="45.18239" lon="6.35597">
        <ele>2119.6000976562</ele>
        <time>2014-01-11T08:41:36.000Z</time>
      </trkpt>
      <trkpt lat="45.18239" lon="6.35597">
        <ele>2119.6000976562</ele>
        <time>2014-01-11T08:41:37.000Z</time>
      </trkpt>
      <trkpt lat="45.18239" lon="6.35597">
        <ele>2119.6000976562</ele>
        <time>2014-01-11T08:41:38.000Z</time>
      </trkpt>
      <trkpt lat="45.18239" lon="6.35597">
        <ele>2119.6000976562</ele>
        <time>2014-01-11T08:41:39.000Z</time>
      </trkpt>
      <trkpt lat="45.18239" lon="6.35597">
        <ele>2119.6000976562</ele>
        <time>2014-01-11T08:41:41.000Z</time>
      </trkpt>
      <trkpt lat="45.18239" lon="6.35597">
        <ele>2119.6000976562</ele>
        <time>2014-01-11T08:41:42.000Z</time>
      </trkpt>
      <trkpt lat="45.18239" lon="6.35597">
        <ele>2119.6000976562</ele>
        <time>2014-01-11T08:41:43.000Z</time>
      </trkpt>
      <trkpt lat="45.18239" lon="6.35597">
        <ele>2119.6000976562</ele>
        <time>2014-01-11T08:41:48.000Z</time>
      </trkpt>
      <trkpt lat="45.18239" lon="6.35597">
        <ele>2119.6000976562</ele>
        <time>2014-01-11T08:41:49.000Z</time>
      </trkpt>
      <trkpt lat="45.18239" lon="6.35597">
        <ele>2119.6000976562</ele>
        <time>2014-01-11T08:41:50.000Z</time>
      </trkpt>
      <trkpt lat="45.18239" lon="6.35597">
        <ele>2119.6000976562</ele>
        <time>2014-01-11T08:41:51.000Z</time>
      </trkpt>
      <trkpt lat="45.18239" lon="6.35597">
        <ele>2119.6000976562</ele>
        <time>2014-01-11T08:41:52.000Z</time>
      </trkpt>
      <trkpt lat="45.18239" lon="6.35597">
        <ele>2119.6000976562</ele>
        <time>2014-01-11T08:41:53.000Z</time>
      </trkpt>
      <trkpt lat="45.18239" lon="6.35597">
        <ele>2119.3999023438</ele>
        <time>2014-01-11T08:41:54.000Z</time>
      </trkpt>
      <trkpt lat="45.18239" lon="6.35597">
        <ele>2119.3999023438</ele>
        <time>2014-01-11T08:41:55.000Z</time>
      </trkpt>
      <trkpt lat="45.18239" lon="6.35597">
        <ele>2119.3999023438</ele>
        <time>2014-01-11T08:41:56.000Z</time>
      </trkpt>
      <trkpt lat="45.18239" lon="6.35597">
        <ele>2119.3999023438</ele>
        <time>2014-01-11T08:41:57.000Z</time>
      </trkpt>
      <trkpt lat="45.18239" lon="6.35597">
        <ele>2119.3999023438</ele>
        <time>2014-01-11T08:42:00.000Z</time>
      </trkpt>
      <trkpt lat="45.18239" lon="6.35597">
        <ele>2119.3999023438</ele>
        <time>2014-01-11T08:42:01.000Z</time>
      </trkpt>
      <trkpt lat="45.18239" lon="6.35597">
        <ele>2119.3999023438</ele>
        <time>2014-01-11T08:42:02.000Z</time>
      </trkpt>
      <trkpt lat="45.18239" lon="6.35597">
        <ele>2119.3999023438</ele>
        <time>2014-01-11T08:42:03.000Z</time>
      </trkpt>
      <trkpt lat="45.18239" lon="6.35597">
        <ele>2119.3999023438</ele>
        <time>2014-01-11T08:42:04.000Z</time>
      </trkpt>
      <trkpt lat="45.18239" lon="6.35597">
        <ele>2119.6000976562</ele>
        <time>2014-01-11T08:42:06.000Z</time>
      </trkpt>
      <trkpt lat="45.18239" lon="6.35597">
        <ele>2119.3999023438</ele>
        <time>2014-01-11T08:42:08.000Z</time>
      </trkpt>
      <trkpt lat="45.18239" lon="6.35597">
        <ele>2119.3999023438</ele>
        <time>2014-01-11T08:42:09.000Z</time>
      </trkpt>
      <trkpt lat="45.18239" lon="6.35597">
        <ele>2119.3999023438</ele>
        <time>2014-01-11T08:42:10.000Z</time>
      </trkpt>
      <trkpt lat="45.18239" lon="6.35597">
        <ele>2119.3999023438</ele>
        <time>2014-01-11T08:42:11.000Z</time>
      </trkpt>
      <trkpt lat="45.18239" lon="6.35597">
        <ele>2119.3999023438</ele>
        <time>2014-01-11T08:42:12.000Z</time>
      </trkpt>
      <trkpt lat="45.18239" lon="6.35597">
        <ele>2119.3999023438</ele>
        <time>2014-01-11T08:42:13.000Z</time>
      </trkpt>
      <trkpt lat="45.18239" lon="6.35596">
        <ele>2119.3999023438</ele>
        <time>2014-01-11T08:42:18.000Z</time>
      </trkpt>
      <trkpt lat="45.18239" lon="6.35596">
        <ele>2119.3999023438</ele>
        <time>2014-01-11T08:42:24.000Z</time>
      </trkpt>
      <trkpt lat="45.18239" lon="6.35596">
        <ele>2119.3999023438</ele>
        <time>2014-01-11T08:42:25.000Z</time>
      </trkpt>
      <trkpt lat="45.18239" lon="6.35596">
        <ele>2119.3999023438</ele>
        <time>2014-01-11T08:42:26.000Z</time>
      </trkpt>
      <trkpt lat="45.18239" lon="6.35596">
        <ele>2119.1999511719</ele>
        <time>2014-01-11T08:42:27.000Z</time>
      </trkpt>
      <trkpt lat="45.18239" lon="6.35596">
        <ele>2119.1999511719</ele>
        <time>2014-01-11T08:42:28.000Z</time>
      </trkpt>
      <trkpt lat="45.18239" lon="6.35596">
        <ele>2119.1999511719</ele>
        <time>2014-01-11T08:42:31.000Z</time>
      </trkpt>
      <trkpt lat="45.18239" lon="6.35596">
        <ele>2119.1999511719</ele>
        <time>2014-01-11T08:42:34.000Z</time>
      </trkpt>
      <trkpt lat="45.18239" lon="6.35596">
        <ele>2119.1999511719</ele>
        <time>2014-01-11T08:42:35.000Z</time>
      </trkpt>
      <trkpt lat="45.18239" lon="6.35596">
        <ele>2119.3999023438</ele>
        <time>2014-01-11T08:42:38.000Z</time>
      </trkpt>
      <trkpt lat="45.18239" lon="6.35596">
        <ele>2119.3999023438</ele>
        <time>2014-01-11T08:42:39.000Z</time>
      </trkpt>
      <trkpt lat="45.18239" lon="6.35596">
        <ele>2119.3999023438</ele>
        <time>2014-01-11T08:42:40.000Z</time>
      </trkpt>
      <trkpt lat="45.18239" lon="6.35596">
        <ele>2119.3999023438</ele>
        <time>2014-01-11T08:42:41.000Z</time>
      </trkpt>
      <trkpt lat="45.18239" lon="6.35596">
        <ele>2119.3999023438</ele>
        <time>2014-01-11T08:42:42.000Z</time>
      </trkpt>
      <trkpt lat="45.18239" lon="6.35596">
        <ele>2119.3999023438</ele>
        <time>2014-01-11T08:42:43.000Z</time>
      </trkpt>
      <trkpt lat="45.18239" lon="6.35596">
        <ele>2119.3999023438</ele>
        <time>2014-01-11T08:42:44.000Z</time>
      </trkpt>
      <trkpt lat="45.18239" lon="6.35596">
        <ele>2119.3999023438</ele>
        <time>2014-01-11T08:42:45.000Z</time>
      </trkpt>
      <trkpt lat="45.18239" lon="6.35596">
        <ele>2119.3999023438</ele>
        <time>2014-01-11T08:42:48.000Z</time>
      </trkpt>
      <trkpt lat="45.18239" lon="6.35596">
        <ele>2119.3999023438</ele>
        <time>2014-01-11T08:42:49.000Z</time>
      </trkpt>
      <trkpt lat="45.18239" lon="6.35596">
        <ele>2119.3999023438</ele>
        <time>2014-01-11T08:42:50.000Z</time>
      </trkpt>
      <trkpt lat="45.18239" lon="6.35596">
        <ele>2119.3999023438</ele>
        <time>2014-01-11T08:42:52.000Z</time>
      </trkpt>
      <trkpt lat="45.18239" lon="6.35596">
        <ele>2119.3999023438</ele>
        <time>2014-01-11T08:42:53.000Z</time>
      </trkpt>
      <trkpt lat="45.18239" lon="6.35596">
        <ele>2119.3999023438</ele>
        <time>2014-01-11T08:42:54.000Z</time>
      </trkpt>
      <trkpt lat="45.18239" lon="6.35596">
        <ele>2119.3999023438</ele>
        <time>2014-01-11T08:42:55.000Z</time>
      </trkpt>
      <trkpt lat="45.18239" lon="6.35596">
        <ele>2119.3999023438</ele>
        <time>2014-01-11T08:42:56.000Z</time>
      </trkpt>
      <trkpt lat="45.18239" lon="6.35596">
        <ele>2119.3999023438</ele>
        <time>2014-01-11T08:42:58.000Z</time>
      </trkpt>
      <trkpt lat="45.18239" lon="6.35596">
        <ele>2119.3999023438</ele>
        <time>2014-01-11T08:43:00.000Z</time>
      </trkpt>
      <trkpt lat="45.18239" lon="6.35596">
        <ele>2119.3999023438</ele>
        <time>2014-01-11T08:43:11.000Z</time>
      </trkpt>
      <trkpt lat="45.18239" lon="6.35596">
        <ele>2119.3999023438</ele>
        <time>2014-01-11T08:43:12.000Z</time>
      </trkpt>
      <trkpt lat="45.18239" lon="6.35596">
        <ele>2119.3999023438</ele>
        <time>2014-01-11T08:43:13.000Z</time>
      </trkpt>
      <trkpt lat="45.18239" lon="6.35596">
        <ele>2119.3999023438</ele>
        <time>2014-01-11T08:43:14.000Z</time>
      </trkpt>
      <trkpt lat="45.18239" lon="6.35596">
        <ele>2119.1999511719</ele>
        <time>2014-01-11T08:43:15.000Z</time>
      </trkpt>
      <trkpt lat="45.18239" lon="6.35596">
        <ele>2119.1999511719</ele>
        <time>2014-01-11T08:43:16.000Z</time>
      </trkpt>
      <trkpt lat="45.18239" lon="6.35596">
        <ele>2119.1999511719</ele>
        <time>2014-01-11T08:43:17.000Z</time>
      </trkpt>
      <trkpt lat="45.18239" lon="6.35596">
        <ele>2119.1999511719</ele>
        <time>2014-01-11T08:43:18.000Z</time>
      </trkpt>
      <trkpt lat="45.18239" lon="6.35596">
        <ele>2119.1999511719</ele>
        <time>2014-01-11T08:43:20.000Z</time>
      </trkpt>
      <trkpt lat="45.18239" lon="6.35596">
        <ele>2119.1999511719</ele>
        <time>2014-01-11T08:43:21.000Z</time>
      </trkpt>
      <trkpt lat="45.18239" lon="6.35596">
        <ele>2119.1999511719</ele>
        <time>2014-01-11T08:43:22.000Z</time>
      </trkpt>
      <trkpt lat="45.18239" lon="6.35596">
        <ele>2119.1999511719</ele>
        <time>2014-01-11T08:43:26.000Z</time>
      </trkpt>
      <trkpt lat="45.18239" lon="6.35596">
        <ele>2119.1999511719</ele>
        <time>2014-01-11T08:43:27.000Z</time>
      </trkpt>
      <trkpt lat="45.18239" lon="6.35596">
        <ele>2119.1999511719</ele>
        <time>2014-01-11T08:43:31.000Z</time>
      </trkpt>
      <trkpt lat="45.18239" lon="6.35596">
        <ele>2119.1999511719</ele>
        <time>2014-01-11T08:43:32.000Z</time>
      </trkpt>
      <trkpt lat="45.18239" lon="6.35596">
        <ele>2119.1999511719</ele>
        <time>2014-01-11T08:43:33.000Z</time>
      </trkpt>
      <trkpt lat="45.18239" lon="6.35596">
        <ele>2119.1999511719</ele>
        <time>2014-01-11T08:43:34.000Z</time>
      </trkpt>
      <trkpt lat="45.18239" lon="6.35596">
        <ele>2119.1999511719</ele>
        <time>2014-01-11T08:43:35.000Z</time>
      </trkpt>
      <trkpt lat="45.18239" lon="6.35596">
        <ele>2119.1999511719</ele>
        <time>2014-01-11T08:43:36.000Z</time>
      </trkpt>
      <trkpt lat="45.18239" lon="6.35596">
        <ele>2119.1999511719</ele>
        <time>2014-01-11T08:43:37.000Z</time>
      </trkpt>
      <trkpt lat="45.18239" lon="6.35596">
        <ele>2119.1999511719</ele>
        <time>2014-01-11T08:43:38.000Z</time>
      </trkpt>
      <trkpt lat="45.18239" lon="6.35596">
        <ele>2119.1999511719</ele>
        <time>2014-01-11T08:43:40.000Z</time>
      </trkpt>
      <trkpt lat="45.18239" lon="6.35596">
        <ele>2119.1999511719</ele>
        <time>2014-01-11T08:43:41.000Z</time>
      </trkpt>
      <trkpt lat="45.18239" lon="6.35596">
        <ele>2119.1999511719</ele>
        <time>2014-01-11T08:43:42.000Z</time>
      </trkpt>
      <trkpt lat="45.18239" lon="6.35596">
        <ele>2119.1999511719</ele>
        <time>2014-01-11T08:43:45.000Z</time>
      </trkpt>
      <trkpt lat="45.18239" lon="6.35596">
        <ele>2119.1999511719</ele>
        <time>2014-01-11T08:43:47.000Z</time>
      </trkpt>
      <trkpt lat="45.18239" lon="6.35596">
        <ele>2119.1999511719</ele>
        <time>2014-01-11T08:43:48.000Z</time>
      </trkpt>
      <trkpt lat="45.18239" lon="6.35596">
        <ele>2119.1999511719</ele>
        <time>2014-01-11T08:43:49.000Z</time>
      </trkpt>
      <trkpt lat="45.18239" lon="6.35596">
        <ele>2119.1999511719</ele>
        <time>2014-01-11T08:43:57.000Z</time>
      </trkpt>
      <trkpt lat="45.18239" lon="6.35596">
        <ele>2119.1999511719</ele>
        <time>2014-01-11T08:44:04.000Z</time>
      </trkpt>
      <trkpt lat="45.18239" lon="6.35596">
        <ele>2119.1999511719</ele>
        <time>2014-01-11T08:44:09.000Z</time>
      </trkpt>
      <trkpt lat="45.18239" lon="6.35596">
        <ele>2119.1999511719</ele>
        <time>2014-01-11T08:44:10.000Z</time>
      </trkpt>
      <trkpt lat="45.18239" lon="6.35596">
        <ele>2119</ele>
        <time>2014-01-11T08:44:11.000Z</time>
      </trkpt>
      <trkpt lat="45.18239" lon="6.35596">
        <ele>2119</ele>
        <time>2014-01-11T08:44:12.000Z</time>
      </trkpt>
      <trkpt lat="45.18239" lon="6.35596">
        <ele>2119</ele>
        <time>2014-01-11T08:44:18.000Z</time>
      </trkpt>
      <trkpt lat="45.18239" lon="6.35596">
        <ele>2119</ele>
        <time>2014-01-11T08:44:19.000Z</time>
      </trkpt>
      <trkpt lat="45.18239" lon="6.35596">
        <ele>2119</ele>
        <time>2014-01-11T08:44:20.000Z</time>
      </trkpt>
      <trkpt lat="45.18239" lon="6.35596">
        <ele>2119</ele>
        <time>2014-01-11T08:44:22.000Z</time>
      </trkpt>
      <trkpt lat="45.18239" lon="6.35596">
        <ele>2119</ele>
        <time>2014-01-11T08:44:23.000Z</time>
      </trkpt>
      <trkpt lat="45.18239" lon="6.35596">
        <ele>2119</ele>
        <time>2014-01-11T08:44:24.000Z</time>
      </trkpt>
      <trkpt lat="45.18239" lon="6.35596">
        <ele>2119</ele>
        <time>2014-01-11T08:44:27.000Z</time>
      </trkpt>
      <trkpt lat="45.18239" lon="6.35596">
        <ele>2119</ele>
        <time>2014-01-11T08:44:28.000Z</time>
      </trkpt>
      <trkpt lat="45.18239" lon="6.35596">
        <ele>2119</ele>
        <time>2014-01-11T08:44:31.000Z</time>
      </trkpt>
      <trkpt lat="45.18239" lon="6.35596">
        <ele>2119</ele>
        <time>2014-01-11T08:44:32.000Z</time>
      </trkpt>
      <trkpt lat="45.18239" lon="6.35596">
        <ele>2119</ele>
        <time>2014-01-11T08:44:33.000Z</time>
      </trkpt>
      <trkpt lat="45.18239" lon="6.35596">
        <ele>2119</ele>
        <time>2014-01-11T08:44:35.000Z</time>
      </trkpt>
      <trkpt lat="45.18239" lon="6.35596">
        <ele>2119</ele>
        <time>2014-01-11T08:44:36.000Z</time>
      </trkpt>
      <trkpt lat="45.18239" lon="6.35596">
        <ele>2119</ele>
        <time>2014-01-11T08:44:37.000Z</time>
      </trkpt>
      <trkpt lat="45.18239" lon="6.35596">
        <ele>2119</ele>
        <time>2014-01-11T08:44:38.000Z</time>
      </trkpt>
      <trkpt lat="45.18239" lon="6.35596">
        <ele>2119</ele>
        <time>2014-01-11T08:44:39.000Z</time>
      </trkpt>
      <trkpt lat="45.18239" lon="6.35596">
        <ele>2119</ele>
        <time>2014-01-11T08:44:41.000Z</time>
      </trkpt>
      <trkpt lat="45.18239" lon="6.35596">
        <ele>2119</ele>
        <time>2014-01-11T08:44:42.000Z</time>
      </trkpt>
      <trkpt lat="45.18239" lon="6.35596">
        <ele>2119.1999511719</ele>
        <time>2014-01-11T08:44:43.000Z</time>
      </trkpt>
      <trkpt lat="45.18239" lon="6.35596">
        <ele>2119.1999511719</ele>
        <time>2014-01-11T08:44:44.000Z</time>
      </trkpt>
      <trkpt lat="45.18239" lon="6.35596">
        <ele>2119.1999511719</ele>
        <time>2014-01-11T08:44:45.000Z</time>
      </trkpt>
      <trkpt lat="45.18239" lon="6.35596">
        <ele>2119.1999511719</ele>
        <time>2014-01-11T08:44:46.000Z</time>
      </trkpt>
      <trkpt lat="45.18239" lon="6.35596">
        <ele>2119.1999511719</ele>
        <time>2014-01-11T08:44:47.000Z</time>
      </trkpt>
      <trkpt lat="45.18239" lon="6.35596">
        <ele>2119.1999511719</ele>
        <time>2014-01-11T08:44:50.000Z</time>
      </trkpt>
      <trkpt lat="45.18239" lon="6.35596">
        <ele>2119.1999511719</ele>
        <time>2014-01-11T08:44:51.000Z</time>
      </trkpt>
      <trkpt lat="45.18239" lon="6.35596">
        <ele>2119.1999511719</ele>
        <time>2014-01-11T08:44:52.000Z</time>
      </trkpt>
      <trkpt lat="45.18239" lon="6.35596">
        <ele>2119.1999511719</ele>
        <time>2014-01-11T08:44:53.000Z</time>
      </trkpt>
      <trkpt lat="45.18239" lon="6.35596">
        <ele>2119.1999511719</ele>
        <time>2014-01-11T08:44:54.000Z</time>
      </trkpt>
      <trkpt lat="45.18239" lon="6.35596">
        <ele>2119.1999511719</ele>
        <time>2014-01-11T08:44:55.000Z</time>
      </trkpt>
      <trkpt lat="45.18239" lon="6.35597">
        <ele>2119</ele>
        <time>2014-01-11T08:44:56.000Z</time>
      </trkpt>
      <trkpt lat="45.18239" lon="6.35597">
        <ele>2119</ele>
        <time>2014-01-11T08:44:57.000Z</time>
      </trkpt>
      <trkpt lat="45.18239" lon="6.35597">
        <ele>2119</ele>
        <time>2014-01-11T08:44:58.000Z</time>
      </trkpt>
      <trkpt lat="45.18239" lon="6.35597">
        <ele>2119</ele>
        <time>2014-01-11T08:44:59.000Z</time>
      </trkpt>
      <trkpt lat="45.18239" lon="6.35597">
        <ele>2119</ele>
        <time>2014-01-11T08:45:00.000Z</time>
      </trkpt>
      <trkpt lat="45.18239" lon="6.35597">
        <ele>2119</ele>
        <time>2014-01-11T08:45:01.000Z</time>
      </trkpt>
      <trkpt lat="45.18239" lon="6.35597">
        <ele>2119</ele>
        <time>2014-01-11T08:45:02.000Z</time>
      </trkpt>
      <trkpt lat="45.18239" lon="6.35597">
        <ele>2119</ele>
        <time>2014-01-11T08:45:03.000Z</time>
      </trkpt>
      <trkpt lat="45.18239" lon="6.35597">
        <ele>2119</ele>
        <time>2014-01-11T08:45:04.000Z</time>
      </trkpt>
      <trkpt lat="45.18239" lon="6.35597">
        <ele>2119.1999511719</ele>
        <time>2014-01-11T08:45:05.000Z</time>
      </trkpt>
      <trkpt lat="45.18239" lon="6.35597">
        <ele>2119.1999511719</ele>
        <time>2014-01-11T08:45:06.000Z</time>
      </trkpt>
      <trkpt lat="45.18239" lon="6.35597">
        <ele>2119.1999511719</ele>
        <time>2014-01-11T08:45:07.000Z</time>
      </trkpt>
      <trkpt lat="45.18239" lon="6.35597">
        <ele>2119.1999511719</ele>
        <time>2014-01-11T08:45:08.000Z</time>
      </trkpt>
      <trkpt lat="45.18239" lon="6.35597">
        <ele>2119.1999511719</ele>
        <time>2014-01-11T08:45:09.000Z</time>
      </trkpt>
      <trkpt lat="45.18239" lon="6.35597">
        <ele>2119.1999511719</ele>
        <time>2014-01-11T08:45:12.000Z</time>
      </trkpt>
      <trkpt lat="45.18239" lon="6.35597">
        <ele>2119.1999511719</ele>
        <time>2014-01-11T08:45:13.000Z</time>
      </trkpt>
      <trkpt lat="45.18239" lon="6.35597">
        <ele>2119.1999511719</ele>
        <time>2014-01-11T08:45:14.000Z</time>
      </trkpt>
      <trkpt lat="45.18239" lon="6.35597">
        <ele>2119.1999511719</ele>
        <time>2014-01-11T08:45:15.000Z</time>
      </trkpt>
      <trkpt lat="45.18239" lon="6.35597">
        <ele>2119.1999511719</ele>
        <time>2014-01-11T08:45:16.000Z</time>
      </trkpt>
      <trkpt lat="45.18239" lon="6.35597">
        <ele>2119.1999511719</ele>
        <time>2014-01-11T08:45:18.000Z</time>
      </trkpt>
      <trkpt lat="45.18239" lon="6.35597">
        <ele>2119.1999511719</ele>
        <time>2014-01-11T08:45:19.000Z</time>
      </trkpt>
      <trkpt lat="45.18239" lon="6.35597">
        <ele>2119.1999511719</ele>
        <time>2014-01-11T08:45:20.000Z</time>
      </trkpt>
      <trkpt lat="45.18239" lon="6.35597">
        <ele>2119.1999511719</ele>
        <time>2014-01-11T08:45:21.000Z</time>
      </trkpt>
      <trkpt lat="45.18238" lon="6.35596">
        <ele>2119.1999511719</ele>
        <time>2014-01-11T08:45:25.000Z</time>
      </trkpt>
      <trkpt lat="45.18238" lon="6.35596">
        <ele>2119.1999511719</ele>
        <time>2014-01-11T08:45:26.000Z</time>
      </trkpt>
      <trkpt lat="45.18238" lon="6.35596">
        <ele>2119.1999511719</ele>
        <time>2014-01-11T08:45:28.000Z</time>
      </trkpt>
      <trkpt lat="45.18238" lon="6.35596">
        <ele>2119.1999511719</ele>
        <time>2014-01-11T08:45:29.000Z</time>
      </trkpt>
      <trkpt lat="45.18238" lon="6.35596">
        <ele>2119.1999511719</ele>
        <time>2014-01-11T08:45:30.000Z</time>
      </trkpt>
      <trkpt lat="45.18238" lon="6.35596">
        <ele>2119.1999511719</ele>
        <time>2014-01-11T08:45:34.000Z</time>
      </trkpt>
      <trkpt lat="45.18238" lon="6.35596">
        <ele>2119.1999511719</ele>
        <time>2014-01-11T08:45:37.000Z</time>
      </trkpt>
      <trkpt lat="45.18238" lon="6.35596">
        <ele>2119.1999511719</ele>
        <time>2014-01-11T08:45:38.000Z</time>
      </trkpt>
      <trkpt lat="45.18238" lon="6.35596">
        <ele>2119.1999511719</ele>
        <time>2014-01-11T08:45:39.000Z</time>
      </trkpt>
      <trkpt lat="45.18238" lon="6.35596">
        <ele>2119.1999511719</ele>
        <time>2014-01-11T08:45:40.000Z</time>
      </trkpt>
      <trkpt lat="45.18238" lon="6.35596">
        <ele>2119</ele>
        <time>2014-01-11T08:45:41.000Z</time>
      </trkpt>
      <trkpt lat="45.18238" lon="6.35596">
        <ele>2119</ele>
        <time>2014-01-11T08:45:42.000Z</time>
      </trkpt>
      <trkpt lat="45.18238" lon="6.35596">
        <ele>2119</ele>
        <time>2014-01-11T08:45:43.000Z</time>
      </trkpt>
      <trkpt lat="45.18238" lon="6.35596">
        <ele>2119</ele>
        <time>2014-01-11T08:45:44.000Z</time>
      </trkpt>
      <trkpt lat="45.18238" lon="6.35596">
        <ele>2119</ele>
        <time>2014-01-11T08:45:45.000Z</time>
      </trkpt>
      <trkpt lat="45.18238" lon="6.35596">
        <ele>2119</ele>
        <time>2014-01-11T08:45:46.000Z</time>
      </trkpt>
      <trkpt lat="45.18238" lon="6.35596">
        <ele>2119</ele>
        <time>2014-01-11T08:45:50.000Z</time>
      </trkpt>
      <trkpt lat="45.18238" lon="6.35596">
        <ele>2119</ele>
        <time>2014-01-11T08:45:53.000Z</time>
      </trkpt>
      <trkpt lat="45.18238" lon="6.35596">
        <ele>2119</ele>
        <time>2014-01-11T08:45:54.000Z</time>
      </trkpt>
      <trkpt lat="45.18238" lon="6.35596">
        <ele>2119</ele>
        <time>2014-01-11T08:45:55.000Z</time>
      </trkpt>
      <trkpt lat="45.18238" lon="6.35596">
        <ele>2119.1999511719</ele>
        <time>2014-01-11T08:45:56.000Z</time>
      </trkpt>
      <trkpt lat="45.18238" lon="6.35596">
        <ele>2119.1999511719</ele>
        <time>2014-01-11T08:45:57.000Z</time>
      </trkpt>
      <trkpt lat="45.18238" lon="6.35596">
        <ele>2119</ele>
        <time>2014-01-11T08:45:58.000Z</time>
      </trkpt>
      <trkpt lat="45.18238" lon="6.35596">
        <ele>2119</ele>
        <time>2014-01-11T08:45:59.000Z</time>
      </trkpt>
      <trkpt lat="45.18238" lon="6.35596">
        <ele>2119</ele>
        <time>2014-01-11T08:46:00.000Z</time>
      </trkpt>
      <trkpt lat="45.18238" lon="6.35596">
        <ele>2119</ele>
        <time>2014-01-11T08:46:01.000Z</time>
      </trkpt>
      <trkpt lat="45.18238" lon="6.35596">
        <ele>2119</ele>
        <time>2014-01-11T08:46:02.000Z</time>
      </trkpt>
      <trkpt lat="45.18238" lon="6.35596">
        <ele>2119</ele>
        <time>2014-01-11T08:46:07.000Z</time>
      </trkpt>
      <trkpt lat="45.18238" lon="6.35596">
        <ele>2119</ele>
        <time>2014-01-11T08:46:08.000Z</time>
      </trkpt>
      <trkpt lat="45.18238" lon="6.35596">
        <ele>2119</ele>
        <time>2014-01-11T08:46:09.000Z</time>
      </trkpt>
      <trkpt lat="45.18238" lon="6.35596">
        <ele>2119.1999511719</ele>
        <time>2014-01-11T08:46:10.000Z</time>
      </trkpt>
      <trkpt lat="45.18238" lon="6.35596">
        <ele>2119.1999511719</ele>
        <time>2014-01-11T08:46:11.000Z</time>
      </trkpt>
      <trkpt lat="45.18238" lon="6.35596">
        <ele>2119.1999511719</ele>
        <time>2014-01-11T08:46:12.000Z</time>
      </trkpt>
      <trkpt lat="45.18238" lon="6.35596">
        <ele>2119.1999511719</ele>
        <time>2014-01-11T08:46:13.000Z</time>
      </trkpt>
      <trkpt lat="45.18238" lon="6.35596">
        <ele>2119.1999511719</ele>
        <time>2014-01-11T08:46:14.000Z</time>
      </trkpt>
      <trkpt lat="45.18238" lon="6.35596">
        <ele>2119.1999511719</ele>
        <time>2014-01-11T08:46:15.000Z</time>
      </trkpt>
      <trkpt lat="45.18238" lon="6.35596">
        <ele>2119.1999511719</ele>
        <time>2014-01-11T08:46:16.000Z</time>
      </trkpt>
      <trkpt lat="45.18238" lon="6.35596">
        <ele>2119.1999511719</ele>
        <time>2014-01-11T08:46:17.000Z</time>
      </trkpt>
      <trkpt lat="45.18238" lon="6.35596">
        <ele>2119.1999511719</ele>
        <time>2014-01-11T08:46:18.000Z</time>
      </trkpt>
      <trkpt lat="45.18238" lon="6.35596">
        <ele>2119.1999511719</ele>
        <time>2014-01-11T08:46:19.000Z</time>
      </trkpt>
      <trkpt lat="45.18238" lon="6.35596">
        <ele>2119.1999511719</ele>
        <time>2014-01-11T08:46:20.000Z</time>
      </trkpt>
      <trkpt lat="45.18238" lon="6.35596">
        <ele>2119.3999023438</ele>
        <time>2014-01-11T08:46:21.000Z</time>
      </trkpt>
      <trkpt lat="45.18238" lon="6.35596">
        <ele>2119.3999023438</ele>
        <time>2014-01-11T08:46:22.000Z</time>
      </trkpt>
      <trkpt lat="45.18238" lon="6.35596">
        <ele>2119.3999023438</ele>
        <time>2014-01-11T08:46:23.000Z</time>
      </trkpt>
      <trkpt lat="45.18238" lon="6.35596">
        <ele>2119.3999023438</ele>
        <time>2014-01-11T08:46:27.000Z</time>
      </trkpt>
      <trkpt lat="45.18238" lon="6.35596">
        <ele>2119.3999023438</ele>
        <time>2014-01-11T08:46:28.000Z</time>
      </trkpt>
      <trkpt lat="45.18238" lon="6.35596">
        <ele>2119.1999511719</ele>
        <time>2014-01-11T08:46:29.000Z</time>
      </trkpt>
      <trkpt lat="45.18238" lon="6.35596">
        <ele>2119.1999511719</ele>
        <time>2014-01-11T08:46:30.000Z</time>
      </trkpt>
      <trkpt lat="45.18238" lon="6.35596">
        <ele>2119.1999511719</ele>
        <time>2014-01-11T08:46:31.000Z</time>
      </trkpt>
      <trkpt lat="45.18238" lon="6.35596">
        <ele>2119.1999511719</ele>
        <time>2014-01-11T08:46:32.000Z</time>
      </trkpt>
      <trkpt lat="45.18238" lon="6.35596">
        <ele>2119.1999511719</ele>
        <time>2014-01-11T08:46:33.000Z</time>
      </trkpt>
      <trkpt lat="45.18238" lon="6.35596">
        <ele>2119.1999511719</ele>
        <time>2014-01-11T08:46:34.000Z</time>
      </trkpt>
      <trkpt lat="45.18238" lon="6.35596">
        <ele>2119.1999511719</ele>
        <time>2014-01-11T08:46:35.000Z</time>
      </trkpt>
      <trkpt lat="45.18238" lon="6.35596">
        <ele>2119.1999511719</ele>
        <time>2014-01-11T08:46:40.000Z</time>
      </trkpt>
      <trkpt lat="45.18238" lon="6.35596">
        <ele>2119.1999511719</ele>
        <time>2014-01-11T08:46:41.000Z</time>
      </trkpt>
      <trkpt lat="45.18238" lon="6.35596">
        <ele>2119.1999511719</ele>
        <time>2014-01-11T08:46:42.000Z</time>
      </trkpt>
      <trkpt lat="45.18238" lon="6.35596">
        <ele>2119.1999511719</ele>
        <time>2014-01-11T08:46:43.000Z</time>
      </trkpt>
      <trkpt lat="45.18238" lon="6.35596">
        <ele>2119.1999511719</ele>
        <time>2014-01-11T08:46:44.000Z</time>
      </trkpt>
      <trkpt lat="45.18238" lon="6.35596">
        <ele>2119.1999511719</ele>
        <time>2014-01-11T08:46:45.000Z</time>
      </trkpt>
      <trkpt lat="45.18238" lon="6.35596">
        <ele>2119.1999511719</ele>
        <time>2014-01-11T08:46:46.000Z</time>
      </trkpt>
      <trkpt lat="45.18238" lon="6.35596">
        <ele>2119.1999511719</ele>
        <time>2014-01-11T08:46:47.000Z</time>
      </trkpt>
      <trkpt lat="45.18238" lon="6.35596">
        <ele>2119.1999511719</ele>
        <time>2014-01-11T08:46:48.000Z</time>
      </trkpt>
      <trkpt lat="45.18238" lon="6.35596">
        <ele>2119.1999511719</ele>
        <time>2014-01-11T08:46:51.000Z</time>
      </trkpt>
      <trkpt lat="45.18238" lon="6.35596">
        <ele>2119.1999511719</ele>
        <time>2014-01-11T08:46:53.000Z</time>
      </trkpt>
      <trkpt lat="45.18238" lon="6.35596">
        <ele>2119.1999511719</ele>
        <time>2014-01-11T08:46:54.000Z</time>
      </trkpt>
      <trkpt lat="45.18238" lon="6.35596">
        <ele>2119.1999511719</ele>
        <time>2014-01-11T08:46:55.000Z</time>
      </trkpt>
      <trkpt lat="45.18238" lon="6.35596">
        <ele>2119.1999511719</ele>
        <time>2014-01-11T08:46:58.000Z</time>
      </trkpt>
      <trkpt lat="45.18238" lon="6.35596">
        <ele>2119.1999511719</ele>
        <time>2014-01-11T08:47:01.000Z</time>
      </trkpt>
      <trkpt lat="45.18238" lon="6.35596">
        <ele>2119.1999511719</ele>
        <time>2014-01-11T08:47:02.000Z</time>
      </trkpt>
      <trkpt lat="45.18238" lon="6.35596">
        <ele>2119.1999511719</ele>
        <time>2014-01-11T08:47:03.000Z</time>
      </trkpt>
      <trkpt lat="45.18238" lon="6.35596">
        <ele>2119</ele>
        <time>2014-01-11T08:47:04.000Z</time>
      </trkpt>
      <trkpt lat="45.18238" lon="6.35596">
        <ele>2119</ele>
        <time>2014-01-11T08:47:07.000Z</time>
      </trkpt>
      <trkpt lat="45.18238" lon="6.35596">
        <ele>2119</ele>
        <time>2014-01-11T08:47:08.000Z</time>
      </trkpt>
      <trkpt lat="45.18238" lon="6.35596">
        <ele>2119</ele>
        <time>2014-01-11T08:47:09.000Z</time>
      </trkpt>
      <trkpt lat="45.18238" lon="6.35596">
        <ele>2119</ele>
        <time>2014-01-11T08:47:12.000Z</time>
      </trkpt>
      <trkpt lat="45.18238" lon="6.35596">
        <ele>2119</ele>
        <time>2014-01-11T08:47:13.000Z</time>
      </trkpt>
      <trkpt lat="45.18238" lon="6.35596">
        <ele>2119</ele>
        <time>2014-01-11T08:47:14.000Z</time>
      </trkpt>
      <trkpt lat="45.18238" lon="6.35596">
        <ele>2119</ele>
        <time>2014-01-11T08:47:15.000Z</time>
      </trkpt>
      <trkpt lat="45.18238" lon="6.35596">
        <ele>2119</ele>
        <time>2014-01-11T08:47:16.000Z</time>
      </trkpt>
      <trkpt lat="45.18238" lon="6.35596">
        <ele>2119</ele>
        <time>2014-01-11T08:47:17.000Z</time>
      </trkpt>
      <trkpt lat="45.18238" lon="6.35596">
        <ele>2119</ele>
        <time>2014-01-11T08:47:18.000Z</time>
      </trkpt>
      <trkpt lat="45.18238" lon="6.35596">
        <ele>2119</ele>
        <time>2014-01-11T08:47:19.000Z</time>
      </trkpt>
      <trkpt lat="45.18238" lon="6.35596">
        <ele>2119</ele>
        <time>2014-01-11T08:47:20.000Z</time>
      </trkpt>
      <trkpt lat="45.18238" lon="6.35596">
        <ele>2119</ele>
        <time>2014-01-11T08:47:22.000Z</time>
      </trkpt>
      <trkpt lat="45.18238" lon="6.35596">
        <ele>2119</ele>
        <time>2014-01-11T08:47:23.000Z</time>
      </trkpt>
      <trkpt lat="45.18238" lon="6.35596">
        <ele>2119</ele>
        <time>2014-01-11T08:47:25.000Z</time>
      </trkpt>
      <trkpt lat="45.18238" lon="6.35596">
        <ele>2119</ele>
        <time>2014-01-11T08:47:32.000Z</time>
      </trkpt>
      <trkpt lat="45.18238" lon="6.35596">
        <ele>2119</ele>
        <time>2014-01-11T08:47:34.000Z</time>
      </trkpt>
      <trkpt lat="45.18238" lon="6.35596">
        <ele>2119</ele>
        <time>2014-01-11T08:47:35.000Z</time>
      </trkpt>
      <trkpt lat="45.18238" lon="6.35596">
        <ele>2119</ele>
        <time>2014-01-11T08:47:36.000Z</time>
      </trkpt>
      <trkpt lat="45.18238" lon="6.35596">
        <ele>2119</ele>
        <time>2014-01-11T08:47:37.000Z</time>
      </trkpt>
      <trkpt lat="45.18238" lon="6.35596">
        <ele>2119</ele>
        <time>2014-01-11T08:47:38.000Z</time>
      </trkpt>
      <trkpt lat="45.18238" lon="6.35596">
        <ele>2119</ele>
        <time>2014-01-11T08:47:39.000Z</time>
      </trkpt>
      <trkpt lat="45.18238" lon="6.35596">
        <ele>2119</ele>
        <time>2014-01-11T08:47:41.000Z</time>
      </trkpt>
      <trkpt lat="45.18238" lon="6.35597">
        <ele>2119</ele>
        <time>2014-01-11T08:47:42.000Z</time>
      </trkpt>
      <trkpt lat="45.18238" lon="6.35597">
        <ele>2119</ele>
        <time>2014-01-11T08:47:43.000Z</time>
      </trkpt>
      <trkpt lat="45.18238" lon="6.35597">
        <ele>2119</ele>
        <time>2014-01-11T08:47:44.000Z</time>
      </trkpt>
      <trkpt lat="45.18238" lon="6.35597">
        <ele>2119</ele>
        <time>2014-01-11T08:47:45.000Z</time>
      </trkpt>
      <trkpt lat="45.18238" lon="6.35597">
        <ele>2119</ele>
        <time>2014-01-11T08:47:46.000Z</time>
      </trkpt>
      <trkpt lat="45.18238" lon="6.35597">
        <ele>2119.1999511719</ele>
        <time>2014-01-11T08:47:47.000Z</time>
      </trkpt>
      <trkpt lat="45.18238" lon="6.35597">
        <ele>2119.1999511719</ele>
        <time>2014-01-11T08:47:48.000Z</time>
      </trkpt>
      <trkpt lat="45.18238" lon="6.35597">
        <ele>2119.1999511719</ele>
        <time>2014-01-11T08:47:49.000Z</time>
      </trkpt>
      <trkpt lat="45.18238" lon="6.35597">
        <ele>2119.3999023438</ele>
        <time>2014-01-11T08:47:50.000Z</time>
      </trkpt>
      <trkpt lat="45.18238" lon="6.35597">
        <ele>2119.3999023438</ele>
        <time>2014-01-11T08:47:51.000Z</time>
      </trkpt>
      <trkpt lat="45.18238" lon="6.35597">
        <ele>2119.6000976562</ele>
        <time>2014-01-11T08:47:52.000Z</time>
      </trkpt>
      <trkpt lat="45.18238" lon="6.35597">
        <ele>2119.6000976562</ele>
        <time>2014-01-11T08:47:53.000Z</time>
      </trkpt>
      <trkpt lat="45.18238" lon="6.35597">
        <ele>2119.6000976562</ele>
        <time>2014-01-11T08:47:54.000Z</time>
      </trkpt>
      <trkpt lat="45.18238" lon="6.35597">
        <ele>2119.6000976562</ele>
        <time>2014-01-11T08:47:55.000Z</time>
      </trkpt>
      <trkpt lat="45.18238" lon="6.35597">
        <ele>2119.6000976562</ele>
        <time>2014-01-11T08:47:57.000Z</time>
      </trkpt>
      <trkpt lat="45.18238" lon="6.35597">
        <ele>2119.6000976562</ele>
        <time>2014-01-11T08:47:58.000Z</time>
      </trkpt>
      <trkpt lat="45.18238" lon="6.35598">
        <ele>2119.6000976562</ele>
        <time>2014-01-11T08:48:01.000Z</time>
      </trkpt>
      <trkpt lat="45.18238" lon="6.35598">
        <ele>2119.8000488281</ele>
        <time>2014-01-11T08:48:02.000Z</time>
      </trkpt>
      <trkpt lat="45.18238" lon="6.35598">
        <ele>2120</ele>
        <time>2014-01-11T08:48:03.000Z</time>
      </trkpt>
      <trkpt lat="45.18238" lon="6.35598">
        <ele>2120</ele>
        <time>2014-01-11T08:48:04.000Z</time>
      </trkpt>
      <trkpt lat="45.18238" lon="6.35598">
        <ele>2120.1999511719</ele>
        <time>2014-01-11T08:48:05.000Z</time>
      </trkpt>
      <trkpt lat="45.18238" lon="6.35598">
        <ele>2120.1999511719</ele>
        <time>2014-01-11T08:48:06.000Z</time>
      </trkpt>
      <trkpt lat="45.18238" lon="6.35598">
        <ele>2120.3999023438</ele>
        <time>2014-01-11T08:48:07.000Z</time>
      </trkpt>
      <trkpt lat="45.18238" lon="6.35598">
        <ele>2120.3999023438</ele>
        <time>2014-01-11T08:48:08.000Z</time>
      </trkpt>
      <trkpt lat="45.18238" lon="6.35598">
        <ele>2120.3999023438</ele>
        <time>2014-01-11T08:48:09.000Z</time>
      </trkpt>
      <trkpt lat="45.18238" lon="6.35598">
        <ele>2120.3999023438</ele>
        <time>2014-01-11T08:48:12.000Z</time>
      </trkpt>
      <trkpt lat="45.18238" lon="6.35598">
        <ele>2120.3999023438</ele>
        <time>2014-01-11T08:48:13.000Z</time>
      </trkpt>
      <trkpt lat="45.18238" lon="6.35598">
        <ele>2120.1999511719</ele>
        <time>2014-01-11T08:48:14.000Z</time>
      </trkpt>
      <trkpt lat="45.18238" lon="6.35598">
        <ele>2120.1999511719</ele>
        <time>2014-01-11T08:48:15.000Z</time>
      </trkpt>
      <trkpt lat="45.18238" lon="6.35598">
        <ele>2120.1999511719</ele>
        <time>2014-01-11T08:48:16.000Z</time>
      </trkpt>
      <trkpt lat="45.18238" lon="6.35598">
        <ele>2120.1999511719</ele>
        <time>2014-01-11T08:48:17.000Z</time>
      </trkpt>
      <trkpt lat="45.18238" lon="6.35598">
        <ele>2120.1999511719</ele>
        <time>2014-01-11T08:48:18.000Z</time>
      </trkpt>
      <trkpt lat="45.18238" lon="6.35598">
        <ele>2120.1999511719</ele>
        <time>2014-01-11T08:48:29.000Z</time>
      </trkpt>
      <trkpt lat="45.18238" lon="6.35598">
        <ele>2120.1999511719</ele>
        <time>2014-01-11T08:48:30.000Z</time>
      </trkpt>
      <trkpt lat="45.18238" lon="6.35598">
        <ele>2120.1999511719</ele>
        <time>2014-01-11T08:48:31.000Z</time>
      </trkpt>
      <trkpt lat="45.18238" lon="6.356">
        <ele>2120.1999511719</ele>
        <time>2014-01-11T08:48:32.000Z</time>
      </trkpt>
      <trkpt lat="45.18237" lon="6.35602">
        <ele>2120</ele>
        <time>2014-01-11T08:48:33.000Z</time>
      </trkpt>
      <trkpt lat="45.18237" lon="6.35605">
        <ele>2120.1999511719</ele>
        <time>2014-01-11T08:48:35.000Z</time>
      </trkpt>
      <trkpt lat="45.18236" lon="6.35606">
        <ele>2120.3999023438</ele>
        <time>2014-01-11T08:48:36.000Z</time>
      </trkpt>
      <trkpt lat="45.18236" lon="6.35607">
        <ele>2120.8000488281</ele>
        <time>2014-01-11T08:48:37.000Z</time>
      </trkpt>
      <trkpt lat="45.18235" lon="6.35608">
        <ele>2121</ele>
        <time>2014-01-11T08:48:38.000Z</time>
      </trkpt>
      <trkpt lat="45.18235" lon="6.35609">
        <ele>2121.3999023438</ele>
        <time>2014-01-11T08:48:39.000Z</time>
      </trkpt>
      <trkpt lat="45.18234" lon="6.35609">
        <ele>2121.6000976562</ele>
        <time>2014-01-11T08:48:40.000Z</time>
      </trkpt>
      <trkpt lat="45.18234" lon="6.35611">
        <ele>2121.8000488281</ele>
        <time>2014-01-11T08:48:41.000Z</time>
      </trkpt>
      <trkpt lat="45.18234" lon="6.35612">
        <ele>2122</ele>
        <time>2014-01-11T08:48:42.000Z</time>
      </trkpt>
      <trkpt lat="45.18234" lon="6.35613">
        <ele>2122.3999023438</ele>
        <time>2014-01-11T08:48:43.000Z</time>
      </trkpt>
      <trkpt lat="45.18233" lon="6.35613">
        <ele>2122.6000976562</ele>
        <time>2014-01-11T08:48:44.000Z</time>
      </trkpt>
      <trkpt lat="45.18233" lon="6.35614">
        <ele>2123</ele>
        <time>2014-01-11T08:48:45.000Z</time>
      </trkpt>
      <trkpt lat="45.18233" lon="6.35616">
        <ele>2123.1999511719</ele>
        <time>2014-01-11T08:48:46.000Z</time>
      </trkpt>
      <trkpt lat="45.18232" lon="6.35616">
        <ele>2123.6000976562</ele>
        <time>2014-01-11T08:48:47.000Z</time>
      </trkpt>
      <trkpt lat="45.18232" lon="6.35617">
        <ele>2123.8000488281</ele>
        <time>2014-01-11T08:48:48.000Z</time>
      </trkpt>
      <trkpt lat="45.18232" lon="6.35618">
        <ele>2124</ele>
        <time>2014-01-11T08:48:49.000Z</time>
      </trkpt>
      <trkpt lat="45.18231" lon="6.35619">
        <ele>2124.3999023438</ele>
        <time>2014-01-11T08:48:50.000Z</time>
      </trkpt>
      <trkpt lat="45.18231" lon="6.3562">
        <ele>2124.8000488281</ele>
        <time>2014-01-11T08:48:51.000Z</time>
      </trkpt>
      <trkpt lat="45.18231" lon="6.3562">
        <ele>2125.1999511719</ele>
        <time>2014-01-11T08:48:52.000Z</time>
      </trkpt>
      <trkpt lat="45.18231" lon="6.3562">
        <ele>2125.3999023438</ele>
        <time>2014-01-11T08:48:53.000Z</time>
      </trkpt>
      <trkpt lat="45.18231" lon="6.35621">
        <ele>2125.6000976562</ele>
        <time>2014-01-11T08:48:54.000Z</time>
      </trkpt>
      <trkpt lat="45.18231" lon="6.35622">
        <ele>2125.8000488281</ele>
        <time>2014-01-11T08:48:55.000Z</time>
      </trkpt>
      <trkpt lat="45.1823" lon="6.35623">
        <ele>2126</ele>
        <time>2014-01-11T08:48:56.000Z</time>
      </trkpt>
      <trkpt lat="45.1823" lon="6.35624">
        <ele>2126.1999511719</ele>
        <time>2014-01-11T08:48:57.000Z</time>
      </trkpt>
      <trkpt lat="45.18229" lon="6.35625">
        <ele>2126.6000976562</ele>
        <time>2014-01-11T08:48:58.000Z</time>
      </trkpt>
      <trkpt lat="45.18229" lon="6.35626">
        <ele>2126.8000488281</ele>
        <time>2014-01-11T08:48:59.000Z</time>
      </trkpt>
      <trkpt lat="45.18229" lon="6.35627">
        <ele>2127</ele>
        <time>2014-01-11T08:49:00.000Z</time>
      </trkpt>
      <trkpt lat="45.18229" lon="6.35628">
        <ele>2127.1999511719</ele>
        <time>2014-01-11T08:49:01.000Z</time>
      </trkpt>
      <trkpt lat="45.18229" lon="6.35628">
        <ele>2127.6000976562</ele>
        <time>2014-01-11T08:49:02.000Z</time>
      </trkpt>
      <trkpt lat="45.18229" lon="6.35629">
        <ele>2127.8000488281</ele>
        <time>2014-01-11T08:49:03.000Z</time>
      </trkpt>
      <trkpt lat="45.18229" lon="6.3563">
        <ele>2128</ele>
        <time>2014-01-11T08:49:04.000Z</time>
      </trkpt>
      <trkpt lat="45.18229" lon="6.35631">
        <ele>2128.1999511719</ele>
        <time>2014-01-11T08:49:05.000Z</time>
      </trkpt>
      <trkpt lat="45.18229" lon="6.35633">
        <ele>2128.3999023438</ele>
        <time>2014-01-11T08:49:06.000Z</time>
      </trkpt>
      <trkpt lat="45.18229" lon="6.35634">
        <ele>2128.6000976562</ele>
        <time>2014-01-11T08:49:07.000Z</time>
      </trkpt>
      <trkpt lat="45.18229" lon="6.35635">
        <ele>2128.8000488281</ele>
        <time>2014-01-11T08:49:08.000Z</time>
      </trkpt>
      <trkpt lat="45.18229" lon="6.35635">
        <ele>2129</ele>
        <time>2014-01-11T08:49:09.000Z</time>
      </trkpt>
      <trkpt lat="45.18229" lon="6.35636">
        <ele>2129.3999023438</ele>
        <time>2014-01-11T08:49:10.000Z</time>
      </trkpt>
      <trkpt lat="45.18229" lon="6.35636">
        <ele>2129.6000976562</ele>
        <time>2014-01-11T08:49:11.000Z</time>
      </trkpt>
      <trkpt lat="45.18229" lon="6.35636">
        <ele>2129.8000488281</ele>
        <time>2014-01-11T08:49:12.000Z</time>
      </trkpt>
      <trkpt lat="45.18229" lon="6.35637">
        <ele>2129.8000488281</ele>
        <time>2014-01-11T08:49:13.000Z</time>
      </trkpt>
      <trkpt lat="45.18229" lon="6.35638">
        <ele>2130</ele>
        <time>2014-01-11T08:49:14.000Z</time>
      </trkpt>
      <trkpt lat="45.1823" lon="6.35639">
        <ele>2130.3999023438</ele>
        <time>2014-01-11T08:49:15.000Z</time>
      </trkpt>
      <trkpt lat="45.1823" lon="6.3564">
        <ele>2130.6000976562</ele>
        <time>2014-01-11T08:49:16.000Z</time>
      </trkpt>
      <trkpt lat="45.1823" lon="6.3564">
        <ele>2130.8000488281</ele>
        <time>2014-01-11T08:49:17.000Z</time>
      </trkpt>
      <trkpt lat="45.1823" lon="6.35641">
        <ele>2131</ele>
        <time>2014-01-11T08:49:18.000Z</time>
      </trkpt>
      <trkpt lat="45.1823" lon="6.35641">
        <ele>2131.1999511719</ele>
        <time>2014-01-11T08:49:19.000Z</time>
      </trkpt>
      <trkpt lat="45.1823" lon="6.35642">
        <ele>2131.3999023438</ele>
        <time>2014-01-11T08:49:20.000Z</time>
      </trkpt>
      <trkpt lat="45.1823" lon="6.35642">
        <ele>2131.6000976562</ele>
        <time>2014-01-11T08:49:21.000Z</time>
      </trkpt>
      <trkpt lat="45.18231" lon="6.35642">
        <ele>2131.8000488281</ele>
        <time>2014-01-11T08:49:22.000Z</time>
      </trkpt>
      <trkpt lat="45.18231" lon="6.35643">
        <ele>2132</ele>
        <time>2014-01-11T08:49:23.000Z</time>
      </trkpt>
      <trkpt lat="45.18231" lon="6.35644">
        <ele>2132.1999511719</ele>
        <time>2014-01-11T08:49:24.000Z</time>
      </trkpt>
      <trkpt lat="45.18231" lon="6.35644">
        <ele>2132.6000976562</ele>
        <time>2014-01-11T08:49:25.000Z</time>
      </trkpt>
      <trkpt lat="45.18231" lon="6.35645">
        <ele>2132.8000488281</ele>
        <time>2014-01-11T08:49:26.000Z</time>
      </trkpt>
      <trkpt lat="45.18231" lon="6.35646">
        <ele>2133</ele>
        <time>2014-01-11T08:49:27.000Z</time>
      </trkpt>
      <trkpt lat="45.18231" lon="6.35647">
        <ele>2133.1999511719</ele>
        <time>2014-01-11T08:49:28.000Z</time>
      </trkpt>
      <trkpt lat="45.18231" lon="6.35648">
        <ele>2133.1999511719</ele>
        <time>2014-01-11T08:49:29.000Z</time>
      </trkpt>
      <trkpt lat="45.18231" lon="6.35648">
        <ele>2133.3999023438</ele>
        <time>2014-01-11T08:49:30.000Z</time>
      </trkpt>
      <trkpt lat="45.18231" lon="6.35648">
        <ele>2133.6000976562</ele>
        <time>2014-01-11T08:49:31.000Z</time>
      </trkpt>
      <trkpt lat="45.18231" lon="6.35648">
        <ele>2133.6000976562</ele>
        <time>2014-01-11T08:49:32.000Z</time>
      </trkpt>
      <trkpt lat="45.18231" lon="6.35648">
        <ele>2133.8000488281</ele>
        <time>2014-01-11T08:49:33.000Z</time>
      </trkpt>
      <trkpt lat="45.18231" lon="6.35648">
        <ele>2134</ele>
        <time>2014-01-11T08:49:34.000Z</time>
      </trkpt>
      <trkpt lat="45.18231" lon="6.35648">
        <ele>2134.1999511719</ele>
        <time>2014-01-11T08:49:35.000Z</time>
      </trkpt>
      <trkpt lat="45.18231" lon="6.35648">
        <ele>2134.3999023438</ele>
        <time>2014-01-11T08:49:36.000Z</time>
      </trkpt>
      <trkpt lat="45.18231" lon="6.35648">
        <ele>2134.3999023438</ele>
        <time>2014-01-11T08:49:37.000Z</time>
      </trkpt>
      <trkpt lat="45.18231" lon="6.35648">
        <ele>2134.6000976562</ele>
        <time>2014-01-11T08:49:38.000Z</time>
      </trkpt>
      <trkpt lat="45.18231" lon="6.35648">
        <ele>2134.6000976562</ele>
        <time>2014-01-11T08:49:39.000Z</time>
      </trkpt>
      <trkpt lat="45.18231" lon="6.35648">
        <ele>2134.6000976562</ele>
        <time>2014-01-11T08:49:40.000Z</time>
      </trkpt>
      <trkpt lat="45.18231" lon="6.35648">
        <ele>2134.6000976562</ele>
        <time>2014-01-11T08:49:41.000Z</time>
      </trkpt>
      <trkpt lat="45.18231" lon="6.35648">
        <ele>2134.3999023438</ele>
        <time>2014-01-11T08:49:42.000Z</time>
      </trkpt>
      <trkpt lat="45.18231" lon="6.35649">
        <ele>2134.3999023438</ele>
        <time>2014-01-11T08:49:43.000Z</time>
      </trkpt>
      <trkpt lat="45.18231" lon="6.3565">
        <ele>2134.3999023438</ele>
        <time>2014-01-11T08:49:44.000Z</time>
      </trkpt>
      <trkpt lat="45.18231" lon="6.35651">
        <ele>2134.3999023438</ele>
        <time>2014-01-11T08:49:45.000Z</time>
      </trkpt>
      <trkpt lat="45.18231" lon="6.35651">
        <ele>2134.3999023438</ele>
        <time>2014-01-11T08:49:46.000Z</time>
      </trkpt>
      <trkpt lat="45.18232" lon="6.35652">
        <ele>2134.6000976562</ele>
        <time>2014-01-11T08:49:47.000Z</time>
      </trkpt>
      <trkpt lat="45.18232" lon="6.35653">
        <ele>2134.6000976562</ele>
        <time>2014-01-11T08:49:48.000Z</time>
      </trkpt>
      <trkpt lat="45.18232" lon="6.35654">
        <ele>2134.8000488281</ele>
        <time>2014-01-11T08:49:49.000Z</time>
      </trkpt>
      <trkpt lat="45.18232" lon="6.35655">
        <ele>2135</ele>
        <time>2014-01-11T08:49:50.000Z</time>
      </trkpt>
      <trkpt lat="45.18233" lon="6.35656">
        <ele>2135.1999511719</ele>
        <time>2014-01-11T08:49:51.000Z</time>
      </trkpt>
      <trkpt lat="45.18233" lon="6.35657">
        <ele>2135.3999023438</ele>
        <time>2014-01-11T08:49:52.000Z</time>
      </trkpt>
      <trkpt lat="45.18233" lon="6.35658">
        <ele>2135.6000976562</ele>
        <time>2014-01-11T08:49:53.000Z</time>
      </trkpt>
      <trkpt lat="45.18233" lon="6.35659">
        <ele>2135.8000488281</ele>
        <time>2014-01-11T08:49:54.000Z</time>
      </trkpt>
      <trkpt lat="45.18233" lon="6.3566">
        <ele>2136.1999511719</ele>
        <time>2014-01-11T08:49:55.000Z</time>
      </trkpt>
      <trkpt lat="45.18233" lon="6.35661">
        <ele>2136.3999023438</ele>
        <time>2014-01-11T08:49:56.000Z</time>
      </trkpt>
      <trkpt lat="45.18233" lon="6.35662">
        <ele>2136.6000976562</ele>
        <time>2014-01-11T08:49:57.000Z</time>
      </trkpt>
      <trkpt lat="45.18233" lon="6.35662">
        <ele>2136.8000488281</ele>
        <time>2014-01-11T08:49:58.000Z</time>
      </trkpt>
      <trkpt lat="45.18233" lon="6.35662">
        <ele>2137.1999511719</ele>
        <time>2014-01-11T08:49:59.000Z</time>
      </trkpt>
      <trkpt lat="45.18233" lon="6.35663">
        <ele>2137.3999023438</ele>
        <time>2014-01-11T08:50:00.000Z</time>
      </trkpt>
      <trkpt lat="45.18232" lon="6.35664">
        <ele>2137.6000976562</ele>
        <time>2014-01-11T08:50:01.000Z</time>
      </trkpt>
      <trkpt lat="45.18232" lon="6.35665">
        <ele>2138</ele>
        <time>2014-01-11T08:50:02.000Z</time>
      </trkpt>
      <trkpt lat="45.18232" lon="6.35665">
        <ele>2138.1999511719</ele>
        <time>2014-01-11T08:50:03.000Z</time>
      </trkpt>
      <trkpt lat="45.18231" lon="6.35665">
        <ele>2138.8000488281</ele>
        <time>2014-01-11T08:50:04.000Z</time>
      </trkpt>
      <trkpt lat="45.18231" lon="6.35665">
        <ele>2139</ele>
        <time>2014-01-11T08:50:05.000Z</time>
      </trkpt>
      <trkpt lat="45.18231" lon="6.35666">
        <ele>2139.1999511719</ele>
        <time>2014-01-11T08:50:06.000Z</time>
      </trkpt>
      <trkpt lat="45.18231" lon="6.35666">
        <ele>2139.3999023438</ele>
        <time>2014-01-11T08:50:07.000Z</time>
      </trkpt>
      <trkpt lat="45.18231" lon="6.35666">
        <ele>2139.6000976562</ele>
        <time>2014-01-11T08:50:08.000Z</time>
      </trkpt>
      <trkpt lat="45.18231" lon="6.35666">
        <ele>2139.8000488281</ele>
        <time>2014-01-11T08:50:09.000Z</time>
      </trkpt>
      <trkpt lat="45.1823" lon="6.35667">
        <ele>2140</ele>
        <time>2014-01-11T08:50:10.000Z</time>
      </trkpt>
      <trkpt lat="45.1823" lon="6.35667">
        <ele>2140.1999511719</ele>
        <time>2014-01-11T08:50:11.000Z</time>
      </trkpt>
      <trkpt lat="45.18229" lon="6.35668">
        <ele>2140.3999023438</ele>
        <time>2014-01-11T08:50:12.000Z</time>
      </trkpt>
      <trkpt lat="45.18229" lon="6.35668">
        <ele>2140.6000976562</ele>
        <time>2014-01-11T08:50:13.000Z</time>
      </trkpt>
      <trkpt lat="45.18229" lon="6.35668">
        <ele>2140.8000488281</ele>
        <time>2014-01-11T08:50:14.000Z</time>
      </trkpt>
      <trkpt lat="45.18228" lon="6.35669">
        <ele>2141</ele>
        <time>2014-01-11T08:50:15.000Z</time>
      </trkpt>
      <trkpt lat="45.18228" lon="6.35669">
        <ele>2141.1999511719</ele>
        <time>2014-01-11T08:50:16.000Z</time>
      </trkpt>
      <trkpt lat="45.18227" lon="6.3567">
        <ele>2141.3999023438</ele>
        <time>2014-01-11T08:50:17.000Z</time>
      </trkpt>
      <trkpt lat="45.18227" lon="6.3567">
        <ele>2141.3999023438</ele>
        <time>2014-01-11T08:50:18.000Z</time>
      </trkpt>
      <trkpt lat="45.18226" lon="6.35671">
        <ele>2141.6000976562</ele>
        <time>2014-01-11T08:50:19.000Z</time>
      </trkpt>
      <trkpt lat="45.18225" lon="6.35671">
        <ele>2141.8000488281</ele>
        <time>2014-01-11T08:50:20.000Z</time>
      </trkpt>
      <trkpt lat="45.18225" lon="6.35672">
        <ele>2142</ele>
        <time>2014-01-11T08:50:21.000Z</time>
      </trkpt>
      <trkpt lat="45.18224" lon="6.35673">
        <ele>2142.1999511719</ele>
        <time>2014-01-11T08:50:22.000Z</time>
      </trkpt>
      <trkpt lat="45.18224" lon="6.35673">
        <ele>2142.3999023438</ele>
        <time>2014-01-11T08:50:23.000Z</time>
      </trkpt>
      <trkpt lat="45.18224" lon="6.35674">
        <ele>2142.3999023438</ele>
        <time>2014-01-11T08:50:24.000Z</time>
      </trkpt>
      <trkpt lat="45.18223" lon="6.35674">
        <ele>2142.6000976562</ele>
        <time>2014-01-11T08:50:25.000Z</time>
      </trkpt>
      <trkpt lat="45.18223" lon="6.35675">
        <ele>2143</ele>
        <time>2014-01-11T08:50:26.000Z</time>
      </trkpt>
      <trkpt lat="45.18223" lon="6.35676">
        <ele>2143.1999511719</ele>
        <time>2014-01-11T08:50:27.000Z</time>
      </trkpt>
      <trkpt lat="45.18222" lon="6.35676">
        <ele>2143.3999023438</ele>
        <time>2014-01-11T08:50:28.000Z</time>
      </trkpt>
      <trkpt lat="45.18221" lon="6.35677">
        <ele>2143.6000976562</ele>
        <time>2014-01-11T08:50:29.000Z</time>
      </trkpt>
      <trkpt lat="45.1822" lon="6.35677">
        <ele>2143.8000488281</ele>
        <time>2014-01-11T08:50:30.000Z</time>
      </trkpt>
      <trkpt lat="45.1822" lon="6.35678">
        <ele>2143.8000488281</ele>
        <time>2014-01-11T08:50:31.000Z</time>
      </trkpt>
      <trkpt lat="45.18219" lon="6.35678">
        <ele>2144</ele>
        <time>2014-01-11T08:50:32.000Z</time>
      </trkpt>
      <trkpt lat="45.18219" lon="6.35678">
        <ele>2144.1999511719</ele>
        <time>2014-01-11T08:50:33.000Z</time>
      </trkpt>
      <trkpt lat="45.18218" lon="6.35679">
        <ele>2144.3999023438</ele>
        <time>2014-01-11T08:50:34.000Z</time>
      </trkpt>
      <trkpt lat="45.18218" lon="6.35679">
        <ele>2144.8000488281</ele>
        <time>2014-01-11T08:50:35.000Z</time>
      </trkpt>
      <trkpt lat="45.18218" lon="6.35679">
        <ele>2145</ele>
        <time>2014-01-11T08:50:36.000Z</time>
      </trkpt>
      <trkpt lat="45.18218" lon="6.35679">
        <ele>2145</ele>
        <time>2014-01-11T08:50:37.000Z</time>
      </trkpt>
      <trkpt lat="45.18218" lon="6.35679">
        <ele>2145.1999511719</ele>
        <time>2014-01-11T08:50:38.000Z</time>
      </trkpt>
      <trkpt lat="45.18217" lon="6.3568">
        <ele>2145.3999023438</ele>
        <time>2014-01-11T08:50:39.000Z</time>
      </trkpt>
      <trkpt lat="45.18217" lon="6.3568">
        <ele>2145.6000976562</ele>
        <time>2014-01-11T08:50:40.000Z</time>
      </trkpt>
      <trkpt lat="45.18217" lon="6.3568">
        <ele>2145.8000488281</ele>
        <time>2014-01-11T08:50:41.000Z</time>
      </trkpt>
      <trkpt lat="45.18217" lon="6.3568">
        <ele>2145.8000488281</ele>
        <time>2014-01-11T08:50:42.000Z</time>
      </trkpt>
      <trkpt lat="45.18216" lon="6.35681">
        <ele>2146.1999511719</ele>
        <time>2014-01-11T08:50:43.000Z</time>
      </trkpt>
      <trkpt lat="45.18216" lon="6.35682">
        <ele>2146.1999511719</ele>
        <time>2014-01-11T08:50:46.000Z</time>
      </trkpt>
      <trkpt lat="45.18216" lon="6.35683">
        <ele>2146.3999023438</ele>
        <time>2014-01-11T08:50:47.000Z</time>
      </trkpt>
      <trkpt lat="45.18216" lon="6.35683">
        <ele>2146.3999023438</ele>
        <time>2014-01-11T08:50:48.000Z</time>
      </trkpt>
      <trkpt lat="45.18216" lon="6.35683">
        <ele>2146.6000976562</ele>
        <time>2014-01-11T08:50:49.000Z</time>
      </trkpt>
      <trkpt lat="45.18216" lon="6.35683">
        <ele>2146.8000488281</ele>
        <time>2014-01-11T08:50:50.000Z</time>
      </trkpt>
      <trkpt lat="45.18216" lon="6.35683">
        <ele>2147</ele>
        <time>2014-01-11T08:50:51.000Z</time>
      </trkpt>
      <trkpt lat="45.18216" lon="6.35683">
        <ele>2147.1999511719</ele>
        <time>2014-01-11T08:50:52.000Z</time>
      </trkpt>
      <trkpt lat="45.18216" lon="6.35683">
        <ele>2147.3999023438</ele>
        <time>2014-01-11T08:50:53.000Z</time>
      </trkpt>
      <trkpt lat="45.18216" lon="6.35683">
        <ele>2147.6000976562</ele>
        <time>2014-01-11T08:50:54.000Z</time>
      </trkpt>
      <trkpt lat="45.18216" lon="6.35683">
        <ele>2147.6000976562</ele>
        <time>2014-01-11T08:50:55.000Z</time>
      </trkpt>
      <trkpt lat="45.18215" lon="6.35684">
        <ele>2147.6000976562</ele>
        <time>2014-01-11T08:50:56.000Z</time>
      </trkpt>
      <trkpt lat="45.18215" lon="6.35685">
        <ele>2147.8000488281</ele>
        <time>2014-01-11T08:50:57.000Z</time>
      </trkpt>
      <trkpt lat="45.18215" lon="6.35686">
        <ele>2147.8000488281</ele>
        <time>2014-01-11T08:50:58.000Z</time>
      </trkpt>
      <trkpt lat="45.18215" lon="6.35687">
        <ele>2147.8000488281</ele>
        <time>2014-01-11T08:50:59.000Z</time>
      </trkpt>
      <trkpt lat="45.18214" lon="6.35687">
        <ele>2148.1999511719</ele>
        <time>2014-01-11T08:51:00.000Z</time>
      </trkpt>
      <trkpt lat="45.18214" lon="6.35688">
        <ele>2148.6000976562</ele>
        <time>2014-01-11T08:51:01.000Z</time>
      </trkpt>
      <trkpt lat="45.18213" lon="6.35688">
        <ele>2148.8000488281</ele>
        <time>2014-01-11T08:51:02.000Z</time>
      </trkpt>
      <trkpt lat="45.18213" lon="6.35688">
        <ele>2149</ele>
        <time>2014-01-11T08:51:03.000Z</time>
      </trkpt>
      <trkpt lat="45.18213" lon="6.35688">
        <ele>2149.1999511719</ele>
        <time>2014-01-11T08:51:04.000Z</time>
      </trkpt>
      <trkpt lat="45.18213" lon="6.35688">
        <ele>2149.3999023438</ele>
        <time>2014-01-11T08:51:05.000Z</time>
      </trkpt>
      <trkpt lat="45.18213" lon="6.35689">
        <ele>2149.3999023438</ele>
        <time>2014-01-11T08:51:06.000Z</time>
      </trkpt>
      <trkpt lat="45.18212" lon="6.3569">
        <ele>2149.6000976562</ele>
        <time>2014-01-11T08:51:07.000Z</time>
      </trkpt>
      <trkpt lat="45.18212" lon="6.35691">
        <ele>2149.6000976562</ele>
        <time>2014-01-11T08:51:08.000Z</time>
      </trkpt>
      <trkpt lat="45.18212" lon="6.35691">
        <ele>2149.8000488281</ele>
        <time>2014-01-11T08:51:09.000Z</time>
      </trkpt>
      <trkpt lat="45.18212" lon="6.35691">
        <ele>2149.8000488281</ele>
        <time>2014-01-11T08:51:10.000Z</time>
      </trkpt>
      <trkpt lat="45.18212" lon="6.35691">
        <ele>2149.8000488281</ele>
        <time>2014-01-11T08:51:11.000Z</time>
      </trkpt>
      <trkpt lat="45.18211" lon="6.35692">
        <ele>2150</ele>
        <time>2014-01-11T08:51:12.000Z</time>
      </trkpt>
      <trkpt lat="45.18211" lon="6.35692">
        <ele>2150.1999511719</ele>
        <time>2014-01-11T08:51:13.000Z</time>
      </trkpt>
      <trkpt lat="45.18211" lon="6.35692">
        <ele>2150.3999023438</ele>
        <time>2014-01-11T08:51:14.000Z</time>
      </trkpt>
      <trkpt lat="45.18211" lon="6.35692">
        <ele>2150.3999023438</ele>
        <time>2014-01-11T08:51:15.000Z</time>
      </trkpt>
      <trkpt lat="45.18211" lon="6.35692">
        <ele>2150.3999023438</ele>
        <time>2014-01-11T08:51:16.000Z</time>
      </trkpt>
      <trkpt lat="45.18211" lon="6.35692">
        <ele>2150.8000488281</ele>
        <time>2014-01-11T08:51:17.000Z</time>
      </trkpt>
      <trkpt lat="45.18212" lon="6.35693">
        <ele>2151</ele>
        <time>2014-01-11T08:51:18.000Z</time>
      </trkpt>
      <trkpt lat="45.18212" lon="6.35694">
        <ele>2151</ele>
        <time>2014-01-11T08:51:19.000Z</time>
      </trkpt>
      <trkpt lat="45.18213" lon="6.35695">
        <ele>2151.1999511719</ele>
        <time>2014-01-11T08:51:20.000Z</time>
      </trkpt>
      <trkpt lat="45.18213" lon="6.35695">
        <ele>2151.1999511719</ele>
        <time>2014-01-11T08:51:21.000Z</time>
      </trkpt>
      <trkpt lat="45.18213" lon="6.35696">
        <ele>2151.3999023438</ele>
        <time>2014-01-11T08:51:22.000Z</time>
      </trkpt>
      <trkpt lat="45.18214" lon="6.35696">
        <ele>2151.6000976562</ele>
        <time>2014-01-11T08:51:23.000Z</time>
      </trkpt>
      <trkpt lat="45.18214" lon="6.35697">
        <ele>2151.8000488281</ele>
        <time>2014-01-11T08:51:24.000Z</time>
      </trkpt>
      <trkpt lat="45.18214" lon="6.35697">
        <ele>2152</ele>
        <time>2014-01-11T08:51:25.000Z</time>
      </trkpt>
      <trkpt lat="45.18214" lon="6.35698">
        <ele>2152.1999511719</ele>
        <time>2014-01-11T08:51:26.000Z</time>
      </trkpt>
      <trkpt lat="45.18214" lon="6.35698">
        <ele>2152.3999023438</ele>
        <time>2014-01-11T08:51:27.000Z</time>
      </trkpt>
      <trkpt lat="45.18215" lon="6.35699">
        <ele>2152.6000976562</ele>
        <time>2014-01-11T08:51:28.000Z</time>
      </trkpt>
      <trkpt lat="45.18215" lon="6.35699">
        <ele>2152.8000488281</ele>
        <time>2014-01-11T08:51:29.000Z</time>
      </trkpt>
      <trkpt lat="45.18215" lon="6.35699">
        <ele>2153</ele>
        <time>2014-01-11T08:51:30.000Z</time>
      </trkpt>
      <trkpt lat="45.18216" lon="6.35699">
        <ele>2153.1999511719</ele>
        <time>2014-01-11T08:51:31.000Z</time>
      </trkpt>
      <trkpt lat="45.18216" lon="6.35699">
        <ele>2153.3999023438</ele>
        <time>2014-01-11T08:51:32.000Z</time>
      </trkpt>
      <trkpt lat="45.18216" lon="6.357">
        <ele>2153.6000976562</ele>
        <time>2014-01-11T08:51:33.000Z</time>
      </trkpt>
      <trkpt lat="45.18216" lon="6.357">
        <ele>2153.8000488281</ele>
        <time>2014-01-11T08:51:34.000Z</time>
      </trkpt>
      <trkpt lat="45.18216" lon="6.357">
        <ele>2154</ele>
        <time>2014-01-11T08:51:35.000Z</time>
      </trkpt>
      <trkpt lat="45.18216" lon="6.357">
        <ele>2154.1999511719</ele>
        <time>2014-01-11T08:51:36.000Z</time>
      </trkpt>
      <trkpt lat="45.18216" lon="6.35701">
        <ele>2154.3999023438</ele>
        <time>2014-01-11T08:51:37.000Z</time>
      </trkpt>
      <trkpt lat="45.18216" lon="6.35701">
        <ele>2154.6000976562</ele>
        <time>2014-01-11T08:51:38.000Z</time>
      </trkpt>
      <trkpt lat="45.18217" lon="6.35701">
        <ele>2154.8000488281</ele>
        <time>2014-01-11T08:51:39.000Z</time>
      </trkpt>
      <trkpt lat="45.18217" lon="6.35702">
        <ele>2155</ele>
        <time>2014-01-11T08:51:40.000Z</time>
      </trkpt>
      <trkpt lat="45.18217" lon="6.35702">
        <ele>2155.1999511719</ele>
        <time>2014-01-11T08:51:41.000Z</time>
      </trkpt>
      <trkpt lat="45.18217" lon="6.35702">
        <ele>2155.3999023438</ele>
        <time>2014-01-11T08:51:42.000Z</time>
      </trkpt>
      <trkpt lat="45.18217" lon="6.35702">
        <ele>2155.6000976562</ele>
        <time>2014-01-11T08:51:43.000Z</time>
      </trkpt>
      <trkpt lat="45.18218" lon="6.35703">
        <ele>2155.8000488281</ele>
        <time>2014-01-11T08:51:44.000Z</time>
      </trkpt>
      <trkpt lat="45.18218" lon="6.35703">
        <ele>2156</ele>
        <time>2014-01-11T08:51:45.000Z</time>
      </trkpt>
      <trkpt lat="45.18218" lon="6.35704">
        <ele>2156</ele>
        <time>2014-01-11T08:51:46.000Z</time>
      </trkpt>
      <trkpt lat="45.18219" lon="6.35704">
        <ele>2156.1999511719</ele>
        <time>2014-01-11T08:51:47.000Z</time>
      </trkpt>
      <trkpt lat="45.18219" lon="6.35705">
        <ele>2156.3999023438</ele>
        <time>2014-01-11T08:51:48.000Z</time>
      </trkpt>
      <trkpt lat="45.18219" lon="6.35706">
        <ele>2156.6000976562</ele>
        <time>2014-01-11T08:51:49.000Z</time>
      </trkpt>
      <trkpt lat="45.1822" lon="6.35707">
        <ele>2156.8000488281</ele>
        <time>2014-01-11T08:51:50.000Z</time>
      </trkpt>
      <trkpt lat="45.1822" lon="6.35708">
        <ele>2157</ele>
        <time>2014-01-11T08:51:51.000Z</time>
      </trkpt>
      <trkpt lat="45.18221" lon="6.35709">
        <ele>2157.1999511719</ele>
        <time>2014-01-11T08:51:52.000Z</time>
      </trkpt>
      <trkpt lat="45.18221" lon="6.3571">
        <ele>2157.3999023438</ele>
        <time>2014-01-11T08:51:53.000Z</time>
      </trkpt>
      <trkpt lat="45.18222" lon="6.35712">
        <ele>2157.6000976562</ele>
        <time>2014-01-11T08:51:54.000Z</time>
      </trkpt>
      <trkpt lat="45.18223" lon="6.35712">
        <ele>2157.8000488281</ele>
        <time>2014-01-11T08:51:55.000Z</time>
      </trkpt>
      <trkpt lat="45.18223" lon="6.35713">
        <ele>2158</ele>
        <time>2014-01-11T08:51:56.000Z</time>
      </trkpt>
      <trkpt lat="45.18223" lon="6.35713">
        <ele>2158.1999511719</ele>
        <time>2014-01-11T08:51:57.000Z</time>
      </trkpt>
      <trkpt lat="45.18223" lon="6.35713">
        <ele>2158.6000976562</ele>
        <time>2014-01-11T08:51:58.000Z</time>
      </trkpt>
      <trkpt lat="45.18223" lon="6.35713">
        <ele>2158.8000488281</ele>
        <time>2014-01-11T08:51:59.000Z</time>
      </trkpt>
      <trkpt lat="45.18223" lon="6.35713">
        <ele>2159</ele>
        <time>2014-01-11T08:52:00.000Z</time>
      </trkpt>
      <trkpt lat="45.18223" lon="6.35715">
        <ele>2159.1999511719</ele>
        <time>2014-01-11T08:52:01.000Z</time>
      </trkpt>
      <trkpt lat="45.18224" lon="6.35716">
        <ele>2159.1999511719</ele>
        <time>2014-01-11T08:52:02.000Z</time>
      </trkpt>
      <trkpt lat="45.18224" lon="6.35719">
        <ele>2159.3999023438</ele>
        <time>2014-01-11T08:52:03.000Z</time>
      </trkpt>
      <trkpt lat="45.18224" lon="6.3572">
        <ele>2159.6000976562</ele>
        <time>2014-01-11T08:52:04.000Z</time>
      </trkpt>
      <trkpt lat="45.18225" lon="6.35721">
        <ele>2160</ele>
        <time>2014-01-11T08:52:05.000Z</time>
      </trkpt>
      <trkpt lat="45.18225" lon="6.35722">
        <ele>2160.1999511719</ele>
        <time>2014-01-11T08:52:06.000Z</time>
      </trkpt>
      <trkpt lat="45.18225" lon="6.35723">
        <ele>2160.3999023438</ele>
        <time>2014-01-11T08:52:07.000Z</time>
      </trkpt>
      <trkpt lat="45.18224" lon="6.35724">
        <ele>2160.6000976562</ele>
        <time>2014-01-11T08:52:08.000Z</time>
      </trkpt>
      <trkpt lat="45.18224" lon="6.35724">
        <ele>2160.8000488281</ele>
        <time>2014-01-11T08:52:09.000Z</time>
      </trkpt>
      <trkpt lat="45.18224" lon="6.35724">
        <ele>2161</ele>
        <time>2014-01-11T08:52:10.000Z</time>
      </trkpt>
      <trkpt lat="45.18224" lon="6.35724">
        <ele>2161.1999511719</ele>
        <time>2014-01-11T08:52:11.000Z</time>
      </trkpt>
      <trkpt lat="45.18224" lon="6.35725">
        <ele>2161.3999023438</ele>
        <time>2014-01-11T08:52:12.000Z</time>
      </trkpt>
      <trkpt lat="45.18224" lon="6.35725">
        <ele>2161.6000976562</ele>
        <time>2014-01-11T08:52:13.000Z</time>
      </trkpt>
      <trkpt lat="45.18225" lon="6.35726">
        <ele>2161.8000488281</ele>
        <time>2014-01-11T08:52:14.000Z</time>
      </trkpt>
      <trkpt lat="45.18225" lon="6.35727">
        <ele>2162</ele>
        <time>2014-01-11T08:52:15.000Z</time>
      </trkpt>
      <trkpt lat="45.18225" lon="6.35728">
        <ele>2162.3999023438</ele>
        <time>2014-01-11T08:52:16.000Z</time>
      </trkpt>
      <trkpt lat="45.18225" lon="6.35729">
        <ele>2162.6000976562</ele>
        <time>2014-01-11T08:52:17.000Z</time>
      </trkpt>
      <trkpt lat="45.18225" lon="6.3573">
        <ele>2162.8000488281</ele>
        <time>2014-01-11T08:52:18.000Z</time>
      </trkpt>
      <trkpt lat="45.18225" lon="6.35731">
        <ele>2163</ele>
        <time>2014-01-11T08:52:19.000Z</time>
      </trkpt>
      <trkpt lat="45.18225" lon="6.35732">
        <ele>2163.1999511719</ele>
        <time>2014-01-11T08:52:20.000Z</time>
      </trkpt>
      <trkpt lat="45.18226" lon="6.35732">
        <ele>2163.3999023438</ele>
        <time>2014-01-11T08:52:21.000Z</time>
      </trkpt>
      <trkpt lat="45.18226" lon="6.35733">
        <ele>2163.6000976562</ele>
        <time>2014-01-11T08:52:22.000Z</time>
      </trkpt>
      <trkpt lat="45.18226" lon="6.35734">
        <ele>2163.8000488281</ele>
        <time>2014-01-11T08:52:23.000Z</time>
      </trkpt>
      <trkpt lat="45.18226" lon="6.35735">
        <ele>2164</ele>
        <time>2014-01-11T08:52:24.000Z</time>
      </trkpt>
      <trkpt lat="45.18226" lon="6.35736">
        <ele>2164.3999023438</ele>
        <time>2014-01-11T08:52:25.000Z</time>
      </trkpt>
      <trkpt lat="45.18227" lon="6.35737">
        <ele>2164.6000976562</ele>
        <time>2014-01-11T08:52:26.000Z</time>
      </trkpt>
      <trkpt lat="45.18227" lon="6.35737">
        <ele>2164.8000488281</ele>
        <time>2014-01-11T08:52:27.000Z</time>
      </trkpt>
      <trkpt lat="45.18227" lon="6.35738">
        <ele>2165</ele>
        <time>2014-01-11T08:52:28.000Z</time>
      </trkpt>
      <trkpt lat="45.18227" lon="6.35739">
        <ele>2165.3999023438</ele>
        <time>2014-01-11T08:52:29.000Z</time>
      </trkpt>
      <trkpt lat="45.18227" lon="6.35739">
        <ele>2165.6000976562</ele>
        <time>2014-01-11T08:52:30.000Z</time>
      </trkpt>
      <trkpt lat="45.18227" lon="6.3574">
        <ele>2166</ele>
        <time>2014-01-11T08:52:31.000Z</time>
      </trkpt>
      <trkpt lat="45.18227" lon="6.35741">
        <ele>2166.1999511719</ele>
        <time>2014-01-11T08:52:32.000Z</time>
      </trkpt>
      <trkpt lat="45.18227" lon="6.35741">
        <ele>2166.1999511719</ele>
        <time>2014-01-11T08:52:33.000Z</time>
      </trkpt>
      <trkpt lat="45.18227" lon="6.35741">
        <ele>2166.3999023438</ele>
        <time>2014-01-11T08:52:34.000Z</time>
      </trkpt>
      <trkpt lat="45.18227" lon="6.35741">
        <ele>2166.3999023438</ele>
        <time>2014-01-11T08:52:35.000Z</time>
      </trkpt>
      <trkpt lat="45.18227" lon="6.35741">
        <ele>2166.6000976562</ele>
        <time>2014-01-11T08:52:36.000Z</time>
      </trkpt>
      <trkpt lat="45.18227" lon="6.35742">
        <ele>2166.8000488281</ele>
        <time>2014-01-11T08:52:37.000Z</time>
      </trkpt>
      <trkpt lat="45.18227" lon="6.35742">
        <ele>2167</ele>
        <time>2014-01-11T08:52:38.000Z</time>
      </trkpt>
      <trkpt lat="45.18227" lon="6.35743">
        <ele>2167.1999511719</ele>
        <time>2014-01-11T08:52:39.000Z</time>
      </trkpt>
      <trkpt lat="45.18227" lon="6.35743">
        <ele>2167.1999511719</ele>
        <time>2014-01-11T08:52:40.000Z</time>
      </trkpt>
      <trkpt lat="45.18227" lon="6.35743">
        <ele>2167.3999023438</ele>
        <time>2014-01-11T08:52:41.000Z</time>
      </trkpt>
      <trkpt lat="45.18226" lon="6.35743">
        <ele>2167.8000488281</ele>
        <time>2014-01-11T08:52:42.000Z</time>
      </trkpt>
      <trkpt lat="45.18226" lon="6.35743">
        <ele>2168</ele>
        <time>2014-01-11T08:52:43.000Z</time>
      </trkpt>
      <trkpt lat="45.18226" lon="6.35744">
        <ele>2168.3999023438</ele>
        <time>2014-01-11T08:52:44.000Z</time>
      </trkpt>
      <trkpt lat="45.18226" lon="6.35744">
        <ele>2168.6000976562</ele>
        <time>2014-01-11T08:52:45.000Z</time>
      </trkpt>
      <trkpt lat="45.18226" lon="6.35744">
        <ele>2169</ele>
        <time>2014-01-11T08:52:46.000Z</time>
      </trkpt>
      <trkpt lat="45.18226" lon="6.35744">
        <ele>2169.1999511719</ele>
        <time>2014-01-11T08:52:48.000Z</time>
      </trkpt>
      <trkpt lat="45.18226" lon="6.35744">
        <ele>2169.1999511719</ele>
        <time>2014-01-11T08:52:49.000Z</time>
      </trkpt>
      <trkpt lat="45.18226" lon="6.35744">
        <ele>2169.3999023438</ele>
        <time>2014-01-11T08:52:50.000Z</time>
      </trkpt>
      <trkpt lat="45.18226" lon="6.35744">
        <ele>2169.3999023438</ele>
        <time>2014-01-11T08:52:51.000Z</time>
      </trkpt>
      <trkpt lat="45.18224" lon="6.35744">
        <ele>2169.3999023438</ele>
        <time>2014-01-11T08:52:54.000Z</time>
      </trkpt>
      <trkpt lat="45.18223" lon="6.35745">
        <ele>2169.3999023438</ele>
        <time>2014-01-11T08:52:55.000Z</time>
      </trkpt>
      <trkpt lat="45.18223" lon="6.35745">
        <ele>2169.3999023438</ele>
        <time>2014-01-11T08:52:56.000Z</time>
      </trkpt>
      <trkpt lat="45.18222" lon="6.35746">
        <ele>2169.6000976562</ele>
        <time>2014-01-11T08:52:57.000Z</time>
      </trkpt>
      <trkpt lat="45.18221" lon="6.35746">
        <ele>2169.6000976562</ele>
        <time>2014-01-11T08:52:58.000Z</time>
      </trkpt>
      <trkpt lat="45.18221" lon="6.35746">
        <ele>2169.8000488281</ele>
        <time>2014-01-11T08:52:59.000Z</time>
      </trkpt>
      <trkpt lat="45.18221" lon="6.35747">
        <ele>2170</ele>
        <time>2014-01-11T08:53:00.000Z</time>
      </trkpt>
      <trkpt lat="45.1822" lon="6.35747">
        <ele>2170.1999511719</ele>
        <time>2014-01-11T08:53:01.000Z</time>
      </trkpt>
      <trkpt lat="45.1822" lon="6.35748">
        <ele>2170.1999511719</ele>
        <time>2014-01-11T08:53:02.000Z</time>
      </trkpt>
      <trkpt lat="45.18219" lon="6.35748">
        <ele>2170.3999023438</ele>
        <time>2014-01-11T08:53:03.000Z</time>
      </trkpt>
      <trkpt lat="45.18218" lon="6.35749">
        <ele>2170.6000976562</ele>
        <time>2014-01-11T08:53:04.000Z</time>
      </trkpt>
      <trkpt lat="45.18218" lon="6.35749">
        <ele>2170.8000488281</ele>
        <time>2014-01-11T08:53:05.000Z</time>
      </trkpt>
      <trkpt lat="45.18217" lon="6.35749">
        <ele>2171</ele>
        <time>2014-01-11T08:53:06.000Z</time>
      </trkpt>
      <trkpt lat="45.18217" lon="6.3575">
        <ele>2171.1999511719</ele>
        <time>2014-01-11T08:53:07.000Z</time>
      </trkpt>
      <trkpt lat="45.18217" lon="6.3575">
        <ele>2171.3999023438</ele>
        <time>2014-01-11T08:53:08.000Z</time>
      </trkpt>
      <trkpt lat="45.18216" lon="6.3575">
        <ele>2171.6000976562</ele>
        <time>2014-01-11T08:53:09.000Z</time>
      </trkpt>
      <trkpt lat="45.18215" lon="6.3575">
        <ele>2171.8000488281</ele>
        <time>2014-01-11T08:53:10.000Z</time>
      </trkpt>
      <trkpt lat="45.18214" lon="6.35751">
        <ele>2172</ele>
        <time>2014-01-11T08:53:11.000Z</time>
      </trkpt>
      <trkpt lat="45.18214" lon="6.35751">
        <ele>2172.1999511719</ele>
        <time>2014-01-11T08:53:12.000Z</time>
      </trkpt>
      <trkpt lat="45.18213" lon="6.35752">
        <ele>2172.3999023438</ele>
        <time>2014-01-11T08:53:13.000Z</time>
      </trkpt>
      <trkpt lat="45.18213" lon="6.35752">
        <ele>2172.6000976562</ele>
        <time>2014-01-11T08:53:14.000Z</time>
      </trkpt>
      <trkpt lat="45.18213" lon="6.35752">
        <ele>2172.8000488281</ele>
        <time>2014-01-11T08:53:15.000Z</time>
      </trkpt>
      <trkpt lat="45.18212" lon="6.35753">
        <ele>2172.8000488281</ele>
        <time>2014-01-11T08:53:16.000Z</time>
      </trkpt>
      <trkpt lat="45.18211" lon="6.35753">
        <ele>2173.1999511719</ele>
        <time>2014-01-11T08:53:17.000Z</time>
      </trkpt>
      <trkpt lat="45.1821" lon="6.35754">
        <ele>2173.6000976562</ele>
        <time>2014-01-11T08:53:18.000Z</time>
      </trkpt>
      <trkpt lat="45.18209" lon="6.35754">
        <ele>2173.8000488281</ele>
        <time>2014-01-11T08:53:19.000Z</time>
      </trkpt>
      <trkpt lat="45.18208" lon="6.35754">
        <ele>2174</ele>
        <time>2014-01-11T08:53:20.000Z</time>
      </trkpt>
      <trkpt lat="45.18207" lon="6.35754">
        <ele>2174.1999511719</ele>
        <time>2014-01-11T08:53:21.000Z</time>
      </trkpt>
      <trkpt lat="45.18206" lon="6.35754">
        <ele>2174.3999023438</ele>
        <time>2014-01-11T08:53:22.000Z</time>
      </trkpt>
      <trkpt lat="45.18206" lon="6.35755">
        <ele>2174.6000976562</ele>
        <time>2014-01-11T08:53:23.000Z</time>
      </trkpt>
      <trkpt lat="45.18206" lon="6.35755">
        <ele>2174.8000488281</ele>
        <time>2014-01-11T08:53:24.000Z</time>
      </trkpt>
      <trkpt lat="45.18206" lon="6.35756">
        <ele>2175</ele>
        <time>2014-01-11T08:53:25.000Z</time>
      </trkpt>
      <trkpt lat="45.18206" lon="6.35756">
        <ele>2175.1999511719</ele>
        <time>2014-01-11T08:53:26.000Z</time>
      </trkpt>
      <trkpt lat="45.18205" lon="6.35756">
        <ele>2175.3999023438</ele>
        <time>2014-01-11T08:53:27.000Z</time>
      </trkpt>
      <trkpt lat="45.18205" lon="6.35756">
        <ele>2175.6000976562</ele>
        <time>2014-01-11T08:53:28.000Z</time>
      </trkpt>
      <trkpt lat="45.18204" lon="6.35756">
        <ele>2175.6000976562</ele>
        <time>2014-01-11T08:53:29.000Z</time>
      </trkpt>
      <trkpt lat="45.18203" lon="6.35756">
        <ele>2176</ele>
        <time>2014-01-11T08:53:30.000Z</time>
      </trkpt>
      <trkpt lat="45.18202" lon="6.35756">
        <ele>2176.1999511719</ele>
        <time>2014-01-11T08:53:31.000Z</time>
      </trkpt>
      <trkpt lat="45.18201" lon="6.35756">
        <ele>2176.3999023438</ele>
        <time>2014-01-11T08:53:32.000Z</time>
      </trkpt>
      <trkpt lat="45.18201" lon="6.35757">
        <ele>2176.6000976562</ele>
        <time>2014-01-11T08:53:33.000Z</time>
      </trkpt>
      <trkpt lat="45.182" lon="6.35757">
        <ele>2176.8000488281</ele>
        <time>2014-01-11T08:53:34.000Z</time>
      </trkpt>
      <trkpt lat="45.18199" lon="6.35757">
        <ele>2177.1999511719</ele>
        <time>2014-01-11T08:53:35.000Z</time>
      </trkpt>
      <trkpt lat="45.18199" lon="6.35756">
        <ele>2177.3999023438</ele>
        <time>2014-01-11T08:53:36.000Z</time>
      </trkpt>
      <trkpt lat="45.18198" lon="6.35757">
        <ele>2177.6000976562</ele>
        <time>2014-01-11T08:53:37.000Z</time>
      </trkpt>
      <trkpt lat="45.18198" lon="6.35757">
        <ele>2177.8000488281</ele>
        <time>2014-01-11T08:53:38.000Z</time>
      </trkpt>
      <trkpt lat="45.18198" lon="6.35757">
        <ele>2178</ele>
        <time>2014-01-11T08:53:39.000Z</time>
      </trkpt>
      <trkpt lat="45.18198" lon="6.35757">
        <ele>2178.1999511719</ele>
        <time>2014-01-11T08:53:40.000Z</time>
      </trkpt>
      <trkpt lat="45.18198" lon="6.35757">
        <ele>2178.3999023438</ele>
        <time>2014-01-11T08:53:41.000Z</time>
      </trkpt>
      <trkpt lat="45.18199" lon="6.35757">
        <ele>2178.3999023438</ele>
        <time>2014-01-11T08:53:42.000Z</time>
      </trkpt>
      <trkpt lat="45.18199" lon="6.35758">
        <ele>2178.3999023438</ele>
        <time>2014-01-11T08:53:43.000Z</time>
      </trkpt>
      <trkpt lat="45.18199" lon="6.35758">
        <ele>2178.6000976562</ele>
        <time>2014-01-11T08:53:44.000Z</time>
      </trkpt>
      <trkpt lat="45.182" lon="6.35759">
        <ele>2178.6000976562</ele>
        <time>2014-01-11T08:53:45.000Z</time>
      </trkpt>
      <trkpt lat="45.182" lon="6.35759">
        <ele>2178.8000488281</ele>
        <time>2014-01-11T08:53:46.000Z</time>
      </trkpt>
      <trkpt lat="45.18201" lon="6.3576">
        <ele>2179</ele>
        <time>2014-01-11T08:53:47.000Z</time>
      </trkpt>
      <trkpt lat="45.18202" lon="6.35761">
        <ele>2179.1999511719</ele>
        <time>2014-01-11T08:53:48.000Z</time>
      </trkpt>
      <trkpt lat="45.18202" lon="6.35762">
        <ele>2179.6000976562</ele>
        <time>2014-01-11T08:53:49.000Z</time>
      </trkpt>
      <trkpt lat="45.18203" lon="6.35763">
        <ele>2179.8000488281</ele>
        <time>2014-01-11T08:53:50.000Z</time>
      </trkpt>
      <trkpt lat="45.18203" lon="6.35763">
        <ele>2180</ele>
        <time>2014-01-11T08:53:51.000Z</time>
      </trkpt>
      <trkpt lat="45.18203" lon="6.35764">
        <ele>2180</ele>
        <time>2014-01-11T08:53:52.000Z</time>
      </trkpt>
      <trkpt lat="45.18203" lon="6.35764">
        <ele>2180.1999511719</ele>
        <time>2014-01-11T08:53:53.000Z</time>
      </trkpt>
      <trkpt lat="45.18203" lon="6.35764">
        <ele>2180.1999511719</ele>
        <time>2014-01-11T08:53:54.000Z</time>
      </trkpt>
      <trkpt lat="45.18203" lon="6.35764">
        <ele>2180.3999023438</ele>
        <time>2014-01-11T08:53:55.000Z</time>
      </trkpt>
      <trkpt lat="45.18203" lon="6.35764">
        <ele>2180.3999023438</ele>
        <time>2014-01-11T08:53:56.000Z</time>
      </trkpt>
      <trkpt lat="45.18202" lon="6.35764">
        <ele>2180.6000976562</ele>
        <time>2014-01-11T08:53:57.000Z</time>
      </trkpt>
      <trkpt lat="45.18202" lon="6.35764">
        <ele>2180.8000488281</ele>
        <time>2014-01-11T08:53:58.000Z</time>
      </trkpt>
      <trkpt lat="45.18202" lon="6.35764">
        <ele>2181</ele>
        <time>2014-01-11T08:53:59.000Z</time>
      </trkpt>
      <trkpt lat="45.18201" lon="6.35763">
        <ele>2181.1999511719</ele>
        <time>2014-01-11T08:54:00.000Z</time>
      </trkpt>
      <trkpt lat="45.182" lon="6.35763">
        <ele>2181.1999511719</ele>
        <time>2014-01-11T08:54:01.000Z</time>
      </trkpt>
      <trkpt lat="45.182" lon="6.35763">
        <ele>2181.1999511719</ele>
        <time>2014-01-11T08:54:02.000Z</time>
      </trkpt>
      <trkpt lat="45.18199" lon="6.35764">
        <ele>2181.3999023438</ele>
        <time>2014-01-11T08:54:03.000Z</time>
      </trkpt>
      <trkpt lat="45.18198" lon="6.35764">
        <ele>2181.3999023438</ele>
        <time>2014-01-11T08:54:04.000Z</time>
      </trkpt>
      <trkpt lat="45.18197" lon="6.35764">
        <ele>2181.6000976562</ele>
        <time>2014-01-11T08:54:05.000Z</time>
      </trkpt>
      <trkpt lat="45.18196" lon="6.35764">
        <ele>2181.6000976562</ele>
        <time>2014-01-11T08:54:06.000Z</time>
      </trkpt>
      <trkpt lat="45.18195" lon="6.35764">
        <ele>2181.8000488281</ele>
        <time>2014-01-11T08:54:07.000Z</time>
      </trkpt>
      <trkpt lat="45.18195" lon="6.35764">
        <ele>2182</ele>
        <time>2014-01-11T08:54:08.000Z</time>
      </trkpt>
      <trkpt lat="45.18194" lon="6.35765">
        <ele>2182.1999511719</ele>
        <time>2014-01-11T08:54:09.000Z</time>
      </trkpt>
      <trkpt lat="45.18194" lon="6.35766">
        <ele>2182.3999023438</ele>
        <time>2014-01-11T08:54:10.000Z</time>
      </trkpt>
      <trkpt lat="45.18193" lon="6.35766">
        <ele>2182.6000976562</ele>
        <time>2014-01-11T08:54:11.000Z</time>
      </trkpt>
      <trkpt lat="45.18193" lon="6.35767">
        <ele>2182.8000488281</ele>
        <time>2014-01-11T08:54:12.000Z</time>
      </trkpt>
      <trkpt lat="45.18192" lon="6.35768">
        <ele>2183</ele>
        <time>2014-01-11T08:54:13.000Z</time>
      </trkpt>
      <trkpt lat="45.18192" lon="6.35768">
        <ele>2183.1999511719</ele>
        <time>2014-01-11T08:54:14.000Z</time>
      </trkpt>
      <trkpt lat="45.18192" lon="6.35769">
        <ele>2183.3999023438</ele>
        <time>2014-01-11T08:54:15.000Z</time>
      </trkpt>
      <trkpt lat="45.18192" lon="6.35769">
        <ele>2183.6000976562</ele>
        <time>2014-01-11T08:54:16.000Z</time>
      </trkpt>
      <trkpt lat="45.18192" lon="6.35769">
        <ele>2183.8000488281</ele>
        <time>2014-01-11T08:54:17.000Z</time>
      </trkpt>
      <trkpt lat="45.18192" lon="6.35769">
        <ele>2184</ele>
        <time>2014-01-11T08:54:18.000Z</time>
      </trkpt>
      <trkpt lat="45.18192" lon="6.35769">
        <ele>2184.1999511719</ele>
        <time>2014-01-11T08:54:19.000Z</time>
      </trkpt>
      <trkpt lat="45.18192" lon="6.3577">
        <ele>2184.1999511719</ele>
        <time>2014-01-11T08:54:20.000Z</time>
      </trkpt>
      <trkpt lat="45.18192" lon="6.3577">
        <ele>2184.3999023438</ele>
        <time>2014-01-11T08:54:21.000Z</time>
      </trkpt>
      <trkpt lat="45.18192" lon="6.3577">
        <ele>2184.3999023438</ele>
        <time>2014-01-11T08:54:22.000Z</time>
      </trkpt>
      <trkpt lat="45.18192" lon="6.3577">
        <ele>2184.3999023438</ele>
        <time>2014-01-11T08:54:23.000Z</time>
      </trkpt>
      <trkpt lat="45.18192" lon="6.3577">
        <ele>2184.6000976562</ele>
        <time>2014-01-11T08:54:24.000Z</time>
      </trkpt>
      <trkpt lat="45.18192" lon="6.3577">
        <ele>2184.8000488281</ele>
        <time>2014-01-11T08:54:25.000Z</time>
      </trkpt>
      <trkpt lat="45.18192" lon="6.3577">
        <ele>2184.8000488281</ele>
        <time>2014-01-11T08:54:26.000Z</time>
      </trkpt>
      <trkpt lat="45.18192" lon="6.3577">
        <ele>2185</ele>
        <time>2014-01-11T08:54:27.000Z</time>
      </trkpt>
      <trkpt lat="45.18192" lon="6.3577">
        <ele>2185.1999511719</ele>
        <time>2014-01-11T08:54:28.000Z</time>
      </trkpt>
      <trkpt lat="45.18192" lon="6.3577">
        <ele>2185.3999023438</ele>
        <time>2014-01-11T08:54:29.000Z</time>
      </trkpt>
      <trkpt lat="45.18192" lon="6.3577">
        <ele>2185.3999023438</ele>
        <time>2014-01-11T08:54:30.000Z</time>
      </trkpt>
      <trkpt lat="45.18192" lon="6.3577">
        <ele>2185.3999023438</ele>
        <time>2014-01-11T08:54:31.000Z</time>
      </trkpt>
      <trkpt lat="45.18192" lon="6.3577">
        <ele>2185.6000976562</ele>
        <time>2014-01-11T08:54:32.000Z</time>
      </trkpt>
      <trkpt lat="45.18192" lon="6.3577">
        <ele>2185.6000976562</ele>
        <time>2014-01-11T08:54:33.000Z</time>
      </trkpt>
      <trkpt lat="45.18192" lon="6.3577">
        <ele>2185.8000488281</ele>
        <time>2014-01-11T08:54:34.000Z</time>
      </trkpt>
      <trkpt lat="45.18192" lon="6.3577">
        <ele>2186</ele>
        <time>2014-01-11T08:54:35.000Z</time>
      </trkpt>
      <trkpt lat="45.18192" lon="6.3577">
        <ele>2186.1999511719</ele>
        <time>2014-01-11T08:54:36.000Z</time>
      </trkpt>
      <trkpt lat="45.18192" lon="6.3577">
        <ele>2186.1999511719</ele>
        <time>2014-01-11T08:54:37.000Z</time>
      </trkpt>
      <trkpt lat="45.18192" lon="6.35771">
        <ele>2186.3999023438</ele>
        <time>2014-01-11T08:54:38.000Z</time>
      </trkpt>
      <trkpt lat="45.18193" lon="6.35771">
        <ele>2186.3999023438</ele>
        <time>2014-01-11T08:54:39.000Z</time>
      </trkpt>
      <trkpt lat="45.18194" lon="6.35771">
        <ele>2186.6000976562</ele>
        <time>2014-01-11T08:54:40.000Z</time>
      </trkpt>
      <trkpt lat="45.18194" lon="6.35772">
        <ele>2186.8000488281</ele>
        <time>2014-01-11T08:54:41.000Z</time>
      </trkpt>
      <trkpt lat="45.18194" lon="6.35772">
        <ele>2187</ele>
        <time>2014-01-11T08:54:42.000Z</time>
      </trkpt>
      <trkpt lat="45.18195" lon="6.35772">
        <ele>2187.1999511719</ele>
        <time>2014-01-11T08:54:43.000Z</time>
      </trkpt>
      <trkpt lat="45.18195" lon="6.35772">
        <ele>2187.3999023438</ele>
        <time>2014-01-11T08:54:44.000Z</time>
      </trkpt>
      <trkpt lat="45.18195" lon="6.35772">
        <ele>2187.6000976562</ele>
        <time>2014-01-11T08:54:45.000Z</time>
      </trkpt>
      <trkpt lat="45.18195" lon="6.35772">
        <ele>2187.6000976562</ele>
        <time>2014-01-11T08:54:46.000Z</time>
      </trkpt>
      <trkpt lat="45.18195" lon="6.35772">
        <ele>2187.8000488281</ele>
        <time>2014-01-11T08:54:47.000Z</time>
      </trkpt>
      <trkpt lat="45.18195" lon="6.35772">
        <ele>2188.3999023438</ele>
        <time>2014-01-11T08:54:48.000Z</time>
      </trkpt>
      <trkpt lat="45.18194" lon="6.35773">
        <ele>2188.6000976562</ele>
        <time>2014-01-11T08:54:50.000Z</time>
      </trkpt>
      <trkpt lat="45.18193" lon="6.35774">
        <ele>2188.8000488281</ele>
        <time>2014-01-11T08:54:51.000Z</time>
      </trkpt>
      <trkpt lat="45.18193" lon="6.35775">
        <ele>2188.8000488281</ele>
        <time>2014-01-11T08:54:52.000Z</time>
      </trkpt>
      <trkpt lat="45.18192" lon="6.35776">
        <ele>2189</ele>
        <time>2014-01-11T08:54:53.000Z</time>
      </trkpt>
      <trkpt lat="45.18191" lon="6.35778">
        <ele>2189.1999511719</ele>
        <time>2014-01-11T08:54:54.000Z</time>
      </trkpt>
      <trkpt lat="45.18191" lon="6.35779">
        <ele>2189.1999511719</ele>
        <time>2014-01-11T08:54:55.000Z</time>
      </trkpt>
      <trkpt lat="45.18191" lon="6.3578">
        <ele>2189.3999023438</ele>
        <time>2014-01-11T08:54:56.000Z</time>
      </trkpt>
      <trkpt lat="45.18191" lon="6.35782">
        <ele>2189.3999023438</ele>
        <time>2014-01-11T08:54:57.000Z</time>
      </trkpt>
      <trkpt lat="45.18192" lon="6.35783">
        <ele>2189.6000976562</ele>
        <time>2014-01-11T08:54:58.000Z</time>
      </trkpt>
      <trkpt lat="45.18192" lon="6.35783">
        <ele>2189.8000488281</ele>
        <time>2014-01-11T08:54:59.000Z</time>
      </trkpt>
      <trkpt lat="45.18192" lon="6.35784">
        <ele>2190</ele>
        <time>2014-01-11T08:55:00.000Z</time>
      </trkpt>
      <trkpt lat="45.18193" lon="6.35785">
        <ele>2190</ele>
        <time>2014-01-11T08:55:01.000Z</time>
      </trkpt>
      <trkpt lat="45.18193" lon="6.35786">
        <ele>2190.1999511719</ele>
        <time>2014-01-11T08:55:02.000Z</time>
      </trkpt>
      <trkpt lat="45.18193" lon="6.35786">
        <ele>2190.3999023438</ele>
        <time>2014-01-11T08:55:03.000Z</time>
      </trkpt>
      <trkpt lat="45.18194" lon="6.35787">
        <ele>2190.6000976562</ele>
        <time>2014-01-11T08:55:04.000Z</time>
      </trkpt>
      <trkpt lat="45.18194" lon="6.35787">
        <ele>2190.8000488281</ele>
        <time>2014-01-11T08:55:05.000Z</time>
      </trkpt>
      <trkpt lat="45.18195" lon="6.35788">
        <ele>2191</ele>
        <time>2014-01-11T08:55:06.000Z</time>
      </trkpt>
      <trkpt lat="45.18196" lon="6.35789">
        <ele>2191.1999511719</ele>
        <time>2014-01-11T08:55:07.000Z</time>
      </trkpt>
      <trkpt lat="45.18196" lon="6.3579">
        <ele>2191.3999023438</ele>
        <time>2014-01-11T08:55:08.000Z</time>
      </trkpt>
      <trkpt lat="45.18197" lon="6.3579">
        <ele>2191.6000976562</ele>
        <time>2014-01-11T08:55:09.000Z</time>
      </trkpt>
      <trkpt lat="45.18197" lon="6.35791">
        <ele>2191.8000488281</ele>
        <time>2014-01-11T08:55:10.000Z</time>
      </trkpt>
      <trkpt lat="45.18197" lon="6.35792">
        <ele>2192</ele>
        <time>2014-01-11T08:55:11.000Z</time>
      </trkpt>
      <trkpt lat="45.18197" lon="6.35792">
        <ele>2192.1999511719</ele>
        <time>2014-01-11T08:55:12.000Z</time>
      </trkpt>
      <trkpt lat="45.18198" lon="6.35794">
        <ele>2192.3999023438</ele>
        <time>2014-01-11T08:55:13.000Z</time>
      </trkpt>
      <trkpt lat="45.18198" lon="6.35795">
        <ele>2192.6000976562</ele>
        <time>2014-01-11T08:55:14.000Z</time>
      </trkpt>
      <trkpt lat="45.18199" lon="6.35796">
        <ele>2192.6000976562</ele>
        <time>2014-01-11T08:55:15.000Z</time>
      </trkpt>
      <trkpt lat="45.18199" lon="6.35797">
        <ele>2192.8000488281</ele>
        <time>2014-01-11T08:55:16.000Z</time>
      </trkpt>
      <trkpt lat="45.18199" lon="6.35797">
        <ele>2193</ele>
        <time>2014-01-11T08:55:17.000Z</time>
      </trkpt>
      <trkpt lat="45.18199" lon="6.35797">
        <ele>2193.3999023438</ele>
        <time>2014-01-11T08:55:18.000Z</time>
      </trkpt>
      <trkpt lat="45.18199" lon="6.35797">
        <ele>2193.3999023438</ele>
        <time>2014-01-11T08:55:19.000Z</time>
      </trkpt>
      <trkpt lat="45.18199" lon="6.35797">
        <ele>2193.8000488281</ele>
        <time>2014-01-11T08:55:20.000Z</time>
      </trkpt>
      <trkpt lat="45.18197" lon="6.35797">
        <ele>2194</ele>
        <time>2014-01-11T08:55:21.000Z</time>
      </trkpt>
      <trkpt lat="45.18197" lon="6.35798">
        <ele>2194.1999511719</ele>
        <time>2014-01-11T08:55:22.000Z</time>
      </trkpt>
      <trkpt lat="45.18196" lon="6.35798">
        <ele>2194.3999023438</ele>
        <time>2014-01-11T08:55:23.000Z</time>
      </trkpt>
      <trkpt lat="45.18195" lon="6.35798">
        <ele>2194.3999023438</ele>
        <time>2014-01-11T08:55:24.000Z</time>
      </trkpt>
      <trkpt lat="45.18195" lon="6.35798">
        <ele>2194.6000976562</ele>
        <time>2014-01-11T08:55:25.000Z</time>
      </trkpt>
      <trkpt lat="45.18195" lon="6.35799">
        <ele>2194.6000976562</ele>
        <time>2014-01-11T08:55:26.000Z</time>
      </trkpt>
      <trkpt lat="45.18195" lon="6.35799">
        <ele>2194.8000488281</ele>
        <time>2014-01-11T08:55:27.000Z</time>
      </trkpt>
      <trkpt lat="45.18195" lon="6.35799">
        <ele>2195</ele>
        <time>2014-01-11T08:55:28.000Z</time>
      </trkpt>
      <trkpt lat="45.18195" lon="6.35799">
        <ele>2195.1999511719</ele>
        <time>2014-01-11T08:55:29.000Z</time>
      </trkpt>
      <trkpt lat="45.18195" lon="6.35799">
        <ele>2195.1999511719</ele>
        <time>2014-01-11T08:55:30.000Z</time>
      </trkpt>
      <trkpt lat="45.18195" lon="6.35799">
        <ele>2195.3999023438</ele>
        <time>2014-01-11T08:55:31.000Z</time>
      </trkpt>
      <trkpt lat="45.18195" lon="6.35799">
        <ele>2195.3999023438</ele>
        <time>2014-01-11T08:55:32.000Z</time>
      </trkpt>
      <trkpt lat="45.18195" lon="6.35799">
        <ele>2195.3999023438</ele>
        <time>2014-01-11T08:55:33.000Z</time>
      </trkpt>
      <trkpt lat="45.18195" lon="6.35799">
        <ele>2195.3999023438</ele>
        <time>2014-01-11T08:55:34.000Z</time>
      </trkpt>
      <trkpt lat="45.18195" lon="6.35799">
        <ele>2195.3999023438</ele>
        <time>2014-01-11T08:55:37.000Z</time>
      </trkpt>
      <trkpt lat="45.18195" lon="6.35799">
        <ele>2195.3999023438</ele>
        <time>2014-01-11T08:55:38.000Z</time>
      </trkpt>
      <trkpt lat="45.18195" lon="6.35799">
        <ele>2195.3999023438</ele>
        <time>2014-01-11T08:55:39.000Z</time>
      </trkpt>
      <trkpt lat="45.18195" lon="6.35799">
        <ele>2195.3999023438</ele>
        <time>2014-01-11T08:55:40.000Z</time>
      </trkpt>
      <trkpt lat="45.18195" lon="6.35799">
        <ele>2195.6000976562</ele>
        <time>2014-01-11T08:55:41.000Z</time>
      </trkpt>
      <trkpt lat="45.18195" lon="6.35799">
        <ele>2195.6000976562</ele>
        <time>2014-01-11T08:55:42.000Z</time>
      </trkpt>
      <trkpt lat="45.18195" lon="6.35799">
        <ele>2195.6000976562</ele>
        <time>2014-01-11T08:55:45.000Z</time>
      </trkpt>
      <trkpt lat="45.18195" lon="6.35799">
        <ele>2195.3999023438</ele>
        <time>2014-01-11T08:55:46.000Z</time>
      </trkpt>
      <trkpt lat="45.18195" lon="6.35799">
        <ele>2195.3999023438</ele>
        <time>2014-01-11T08:55:47.000Z</time>
      </trkpt>
      <trkpt lat="45.18195" lon="6.35799">
        <ele>2195.3999023438</ele>
        <time>2014-01-11T08:55:48.000Z</time>
      </trkpt>
      <trkpt lat="45.18195" lon="6.35799">
        <ele>2195.3999023438</ele>
        <time>2014-01-11T08:55:49.000Z</time>
      </trkpt>
      <trkpt lat="45.18195" lon="6.35799">
        <ele>2195.3999023438</ele>
        <time>2014-01-11T08:55:50.000Z</time>
      </trkpt>
      <trkpt lat="45.18195" lon="6.35799">
        <ele>2195.3999023438</ele>
        <time>2014-01-11T08:55:51.000Z</time>
      </trkpt>
      <trkpt lat="45.18195" lon="6.35799">
        <ele>2195.3999023438</ele>
        <time>2014-01-11T08:55:54.000Z</time>
      </trkpt>
      <trkpt lat="45.18194" lon="6.358">
        <ele>2195.3999023438</ele>
        <time>2014-01-11T08:55:55.000Z</time>
      </trkpt>
      <trkpt lat="45.18193" lon="6.35801">
        <ele>2195.3999023438</ele>
        <time>2014-01-11T08:55:56.000Z</time>
      </trkpt>
      <trkpt lat="45.18193" lon="6.35801">
        <ele>2195.3999023438</ele>
        <time>2014-01-11T08:55:57.000Z</time>
      </trkpt>
      <trkpt lat="45.18192" lon="6.35803">
        <ele>2195.3999023438</ele>
        <time>2014-01-11T08:55:58.000Z</time>
      </trkpt>
      <trkpt lat="45.18191" lon="6.35803">
        <ele>2195.6000976562</ele>
        <time>2014-01-11T08:55:59.000Z</time>
      </trkpt>
      <trkpt lat="45.18191" lon="6.35804">
        <ele>2195.8000488281</ele>
        <time>2014-01-11T08:56:00.000Z</time>
      </trkpt>
      <trkpt lat="45.1819" lon="6.35805">
        <ele>2196</ele>
        <time>2014-01-11T08:56:01.000Z</time>
      </trkpt>
      <trkpt lat="45.1819" lon="6.35806">
        <ele>2196.1999511719</ele>
        <time>2014-01-11T08:56:02.000Z</time>
      </trkpt>
      <trkpt lat="45.18189" lon="6.35806">
        <ele>2196.3999023438</ele>
        <time>2014-01-11T08:56:03.000Z</time>
      </trkpt>
      <trkpt lat="45.18188" lon="6.35807">
        <ele>2196.8000488281</ele>
        <time>2014-01-11T08:56:04.000Z</time>
      </trkpt>
      <trkpt lat="45.18188" lon="6.35808">
        <ele>2197.1999511719</ele>
        <time>2014-01-11T08:56:05.000Z</time>
      </trkpt>
      <trkpt lat="45.18188" lon="6.35808">
        <ele>2197.3999023438</ele>
        <time>2014-01-11T08:56:06.000Z</time>
      </trkpt>
      <trkpt lat="45.18187" lon="6.3581">
        <ele>2197.6000976562</ele>
        <time>2014-01-11T08:56:07.000Z</time>
      </trkpt>
      <trkpt lat="45.18187" lon="6.3581">
        <ele>2198</ele>
        <time>2014-01-11T08:56:08.000Z</time>
      </trkpt>
      <trkpt lat="45.18186" lon="6.35811">
        <ele>2198.1999511719</ele>
        <time>2014-01-11T08:56:09.000Z</time>
      </trkpt>
      <trkpt lat="45.18186" lon="6.35812">
        <ele>2198.3999023438</ele>
        <time>2014-01-11T08:56:10.000Z</time>
      </trkpt>
      <trkpt lat="45.18187" lon="6.35812">
        <ele>2198.8000488281</ele>
        <time>2014-01-11T08:56:11.000Z</time>
      </trkpt>
      <trkpt lat="45.18188" lon="6.35813">
        <ele>2199</ele>
        <time>2014-01-11T08:56:12.000Z</time>
      </trkpt>
      <trkpt lat="45.18189" lon="6.35813">
        <ele>2199</ele>
        <time>2014-01-11T08:56:13.000Z</time>
      </trkpt>
      <trkpt lat="45.18189" lon="6.35813">
        <ele>2199.1999511719</ele>
        <time>2014-01-11T08:56:14.000Z</time>
      </trkpt>
      <trkpt lat="45.1819" lon="6.35813">
        <ele>2199.3999023438</ele>
        <time>2014-01-11T08:56:15.000Z</time>
      </trkpt>
      <trkpt lat="45.1819" lon="6.35813">
        <ele>2199.8000488281</ele>
        <time>2014-01-11T08:56:16.000Z</time>
      </trkpt>
      <trkpt lat="45.18191" lon="6.35814">
        <ele>2200</ele>
        <time>2014-01-11T08:56:17.000Z</time>
      </trkpt>
      <trkpt lat="45.18191" lon="6.35814">
        <ele>2200.3999023438</ele>
        <time>2014-01-11T08:56:18.000Z</time>
      </trkpt>
      <trkpt lat="45.18192" lon="6.35814">
        <ele>2200.6000976562</ele>
        <time>2014-01-11T08:56:19.000Z</time>
      </trkpt>
      <trkpt lat="45.18192" lon="6.35815">
        <ele>2200.8000488281</ele>
        <time>2014-01-11T08:56:20.000Z</time>
      </trkpt>
      <trkpt lat="45.18193" lon="6.35816">
        <ele>2201.1999511719</ele>
        <time>2014-01-11T08:56:21.000Z</time>
      </trkpt>
      <trkpt lat="45.18194" lon="6.35817">
        <ele>2201.3999023438</ele>
        <time>2014-01-11T08:56:22.000Z</time>
      </trkpt>
      <trkpt lat="45.18194" lon="6.35817">
        <ele>2201.6000976562</ele>
        <time>2014-01-11T08:56:23.000Z</time>
      </trkpt>
      <trkpt lat="45.18195" lon="6.35818">
        <ele>2202</ele>
        <time>2014-01-11T08:56:24.000Z</time>
      </trkpt>
      <trkpt lat="45.18195" lon="6.35819">
        <ele>2202.1999511719</ele>
        <time>2014-01-11T08:56:25.000Z</time>
      </trkpt>
      <trkpt lat="45.18195" lon="6.35819">
        <ele>2202.6000976562</ele>
        <time>2014-01-11T08:56:26.000Z</time>
      </trkpt>
      <trkpt lat="45.18195" lon="6.35819">
        <ele>2202.8000488281</ele>
        <time>2014-01-11T08:56:27.000Z</time>
      </trkpt>
      <trkpt lat="45.18194" lon="6.3582">
        <ele>2203</ele>
        <time>2014-01-11T08:56:28.000Z</time>
      </trkpt>
      <trkpt lat="45.18194" lon="6.35821">
        <ele>2203.3999023438</ele>
        <time>2014-01-11T08:56:29.000Z</time>
      </trkpt>
      <trkpt lat="45.18193" lon="6.35823">
        <ele>2203.6000976562</ele>
        <time>2014-01-11T08:56:30.000Z</time>
      </trkpt>
      <trkpt lat="45.18193" lon="6.35823">
        <ele>2203.8000488281</ele>
        <time>2014-01-11T08:56:31.000Z</time>
      </trkpt>
      <trkpt lat="45.18193" lon="6.35824">
        <ele>2204</ele>
        <time>2014-01-11T08:56:32.000Z</time>
      </trkpt>
      <trkpt lat="45.18192" lon="6.35826">
        <ele>2204</ele>
        <time>2014-01-11T08:56:33.000Z</time>
      </trkpt>
      <trkpt lat="45.18192" lon="6.35826">
        <ele>2204.1999511719</ele>
        <time>2014-01-11T08:56:34.000Z</time>
      </trkpt>
      <trkpt lat="45.18191" lon="6.35828">
        <ele>2204.3999023438</ele>
        <time>2014-01-11T08:56:35.000Z</time>
      </trkpt>
      <trkpt lat="45.18191" lon="6.35828">
        <ele>2204.6000976562</ele>
        <time>2014-01-11T08:56:36.000Z</time>
      </trkpt>
      <trkpt lat="45.1819" lon="6.35828">
        <ele>2204.8000488281</ele>
        <time>2014-01-11T08:56:37.000Z</time>
      </trkpt>
      <trkpt lat="45.1819" lon="6.35829">
        <ele>2205</ele>
        <time>2014-01-11T08:56:38.000Z</time>
      </trkpt>
      <trkpt lat="45.18189" lon="6.3583">
        <ele>2205.1999511719</ele>
        <time>2014-01-11T08:56:39.000Z</time>
      </trkpt>
      <trkpt lat="45.18189" lon="6.3583">
        <ele>2205.3999023438</ele>
        <time>2014-01-11T08:56:40.000Z</time>
      </trkpt>
      <trkpt lat="45.18189" lon="6.35831">
        <ele>2205.6000976562</ele>
        <time>2014-01-11T08:56:41.000Z</time>
      </trkpt>
      <trkpt lat="45.18189" lon="6.35831">
        <ele>2205.8000488281</ele>
        <time>2014-01-11T08:56:42.000Z</time>
      </trkpt>
      <trkpt lat="45.18188" lon="6.35831">
        <ele>2206</ele>
        <time>2014-01-11T08:56:43.000Z</time>
      </trkpt>
      <trkpt lat="45.18188" lon="6.35832">
        <ele>2206.1999511719</ele>
        <time>2014-01-11T08:56:44.000Z</time>
      </trkpt>
      <trkpt lat="45.18188" lon="6.35833">
        <ele>2206.6000976562</ele>
        <time>2014-01-11T08:56:45.000Z</time>
      </trkpt>
      <trkpt lat="45.18188" lon="6.35834">
        <ele>2206.8000488281</ele>
        <time>2014-01-11T08:56:46.000Z</time>
      </trkpt>
      <trkpt lat="45.18188" lon="6.35836">
        <ele>2207</ele>
        <time>2014-01-11T08:56:47.000Z</time>
      </trkpt>
      <trkpt lat="45.18188" lon="6.35836">
        <ele>2207.1999511719</ele>
        <time>2014-01-11T08:56:48.000Z</time>
      </trkpt>
      <trkpt lat="45.18188" lon="6.35837">
        <ele>2207.3999023438</ele>
        <time>2014-01-11T08:56:49.000Z</time>
      </trkpt>
      <trkpt lat="45.18188" lon="6.35838">
        <ele>2207.6000976562</ele>
        <time>2014-01-11T08:56:50.000Z</time>
      </trkpt>
      <trkpt lat="45.18188" lon="6.35839">
        <ele>2208</ele>
        <time>2014-01-11T08:56:51.000Z</time>
      </trkpt>
      <trkpt lat="45.18188" lon="6.3584">
        <ele>2208.1999511719</ele>
        <time>2014-01-11T08:56:52.000Z</time>
      </trkpt>
      <trkpt lat="45.18188" lon="6.3584">
        <ele>2208.6000976562</ele>
        <time>2014-01-11T08:56:53.000Z</time>
      </trkpt>
      <trkpt lat="45.18188" lon="6.35841">
        <ele>2209</ele>
        <time>2014-01-11T08:56:54.000Z</time>
      </trkpt>
      <trkpt lat="45.18188" lon="6.35842">
        <ele>2209.1999511719</ele>
        <time>2014-01-11T08:56:55.000Z</time>
      </trkpt>
      <trkpt lat="45.18187" lon="6.35843">
        <ele>2209.3999023438</ele>
        <time>2014-01-11T08:56:56.000Z</time>
      </trkpt>
      <trkpt lat="45.18188" lon="6.35844">
        <ele>2209.6000976562</ele>
        <time>2014-01-11T08:56:57.000Z</time>
      </trkpt>
      <trkpt lat="45.18188" lon="6.35845">
        <ele>2209.8000488281</ele>
        <time>2014-01-11T08:56:58.000Z</time>
      </trkpt>
      <trkpt lat="45.18189" lon="6.35846">
        <ele>2210</ele>
        <time>2014-01-11T08:56:59.000Z</time>
      </trkpt>
      <trkpt lat="45.18189" lon="6.35847">
        <ele>2210.1999511719</ele>
        <time>2014-01-11T08:57:00.000Z</time>
      </trkpt>
      <trkpt lat="45.1819" lon="6.35848">
        <ele>2210.3999023438</ele>
        <time>2014-01-11T08:57:01.000Z</time>
      </trkpt>
      <trkpt lat="45.1819" lon="6.35849">
        <ele>2210.6000976562</ele>
        <time>2014-01-11T08:57:02.000Z</time>
      </trkpt>
      <trkpt lat="45.18191" lon="6.3585">
        <ele>2210.8000488281</ele>
        <time>2014-01-11T08:57:03.000Z</time>
      </trkpt>
      <trkpt lat="45.18191" lon="6.3585">
        <ele>2211</ele>
        <time>2014-01-11T08:57:04.000Z</time>
      </trkpt>
      <trkpt lat="45.18192" lon="6.35852">
        <ele>2211</ele>
        <time>2014-01-11T08:57:05.000Z</time>
      </trkpt>
      <trkpt lat="45.18192" lon="6.35852">
        <ele>2211.1999511719</ele>
        <time>2014-01-11T08:57:06.000Z</time>
      </trkpt>
      <trkpt lat="45.18193" lon="6.35854">
        <ele>2211.3999023438</ele>
        <time>2014-01-11T08:57:07.000Z</time>
      </trkpt>
      <trkpt lat="45.18192" lon="6.35854">
        <ele>2211.3999023438</ele>
        <time>2014-01-11T08:57:08.000Z</time>
      </trkpt>
      <trkpt lat="45.18192" lon="6.35854">
        <ele>2211.6000976562</ele>
        <time>2014-01-11T08:57:09.000Z</time>
      </trkpt>
      <trkpt lat="45.18193" lon="6.35855">
        <ele>2211.6000976562</ele>
        <time>2014-01-11T08:57:10.000Z</time>
      </trkpt>
      <trkpt lat="45.18193" lon="6.35855">
        <ele>2211.8000488281</ele>
        <time>2014-01-11T08:57:11.000Z</time>
      </trkpt>
      <trkpt lat="45.18193" lon="6.35856">
        <ele>2212</ele>
        <time>2014-01-11T08:57:12.000Z</time>
      </trkpt>
      <trkpt lat="45.18194" lon="6.35856">
        <ele>2212</ele>
        <time>2014-01-11T08:57:13.000Z</time>
      </trkpt>
      <trkpt lat="45.18195" lon="6.35857">
        <ele>2212.1999511719</ele>
        <time>2014-01-11T08:57:14.000Z</time>
      </trkpt>
      <trkpt lat="45.18195" lon="6.35857">
        <ele>2212.3999023438</ele>
        <time>2014-01-11T08:57:15.000Z</time>
      </trkpt>
      <trkpt lat="45.18196" lon="6.35859">
        <ele>2212.6000976562</ele>
        <time>2014-01-11T08:57:16.000Z</time>
      </trkpt>
      <trkpt lat="45.18196" lon="6.3586">
        <ele>2213</ele>
        <time>2014-01-11T08:57:17.000Z</time>
      </trkpt>
      <trkpt lat="45.18197" lon="6.35861">
        <ele>2213.1999511719</ele>
        <time>2014-01-11T08:57:18.000Z</time>
      </trkpt>
      <trkpt lat="45.18197" lon="6.35862">
        <ele>2213.6000976562</ele>
        <time>2014-01-11T08:57:19.000Z</time>
      </trkpt>
      <trkpt lat="45.18197" lon="6.35863">
        <ele>2213.8000488281</ele>
        <time>2014-01-11T08:57:20.000Z</time>
      </trkpt>
      <trkpt lat="45.18197" lon="6.35864">
        <ele>2214</ele>
        <time>2014-01-11T08:57:21.000Z</time>
      </trkpt>
      <trkpt lat="45.18197" lon="6.35864">
        <ele>2214.1999511719</ele>
        <time>2014-01-11T08:57:22.000Z</time>
      </trkpt>
      <trkpt lat="45.18197" lon="6.35864">
        <ele>2214.3999023438</ele>
        <time>2014-01-11T08:57:23.000Z</time>
      </trkpt>
      <trkpt lat="45.18198" lon="6.35865">
        <ele>2214.6000976562</ele>
        <time>2014-01-11T08:57:24.000Z</time>
      </trkpt>
      <trkpt lat="45.18198" lon="6.35865">
        <ele>2214.8000488281</ele>
        <time>2014-01-11T08:57:25.000Z</time>
      </trkpt>
      <trkpt lat="45.18198" lon="6.35866">
        <ele>2215</ele>
        <time>2014-01-11T08:57:26.000Z</time>
      </trkpt>
      <trkpt lat="45.18199" lon="6.35866">
        <ele>2215.1999511719</ele>
        <time>2014-01-11T08:57:27.000Z</time>
      </trkpt>
      <trkpt lat="45.18199" lon="6.35867">
        <ele>2215.3999023438</ele>
        <time>2014-01-11T08:57:28.000Z</time>
      </trkpt>
      <trkpt lat="45.18199" lon="6.35867">
        <ele>2215.6000976562</ele>
        <time>2014-01-11T08:57:29.000Z</time>
      </trkpt>
      <trkpt lat="45.182" lon="6.35867">
        <ele>2215.8000488281</ele>
        <time>2014-01-11T08:57:30.000Z</time>
      </trkpt>
      <trkpt lat="45.182" lon="6.35868">
        <ele>2216.1999511719</ele>
        <time>2014-01-11T08:57:31.000Z</time>
      </trkpt>
      <trkpt lat="45.182" lon="6.35868">
        <ele>2216.3999023438</ele>
        <time>2014-01-11T08:57:32.000Z</time>
      </trkpt>
      <trkpt lat="45.182" lon="6.35868">
        <ele>2216.6000976562</ele>
        <time>2014-01-11T08:57:33.000Z</time>
      </trkpt>
      <trkpt lat="45.18201" lon="6.35868">
        <ele>2216.8000488281</ele>
        <time>2014-01-11T08:57:34.000Z</time>
      </trkpt>
      <trkpt lat="45.18201" lon="6.35869">
        <ele>2217.1999511719</ele>
        <time>2014-01-11T08:57:35.000Z</time>
      </trkpt>
      <trkpt lat="45.18201" lon="6.35869">
        <ele>2217.3999023438</ele>
        <time>2014-01-11T08:57:36.000Z</time>
      </trkpt>
      <trkpt lat="45.18201" lon="6.35869">
        <ele>2217.8000488281</ele>
        <time>2014-01-11T08:57:37.000Z</time>
      </trkpt>
      <trkpt lat="45.18201" lon="6.35869">
        <ele>2218</ele>
        <time>2014-01-11T08:57:38.000Z</time>
      </trkpt>
      <trkpt lat="45.18202" lon="6.3587">
        <ele>2218.1999511719</ele>
        <time>2014-01-11T08:57:39.000Z</time>
      </trkpt>
      <trkpt lat="45.18202" lon="6.35871">
        <ele>2218.3999023438</ele>
        <time>2014-01-11T08:57:40.000Z</time>
      </trkpt>
      <trkpt lat="45.18202" lon="6.35871">
        <ele>2218.8000488281</ele>
        <time>2014-01-11T08:57:41.000Z</time>
      </trkpt>
      <trkpt lat="45.18203" lon="6.35872">
        <ele>2219</ele>
        <time>2014-01-11T08:57:42.000Z</time>
      </trkpt>
      <trkpt lat="45.18204" lon="6.35874">
        <ele>2219.1999511719</ele>
        <time>2014-01-11T08:57:43.000Z</time>
      </trkpt>
      <trkpt lat="45.18204" lon="6.35874">
        <ele>2219.3999023438</ele>
        <time>2014-01-11T08:57:44.000Z</time>
      </trkpt>
      <trkpt lat="45.18204" lon="6.35874">
        <ele>2219.6000976562</ele>
        <time>2014-01-11T08:57:45.000Z</time>
      </trkpt>
      <trkpt lat="45.18205" lon="6.35875">
        <ele>2219.8000488281</ele>
        <time>2014-01-11T08:57:46.000Z</time>
      </trkpt>
      <trkpt lat="45.18205" lon="6.35875">
        <ele>2220</ele>
        <time>2014-01-11T08:57:47.000Z</time>
      </trkpt>
      <trkpt lat="45.18205" lon="6.35875">
        <ele>2220</ele>
        <time>2014-01-11T08:57:48.000Z</time>
      </trkpt>
      <trkpt lat="45.18206" lon="6.35876">
        <ele>2220.1999511719</ele>
        <time>2014-01-11T08:57:49.000Z</time>
      </trkpt>
      <trkpt lat="45.18206" lon="6.35877">
        <ele>2220.3999023438</ele>
        <time>2014-01-11T08:57:50.000Z</time>
      </trkpt>
      <trkpt lat="45.18206" lon="6.35877">
        <ele>2220.6000976562</ele>
        <time>2014-01-11T08:57:51.000Z</time>
      </trkpt>
      <trkpt lat="45.18206" lon="6.35877">
        <ele>2221</ele>
        <time>2014-01-11T08:57:52.000Z</time>
      </trkpt>
      <trkpt lat="45.18207" lon="6.35878">
        <ele>2221.1999511719</ele>
        <time>2014-01-11T08:57:53.000Z</time>
      </trkpt>
      <trkpt lat="45.18207" lon="6.35879">
        <ele>2221.3999023438</ele>
        <time>2014-01-11T08:57:54.000Z</time>
      </trkpt>
      <trkpt lat="45.18207" lon="6.35878">
        <ele>2221.6000976562</ele>
        <time>2014-01-11T08:57:55.000Z</time>
      </trkpt>
      <trkpt lat="45.18207" lon="6.35878">
        <ele>2221.8000488281</ele>
        <time>2014-01-11T08:57:56.000Z</time>
      </trkpt>
      <trkpt lat="45.18207" lon="6.35879">
        <ele>2222</ele>
        <time>2014-01-11T08:57:57.000Z</time>
      </trkpt>
      <trkpt lat="45.18207" lon="6.35879">
        <ele>2222.1999511719</ele>
        <time>2014-01-11T08:57:58.000Z</time>
      </trkpt>
      <trkpt lat="45.18208" lon="6.35879">
        <ele>2222.1999511719</ele>
        <time>2014-01-11T08:57:59.000Z</time>
      </trkpt>
      <trkpt lat="45.18208" lon="6.3588">
        <ele>2222.3999023438</ele>
        <time>2014-01-11T08:58:00.000Z</time>
      </trkpt>
      <trkpt lat="45.18208" lon="6.35881">
        <ele>2222.6000976562</ele>
        <time>2014-01-11T08:58:01.000Z</time>
      </trkpt>
      <trkpt lat="45.18208" lon="6.35882">
        <ele>2222.8000488281</ele>
        <time>2014-01-11T08:58:02.000Z</time>
      </trkpt>
      <trkpt lat="45.18209" lon="6.35884">
        <ele>2223</ele>
        <time>2014-01-11T08:58:03.000Z</time>
      </trkpt>
      <trkpt lat="45.18209" lon="6.35884">
        <ele>2223.1999511719</ele>
        <time>2014-01-11T08:58:04.000Z</time>
      </trkpt>
      <trkpt lat="45.18209" lon="6.35885">
        <ele>2223.6000976562</ele>
        <time>2014-01-11T08:58:05.000Z</time>
      </trkpt>
      <trkpt lat="45.1821" lon="6.35885">
        <ele>2223.8000488281</ele>
        <time>2014-01-11T08:58:06.000Z</time>
      </trkpt>
      <trkpt lat="45.1821" lon="6.35885">
        <ele>2224</ele>
        <time>2014-01-11T08:58:07.000Z</time>
      </trkpt>
      <trkpt lat="45.1821" lon="6.35885">
        <ele>2224.1999511719</ele>
        <time>2014-01-11T08:58:08.000Z</time>
      </trkpt>
      <trkpt lat="45.18211" lon="6.35886">
        <ele>2224.3999023438</ele>
        <time>2014-01-11T08:58:09.000Z</time>
      </trkpt>
      <trkpt lat="45.18212" lon="6.35886">
        <ele>2224.6000976562</ele>
        <time>2014-01-11T08:58:10.000Z</time>
      </trkpt>
      <trkpt lat="45.18212" lon="6.35886">
        <ele>2224.8000488281</ele>
        <time>2014-01-11T08:58:11.000Z</time>
      </trkpt>
      <trkpt lat="45.18213" lon="6.35887">
        <ele>2225</ele>
        <time>2014-01-11T08:58:12.000Z</time>
      </trkpt>
      <trkpt lat="45.18213" lon="6.35888">
        <ele>2225.1999511719</ele>
        <time>2014-01-11T08:58:13.000Z</time>
      </trkpt>
      <trkpt lat="45.18214" lon="6.3589">
        <ele>2225.3999023438</ele>
        <time>2014-01-11T08:58:14.000Z</time>
      </trkpt>
      <trkpt lat="45.18215" lon="6.35891">
        <ele>2225.6000976562</ele>
        <time>2014-01-11T08:58:15.000Z</time>
      </trkpt>
      <trkpt lat="45.18215" lon="6.35892">
        <ele>2225.8000488281</ele>
        <time>2014-01-11T08:58:16.000Z</time>
      </trkpt>
      <trkpt lat="45.18215" lon="6.35893">
        <ele>2226.1999511719</ele>
        <time>2014-01-11T08:58:17.000Z</time>
      </trkpt>
      <trkpt lat="45.18216" lon="6.35893">
        <ele>2226.3999023438</ele>
        <time>2014-01-11T08:58:18.000Z</time>
      </trkpt>
      <trkpt lat="45.18216" lon="6.35894">
        <ele>2226.6000976562</ele>
        <time>2014-01-11T08:58:19.000Z</time>
      </trkpt>
      <trkpt lat="45.18216" lon="6.35894">
        <ele>2226.8000488281</ele>
        <time>2014-01-11T08:58:20.000Z</time>
      </trkpt>
      <trkpt lat="45.18216" lon="6.35895">
        <ele>2227</ele>
        <time>2014-01-11T08:58:21.000Z</time>
      </trkpt>
      <trkpt lat="45.18217" lon="6.35895">
        <ele>2227</ele>
        <time>2014-01-11T08:58:22.000Z</time>
      </trkpt>
      <trkpt lat="45.18217" lon="6.35897">
        <ele>2227.1999511719</ele>
        <time>2014-01-11T08:58:23.000Z</time>
      </trkpt>
      <trkpt lat="45.18217" lon="6.35897">
        <ele>2227.6000976562</ele>
        <time>2014-01-11T08:58:24.000Z</time>
      </trkpt>
      <trkpt lat="45.18217" lon="6.35897">
        <ele>2227.8000488281</ele>
        <time>2014-01-11T08:58:25.000Z</time>
      </trkpt>
      <trkpt lat="45.18217" lon="6.35898">
        <ele>2228</ele>
        <time>2014-01-11T08:58:26.000Z</time>
      </trkpt>
      <trkpt lat="45.18217" lon="6.35898">
        <ele>2228.1999511719</ele>
        <time>2014-01-11T08:58:27.000Z</time>
      </trkpt>
      <trkpt lat="45.18218" lon="6.35899">
        <ele>2228.3999023438</ele>
        <time>2014-01-11T08:58:28.000Z</time>
      </trkpt>
      <trkpt lat="45.18218" lon="6.35899">
        <ele>2228.8000488281</ele>
        <time>2014-01-11T08:58:29.000Z</time>
      </trkpt>
      <trkpt lat="45.18218" lon="6.359">
        <ele>2229.1999511719</ele>
        <time>2014-01-11T08:58:30.000Z</time>
      </trkpt>
      <trkpt lat="45.18219" lon="6.359">
        <ele>2229.3999023438</ele>
        <time>2014-01-11T08:58:31.000Z</time>
      </trkpt>
      <trkpt lat="45.18219" lon="6.35901">
        <ele>2229.6000976562</ele>
        <time>2014-01-11T08:58:32.000Z</time>
      </trkpt>
      <trkpt lat="45.18219" lon="6.35902">
        <ele>2229.8000488281</ele>
        <time>2014-01-11T08:58:33.000Z</time>
      </trkpt>
      <trkpt lat="45.1822" lon="6.35903">
        <ele>2230</ele>
        <time>2014-01-11T08:58:34.000Z</time>
      </trkpt>
      <trkpt lat="45.1822" lon="6.35903">
        <ele>2230.1999511719</ele>
        <time>2014-01-11T08:58:35.000Z</time>
      </trkpt>
      <trkpt lat="45.18221" lon="6.35904">
        <ele>2230.3999023438</ele>
        <time>2014-01-11T08:58:36.000Z</time>
      </trkpt>
      <trkpt lat="45.18221" lon="6.35904">
        <ele>2230.6000976562</ele>
        <time>2014-01-11T08:58:37.000Z</time>
      </trkpt>
      <trkpt lat="45.18222" lon="6.35905">
        <ele>2230.8000488281</ele>
        <time>2014-01-11T08:58:38.000Z</time>
      </trkpt>
      <trkpt lat="45.18222" lon="6.35907">
        <ele>2231.1999511719</ele>
        <time>2014-01-11T08:58:39.000Z</time>
      </trkpt>
      <trkpt lat="45.18222" lon="6.35907">
        <ele>2231.3999023438</ele>
        <time>2014-01-11T08:58:40.000Z</time>
      </trkpt>
      <trkpt lat="45.18223" lon="6.35908">
        <ele>2231.6000976562</ele>
        <time>2014-01-11T08:58:41.000Z</time>
      </trkpt>
      <trkpt lat="45.18223" lon="6.35908">
        <ele>2231.8000488281</ele>
        <time>2014-01-11T08:58:42.000Z</time>
      </trkpt>
      <trkpt lat="45.18223" lon="6.35908">
        <ele>2232.1999511719</ele>
        <time>2014-01-11T08:58:43.000Z</time>
      </trkpt>
      <trkpt lat="45.18223" lon="6.35908">
        <ele>2232.1999511719</ele>
        <time>2014-01-11T08:58:44.000Z</time>
      </trkpt>
      <trkpt lat="45.18223" lon="6.35909">
        <ele>2232.3999023438</ele>
        <time>2014-01-11T08:58:45.000Z</time>
      </trkpt>
      <trkpt lat="45.18224" lon="6.35909">
        <ele>2232.6000976562</ele>
        <time>2014-01-11T08:58:46.000Z</time>
      </trkpt>
      <trkpt lat="45.18224" lon="6.3591">
        <ele>2232.8000488281</ele>
        <time>2014-01-11T08:58:47.000Z</time>
      </trkpt>
      <trkpt lat="45.18224" lon="6.35911">
        <ele>2233</ele>
        <time>2014-01-11T08:58:48.000Z</time>
      </trkpt>
      <trkpt lat="45.18224" lon="6.35911">
        <ele>2233.1999511719</ele>
        <time>2014-01-11T08:58:49.000Z</time>
      </trkpt>
      <trkpt lat="45.18225" lon="6.35912">
        <ele>2233.3999023438</ele>
        <time>2014-01-11T08:58:50.000Z</time>
      </trkpt>
      <trkpt lat="45.18225" lon="6.35912">
        <ele>2233.8000488281</ele>
        <time>2014-01-11T08:58:51.000Z</time>
      </trkpt>
      <trkpt lat="45.18225" lon="6.35912">
        <ele>2234.1999511719</ele>
        <time>2014-01-11T08:58:53.000Z</time>
      </trkpt>
      <trkpt lat="45.18225" lon="6.35912">
        <ele>2234.3999023438</ele>
        <time>2014-01-11T08:58:54.000Z</time>
      </trkpt>
      <trkpt lat="45.18225" lon="6.35913">
        <ele>2234.8000488281</ele>
        <time>2014-01-11T08:58:55.000Z</time>
      </trkpt>
      <trkpt lat="45.18226" lon="6.35914">
        <ele>2235</ele>
        <time>2014-01-11T08:58:56.000Z</time>
      </trkpt>
      <trkpt lat="45.18226" lon="6.35915">
        <ele>2235.1999511719</ele>
        <time>2014-01-11T08:58:57.000Z</time>
      </trkpt>
      <trkpt lat="45.18226" lon="6.35916">
        <ele>2235.3999023438</ele>
        <time>2014-01-11T08:58:58.000Z</time>
      </trkpt>
      <trkpt lat="45.18226" lon="6.35916">
        <ele>2235.6000976562</ele>
        <time>2014-01-11T08:58:59.000Z</time>
      </trkpt>
      <trkpt lat="45.18226" lon="6.35917">
        <ele>2235.8000488281</ele>
        <time>2014-01-11T08:59:00.000Z</time>
      </trkpt>
      <trkpt lat="45.18226" lon="6.35917">
        <ele>2236</ele>
        <time>2014-01-11T08:59:01.000Z</time>
      </trkpt>
      <trkpt lat="45.18227" lon="6.35918">
        <ele>2236.1999511719</ele>
        <time>2014-01-11T08:59:02.000Z</time>
      </trkpt>
      <trkpt lat="45.18227" lon="6.35918">
        <ele>2236.3999023438</ele>
        <time>2014-01-11T08:59:03.000Z</time>
      </trkpt>
      <trkpt lat="45.18228" lon="6.3592">
        <ele>2236.6000976562</ele>
        <time>2014-01-11T08:59:04.000Z</time>
      </trkpt>
      <trkpt lat="45.18228" lon="6.35921">
        <ele>2236.8000488281</ele>
        <time>2014-01-11T08:59:05.000Z</time>
      </trkpt>
      <trkpt lat="45.18229" lon="6.35922">
        <ele>2237</ele>
        <time>2014-01-11T08:59:06.000Z</time>
      </trkpt>
      <trkpt lat="45.18229" lon="6.35923">
        <ele>2237.1999511719</ele>
        <time>2014-01-11T08:59:07.000Z</time>
      </trkpt>
      <trkpt lat="45.18229" lon="6.35923">
        <ele>2237.3999023438</ele>
        <time>2014-01-11T08:59:08.000Z</time>
      </trkpt>
      <trkpt lat="45.18229" lon="6.35924">
        <ele>2237.6000976562</ele>
        <time>2014-01-11T08:59:09.000Z</time>
      </trkpt>
      <trkpt lat="45.18229" lon="6.35924">
        <ele>2237.8000488281</ele>
        <time>2014-01-11T08:59:10.000Z</time>
      </trkpt>
      <trkpt lat="45.1823" lon="6.35925">
        <ele>2238</ele>
        <time>2014-01-11T08:59:11.000Z</time>
      </trkpt>
      <trkpt lat="45.1823" lon="6.35925">
        <ele>2238.1999511719</ele>
        <time>2014-01-11T08:59:12.000Z</time>
      </trkpt>
      <trkpt lat="45.18231" lon="6.35926">
        <ele>2238.3999023438</ele>
        <time>2014-01-11T08:59:13.000Z</time>
      </trkpt>
      <trkpt lat="45.18231" lon="6.35927">
        <ele>2238.3999023438</ele>
        <time>2014-01-11T08:59:14.000Z</time>
      </trkpt>
      <trkpt lat="45.18231" lon="6.35929">
        <ele>2238.6000976562</ele>
        <time>2014-01-11T08:59:15.000Z</time>
      </trkpt>
      <trkpt lat="45.18232" lon="6.3593">
        <ele>2239</ele>
        <time>2014-01-11T08:59:16.000Z</time>
      </trkpt>
      <trkpt lat="45.18233" lon="6.35931">
        <ele>2239.1999511719</ele>
        <time>2014-01-11T08:59:17.000Z</time>
      </trkpt>
      <trkpt lat="45.18233" lon="6.35933">
        <ele>2239.3999023438</ele>
        <time>2014-01-11T08:59:18.000Z</time>
      </trkpt>
      <trkpt lat="45.18233" lon="6.35933">
        <ele>2239.6000976562</ele>
        <time>2014-01-11T08:59:19.000Z</time>
      </trkpt>
      <trkpt lat="45.18233" lon="6.35934">
        <ele>2239.8000488281</ele>
        <time>2014-01-11T08:59:20.000Z</time>
      </trkpt>
      <trkpt lat="45.18233" lon="6.35934">
        <ele>2240</ele>
        <time>2014-01-11T08:59:21.000Z</time>
      </trkpt>
      <trkpt lat="45.18234" lon="6.35935">
        <ele>2240.1999511719</ele>
        <time>2014-01-11T08:59:22.000Z</time>
      </trkpt>
      <trkpt lat="45.18234" lon="6.35935">
        <ele>2240.3999023438</ele>
        <time>2014-01-11T08:59:23.000Z</time>
      </trkpt>
      <trkpt lat="45.18234" lon="6.35936">
        <ele>2240.6000976562</ele>
        <time>2014-01-11T08:59:24.000Z</time>
      </trkpt>
      <trkpt lat="45.18235" lon="6.35937">
        <ele>2240.8000488281</ele>
        <time>2014-01-11T08:59:25.000Z</time>
      </trkpt>
      <trkpt lat="45.18235" lon="6.35938">
        <ele>2241</ele>
        <time>2014-01-11T08:59:26.000Z</time>
      </trkpt>
      <trkpt lat="45.18236" lon="6.35938">
        <ele>2241.1999511719</ele>
        <time>2014-01-11T08:59:27.000Z</time>
      </trkpt>
      <trkpt lat="45.18236" lon="6.35939">
        <ele>2241.6000976562</ele>
        <time>2014-01-11T08:59:28.000Z</time>
      </trkpt>
      <trkpt lat="45.18236" lon="6.3594">
        <ele>2241.8000488281</ele>
        <time>2014-01-11T08:59:29.000Z</time>
      </trkpt>
      <trkpt lat="45.18237" lon="6.35942">
        <ele>2242</ele>
        <time>2014-01-11T08:59:30.000Z</time>
      </trkpt>
      <trkpt lat="45.18237" lon="6.35942">
        <ele>2242.1999511719</ele>
        <time>2014-01-11T08:59:31.000Z</time>
      </trkpt>
      <trkpt lat="45.18237" lon="6.35943">
        <ele>2242.3999023438</ele>
        <time>2014-01-11T08:59:32.000Z</time>
      </trkpt>
      <trkpt lat="45.18237" lon="6.35944">
        <ele>2242.6000976562</ele>
        <time>2014-01-11T08:59:33.000Z</time>
      </trkpt>
      <trkpt lat="45.18237" lon="6.35945">
        <ele>2242.8000488281</ele>
        <time>2014-01-11T08:59:34.000Z</time>
      </trkpt>
      <trkpt lat="45.18238" lon="6.35946">
        <ele>2243</ele>
        <time>2014-01-11T08:59:35.000Z</time>
      </trkpt>
      <trkpt lat="45.18238" lon="6.35946">
        <ele>2243.3999023438</ele>
        <time>2014-01-11T08:59:36.000Z</time>
      </trkpt>
      <trkpt lat="45.18238" lon="6.35947">
        <ele>2243.6000976562</ele>
        <time>2014-01-11T08:59:37.000Z</time>
      </trkpt>
      <trkpt lat="45.18239" lon="6.35947">
        <ele>2243.8000488281</ele>
        <time>2014-01-11T08:59:38.000Z</time>
      </trkpt>
      <trkpt lat="45.18239" lon="6.35948">
        <ele>2244</ele>
        <time>2014-01-11T08:59:39.000Z</time>
      </trkpt>
      <trkpt lat="45.18239" lon="6.35948">
        <ele>2244.1999511719</ele>
        <time>2014-01-11T08:59:40.000Z</time>
      </trkpt>
      <trkpt lat="45.18239" lon="6.35948">
        <ele>2244.6000976562</ele>
        <time>2014-01-11T08:59:41.000Z</time>
      </trkpt>
      <trkpt lat="45.18239" lon="6.35948">
        <ele>2244.8000488281</ele>
        <time>2014-01-11T08:59:42.000Z</time>
      </trkpt>
      <trkpt lat="45.18239" lon="6.35948">
        <ele>2245</ele>
        <time>2014-01-11T08:59:43.000Z</time>
      </trkpt>
      <trkpt lat="45.18239" lon="6.35948">
        <ele>2245.1999511719</ele>
        <time>2014-01-11T08:59:44.000Z</time>
      </trkpt>
      <trkpt lat="45.18239" lon="6.35948">
        <ele>2245.1999511719</ele>
        <time>2014-01-11T08:59:45.000Z</time>
      </trkpt>
      <trkpt lat="45.18239" lon="6.35948">
        <ele>2245.1999511719</ele>
        <time>2014-01-11T08:59:46.000Z</time>
      </trkpt>
      <trkpt lat="45.18239" lon="6.35949">
        <ele>2245.1999511719</ele>
        <time>2014-01-11T08:59:47.000Z</time>
      </trkpt>
      <trkpt lat="45.18239" lon="6.3595">
        <ele>2245.3999023438</ele>
        <time>2014-01-11T08:59:48.000Z</time>
      </trkpt>
      <trkpt lat="45.18239" lon="6.3595">
        <ele>2245.3999023438</ele>
        <time>2014-01-11T08:59:49.000Z</time>
      </trkpt>
      <trkpt lat="45.18239" lon="6.35951">
        <ele>2245.6000976562</ele>
        <time>2014-01-11T08:59:50.000Z</time>
      </trkpt>
      <trkpt lat="45.18239" lon="6.35953">
        <ele>2245.8000488281</ele>
        <time>2014-01-11T08:59:51.000Z</time>
      </trkpt>
      <trkpt lat="45.18239" lon="6.35953">
        <ele>2246.1999511719</ele>
        <time>2014-01-11T08:59:52.000Z</time>
      </trkpt>
      <trkpt lat="45.1824" lon="6.35954">
        <ele>2246.3999023438</ele>
        <time>2014-01-11T08:59:53.000Z</time>
      </trkpt>
      <trkpt lat="45.1824" lon="6.35955">
        <ele>2246.6000976562</ele>
        <time>2014-01-11T08:59:54.000Z</time>
      </trkpt>
      <trkpt lat="45.1824" lon="6.35956">
        <ele>2246.8000488281</ele>
        <time>2014-01-11T08:59:55.000Z</time>
      </trkpt>
      <trkpt lat="45.18241" lon="6.35957">
        <ele>2247</ele>
        <time>2014-01-11T08:59:56.000Z</time>
      </trkpt>
      <trkpt lat="45.18241" lon="6.35957">
        <ele>2247.1999511719</ele>
        <time>2014-01-11T08:59:57.000Z</time>
      </trkpt>
      <trkpt lat="45.18241" lon="6.35959">
        <ele>2247.3999023438</ele>
        <time>2014-01-11T08:59:58.000Z</time>
      </trkpt>
      <trkpt lat="45.18241" lon="6.35959">
        <ele>2247.6000976562</ele>
        <time>2014-01-11T08:59:59.000Z</time>
      </trkpt>
      <trkpt lat="45.18241" lon="6.35959">
        <ele>2247.8000488281</ele>
        <time>2014-01-11T09:00:00.000Z</time>
      </trkpt>
      <trkpt lat="45.18241" lon="6.35959">
        <ele>2248</ele>
        <time>2014-01-11T09:00:01.000Z</time>
      </trkpt>
      <trkpt lat="45.18241" lon="6.35959">
        <ele>2248.3999023438</ele>
        <time>2014-01-11T09:00:02.000Z</time>
      </trkpt>
      <trkpt lat="45.18241" lon="6.3596">
        <ele>2248.6000976562</ele>
        <time>2014-01-11T09:00:03.000Z</time>
      </trkpt>
      <trkpt lat="45.18241" lon="6.35961">
        <ele>2248.8000488281</ele>
        <time>2014-01-11T09:00:04.000Z</time>
      </trkpt>
      <trkpt lat="45.18241" lon="6.35962">
        <ele>2249.1999511719</ele>
        <time>2014-01-11T09:00:05.000Z</time>
      </trkpt>
      <trkpt lat="45.18241" lon="6.35963">
        <ele>2249.6000976562</ele>
        <time>2014-01-11T09:00:06.000Z</time>
      </trkpt>
      <trkpt lat="45.18241" lon="6.35964">
        <ele>2249.8000488281</ele>
        <time>2014-01-11T09:00:07.000Z</time>
      </trkpt>
      <trkpt lat="45.18241" lon="6.35965">
        <ele>2250</ele>
        <time>2014-01-11T09:00:08.000Z</time>
      </trkpt>
      <trkpt lat="45.18241" lon="6.35966">
        <ele>2250.1999511719</ele>
        <time>2014-01-11T09:00:09.000Z</time>
      </trkpt>
      <trkpt lat="45.18241" lon="6.35966">
        <ele>2250.3999023438</ele>
        <time>2014-01-11T09:00:10.000Z</time>
      </trkpt>
      <trkpt lat="45.18242" lon="6.35967">
        <ele>2250.6000976562</ele>
        <time>2014-01-11T09:00:11.000Z</time>
      </trkpt>
      <trkpt lat="45.18242" lon="6.35968">
        <ele>2250.8000488281</ele>
        <time>2014-01-11T09:00:12.000Z</time>
      </trkpt>
      <trkpt lat="45.18242" lon="6.35969">
        <ele>2251</ele>
        <time>2014-01-11T09:00:13.000Z</time>
      </trkpt>
      <trkpt lat="45.18242" lon="6.3597">
        <ele>2251.1999511719</ele>
        <time>2014-01-11T09:00:14.000Z</time>
      </trkpt>
      <trkpt lat="45.18242" lon="6.35971">
        <ele>2251.3999023438</ele>
        <time>2014-01-11T09:00:15.000Z</time>
      </trkpt>
      <trkpt lat="45.18242" lon="6.35972">
        <ele>2251.6000976562</ele>
        <time>2014-01-11T09:00:16.000Z</time>
      </trkpt>
      <trkpt lat="45.18242" lon="6.35972">
        <ele>2251.8000488281</ele>
        <time>2014-01-11T09:00:17.000Z</time>
      </trkpt>
      <trkpt lat="45.18242" lon="6.35973">
        <ele>2252</ele>
        <time>2014-01-11T09:00:18.000Z</time>
      </trkpt>
      <trkpt lat="45.18242" lon="6.35974">
        <ele>2252.1999511719</ele>
        <time>2014-01-11T09:00:19.000Z</time>
      </trkpt>
      <trkpt lat="45.18242" lon="6.35975">
        <ele>2252.3999023438</ele>
        <time>2014-01-11T09:00:20.000Z</time>
      </trkpt>
      <trkpt lat="45.18242" lon="6.35975">
        <ele>2252.6000976562</ele>
        <time>2014-01-11T09:00:21.000Z</time>
      </trkpt>
      <trkpt lat="45.18242" lon="6.35976">
        <ele>2252.8000488281</ele>
        <time>2014-01-11T09:00:22.000Z</time>
      </trkpt>
      <trkpt lat="45.18242" lon="6.35976">
        <ele>2253</ele>
        <time>2014-01-11T09:00:23.000Z</time>
      </trkpt>
      <trkpt lat="45.18242" lon="6.35976">
        <ele>2253.1999511719</ele>
        <time>2014-01-11T09:00:24.000Z</time>
      </trkpt>
      <trkpt lat="45.18242" lon="6.35976">
        <ele>2253.3999023438</ele>
        <time>2014-01-11T09:00:25.000Z</time>
      </trkpt>
      <trkpt lat="45.18242" lon="6.35976">
        <ele>2253.6000976562</ele>
        <time>2014-01-11T09:00:26.000Z</time>
      </trkpt>
      <trkpt lat="45.18242" lon="6.35976">
        <ele>2253.6000976562</ele>
        <time>2014-01-11T09:00:27.000Z</time>
      </trkpt>
      <trkpt lat="45.18242" lon="6.35976">
        <ele>2253.8000488281</ele>
        <time>2014-01-11T09:00:28.000Z</time>
      </trkpt>
      <trkpt lat="45.18242" lon="6.35976">
        <ele>2253.8000488281</ele>
        <time>2014-01-11T09:00:29.000Z</time>
      </trkpt>
      <trkpt lat="45.18242" lon="6.35977">
        <ele>2253.8000488281</ele>
        <time>2014-01-11T09:00:30.000Z</time>
      </trkpt>
      <trkpt lat="45.18243" lon="6.35977">
        <ele>2254</ele>
        <time>2014-01-11T09:00:31.000Z</time>
      </trkpt>
      <trkpt lat="45.18244" lon="6.35978">
        <ele>2254</ele>
        <time>2014-01-11T09:00:32.000Z</time>
      </trkpt>
      <trkpt lat="45.18244" lon="6.35978">
        <ele>2254.1999511719</ele>
        <time>2014-01-11T09:00:33.000Z</time>
      </trkpt>
      <trkpt lat="45.18244" lon="6.35978">
        <ele>2254.3999023438</ele>
        <time>2014-01-11T09:00:34.000Z</time>
      </trkpt>
      <trkpt lat="45.18244" lon="6.35979">
        <ele>2254.6000976562</ele>
        <time>2014-01-11T09:00:35.000Z</time>
      </trkpt>
      <trkpt lat="45.18245" lon="6.35979">
        <ele>2254.8000488281</ele>
        <time>2014-01-11T09:00:36.000Z</time>
      </trkpt>
      <trkpt lat="45.18246" lon="6.3598">
        <ele>2255</ele>
        <time>2014-01-11T09:00:37.000Z</time>
      </trkpt>
      <trkpt lat="45.18246" lon="6.3598">
        <ele>2255.1999511719</ele>
        <time>2014-01-11T09:00:38.000Z</time>
      </trkpt>
      <trkpt lat="45.18246" lon="6.35981">
        <ele>2255.3999023438</ele>
        <time>2014-01-11T09:00:39.000Z</time>
      </trkpt>
      <trkpt lat="45.18246" lon="6.35981">
        <ele>2255.6000976562</ele>
        <time>2014-01-11T09:00:40.000Z</time>
      </trkpt>
      <trkpt lat="45.18247" lon="6.35982">
        <ele>2255.8000488281</ele>
        <time>2014-01-11T09:00:41.000Z</time>
      </trkpt>
      <trkpt lat="45.18247" lon="6.35982">
        <ele>2256</ele>
        <time>2014-01-11T09:00:42.000Z</time>
      </trkpt>
      <trkpt lat="45.18247" lon="6.35983">
        <ele>2256.1999511719</ele>
        <time>2014-01-11T09:00:43.000Z</time>
      </trkpt>
      <trkpt lat="45.18248" lon="6.35984">
        <ele>2256.3999023438</ele>
        <time>2014-01-11T09:00:44.000Z</time>
      </trkpt>
      <trkpt lat="45.18248" lon="6.35985">
        <ele>2256.6000976562</ele>
        <time>2014-01-11T09:00:45.000Z</time>
      </trkpt>
      <trkpt lat="45.18249" lon="6.35987">
        <ele>2256.8000488281</ele>
        <time>2014-01-11T09:00:46.000Z</time>
      </trkpt>
      <trkpt lat="45.18249" lon="6.35987">
        <ele>2257</ele>
        <time>2014-01-11T09:00:47.000Z</time>
      </trkpt>
      <trkpt lat="45.18249" lon="6.35987">
        <ele>2257.1999511719</ele>
        <time>2014-01-11T09:00:48.000Z</time>
      </trkpt>
      <trkpt lat="45.18249" lon="6.35988">
        <ele>2257.3999023438</ele>
        <time>2014-01-11T09:00:49.000Z</time>
      </trkpt>
      <trkpt lat="45.18249" lon="6.35988">
        <ele>2257.6000976562</ele>
        <time>2014-01-11T09:00:50.000Z</time>
      </trkpt>
      <trkpt lat="45.1825" lon="6.35989">
        <ele>2257.8000488281</ele>
        <time>2014-01-11T09:00:51.000Z</time>
      </trkpt>
      <trkpt lat="45.1825" lon="6.3599">
        <ele>2258</ele>
        <time>2014-01-11T09:00:52.000Z</time>
      </trkpt>
      <trkpt lat="45.18251" lon="6.35991">
        <ele>2258.3999023438</ele>
        <time>2014-01-11T09:00:53.000Z</time>
      </trkpt>
      <trkpt lat="45.18251" lon="6.35991">
        <ele>2258.6000976562</ele>
        <time>2014-01-11T09:00:54.000Z</time>
      </trkpt>
      <trkpt lat="45.18251" lon="6.35992">
        <ele>2258.8000488281</ele>
        <time>2014-01-11T09:00:55.000Z</time>
      </trkpt>
      <trkpt lat="45.18251" lon="6.35992">
        <ele>2259</ele>
        <time>2014-01-11T09:00:56.000Z</time>
      </trkpt>
      <trkpt lat="45.18252" lon="6.35993">
        <ele>2259.1999511719</ele>
        <time>2014-01-11T09:00:57.000Z</time>
      </trkpt>
      <trkpt lat="45.18252" lon="6.35993">
        <ele>2259.3999023438</ele>
        <time>2014-01-11T09:00:58.000Z</time>
      </trkpt>
      <trkpt lat="45.18252" lon="6.35993">
        <ele>2259.6000976562</ele>
        <time>2014-01-11T09:00:59.000Z</time>
      </trkpt>
      <trkpt lat="45.18253" lon="6.35994">
        <ele>2259.8000488281</ele>
        <time>2014-01-11T09:01:00.000Z</time>
      </trkpt>
      <trkpt lat="45.18253" lon="6.35995">
        <ele>2260</ele>
        <time>2014-01-11T09:01:01.000Z</time>
      </trkpt>
      <trkpt lat="45.18254" lon="6.35995">
        <ele>2260.3999023438</ele>
        <time>2014-01-11T09:01:02.000Z</time>
      </trkpt>
      <trkpt lat="45.18254" lon="6.35996">
        <ele>2260.6000976562</ele>
        <time>2014-01-11T09:01:03.000Z</time>
      </trkpt>
      <trkpt lat="45.18254" lon="6.35996">
        <ele>2260.8000488281</ele>
        <time>2014-01-11T09:01:04.000Z</time>
      </trkpt>
      <trkpt lat="45.18255" lon="6.35996">
        <ele>2261</ele>
        <time>2014-01-11T09:01:05.000Z</time>
      </trkpt>
      <trkpt lat="45.18255" lon="6.35997">
        <ele>2261.1999511719</ele>
        <time>2014-01-11T09:01:06.000Z</time>
      </trkpt>
      <trkpt lat="45.18256" lon="6.35998">
        <ele>2261.3999023438</ele>
        <time>2014-01-11T09:01:07.000Z</time>
      </trkpt>
      <trkpt lat="45.18256" lon="6.36">
        <ele>2261.6000976562</ele>
        <time>2014-01-11T09:01:08.000Z</time>
      </trkpt>
      <trkpt lat="45.18256" lon="6.36001">
        <ele>2261.8000488281</ele>
        <time>2014-01-11T09:01:09.000Z</time>
      </trkpt>
      <trkpt lat="45.18256" lon="6.36001">
        <ele>2262</ele>
        <time>2014-01-11T09:01:10.000Z</time>
      </trkpt>
      <trkpt lat="45.18256" lon="6.36001">
        <ele>2262.1999511719</ele>
        <time>2014-01-11T09:01:11.000Z</time>
      </trkpt>
      <trkpt lat="45.18257" lon="6.36002">
        <ele>2262.3999023438</ele>
        <time>2014-01-11T09:01:12.000Z</time>
      </trkpt>
      <trkpt lat="45.18257" lon="6.36002">
        <ele>2262.6000976562</ele>
        <time>2014-01-11T09:01:13.000Z</time>
      </trkpt>
      <trkpt lat="45.18257" lon="6.36003">
        <ele>2262.8000488281</ele>
        <time>2014-01-11T09:01:14.000Z</time>
      </trkpt>
      <trkpt lat="45.18257" lon="6.36004">
        <ele>2263</ele>
        <time>2014-01-11T09:01:15.000Z</time>
      </trkpt>
      <trkpt lat="45.18258" lon="6.36005">
        <ele>2263</ele>
        <time>2014-01-11T09:01:16.000Z</time>
      </trkpt>
      <trkpt lat="45.18258" lon="6.36006">
        <ele>2263.3999023438</ele>
        <time>2014-01-11T09:01:17.000Z</time>
      </trkpt>
      <trkpt lat="45.18259" lon="6.36008">
        <ele>2263.6000976562</ele>
        <time>2014-01-11T09:01:18.000Z</time>
      </trkpt>
      <trkpt lat="45.18259" lon="6.36008">
        <ele>2263.8000488281</ele>
        <time>2014-01-11T09:01:19.000Z</time>
      </trkpt>
      <trkpt lat="45.1826" lon="6.3601">
        <ele>2264</ele>
        <time>2014-01-11T09:01:20.000Z</time>
      </trkpt>
      <trkpt lat="45.1826" lon="6.36011">
        <ele>2264.1999511719</ele>
        <time>2014-01-11T09:01:21.000Z</time>
      </trkpt>
      <trkpt lat="45.18261" lon="6.36011">
        <ele>2264.3999023438</ele>
        <time>2014-01-11T09:01:22.000Z</time>
      </trkpt>
      <trkpt lat="45.18261" lon="6.36012">
        <ele>2264.6000976562</ele>
        <time>2014-01-11T09:01:23.000Z</time>
      </trkpt>
      <trkpt lat="45.18262" lon="6.36013">
        <ele>2264.8000488281</ele>
        <time>2014-01-11T09:01:24.000Z</time>
      </trkpt>
      <trkpt lat="45.18262" lon="6.36014">
        <ele>2265</ele>
        <time>2014-01-11T09:01:25.000Z</time>
      </trkpt>
      <trkpt lat="45.18263" lon="6.36015">
        <ele>2265.1999511719</ele>
        <time>2014-01-11T09:01:26.000Z</time>
      </trkpt>
      <trkpt lat="45.18263" lon="6.36016">
        <ele>2265.3999023438</ele>
        <time>2014-01-11T09:01:27.000Z</time>
      </trkpt>
      <trkpt lat="45.18263" lon="6.36017">
        <ele>2265.8000488281</ele>
        <time>2014-01-11T09:01:28.000Z</time>
      </trkpt>
      <trkpt lat="45.18263" lon="6.36017">
        <ele>2266</ele>
        <time>2014-01-11T09:01:29.000Z</time>
      </trkpt>
      <trkpt lat="45.18263" lon="6.36017">
        <ele>2266.1999511719</ele>
        <time>2014-01-11T09:01:30.000Z</time>
      </trkpt>
      <trkpt lat="45.18263" lon="6.36017">
        <ele>2266.3999023438</ele>
        <time>2014-01-11T09:01:31.000Z</time>
      </trkpt>
      <trkpt lat="45.18264" lon="6.36017">
        <ele>2266.6000976562</ele>
        <time>2014-01-11T09:01:32.000Z</time>
      </trkpt>
      <trkpt lat="45.18264" lon="6.36017">
        <ele>2266.8000488281</ele>
        <time>2014-01-11T09:01:33.000Z</time>
      </trkpt>
      <trkpt lat="45.18264" lon="6.36019">
        <ele>2267</ele>
        <time>2014-01-11T09:01:34.000Z</time>
      </trkpt>
      <trkpt lat="45.18265" lon="6.3602">
        <ele>2267.1999511719</ele>
        <time>2014-01-11T09:01:35.000Z</time>
      </trkpt>
      <trkpt lat="45.18265" lon="6.36021">
        <ele>2267.3999023438</ele>
        <time>2014-01-11T09:01:36.000Z</time>
      </trkpt>
      <trkpt lat="45.18265" lon="6.36022">
        <ele>2267.6000976562</ele>
        <time>2014-01-11T09:01:37.000Z</time>
      </trkpt>
      <trkpt lat="45.18266" lon="6.36022">
        <ele>2267.8000488281</ele>
        <time>2014-01-11T09:01:38.000Z</time>
      </trkpt>
      <trkpt lat="45.18266" lon="6.36023">
        <ele>2268</ele>
        <time>2014-01-11T09:01:39.000Z</time>
      </trkpt>
      <trkpt lat="45.18266" lon="6.36023">
        <ele>2268.1999511719</ele>
        <time>2014-01-11T09:01:40.000Z</time>
      </trkpt>
      <trkpt lat="45.18266" lon="6.36023">
        <ele>2268.6000976562</ele>
        <time>2014-01-11T09:01:41.000Z</time>
      </trkpt>
      <trkpt lat="45.18267" lon="6.36024">
        <ele>2268.8000488281</ele>
        <time>2014-01-11T09:01:42.000Z</time>
      </trkpt>
      <trkpt lat="45.18268" lon="6.36025">
        <ele>2268.8000488281</ele>
        <time>2014-01-11T09:01:43.000Z</time>
      </trkpt>
      <trkpt lat="45.18267" lon="6.36026">
        <ele>2269</ele>
        <time>2014-01-11T09:01:44.000Z</time>
      </trkpt>
      <trkpt lat="45.18267" lon="6.36026">
        <ele>2269.1999511719</ele>
        <time>2014-01-11T09:01:45.000Z</time>
      </trkpt>
      <trkpt lat="45.18267" lon="6.36027">
        <ele>2269.3999023438</ele>
        <time>2014-01-11T09:01:46.000Z</time>
      </trkpt>
      <trkpt lat="45.18268" lon="6.36027">
        <ele>2269.6000976562</ele>
        <time>2014-01-11T09:01:47.000Z</time>
      </trkpt>
      <trkpt lat="45.18268" lon="6.36028">
        <ele>2269.8000488281</ele>
        <time>2014-01-11T09:01:48.000Z</time>
      </trkpt>
      <trkpt lat="45.18268" lon="6.36029">
        <ele>2270</ele>
        <time>2014-01-11T09:01:49.000Z</time>
      </trkpt>
      <trkpt lat="45.18268" lon="6.36029">
        <ele>2270.1999511719</ele>
        <time>2014-01-11T09:01:50.000Z</time>
      </trkpt>
      <trkpt lat="45.18269" lon="6.3603">
        <ele>2270.6000976562</ele>
        <time>2014-01-11T09:01:51.000Z</time>
      </trkpt>
      <trkpt lat="45.18269" lon="6.36031">
        <ele>2270.8000488281</ele>
        <time>2014-01-11T09:01:52.000Z</time>
      </trkpt>
      <trkpt lat="45.18269" lon="6.36032">
        <ele>2271</ele>
        <time>2014-01-11T09:01:53.000Z</time>
      </trkpt>
      <trkpt lat="45.1827" lon="6.36033">
        <ele>2271.1999511719</ele>
        <time>2014-01-11T09:01:54.000Z</time>
      </trkpt>
      <trkpt lat="45.1827" lon="6.36034">
        <ele>2271.3999023438</ele>
        <time>2014-01-11T09:01:55.000Z</time>
      </trkpt>
      <trkpt lat="45.18271" lon="6.36034">
        <ele>2271.6000976562</ele>
        <time>2014-01-11T09:01:56.000Z</time>
      </trkpt>
      <trkpt lat="45.18271" lon="6.36035">
        <ele>2271.8000488281</ele>
        <time>2014-01-11T09:01:57.000Z</time>
      </trkpt>
      <trkpt lat="45.18271" lon="6.36035">
        <ele>2272</ele>
        <time>2014-01-11T09:01:58.000Z</time>
      </trkpt>
      <trkpt lat="45.18272" lon="6.36036">
        <ele>2272.1999511719</ele>
        <time>2014-01-11T09:01:59.000Z</time>
      </trkpt>
      <trkpt lat="45.18272" lon="6.36036">
        <ele>2272.3999023438</ele>
        <time>2014-01-11T09:02:00.000Z</time>
      </trkpt>
      <trkpt lat="45.18272" lon="6.36036">
        <ele>2272.6000976562</ele>
        <time>2014-01-11T09:02:01.000Z</time>
      </trkpt>
      <trkpt lat="45.18272" lon="6.36037">
        <ele>2272.6000976562</ele>
        <time>2014-01-11T09:02:02.000Z</time>
      </trkpt>
      <trkpt lat="45.18272" lon="6.36038">
        <ele>2272.8000488281</ele>
        <time>2014-01-11T09:02:03.000Z</time>
      </trkpt>
      <trkpt lat="45.18272" lon="6.36038">
        <ele>2273</ele>
        <time>2014-01-11T09:02:04.000Z</time>
      </trkpt>
      <trkpt lat="45.18272" lon="6.36038">
        <ele>2273.3999023438</ele>
        <time>2014-01-11T09:02:05.000Z</time>
      </trkpt>
      <trkpt lat="45.18272" lon="6.36038">
        <ele>2273.6000976562</ele>
        <time>2014-01-11T09:02:06.000Z</time>
      </trkpt>
      <trkpt lat="45.18272" lon="6.36038">
        <ele>2273.6000976562</ele>
        <time>2014-01-11T09:02:07.000Z</time>
      </trkpt>
      <trkpt lat="45.18272" lon="6.36038">
        <ele>2273.8000488281</ele>
        <time>2014-01-11T09:02:08.000Z</time>
      </trkpt>
      <trkpt lat="45.18272" lon="6.36038">
        <ele>2273.8000488281</ele>
        <time>2014-01-11T09:02:09.000Z</time>
      </trkpt>
      <trkpt lat="45.18273" lon="6.36038">
        <ele>2273.8000488281</ele>
        <time>2014-01-11T09:02:10.000Z</time>
      </trkpt>
      <trkpt lat="45.18273" lon="6.36039">
        <ele>2273.8000488281</ele>
        <time>2014-01-11T09:02:11.000Z</time>
      </trkpt>
      <trkpt lat="45.18274" lon="6.3604">
        <ele>2273.8000488281</ele>
        <time>2014-01-11T09:02:12.000Z</time>
      </trkpt>
      <trkpt lat="45.18274" lon="6.36041">
        <ele>2274</ele>
        <time>2014-01-11T09:02:13.000Z</time>
      </trkpt>
      <trkpt lat="45.18274" lon="6.36042">
        <ele>2274</ele>
        <time>2014-01-11T09:02:14.000Z</time>
      </trkpt>
      <trkpt lat="45.18275" lon="6.36043">
        <ele>2274.1999511719</ele>
        <time>2014-01-11T09:02:15.000Z</time>
      </trkpt>
      <trkpt lat="45.18275" lon="6.36044">
        <ele>2274.6000976562</ele>
        <time>2014-01-11T09:02:16.000Z</time>
      </trkpt>
      <trkpt lat="45.18276" lon="6.36044">
        <ele>2274.8000488281</ele>
        <time>2014-01-11T09:02:17.000Z</time>
      </trkpt>
      <trkpt lat="45.18276" lon="6.36045">
        <ele>2275</ele>
        <time>2014-01-11T09:02:18.000Z</time>
      </trkpt>
      <trkpt lat="45.18276" lon="6.36045">
        <ele>2275.1999511719</ele>
        <time>2014-01-11T09:02:19.000Z</time>
      </trkpt>
      <trkpt lat="45.18277" lon="6.36045">
        <ele>2275.3999023438</ele>
        <time>2014-01-11T09:02:20.000Z</time>
      </trkpt>
      <trkpt lat="45.18277" lon="6.36046">
        <ele>2275.8000488281</ele>
        <time>2014-01-11T09:02:21.000Z</time>
      </trkpt>
      <trkpt lat="45.18278" lon="6.36047">
        <ele>2276</ele>
        <time>2014-01-11T09:02:22.000Z</time>
      </trkpt>
      <trkpt lat="45.18278" lon="6.36048">
        <ele>2276.1999511719</ele>
        <time>2014-01-11T09:02:23.000Z</time>
      </trkpt>
      <trkpt lat="45.18279" lon="6.36048">
        <ele>2276.3999023438</ele>
        <time>2014-01-11T09:02:24.000Z</time>
      </trkpt>
      <trkpt lat="45.18279" lon="6.36049">
        <ele>2276.6000976562</ele>
        <time>2014-01-11T09:02:25.000Z</time>
      </trkpt>
      <trkpt lat="45.1828" lon="6.36051">
        <ele>2276.8000488281</ele>
        <time>2014-01-11T09:02:26.000Z</time>
      </trkpt>
      <trkpt lat="45.1828" lon="6.36051">
        <ele>2277</ele>
        <time>2014-01-11T09:02:27.000Z</time>
      </trkpt>
      <trkpt lat="45.1828" lon="6.36052">
        <ele>2277.1999511719</ele>
        <time>2014-01-11T09:02:28.000Z</time>
      </trkpt>
      <trkpt lat="45.18281" lon="6.36053">
        <ele>2277.6000976562</ele>
        <time>2014-01-11T09:02:29.000Z</time>
      </trkpt>
      <trkpt lat="45.18281" lon="6.36053">
        <ele>2277.8000488281</ele>
        <time>2014-01-11T09:02:30.000Z</time>
      </trkpt>
      <trkpt lat="45.18281" lon="6.36053">
        <ele>2278</ele>
        <time>2014-01-11T09:02:31.000Z</time>
      </trkpt>
      <trkpt lat="45.18281" lon="6.36053">
        <ele>2278.3999023438</ele>
        <time>2014-01-11T09:02:32.000Z</time>
      </trkpt>
      <trkpt lat="45.18281" lon="6.36054">
        <ele>2278.6000976562</ele>
        <time>2014-01-11T09:02:33.000Z</time>
      </trkpt>
      <trkpt lat="45.18281" lon="6.36054">
        <ele>2278.8000488281</ele>
        <time>2014-01-11T09:02:34.000Z</time>
      </trkpt>
      <trkpt lat="45.18281" lon="6.36054">
        <ele>2279</ele>
        <time>2014-01-11T09:02:35.000Z</time>
      </trkpt>
      <trkpt lat="45.18281" lon="6.36054">
        <ele>2279.1999511719</ele>
        <time>2014-01-11T09:02:36.000Z</time>
      </trkpt>
      <trkpt lat="45.18282" lon="6.36055">
        <ele>2279.3999023438</ele>
        <time>2014-01-11T09:02:37.000Z</time>
      </trkpt>
      <trkpt lat="45.18282" lon="6.36055">
        <ele>2279.6000976562</ele>
        <time>2014-01-11T09:02:38.000Z</time>
      </trkpt>
      <trkpt lat="45.18282" lon="6.36056">
        <ele>2279.8000488281</ele>
        <time>2014-01-11T09:02:39.000Z</time>
      </trkpt>
      <trkpt lat="45.18282" lon="6.36056">
        <ele>2280</ele>
        <time>2014-01-11T09:02:40.000Z</time>
      </trkpt>
      <trkpt lat="45.18282" lon="6.36056">
        <ele>2280.1999511719</ele>
        <time>2014-01-11T09:02:41.000Z</time>
      </trkpt>
      <trkpt lat="45.18282" lon="6.36056">
        <ele>2280.3999023438</ele>
        <time>2014-01-11T09:02:42.000Z</time>
      </trkpt>
      <trkpt lat="45.18282" lon="6.36057">
        <ele>2280.6000976562</ele>
        <time>2014-01-11T09:02:43.000Z</time>
      </trkpt>
      <trkpt lat="45.18283" lon="6.36058">
        <ele>2280.8000488281</ele>
        <time>2014-01-11T09:02:44.000Z</time>
      </trkpt>
      <trkpt lat="45.18283" lon="6.36059">
        <ele>2281.1999511719</ele>
        <time>2014-01-11T09:02:45.000Z</time>
      </trkpt>
      <trkpt lat="45.18283" lon="6.3606">
        <ele>2281.3999023438</ele>
        <time>2014-01-11T09:02:46.000Z</time>
      </trkpt>
      <trkpt lat="45.18284" lon="6.36061">
        <ele>2281.6000976562</ele>
        <time>2014-01-11T09:02:47.000Z</time>
      </trkpt>
      <trkpt lat="45.18284" lon="6.36062">
        <ele>2281.8000488281</ele>
        <time>2014-01-11T09:02:48.000Z</time>
      </trkpt>
      <trkpt lat="45.18284" lon="6.36062">
        <ele>2281.8000488281</ele>
        <time>2014-01-11T09:02:49.000Z</time>
      </trkpt>
      <trkpt lat="45.18285" lon="6.36063">
        <ele>2282</ele>
        <time>2014-01-11T09:02:50.000Z</time>
      </trkpt>
      <trkpt lat="45.18285" lon="6.36063">
        <ele>2282.1999511719</ele>
        <time>2014-01-11T09:02:51.000Z</time>
      </trkpt>
      <trkpt lat="45.18285" lon="6.36064">
        <ele>2282.3999023438</ele>
        <time>2014-01-11T09:02:52.000Z</time>
      </trkpt>
      <trkpt lat="45.18285" lon="6.36064">
        <ele>2282.8000488281</ele>
        <time>2014-01-11T09:02:53.000Z</time>
      </trkpt>
      <trkpt lat="45.18285" lon="6.36065">
        <ele>2283.1999511719</ele>
        <time>2014-01-11T09:02:54.000Z</time>
      </trkpt>
      <trkpt lat="45.18285" lon="6.36065">
        <ele>2283.3999023438</ele>
        <time>2014-01-11T09:02:55.000Z</time>
      </trkpt>
      <trkpt lat="45.18285" lon="6.36066">
        <ele>2283.6000976562</ele>
        <time>2014-01-11T09:02:56.000Z</time>
      </trkpt>
      <trkpt lat="45.18285" lon="6.36066">
        <ele>2283.8000488281</ele>
        <time>2014-01-11T09:02:57.000Z</time>
      </trkpt>
      <trkpt lat="45.18286" lon="6.36067">
        <ele>2283.8000488281</ele>
        <time>2014-01-11T09:02:58.000Z</time>
      </trkpt>
      <trkpt lat="45.18286" lon="6.36067">
        <ele>2284</ele>
        <time>2014-01-11T09:02:59.000Z</time>
      </trkpt>
      <trkpt lat="45.18286" lon="6.36068">
        <ele>2284.1999511719</ele>
        <time>2014-01-11T09:03:00.000Z</time>
      </trkpt>
      <trkpt lat="45.18286" lon="6.36068">
        <ele>2284.3999023438</ele>
        <time>2014-01-11T09:03:01.000Z</time>
      </trkpt>
      <trkpt lat="45.18287" lon="6.3607">
        <ele>2284.6000976562</ele>
        <time>2014-01-11T09:03:02.000Z</time>
      </trkpt>
      <trkpt lat="45.18287" lon="6.3607">
        <ele>2284.8000488281</ele>
        <time>2014-01-11T09:03:03.000Z</time>
      </trkpt>
      <trkpt lat="45.18287" lon="6.36071">
        <ele>2285</ele>
        <time>2014-01-11T09:03:04.000Z</time>
      </trkpt>
      <trkpt lat="45.18287" lon="6.36071">
        <ele>2285.1999511719</ele>
        <time>2014-01-11T09:03:05.000Z</time>
      </trkpt>
      <trkpt lat="45.18288" lon="6.36072">
        <ele>2285.3999023438</ele>
        <time>2014-01-11T09:03:06.000Z</time>
      </trkpt>
      <trkpt lat="45.18288" lon="6.36072">
        <ele>2285.3999023438</ele>
        <time>2014-01-11T09:03:07.000Z</time>
      </trkpt>
      <trkpt lat="45.18288" lon="6.36073">
        <ele>2285.6000976562</ele>
        <time>2014-01-11T09:03:08.000Z</time>
      </trkpt>
      <trkpt lat="45.18288" lon="6.36073">
        <ele>2285.8000488281</ele>
        <time>2014-01-11T09:03:09.000Z</time>
      </trkpt>
      <trkpt lat="45.18288" lon="6.36073">
        <ele>2286.1999511719</ele>
        <time>2014-01-11T09:03:10.000Z</time>
      </trkpt>
      <trkpt lat="45.18288" lon="6.36073">
        <ele>2286.3999023438</ele>
        <time>2014-01-11T09:03:11.000Z</time>
      </trkpt>
      <trkpt lat="45.18289" lon="6.36074">
        <ele>2286.6000976562</ele>
        <time>2014-01-11T09:03:12.000Z</time>
      </trkpt>
      <trkpt lat="45.18289" lon="6.36075">
        <ele>2286.8000488281</ele>
        <time>2014-01-11T09:03:13.000Z</time>
      </trkpt>
      <trkpt lat="45.18289" lon="6.36076">
        <ele>2287</ele>
        <time>2014-01-11T09:03:14.000Z</time>
      </trkpt>
      <trkpt lat="45.18289" lon="6.36076">
        <ele>2287.1999511719</ele>
        <time>2014-01-11T09:03:15.000Z</time>
      </trkpt>
      <trkpt lat="45.18289" lon="6.36077">
        <ele>2287.3999023438</ele>
        <time>2014-01-11T09:03:16.000Z</time>
      </trkpt>
      <trkpt lat="45.1829" lon="6.36078">
        <ele>2287.6000976562</ele>
        <time>2014-01-11T09:03:17.000Z</time>
      </trkpt>
      <trkpt lat="45.1829" lon="6.36078">
        <ele>2287.8000488281</ele>
        <time>2014-01-11T09:03:18.000Z</time>
      </trkpt>
      <trkpt lat="45.1829" lon="6.36079">
        <ele>2288</ele>
        <time>2014-01-11T09:03:19.000Z</time>
      </trkpt>
      <trkpt lat="45.1829" lon="6.36079">
        <ele>2288.1999511719</ele>
        <time>2014-01-11T09:03:20.000Z</time>
      </trkpt>
      <trkpt lat="45.18291" lon="6.3608">
        <ele>2288.3999023438</ele>
        <time>2014-01-11T09:03:21.000Z</time>
      </trkpt>
      <trkpt lat="45.18291" lon="6.3608">
        <ele>2288.6000976562</ele>
        <time>2014-01-11T09:03:22.000Z</time>
      </trkpt>
      <trkpt lat="45.18291" lon="6.36081">
        <ele>2288.8000488281</ele>
        <time>2014-01-11T09:03:23.000Z</time>
      </trkpt>
      <trkpt lat="45.18291" lon="6.36081">
        <ele>2289</ele>
        <time>2014-01-11T09:03:24.000Z</time>
      </trkpt>
      <trkpt lat="45.18292" lon="6.36083">
        <ele>2289.1999511719</ele>
        <time>2014-01-11T09:03:25.000Z</time>
      </trkpt>
      <trkpt lat="45.18292" lon="6.36083">
        <ele>2289.3999023438</ele>
        <time>2014-01-11T09:03:26.000Z</time>
      </trkpt>
      <trkpt lat="45.18292" lon="6.36084">
        <ele>2289.6000976562</ele>
        <time>2014-01-11T09:03:27.000Z</time>
      </trkpt>
      <trkpt lat="45.18292" lon="6.36084">
        <ele>2289.8000488281</ele>
        <time>2014-01-11T09:03:28.000Z</time>
      </trkpt>
      <trkpt lat="45.18293" lon="6.36086">
        <ele>2290</ele>
        <time>2014-01-11T09:03:29.000Z</time>
      </trkpt>
      <trkpt lat="45.18293" lon="6.36086">
        <ele>2290.1999511719</ele>
        <time>2014-01-11T09:03:30.000Z</time>
      </trkpt>
      <trkpt lat="45.18294" lon="6.36086">
        <ele>2290.3999023438</ele>
        <time>2014-01-11T09:03:31.000Z</time>
      </trkpt>
      <trkpt lat="45.18294" lon="6.36086">
        <ele>2290.6000976562</ele>
        <time>2014-01-11T09:03:32.000Z</time>
      </trkpt>
      <trkpt lat="45.18294" lon="6.36087">
        <ele>2290.8000488281</ele>
        <time>2014-01-11T09:03:33.000Z</time>
      </trkpt>
      <trkpt lat="45.18294" lon="6.36087">
        <ele>2291</ele>
        <time>2014-01-11T09:03:34.000Z</time>
      </trkpt>
      <trkpt lat="45.18295" lon="6.36088">
        <ele>2291.1999511719</ele>
        <time>2014-01-11T09:03:35.000Z</time>
      </trkpt>
      <trkpt lat="45.18295" lon="6.36088">
        <ele>2291.3999023438</ele>
        <time>2014-01-11T09:03:36.000Z</time>
      </trkpt>
      <trkpt lat="45.18295" lon="6.36088">
        <ele>2291.6000976562</ele>
        <time>2014-01-11T09:03:37.000Z</time>
      </trkpt>
      <trkpt lat="45.18295" lon="6.36088">
        <ele>2292</ele>
        <time>2014-01-11T09:03:38.000Z</time>
      </trkpt>
      <trkpt lat="45.18295" lon="6.36088">
        <ele>2292</ele>
        <time>2014-01-11T09:03:39.000Z</time>
      </trkpt>
      <trkpt lat="45.18295" lon="6.36088">
        <ele>2292.1999511719</ele>
        <time>2014-01-11T09:03:40.000Z</time>
      </trkpt>
      <trkpt lat="45.18295" lon="6.36088">
        <ele>2292.3999023438</ele>
        <time>2014-01-11T09:03:41.000Z</time>
      </trkpt>
      <trkpt lat="45.18295" lon="6.3609">
        <ele>2292.6000976562</ele>
        <time>2014-01-11T09:03:42.000Z</time>
      </trkpt>
      <trkpt lat="45.18296" lon="6.36091">
        <ele>2292.8000488281</ele>
        <time>2014-01-11T09:03:43.000Z</time>
      </trkpt>
      <trkpt lat="45.18296" lon="6.36092">
        <ele>2292.8000488281</ele>
        <time>2014-01-11T09:03:44.000Z</time>
      </trkpt>
      <trkpt lat="45.18296" lon="6.36092">
        <ele>2293</ele>
        <time>2014-01-11T09:03:45.000Z</time>
      </trkpt>
      <trkpt lat="45.18297" lon="6.36093">
        <ele>2293</ele>
        <time>2014-01-11T09:03:46.000Z</time>
      </trkpt>
      <trkpt lat="45.18297" lon="6.36095">
        <ele>2293.1999511719</ele>
        <time>2014-01-11T09:03:47.000Z</time>
      </trkpt>
      <trkpt lat="45.18298" lon="6.36095">
        <ele>2293.3999023438</ele>
        <time>2014-01-11T09:03:48.000Z</time>
      </trkpt>
      <trkpt lat="45.18298" lon="6.36096">
        <ele>2293.6000976562</ele>
        <time>2014-01-11T09:03:49.000Z</time>
      </trkpt>
      <trkpt lat="45.18299" lon="6.36097">
        <ele>2293.6000976562</ele>
        <time>2014-01-11T09:03:50.000Z</time>
      </trkpt>
      <trkpt lat="45.183" lon="6.36098">
        <ele>2294</ele>
        <time>2014-01-11T09:03:51.000Z</time>
      </trkpt>
      <trkpt lat="45.183" lon="6.36098">
        <ele>2294.1999511719</ele>
        <time>2014-01-11T09:03:52.000Z</time>
      </trkpt>
      <trkpt lat="45.183" lon="6.36099">
        <ele>2294.3999023438</ele>
        <time>2014-01-11T09:03:53.000Z</time>
      </trkpt>
      <trkpt lat="45.18301" lon="6.36099">
        <ele>2294.6000976562</ele>
        <time>2014-01-11T09:03:54.000Z</time>
      </trkpt>
      <trkpt lat="45.18301" lon="6.361">
        <ele>2294.6000976562</ele>
        <time>2014-01-11T09:03:55.000Z</time>
      </trkpt>
      <trkpt lat="45.18301" lon="6.361">
        <ele>2294.8000488281</ele>
        <time>2014-01-11T09:03:56.000Z</time>
      </trkpt>
      <trkpt lat="45.18301" lon="6.361">
        <ele>2295</ele>
        <time>2014-01-11T09:03:57.000Z</time>
      </trkpt>
      <trkpt lat="45.18302" lon="6.36101">
        <ele>2295.1999511719</ele>
        <time>2014-01-11T09:03:58.000Z</time>
      </trkpt>
      <trkpt lat="45.18303" lon="6.36102">
        <ele>2295.3999023438</ele>
        <time>2014-01-11T09:03:59.000Z</time>
      </trkpt>
      <trkpt lat="45.18304" lon="6.36102">
        <ele>2295.6000976562</ele>
        <time>2014-01-11T09:04:00.000Z</time>
      </trkpt>
      <trkpt lat="45.18304" lon="6.36102">
        <ele>2295.8000488281</ele>
        <time>2014-01-11T09:04:01.000Z</time>
      </trkpt>
      <trkpt lat="45.18305" lon="6.36103">
        <ele>2296</ele>
        <time>2014-01-11T09:04:02.000Z</time>
      </trkpt>
      <trkpt lat="45.18305" lon="6.36104">
        <ele>2296.1999511719</ele>
        <time>2014-01-11T09:04:03.000Z</time>
      </trkpt>
      <trkpt lat="45.18305" lon="6.36105">
        <ele>2296.3999023438</ele>
        <time>2014-01-11T09:04:04.000Z</time>
      </trkpt>
      <trkpt lat="45.18306" lon="6.36105">
        <ele>2296.8000488281</ele>
        <time>2014-01-11T09:04:05.000Z</time>
      </trkpt>
      <trkpt lat="45.18306" lon="6.36106">
        <ele>2297</ele>
        <time>2014-01-11T09:04:06.000Z</time>
      </trkpt>
      <trkpt lat="45.18306" lon="6.36107">
        <ele>2297.1999511719</ele>
        <time>2014-01-11T09:04:07.000Z</time>
      </trkpt>
      <trkpt lat="45.18307" lon="6.36108">
        <ele>2297.3999023438</ele>
        <time>2014-01-11T09:04:08.000Z</time>
      </trkpt>
      <trkpt lat="45.18307" lon="6.36108">
        <ele>2297.6000976562</ele>
        <time>2014-01-11T09:04:09.000Z</time>
      </trkpt>
      <trkpt lat="45.18308" lon="6.36108">
        <ele>2297.8000488281</ele>
        <time>2014-01-11T09:04:10.000Z</time>
      </trkpt>
      <trkpt lat="45.18308" lon="6.36108">
        <ele>2298</ele>
        <time>2014-01-11T09:04:11.000Z</time>
      </trkpt>
      <trkpt lat="45.18308" lon="6.36108">
        <ele>2298.1999511719</ele>
        <time>2014-01-11T09:04:12.000Z</time>
      </trkpt>
      <trkpt lat="45.18309" lon="6.36109">
        <ele>2298.6000976562</ele>
        <time>2014-01-11T09:04:13.000Z</time>
      </trkpt>
      <trkpt lat="45.18309" lon="6.36109">
        <ele>2298.8000488281</ele>
        <time>2014-01-11T09:04:14.000Z</time>
      </trkpt>
      <trkpt lat="45.18309" lon="6.3611">
        <ele>2298.8000488281</ele>
        <time>2014-01-11T09:04:15.000Z</time>
      </trkpt>
      <trkpt lat="45.1831" lon="6.36111">
        <ele>2299</ele>
        <time>2014-01-11T09:04:16.000Z</time>
      </trkpt>
      <trkpt lat="45.1831" lon="6.36112">
        <ele>2299.1999511719</ele>
        <time>2014-01-11T09:04:17.000Z</time>
      </trkpt>
      <trkpt lat="45.1831" lon="6.36112">
        <ele>2299.3999023438</ele>
        <time>2014-01-11T09:04:18.000Z</time>
      </trkpt>
      <trkpt lat="45.18311" lon="6.36113">
        <ele>2299.6000976562</ele>
        <time>2014-01-11T09:04:19.000Z</time>
      </trkpt>
      <trkpt lat="45.18311" lon="6.36113">
        <ele>2299.8000488281</ele>
        <time>2014-01-11T09:04:20.000Z</time>
      </trkpt>
      <trkpt lat="45.18311" lon="6.36114">
        <ele>2299.8000488281</ele>
        <time>2014-01-11T09:04:21.000Z</time>
      </trkpt>
      <trkpt lat="45.18312" lon="6.36114">
        <ele>2300</ele>
        <time>2014-01-11T09:04:22.000Z</time>
      </trkpt>
      <trkpt lat="45.18312" lon="6.36114">
        <ele>2300.1999511719</ele>
        <time>2014-01-11T09:04:23.000Z</time>
      </trkpt>
      <trkpt lat="45.18313" lon="6.36114">
        <ele>2300.3999023438</ele>
        <time>2014-01-11T09:04:24.000Z</time>
      </trkpt>
      <trkpt lat="45.18313" lon="6.36114">
        <ele>2300.6000976562</ele>
        <time>2014-01-11T09:04:25.000Z</time>
      </trkpt>
      <trkpt lat="45.18313" lon="6.36114">
        <ele>2300.8000488281</ele>
        <time>2014-01-11T09:04:26.000Z</time>
      </trkpt>
      <trkpt lat="45.18313" lon="6.36115">
        <ele>2300.8000488281</ele>
        <time>2014-01-11T09:04:27.000Z</time>
      </trkpt>
      <trkpt lat="45.18313" lon="6.36115">
        <ele>2301</ele>
        <time>2014-01-11T09:04:28.000Z</time>
      </trkpt>
      <trkpt lat="45.18314" lon="6.36116">
        <ele>2301.3999023438</ele>
        <time>2014-01-11T09:04:29.000Z</time>
      </trkpt>
      <trkpt lat="45.18314" lon="6.36116">
        <ele>2301.6000976562</ele>
        <time>2014-01-11T09:04:30.000Z</time>
      </trkpt>
      <trkpt lat="45.18314" lon="6.36116">
        <ele>2301.8000488281</ele>
        <time>2014-01-11T09:04:31.000Z</time>
      </trkpt>
      <trkpt lat="45.18315" lon="6.36117">
        <ele>2302</ele>
        <time>2014-01-11T09:04:32.000Z</time>
      </trkpt>
      <trkpt lat="45.18315" lon="6.36119">
        <ele>2302.1999511719</ele>
        <time>2014-01-11T09:04:33.000Z</time>
      </trkpt>
      <trkpt lat="45.18315" lon="6.36119">
        <ele>2302.3999023438</ele>
        <time>2014-01-11T09:04:34.000Z</time>
      </trkpt>
      <trkpt lat="45.18316" lon="6.36121">
        <ele>2302.6000976562</ele>
        <time>2014-01-11T09:04:35.000Z</time>
      </trkpt>
      <trkpt lat="45.18316" lon="6.36122">
        <ele>2302.8000488281</ele>
        <time>2014-01-11T09:04:36.000Z</time>
      </trkpt>
      <trkpt lat="45.18316" lon="6.36123">
        <ele>2303</ele>
        <time>2014-01-11T09:04:37.000Z</time>
      </trkpt>
      <trkpt lat="45.18316" lon="6.36123">
        <ele>2303.1999511719</ele>
        <time>2014-01-11T09:04:38.000Z</time>
      </trkpt>
      <trkpt lat="45.18317" lon="6.36124">
        <ele>2303.3999023438</ele>
        <time>2014-01-11T09:04:39.000Z</time>
      </trkpt>
      <trkpt lat="45.18317" lon="6.36124">
        <ele>2303.6000976562</ele>
        <time>2014-01-11T09:04:40.000Z</time>
      </trkpt>
      <trkpt lat="45.18317" lon="6.36124">
        <ele>2303.8000488281</ele>
        <time>2014-01-11T09:04:41.000Z</time>
      </trkpt>
      <trkpt lat="45.18317" lon="6.36124">
        <ele>2304</ele>
        <time>2014-01-11T09:04:42.000Z</time>
      </trkpt>
      <trkpt lat="45.18317" lon="6.36125">
        <ele>2304.3999023438</ele>
        <time>2014-01-11T09:04:43.000Z</time>
      </trkpt>
      <trkpt lat="45.18318" lon="6.36125">
        <ele>2304.6000976562</ele>
        <time>2014-01-11T09:04:44.000Z</time>
      </trkpt>
      <trkpt lat="45.18318" lon="6.36126">
        <ele>2304.8000488281</ele>
        <time>2014-01-11T09:04:45.000Z</time>
      </trkpt>
      <trkpt lat="45.18319" lon="6.36126">
        <ele>2304.8000488281</ele>
        <time>2014-01-11T09:04:46.000Z</time>
      </trkpt>
      <trkpt lat="45.18319" lon="6.36126">
        <ele>2305</ele>
        <time>2014-01-11T09:04:47.000Z</time>
      </trkpt>
      <trkpt lat="45.18319" lon="6.36127">
        <ele>2305.1999511719</ele>
        <time>2014-01-11T09:04:48.000Z</time>
      </trkpt>
      <trkpt lat="45.18319" lon="6.36127">
        <ele>2305.1999511719</ele>
        <time>2014-01-11T09:04:49.000Z</time>
      </trkpt>
      <trkpt lat="45.1832" lon="6.36127">
        <ele>2305.3999023438</ele>
        <time>2014-01-11T09:04:50.000Z</time>
      </trkpt>
      <trkpt lat="45.1832" lon="6.36128">
        <ele>2305.6000976562</ele>
        <time>2014-01-11T09:04:51.000Z</time>
      </trkpt>
      <trkpt lat="45.1832" lon="6.36128">
        <ele>2305.8000488281</ele>
        <time>2014-01-11T09:04:52.000Z</time>
      </trkpt>
      <trkpt lat="45.1832" lon="6.36128">
        <ele>2306.1999511719</ele>
        <time>2014-01-11T09:04:53.000Z</time>
      </trkpt>
      <trkpt lat="45.1832" lon="6.36128">
        <ele>2306.3999023438</ele>
        <time>2014-01-11T09:04:54.000Z</time>
      </trkpt>
      <trkpt lat="45.1832" lon="6.36128">
        <ele>2306.6000976562</ele>
        <time>2014-01-11T09:04:55.000Z</time>
      </trkpt>
      <trkpt lat="45.1832" lon="6.36128">
        <ele>2306.8000488281</ele>
        <time>2014-01-11T09:04:56.000Z</time>
      </trkpt>
      <trkpt lat="45.18319" lon="6.36129">
        <ele>2307</ele>
        <time>2014-01-11T09:04:57.000Z</time>
      </trkpt>
      <trkpt lat="45.18318" lon="6.3613">
        <ele>2307</ele>
        <time>2014-01-11T09:04:58.000Z</time>
      </trkpt>
      <trkpt lat="45.18317" lon="6.36131">
        <ele>2307</ele>
        <time>2014-01-11T09:04:59.000Z</time>
      </trkpt>
      <trkpt lat="45.18317" lon="6.36131">
        <ele>2307.1999511719</ele>
        <time>2014-01-11T09:05:00.000Z</time>
      </trkpt>
      <trkpt lat="45.18316" lon="6.36132">
        <ele>2307.3999023438</ele>
        <time>2014-01-11T09:05:01.000Z</time>
      </trkpt>
      <trkpt lat="45.18315" lon="6.36133">
        <ele>2307.6000976562</ele>
        <time>2014-01-11T09:05:02.000Z</time>
      </trkpt>
      <trkpt lat="45.18315" lon="6.36133">
        <ele>2307.8000488281</ele>
        <time>2014-01-11T09:05:03.000Z</time>
      </trkpt>
      <trkpt lat="45.18315" lon="6.36134">
        <ele>2308</ele>
        <time>2014-01-11T09:05:04.000Z</time>
      </trkpt>
      <trkpt lat="45.18315" lon="6.36134">
        <ele>2308.3999023438</ele>
        <time>2014-01-11T09:05:05.000Z</time>
      </trkpt>
      <trkpt lat="45.18314" lon="6.36134">
        <ele>2308.6000976562</ele>
        <time>2014-01-11T09:05:06.000Z</time>
      </trkpt>
      <trkpt lat="45.18314" lon="6.36135">
        <ele>2308.8000488281</ele>
        <time>2014-01-11T09:05:07.000Z</time>
      </trkpt>
      <trkpt lat="45.18314" lon="6.36136">
        <ele>2309</ele>
        <time>2014-01-11T09:05:08.000Z</time>
      </trkpt>
      <trkpt lat="45.18314" lon="6.36137">
        <ele>2309.3999023438</ele>
        <time>2014-01-11T09:05:09.000Z</time>
      </trkpt>
      <trkpt lat="45.18313" lon="6.36137">
        <ele>2309.6000976562</ele>
        <time>2014-01-11T09:05:10.000Z</time>
      </trkpt>
      <trkpt lat="45.18312" lon="6.36138">
        <ele>2309.8000488281</ele>
        <time>2014-01-11T09:05:11.000Z</time>
      </trkpt>
      <trkpt lat="45.18312" lon="6.36138">
        <ele>2309.8000488281</ele>
        <time>2014-01-11T09:05:12.000Z</time>
      </trkpt>
      <trkpt lat="45.18311" lon="6.36139">
        <ele>2310</ele>
        <time>2014-01-11T09:05:13.000Z</time>
      </trkpt>
      <trkpt lat="45.1831" lon="6.3614">
        <ele>2310.1999511719</ele>
        <time>2014-01-11T09:05:14.000Z</time>
      </trkpt>
      <trkpt lat="45.18309" lon="6.36141">
        <ele>2310.3999023438</ele>
        <time>2014-01-11T09:05:15.000Z</time>
      </trkpt>
      <trkpt lat="45.18309" lon="6.36141">
        <ele>2310.6000976562</ele>
        <time>2014-01-11T09:05:16.000Z</time>
      </trkpt>
      <trkpt lat="45.18309" lon="6.36142">
        <ele>2311</ele>
        <time>2014-01-11T09:05:17.000Z</time>
      </trkpt>
      <trkpt lat="45.18308" lon="6.36142">
        <ele>2311.1999511719</ele>
        <time>2014-01-11T09:05:18.000Z</time>
      </trkpt>
      <trkpt lat="45.18308" lon="6.36143">
        <ele>2311.3999023438</ele>
        <time>2014-01-11T09:05:19.000Z</time>
      </trkpt>
      <trkpt lat="45.18308" lon="6.36143">
        <ele>2311.6000976562</ele>
        <time>2014-01-11T09:05:20.000Z</time>
      </trkpt>
      <trkpt lat="45.18307" lon="6.36144">
        <ele>2311.8000488281</ele>
        <time>2014-01-11T09:05:21.000Z</time>
      </trkpt>
      <trkpt lat="45.18307" lon="6.36144">
        <ele>2312</ele>
        <time>2014-01-11T09:05:22.000Z</time>
      </trkpt>
      <trkpt lat="45.18307" lon="6.36145">
        <ele>2312.1999511719</ele>
        <time>2014-01-11T09:05:23.000Z</time>
      </trkpt>
      <trkpt lat="45.18307" lon="6.36146">
        <ele>2312.3999023438</ele>
        <time>2014-01-11T09:05:24.000Z</time>
      </trkpt>
      <trkpt lat="45.18307" lon="6.36146">
        <ele>2312.6000976562</ele>
        <time>2014-01-11T09:05:25.000Z</time>
      </trkpt>
      <trkpt lat="45.18306" lon="6.36147">
        <ele>2312.8000488281</ele>
        <time>2014-01-11T09:05:26.000Z</time>
      </trkpt>
      <trkpt lat="45.18305" lon="6.36147">
        <ele>2313</ele>
        <time>2014-01-11T09:05:27.000Z</time>
      </trkpt>
      <trkpt lat="45.18305" lon="6.36148">
        <ele>2313.1999511719</ele>
        <time>2014-01-11T09:05:28.000Z</time>
      </trkpt>
      <trkpt lat="45.18305" lon="6.36148">
        <ele>2313.3999023438</ele>
        <time>2014-01-11T09:05:29.000Z</time>
      </trkpt>
      <trkpt lat="45.18304" lon="6.36149">
        <ele>2313.6000976562</ele>
        <time>2014-01-11T09:05:30.000Z</time>
      </trkpt>
      <trkpt lat="45.18304" lon="6.36149">
        <ele>2313.8000488281</ele>
        <time>2014-01-11T09:05:31.000Z</time>
      </trkpt>
      <trkpt lat="45.18304" lon="6.3615">
        <ele>2313.8000488281</ele>
        <time>2014-01-11T09:05:32.000Z</time>
      </trkpt>
      <trkpt lat="45.18304" lon="6.3615">
        <ele>2314</ele>
        <time>2014-01-11T09:05:33.000Z</time>
      </trkpt>
      <trkpt lat="45.18303" lon="6.36151">
        <ele>2314.1999511719</ele>
        <time>2014-01-11T09:05:34.000Z</time>
      </trkpt>
      <trkpt lat="45.18303" lon="6.36151">
        <ele>2314.3999023438</ele>
        <time>2014-01-11T09:05:35.000Z</time>
      </trkpt>
      <trkpt lat="45.18302" lon="6.36152">
        <ele>2314.6000976562</ele>
        <time>2014-01-11T09:05:36.000Z</time>
      </trkpt>
      <trkpt lat="45.18302" lon="6.36153">
        <ele>2314.8000488281</ele>
        <time>2014-01-11T09:05:37.000Z</time>
      </trkpt>
      <trkpt lat="45.18301" lon="6.36153">
        <ele>2314.8000488281</ele>
        <time>2014-01-11T09:05:38.000Z</time>
      </trkpt>
      <trkpt lat="45.18301" lon="6.36153">
        <ele>2315</ele>
        <time>2014-01-11T09:05:39.000Z</time>
      </trkpt>
      <trkpt lat="45.18301" lon="6.36154">
        <ele>2315.1999511719</ele>
        <time>2014-01-11T09:05:40.000Z</time>
      </trkpt>
      <trkpt lat="45.183" lon="6.36155">
        <ele>2315.3999023438</ele>
        <time>2014-01-11T09:05:41.000Z</time>
      </trkpt>
      <trkpt lat="45.183" lon="6.36155">
        <ele>2315.6000976562</ele>
        <time>2014-01-11T09:05:42.000Z</time>
      </trkpt>
      <trkpt lat="45.183" lon="6.36155">
        <ele>2315.8000488281</ele>
        <time>2014-01-11T09:05:43.000Z</time>
      </trkpt>
      <trkpt lat="45.183" lon="6.36156">
        <ele>2316</ele>
        <time>2014-01-11T09:05:44.000Z</time>
      </trkpt>
      <trkpt lat="45.183" lon="6.36156">
        <ele>2316.1999511719</ele>
        <time>2014-01-11T09:05:45.000Z</time>
      </trkpt>
      <trkpt lat="45.18299" lon="6.36156">
        <ele>2316.1999511719</ele>
        <time>2014-01-11T09:05:46.000Z</time>
      </trkpt>
      <trkpt lat="45.18298" lon="6.36156">
        <ele>2316.3999023438</ele>
        <time>2014-01-11T09:05:47.000Z</time>
      </trkpt>
      <trkpt lat="45.18298" lon="6.36157">
        <ele>2316.6000976562</ele>
        <time>2014-01-11T09:05:48.000Z</time>
      </trkpt>
      <trkpt lat="45.18298" lon="6.36157">
        <ele>2316.8000488281</ele>
        <time>2014-01-11T09:05:49.000Z</time>
      </trkpt>
      <trkpt lat="45.18297" lon="6.36158">
        <ele>2317</ele>
        <time>2014-01-11T09:05:50.000Z</time>
      </trkpt>
      <trkpt lat="45.18297" lon="6.36158">
        <ele>2317.1999511719</ele>
        <time>2014-01-11T09:05:51.000Z</time>
      </trkpt>
      <trkpt lat="45.18297" lon="6.36158">
        <ele>2317.3999023438</ele>
        <time>2014-01-11T09:05:52.000Z</time>
      </trkpt>
      <trkpt lat="45.18297" lon="6.36158">
        <ele>2317.6000976562</ele>
        <time>2014-01-11T09:05:53.000Z</time>
      </trkpt>
      <trkpt lat="45.18296" lon="6.36158">
        <ele>2317.6000976562</ele>
        <time>2014-01-11T09:05:54.000Z</time>
      </trkpt>
      <trkpt lat="45.18296" lon="6.36158">
        <ele>2317.8000488281</ele>
        <time>2014-01-11T09:05:55.000Z</time>
      </trkpt>
      <trkpt lat="45.18296" lon="6.36158">
        <ele>2318</ele>
        <time>2014-01-11T09:05:56.000Z</time>
      </trkpt>
      <trkpt lat="45.18297" lon="6.36159">
        <ele>2318.1999511719</ele>
        <time>2014-01-11T09:05:57.000Z</time>
      </trkpt>
      <trkpt lat="45.18297" lon="6.3616">
        <ele>2318.3999023438</ele>
        <time>2014-01-11T09:05:58.000Z</time>
      </trkpt>
      <trkpt lat="45.18298" lon="6.3616">
        <ele>2318.3999023438</ele>
        <time>2014-01-11T09:05:59.000Z</time>
      </trkpt>
      <trkpt lat="45.18298" lon="6.36161">
        <ele>2318.6000976562</ele>
        <time>2014-01-11T09:06:00.000Z</time>
      </trkpt>
      <trkpt lat="45.18299" lon="6.36162">
        <ele>2318.8000488281</ele>
        <time>2014-01-11T09:06:01.000Z</time>
      </trkpt>
      <trkpt lat="45.18299" lon="6.36162">
        <ele>2319</ele>
        <time>2014-01-11T09:06:02.000Z</time>
      </trkpt>
      <trkpt lat="45.183" lon="6.36162">
        <ele>2319.1999511719</ele>
        <time>2014-01-11T09:06:03.000Z</time>
      </trkpt>
      <trkpt lat="45.18301" lon="6.36163">
        <ele>2319.1999511719</ele>
        <time>2014-01-11T09:06:04.000Z</time>
      </trkpt>
      <trkpt lat="45.18302" lon="6.36163">
        <ele>2319.3999023438</ele>
        <time>2014-01-11T09:06:05.000Z</time>
      </trkpt>
      <trkpt lat="45.18302" lon="6.36163">
        <ele>2319.6000976562</ele>
        <time>2014-01-11T09:06:06.000Z</time>
      </trkpt>
      <trkpt lat="45.18303" lon="6.36163">
        <ele>2319.8000488281</ele>
        <time>2014-01-11T09:06:07.000Z</time>
      </trkpt>
      <trkpt lat="45.18304" lon="6.36164">
        <ele>2319.8000488281</ele>
        <time>2014-01-11T09:06:08.000Z</time>
      </trkpt>
      <trkpt lat="45.18304" lon="6.36164">
        <ele>2320</ele>
        <time>2014-01-11T09:06:09.000Z</time>
      </trkpt>
      <trkpt lat="45.18305" lon="6.36164">
        <ele>2320.1999511719</ele>
        <time>2014-01-11T09:06:10.000Z</time>
      </trkpt>
      <trkpt lat="45.18305" lon="6.36164">
        <ele>2320.3999023438</ele>
        <time>2014-01-11T09:06:11.000Z</time>
      </trkpt>
      <trkpt lat="45.18306" lon="6.36165">
        <ele>2320.6000976562</ele>
        <time>2014-01-11T09:06:12.000Z</time>
      </trkpt>
      <trkpt lat="45.18306" lon="6.36165">
        <ele>2320.8000488281</ele>
        <time>2014-01-11T09:06:13.000Z</time>
      </trkpt>
      <trkpt lat="45.18306" lon="6.36166">
        <ele>2321</ele>
        <time>2014-01-11T09:06:14.000Z</time>
      </trkpt>
      <trkpt lat="45.18306" lon="6.36167">
        <ele>2321</ele>
        <time>2014-01-11T09:06:15.000Z</time>
      </trkpt>
      <trkpt lat="45.18306" lon="6.36167">
        <ele>2321.1999511719</ele>
        <time>2014-01-11T09:06:16.000Z</time>
      </trkpt>
      <trkpt lat="45.18306" lon="6.36167">
        <ele>2321.3999023438</ele>
        <time>2014-01-11T09:06:17.000Z</time>
      </trkpt>
      <trkpt lat="45.18307" lon="6.36167">
        <ele>2321.6000976562</ele>
        <time>2014-01-11T09:06:18.000Z</time>
      </trkpt>
      <trkpt lat="45.18308" lon="6.36168">
        <ele>2321.8000488281</ele>
        <time>2014-01-11T09:06:19.000Z</time>
      </trkpt>
      <trkpt lat="45.18308" lon="6.36168">
        <ele>2321.8000488281</ele>
        <time>2014-01-11T09:06:20.000Z</time>
      </trkpt>
      <trkpt lat="45.18309" lon="6.36168">
        <ele>2322</ele>
        <time>2014-01-11T09:06:21.000Z</time>
      </trkpt>
      <trkpt lat="45.18311" lon="6.36169">
        <ele>2322.1999511719</ele>
        <time>2014-01-11T09:06:22.000Z</time>
      </trkpt>
      <trkpt lat="45.18312" lon="6.3617">
        <ele>2322.1999511719</ele>
        <time>2014-01-11T09:06:23.000Z</time>
      </trkpt>
      <trkpt lat="45.18312" lon="6.3617">
        <ele>2322.3999023438</ele>
        <time>2014-01-11T09:06:24.000Z</time>
      </trkpt>
      <trkpt lat="45.18313" lon="6.3617">
        <ele>2322.6000976562</ele>
        <time>2014-01-11T09:06:25.000Z</time>
      </trkpt>
      <trkpt lat="45.18314" lon="6.3617">
        <ele>2322.8000488281</ele>
        <time>2014-01-11T09:06:26.000Z</time>
      </trkpt>
      <trkpt lat="45.18315" lon="6.3617">
        <ele>2322.8000488281</ele>
        <time>2014-01-11T09:06:27.000Z</time>
      </trkpt>
      <trkpt lat="45.18316" lon="6.3617">
        <ele>2323</ele>
        <time>2014-01-11T09:06:28.000Z</time>
      </trkpt>
      <trkpt lat="45.18317" lon="6.3617">
        <ele>2323.1999511719</ele>
        <time>2014-01-11T09:06:29.000Z</time>
      </trkpt>
      <trkpt lat="45.18318" lon="6.36171">
        <ele>2323.6000976562</ele>
        <time>2014-01-11T09:06:30.000Z</time>
      </trkpt>
      <trkpt lat="45.18318" lon="6.36171">
        <ele>2323.8000488281</ele>
        <time>2014-01-11T09:06:31.000Z</time>
      </trkpt>
      <trkpt lat="45.18319" lon="6.36172">
        <ele>2323.8000488281</ele>
        <time>2014-01-11T09:06:32.000Z</time>
      </trkpt>
      <trkpt lat="45.1832" lon="6.36172">
        <ele>2324</ele>
        <time>2014-01-11T09:06:33.000Z</time>
      </trkpt>
      <trkpt lat="45.18321" lon="6.36173">
        <ele>2324.1999511719</ele>
        <time>2014-01-11T09:06:34.000Z</time>
      </trkpt>
      <trkpt lat="45.18321" lon="6.36173">
        <ele>2324.3999023438</ele>
        <time>2014-01-11T09:06:35.000Z</time>
      </trkpt>
      <trkpt lat="45.18321" lon="6.36173">
        <ele>2324.3999023438</ele>
        <time>2014-01-11T09:06:36.000Z</time>
      </trkpt>
      <trkpt lat="45.18322" lon="6.36173">
        <ele>2324.6000976562</ele>
        <time>2014-01-11T09:06:37.000Z</time>
      </trkpt>
      <trkpt lat="45.18322" lon="6.36174">
        <ele>2324.8000488281</ele>
        <time>2014-01-11T09:06:38.000Z</time>
      </trkpt>
      <trkpt lat="45.18323" lon="6.36174">
        <ele>2324.8000488281</ele>
        <time>2014-01-11T09:06:39.000Z</time>
      </trkpt>
      <trkpt lat="45.18323" lon="6.36174">
        <ele>2325</ele>
        <time>2014-01-11T09:06:40.000Z</time>
      </trkpt>
      <trkpt lat="45.18324" lon="6.36174">
        <ele>2325.1999511719</ele>
        <time>2014-01-11T09:06:41.000Z</time>
      </trkpt>
      <trkpt lat="45.18324" lon="6.36174">
        <ele>2325.1999511719</ele>
        <time>2014-01-11T09:06:42.000Z</time>
      </trkpt>
      <trkpt lat="45.18325" lon="6.36174">
        <ele>2325.3999023438</ele>
        <time>2014-01-11T09:06:43.000Z</time>
      </trkpt>
      <trkpt lat="45.18326" lon="6.36175">
        <ele>2325.6000976562</ele>
        <time>2014-01-11T09:06:44.000Z</time>
      </trkpt>
      <trkpt lat="45.18327" lon="6.36176">
        <ele>2325.6000976562</ele>
        <time>2014-01-11T09:06:45.000Z</time>
      </trkpt>
      <trkpt lat="45.18327" lon="6.36176">
        <ele>2325.8000488281</ele>
        <time>2014-01-11T09:06:46.000Z</time>
      </trkpt>
      <trkpt lat="45.18328" lon="6.36177">
        <ele>2326</ele>
        <time>2014-01-11T09:06:47.000Z</time>
      </trkpt>
      <trkpt lat="45.18329" lon="6.36177">
        <ele>2326.1999511719</ele>
        <time>2014-01-11T09:06:48.000Z</time>
      </trkpt>
      <trkpt lat="45.1833" lon="6.36177">
        <ele>2326.3999023438</ele>
        <time>2014-01-11T09:06:49.000Z</time>
      </trkpt>
      <trkpt lat="45.18331" lon="6.36177">
        <ele>2326.3999023438</ele>
        <time>2014-01-11T09:06:50.000Z</time>
      </trkpt>
      <trkpt lat="45.18332" lon="6.36177">
        <ele>2326.6000976562</ele>
        <time>2014-01-11T09:06:51.000Z</time>
      </trkpt>
      <trkpt lat="45.18332" lon="6.36177">
        <ele>2326.8000488281</ele>
        <time>2014-01-11T09:06:52.000Z</time>
      </trkpt>
      <trkpt lat="45.18333" lon="6.36177">
        <ele>2327</ele>
        <time>2014-01-11T09:06:53.000Z</time>
      </trkpt>
      <trkpt lat="45.18333" lon="6.36177">
        <ele>2327.3999023438</ele>
        <time>2014-01-11T09:06:54.000Z</time>
      </trkpt>
      <trkpt lat="45.18334" lon="6.36177">
        <ele>2327.6000976562</ele>
        <time>2014-01-11T09:06:55.000Z</time>
      </trkpt>
      <trkpt lat="45.18334" lon="6.36177">
        <ele>2327.8000488281</ele>
        <time>2014-01-11T09:06:56.000Z</time>
      </trkpt>
      <trkpt lat="45.18335" lon="6.36177">
        <ele>2328</ele>
        <time>2014-01-11T09:06:57.000Z</time>
      </trkpt>
      <trkpt lat="45.18336" lon="6.36177">
        <ele>2328.1999511719</ele>
        <time>2014-01-11T09:06:58.000Z</time>
      </trkpt>
      <trkpt lat="45.18336" lon="6.36176">
        <ele>2328.3999023438</ele>
        <time>2014-01-11T09:06:59.000Z</time>
      </trkpt>
      <trkpt lat="45.18336" lon="6.36176">
        <ele>2328.6000976562</ele>
        <time>2014-01-11T09:07:00.000Z</time>
      </trkpt>
      <trkpt lat="45.18336" lon="6.36176">
        <ele>2328.8000488281</ele>
        <time>2014-01-11T09:07:01.000Z</time>
      </trkpt>
      <trkpt lat="45.18337" lon="6.36176">
        <ele>2329</ele>
        <time>2014-01-11T09:07:02.000Z</time>
      </trkpt>
      <trkpt lat="45.18338" lon="6.36176">
        <ele>2329.1999511719</ele>
        <time>2014-01-11T09:07:03.000Z</time>
      </trkpt>
      <trkpt lat="45.18339" lon="6.36176">
        <ele>2329.3999023438</ele>
        <time>2014-01-11T09:07:04.000Z</time>
      </trkpt>
      <trkpt lat="45.18339" lon="6.36176">
        <ele>2329.6000976562</ele>
        <time>2014-01-11T09:07:05.000Z</time>
      </trkpt>
      <trkpt lat="45.18339" lon="6.36176">
        <ele>2329.8000488281</ele>
        <time>2014-01-11T09:07:06.000Z</time>
      </trkpt>
      <trkpt lat="45.18339" lon="6.36176">
        <ele>2330</ele>
        <time>2014-01-11T09:07:07.000Z</time>
      </trkpt>
      <trkpt lat="45.1834" lon="6.36176">
        <ele>2330.1999511719</ele>
        <time>2014-01-11T09:07:08.000Z</time>
      </trkpt>
      <trkpt lat="45.1834" lon="6.36175">
        <ele>2330.3999023438</ele>
        <time>2014-01-11T09:07:09.000Z</time>
      </trkpt>
      <trkpt lat="45.18341" lon="6.36175">
        <ele>2330.6000976562</ele>
        <time>2014-01-11T09:07:10.000Z</time>
      </trkpt>
      <trkpt lat="45.18342" lon="6.36175">
        <ele>2330.8000488281</ele>
        <time>2014-01-11T09:07:11.000Z</time>
      </trkpt>
      <trkpt lat="45.18342" lon="6.36175">
        <ele>2331</ele>
        <time>2014-01-11T09:07:12.000Z</time>
      </trkpt>
      <trkpt lat="45.18343" lon="6.36175">
        <ele>2331.1999511719</ele>
        <time>2014-01-11T09:07:13.000Z</time>
      </trkpt>
      <trkpt lat="45.18343" lon="6.36176">
        <ele>2331.6000976562</ele>
        <time>2014-01-11T09:07:14.000Z</time>
      </trkpt>
      <trkpt lat="45.18344" lon="6.36176">
        <ele>2331.8000488281</ele>
        <time>2014-01-11T09:07:15.000Z</time>
      </trkpt>
      <trkpt lat="45.18344" lon="6.36176">
        <ele>2332</ele>
        <time>2014-01-11T09:07:16.000Z</time>
      </trkpt>
      <trkpt lat="45.18345" lon="6.36176">
        <ele>2332.1999511719</ele>
        <time>2014-01-11T09:07:17.000Z</time>
      </trkpt>
      <trkpt lat="45.18345" lon="6.36176">
        <ele>2332.6000976562</ele>
        <time>2014-01-11T09:07:18.000Z</time>
      </trkpt>
      <trkpt lat="45.18345" lon="6.36176">
        <ele>2332.6000976562</ele>
        <time>2014-01-11T09:07:19.000Z</time>
      </trkpt>
      <trkpt lat="45.18346" lon="6.36175">
        <ele>2332.6000976562</ele>
        <time>2014-01-11T09:07:20.000Z</time>
      </trkpt>
      <trkpt lat="45.18347" lon="6.36175">
        <ele>2332.8000488281</ele>
        <time>2014-01-11T09:07:21.000Z</time>
      </trkpt>
      <trkpt lat="45.18348" lon="6.36175">
        <ele>2333</ele>
        <time>2014-01-11T09:07:22.000Z</time>
      </trkpt>
      <trkpt lat="45.18349" lon="6.36175">
        <ele>2333.1999511719</ele>
        <time>2014-01-11T09:07:23.000Z</time>
      </trkpt>
      <trkpt lat="45.18349" lon="6.36175">
        <ele>2333.3999023438</ele>
        <time>2014-01-11T09:07:24.000Z</time>
      </trkpt>
      <trkpt lat="45.1835" lon="6.36175">
        <ele>2333.6000976562</ele>
        <time>2014-01-11T09:07:25.000Z</time>
      </trkpt>
      <trkpt lat="45.18351" lon="6.36175">
        <ele>2333.8000488281</ele>
        <time>2014-01-11T09:07:26.000Z</time>
      </trkpt>
      <trkpt lat="45.18352" lon="6.36176">
        <ele>2334</ele>
        <time>2014-01-11T09:07:27.000Z</time>
      </trkpt>
      <trkpt lat="45.18353" lon="6.36176">
        <ele>2334.1999511719</ele>
        <time>2014-01-11T09:07:28.000Z</time>
      </trkpt>
      <trkpt lat="45.18354" lon="6.36176">
        <ele>2334.3999023438</ele>
        <time>2014-01-11T09:07:29.000Z</time>
      </trkpt>
      <trkpt lat="45.18354" lon="6.36176">
        <ele>2334.6000976562</ele>
        <time>2014-01-11T09:07:30.000Z</time>
      </trkpt>
      <trkpt lat="45.18355" lon="6.36176">
        <ele>2334.8000488281</ele>
        <time>2014-01-11T09:07:31.000Z</time>
      </trkpt>
      <trkpt lat="45.18356" lon="6.36176">
        <ele>2334.8000488281</ele>
        <time>2014-01-11T09:07:32.000Z</time>
      </trkpt>
      <trkpt lat="45.18356" lon="6.36176">
        <ele>2335</ele>
        <time>2014-01-11T09:07:33.000Z</time>
      </trkpt>
      <trkpt lat="45.18357" lon="6.36176">
        <ele>2335</ele>
        <time>2014-01-11T09:07:34.000Z</time>
      </trkpt>
      <trkpt lat="45.18357" lon="6.36177">
        <ele>2335.1999511719</ele>
        <time>2014-01-11T09:07:35.000Z</time>
      </trkpt>
      <trkpt lat="45.18357" lon="6.36177">
        <ele>2335.1999511719</ele>
        <time>2014-01-11T09:07:36.000Z</time>
      </trkpt>
      <trkpt lat="45.18357" lon="6.36177">
        <ele>2335.3999023438</ele>
        <time>2014-01-11T09:07:37.000Z</time>
      </trkpt>
      <trkpt lat="45.18357" lon="6.36177">
        <ele>2335.3999023438</ele>
        <time>2014-01-11T09:07:38.000Z</time>
      </trkpt>
      <trkpt lat="45.18358" lon="6.36176">
        <ele>2335.6000976562</ele>
        <time>2014-01-11T09:07:39.000Z</time>
      </trkpt>
      <trkpt lat="45.18358" lon="6.36176">
        <ele>2335.8000488281</ele>
        <time>2014-01-11T09:07:40.000Z</time>
      </trkpt>
      <trkpt lat="45.18358" lon="6.36176">
        <ele>2336</ele>
        <time>2014-01-11T09:07:41.000Z</time>
      </trkpt>
      <trkpt lat="45.18358" lon="6.36176">
        <ele>2336.1999511719</ele>
        <time>2014-01-11T09:07:42.000Z</time>
      </trkpt>
      <trkpt lat="45.18359" lon="6.36176">
        <ele>2336.3999023438</ele>
        <time>2014-01-11T09:07:43.000Z</time>
      </trkpt>
      <trkpt lat="45.18359" lon="6.36176">
        <ele>2336.6000976562</ele>
        <time>2014-01-11T09:07:44.000Z</time>
      </trkpt>
      <trkpt lat="45.1836" lon="6.36177">
        <ele>2336.8000488281</ele>
        <time>2014-01-11T09:07:45.000Z</time>
      </trkpt>
      <trkpt lat="45.1836" lon="6.36177">
        <ele>2337</ele>
        <time>2014-01-11T09:07:46.000Z</time>
      </trkpt>
      <trkpt lat="45.18361" lon="6.36177">
        <ele>2337.1999511719</ele>
        <time>2014-01-11T09:07:47.000Z</time>
      </trkpt>
      <trkpt lat="45.18361" lon="6.36177">
        <ele>2337.3999023438</ele>
        <time>2014-01-11T09:07:48.000Z</time>
      </trkpt>
      <trkpt lat="45.18362" lon="6.36177">
        <ele>2337.6000976562</ele>
        <time>2014-01-11T09:07:49.000Z</time>
      </trkpt>
      <trkpt lat="45.18363" lon="6.36177">
        <ele>2337.8000488281</ele>
        <time>2014-01-11T09:07:50.000Z</time>
      </trkpt>
      <trkpt lat="45.18364" lon="6.36177">
        <ele>2338</ele>
        <time>2014-01-11T09:07:51.000Z</time>
      </trkpt>
      <trkpt lat="45.18364" lon="6.36176">
        <ele>2338</ele>
        <time>2014-01-11T09:07:52.000Z</time>
      </trkpt>
      <trkpt lat="45.18365" lon="6.36176">
        <ele>2338.1999511719</ele>
        <time>2014-01-11T09:07:53.000Z</time>
      </trkpt>
      <trkpt lat="45.18366" lon="6.36176">
        <ele>2338.3999023438</ele>
        <time>2014-01-11T09:07:54.000Z</time>
      </trkpt>
      <trkpt lat="45.18367" lon="6.36177">
        <ele>2338.6000976562</ele>
        <time>2014-01-11T09:07:55.000Z</time>
      </trkpt>
      <trkpt lat="45.18367" lon="6.36177">
        <ele>2338.8000488281</ele>
        <time>2014-01-11T09:07:56.000Z</time>
      </trkpt>
      <trkpt lat="45.18368" lon="6.36177">
        <ele>2339</ele>
        <time>2014-01-11T09:07:57.000Z</time>
      </trkpt>
      <trkpt lat="45.18368" lon="6.36177">
        <ele>2339.1999511719</ele>
        <time>2014-01-11T09:07:58.000Z</time>
      </trkpt>
      <trkpt lat="45.18368" lon="6.36177">
        <ele>2339.1999511719</ele>
        <time>2014-01-11T09:07:59.000Z</time>
      </trkpt>
      <trkpt lat="45.18369" lon="6.36177">
        <ele>2339.3999023438</ele>
        <time>2014-01-11T09:08:00.000Z</time>
      </trkpt>
      <trkpt lat="45.1837" lon="6.36177">
        <ele>2339.6000976562</ele>
        <time>2014-01-11T09:08:01.000Z</time>
      </trkpt>
      <trkpt lat="45.1837" lon="6.36178">
        <ele>2339.8000488281</ele>
        <time>2014-01-11T09:08:02.000Z</time>
      </trkpt>
      <trkpt lat="45.18371" lon="6.36177">
        <ele>2340</ele>
        <time>2014-01-11T09:08:03.000Z</time>
      </trkpt>
      <trkpt lat="45.18372" lon="6.36177">
        <ele>2340.1999511719</ele>
        <time>2014-01-11T09:08:04.000Z</time>
      </trkpt>
      <trkpt lat="45.18372" lon="6.36177">
        <ele>2340.6000976562</ele>
        <time>2014-01-11T09:08:05.000Z</time>
      </trkpt>
      <trkpt lat="45.18372" lon="6.36177">
        <ele>2341</ele>
        <time>2014-01-11T09:08:06.000Z</time>
      </trkpt>
      <trkpt lat="45.18373" lon="6.36177">
        <ele>2341.1999511719</ele>
        <time>2014-01-11T09:08:07.000Z</time>
      </trkpt>
      <trkpt lat="45.18373" lon="6.36177">
        <ele>2341.3999023438</ele>
        <time>2014-01-11T09:08:08.000Z</time>
      </trkpt>
      <trkpt lat="45.18374" lon="6.36177">
        <ele>2341.6000976562</ele>
        <time>2014-01-11T09:08:09.000Z</time>
      </trkpt>
      <trkpt lat="45.18375" lon="6.36177">
        <ele>2341.8000488281</ele>
        <time>2014-01-11T09:08:10.000Z</time>
      </trkpt>
      <trkpt lat="45.18375" lon="6.36177">
        <ele>2342</ele>
        <time>2014-01-11T09:08:11.000Z</time>
      </trkpt>
      <trkpt lat="45.18376" lon="6.36177">
        <ele>2342.1999511719</ele>
        <time>2014-01-11T09:08:12.000Z</time>
      </trkpt>
      <trkpt lat="45.18376" lon="6.36177">
        <ele>2342.3999023438</ele>
        <time>2014-01-11T09:08:13.000Z</time>
      </trkpt>
      <trkpt lat="45.18376" lon="6.36177">
        <ele>2342.6000976562</ele>
        <time>2014-01-11T09:08:14.000Z</time>
      </trkpt>
      <trkpt lat="45.18376" lon="6.36177">
        <ele>2342.8000488281</ele>
        <time>2014-01-11T09:08:15.000Z</time>
      </trkpt>
      <trkpt lat="45.18376" lon="6.36176">
        <ele>2343</ele>
        <time>2014-01-11T09:08:16.000Z</time>
      </trkpt>
      <trkpt lat="45.18377" lon="6.36176">
        <ele>2343</ele>
        <time>2014-01-11T09:08:17.000Z</time>
      </trkpt>
      <trkpt lat="45.18377" lon="6.36176">
        <ele>2343.3999023438</ele>
        <time>2014-01-11T09:08:18.000Z</time>
      </trkpt>
      <trkpt lat="45.18378" lon="6.36175">
        <ele>2343.6000976562</ele>
        <time>2014-01-11T09:08:19.000Z</time>
      </trkpt>
      <trkpt lat="45.18378" lon="6.36175">
        <ele>2343.6000976562</ele>
        <time>2014-01-11T09:08:20.000Z</time>
      </trkpt>
      <trkpt lat="45.18379" lon="6.36175">
        <ele>2343.8000488281</ele>
        <time>2014-01-11T09:08:21.000Z</time>
      </trkpt>
      <trkpt lat="45.18379" lon="6.36175">
        <ele>2344</ele>
        <time>2014-01-11T09:08:22.000Z</time>
      </trkpt>
      <trkpt lat="45.1838" lon="6.36176">
        <ele>2344.1999511719</ele>
        <time>2014-01-11T09:08:23.000Z</time>
      </trkpt>
      <trkpt lat="45.18381" lon="6.36176">
        <ele>2344.3999023438</ele>
        <time>2014-01-11T09:08:24.000Z</time>
      </trkpt>
      <trkpt lat="45.18381" lon="6.36176">
        <ele>2344.6000976562</ele>
        <time>2014-01-11T09:08:25.000Z</time>
      </trkpt>
      <trkpt lat="45.18382" lon="6.36176">
        <ele>2344.8000488281</ele>
        <time>2014-01-11T09:08:26.000Z</time>
      </trkpt>
      <trkpt lat="45.18382" lon="6.36176">
        <ele>2345</ele>
        <time>2014-01-11T09:08:27.000Z</time>
      </trkpt>
      <trkpt lat="45.18383" lon="6.36176">
        <ele>2345.1999511719</ele>
        <time>2014-01-11T09:08:28.000Z</time>
      </trkpt>
      <trkpt lat="45.18383" lon="6.36176">
        <ele>2345.3999023438</ele>
        <time>2014-01-11T09:08:29.000Z</time>
      </trkpt>
      <trkpt lat="45.18384" lon="6.36176">
        <ele>2345.8000488281</ele>
        <time>2014-01-11T09:08:30.000Z</time>
      </trkpt>
      <trkpt lat="45.18384" lon="6.36176">
        <ele>2345.8000488281</ele>
        <time>2014-01-11T09:08:31.000Z</time>
      </trkpt>
      <trkpt lat="45.18385" lon="6.36176">
        <ele>2346</ele>
        <time>2014-01-11T09:08:32.000Z</time>
      </trkpt>
      <trkpt lat="45.18385" lon="6.36177">
        <ele>2346.1999511719</ele>
        <time>2014-01-11T09:08:33.000Z</time>
      </trkpt>
      <trkpt lat="45.18386" lon="6.36176">
        <ele>2346.3999023438</ele>
        <time>2014-01-11T09:08:34.000Z</time>
      </trkpt>
      <trkpt lat="45.18386" lon="6.36176">
        <ele>2346.6000976562</ele>
        <time>2014-01-11T09:08:35.000Z</time>
      </trkpt>
      <trkpt lat="45.18387" lon="6.36176">
        <ele>2347</ele>
        <time>2014-01-11T09:08:36.000Z</time>
      </trkpt>
      <trkpt lat="45.18387" lon="6.36176">
        <ele>2347.1999511719</ele>
        <time>2014-01-11T09:08:37.000Z</time>
      </trkpt>
      <trkpt lat="45.18388" lon="6.36176">
        <ele>2347.3999023438</ele>
        <time>2014-01-11T09:08:38.000Z</time>
      </trkpt>
      <trkpt lat="45.18389" lon="6.36177">
        <ele>2347.6000976562</ele>
        <time>2014-01-11T09:08:39.000Z</time>
      </trkpt>
      <trkpt lat="45.18389" lon="6.36177">
        <ele>2347.8000488281</ele>
        <time>2014-01-11T09:08:40.000Z</time>
      </trkpt>
      <trkpt lat="45.1839" lon="6.36177">
        <ele>2348</ele>
        <time>2014-01-11T09:08:41.000Z</time>
      </trkpt>
      <trkpt lat="45.18391" lon="6.36178">
        <ele>2348.1999511719</ele>
        <time>2014-01-11T09:08:42.000Z</time>
      </trkpt>
      <trkpt lat="45.18391" lon="6.36178">
        <ele>2348.3999023438</ele>
        <time>2014-01-11T09:08:43.000Z</time>
      </trkpt>
      <trkpt lat="45.18392" lon="6.36179">
        <ele>2348.6000976562</ele>
        <time>2014-01-11T09:08:44.000Z</time>
      </trkpt>
      <trkpt lat="45.18393" lon="6.36179">
        <ele>2348.8000488281</ele>
        <time>2014-01-11T09:08:45.000Z</time>
      </trkpt>
      <trkpt lat="45.18394" lon="6.3618">
        <ele>2349</ele>
        <time>2014-01-11T09:08:46.000Z</time>
      </trkpt>
      <trkpt lat="45.18394" lon="6.3618">
        <ele>2349.1999511719</ele>
        <time>2014-01-11T09:08:47.000Z</time>
      </trkpt>
      <trkpt lat="45.18395" lon="6.36181">
        <ele>2349.3999023438</ele>
        <time>2014-01-11T09:08:48.000Z</time>
      </trkpt>
      <trkpt lat="45.18396" lon="6.36182">
        <ele>2349.3999023438</ele>
        <time>2014-01-11T09:08:49.000Z</time>
      </trkpt>
      <trkpt lat="45.18396" lon="6.36182">
        <ele>2349.6000976562</ele>
        <time>2014-01-11T09:08:50.000Z</time>
      </trkpt>
      <trkpt lat="45.18397" lon="6.36182">
        <ele>2349.8000488281</ele>
        <time>2014-01-11T09:08:51.000Z</time>
      </trkpt>
      <trkpt lat="45.18398" lon="6.36182">
        <ele>2350</ele>
        <time>2014-01-11T09:08:52.000Z</time>
      </trkpt>
      <trkpt lat="45.18398" lon="6.36182">
        <ele>2350.1999511719</ele>
        <time>2014-01-11T09:08:53.000Z</time>
      </trkpt>
      <trkpt lat="45.18399" lon="6.36182">
        <ele>2350.6000976562</ele>
        <time>2014-01-11T09:08:54.000Z</time>
      </trkpt>
      <trkpt lat="45.18399" lon="6.36183">
        <ele>2350.8000488281</ele>
        <time>2014-01-11T09:08:55.000Z</time>
      </trkpt>
      <trkpt lat="45.184" lon="6.36183">
        <ele>2351</ele>
        <time>2014-01-11T09:08:56.000Z</time>
      </trkpt>
      <trkpt lat="45.184" lon="6.36184">
        <ele>2351.1999511719</ele>
        <time>2014-01-11T09:08:57.000Z</time>
      </trkpt>
      <trkpt lat="45.18401" lon="6.36184">
        <ele>2351.3999023438</ele>
        <time>2014-01-11T09:08:58.000Z</time>
      </trkpt>
      <trkpt lat="45.18401" lon="6.36184">
        <ele>2351.6000976562</ele>
        <time>2014-01-11T09:08:59.000Z</time>
      </trkpt>
      <trkpt lat="45.18402" lon="6.36185">
        <ele>2351.8000488281</ele>
        <time>2014-01-11T09:09:00.000Z</time>
      </trkpt>
      <trkpt lat="45.18402" lon="6.36185">
        <ele>2352</ele>
        <time>2014-01-11T09:09:01.000Z</time>
      </trkpt>
      <trkpt lat="45.18403" lon="6.36186">
        <ele>2352.1999511719</ele>
        <time>2014-01-11T09:09:02.000Z</time>
      </trkpt>
      <trkpt lat="45.18403" lon="6.36186">
        <ele>2352.3999023438</ele>
        <time>2014-01-11T09:09:03.000Z</time>
      </trkpt>
      <trkpt lat="45.18405" lon="6.36187">
        <ele>2352.6000976562</ele>
        <time>2014-01-11T09:09:04.000Z</time>
      </trkpt>
      <trkpt lat="45.18405" lon="6.36187">
        <ele>2352.6000976562</ele>
        <time>2014-01-11T09:09:05.000Z</time>
      </trkpt>
      <trkpt lat="45.18406" lon="6.36188">
        <ele>2352.8000488281</ele>
        <time>2014-01-11T09:09:06.000Z</time>
      </trkpt>
      <trkpt lat="45.18407" lon="6.36188">
        <ele>2353</ele>
        <time>2014-01-11T09:09:07.000Z</time>
      </trkpt>
      <trkpt lat="45.18407" lon="6.36188">
        <ele>2353.1999511719</ele>
        <time>2014-01-11T09:09:08.000Z</time>
      </trkpt>
      <trkpt lat="45.18407" lon="6.36189">
        <ele>2353.3999023438</ele>
        <time>2014-01-11T09:09:09.000Z</time>
      </trkpt>
      <trkpt lat="45.18408" lon="6.36189">
        <ele>2353.6000976562</ele>
        <time>2014-01-11T09:09:10.000Z</time>
      </trkpt>
      <trkpt lat="45.18408" lon="6.36189">
        <ele>2353.8000488281</ele>
        <time>2014-01-11T09:09:11.000Z</time>
      </trkpt>
      <trkpt lat="45.18409" lon="6.3619">
        <ele>2353.8000488281</ele>
        <time>2014-01-11T09:09:12.000Z</time>
      </trkpt>
      <trkpt lat="45.1841" lon="6.3619">
        <ele>2354</ele>
        <time>2014-01-11T09:09:13.000Z</time>
      </trkpt>
      <trkpt lat="45.1841" lon="6.3619">
        <ele>2354.1999511719</ele>
        <time>2014-01-11T09:09:14.000Z</time>
      </trkpt>
      <trkpt lat="45.18411" lon="6.36191">
        <ele>2354.3999023438</ele>
        <time>2014-01-11T09:09:15.000Z</time>
      </trkpt>
      <trkpt lat="45.18412" lon="6.36191">
        <ele>2354.6000976562</ele>
        <time>2014-01-11T09:09:16.000Z</time>
      </trkpt>
      <trkpt lat="45.18413" lon="6.36191">
        <ele>2354.8000488281</ele>
        <time>2014-01-11T09:09:17.000Z</time>
      </trkpt>
      <trkpt lat="45.18414" lon="6.36192">
        <ele>2355.1999511719</ele>
        <time>2014-01-11T09:09:18.000Z</time>
      </trkpt>
      <trkpt lat="45.18414" lon="6.36193">
        <ele>2355.3999023438</ele>
        <time>2014-01-11T09:09:19.000Z</time>
      </trkpt>
      <trkpt lat="45.18415" lon="6.36194">
        <ele>2355.6000976562</ele>
        <time>2014-01-11T09:09:20.000Z</time>
      </trkpt>
      <trkpt lat="45.18416" lon="6.36194">
        <ele>2355.8000488281</ele>
        <time>2014-01-11T09:09:21.000Z</time>
      </trkpt>
      <trkpt lat="45.18416" lon="6.36195">
        <ele>2356</ele>
        <time>2014-01-11T09:09:22.000Z</time>
      </trkpt>
      <trkpt lat="45.18416" lon="6.36195">
        <ele>2356.1999511719</ele>
        <time>2014-01-11T09:09:23.000Z</time>
      </trkpt>
      <trkpt lat="45.18417" lon="6.36197">
        <ele>2356.1999511719</ele>
        <time>2014-01-11T09:09:24.000Z</time>
      </trkpt>
      <trkpt lat="45.18417" lon="6.36197">
        <ele>2356.3999023438</ele>
        <time>2014-01-11T09:09:25.000Z</time>
      </trkpt>
      <trkpt lat="45.18417" lon="6.36197">
        <ele>2356.6000976562</ele>
        <time>2014-01-11T09:09:26.000Z</time>
      </trkpt>
      <trkpt lat="45.18418" lon="6.36196">
        <ele>2356.8000488281</ele>
        <time>2014-01-11T09:09:27.000Z</time>
      </trkpt>
      <trkpt lat="45.18418" lon="6.36196">
        <ele>2357</ele>
        <time>2014-01-11T09:09:28.000Z</time>
      </trkpt>
      <trkpt lat="45.18419" lon="6.36197">
        <ele>2357.1999511719</ele>
        <time>2014-01-11T09:09:29.000Z</time>
      </trkpt>
      <trkpt lat="45.18419" lon="6.36197">
        <ele>2357.3999023438</ele>
        <time>2014-01-11T09:09:30.000Z</time>
      </trkpt>
      <trkpt lat="45.18419" lon="6.36197">
        <ele>2357.6000976562</ele>
        <time>2014-01-11T09:09:31.000Z</time>
      </trkpt>
      <trkpt lat="45.1842" lon="6.36197">
        <ele>2357.8000488281</ele>
        <time>2014-01-11T09:09:32.000Z</time>
      </trkpt>
      <trkpt lat="45.1842" lon="6.36197">
        <ele>2357.8000488281</ele>
        <time>2014-01-11T09:09:33.000Z</time>
      </trkpt>
      <trkpt lat="45.18421" lon="6.36198">
        <ele>2358</ele>
        <time>2014-01-11T09:09:34.000Z</time>
      </trkpt>
      <trkpt lat="45.18421" lon="6.36198">
        <ele>2358.1999511719</ele>
        <time>2014-01-11T09:09:35.000Z</time>
      </trkpt>
      <trkpt lat="45.18422" lon="6.36198">
        <ele>2358.3999023438</ele>
        <time>2014-01-11T09:09:36.000Z</time>
      </trkpt>
      <trkpt lat="45.18422" lon="6.36199">
        <ele>2358.8000488281</ele>
        <time>2014-01-11T09:09:37.000Z</time>
      </trkpt>
      <trkpt lat="45.18423" lon="6.36199">
        <ele>2359</ele>
        <time>2014-01-11T09:09:38.000Z</time>
      </trkpt>
      <trkpt lat="45.18423" lon="6.36199">
        <ele>2359.1999511719</ele>
        <time>2014-01-11T09:09:39.000Z</time>
      </trkpt>
      <trkpt lat="45.18423" lon="6.36199">
        <ele>2359.6000976562</ele>
        <time>2014-01-11T09:09:40.000Z</time>
      </trkpt>
      <trkpt lat="45.18424" lon="6.36199">
        <ele>2359.8000488281</ele>
        <time>2014-01-11T09:09:41.000Z</time>
      </trkpt>
      <trkpt lat="45.18424" lon="6.362">
        <ele>2360.1999511719</ele>
        <time>2014-01-11T09:09:42.000Z</time>
      </trkpt>
      <trkpt lat="45.18424" lon="6.362">
        <ele>2360.3999023438</ele>
        <time>2014-01-11T09:09:43.000Z</time>
      </trkpt>
      <trkpt lat="45.18425" lon="6.36201">
        <ele>2360.6000976562</ele>
        <time>2014-01-11T09:09:44.000Z</time>
      </trkpt>
      <trkpt lat="45.18425" lon="6.36201">
        <ele>2360.6000976562</ele>
        <time>2014-01-11T09:09:45.000Z</time>
      </trkpt>
      <trkpt lat="45.18426" lon="6.36202">
        <ele>2360.8000488281</ele>
        <time>2014-01-11T09:09:46.000Z</time>
      </trkpt>
      <trkpt lat="45.18426" lon="6.36202">
        <ele>2361</ele>
        <time>2014-01-11T09:09:47.000Z</time>
      </trkpt>
      <trkpt lat="45.18427" lon="6.36203">
        <ele>2361.1999511719</ele>
        <time>2014-01-11T09:09:48.000Z</time>
      </trkpt>
      <trkpt lat="45.18427" lon="6.36203">
        <ele>2361.3999023438</ele>
        <time>2014-01-11T09:09:49.000Z</time>
      </trkpt>
      <trkpt lat="45.18428" lon="6.36203">
        <ele>2361.6000976562</ele>
        <time>2014-01-11T09:09:50.000Z</time>
      </trkpt>
      <trkpt lat="45.18428" lon="6.36203">
        <ele>2361.8000488281</ele>
        <time>2014-01-11T09:09:51.000Z</time>
      </trkpt>
      <trkpt lat="45.18429" lon="6.36204">
        <ele>2362</ele>
        <time>2014-01-11T09:09:52.000Z</time>
      </trkpt>
      <trkpt lat="45.18429" lon="6.36204">
        <ele>2362.1999511719</ele>
        <time>2014-01-11T09:09:53.000Z</time>
      </trkpt>
      <trkpt lat="45.1843" lon="6.36204">
        <ele>2362.3999023438</ele>
        <time>2014-01-11T09:09:54.000Z</time>
      </trkpt>
      <trkpt lat="45.1843" lon="6.36204">
        <ele>2362.6000976562</ele>
        <time>2014-01-11T09:09:55.000Z</time>
      </trkpt>
      <trkpt lat="45.1843" lon="6.36205">
        <ele>2362.8000488281</ele>
        <time>2014-01-11T09:09:56.000Z</time>
      </trkpt>
      <trkpt lat="45.18431" lon="6.36205">
        <ele>2363</ele>
        <time>2014-01-11T09:09:57.000Z</time>
      </trkpt>
      <trkpt lat="45.18431" lon="6.36206">
        <ele>2363.1999511719</ele>
        <time>2014-01-11T09:09:58.000Z</time>
      </trkpt>
      <trkpt lat="45.18431" lon="6.36206">
        <ele>2363.3999023438</ele>
        <time>2014-01-11T09:09:59.000Z</time>
      </trkpt>
      <trkpt lat="45.18432" lon="6.36206">
        <ele>2363.6000976562</ele>
        <time>2014-01-11T09:10:00.000Z</time>
      </trkpt>
      <trkpt lat="45.18432" lon="6.36206">
        <ele>2363.8000488281</ele>
        <time>2014-01-11T09:10:01.000Z</time>
      </trkpt>
      <trkpt lat="45.18432" lon="6.36207">
        <ele>2364</ele>
        <time>2014-01-11T09:10:02.000Z</time>
      </trkpt>
      <trkpt lat="45.18433" lon="6.36207">
        <ele>2364.1999511719</ele>
        <time>2014-01-11T09:10:03.000Z</time>
      </trkpt>
      <trkpt lat="45.18433" lon="6.36208">
        <ele>2364.3999023438</ele>
        <time>2014-01-11T09:10:04.000Z</time>
      </trkpt>
      <trkpt lat="45.18433" lon="6.36208">
        <ele>2364.6000976562</ele>
        <time>2014-01-11T09:10:05.000Z</time>
      </trkpt>
      <trkpt lat="45.18434" lon="6.36209">
        <ele>2365</ele>
        <time>2014-01-11T09:10:06.000Z</time>
      </trkpt>
      <trkpt lat="45.18435" lon="6.3621">
        <ele>2365.3999023438</ele>
        <time>2014-01-11T09:10:07.000Z</time>
      </trkpt>
      <trkpt lat="45.18435" lon="6.36211">
        <ele>2365.6000976562</ele>
        <time>2014-01-11T09:10:08.000Z</time>
      </trkpt>
      <trkpt lat="45.18436" lon="6.36211">
        <ele>2365.8000488281</ele>
        <time>2014-01-11T09:10:09.000Z</time>
      </trkpt>
      <trkpt lat="45.18436" lon="6.36212">
        <ele>2366</ele>
        <time>2014-01-11T09:10:10.000Z</time>
      </trkpt>
      <trkpt lat="45.18436" lon="6.36212">
        <ele>2366.3999023438</ele>
        <time>2014-01-11T09:10:11.000Z</time>
      </trkpt>
      <trkpt lat="45.18437" lon="6.36213">
        <ele>2366.3999023438</ele>
        <time>2014-01-11T09:10:12.000Z</time>
      </trkpt>
      <trkpt lat="45.18437" lon="6.36213">
        <ele>2366.6000976562</ele>
        <time>2014-01-11T09:10:13.000Z</time>
      </trkpt>
      <trkpt lat="45.18438" lon="6.36213">
        <ele>2366.8000488281</ele>
        <time>2014-01-11T09:10:14.000Z</time>
      </trkpt>
      <trkpt lat="45.18439" lon="6.36214">
        <ele>2367</ele>
        <time>2014-01-11T09:10:15.000Z</time>
      </trkpt>
      <trkpt lat="45.18439" lon="6.36214">
        <ele>2367.1999511719</ele>
        <time>2014-01-11T09:10:16.000Z</time>
      </trkpt>
      <trkpt lat="45.18439" lon="6.36215">
        <ele>2367.3999023438</ele>
        <time>2014-01-11T09:10:17.000Z</time>
      </trkpt>
      <trkpt lat="45.1844" lon="6.36215">
        <ele>2367.6000976562</ele>
        <time>2014-01-11T09:10:18.000Z</time>
      </trkpt>
      <trkpt lat="45.1844" lon="6.36215">
        <ele>2367.8000488281</ele>
        <time>2014-01-11T09:10:19.000Z</time>
      </trkpt>
      <trkpt lat="45.1844" lon="6.36215">
        <ele>2368</ele>
        <time>2014-01-11T09:10:20.000Z</time>
      </trkpt>
      <trkpt lat="45.1844" lon="6.36215">
        <ele>2368</ele>
        <time>2014-01-11T09:10:21.000Z</time>
      </trkpt>
      <trkpt lat="45.1844" lon="6.36215">
        <ele>2368.1999511719</ele>
        <time>2014-01-11T09:10:22.000Z</time>
      </trkpt>
      <trkpt lat="45.1844" lon="6.36215">
        <ele>2368.3999023438</ele>
        <time>2014-01-11T09:10:23.000Z</time>
      </trkpt>
      <trkpt lat="45.1844" lon="6.36215">
        <ele>2368.6000976562</ele>
        <time>2014-01-11T09:10:24.000Z</time>
      </trkpt>
      <trkpt lat="45.1844" lon="6.36215">
        <ele>2368.8000488281</ele>
        <time>2014-01-11T09:10:25.000Z</time>
      </trkpt>
      <trkpt lat="45.1844" lon="6.36215">
        <ele>2369</ele>
        <time>2014-01-11T09:10:26.000Z</time>
      </trkpt>
      <trkpt lat="45.1844" lon="6.36216">
        <ele>2369.1999511719</ele>
        <time>2014-01-11T09:10:27.000Z</time>
      </trkpt>
      <trkpt lat="45.18441" lon="6.36217">
        <ele>2369.3999023438</ele>
        <time>2014-01-11T09:10:28.000Z</time>
      </trkpt>
      <trkpt lat="45.18441" lon="6.36218">
        <ele>2369.6000976562</ele>
        <time>2014-01-11T09:10:29.000Z</time>
      </trkpt>
      <trkpt lat="45.18441" lon="6.36218">
        <ele>2369.8000488281</ele>
        <time>2014-01-11T09:10:30.000Z</time>
      </trkpt>
      <trkpt lat="45.18441" lon="6.36218">
        <ele>2370</ele>
        <time>2014-01-11T09:10:31.000Z</time>
      </trkpt>
      <trkpt lat="45.18441" lon="6.36218">
        <ele>2370.1999511719</ele>
        <time>2014-01-11T09:10:32.000Z</time>
      </trkpt>
      <trkpt lat="45.18441" lon="6.36218">
        <ele>2370.3999023438</ele>
        <time>2014-01-11T09:10:33.000Z</time>
      </trkpt>
      <trkpt lat="45.18441" lon="6.36218">
        <ele>2370.6000976562</ele>
        <time>2014-01-11T09:10:34.000Z</time>
      </trkpt>
      <trkpt lat="45.18441" lon="6.36218">
        <ele>2371</ele>
        <time>2014-01-11T09:10:35.000Z</time>
      </trkpt>
      <trkpt lat="45.18441" lon="6.36218">
        <ele>2371.1999511719</ele>
        <time>2014-01-11T09:10:36.000Z</time>
      </trkpt>
      <trkpt lat="45.18441" lon="6.36218">
        <ele>2371.1999511719</ele>
        <time>2014-01-11T09:10:37.000Z</time>
      </trkpt>
      <trkpt lat="45.18441" lon="6.36218">
        <ele>2371.3999023438</ele>
        <time>2014-01-11T09:10:38.000Z</time>
      </trkpt>
      <trkpt lat="45.18441" lon="6.36218">
        <ele>2371.6000976562</ele>
        <time>2014-01-11T09:10:39.000Z</time>
      </trkpt>
      <trkpt lat="45.18441" lon="6.36218">
        <ele>2371.8000488281</ele>
        <time>2014-01-11T09:10:40.000Z</time>
      </trkpt>
      <trkpt lat="45.18442" lon="6.36219">
        <ele>2372</ele>
        <time>2014-01-11T09:10:41.000Z</time>
      </trkpt>
      <trkpt lat="45.18443" lon="6.36221">
        <ele>2372</ele>
        <time>2014-01-11T09:10:42.000Z</time>
      </trkpt>
      <trkpt lat="45.18443" lon="6.36222">
        <ele>2372.1999511719</ele>
        <time>2014-01-11T09:10:43.000Z</time>
      </trkpt>
      <trkpt lat="45.18444" lon="6.36223">
        <ele>2372.1999511719</ele>
        <time>2014-01-11T09:10:44.000Z</time>
      </trkpt>
      <trkpt lat="45.18445" lon="6.36225">
        <ele>2372.3999023438</ele>
        <time>2014-01-11T09:10:45.000Z</time>
      </trkpt>
      <trkpt lat="45.18445" lon="6.36225">
        <ele>2372.3999023438</ele>
        <time>2014-01-11T09:10:46.000Z</time>
      </trkpt>
      <trkpt lat="45.18445" lon="6.36225">
        <ele>2372.6000976562</ele>
        <time>2014-01-11T09:10:47.000Z</time>
      </trkpt>
      <trkpt lat="45.18445" lon="6.36225">
        <ele>2372.8000488281</ele>
        <time>2014-01-11T09:10:48.000Z</time>
      </trkpt>
      <trkpt lat="45.18445" lon="6.36225">
        <ele>2373</ele>
        <time>2014-01-11T09:10:49.000Z</time>
      </trkpt>
      <trkpt lat="45.18445" lon="6.36227">
        <ele>2373</ele>
        <time>2014-01-11T09:10:50.000Z</time>
      </trkpt>
      <trkpt lat="45.18445" lon="6.36227">
        <ele>2373.1999511719</ele>
        <time>2014-01-11T09:10:51.000Z</time>
      </trkpt>
      <trkpt lat="45.18446" lon="6.36228">
        <ele>2373.1999511719</ele>
        <time>2014-01-11T09:10:52.000Z</time>
      </trkpt>
      <trkpt lat="45.18446" lon="6.36228">
        <ele>2373.3999023438</ele>
        <time>2014-01-11T09:10:53.000Z</time>
      </trkpt>
      <trkpt lat="45.18446" lon="6.36229">
        <ele>2373.6000976562</ele>
        <time>2014-01-11T09:10:54.000Z</time>
      </trkpt>
      <trkpt lat="45.18447" lon="6.3623">
        <ele>2373.8000488281</ele>
        <time>2014-01-11T09:10:55.000Z</time>
      </trkpt>
      <trkpt lat="45.18447" lon="6.36231">
        <ele>2374</ele>
        <time>2014-01-11T09:10:56.000Z</time>
      </trkpt>
      <trkpt lat="45.18448" lon="6.36232">
        <ele>2374.1999511719</ele>
        <time>2014-01-11T09:10:57.000Z</time>
      </trkpt>
      <trkpt lat="45.18448" lon="6.36232">
        <ele>2374.3999023438</ele>
        <time>2014-01-11T09:10:58.000Z</time>
      </trkpt>
      <trkpt lat="45.18448" lon="6.36233">
        <ele>2374.6000976562</ele>
        <time>2014-01-11T09:10:59.000Z</time>
      </trkpt>
      <trkpt lat="45.18448" lon="6.36234">
        <ele>2374.6000976562</ele>
        <time>2014-01-11T09:11:00.000Z</time>
      </trkpt>
      <trkpt lat="45.18449" lon="6.36235">
        <ele>2374.8000488281</ele>
        <time>2014-01-11T09:11:01.000Z</time>
      </trkpt>
      <trkpt lat="45.18449" lon="6.36235">
        <ele>2375</ele>
        <time>2014-01-11T09:11:02.000Z</time>
      </trkpt>
      <trkpt lat="45.18449" lon="6.36235">
        <ele>2375</ele>
        <time>2014-01-11T09:11:03.000Z</time>
      </trkpt>
      <trkpt lat="45.18449" lon="6.36235">
        <ele>2375.1999511719</ele>
        <time>2014-01-11T09:11:04.000Z</time>
      </trkpt>
      <trkpt lat="45.18449" lon="6.36235">
        <ele>2375.3999023438</ele>
        <time>2014-01-11T09:11:05.000Z</time>
      </trkpt>
      <trkpt lat="45.18449" lon="6.36235">
        <ele>2375.6000976562</ele>
        <time>2014-01-11T09:11:06.000Z</time>
      </trkpt>
      <trkpt lat="45.18449" lon="6.36236">
        <ele>2375.6000976562</ele>
        <time>2014-01-11T09:11:07.000Z</time>
      </trkpt>
      <trkpt lat="45.1845" lon="6.36237">
        <ele>2375.8000488281</ele>
        <time>2014-01-11T09:11:08.000Z</time>
      </trkpt>
      <trkpt lat="45.1845" lon="6.36238">
        <ele>2376</ele>
        <time>2014-01-11T09:11:09.000Z</time>
      </trkpt>
      <trkpt lat="45.18451" lon="6.36239">
        <ele>2376.1999511719</ele>
        <time>2014-01-11T09:11:10.000Z</time>
      </trkpt>
      <trkpt lat="45.18451" lon="6.3624">
        <ele>2376.1999511719</ele>
        <time>2014-01-11T09:11:11.000Z</time>
      </trkpt>
      <trkpt lat="45.18452" lon="6.36241">
        <ele>2376.3999023438</ele>
        <time>2014-01-11T09:11:12.000Z</time>
      </trkpt>
      <trkpt lat="45.18452" lon="6.36243">
        <ele>2376.6000976562</ele>
        <time>2014-01-11T09:11:13.000Z</time>
      </trkpt>
      <trkpt lat="45.18453" lon="6.36244">
        <ele>2376.8000488281</ele>
        <time>2014-01-11T09:11:14.000Z</time>
      </trkpt>
      <trkpt lat="45.18453" lon="6.36246">
        <ele>2377</ele>
        <time>2014-01-11T09:11:15.000Z</time>
      </trkpt>
      <trkpt lat="45.18454" lon="6.36246">
        <ele>2377.1999511719</ele>
        <time>2014-01-11T09:11:16.000Z</time>
      </trkpt>
      <trkpt lat="45.18454" lon="6.36247">
        <ele>2377.3999023438</ele>
        <time>2014-01-11T09:11:17.000Z</time>
      </trkpt>
      <trkpt lat="45.18454" lon="6.36248">
        <ele>2377.8000488281</ele>
        <time>2014-01-11T09:11:18.000Z</time>
      </trkpt>
      <trkpt lat="45.18455" lon="6.36249">
        <ele>2378</ele>
        <time>2014-01-11T09:11:19.000Z</time>
      </trkpt>
      <trkpt lat="45.18455" lon="6.3625">
        <ele>2378</ele>
        <time>2014-01-11T09:11:20.000Z</time>
      </trkpt>
      <trkpt lat="45.18455" lon="6.36251">
        <ele>2378.1999511719</ele>
        <time>2014-01-11T09:11:21.000Z</time>
      </trkpt>
      <trkpt lat="45.18456" lon="6.36251">
        <ele>2378.3999023438</ele>
        <time>2014-01-11T09:11:22.000Z</time>
      </trkpt>
      <trkpt lat="45.18456" lon="6.36251">
        <ele>2378.6000976562</ele>
        <time>2014-01-11T09:11:23.000Z</time>
      </trkpt>
      <trkpt lat="45.18456" lon="6.36251">
        <ele>2378.8000488281</ele>
        <time>2014-01-11T09:11:24.000Z</time>
      </trkpt>
      <trkpt lat="45.18456" lon="6.36251">
        <ele>2379</ele>
        <time>2014-01-11T09:11:25.000Z</time>
      </trkpt>
      <trkpt lat="45.18456" lon="6.36251">
        <ele>2379.1999511719</ele>
        <time>2014-01-11T09:11:26.000Z</time>
      </trkpt>
      <trkpt lat="45.18456" lon="6.36251">
        <ele>2379.3999023438</ele>
        <time>2014-01-11T09:11:27.000Z</time>
      </trkpt>
      <trkpt lat="45.18456" lon="6.36252">
        <ele>2379.6000976562</ele>
        <time>2014-01-11T09:11:28.000Z</time>
      </trkpt>
      <trkpt lat="45.18456" lon="6.36253">
        <ele>2379.8000488281</ele>
        <time>2014-01-11T09:11:29.000Z</time>
      </trkpt>
      <trkpt lat="45.18456" lon="6.36254">
        <ele>2380</ele>
        <time>2014-01-11T09:11:30.000Z</time>
      </trkpt>
      <trkpt lat="45.18456" lon="6.36254">
        <ele>2380.1999511719</ele>
        <time>2014-01-11T09:11:31.000Z</time>
      </trkpt>
      <trkpt lat="45.18457" lon="6.36255">
        <ele>2380.3999023438</ele>
        <time>2014-01-11T09:11:32.000Z</time>
      </trkpt>
      <trkpt lat="45.18457" lon="6.36256">
        <ele>2380.3999023438</ele>
        <time>2014-01-11T09:11:33.000Z</time>
      </trkpt>
      <trkpt lat="45.18458" lon="6.36257">
        <ele>2380.6000976562</ele>
        <time>2014-01-11T09:11:34.000Z</time>
      </trkpt>
      <trkpt lat="45.18458" lon="6.36257">
        <ele>2380.8000488281</ele>
        <time>2014-01-11T09:11:35.000Z</time>
      </trkpt>
      <trkpt lat="45.18458" lon="6.36258">
        <ele>2381</ele>
        <time>2014-01-11T09:11:36.000Z</time>
      </trkpt>
      <trkpt lat="45.18458" lon="6.36259">
        <ele>2381</ele>
        <time>2014-01-11T09:11:37.000Z</time>
      </trkpt>
      <trkpt lat="45.18458" lon="6.3626">
        <ele>2381.1999511719</ele>
        <time>2014-01-11T09:11:38.000Z</time>
      </trkpt>
      <trkpt lat="45.18459" lon="6.36261">
        <ele>2381.3999023438</ele>
        <time>2014-01-11T09:11:39.000Z</time>
      </trkpt>
      <trkpt lat="45.18459" lon="6.36261">
        <ele>2381.6000976562</ele>
        <time>2014-01-11T09:11:40.000Z</time>
      </trkpt>
      <trkpt lat="45.18459" lon="6.36262">
        <ele>2381.6000976562</ele>
        <time>2014-01-11T09:11:41.000Z</time>
      </trkpt>
      <trkpt lat="45.1846" lon="6.36264">
        <ele>2382</ele>
        <time>2014-01-11T09:11:42.000Z</time>
      </trkpt>
      <trkpt lat="45.1846" lon="6.36265">
        <ele>2382.1999511719</ele>
        <time>2014-01-11T09:11:43.000Z</time>
      </trkpt>
      <trkpt lat="45.18461" lon="6.36266">
        <ele>2382.3999023438</ele>
        <time>2014-01-11T09:11:44.000Z</time>
      </trkpt>
      <trkpt lat="45.18461" lon="6.36267">
        <ele>2382.6000976562</ele>
        <time>2014-01-11T09:11:45.000Z</time>
      </trkpt>
      <trkpt lat="45.18462" lon="6.36268">
        <ele>2382.6000976562</ele>
        <time>2014-01-11T09:11:46.000Z</time>
      </trkpt>
      <trkpt lat="45.18463" lon="6.3627">
        <ele>2382.8000488281</ele>
        <time>2014-01-11T09:11:47.000Z</time>
      </trkpt>
      <trkpt lat="45.18463" lon="6.36271">
        <ele>2383</ele>
        <time>2014-01-11T09:11:48.000Z</time>
      </trkpt>
      <trkpt lat="45.18464" lon="6.36272">
        <ele>2383.1999511719</ele>
        <time>2014-01-11T09:11:49.000Z</time>
      </trkpt>
      <trkpt lat="45.18464" lon="6.36272">
        <ele>2383.1999511719</ele>
        <time>2014-01-11T09:11:50.000Z</time>
      </trkpt>
      <trkpt lat="45.18464" lon="6.36273">
        <ele>2383.3999023438</ele>
        <time>2014-01-11T09:11:51.000Z</time>
      </trkpt>
      <trkpt lat="45.18464" lon="6.36273">
        <ele>2383.6000976562</ele>
        <time>2014-01-11T09:11:52.000Z</time>
      </trkpt>
      <trkpt lat="45.18464" lon="6.36274">
        <ele>2383.8000488281</ele>
        <time>2014-01-11T09:11:53.000Z</time>
      </trkpt>
      <trkpt lat="45.18464" lon="6.36274">
        <ele>2384</ele>
        <time>2014-01-11T09:11:54.000Z</time>
      </trkpt>
      <trkpt lat="45.18465" lon="6.36275">
        <ele>2384.1999511719</ele>
        <time>2014-01-11T09:11:55.000Z</time>
      </trkpt>
      <trkpt lat="45.18465" lon="6.36275">
        <ele>2384.3999023438</ele>
        <time>2014-01-11T09:11:56.000Z</time>
      </trkpt>
      <trkpt lat="45.18465" lon="6.36275">
        <ele>2384.6000976562</ele>
        <time>2014-01-11T09:11:57.000Z</time>
      </trkpt>
      <trkpt lat="45.18466" lon="6.36276">
        <ele>2384.8000488281</ele>
        <time>2014-01-11T09:11:58.000Z</time>
      </trkpt>
      <trkpt lat="45.18466" lon="6.36277">
        <ele>2385</ele>
        <time>2014-01-11T09:11:59.000Z</time>
      </trkpt>
      <trkpt lat="45.18467" lon="6.36278">
        <ele>2385.1999511719</ele>
        <time>2014-01-11T09:12:00.000Z</time>
      </trkpt>
      <trkpt lat="45.18467" lon="6.3628">
        <ele>2385.3999023438</ele>
        <time>2014-01-11T09:12:01.000Z</time>
      </trkpt>
      <trkpt lat="45.18467" lon="6.3628">
        <ele>2385.3999023438</ele>
        <time>2014-01-11T09:12:02.000Z</time>
      </trkpt>
      <trkpt lat="45.18468" lon="6.36282">
        <ele>2385.6000976562</ele>
        <time>2014-01-11T09:12:03.000Z</time>
      </trkpt>
      <trkpt lat="45.18468" lon="6.36282">
        <ele>2385.8000488281</ele>
        <time>2014-01-11T09:12:04.000Z</time>
      </trkpt>
      <trkpt lat="45.18469" lon="6.36283">
        <ele>2386</ele>
        <time>2014-01-11T09:12:05.000Z</time>
      </trkpt>
      <trkpt lat="45.18469" lon="6.36283">
        <ele>2386.1999511719</ele>
        <time>2014-01-11T09:12:06.000Z</time>
      </trkpt>
      <trkpt lat="45.18469" lon="6.36285">
        <ele>2386.3999023438</ele>
        <time>2014-01-11T09:12:07.000Z</time>
      </trkpt>
      <trkpt lat="45.18469" lon="6.36285">
        <ele>2386.6000976562</ele>
        <time>2014-01-11T09:12:08.000Z</time>
      </trkpt>
      <trkpt lat="45.1847" lon="6.36286">
        <ele>2386.6000976562</ele>
        <time>2014-01-11T09:12:09.000Z</time>
      </trkpt>
      <trkpt lat="45.1847" lon="6.36286">
        <ele>2386.8000488281</ele>
        <time>2014-01-11T09:12:10.000Z</time>
      </trkpt>
      <trkpt lat="45.1847" lon="6.36286">
        <ele>2386.8000488281</ele>
        <time>2014-01-11T09:12:11.000Z</time>
      </trkpt>
      <trkpt lat="45.1847" lon="6.36287">
        <ele>2387</ele>
        <time>2014-01-11T09:12:12.000Z</time>
      </trkpt>
      <trkpt lat="45.1847" lon="6.36287">
        <ele>2387.1999511719</ele>
        <time>2014-01-11T09:12:13.000Z</time>
      </trkpt>
      <trkpt lat="45.1847" lon="6.36287">
        <ele>2387.3999023438</ele>
        <time>2014-01-11T09:12:14.000Z</time>
      </trkpt>
      <trkpt lat="45.1847" lon="6.36288">
        <ele>2387.8000488281</ele>
        <time>2014-01-11T09:12:15.000Z</time>
      </trkpt>
      <trkpt lat="45.18471" lon="6.36289">
        <ele>2388</ele>
        <time>2014-01-11T09:12:16.000Z</time>
      </trkpt>
      <trkpt lat="45.18471" lon="6.36289">
        <ele>2388</ele>
        <time>2014-01-11T09:12:17.000Z</time>
      </trkpt>
      <trkpt lat="45.18471" lon="6.3629">
        <ele>2388.1999511719</ele>
        <time>2014-01-11T09:12:18.000Z</time>
      </trkpt>
      <trkpt lat="45.18472" lon="6.36291">
        <ele>2388.3999023438</ele>
        <time>2014-01-11T09:12:19.000Z</time>
      </trkpt>
      <trkpt lat="45.18473" lon="6.36293">
        <ele>2388.6000976562</ele>
        <time>2014-01-11T09:12:20.000Z</time>
      </trkpt>
      <trkpt lat="45.18473" lon="6.36293">
        <ele>2388.6000976562</ele>
        <time>2014-01-11T09:12:21.000Z</time>
      </trkpt>
      <trkpt lat="45.18473" lon="6.36293">
        <ele>2388.8000488281</ele>
        <time>2014-01-11T09:12:22.000Z</time>
      </trkpt>
      <trkpt lat="45.18473" lon="6.36294">
        <ele>2389</ele>
        <time>2014-01-11T09:12:23.000Z</time>
      </trkpt>
      <trkpt lat="45.18473" lon="6.36294">
        <ele>2389.1999511719</ele>
        <time>2014-01-11T09:12:24.000Z</time>
      </trkpt>
      <trkpt lat="45.18473" lon="6.36295">
        <ele>2389.3999023438</ele>
        <time>2014-01-11T09:12:25.000Z</time>
      </trkpt>
      <trkpt lat="45.18473" lon="6.36295">
        <ele>2389.6000976562</ele>
        <time>2014-01-11T09:12:26.000Z</time>
      </trkpt>
      <trkpt lat="45.18474" lon="6.36295">
        <ele>2389.8000488281</ele>
        <time>2014-01-11T09:12:27.000Z</time>
      </trkpt>
      <trkpt lat="45.18474" lon="6.36295">
        <ele>2390</ele>
        <time>2014-01-11T09:12:28.000Z</time>
      </trkpt>
      <trkpt lat="45.18474" lon="6.36296">
        <ele>2390.1999511719</ele>
        <time>2014-01-11T09:12:29.000Z</time>
      </trkpt>
      <trkpt lat="45.18474" lon="6.36296">
        <ele>2390.6000976562</ele>
        <time>2014-01-11T09:12:30.000Z</time>
      </trkpt>
      <trkpt lat="45.18475" lon="6.36297">
        <ele>2390.8000488281</ele>
        <time>2014-01-11T09:12:31.000Z</time>
      </trkpt>
      <trkpt lat="45.18475" lon="6.36297">
        <ele>2390.8000488281</ele>
        <time>2014-01-11T09:12:32.000Z</time>
      </trkpt>
      <trkpt lat="45.18475" lon="6.36298">
        <ele>2391</ele>
        <time>2014-01-11T09:12:33.000Z</time>
      </trkpt>
      <trkpt lat="45.18475" lon="6.36298">
        <ele>2391.1999511719</ele>
        <time>2014-01-11T09:12:34.000Z</time>
      </trkpt>
      <trkpt lat="45.18475" lon="6.36299">
        <ele>2391.3999023438</ele>
        <time>2014-01-11T09:12:35.000Z</time>
      </trkpt>
      <trkpt lat="45.18476" lon="6.36299">
        <ele>2391.6000976562</ele>
        <time>2014-01-11T09:12:36.000Z</time>
      </trkpt>
      <trkpt lat="45.18476" lon="6.363">
        <ele>2391.8000488281</ele>
        <time>2014-01-11T09:12:37.000Z</time>
      </trkpt>
      <trkpt lat="45.18476" lon="6.36301">
        <ele>2392</ele>
        <time>2014-01-11T09:12:38.000Z</time>
      </trkpt>
      <trkpt lat="45.18477" lon="6.36303">
        <ele>2392.1999511719</ele>
        <time>2014-01-11T09:12:39.000Z</time>
      </trkpt>
      <trkpt lat="45.18478" lon="6.36303">
        <ele>2392.3999023438</ele>
        <time>2014-01-11T09:12:40.000Z</time>
      </trkpt>
      <trkpt lat="45.18479" lon="6.36305">
        <ele>2392.6000976562</ele>
        <time>2014-01-11T09:12:41.000Z</time>
      </trkpt>
      <trkpt lat="45.18479" lon="6.36305">
        <ele>2392.8000488281</ele>
        <time>2014-01-11T09:12:42.000Z</time>
      </trkpt>
      <trkpt lat="45.1848" lon="6.36307">
        <ele>2393</ele>
        <time>2014-01-11T09:12:43.000Z</time>
      </trkpt>
      <trkpt lat="45.1848" lon="6.36307">
        <ele>2393.1999511719</ele>
        <time>2014-01-11T09:12:44.000Z</time>
      </trkpt>
      <trkpt lat="45.1848" lon="6.36307">
        <ele>2393.3999023438</ele>
        <time>2014-01-11T09:12:45.000Z</time>
      </trkpt>
      <trkpt lat="45.1848" lon="6.36307">
        <ele>2393.6000976562</ele>
        <time>2014-01-11T09:12:46.000Z</time>
      </trkpt>
      <trkpt lat="45.1848" lon="6.36307">
        <ele>2393.8000488281</ele>
        <time>2014-01-11T09:12:47.000Z</time>
      </trkpt>
      <trkpt lat="45.1848" lon="6.36308">
        <ele>2394</ele>
        <time>2014-01-11T09:12:48.000Z</time>
      </trkpt>
      <trkpt lat="45.1848" lon="6.36308">
        <ele>2394.1999511719</ele>
        <time>2014-01-11T09:12:49.000Z</time>
      </trkpt>
      <trkpt lat="45.1848" lon="6.36309">
        <ele>2394.3999023438</ele>
        <time>2014-01-11T09:12:50.000Z</time>
      </trkpt>
      <trkpt lat="45.18481" lon="6.36309">
        <ele>2394.6000976562</ele>
        <time>2014-01-11T09:12:51.000Z</time>
      </trkpt>
      <trkpt lat="45.18481" lon="6.3631">
        <ele>2394.8000488281</ele>
        <time>2014-01-11T09:12:52.000Z</time>
      </trkpt>
      <trkpt lat="45.18482" lon="6.36311">
        <ele>2394.8000488281</ele>
        <time>2014-01-11T09:12:53.000Z</time>
      </trkpt>
      <trkpt lat="45.18482" lon="6.36313">
        <ele>2395.1999511719</ele>
        <time>2014-01-11T09:12:54.000Z</time>
      </trkpt>
      <trkpt lat="45.18482" lon="6.36313">
        <ele>2395.3999023438</ele>
        <time>2014-01-11T09:12:55.000Z</time>
      </trkpt>
      <trkpt lat="45.18483" lon="6.36315">
        <ele>2395.6000976562</ele>
        <time>2014-01-11T09:12:56.000Z</time>
      </trkpt>
      <trkpt lat="45.18483" lon="6.36315">
        <ele>2395.8000488281</ele>
        <time>2014-01-11T09:12:57.000Z</time>
      </trkpt>
      <trkpt lat="45.18484" lon="6.36316">
        <ele>2395.8000488281</ele>
        <time>2014-01-11T09:12:58.000Z</time>
      </trkpt>
      <trkpt lat="45.18484" lon="6.36316">
        <ele>2396</ele>
        <time>2014-01-11T09:12:59.000Z</time>
      </trkpt>
      <trkpt lat="45.18484" lon="6.36316">
        <ele>2396.1999511719</ele>
        <time>2014-01-11T09:13:00.000Z</time>
      </trkpt>
      <trkpt lat="45.18484" lon="6.36317">
        <ele>2396.3999023438</ele>
        <time>2014-01-11T09:13:01.000Z</time>
      </trkpt>
      <trkpt lat="45.18485" lon="6.36319">
        <ele>2396.3999023438</ele>
        <time>2014-01-11T09:13:02.000Z</time>
      </trkpt>
      <trkpt lat="45.18485" lon="6.36319">
        <ele>2396.6000976562</ele>
        <time>2014-01-11T09:13:03.000Z</time>
      </trkpt>
      <trkpt lat="45.18485" lon="6.3632">
        <ele>2396.8000488281</ele>
        <time>2014-01-11T09:13:04.000Z</time>
      </trkpt>
      <trkpt lat="45.18485" lon="6.36321">
        <ele>2397</ele>
        <time>2014-01-11T09:13:05.000Z</time>
      </trkpt>
      <trkpt lat="45.18485" lon="6.36321">
        <ele>2397.1999511719</ele>
        <time>2014-01-11T09:13:06.000Z</time>
      </trkpt>
      <trkpt lat="45.18485" lon="6.36322">
        <ele>2397.3999023438</ele>
        <time>2014-01-11T09:13:07.000Z</time>
      </trkpt>
      <trkpt lat="45.18486" lon="6.36323">
        <ele>2397.6000976562</ele>
        <time>2014-01-11T09:13:08.000Z</time>
      </trkpt>
      <trkpt lat="45.18486" lon="6.36323">
        <ele>2397.8000488281</ele>
        <time>2014-01-11T09:13:09.000Z</time>
      </trkpt>
      <trkpt lat="45.18486" lon="6.36324">
        <ele>2398</ele>
        <time>2014-01-11T09:13:10.000Z</time>
      </trkpt>
      <trkpt lat="45.18487" lon="6.36325">
        <ele>2398.1999511719</ele>
        <time>2014-01-11T09:13:11.000Z</time>
      </trkpt>
      <trkpt lat="45.18487" lon="6.36326">
        <ele>2398.3999023438</ele>
        <time>2014-01-11T09:13:12.000Z</time>
      </trkpt>
      <trkpt lat="45.18487" lon="6.36326">
        <ele>2398.6000976562</ele>
        <time>2014-01-11T09:13:13.000Z</time>
      </trkpt>
      <trkpt lat="45.18487" lon="6.36327">
        <ele>2398.6000976562</ele>
        <time>2014-01-11T09:13:14.000Z</time>
      </trkpt>
      <trkpt lat="45.18488" lon="6.36328">
        <ele>2398.8000488281</ele>
        <time>2014-01-11T09:13:15.000Z</time>
      </trkpt>
      <trkpt lat="45.18488" lon="6.36328">
        <ele>2399</ele>
        <time>2014-01-11T09:13:16.000Z</time>
      </trkpt>
      <trkpt lat="45.18489" lon="6.36329">
        <ele>2399.1999511719</ele>
        <time>2014-01-11T09:13:17.000Z</time>
      </trkpt>
      <trkpt lat="45.18489" lon="6.3633">
        <ele>2399.6000976562</ele>
        <time>2014-01-11T09:13:18.000Z</time>
      </trkpt>
      <trkpt lat="45.18489" lon="6.36331">
        <ele>2399.8000488281</ele>
        <time>2014-01-11T09:13:19.000Z</time>
      </trkpt>
      <trkpt lat="45.1849" lon="6.36332">
        <ele>2400</ele>
        <time>2014-01-11T09:13:20.000Z</time>
      </trkpt>
      <trkpt lat="45.1849" lon="6.36332">
        <ele>2400</ele>
        <time>2014-01-11T09:13:21.000Z</time>
      </trkpt>
      <trkpt lat="45.1849" lon="6.36333">
        <ele>2400.1999511719</ele>
        <time>2014-01-11T09:13:22.000Z</time>
      </trkpt>
      <trkpt lat="45.1849" lon="6.36334">
        <ele>2400.6000976562</ele>
        <time>2014-01-11T09:13:23.000Z</time>
      </trkpt>
      <trkpt lat="45.18491" lon="6.36334">
        <ele>2400.8000488281</ele>
        <time>2014-01-11T09:13:24.000Z</time>
      </trkpt>
      <trkpt lat="45.18491" lon="6.36335">
        <ele>2401</ele>
        <time>2014-01-11T09:13:25.000Z</time>
      </trkpt>
      <trkpt lat="45.18491" lon="6.36336">
        <ele>2401.1999511719</ele>
        <time>2014-01-11T09:13:26.000Z</time>
      </trkpt>
      <trkpt lat="45.18491" lon="6.36336">
        <ele>2401.3999023438</ele>
        <time>2014-01-11T09:13:27.000Z</time>
      </trkpt>
      <trkpt lat="45.18491" lon="6.36337">
        <ele>2401.6000976562</ele>
        <time>2014-01-11T09:13:28.000Z</time>
      </trkpt>
      <trkpt lat="45.18491" lon="6.36337">
        <ele>2401.8000488281</ele>
        <time>2014-01-11T09:13:29.000Z</time>
      </trkpt>
      <trkpt lat="45.18492" lon="6.36338">
        <ele>2402</ele>
        <time>2014-01-11T09:13:30.000Z</time>
      </trkpt>
      <trkpt lat="45.18492" lon="6.36339">
        <ele>2402.1999511719</ele>
        <time>2014-01-11T09:13:31.000Z</time>
      </trkpt>
      <trkpt lat="45.18493" lon="6.36339">
        <ele>2402.3999023438</ele>
        <time>2014-01-11T09:13:32.000Z</time>
      </trkpt>
      <trkpt lat="45.18493" lon="6.3634">
        <ele>2402.6000976562</ele>
        <time>2014-01-11T09:13:33.000Z</time>
      </trkpt>
      <trkpt lat="45.18493" lon="6.36341">
        <ele>2402.8000488281</ele>
        <time>2014-01-11T09:13:34.000Z</time>
      </trkpt>
      <trkpt lat="45.18493" lon="6.36341">
        <ele>2403</ele>
        <time>2014-01-11T09:13:35.000Z</time>
      </trkpt>
      <trkpt lat="45.18493" lon="6.36341">
        <ele>2403.1999511719</ele>
        <time>2014-01-11T09:13:36.000Z</time>
      </trkpt>
      <trkpt lat="45.18493" lon="6.36341">
        <ele>2403.3999023438</ele>
        <time>2014-01-11T09:13:37.000Z</time>
      </trkpt>
      <trkpt lat="45.18493" lon="6.36341">
        <ele>2403.6000976562</ele>
        <time>2014-01-11T09:13:38.000Z</time>
      </trkpt>
      <trkpt lat="45.18493" lon="6.36341">
        <ele>2403.8000488281</ele>
        <time>2014-01-11T09:13:39.000Z</time>
      </trkpt>
      <trkpt lat="45.18493" lon="6.36341">
        <ele>2404</ele>
        <time>2014-01-11T09:13:40.000Z</time>
      </trkpt>
      <trkpt lat="45.18493" lon="6.36341">
        <ele>2404</ele>
        <time>2014-01-11T09:13:41.000Z</time>
      </trkpt>
      <trkpt lat="45.18493" lon="6.36341">
        <ele>2404.1999511719</ele>
        <time>2014-01-11T09:13:42.000Z</time>
      </trkpt>
      <trkpt lat="45.18493" lon="6.36341">
        <ele>2404.1999511719</ele>
        <time>2014-01-11T09:13:43.000Z</time>
      </trkpt>
      <trkpt lat="45.18493" lon="6.36341">
        <ele>2404</ele>
        <time>2014-01-11T09:13:45.000Z</time>
      </trkpt>
      <trkpt lat="45.18493" lon="6.36341">
        <ele>2404</ele>
        <time>2014-01-11T09:13:46.000Z</time>
      </trkpt>
      <trkpt lat="45.18493" lon="6.36341">
        <ele>2404</ele>
        <time>2014-01-11T09:13:47.000Z</time>
      </trkpt>
      <trkpt lat="45.18493" lon="6.36341">
        <ele>2404</ele>
        <time>2014-01-11T09:13:48.000Z</time>
      </trkpt>
      <trkpt lat="45.18493" lon="6.36341">
        <ele>2404</ele>
        <time>2014-01-11T09:13:49.000Z</time>
      </trkpt>
      <trkpt lat="45.18493" lon="6.36341">
        <ele>2404</ele>
        <time>2014-01-11T09:13:51.000Z</time>
      </trkpt>
      <trkpt lat="45.18493" lon="6.36341">
        <ele>2404</ele>
        <time>2014-01-11T09:13:52.000Z</time>
      </trkpt>
      <trkpt lat="45.18493" lon="6.36341">
        <ele>2404</ele>
        <time>2014-01-11T09:13:53.000Z</time>
      </trkpt>
      <trkpt lat="45.18493" lon="6.36341">
        <ele>2404.1999511719</ele>
        <time>2014-01-11T09:13:54.000Z</time>
      </trkpt>
      <trkpt lat="45.18493" lon="6.36341">
        <ele>2404.1999511719</ele>
        <time>2014-01-11T09:13:55.000Z</time>
      </trkpt>
      <trkpt lat="45.18493" lon="6.36341">
        <ele>2404.1999511719</ele>
        <time>2014-01-11T09:13:56.000Z</time>
      </trkpt>
      <trkpt lat="45.18493" lon="6.36341">
        <ele>2404.1999511719</ele>
        <time>2014-01-11T09:13:57.000Z</time>
      </trkpt>
      <trkpt lat="45.18493" lon="6.36341">
        <ele>2404.1999511719</ele>
        <time>2014-01-11T09:13:58.000Z</time>
      </trkpt>
      <trkpt lat="45.18493" lon="6.36341">
        <ele>2404.1999511719</ele>
        <time>2014-01-11T09:13:59.000Z</time>
      </trkpt>
      <trkpt lat="45.18493" lon="6.36341">
        <ele>2404.1999511719</ele>
        <time>2014-01-11T09:14:00.000Z</time>
      </trkpt>
      <trkpt lat="45.18493" lon="6.36341">
        <ele>2404.1999511719</ele>
        <time>2014-01-11T09:14:01.000Z</time>
      </trkpt>
      <trkpt lat="45.18493" lon="6.36341">
        <ele>2404.1999511719</ele>
        <time>2014-01-11T09:14:02.000Z</time>
      </trkpt>
      <trkpt lat="45.18493" lon="6.36341">
        <ele>2404.1999511719</ele>
        <time>2014-01-11T09:14:03.000Z</time>
      </trkpt>
      <trkpt lat="45.18493" lon="6.36341">
        <ele>2404.1999511719</ele>
        <time>2014-01-11T09:14:04.000Z</time>
      </trkpt>
      <trkpt lat="45.18493" lon="6.36341">
        <ele>2404</ele>
        <time>2014-01-11T09:14:05.000Z</time>
      </trkpt>
      <trkpt lat="45.18493" lon="6.36341">
        <ele>2404</ele>
        <time>2014-01-11T09:14:06.000Z</time>
      </trkpt>
      <trkpt lat="45.18493" lon="6.36341">
        <ele>2404</ele>
        <time>2014-01-11T09:14:08.000Z</time>
      </trkpt>
      <trkpt lat="45.18493" lon="6.36341">
        <ele>2404</ele>
        <time>2014-01-11T09:14:12.000Z</time>
      </trkpt>
      <trkpt lat="45.18493" lon="6.36341">
        <ele>2404</ele>
        <time>2014-01-11T09:14:13.000Z</time>
      </trkpt>
      <trkpt lat="45.18493" lon="6.36341">
        <ele>2404</ele>
        <time>2014-01-11T09:14:16.000Z</time>
      </trkpt>
      <trkpt lat="45.18493" lon="6.36341">
        <ele>2404</ele>
        <time>2014-01-11T09:14:17.000Z</time>
      </trkpt>
      <trkpt lat="45.18493" lon="6.36341">
        <ele>2404</ele>
        <time>2014-01-11T09:14:18.000Z</time>
      </trkpt>
      <trkpt lat="45.18493" lon="6.36342">
        <ele>2404</ele>
        <time>2014-01-11T09:14:20.000Z</time>
      </trkpt>
      <trkpt lat="45.18493" lon="6.36342">
        <ele>2404</ele>
        <time>2014-01-11T09:14:21.000Z</time>
      </trkpt>
      <trkpt lat="45.18493" lon="6.36342">
        <ele>2404</ele>
        <time>2014-01-11T09:14:22.000Z</time>
      </trkpt>
      <trkpt lat="45.18493" lon="6.36342">
        <ele>2403.8000488281</ele>
        <time>2014-01-11T09:14:23.000Z</time>
      </trkpt>
      <trkpt lat="45.18493" lon="6.36342">
        <ele>2403.8000488281</ele>
        <time>2014-01-11T09:14:24.000Z</time>
      </trkpt>
      <trkpt lat="45.18493" lon="6.36342">
        <ele>2403.8000488281</ele>
        <time>2014-01-11T09:14:26.000Z</time>
      </trkpt>
      <trkpt lat="45.18493" lon="6.36342">
        <ele>2404</ele>
        <time>2014-01-11T09:14:27.000Z</time>
      </trkpt>
      <trkpt lat="45.18493" lon="6.36342">
        <ele>2404</ele>
        <time>2014-01-11T09:14:28.000Z</time>
      </trkpt>
      <trkpt lat="45.18493" lon="6.36342">
        <ele>2404</ele>
        <time>2014-01-11T09:14:29.000Z</time>
      </trkpt>
      <trkpt lat="45.18492" lon="6.36342">
        <ele>2404</ele>
        <time>2014-01-11T09:14:30.000Z</time>
      </trkpt>
      <trkpt lat="45.18491" lon="6.36342">
        <ele>2404.1999511719</ele>
        <time>2014-01-11T09:14:31.000Z</time>
      </trkpt>
      <trkpt lat="45.1849" lon="6.36343">
        <ele>2404.1999511719</ele>
        <time>2014-01-11T09:14:32.000Z</time>
      </trkpt>
      <trkpt lat="45.1849" lon="6.36343">
        <ele>2404.1999511719</ele>
        <time>2014-01-11T09:14:33.000Z</time>
      </trkpt>
      <trkpt lat="45.1849" lon="6.36343">
        <ele>2404.1999511719</ele>
        <time>2014-01-11T09:14:34.000Z</time>
      </trkpt>
      <trkpt lat="45.18488" lon="6.36345">
        <ele>2404.3999023438</ele>
        <time>2014-01-11T09:14:35.000Z</time>
      </trkpt>
      <trkpt lat="45.18488" lon="6.36345">
        <ele>2404.6000976562</ele>
        <time>2014-01-11T09:14:36.000Z</time>
      </trkpt>
      <trkpt lat="45.18487" lon="6.36346">
        <ele>2404.8000488281</ele>
        <time>2014-01-11T09:14:37.000Z</time>
      </trkpt>
      <trkpt lat="45.18487" lon="6.36346">
        <ele>2405</ele>
        <time>2014-01-11T09:14:38.000Z</time>
      </trkpt>
      <trkpt lat="45.18487" lon="6.36347">
        <ele>2405.1999511719</ele>
        <time>2014-01-11T09:14:39.000Z</time>
      </trkpt>
      <trkpt lat="45.18487" lon="6.36347">
        <ele>2405.3999023438</ele>
        <time>2014-01-11T09:14:40.000Z</time>
      </trkpt>
      <trkpt lat="45.18486" lon="6.36348">
        <ele>2405.6000976562</ele>
        <time>2014-01-11T09:14:41.000Z</time>
      </trkpt>
      <trkpt lat="45.18486" lon="6.36348">
        <ele>2405.8000488281</ele>
        <time>2014-01-11T09:14:42.000Z</time>
      </trkpt>
      <trkpt lat="45.18486" lon="6.36349">
        <ele>2406</ele>
        <time>2014-01-11T09:14:43.000Z</time>
      </trkpt>
      <trkpt lat="45.18486" lon="6.3635">
        <ele>2406.1999511719</ele>
        <time>2014-01-11T09:14:44.000Z</time>
      </trkpt>
      <trkpt lat="45.18486" lon="6.3635">
        <ele>2406.3999023438</ele>
        <time>2014-01-11T09:14:45.000Z</time>
      </trkpt>
      <trkpt lat="45.18485" lon="6.36351">
        <ele>2406.6000976562</ele>
        <time>2014-01-11T09:14:46.000Z</time>
      </trkpt>
      <trkpt lat="45.18485" lon="6.36351">
        <ele>2406.8000488281</ele>
        <time>2014-01-11T09:14:47.000Z</time>
      </trkpt>
      <trkpt lat="45.18485" lon="6.36352">
        <ele>2407</ele>
        <time>2014-01-11T09:14:48.000Z</time>
      </trkpt>
      <trkpt lat="45.18484" lon="6.36352">
        <ele>2407.1999511719</ele>
        <time>2014-01-11T09:14:49.000Z</time>
      </trkpt>
      <trkpt lat="45.18484" lon="6.36353">
        <ele>2407.3999023438</ele>
        <time>2014-01-11T09:14:50.000Z</time>
      </trkpt>
      <trkpt lat="45.18484" lon="6.36353">
        <ele>2407.6000976562</ele>
        <time>2014-01-11T09:14:51.000Z</time>
      </trkpt>
      <trkpt lat="45.18483" lon="6.36354">
        <ele>2407.8000488281</ele>
        <time>2014-01-11T09:14:52.000Z</time>
      </trkpt>
      <trkpt lat="45.18483" lon="6.36355">
        <ele>2408</ele>
        <time>2014-01-11T09:14:53.000Z</time>
      </trkpt>
      <trkpt lat="45.18483" lon="6.36355">
        <ele>2408.3999023438</ele>
        <time>2014-01-11T09:14:54.000Z</time>
      </trkpt>
      <trkpt lat="45.18482" lon="6.36356">
        <ele>2408.6000976562</ele>
        <time>2014-01-11T09:14:55.000Z</time>
      </trkpt>
      <trkpt lat="45.18482" lon="6.36357">
        <ele>2408.8000488281</ele>
        <time>2014-01-11T09:14:56.000Z</time>
      </trkpt>
      <trkpt lat="45.18482" lon="6.36357">
        <ele>2409</ele>
        <time>2014-01-11T09:14:57.000Z</time>
      </trkpt>
      <trkpt lat="45.18482" lon="6.36357">
        <ele>2409.1999511719</ele>
        <time>2014-01-11T09:14:58.000Z</time>
      </trkpt>
      <trkpt lat="45.18482" lon="6.36357">
        <ele>2409.3999023438</ele>
        <time>2014-01-11T09:14:59.000Z</time>
      </trkpt>
      <trkpt lat="45.18482" lon="6.36357">
        <ele>2409.3999023438</ele>
        <time>2014-01-11T09:15:00.000Z</time>
      </trkpt>
      <trkpt lat="45.18482" lon="6.36357">
        <ele>2409.6000976562</ele>
        <time>2014-01-11T09:15:01.000Z</time>
      </trkpt>
      <trkpt lat="45.18482" lon="6.36357">
        <ele>2409.6000976562</ele>
        <time>2014-01-11T09:15:02.000Z</time>
      </trkpt>
      <trkpt lat="45.18482" lon="6.36357">
        <ele>2409.6000976562</ele>
        <time>2014-01-11T09:15:03.000Z</time>
      </trkpt>
      <trkpt lat="45.18482" lon="6.36357">
        <ele>2409.6000976562</ele>
        <time>2014-01-11T09:15:04.000Z</time>
      </trkpt>
      <trkpt lat="45.18482" lon="6.36357">
        <ele>2409.6000976562</ele>
        <time>2014-01-11T09:15:05.000Z</time>
      </trkpt>
      <trkpt lat="45.18482" lon="6.36357">
        <ele>2409.6000976562</ele>
        <time>2014-01-11T09:15:06.000Z</time>
      </trkpt>
      <trkpt lat="45.18482" lon="6.36357">
        <ele>2409.6000976562</ele>
        <time>2014-01-11T09:15:07.000Z</time>
      </trkpt>
      <trkpt lat="45.18481" lon="6.36358">
        <ele>2409.8000488281</ele>
        <time>2014-01-11T09:15:08.000Z</time>
      </trkpt>
      <trkpt lat="45.18481" lon="6.36358">
        <ele>2409.8000488281</ele>
        <time>2014-01-11T09:15:09.000Z</time>
      </trkpt>
      <trkpt lat="45.1848" lon="6.3636">
        <ele>2410</ele>
        <time>2014-01-11T09:15:10.000Z</time>
      </trkpt>
      <trkpt lat="45.1848" lon="6.3636">
        <ele>2410.1999511719</ele>
        <time>2014-01-11T09:15:11.000Z</time>
      </trkpt>
      <trkpt lat="45.1848" lon="6.36361">
        <ele>2410.3999023438</ele>
        <time>2014-01-11T09:15:12.000Z</time>
      </trkpt>
      <trkpt lat="45.18479" lon="6.36361">
        <ele>2410.6000976562</ele>
        <time>2014-01-11T09:15:13.000Z</time>
      </trkpt>
      <trkpt lat="45.18479" lon="6.36362">
        <ele>2410.8000488281</ele>
        <time>2014-01-11T09:15:14.000Z</time>
      </trkpt>
      <trkpt lat="45.18478" lon="6.36362">
        <ele>2411</ele>
        <time>2014-01-11T09:15:15.000Z</time>
      </trkpt>
      <trkpt lat="45.18478" lon="6.36363">
        <ele>2411.3999023438</ele>
        <time>2014-01-11T09:15:16.000Z</time>
      </trkpt>
      <trkpt lat="45.18478" lon="6.36363">
        <ele>2411.6000976562</ele>
        <time>2014-01-11T09:15:17.000Z</time>
      </trkpt>
      <trkpt lat="45.18478" lon="6.36363">
        <ele>2412</ele>
        <time>2014-01-11T09:15:18.000Z</time>
      </trkpt>
      <trkpt lat="45.18478" lon="6.36364">
        <ele>2412.1999511719</ele>
        <time>2014-01-11T09:15:19.000Z</time>
      </trkpt>
      <trkpt lat="45.18478" lon="6.36364">
        <ele>2412.3999023438</ele>
        <time>2014-01-11T09:15:20.000Z</time>
      </trkpt>
      <trkpt lat="45.18478" lon="6.36364">
        <ele>2412.6000976562</ele>
        <time>2014-01-11T09:15:21.000Z</time>
      </trkpt>
      <trkpt lat="45.18478" lon="6.36364">
        <ele>2412.6000976562</ele>
        <time>2014-01-11T09:15:22.000Z</time>
      </trkpt>
      <trkpt lat="45.18478" lon="6.36364">
        <ele>2412.8000488281</ele>
        <time>2014-01-11T09:15:23.000Z</time>
      </trkpt>
      <trkpt lat="45.18478" lon="6.36364">
        <ele>2412.8000488281</ele>
        <time>2014-01-11T09:15:24.000Z</time>
      </trkpt>
      <trkpt lat="45.18478" lon="6.36364">
        <ele>2412.8000488281</ele>
        <time>2014-01-11T09:15:25.000Z</time>
      </trkpt>
      <trkpt lat="45.18478" lon="6.36364">
        <ele>2412.8000488281</ele>
        <time>2014-01-11T09:15:26.000Z</time>
      </trkpt>
      <trkpt lat="45.18478" lon="6.36364">
        <ele>2413</ele>
        <time>2014-01-11T09:15:27.000Z</time>
      </trkpt>
      <trkpt lat="45.18478" lon="6.36364">
        <ele>2413</ele>
        <time>2014-01-11T09:15:28.000Z</time>
      </trkpt>
      <trkpt lat="45.18478" lon="6.36364">
        <ele>2413</ele>
        <time>2014-01-11T09:15:29.000Z</time>
      </trkpt>
      <trkpt lat="45.18478" lon="6.36364">
        <ele>2413</ele>
        <time>2014-01-11T09:15:30.000Z</time>
      </trkpt>
      <trkpt lat="45.18478" lon="6.36364">
        <ele>2413.1999511719</ele>
        <time>2014-01-11T09:15:31.000Z</time>
      </trkpt>
      <trkpt lat="45.18478" lon="6.36364">
        <ele>2413.1999511719</ele>
        <time>2014-01-11T09:15:32.000Z</time>
      </trkpt>
      <trkpt lat="45.18478" lon="6.36364">
        <ele>2413.1999511719</ele>
        <time>2014-01-11T09:15:33.000Z</time>
      </trkpt>
      <trkpt lat="45.18478" lon="6.36364">
        <ele>2413.1999511719</ele>
        <time>2014-01-11T09:15:35.000Z</time>
      </trkpt>
      <trkpt lat="45.18478" lon="6.36364">
        <ele>2413.1999511719</ele>
        <time>2014-01-11T09:15:36.000Z</time>
      </trkpt>
      <trkpt lat="45.18478" lon="6.36364">
        <ele>2413.1999511719</ele>
        <time>2014-01-11T09:15:38.000Z</time>
      </trkpt>
      <trkpt lat="45.18478" lon="6.36364">
        <ele>2413</ele>
        <time>2014-01-11T09:15:39.000Z</time>
      </trkpt>
      <trkpt lat="45.18478" lon="6.36364">
        <ele>2413.1999511719</ele>
        <time>2014-01-11T09:15:41.000Z</time>
      </trkpt>
      <trkpt lat="45.18478" lon="6.36364">
        <ele>2413.1999511719</ele>
        <time>2014-01-11T09:15:42.000Z</time>
      </trkpt>
      <trkpt lat="45.18478" lon="6.36364">
        <ele>2413.1999511719</ele>
        <time>2014-01-11T09:15:44.000Z</time>
      </trkpt>
      <trkpt lat="45.18478" lon="6.36364">
        <ele>2413</ele>
        <time>2014-01-11T09:15:45.000Z</time>
      </trkpt>
      <trkpt lat="45.18478" lon="6.36364">
        <ele>2413</ele>
        <time>2014-01-11T09:15:46.000Z</time>
      </trkpt>
      <trkpt lat="45.18478" lon="6.36364">
        <ele>2413</ele>
        <time>2014-01-11T09:15:47.000Z</time>
      </trkpt>
      <trkpt lat="45.18478" lon="6.36364">
        <ele>2413</ele>
        <time>2014-01-11T09:15:48.000Z</time>
      </trkpt>
      <trkpt lat="45.18478" lon="6.36364">
        <ele>2413</ele>
        <time>2014-01-11T09:15:49.000Z</time>
      </trkpt>
      <trkpt lat="45.18478" lon="6.36364">
        <ele>2413</ele>
        <time>2014-01-11T09:15:50.000Z</time>
      </trkpt>
      <trkpt lat="45.18478" lon="6.36364">
        <ele>2413.1999511719</ele>
        <time>2014-01-11T09:15:51.000Z</time>
      </trkpt>
      <trkpt lat="45.18478" lon="6.36364">
        <ele>2413.1999511719</ele>
        <time>2014-01-11T09:15:52.000Z</time>
      </trkpt>
      <trkpt lat="45.18478" lon="6.36364">
        <ele>2413.1999511719</ele>
        <time>2014-01-11T09:15:53.000Z</time>
      </trkpt>
      <trkpt lat="45.18478" lon="6.36364">
        <ele>2413.1999511719</ele>
        <time>2014-01-11T09:15:54.000Z</time>
      </trkpt>
      <trkpt lat="45.18478" lon="6.36364">
        <ele>2413.1999511719</ele>
        <time>2014-01-11T09:15:55.000Z</time>
      </trkpt>
      <trkpt lat="45.18478" lon="6.36364">
        <ele>2413</ele>
        <time>2014-01-11T09:15:56.000Z</time>
      </trkpt>
      <trkpt lat="45.18478" lon="6.36364">
        <ele>2413</ele>
        <time>2014-01-11T09:15:57.000Z</time>
      </trkpt>
      <trkpt lat="45.18478" lon="6.36364">
        <ele>2413</ele>
        <time>2014-01-11T09:15:58.000Z</time>
      </trkpt>
      <trkpt lat="45.18478" lon="6.36364">
        <ele>2412.8000488281</ele>
        <time>2014-01-11T09:15:59.000Z</time>
      </trkpt>
      <trkpt lat="45.18478" lon="6.36364">
        <ele>2412.8000488281</ele>
        <time>2014-01-11T09:16:00.000Z</time>
      </trkpt>
      <trkpt lat="45.18478" lon="6.36364">
        <ele>2412.8000488281</ele>
        <time>2014-01-11T09:16:01.000Z</time>
      </trkpt>
      <trkpt lat="45.18478" lon="6.36364">
        <ele>2412.8000488281</ele>
        <time>2014-01-11T09:16:02.000Z</time>
      </trkpt>
      <trkpt lat="45.18478" lon="6.36364">
        <ele>2413</ele>
        <time>2014-01-11T09:16:03.000Z</time>
      </trkpt>
      <trkpt lat="45.18478" lon="6.36364">
        <ele>2413</ele>
        <time>2014-01-11T09:16:04.000Z</time>
      </trkpt>
      <trkpt lat="45.18478" lon="6.36364">
        <ele>2413</ele>
        <time>2014-01-11T09:16:05.000Z</time>
      </trkpt>
      <trkpt lat="45.18478" lon="6.36364">
        <ele>2413.1999511719</ele>
        <time>2014-01-11T09:16:06.000Z</time>
      </trkpt>
      <trkpt lat="45.18478" lon="6.36364">
        <ele>2413</ele>
        <time>2014-01-11T09:16:07.000Z</time>
      </trkpt>
      <trkpt lat="45.18478" lon="6.36364">
        <ele>2413</ele>
        <time>2014-01-11T09:16:08.000Z</time>
      </trkpt>
      <trkpt lat="45.18478" lon="6.36364">
        <ele>2413</ele>
        <time>2014-01-11T09:16:09.000Z</time>
      </trkpt>
      <trkpt lat="45.18478" lon="6.36364">
        <ele>2413</ele>
        <time>2014-01-11T09:16:10.000Z</time>
      </trkpt>
      <trkpt lat="45.18478" lon="6.36364">
        <ele>2413</ele>
        <time>2014-01-11T09:16:11.000Z</time>
      </trkpt>
      <trkpt lat="45.18478" lon="6.36364">
        <ele>2413</ele>
        <time>2014-01-11T09:16:12.000Z</time>
      </trkpt>
      <trkpt lat="45.18478" lon="6.36364">
        <ele>2413</ele>
        <time>2014-01-11T09:16:13.000Z</time>
      </trkpt>
      <trkpt lat="45.18478" lon="6.36364">
        <ele>2413</ele>
        <time>2014-01-11T09:16:16.000Z</time>
      </trkpt>
      <trkpt lat="45.18478" lon="6.36364">
        <ele>2413</ele>
        <time>2014-01-11T09:16:17.000Z</time>
      </trkpt>
      <trkpt lat="45.18478" lon="6.36364">
        <ele>2413</ele>
        <time>2014-01-11T09:16:18.000Z</time>
      </trkpt>
      <trkpt lat="45.18478" lon="6.36364">
        <ele>2413</ele>
        <time>2014-01-11T09:16:19.000Z</time>
      </trkpt>
      <trkpt lat="45.18478" lon="6.36364">
        <ele>2413</ele>
        <time>2014-01-11T09:16:21.000Z</time>
      </trkpt>
      <trkpt lat="45.18478" lon="6.36364">
        <ele>2413</ele>
        <time>2014-01-11T09:16:22.000Z</time>
      </trkpt>
      <trkpt lat="45.18478" lon="6.36364">
        <ele>2413</ele>
        <time>2014-01-11T09:16:23.000Z</time>
      </trkpt>
      <trkpt lat="45.18478" lon="6.36364">
        <ele>2413</ele>
        <time>2014-01-11T09:16:24.000Z</time>
      </trkpt>
      <trkpt lat="45.18478" lon="6.36364">
        <ele>2412.8000488281</ele>
        <time>2014-01-11T09:16:25.000Z</time>
      </trkpt>
      <trkpt lat="45.18478" lon="6.36364">
        <ele>2412.8000488281</ele>
        <time>2014-01-11T09:16:26.000Z</time>
      </trkpt>
      <trkpt lat="45.18478" lon="6.36364">
        <ele>2412.8000488281</ele>
        <time>2014-01-11T09:16:27.000Z</time>
      </trkpt>
      <trkpt lat="45.18478" lon="6.36364">
        <ele>2412.8000488281</ele>
        <time>2014-01-11T09:16:28.000Z</time>
      </trkpt>
      <trkpt lat="45.18478" lon="6.36364">
        <ele>2412.8000488281</ele>
        <time>2014-01-11T09:16:29.000Z</time>
      </trkpt>
      <trkpt lat="45.18478" lon="6.36364">
        <ele>2412.8000488281</ele>
        <time>2014-01-11T09:16:30.000Z</time>
      </trkpt>
      <trkpt lat="45.18478" lon="6.36364">
        <ele>2412.8000488281</ele>
        <time>2014-01-11T09:16:31.000Z</time>
      </trkpt>
      <trkpt lat="45.18478" lon="6.36364">
        <ele>2412.8000488281</ele>
        <time>2014-01-11T09:16:32.000Z</time>
      </trkpt>
      <trkpt lat="45.18478" lon="6.36364">
        <ele>2412.8000488281</ele>
        <time>2014-01-11T09:16:34.000Z</time>
      </trkpt>
      <trkpt lat="45.18478" lon="6.36364">
        <ele>2412.8000488281</ele>
        <time>2014-01-11T09:16:35.000Z</time>
      </trkpt>
      <trkpt lat="45.18478" lon="6.36364">
        <ele>2412.8000488281</ele>
        <time>2014-01-11T09:16:36.000Z</time>
      </trkpt>
      <trkpt lat="45.18478" lon="6.36364">
        <ele>2412.8000488281</ele>
        <time>2014-01-11T09:16:37.000Z</time>
      </trkpt>
      <trkpt lat="45.18478" lon="6.36364">
        <ele>2413</ele>
        <time>2014-01-11T09:16:38.000Z</time>
      </trkpt>
      <trkpt lat="45.18478" lon="6.36364">
        <ele>2413</ele>
        <time>2014-01-11T09:16:39.000Z</time>
      </trkpt>
      <trkpt lat="45.18477" lon="6.36364">
        <ele>2413.1999511719</ele>
        <time>2014-01-11T09:16:40.000Z</time>
      </trkpt>
      <trkpt lat="45.18477" lon="6.36364">
        <ele>2413.1999511719</ele>
        <time>2014-01-11T09:16:41.000Z</time>
      </trkpt>
      <trkpt lat="45.18477" lon="6.36365">
        <ele>2413.3999023438</ele>
        <time>2014-01-11T09:16:42.000Z</time>
      </trkpt>
      <trkpt lat="45.18477" lon="6.36365">
        <ele>2413.6000976562</ele>
        <time>2014-01-11T09:16:43.000Z</time>
      </trkpt>
      <trkpt lat="45.18476" lon="6.36366">
        <ele>2413.6000976562</ele>
        <time>2014-01-11T09:16:44.000Z</time>
      </trkpt>
      <trkpt lat="45.18476" lon="6.36366">
        <ele>2413.8000488281</ele>
        <time>2014-01-11T09:16:45.000Z</time>
      </trkpt>
      <trkpt lat="45.18476" lon="6.36367">
        <ele>2414</ele>
        <time>2014-01-11T09:16:46.000Z</time>
      </trkpt>
      <trkpt lat="45.18475" lon="6.36367">
        <ele>2414.1999511719</ele>
        <time>2014-01-11T09:16:47.000Z</time>
      </trkpt>
      <trkpt lat="45.18475" lon="6.36368">
        <ele>2414.3999023438</ele>
        <time>2014-01-11T09:16:48.000Z</time>
      </trkpt>
      <trkpt lat="45.18474" lon="6.36369">
        <ele>2414.6000976562</ele>
        <time>2014-01-11T09:16:49.000Z</time>
      </trkpt>
      <trkpt lat="45.18473" lon="6.3637">
        <ele>2415</ele>
        <time>2014-01-11T09:16:50.000Z</time>
      </trkpt>
      <trkpt lat="45.18473" lon="6.3637">
        <ele>2415.1999511719</ele>
        <time>2014-01-11T09:16:51.000Z</time>
      </trkpt>
      <trkpt lat="45.18472" lon="6.3637">
        <ele>2415.3999023438</ele>
        <time>2014-01-11T09:16:52.000Z</time>
      </trkpt>
      <trkpt lat="45.18471" lon="6.36371">
        <ele>2415.8000488281</ele>
        <time>2014-01-11T09:16:53.000Z</time>
      </trkpt>
      <trkpt lat="45.18471" lon="6.36371">
        <ele>2416.1999511719</ele>
        <time>2014-01-11T09:16:54.000Z</time>
      </trkpt>
      <trkpt lat="45.18471" lon="6.36372">
        <ele>2416.3999023438</ele>
        <time>2014-01-11T09:16:55.000Z</time>
      </trkpt>
      <trkpt lat="45.18471" lon="6.36372">
        <ele>2416.6000976562</ele>
        <time>2014-01-11T09:16:56.000Z</time>
      </trkpt>
      <trkpt lat="45.18471" lon="6.36372">
        <ele>2416.8000488281</ele>
        <time>2014-01-11T09:16:57.000Z</time>
      </trkpt>
      <trkpt lat="45.18472" lon="6.36373">
        <ele>2417</ele>
        <time>2014-01-11T09:16:58.000Z</time>
      </trkpt>
      <trkpt lat="45.18472" lon="6.36374">
        <ele>2417.1999511719</ele>
        <time>2014-01-11T09:16:59.000Z</time>
      </trkpt>
      <trkpt lat="45.18472" lon="6.36375">
        <ele>2417.3999023438</ele>
        <time>2014-01-11T09:17:00.000Z</time>
      </trkpt>
      <trkpt lat="45.18473" lon="6.36376">
        <ele>2417.3999023438</ele>
        <time>2014-01-11T09:17:01.000Z</time>
      </trkpt>
      <trkpt lat="45.18473" lon="6.36377">
        <ele>2417.6000976562</ele>
        <time>2014-01-11T09:17:02.000Z</time>
      </trkpt>
      <trkpt lat="45.18474" lon="6.36377">
        <ele>2417.8000488281</ele>
        <time>2014-01-11T09:17:03.000Z</time>
      </trkpt>
      <trkpt lat="45.18474" lon="6.36377">
        <ele>2418</ele>
        <time>2014-01-11T09:17:04.000Z</time>
      </trkpt>
      <trkpt lat="45.18474" lon="6.36377">
        <ele>2418.1999511719</ele>
        <time>2014-01-11T09:17:05.000Z</time>
      </trkpt>
      <trkpt lat="45.18474" lon="6.36377">
        <ele>2418.6000976562</ele>
        <time>2014-01-11T09:17:06.000Z</time>
      </trkpt>
      <trkpt lat="45.18474" lon="6.36377">
        <ele>2418.6000976562</ele>
        <time>2014-01-11T09:17:07.000Z</time>
      </trkpt>
      <trkpt lat="45.18474" lon="6.36377">
        <ele>2418.8000488281</ele>
        <time>2014-01-11T09:17:08.000Z</time>
      </trkpt>
      <trkpt lat="45.18474" lon="6.36377">
        <ele>2418.8000488281</ele>
        <time>2014-01-11T09:17:09.000Z</time>
      </trkpt>
      <trkpt lat="45.18474" lon="6.36377">
        <ele>2418.8000488281</ele>
        <time>2014-01-11T09:17:10.000Z</time>
      </trkpt>
      <trkpt lat="45.18474" lon="6.36377">
        <ele>2418.8000488281</ele>
        <time>2014-01-11T09:17:11.000Z</time>
      </trkpt>
      <trkpt lat="45.18474" lon="6.36377">
        <ele>2418.8000488281</ele>
        <time>2014-01-11T09:17:13.000Z</time>
      </trkpt>
      <trkpt lat="45.18474" lon="6.36377">
        <ele>2419</ele>
        <time>2014-01-11T09:17:14.000Z</time>
      </trkpt>
      <trkpt lat="45.18474" lon="6.36377">
        <ele>2418.8000488281</ele>
        <time>2014-01-11T09:17:15.000Z</time>
      </trkpt>
      <trkpt lat="45.18474" lon="6.36377">
        <ele>2418.8000488281</ele>
        <time>2014-01-11T09:17:16.000Z</time>
      </trkpt>
      <trkpt lat="45.18474" lon="6.36377">
        <ele>2418.8000488281</ele>
        <time>2014-01-11T09:17:17.000Z</time>
      </trkpt>
      <trkpt lat="45.18474" lon="6.36377">
        <ele>2418.8000488281</ele>
        <time>2014-01-11T09:17:18.000Z</time>
      </trkpt>
      <trkpt lat="45.18474" lon="6.36377">
        <ele>2418.8000488281</ele>
        <time>2014-01-11T09:17:19.000Z</time>
      </trkpt>
      <trkpt lat="45.18474" lon="6.36377">
        <ele>2418.8000488281</ele>
        <time>2014-01-11T09:17:20.000Z</time>
      </trkpt>
      <trkpt lat="45.18474" lon="6.36378">
        <ele>2418.8000488281</ele>
        <time>2014-01-11T09:17:21.000Z</time>
      </trkpt>
      <trkpt lat="45.18474" lon="6.3638">
        <ele>2418.8000488281</ele>
        <time>2014-01-11T09:17:23.000Z</time>
      </trkpt>
      <trkpt lat="45.18475" lon="6.3638">
        <ele>2418.8000488281</ele>
        <time>2014-01-11T09:17:24.000Z</time>
      </trkpt>
      <trkpt lat="45.18475" lon="6.36381">
        <ele>2419</ele>
        <time>2014-01-11T09:17:25.000Z</time>
      </trkpt>
      <trkpt lat="45.18476" lon="6.36382">
        <ele>2419.3999023438</ele>
        <time>2014-01-11T09:17:26.000Z</time>
      </trkpt>
      <trkpt lat="45.18476" lon="6.36382">
        <ele>2419.6000976562</ele>
        <time>2014-01-11T09:17:27.000Z</time>
      </trkpt>
      <trkpt lat="45.18477" lon="6.36384">
        <ele>2419.8000488281</ele>
        <time>2014-01-11T09:17:28.000Z</time>
      </trkpt>
      <trkpt lat="45.18477" lon="6.36384">
        <ele>2420</ele>
        <time>2014-01-11T09:17:29.000Z</time>
      </trkpt>
      <trkpt lat="45.18477" lon="6.36384">
        <ele>2420.1999511719</ele>
        <time>2014-01-11T09:17:30.000Z</time>
      </trkpt>
      <trkpt lat="45.18477" lon="6.36385">
        <ele>2420.6000976562</ele>
        <time>2014-01-11T09:17:31.000Z</time>
      </trkpt>
      <trkpt lat="45.18478" lon="6.36386">
        <ele>2420.8000488281</ele>
        <time>2014-01-11T09:17:32.000Z</time>
      </trkpt>
      <trkpt lat="45.18478" lon="6.36387">
        <ele>2421</ele>
        <time>2014-01-11T09:17:33.000Z</time>
      </trkpt>
      <trkpt lat="45.18478" lon="6.36387">
        <ele>2421.1999511719</ele>
        <time>2014-01-11T09:17:34.000Z</time>
      </trkpt>
      <trkpt lat="45.18479" lon="6.36388">
        <ele>2421.3999023438</ele>
        <time>2014-01-11T09:17:35.000Z</time>
      </trkpt>
      <trkpt lat="45.18479" lon="6.36389">
        <ele>2421.6000976562</ele>
        <time>2014-01-11T09:17:36.000Z</time>
      </trkpt>
      <trkpt lat="45.18479" lon="6.36389">
        <ele>2422</ele>
        <time>2014-01-11T09:17:37.000Z</time>
      </trkpt>
      <trkpt lat="45.1848" lon="6.3639">
        <ele>2422</ele>
        <time>2014-01-11T09:17:38.000Z</time>
      </trkpt>
      <trkpt lat="45.1848" lon="6.3639">
        <ele>2422.3999023438</ele>
        <time>2014-01-11T09:17:39.000Z</time>
      </trkpt>
      <trkpt lat="45.18481" lon="6.36392">
        <ele>2422.6000976562</ele>
        <time>2014-01-11T09:17:40.000Z</time>
      </trkpt>
      <trkpt lat="45.18481" lon="6.36392">
        <ele>2422.8000488281</ele>
        <time>2014-01-11T09:17:41.000Z</time>
      </trkpt>
      <trkpt lat="45.18481" lon="6.36393">
        <ele>2423.3999023438</ele>
        <time>2014-01-11T09:17:42.000Z</time>
      </trkpt>
      <trkpt lat="45.18481" lon="6.36394">
        <ele>2423.6000976562</ele>
        <time>2014-01-11T09:17:43.000Z</time>
      </trkpt>
      <trkpt lat="45.18481" lon="6.36395">
        <ele>2423.8000488281</ele>
        <time>2014-01-11T09:17:44.000Z</time>
      </trkpt>
      <trkpt lat="45.18482" lon="6.36396">
        <ele>2424</ele>
        <time>2014-01-11T09:17:45.000Z</time>
      </trkpt>
      <trkpt lat="45.18482" lon="6.36396">
        <ele>2424.1999511719</ele>
        <time>2014-01-11T09:17:46.000Z</time>
      </trkpt>
      <trkpt lat="45.18483" lon="6.36397">
        <ele>2424.3999023438</ele>
        <time>2014-01-11T09:17:47.000Z</time>
      </trkpt>
      <trkpt lat="45.18483" lon="6.36397">
        <ele>2424.6000976562</ele>
        <time>2014-01-11T09:17:48.000Z</time>
      </trkpt>
      <trkpt lat="45.18484" lon="6.36398">
        <ele>2424.8000488281</ele>
        <time>2014-01-11T09:17:49.000Z</time>
      </trkpt>
      <trkpt lat="45.18484" lon="6.36398">
        <ele>2425.1999511719</ele>
        <time>2014-01-11T09:17:50.000Z</time>
      </trkpt>
      <trkpt lat="45.18484" lon="6.36398">
        <ele>2425.3999023438</ele>
        <time>2014-01-11T09:17:51.000Z</time>
      </trkpt>
      <trkpt lat="45.18484" lon="6.36399">
        <ele>2425.6000976562</ele>
        <time>2014-01-11T09:17:52.000Z</time>
      </trkpt>
      <trkpt lat="45.18485" lon="6.36399">
        <ele>2425.8000488281</ele>
        <time>2014-01-11T09:17:53.000Z</time>
      </trkpt>
      <trkpt lat="45.18485" lon="6.364">
        <ele>2426</ele>
        <time>2014-01-11T09:17:54.000Z</time>
      </trkpt>
      <trkpt lat="45.18485" lon="6.36401">
        <ele>2426.1999511719</ele>
        <time>2014-01-11T09:17:55.000Z</time>
      </trkpt>
      <trkpt lat="45.18485" lon="6.36401">
        <ele>2426.3999023438</ele>
        <time>2014-01-11T09:17:56.000Z</time>
      </trkpt>
      <trkpt lat="45.18485" lon="6.36401">
        <ele>2426.6000976562</ele>
        <time>2014-01-11T09:17:57.000Z</time>
      </trkpt>
      <trkpt lat="45.18485" lon="6.36401">
        <ele>2426.8000488281</ele>
        <time>2014-01-11T09:17:58.000Z</time>
      </trkpt>
      <trkpt lat="45.18486" lon="6.36402">
        <ele>2427</ele>
        <time>2014-01-11T09:17:59.000Z</time>
      </trkpt>
      <trkpt lat="45.18486" lon="6.36403">
        <ele>2427.1999511719</ele>
        <time>2014-01-11T09:18:00.000Z</time>
      </trkpt>
      <trkpt lat="45.18486" lon="6.36403">
        <ele>2427.3999023438</ele>
        <time>2014-01-11T09:18:01.000Z</time>
      </trkpt>
      <trkpt lat="45.18487" lon="6.36404">
        <ele>2427.6000976562</ele>
        <time>2014-01-11T09:18:02.000Z</time>
      </trkpt>
      <trkpt lat="45.18488" lon="6.36406">
        <ele>2427.8000488281</ele>
        <time>2014-01-11T09:18:03.000Z</time>
      </trkpt>
      <trkpt lat="45.18487" lon="6.36406">
        <ele>2428</ele>
        <time>2014-01-11T09:18:04.000Z</time>
      </trkpt>
      <trkpt lat="45.18487" lon="6.36406">
        <ele>2428.1999511719</ele>
        <time>2014-01-11T09:18:05.000Z</time>
      </trkpt>
      <trkpt lat="45.18487" lon="6.36407">
        <ele>2428.6000976562</ele>
        <time>2014-01-11T09:18:06.000Z</time>
      </trkpt>
      <trkpt lat="45.18487" lon="6.36407">
        <ele>2428.8000488281</ele>
        <time>2014-01-11T09:18:07.000Z</time>
      </trkpt>
      <trkpt lat="45.18487" lon="6.36408">
        <ele>2429</ele>
        <time>2014-01-11T09:18:08.000Z</time>
      </trkpt>
      <trkpt lat="45.18488" lon="6.36409">
        <ele>2429.1999511719</ele>
        <time>2014-01-11T09:18:09.000Z</time>
      </trkpt>
      <trkpt lat="45.18488" lon="6.3641">
        <ele>2429.3999023438</ele>
        <time>2014-01-11T09:18:10.000Z</time>
      </trkpt>
      <trkpt lat="45.18488" lon="6.36411">
        <ele>2429.6000976562</ele>
        <time>2014-01-11T09:18:11.000Z</time>
      </trkpt>
      <trkpt lat="45.18489" lon="6.36413">
        <ele>2429.8000488281</ele>
        <time>2014-01-11T09:18:12.000Z</time>
      </trkpt>
      <trkpt lat="45.18489" lon="6.36413">
        <ele>2430</ele>
        <time>2014-01-11T09:18:13.000Z</time>
      </trkpt>
      <trkpt lat="45.18489" lon="6.36413">
        <ele>2430.1999511719</ele>
        <time>2014-01-11T09:18:14.000Z</time>
      </trkpt>
      <trkpt lat="45.18489" lon="6.36414">
        <ele>2430.3999023438</ele>
        <time>2014-01-11T09:18:15.000Z</time>
      </trkpt>
      <trkpt lat="45.18489" lon="6.36414">
        <ele>2430.3999023438</ele>
        <time>2014-01-11T09:18:16.000Z</time>
      </trkpt>
      <trkpt lat="45.1849" lon="6.36414">
        <ele>2430.6000976562</ele>
        <time>2014-01-11T09:18:17.000Z</time>
      </trkpt>
      <trkpt lat="45.1849" lon="6.36414">
        <ele>2430.8000488281</ele>
        <time>2014-01-11T09:18:18.000Z</time>
      </trkpt>
      <trkpt lat="45.1849" lon="6.36415">
        <ele>2431</ele>
        <time>2014-01-11T09:18:19.000Z</time>
      </trkpt>
      <trkpt lat="45.1849" lon="6.36415">
        <ele>2431.1999511719</ele>
        <time>2014-01-11T09:18:20.000Z</time>
      </trkpt>
      <trkpt lat="45.1849" lon="6.36416">
        <ele>2431.3999023438</ele>
        <time>2014-01-11T09:18:21.000Z</time>
      </trkpt>
      <trkpt lat="45.1849" lon="6.36416">
        <ele>2431.6000976562</ele>
        <time>2014-01-11T09:18:22.000Z</time>
      </trkpt>
      <trkpt lat="45.1849" lon="6.36417">
        <ele>2431.8000488281</ele>
        <time>2014-01-11T09:18:23.000Z</time>
      </trkpt>
      <trkpt lat="45.18491" lon="6.36417">
        <ele>2432</ele>
        <time>2014-01-11T09:18:24.000Z</time>
      </trkpt>
      <trkpt lat="45.18491" lon="6.36418">
        <ele>2432.1999511719</ele>
        <time>2014-01-11T09:18:25.000Z</time>
      </trkpt>
      <trkpt lat="45.18491" lon="6.36418">
        <ele>2432.1999511719</ele>
        <time>2014-01-11T09:18:26.000Z</time>
      </trkpt>
      <trkpt lat="45.18492" lon="6.36418">
        <ele>2432.3999023438</ele>
        <time>2014-01-11T09:18:27.000Z</time>
      </trkpt>
      <trkpt lat="45.18492" lon="6.36418">
        <ele>2432.6000976562</ele>
        <time>2014-01-11T09:18:28.000Z</time>
      </trkpt>
      <trkpt lat="45.18492" lon="6.36418">
        <ele>2432.8000488281</ele>
        <time>2014-01-11T09:18:29.000Z</time>
      </trkpt>
      <trkpt lat="45.18492" lon="6.36418">
        <ele>2433.1999511719</ele>
        <time>2014-01-11T09:18:30.000Z</time>
      </trkpt>
      <trkpt lat="45.18492" lon="6.36418">
        <ele>2433.1999511719</ele>
        <time>2014-01-11T09:18:31.000Z</time>
      </trkpt>
      <trkpt lat="45.18492" lon="6.36418">
        <ele>2433.1999511719</ele>
        <time>2014-01-11T09:18:32.000Z</time>
      </trkpt>
      <trkpt lat="45.18492" lon="6.36418">
        <ele>2433.3999023438</ele>
        <time>2014-01-11T09:18:33.000Z</time>
      </trkpt>
      <trkpt lat="45.18492" lon="6.36418">
        <ele>2433.3999023438</ele>
        <time>2014-01-11T09:18:34.000Z</time>
      </trkpt>
      <trkpt lat="45.18492" lon="6.36418">
        <ele>2433.3999023438</ele>
        <time>2014-01-11T09:18:35.000Z</time>
      </trkpt>
      <trkpt lat="45.18492" lon="6.36418">
        <ele>2433.3999023438</ele>
        <time>2014-01-11T09:18:36.000Z</time>
      </trkpt>
      <trkpt lat="45.18492" lon="6.36418">
        <ele>2433.3999023438</ele>
        <time>2014-01-11T09:18:37.000Z</time>
      </trkpt>
      <trkpt lat="45.18492" lon="6.36418">
        <ele>2433.3999023438</ele>
        <time>2014-01-11T09:18:38.000Z</time>
      </trkpt>
      <trkpt lat="45.18492" lon="6.36418">
        <ele>2433.6000976562</ele>
        <time>2014-01-11T09:18:39.000Z</time>
      </trkpt>
      <trkpt lat="45.18492" lon="6.36418">
        <ele>2433.6000976562</ele>
        <time>2014-01-11T09:18:40.000Z</time>
      </trkpt>
      <trkpt lat="45.18492" lon="6.36419">
        <ele>2433.6000976562</ele>
        <time>2014-01-11T09:18:41.000Z</time>
      </trkpt>
      <trkpt lat="45.18492" lon="6.36419">
        <ele>2433.6000976562</ele>
        <time>2014-01-11T09:18:42.000Z</time>
      </trkpt>
      <trkpt lat="45.18492" lon="6.36419">
        <ele>2433.8000488281</ele>
        <time>2014-01-11T09:18:43.000Z</time>
      </trkpt>
      <trkpt lat="45.18493" lon="6.3642">
        <ele>2433.8000488281</ele>
        <time>2014-01-11T09:18:44.000Z</time>
      </trkpt>
      <trkpt lat="45.18493" lon="6.36421">
        <ele>2433.8000488281</ele>
        <time>2014-01-11T09:18:45.000Z</time>
      </trkpt>
      <trkpt lat="45.18494" lon="6.36422">
        <ele>2434</ele>
        <time>2014-01-11T09:18:46.000Z</time>
      </trkpt>
      <trkpt lat="45.18494" lon="6.36422">
        <ele>2434</ele>
        <time>2014-01-11T09:18:47.000Z</time>
      </trkpt>
      <trkpt lat="45.18494" lon="6.36422">
        <ele>2434.1999511719</ele>
        <time>2014-01-11T09:18:48.000Z</time>
      </trkpt>
      <trkpt lat="45.18494" lon="6.36422">
        <ele>2434.3999023438</ele>
        <time>2014-01-11T09:18:49.000Z</time>
      </trkpt>
      <trkpt lat="45.18494" lon="6.36423">
        <ele>2434.6000976562</ele>
        <time>2014-01-11T09:18:50.000Z</time>
      </trkpt>
      <trkpt lat="45.18494" lon="6.36423">
        <ele>2434.8000488281</ele>
        <time>2014-01-11T09:18:51.000Z</time>
      </trkpt>
      <trkpt lat="45.18495" lon="6.36424">
        <ele>2435</ele>
        <time>2014-01-11T09:18:52.000Z</time>
      </trkpt>
      <trkpt lat="45.18496" lon="6.36426">
        <ele>2435</ele>
        <time>2014-01-11T09:18:53.000Z</time>
      </trkpt>
      <trkpt lat="45.18497" lon="6.36427">
        <ele>2435.1999511719</ele>
        <time>2014-01-11T09:18:54.000Z</time>
      </trkpt>
      <trkpt lat="45.18497" lon="6.36427">
        <ele>2435.6000976562</ele>
        <time>2014-01-11T09:18:55.000Z</time>
      </trkpt>
      <trkpt lat="45.18498" lon="6.36428">
        <ele>2436</ele>
        <time>2014-01-11T09:18:56.000Z</time>
      </trkpt>
      <trkpt lat="45.18498" lon="6.36428">
        <ele>2436.1999511719</ele>
        <time>2014-01-11T09:18:57.000Z</time>
      </trkpt>
      <trkpt lat="45.18498" lon="6.36428">
        <ele>2436.3999023438</ele>
        <time>2014-01-11T09:18:58.000Z</time>
      </trkpt>
      <trkpt lat="45.18498" lon="6.36429">
        <ele>2436.6000976562</ele>
        <time>2014-01-11T09:18:59.000Z</time>
      </trkpt>
      <trkpt lat="45.18498" lon="6.36429">
        <ele>2436.8000488281</ele>
        <time>2014-01-11T09:19:00.000Z</time>
      </trkpt>
      <trkpt lat="45.18499" lon="6.3643">
        <ele>2437</ele>
        <time>2014-01-11T09:19:01.000Z</time>
      </trkpt>
      <trkpt lat="45.18499" lon="6.3643">
        <ele>2437.1999511719</ele>
        <time>2014-01-11T09:19:02.000Z</time>
      </trkpt>
      <trkpt lat="45.185" lon="6.36431">
        <ele>2437.3999023438</ele>
        <time>2014-01-11T09:19:03.000Z</time>
      </trkpt>
      <trkpt lat="45.185" lon="6.36431">
        <ele>2437.6000976562</ele>
        <time>2014-01-11T09:19:04.000Z</time>
      </trkpt>
      <trkpt lat="45.18501" lon="6.36432">
        <ele>2438</ele>
        <time>2014-01-11T09:19:05.000Z</time>
      </trkpt>
      <trkpt lat="45.18502" lon="6.36433">
        <ele>2438.1999511719</ele>
        <time>2014-01-11T09:19:06.000Z</time>
      </trkpt>
      <trkpt lat="45.18502" lon="6.36434">
        <ele>2438.3999023438</ele>
        <time>2014-01-11T09:19:07.000Z</time>
      </trkpt>
      <trkpt lat="45.18502" lon="6.36434">
        <ele>2438.6000976562</ele>
        <time>2014-01-11T09:19:08.000Z</time>
      </trkpt>
      <trkpt lat="45.18502" lon="6.36435">
        <ele>2439</ele>
        <time>2014-01-11T09:19:09.000Z</time>
      </trkpt>
      <trkpt lat="45.18502" lon="6.36435">
        <ele>2439.1999511719</ele>
        <time>2014-01-11T09:19:10.000Z</time>
      </trkpt>
      <trkpt lat="45.18502" lon="6.36435">
        <ele>2439.3999023438</ele>
        <time>2014-01-11T09:19:11.000Z</time>
      </trkpt>
      <trkpt lat="45.18502" lon="6.36436">
        <ele>2439.6000976562</ele>
        <time>2014-01-11T09:19:12.000Z</time>
      </trkpt>
      <trkpt lat="45.18502" lon="6.36436">
        <ele>2439.8000488281</ele>
        <time>2014-01-11T09:19:13.000Z</time>
      </trkpt>
      <trkpt lat="45.18503" lon="6.36436">
        <ele>2440</ele>
        <time>2014-01-11T09:19:14.000Z</time>
      </trkpt>
      <trkpt lat="45.18503" lon="6.36436">
        <ele>2440.3999023438</ele>
        <time>2014-01-11T09:19:15.000Z</time>
      </trkpt>
      <trkpt lat="45.18503" lon="6.36437">
        <ele>2440.6000976562</ele>
        <time>2014-01-11T09:19:16.000Z</time>
      </trkpt>
      <trkpt lat="45.18504" lon="6.36438">
        <ele>2440.8000488281</ele>
        <time>2014-01-11T09:19:17.000Z</time>
      </trkpt>
      <trkpt lat="45.18505" lon="6.3644">
        <ele>2441</ele>
        <time>2014-01-11T09:19:18.000Z</time>
      </trkpt>
      <trkpt lat="45.18505" lon="6.3644">
        <ele>2441.3999023438</ele>
        <time>2014-01-11T09:19:19.000Z</time>
      </trkpt>
      <trkpt lat="45.18505" lon="6.36441">
        <ele>2441.6000976562</ele>
        <time>2014-01-11T09:19:20.000Z</time>
      </trkpt>
      <trkpt lat="45.18505" lon="6.36441">
        <ele>2441.8000488281</ele>
        <time>2014-01-11T09:19:21.000Z</time>
      </trkpt>
      <trkpt lat="45.18505" lon="6.36441">
        <ele>2442.1999511719</ele>
        <time>2014-01-11T09:19:22.000Z</time>
      </trkpt>
      <trkpt lat="45.18506" lon="6.36441">
        <ele>2442.3999023438</ele>
        <time>2014-01-11T09:19:23.000Z</time>
      </trkpt>
      <trkpt lat="45.18506" lon="6.36442">
        <ele>2442.6000976562</ele>
        <time>2014-01-11T09:19:24.000Z</time>
      </trkpt>
      <trkpt lat="45.18507" lon="6.36442">
        <ele>2442.8000488281</ele>
        <time>2014-01-11T09:19:25.000Z</time>
      </trkpt>
      <trkpt lat="45.18507" lon="6.36442">
        <ele>2443.1999511719</ele>
        <time>2014-01-11T09:19:26.000Z</time>
      </trkpt>
      <trkpt lat="45.18507" lon="6.36442">
        <ele>2443.3999023438</ele>
        <time>2014-01-11T09:19:27.000Z</time>
      </trkpt>
      <trkpt lat="45.18507" lon="6.36442">
        <ele>2443.6000976562</ele>
        <time>2014-01-11T09:19:28.000Z</time>
      </trkpt>
      <trkpt lat="45.18507" lon="6.36444">
        <ele>2443.8000488281</ele>
        <time>2014-01-11T09:19:29.000Z</time>
      </trkpt>
      <trkpt lat="45.18507" lon="6.36444">
        <ele>2444</ele>
        <time>2014-01-11T09:19:30.000Z</time>
      </trkpt>
      <trkpt lat="45.18507" lon="6.36444">
        <ele>2444.1999511719</ele>
        <time>2014-01-11T09:19:31.000Z</time>
      </trkpt>
      <trkpt lat="45.18507" lon="6.36444">
        <ele>2444.3999023438</ele>
        <time>2014-01-11T09:19:32.000Z</time>
      </trkpt>
      <trkpt lat="45.18508" lon="6.36445">
        <ele>2444.6000976562</ele>
        <time>2014-01-11T09:19:33.000Z</time>
      </trkpt>
      <trkpt lat="45.18508" lon="6.36445">
        <ele>2444.8000488281</ele>
        <time>2014-01-11T09:19:34.000Z</time>
      </trkpt>
      <trkpt lat="45.18508" lon="6.36446">
        <ele>2445</ele>
        <time>2014-01-11T09:19:35.000Z</time>
      </trkpt>
      <trkpt lat="45.18508" lon="6.36446">
        <ele>2445.1999511719</ele>
        <time>2014-01-11T09:19:36.000Z</time>
      </trkpt>
      <trkpt lat="45.18509" lon="6.36447">
        <ele>2445.3999023438</ele>
        <time>2014-01-11T09:19:37.000Z</time>
      </trkpt>
      <trkpt lat="45.18509" lon="6.36447">
        <ele>2445.8000488281</ele>
        <time>2014-01-11T09:19:38.000Z</time>
      </trkpt>
      <trkpt lat="45.1851" lon="6.36448">
        <ele>2446</ele>
        <time>2014-01-11T09:19:39.000Z</time>
      </trkpt>
      <trkpt lat="45.1851" lon="6.36448">
        <ele>2446.3999023438</ele>
        <time>2014-01-11T09:19:40.000Z</time>
      </trkpt>
      <trkpt lat="45.1851" lon="6.36448">
        <ele>2446.6000976562</ele>
        <time>2014-01-11T09:19:41.000Z</time>
      </trkpt>
      <trkpt lat="45.18511" lon="6.36449">
        <ele>2446.8000488281</ele>
        <time>2014-01-11T09:19:42.000Z</time>
      </trkpt>
      <trkpt lat="45.18511" lon="6.36449">
        <ele>2447.1999511719</ele>
        <time>2014-01-11T09:19:43.000Z</time>
      </trkpt>
      <trkpt lat="45.18511" lon="6.36449">
        <ele>2447.3999023438</ele>
        <time>2014-01-11T09:19:44.000Z</time>
      </trkpt>
      <trkpt lat="45.18511" lon="6.36449">
        <ele>2447.6000976562</ele>
        <time>2014-01-11T09:19:45.000Z</time>
      </trkpt>
      <trkpt lat="45.18511" lon="6.36449">
        <ele>2447.8000488281</ele>
        <time>2014-01-11T09:19:46.000Z</time>
      </trkpt>
      <trkpt lat="45.1851" lon="6.3645">
        <ele>2447.8000488281</ele>
        <time>2014-01-11T09:19:47.000Z</time>
      </trkpt>
      <trkpt lat="45.1851" lon="6.36451">
        <ele>2448</ele>
        <time>2014-01-11T09:19:48.000Z</time>
      </trkpt>
      <trkpt lat="45.1851" lon="6.36451">
        <ele>2448</ele>
        <time>2014-01-11T09:19:49.000Z</time>
      </trkpt>
      <trkpt lat="45.1851" lon="6.36451">
        <ele>2448.1999511719</ele>
        <time>2014-01-11T09:19:50.000Z</time>
      </trkpt>
      <trkpt lat="45.1851" lon="6.36451">
        <ele>2448.1999511719</ele>
        <time>2014-01-11T09:19:51.000Z</time>
      </trkpt>
      <trkpt lat="45.1851" lon="6.36452">
        <ele>2448.3999023438</ele>
        <time>2014-01-11T09:19:52.000Z</time>
      </trkpt>
      <trkpt lat="45.1851" lon="6.36452">
        <ele>2448.3999023438</ele>
        <time>2014-01-11T09:19:53.000Z</time>
      </trkpt>
      <trkpt lat="45.1851" lon="6.36453">
        <ele>2448.6000976562</ele>
        <time>2014-01-11T09:19:54.000Z</time>
      </trkpt>
      <trkpt lat="45.1851" lon="6.36454">
        <ele>2448.8000488281</ele>
        <time>2014-01-11T09:19:55.000Z</time>
      </trkpt>
      <trkpt lat="45.1851" lon="6.36455">
        <ele>2449</ele>
        <time>2014-01-11T09:19:56.000Z</time>
      </trkpt>
      <trkpt lat="45.18509" lon="6.36457">
        <ele>2449.1999511719</ele>
        <time>2014-01-11T09:19:57.000Z</time>
      </trkpt>
      <trkpt lat="45.18509" lon="6.36457">
        <ele>2449.3999023438</ele>
        <time>2014-01-11T09:19:58.000Z</time>
      </trkpt>
      <trkpt lat="45.18509" lon="6.36457">
        <ele>2449.6000976562</ele>
        <time>2014-01-11T09:19:59.000Z</time>
      </trkpt>
      <trkpt lat="45.18509" lon="6.36458">
        <ele>2450</ele>
        <time>2014-01-11T09:20:00.000Z</time>
      </trkpt>
      <trkpt lat="45.18509" lon="6.36458">
        <ele>2450.1999511719</ele>
        <time>2014-01-11T09:20:01.000Z</time>
      </trkpt>
      <trkpt lat="45.18509" lon="6.36459">
        <ele>2450.3999023438</ele>
        <time>2014-01-11T09:20:02.000Z</time>
      </trkpt>
      <trkpt lat="45.18509" lon="6.36459">
        <ele>2450.6000976562</ele>
        <time>2014-01-11T09:20:03.000Z</time>
      </trkpt>
      <trkpt lat="45.18508" lon="6.36459">
        <ele>2451</ele>
        <time>2014-01-11T09:20:04.000Z</time>
      </trkpt>
      <trkpt lat="45.18508" lon="6.36459">
        <ele>2451.1999511719</ele>
        <time>2014-01-11T09:20:05.000Z</time>
      </trkpt>
      <trkpt lat="45.18508" lon="6.3646">
        <ele>2451.3999023438</ele>
        <time>2014-01-11T09:20:06.000Z</time>
      </trkpt>
      <trkpt lat="45.18508" lon="6.36461">
        <ele>2451.8000488281</ele>
        <time>2014-01-11T09:20:07.000Z</time>
      </trkpt>
      <trkpt lat="45.18507" lon="6.36462">
        <ele>2452</ele>
        <time>2014-01-11T09:20:08.000Z</time>
      </trkpt>
      <trkpt lat="45.18507" lon="6.36463">
        <ele>2452.1999511719</ele>
        <time>2014-01-11T09:20:09.000Z</time>
      </trkpt>
      <trkpt lat="45.18506" lon="6.36464">
        <ele>2452.3999023438</ele>
        <time>2014-01-11T09:20:10.000Z</time>
      </trkpt>
      <trkpt lat="45.18506" lon="6.36464">
        <ele>2452.6000976562</ele>
        <time>2014-01-11T09:20:11.000Z</time>
      </trkpt>
      <trkpt lat="45.18506" lon="6.36464">
        <ele>2452.8000488281</ele>
        <time>2014-01-11T09:20:12.000Z</time>
      </trkpt>
      <trkpt lat="45.18506" lon="6.36465">
        <ele>2453</ele>
        <time>2014-01-11T09:20:13.000Z</time>
      </trkpt>
      <trkpt lat="45.18505" lon="6.36467">
        <ele>2453.1999511719</ele>
        <time>2014-01-11T09:20:14.000Z</time>
      </trkpt>
      <trkpt lat="45.18505" lon="6.36467">
        <ele>2453.3999023438</ele>
        <time>2014-01-11T09:20:15.000Z</time>
      </trkpt>
      <trkpt lat="45.18505" lon="6.36467">
        <ele>2453.6000976562</ele>
        <time>2014-01-11T09:20:16.000Z</time>
      </trkpt>
      <trkpt lat="45.18505" lon="6.36467">
        <ele>2453.8000488281</ele>
        <time>2014-01-11T09:20:17.000Z</time>
      </trkpt>
      <trkpt lat="45.18505" lon="6.36467">
        <ele>2454</ele>
        <time>2014-01-11T09:20:18.000Z</time>
      </trkpt>
      <trkpt lat="45.18505" lon="6.36467">
        <ele>2454.1999511719</ele>
        <time>2014-01-11T09:20:19.000Z</time>
      </trkpt>
      <trkpt lat="45.18505" lon="6.36467">
        <ele>2454.3999023438</ele>
        <time>2014-01-11T09:20:20.000Z</time>
      </trkpt>
      <trkpt lat="45.18505" lon="6.36468">
        <ele>2454.6000976562</ele>
        <time>2014-01-11T09:20:21.000Z</time>
      </trkpt>
      <trkpt lat="45.18504" lon="6.3647">
        <ele>2454.6000976562</ele>
        <time>2014-01-11T09:20:22.000Z</time>
      </trkpt>
      <trkpt lat="45.18503" lon="6.36472">
        <ele>2454.8000488281</ele>
        <time>2014-01-11T09:20:23.000Z</time>
      </trkpt>
      <trkpt lat="45.18503" lon="6.36472">
        <ele>2455</ele>
        <time>2014-01-11T09:20:24.000Z</time>
      </trkpt>
      <trkpt lat="45.18502" lon="6.36474">
        <ele>2455.1999511719</ele>
        <time>2014-01-11T09:20:25.000Z</time>
      </trkpt>
      <trkpt lat="45.18503" lon="6.36474">
        <ele>2455.3999023438</ele>
        <time>2014-01-11T09:20:26.000Z</time>
      </trkpt>
      <trkpt lat="45.18503" lon="6.36474">
        <ele>2455.6000976562</ele>
        <time>2014-01-11T09:20:27.000Z</time>
      </trkpt>
      <trkpt lat="45.18502" lon="6.36475">
        <ele>2455.8000488281</ele>
        <time>2014-01-11T09:20:28.000Z</time>
      </trkpt>
      <trkpt lat="45.18502" lon="6.36476">
        <ele>2456</ele>
        <time>2014-01-11T09:20:29.000Z</time>
      </trkpt>
      <trkpt lat="45.18502" lon="6.36476">
        <ele>2456.1999511719</ele>
        <time>2014-01-11T09:20:30.000Z</time>
      </trkpt>
      <trkpt lat="45.18502" lon="6.36477">
        <ele>2456.6000976562</ele>
        <time>2014-01-11T09:20:31.000Z</time>
      </trkpt>
      <trkpt lat="45.18502" lon="6.36478">
        <ele>2456.8000488281</ele>
        <time>2014-01-11T09:20:32.000Z</time>
      </trkpt>
      <trkpt lat="45.18501" lon="6.36479">
        <ele>2457</ele>
        <time>2014-01-11T09:20:33.000Z</time>
      </trkpt>
      <trkpt lat="45.18501" lon="6.3648">
        <ele>2457.1999511719</ele>
        <time>2014-01-11T09:20:34.000Z</time>
      </trkpt>
      <trkpt lat="45.18501" lon="6.36481">
        <ele>2457.6000976562</ele>
        <time>2014-01-11T09:20:35.000Z</time>
      </trkpt>
      <trkpt lat="45.18501" lon="6.36481">
        <ele>2457.8000488281</ele>
        <time>2014-01-11T09:20:36.000Z</time>
      </trkpt>
      <trkpt lat="45.18501" lon="6.36482">
        <ele>2458</ele>
        <time>2014-01-11T09:20:37.000Z</time>
      </trkpt>
      <trkpt lat="45.18501" lon="6.36482">
        <ele>2458.1999511719</ele>
        <time>2014-01-11T09:20:38.000Z</time>
      </trkpt>
      <trkpt lat="45.185" lon="6.36482">
        <ele>2458.6000976562</ele>
        <time>2014-01-11T09:20:39.000Z</time>
      </trkpt>
      <trkpt lat="45.185" lon="6.36482">
        <ele>2458.8000488281</ele>
        <time>2014-01-11T09:20:40.000Z</time>
      </trkpt>
      <trkpt lat="45.18499" lon="6.36483">
        <ele>2459</ele>
        <time>2014-01-11T09:20:41.000Z</time>
      </trkpt>
      <trkpt lat="45.18499" lon="6.36484">
        <ele>2459.1999511719</ele>
        <time>2014-01-11T09:20:42.000Z</time>
      </trkpt>
      <trkpt lat="45.18499" lon="6.36485">
        <ele>2459.3999023438</ele>
        <time>2014-01-11T09:20:43.000Z</time>
      </trkpt>
      <trkpt lat="45.18498" lon="6.36486">
        <ele>2459.6000976562</ele>
        <time>2014-01-11T09:20:44.000Z</time>
      </trkpt>
      <trkpt lat="45.18497" lon="6.36488">
        <ele>2459.8000488281</ele>
        <time>2014-01-11T09:20:45.000Z</time>
      </trkpt>
      <trkpt lat="45.18498" lon="6.36488">
        <ele>2460</ele>
        <time>2014-01-11T09:20:46.000Z</time>
      </trkpt>
      <trkpt lat="45.18497" lon="6.36489">
        <ele>2460.1999511719</ele>
        <time>2014-01-11T09:20:47.000Z</time>
      </trkpt>
      <trkpt lat="45.18497" lon="6.36489">
        <ele>2460.3999023438</ele>
        <time>2014-01-11T09:20:48.000Z</time>
      </trkpt>
      <trkpt lat="45.18497" lon="6.36489">
        <ele>2460.3999023438</ele>
        <time>2014-01-11T09:20:49.000Z</time>
      </trkpt>
      <trkpt lat="45.18496" lon="6.3649">
        <ele>2460.6000976562</ele>
        <time>2014-01-11T09:20:50.000Z</time>
      </trkpt>
      <trkpt lat="45.18496" lon="6.3649">
        <ele>2461</ele>
        <time>2014-01-11T09:20:51.000Z</time>
      </trkpt>
      <trkpt lat="45.18496" lon="6.36491">
        <ele>2461</ele>
        <time>2014-01-11T09:20:52.000Z</time>
      </trkpt>
      <trkpt lat="45.18496" lon="6.36491">
        <ele>2461.1999511719</ele>
        <time>2014-01-11T09:20:53.000Z</time>
      </trkpt>
      <trkpt lat="45.18495" lon="6.36492">
        <ele>2461.3999023438</ele>
        <time>2014-01-11T09:20:54.000Z</time>
      </trkpt>
      <trkpt lat="45.18495" lon="6.36493">
        <ele>2461.8000488281</ele>
        <time>2014-01-11T09:20:55.000Z</time>
      </trkpt>
      <trkpt lat="45.18494" lon="6.36494">
        <ele>2462</ele>
        <time>2014-01-11T09:20:56.000Z</time>
      </trkpt>
      <trkpt lat="45.18494" lon="6.36494">
        <ele>2462.1999511719</ele>
        <time>2014-01-11T09:20:57.000Z</time>
      </trkpt>
      <trkpt lat="45.18493" lon="6.36495">
        <ele>2462.3999023438</ele>
        <time>2014-01-11T09:20:58.000Z</time>
      </trkpt>
      <trkpt lat="45.18493" lon="6.36496">
        <ele>2462.3999023438</ele>
        <time>2014-01-11T09:20:59.000Z</time>
      </trkpt>
      <trkpt lat="45.18491" lon="6.36497">
        <ele>2462.6000976562</ele>
        <time>2014-01-11T09:21:00.000Z</time>
      </trkpt>
      <trkpt lat="45.18492" lon="6.36497">
        <ele>2462.8000488281</ele>
        <time>2014-01-11T09:21:01.000Z</time>
      </trkpt>
      <trkpt lat="45.18491" lon="6.36497">
        <ele>2463</ele>
        <time>2014-01-11T09:21:02.000Z</time>
      </trkpt>
      <trkpt lat="45.18491" lon="6.36497">
        <ele>2463.1999511719</ele>
        <time>2014-01-11T09:21:03.000Z</time>
      </trkpt>
      <trkpt lat="45.18491" lon="6.36497">
        <ele>2463.3999023438</ele>
        <time>2014-01-11T09:21:04.000Z</time>
      </trkpt>
      <trkpt lat="45.18491" lon="6.36498">
        <ele>2463.6000976562</ele>
        <time>2014-01-11T09:21:05.000Z</time>
      </trkpt>
      <trkpt lat="45.18491" lon="6.36498">
        <ele>2463.8000488281</ele>
        <time>2014-01-11T09:21:06.000Z</time>
      </trkpt>
      <trkpt lat="45.1849" lon="6.36499">
        <ele>2464</ele>
        <time>2014-01-11T09:21:07.000Z</time>
      </trkpt>
      <trkpt lat="45.1849" lon="6.365">
        <ele>2464.1999511719</ele>
        <time>2014-01-11T09:21:08.000Z</time>
      </trkpt>
      <trkpt lat="45.1849" lon="6.36501">
        <ele>2464.3999023438</ele>
        <time>2014-01-11T09:21:09.000Z</time>
      </trkpt>
      <trkpt lat="45.1849" lon="6.36501">
        <ele>2464.6000976562</ele>
        <time>2014-01-11T09:21:10.000Z</time>
      </trkpt>
      <trkpt lat="45.18489" lon="6.36502">
        <ele>2464.8000488281</ele>
        <time>2014-01-11T09:21:11.000Z</time>
      </trkpt>
      <trkpt lat="45.18489" lon="6.36502">
        <ele>2465</ele>
        <time>2014-01-11T09:21:12.000Z</time>
      </trkpt>
      <trkpt lat="45.18489" lon="6.36502">
        <ele>2465.1999511719</ele>
        <time>2014-01-11T09:21:13.000Z</time>
      </trkpt>
      <trkpt lat="45.18488" lon="6.36502">
        <ele>2465.3999023438</ele>
        <time>2014-01-11T09:21:14.000Z</time>
      </trkpt>
      <trkpt lat="45.18488" lon="6.36502">
        <ele>2465.6000976562</ele>
        <time>2014-01-11T09:21:15.000Z</time>
      </trkpt>
      <trkpt lat="45.18487" lon="6.36503">
        <ele>2465.8000488281</ele>
        <time>2014-01-11T09:21:16.000Z</time>
      </trkpt>
      <trkpt lat="45.18487" lon="6.36503">
        <ele>2466</ele>
        <time>2014-01-11T09:21:17.000Z</time>
      </trkpt>
      <trkpt lat="45.18487" lon="6.36504">
        <ele>2466.1999511719</ele>
        <time>2014-01-11T09:21:18.000Z</time>
      </trkpt>
      <trkpt lat="45.18487" lon="6.36504">
        <ele>2466.6000976562</ele>
        <time>2014-01-11T09:21:19.000Z</time>
      </trkpt>
      <trkpt lat="45.18486" lon="6.36504">
        <ele>2466.6000976562</ele>
        <time>2014-01-11T09:21:20.000Z</time>
      </trkpt>
      <trkpt lat="45.18486" lon="6.36504">
        <ele>2466.8000488281</ele>
        <time>2014-01-11T09:21:21.000Z</time>
      </trkpt>
      <trkpt lat="45.18486" lon="6.36504">
        <ele>2467</ele>
        <time>2014-01-11T09:21:22.000Z</time>
      </trkpt>
      <trkpt lat="45.18486" lon="6.36504">
        <ele>2467.3999023438</ele>
        <time>2014-01-11T09:21:23.000Z</time>
      </trkpt>
      <trkpt lat="45.18485" lon="6.36505">
        <ele>2467.6000976562</ele>
        <time>2014-01-11T09:21:24.000Z</time>
      </trkpt>
      <trkpt lat="45.18485" lon="6.36505">
        <ele>2467.8000488281</ele>
        <time>2014-01-11T09:21:25.000Z</time>
      </trkpt>
      <trkpt lat="45.18484" lon="6.36506">
        <ele>2468</ele>
        <time>2014-01-11T09:21:26.000Z</time>
      </trkpt>
      <trkpt lat="45.18484" lon="6.36506">
        <ele>2468.1999511719</ele>
        <time>2014-01-11T09:21:27.000Z</time>
      </trkpt>
      <trkpt lat="45.18484" lon="6.36507">
        <ele>2468.3999023438</ele>
        <time>2014-01-11T09:21:28.000Z</time>
      </trkpt>
      <trkpt lat="45.18484" lon="6.36507">
        <ele>2468.6000976562</ele>
        <time>2014-01-11T09:21:29.000Z</time>
      </trkpt>
      <trkpt lat="45.18483" lon="6.36507">
        <ele>2468.8000488281</ele>
        <time>2014-01-11T09:21:30.000Z</time>
      </trkpt>
      <trkpt lat="45.18483" lon="6.36507">
        <ele>2469</ele>
        <time>2014-01-11T09:21:31.000Z</time>
      </trkpt>
      <trkpt lat="45.18483" lon="6.36508">
        <ele>2469</ele>
        <time>2014-01-11T09:21:32.000Z</time>
      </trkpt>
      <trkpt lat="45.18483" lon="6.36509">
        <ele>2469.1999511719</ele>
        <time>2014-01-11T09:21:33.000Z</time>
      </trkpt>
      <trkpt lat="45.18483" lon="6.36509">
        <ele>2469.3999023438</ele>
        <time>2014-01-11T09:21:34.000Z</time>
      </trkpt>
      <trkpt lat="45.18483" lon="6.3651">
        <ele>2469.6000976562</ele>
        <time>2014-01-11T09:21:35.000Z</time>
      </trkpt>
      <trkpt lat="45.18483" lon="6.36511">
        <ele>2470</ele>
        <time>2014-01-11T09:21:36.000Z</time>
      </trkpt>
      <trkpt lat="45.18483" lon="6.36511">
        <ele>2470.1999511719</ele>
        <time>2014-01-11T09:21:37.000Z</time>
      </trkpt>
      <trkpt lat="45.18483" lon="6.36512">
        <ele>2470.1999511719</ele>
        <time>2014-01-11T09:21:38.000Z</time>
      </trkpt>
      <trkpt lat="45.18484" lon="6.36513">
        <ele>2470.3999023438</ele>
        <time>2014-01-11T09:21:39.000Z</time>
      </trkpt>
      <trkpt lat="45.18484" lon="6.36514">
        <ele>2470.6000976562</ele>
        <time>2014-01-11T09:21:40.000Z</time>
      </trkpt>
      <trkpt lat="45.18484" lon="6.36515">
        <ele>2470.8000488281</ele>
        <time>2014-01-11T09:21:41.000Z</time>
      </trkpt>
      <trkpt lat="45.18484" lon="6.36516">
        <ele>2471</ele>
        <time>2014-01-11T09:21:42.000Z</time>
      </trkpt>
      <trkpt lat="45.18484" lon="6.36517">
        <ele>2471.3999023438</ele>
        <time>2014-01-11T09:21:43.000Z</time>
      </trkpt>
      <trkpt lat="45.18484" lon="6.36517">
        <ele>2471.6000976562</ele>
        <time>2014-01-11T09:21:44.000Z</time>
      </trkpt>
      <trkpt lat="45.18483" lon="6.36517">
        <ele>2471.8000488281</ele>
        <time>2014-01-11T09:21:45.000Z</time>
      </trkpt>
      <trkpt lat="45.18483" lon="6.36517">
        <ele>2472</ele>
        <time>2014-01-11T09:21:46.000Z</time>
      </trkpt>
      <trkpt lat="45.18483" lon="6.36518">
        <ele>2472.1999511719</ele>
        <time>2014-01-11T09:21:47.000Z</time>
      </trkpt>
      <trkpt lat="45.18484" lon="6.36519">
        <ele>2472.1999511719</ele>
        <time>2014-01-11T09:21:48.000Z</time>
      </trkpt>
      <trkpt lat="45.18484" lon="6.3652">
        <ele>2472.3999023438</ele>
        <time>2014-01-11T09:21:49.000Z</time>
      </trkpt>
      <trkpt lat="45.18484" lon="6.36521">
        <ele>2472.6000976562</ele>
        <time>2014-01-11T09:21:50.000Z</time>
      </trkpt>
      <trkpt lat="45.18484" lon="6.36522">
        <ele>2472.8000488281</ele>
        <time>2014-01-11T09:21:51.000Z</time>
      </trkpt>
      <trkpt lat="45.18484" lon="6.36522">
        <ele>2473</ele>
        <time>2014-01-11T09:21:52.000Z</time>
      </trkpt>
      <trkpt lat="45.18484" lon="6.36522">
        <ele>2473.1999511719</ele>
        <time>2014-01-11T09:21:53.000Z</time>
      </trkpt>
      <trkpt lat="45.18485" lon="6.36522">
        <ele>2473.3999023438</ele>
        <time>2014-01-11T09:21:54.000Z</time>
      </trkpt>
      <trkpt lat="45.18485" lon="6.36523">
        <ele>2473.6000976562</ele>
        <time>2014-01-11T09:21:55.000Z</time>
      </trkpt>
      <trkpt lat="45.18486" lon="6.36525">
        <ele>2473.8000488281</ele>
        <time>2014-01-11T09:21:56.000Z</time>
      </trkpt>
      <trkpt lat="45.18486" lon="6.36525">
        <ele>2474</ele>
        <time>2014-01-11T09:21:57.000Z</time>
      </trkpt>
      <trkpt lat="45.18486" lon="6.36525">
        <ele>2474.1999511719</ele>
        <time>2014-01-11T09:21:58.000Z</time>
      </trkpt>
      <trkpt lat="45.18486" lon="6.36526">
        <ele>2474.3999023438</ele>
        <time>2014-01-11T09:21:59.000Z</time>
      </trkpt>
      <trkpt lat="45.18486" lon="6.36526">
        <ele>2474.6000976562</ele>
        <time>2014-01-11T09:22:00.000Z</time>
      </trkpt>
      <trkpt lat="45.18486" lon="6.36527">
        <ele>2474.8000488281</ele>
        <time>2014-01-11T09:22:01.000Z</time>
      </trkpt>
      <trkpt lat="45.18486" lon="6.36527">
        <ele>2475</ele>
        <time>2014-01-11T09:22:02.000Z</time>
      </trkpt>
      <trkpt lat="45.18486" lon="6.36528">
        <ele>2475.1999511719</ele>
        <time>2014-01-11T09:22:03.000Z</time>
      </trkpt>
      <trkpt lat="45.18487" lon="6.36529">
        <ele>2475.3999023438</ele>
        <time>2014-01-11T09:22:04.000Z</time>
      </trkpt>
      <trkpt lat="45.18487" lon="6.3653">
        <ele>2475.6000976562</ele>
        <time>2014-01-11T09:22:05.000Z</time>
      </trkpt>
      <trkpt lat="45.18488" lon="6.36531">
        <ele>2475.6000976562</ele>
        <time>2014-01-11T09:22:06.000Z</time>
      </trkpt>
      <trkpt lat="45.18488" lon="6.36531">
        <ele>2476.1999511719</ele>
        <time>2014-01-11T09:22:07.000Z</time>
      </trkpt>
      <trkpt lat="45.18488" lon="6.36531">
        <ele>2476.3999023438</ele>
        <time>2014-01-11T09:22:08.000Z</time>
      </trkpt>
      <trkpt lat="45.18488" lon="6.36531">
        <ele>2476.6000976562</ele>
        <time>2014-01-11T09:22:09.000Z</time>
      </trkpt>
      <trkpt lat="45.18488" lon="6.36532">
        <ele>2476.8000488281</ele>
        <time>2014-01-11T09:22:10.000Z</time>
      </trkpt>
      <trkpt lat="45.18488" lon="6.36532">
        <ele>2477</ele>
        <time>2014-01-11T09:22:11.000Z</time>
      </trkpt>
      <trkpt lat="45.18488" lon="6.36533">
        <ele>2477</ele>
        <time>2014-01-11T09:22:12.000Z</time>
      </trkpt>
      <trkpt lat="45.18488" lon="6.36534">
        <ele>2477.1999511719</ele>
        <time>2014-01-11T09:22:13.000Z</time>
      </trkpt>
      <trkpt lat="45.18488" lon="6.36536">
        <ele>2477.3999023438</ele>
        <time>2014-01-11T09:22:14.000Z</time>
      </trkpt>
      <trkpt lat="45.18489" lon="6.36537">
        <ele>2477.6000976562</ele>
        <time>2014-01-11T09:22:15.000Z</time>
      </trkpt>
      <trkpt lat="45.18489" lon="6.36539">
        <ele>2477.8000488281</ele>
        <time>2014-01-11T09:22:16.000Z</time>
      </trkpt>
      <trkpt lat="45.18489" lon="6.36538">
        <ele>2478</ele>
        <time>2014-01-11T09:22:17.000Z</time>
      </trkpt>
      <trkpt lat="45.18489" lon="6.36538">
        <ele>2478.1999511719</ele>
        <time>2014-01-11T09:22:18.000Z</time>
      </trkpt>
      <trkpt lat="45.18489" lon="6.36539">
        <ele>2478.3999023438</ele>
        <time>2014-01-11T09:22:19.000Z</time>
      </trkpt>
      <trkpt lat="45.18489" lon="6.36539">
        <ele>2478.6000976562</ele>
        <time>2014-01-11T09:22:20.000Z</time>
      </trkpt>
      <trkpt lat="45.18489" lon="6.3654">
        <ele>2478.8000488281</ele>
        <time>2014-01-11T09:22:21.000Z</time>
      </trkpt>
      <trkpt lat="45.18489" lon="6.3654">
        <ele>2479</ele>
        <time>2014-01-11T09:22:22.000Z</time>
      </trkpt>
      <trkpt lat="45.1849" lon="6.3654">
        <ele>2479.1999511719</ele>
        <time>2014-01-11T09:22:23.000Z</time>
      </trkpt>
      <trkpt lat="45.1849" lon="6.3654">
        <ele>2479.3999023438</ele>
        <time>2014-01-11T09:22:24.000Z</time>
      </trkpt>
      <trkpt lat="45.1849" lon="6.36542">
        <ele>2479.6000976562</ele>
        <time>2014-01-11T09:22:25.000Z</time>
      </trkpt>
      <trkpt lat="45.1849" lon="6.36543">
        <ele>2480</ele>
        <time>2014-01-11T09:22:26.000Z</time>
      </trkpt>
      <trkpt lat="45.18491" lon="6.36544">
        <ele>2480.1999511719</ele>
        <time>2014-01-11T09:22:27.000Z</time>
      </trkpt>
      <trkpt lat="45.18491" lon="6.36545">
        <ele>2480.3999023438</ele>
        <time>2014-01-11T09:22:28.000Z</time>
      </trkpt>
      <trkpt lat="45.18491" lon="6.36546">
        <ele>2480.6000976562</ele>
        <time>2014-01-11T09:22:29.000Z</time>
      </trkpt>
      <trkpt lat="45.18491" lon="6.36547">
        <ele>2480.8000488281</ele>
        <time>2014-01-11T09:22:30.000Z</time>
      </trkpt>
      <trkpt lat="45.18491" lon="6.36547">
        <ele>2481.1999511719</ele>
        <time>2014-01-11T09:22:31.000Z</time>
      </trkpt>
      <trkpt lat="45.18491" lon="6.36548">
        <ele>2481.3999023438</ele>
        <time>2014-01-11T09:22:32.000Z</time>
      </trkpt>
      <trkpt lat="45.18492" lon="6.36549">
        <ele>2481.6000976562</ele>
        <time>2014-01-11T09:22:33.000Z</time>
      </trkpt>
      <trkpt lat="45.18492" lon="6.3655">
        <ele>2481.8000488281</ele>
        <time>2014-01-11T09:22:34.000Z</time>
      </trkpt>
      <trkpt lat="45.18492" lon="6.3655">
        <ele>2482</ele>
        <time>2014-01-11T09:22:35.000Z</time>
      </trkpt>
      <trkpt lat="45.18493" lon="6.36551">
        <ele>2482.1999511719</ele>
        <time>2014-01-11T09:22:36.000Z</time>
      </trkpt>
      <trkpt lat="45.18493" lon="6.36551">
        <ele>2482.6000976562</ele>
        <time>2014-01-11T09:22:37.000Z</time>
      </trkpt>
      <trkpt lat="45.18493" lon="6.36552">
        <ele>2482.8000488281</ele>
        <time>2014-01-11T09:22:38.000Z</time>
      </trkpt>
      <trkpt lat="45.18493" lon="6.36552">
        <ele>2483</ele>
        <time>2014-01-11T09:22:39.000Z</time>
      </trkpt>
      <trkpt lat="45.18493" lon="6.36552">
        <ele>2483.1999511719</ele>
        <time>2014-01-11T09:22:40.000Z</time>
      </trkpt>
      <trkpt lat="45.18493" lon="6.36552">
        <ele>2483.3999023438</ele>
        <time>2014-01-11T09:22:41.000Z</time>
      </trkpt>
      <trkpt lat="45.18494" lon="6.36553">
        <ele>2483.6000976562</ele>
        <time>2014-01-11T09:22:42.000Z</time>
      </trkpt>
      <trkpt lat="45.18494" lon="6.36554">
        <ele>2483.8000488281</ele>
        <time>2014-01-11T09:22:43.000Z</time>
      </trkpt>
      <trkpt lat="45.18495" lon="6.36555">
        <ele>2484</ele>
        <time>2014-01-11T09:22:44.000Z</time>
      </trkpt>
      <trkpt lat="45.18496" lon="6.36556">
        <ele>2484.1999511719</ele>
        <time>2014-01-11T09:22:45.000Z</time>
      </trkpt>
      <trkpt lat="45.18496" lon="6.36557">
        <ele>2484.3999023438</ele>
        <time>2014-01-11T09:22:46.000Z</time>
      </trkpt>
      <trkpt lat="45.18497" lon="6.36557">
        <ele>2484.6000976562</ele>
        <time>2014-01-11T09:22:47.000Z</time>
      </trkpt>
      <trkpt lat="45.18497" lon="6.36558">
        <ele>2484.8000488281</ele>
        <time>2014-01-11T09:22:48.000Z</time>
      </trkpt>
      <trkpt lat="45.18498" lon="6.36559">
        <ele>2485</ele>
        <time>2014-01-11T09:22:49.000Z</time>
      </trkpt>
      <trkpt lat="45.18498" lon="6.36561">
        <ele>2485.1999511719</ele>
        <time>2014-01-11T09:22:50.000Z</time>
      </trkpt>
      <trkpt lat="45.18498" lon="6.3656">
        <ele>2485.3999023438</ele>
        <time>2014-01-11T09:22:51.000Z</time>
      </trkpt>
      <trkpt lat="45.18498" lon="6.36561">
        <ele>2485.6000976562</ele>
        <time>2014-01-11T09:22:52.000Z</time>
      </trkpt>
      <trkpt lat="45.18498" lon="6.36561">
        <ele>2486</ele>
        <time>2014-01-11T09:22:53.000Z</time>
      </trkpt>
      <trkpt lat="45.18499" lon="6.36562">
        <ele>2486.1999511719</ele>
        <time>2014-01-11T09:22:54.000Z</time>
      </trkpt>
      <trkpt lat="45.18499" lon="6.36563">
        <ele>2486.6000976562</ele>
        <time>2014-01-11T09:22:55.000Z</time>
      </trkpt>
      <trkpt lat="45.185" lon="6.36563">
        <ele>2486.8000488281</ele>
        <time>2014-01-11T09:22:56.000Z</time>
      </trkpt>
      <trkpt lat="45.185" lon="6.36564">
        <ele>2487</ele>
        <time>2014-01-11T09:22:57.000Z</time>
      </trkpt>
      <trkpt lat="45.185" lon="6.36564">
        <ele>2487.3999023438</ele>
        <time>2014-01-11T09:22:58.000Z</time>
      </trkpt>
      <trkpt lat="45.185" lon="6.36565">
        <ele>2487.3999023438</ele>
        <time>2014-01-11T09:22:59.000Z</time>
      </trkpt>
      <trkpt lat="45.185" lon="6.36565">
        <ele>2487.6000976562</ele>
        <time>2014-01-11T09:23:00.000Z</time>
      </trkpt>
      <trkpt lat="45.185" lon="6.36565">
        <ele>2487.8000488281</ele>
        <time>2014-01-11T09:23:01.000Z</time>
      </trkpt>
      <trkpt lat="45.185" lon="6.36566">
        <ele>2488.1999511719</ele>
        <time>2014-01-11T09:23:02.000Z</time>
      </trkpt>
      <trkpt lat="45.185" lon="6.36566">
        <ele>2488.3999023438</ele>
        <time>2014-01-11T09:23:03.000Z</time>
      </trkpt>
      <trkpt lat="45.185" lon="6.36567">
        <ele>2488.6000976562</ele>
        <time>2014-01-11T09:23:04.000Z</time>
      </trkpt>
      <trkpt lat="45.185" lon="6.36567">
        <ele>2488.8000488281</ele>
        <time>2014-01-11T09:23:05.000Z</time>
      </trkpt>
      <trkpt lat="45.18501" lon="6.36567">
        <ele>2489</ele>
        <time>2014-01-11T09:23:06.000Z</time>
      </trkpt>
      <trkpt lat="45.18501" lon="6.36567">
        <ele>2489.1999511719</ele>
        <time>2014-01-11T09:23:07.000Z</time>
      </trkpt>
      <trkpt lat="45.18501" lon="6.36568">
        <ele>2489.3999023438</ele>
        <time>2014-01-11T09:23:08.000Z</time>
      </trkpt>
      <trkpt lat="45.18501" lon="6.36568">
        <ele>2489.3999023438</ele>
        <time>2014-01-11T09:23:09.000Z</time>
      </trkpt>
      <trkpt lat="45.185" lon="6.36568">
        <ele>2489.6000976562</ele>
        <time>2014-01-11T09:23:10.000Z</time>
      </trkpt>
      <trkpt lat="45.185" lon="6.36568">
        <ele>2489.8000488281</ele>
        <time>2014-01-11T09:23:11.000Z</time>
      </trkpt>
      <trkpt lat="45.185" lon="6.36568">
        <ele>2490</ele>
        <time>2014-01-11T09:23:12.000Z</time>
      </trkpt>
      <trkpt lat="45.185" lon="6.36568">
        <ele>2490.1999511719</ele>
        <time>2014-01-11T09:23:13.000Z</time>
      </trkpt>
      <trkpt lat="45.185" lon="6.36568">
        <ele>2490.3999023438</ele>
        <time>2014-01-11T09:23:14.000Z</time>
      </trkpt>
      <trkpt lat="45.18501" lon="6.36569">
        <ele>2490.3999023438</ele>
        <time>2014-01-11T09:23:15.000Z</time>
      </trkpt>
      <trkpt lat="45.185" lon="6.36569">
        <ele>2490.6000976562</ele>
        <time>2014-01-11T09:23:16.000Z</time>
      </trkpt>
      <trkpt lat="45.18499" lon="6.36571">
        <ele>2490.8000488281</ele>
        <time>2014-01-11T09:23:17.000Z</time>
      </trkpt>
      <trkpt lat="45.18499" lon="6.36571">
        <ele>2491</ele>
        <time>2014-01-11T09:23:18.000Z</time>
      </trkpt>
      <trkpt lat="45.18499" lon="6.36571">
        <ele>2491.1999511719</ele>
        <time>2014-01-11T09:23:19.000Z</time>
      </trkpt>
      <trkpt lat="45.18499" lon="6.36572">
        <ele>2491.3999023438</ele>
        <time>2014-01-11T09:23:20.000Z</time>
      </trkpt>
      <trkpt lat="45.18499" lon="6.36573">
        <ele>2491.6000976562</ele>
        <time>2014-01-11T09:23:21.000Z</time>
      </trkpt>
      <trkpt lat="45.18498" lon="6.36575">
        <ele>2491.6000976562</ele>
        <time>2014-01-11T09:23:22.000Z</time>
      </trkpt>
      <trkpt lat="45.18498" lon="6.36575">
        <ele>2491.8000488281</ele>
        <time>2014-01-11T09:23:23.000Z</time>
      </trkpt>
      <trkpt lat="45.18497" lon="6.36575">
        <ele>2492</ele>
        <time>2014-01-11T09:23:24.000Z</time>
      </trkpt>
      <trkpt lat="45.18497" lon="6.36576">
        <ele>2492.1999511719</ele>
        <time>2014-01-11T09:23:25.000Z</time>
      </trkpt>
      <trkpt lat="45.18497" lon="6.36576">
        <ele>2492.3999023438</ele>
        <time>2014-01-11T09:23:26.000Z</time>
      </trkpt>
      <trkpt lat="45.18497" lon="6.36576">
        <ele>2492.6000976562</ele>
        <time>2014-01-11T09:23:27.000Z</time>
      </trkpt>
      <trkpt lat="45.18497" lon="6.36576">
        <ele>2492.8000488281</ele>
        <time>2014-01-11T09:23:28.000Z</time>
      </trkpt>
      <trkpt lat="45.18496" lon="6.36576">
        <ele>2493</ele>
        <time>2014-01-11T09:23:29.000Z</time>
      </trkpt>
      <trkpt lat="45.18496" lon="6.36576">
        <ele>2493.1999511719</ele>
        <time>2014-01-11T09:23:30.000Z</time>
      </trkpt>
      <trkpt lat="45.18495" lon="6.36577">
        <ele>2493.3999023438</ele>
        <time>2014-01-11T09:23:31.000Z</time>
      </trkpt>
      <trkpt lat="45.18494" lon="6.36577">
        <ele>2493.6000976562</ele>
        <time>2014-01-11T09:23:32.000Z</time>
      </trkpt>
      <trkpt lat="45.18494" lon="6.36577">
        <ele>2493.8000488281</ele>
        <time>2014-01-11T09:23:33.000Z</time>
      </trkpt>
      <trkpt lat="45.18493" lon="6.36578">
        <ele>2494</ele>
        <time>2014-01-11T09:23:34.000Z</time>
      </trkpt>
      <trkpt lat="45.18493" lon="6.36578">
        <ele>2494.1999511719</ele>
        <time>2014-01-11T09:23:35.000Z</time>
      </trkpt>
      <trkpt lat="45.18493" lon="6.36578">
        <ele>2494.3999023438</ele>
        <time>2014-01-11T09:23:36.000Z</time>
      </trkpt>
      <trkpt lat="45.18493" lon="6.36578">
        <ele>2494.6000976562</ele>
        <time>2014-01-11T09:23:37.000Z</time>
      </trkpt>
      <trkpt lat="45.18493" lon="6.36578">
        <ele>2494.8000488281</ele>
        <time>2014-01-11T09:23:38.000Z</time>
      </trkpt>
      <trkpt lat="45.18492" lon="6.36579">
        <ele>2495</ele>
        <time>2014-01-11T09:23:39.000Z</time>
      </trkpt>
      <trkpt lat="45.18492" lon="6.3658">
        <ele>2495</ele>
        <time>2014-01-11T09:23:40.000Z</time>
      </trkpt>
      <trkpt lat="45.18492" lon="6.3658">
        <ele>2495.1999511719</ele>
        <time>2014-01-11T09:23:41.000Z</time>
      </trkpt>
      <trkpt lat="45.18492" lon="6.3658">
        <ele>2495.6000976562</ele>
        <time>2014-01-11T09:23:42.000Z</time>
      </trkpt>
      <trkpt lat="45.18492" lon="6.3658">
        <ele>2495.8000488281</ele>
        <time>2014-01-11T09:23:43.000Z</time>
      </trkpt>
      <trkpt lat="45.18492" lon="6.36581">
        <ele>2496</ele>
        <time>2014-01-11T09:23:44.000Z</time>
      </trkpt>
      <trkpt lat="45.18492" lon="6.36581">
        <ele>2496.1999511719</ele>
        <time>2014-01-11T09:23:45.000Z</time>
      </trkpt>
      <trkpt lat="45.18492" lon="6.36582">
        <ele>2496.3999023438</ele>
        <time>2014-01-11T09:23:46.000Z</time>
      </trkpt>
      <trkpt lat="45.18492" lon="6.36582">
        <ele>2496.6000976562</ele>
        <time>2014-01-11T09:23:47.000Z</time>
      </trkpt>
      <trkpt lat="45.18492" lon="6.36582">
        <ele>2496.8000488281</ele>
        <time>2014-01-11T09:23:48.000Z</time>
      </trkpt>
      <trkpt lat="45.18492" lon="6.36582">
        <ele>2497</ele>
        <time>2014-01-11T09:23:49.000Z</time>
      </trkpt>
      <trkpt lat="45.18491" lon="6.36583">
        <ele>2497</ele>
        <time>2014-01-11T09:23:50.000Z</time>
      </trkpt>
      <trkpt lat="45.18491" lon="6.36583">
        <ele>2497.1999511719</ele>
        <time>2014-01-11T09:23:51.000Z</time>
      </trkpt>
      <trkpt lat="45.18491" lon="6.36583">
        <ele>2497.3999023438</ele>
        <time>2014-01-11T09:23:52.000Z</time>
      </trkpt>
      <trkpt lat="45.18491" lon="6.36583">
        <ele>2497.6000976562</ele>
        <time>2014-01-11T09:23:53.000Z</time>
      </trkpt>
      <trkpt lat="45.18491" lon="6.36583">
        <ele>2497.6000976562</ele>
        <time>2014-01-11T09:23:54.000Z</time>
      </trkpt>
      <trkpt lat="45.1849" lon="6.36584">
        <ele>2497.8000488281</ele>
        <time>2014-01-11T09:23:55.000Z</time>
      </trkpt>
      <trkpt lat="45.1849" lon="6.36584">
        <ele>2498</ele>
        <time>2014-01-11T09:23:56.000Z</time>
      </trkpt>
      <trkpt lat="45.18489" lon="6.36584">
        <ele>2498.1999511719</ele>
        <time>2014-01-11T09:23:57.000Z</time>
      </trkpt>
      <trkpt lat="45.18489" lon="6.36585">
        <ele>2498.3999023438</ele>
        <time>2014-01-11T09:23:58.000Z</time>
      </trkpt>
      <trkpt lat="45.18489" lon="6.36585">
        <ele>2498.3999023438</ele>
        <time>2014-01-11T09:23:59.000Z</time>
      </trkpt>
      <trkpt lat="45.18488" lon="6.36585">
        <ele>2498.6000976562</ele>
        <time>2014-01-11T09:24:00.000Z</time>
      </trkpt>
      <trkpt lat="45.18488" lon="6.36586">
        <ele>2498.8000488281</ele>
        <time>2014-01-11T09:24:01.000Z</time>
      </trkpt>
      <trkpt lat="45.18488" lon="6.36586">
        <ele>2499</ele>
        <time>2014-01-11T09:24:02.000Z</time>
      </trkpt>
      <trkpt lat="45.18487" lon="6.36586">
        <ele>2499.1999511719</ele>
        <time>2014-01-11T09:24:03.000Z</time>
      </trkpt>
      <trkpt lat="45.18485" lon="6.36587">
        <ele>2499.3999023438</ele>
        <time>2014-01-11T09:24:04.000Z</time>
      </trkpt>
      <trkpt lat="45.18485" lon="6.36588">
        <ele>2499.6000976562</ele>
        <time>2014-01-11T09:24:05.000Z</time>
      </trkpt>
      <trkpt lat="45.18485" lon="6.36588">
        <ele>2499.8000488281</ele>
        <time>2014-01-11T09:24:06.000Z</time>
      </trkpt>
      <trkpt lat="45.18484" lon="6.36588">
        <ele>2500.1999511719</ele>
        <time>2014-01-11T09:24:07.000Z</time>
      </trkpt>
      <trkpt lat="45.18483" lon="6.36589">
        <ele>2500.1999511719</ele>
        <time>2014-01-11T09:24:08.000Z</time>
      </trkpt>
      <trkpt lat="45.18483" lon="6.36589">
        <ele>2500.3999023438</ele>
        <time>2014-01-11T09:24:09.000Z</time>
      </trkpt>
      <trkpt lat="45.18482" lon="6.36589">
        <ele>2500.6000976562</ele>
        <time>2014-01-11T09:24:10.000Z</time>
      </trkpt>
      <trkpt lat="45.18481" lon="6.3659">
        <ele>2500.8000488281</ele>
        <time>2014-01-11T09:24:11.000Z</time>
      </trkpt>
      <trkpt lat="45.18481" lon="6.36591">
        <ele>2501</ele>
        <time>2014-01-11T09:24:12.000Z</time>
      </trkpt>
      <trkpt lat="45.1848" lon="6.36591">
        <ele>2501</ele>
        <time>2014-01-11T09:24:13.000Z</time>
      </trkpt>
      <trkpt lat="45.18479" lon="6.36592">
        <ele>2501.1999511719</ele>
        <time>2014-01-11T09:24:14.000Z</time>
      </trkpt>
      <trkpt lat="45.18479" lon="6.36592">
        <ele>2501.3999023438</ele>
        <time>2014-01-11T09:24:15.000Z</time>
      </trkpt>
      <trkpt lat="45.18479" lon="6.36592">
        <ele>2501.6000976562</ele>
        <time>2014-01-11T09:24:16.000Z</time>
      </trkpt>
      <trkpt lat="45.18479" lon="6.36592">
        <ele>2501.8000488281</ele>
        <time>2014-01-11T09:24:17.000Z</time>
      </trkpt>
      <trkpt lat="45.18479" lon="6.36592">
        <ele>2502</ele>
        <time>2014-01-11T09:24:18.000Z</time>
      </trkpt>
      <trkpt lat="45.18479" lon="6.36592">
        <ele>2502</ele>
        <time>2014-01-11T09:24:19.000Z</time>
      </trkpt>
      <trkpt lat="45.18479" lon="6.36592">
        <ele>2502</ele>
        <time>2014-01-11T09:24:20.000Z</time>
      </trkpt>
      <trkpt lat="45.18479" lon="6.36593">
        <ele>2502</ele>
        <time>2014-01-11T09:24:21.000Z</time>
      </trkpt>
      <trkpt lat="45.18478" lon="6.36593">
        <ele>2502.1999511719</ele>
        <time>2014-01-11T09:24:22.000Z</time>
      </trkpt>
      <trkpt lat="45.18477" lon="6.36593">
        <ele>2502.1999511719</ele>
        <time>2014-01-11T09:24:23.000Z</time>
      </trkpt>
      <trkpt lat="45.18477" lon="6.36593">
        <ele>2502.3999023438</ele>
        <time>2014-01-11T09:24:24.000Z</time>
      </trkpt>
      <trkpt lat="45.18477" lon="6.36594">
        <ele>2502.6000976562</ele>
        <time>2014-01-11T09:24:25.000Z</time>
      </trkpt>
      <trkpt lat="45.18476" lon="6.36594">
        <ele>2502.8000488281</ele>
        <time>2014-01-11T09:24:26.000Z</time>
      </trkpt>
      <trkpt lat="45.18476" lon="6.36595">
        <ele>2503</ele>
        <time>2014-01-11T09:24:27.000Z</time>
      </trkpt>
      <trkpt lat="45.18476" lon="6.36595">
        <ele>2503.1999511719</ele>
        <time>2014-01-11T09:24:28.000Z</time>
      </trkpt>
      <trkpt lat="45.18475" lon="6.36595">
        <ele>2503.3999023438</ele>
        <time>2014-01-11T09:24:29.000Z</time>
      </trkpt>
      <trkpt lat="45.18475" lon="6.36596">
        <ele>2503.6000976562</ele>
        <time>2014-01-11T09:24:30.000Z</time>
      </trkpt>
      <trkpt lat="45.18474" lon="6.36596">
        <ele>2504</ele>
        <time>2014-01-11T09:24:31.000Z</time>
      </trkpt>
      <trkpt lat="45.18474" lon="6.36597">
        <ele>2504.1999511719</ele>
        <time>2014-01-11T09:24:32.000Z</time>
      </trkpt>
      <trkpt lat="45.18473" lon="6.36598">
        <ele>2504.1999511719</ele>
        <time>2014-01-11T09:24:33.000Z</time>
      </trkpt>
      <trkpt lat="45.18473" lon="6.36598">
        <ele>2504.3999023438</ele>
        <time>2014-01-11T09:24:34.000Z</time>
      </trkpt>
      <trkpt lat="45.18472" lon="6.36599">
        <ele>2504.6000976562</ele>
        <time>2014-01-11T09:24:35.000Z</time>
      </trkpt>
      <trkpt lat="45.18471" lon="6.36599">
        <ele>2504.8000488281</ele>
        <time>2014-01-11T09:24:36.000Z</time>
      </trkpt>
      <trkpt lat="45.18471" lon="6.36599">
        <ele>2505</ele>
        <time>2014-01-11T09:24:37.000Z</time>
      </trkpt>
      <trkpt lat="45.1847" lon="6.366">
        <ele>2505.1999511719</ele>
        <time>2014-01-11T09:24:38.000Z</time>
      </trkpt>
      <trkpt lat="45.1847" lon="6.366">
        <ele>2505.6000976562</ele>
        <time>2014-01-11T09:24:39.000Z</time>
      </trkpt>
      <trkpt lat="45.1847" lon="6.366">
        <ele>2505.8000488281</ele>
        <time>2014-01-11T09:24:40.000Z</time>
      </trkpt>
      <trkpt lat="45.1847" lon="6.366">
        <ele>2506</ele>
        <time>2014-01-11T09:24:41.000Z</time>
      </trkpt>
      <trkpt lat="45.1847" lon="6.366">
        <ele>2506.1999511719</ele>
        <time>2014-01-11T09:24:42.000Z</time>
      </trkpt>
      <trkpt lat="45.1847" lon="6.366">
        <ele>2506.3999023438</ele>
        <time>2014-01-11T09:24:43.000Z</time>
      </trkpt>
      <trkpt lat="45.18469" lon="6.366">
        <ele>2506.8000488281</ele>
        <time>2014-01-11T09:24:44.000Z</time>
      </trkpt>
      <trkpt lat="45.18468" lon="6.366">
        <ele>2506.8000488281</ele>
        <time>2014-01-11T09:24:45.000Z</time>
      </trkpt>
      <trkpt lat="45.18468" lon="6.366">
        <ele>2507</ele>
        <time>2014-01-11T09:24:46.000Z</time>
      </trkpt>
      <trkpt lat="45.18467" lon="6.36601">
        <ele>2507.1999511719</ele>
        <time>2014-01-11T09:24:47.000Z</time>
      </trkpt>
      <trkpt lat="45.18466" lon="6.36601">
        <ele>2507.1999511719</ele>
        <time>2014-01-11T09:24:48.000Z</time>
      </trkpt>
      <trkpt lat="45.18466" lon="6.36601">
        <ele>2507.3999023438</ele>
        <time>2014-01-11T09:24:49.000Z</time>
      </trkpt>
      <trkpt lat="45.18466" lon="6.36601">
        <ele>2507.6000976562</ele>
        <time>2014-01-11T09:24:50.000Z</time>
      </trkpt>
      <trkpt lat="45.18466" lon="6.36601">
        <ele>2507.8000488281</ele>
        <time>2014-01-11T09:24:51.000Z</time>
      </trkpt>
      <trkpt lat="45.18465" lon="6.36602">
        <ele>2508</ele>
        <time>2014-01-11T09:24:52.000Z</time>
      </trkpt>
      <trkpt lat="45.18464" lon="6.36602">
        <ele>2508.1999511719</ele>
        <time>2014-01-11T09:24:53.000Z</time>
      </trkpt>
      <trkpt lat="45.18464" lon="6.36603">
        <ele>2508.3999023438</ele>
        <time>2014-01-11T09:24:54.000Z</time>
      </trkpt>
      <trkpt lat="45.18464" lon="6.36602">
        <ele>2508.6000976562</ele>
        <time>2014-01-11T09:24:55.000Z</time>
      </trkpt>
      <trkpt lat="45.18463" lon="6.36603">
        <ele>2509</ele>
        <time>2014-01-11T09:24:56.000Z</time>
      </trkpt>
      <trkpt lat="45.18462" lon="6.36603">
        <ele>2509.3999023438</ele>
        <time>2014-01-11T09:24:57.000Z</time>
      </trkpt>
      <trkpt lat="45.18462" lon="6.36604">
        <ele>2509.3999023438</ele>
        <time>2014-01-11T09:24:58.000Z</time>
      </trkpt>
      <trkpt lat="45.18461" lon="6.36605">
        <ele>2509.6000976562</ele>
        <time>2014-01-11T09:24:59.000Z</time>
      </trkpt>
      <trkpt lat="45.18461" lon="6.36605">
        <ele>2509.8000488281</ele>
        <time>2014-01-11T09:25:00.000Z</time>
      </trkpt>
      <trkpt lat="45.1846" lon="6.36606">
        <ele>2510</ele>
        <time>2014-01-11T09:25:01.000Z</time>
      </trkpt>
      <trkpt lat="45.18459" lon="6.36606">
        <ele>2510</ele>
        <time>2014-01-11T09:25:02.000Z</time>
      </trkpt>
      <trkpt lat="45.18459" lon="6.36606">
        <ele>2510.1999511719</ele>
        <time>2014-01-11T09:25:03.000Z</time>
      </trkpt>
      <trkpt lat="45.18459" lon="6.36606">
        <ele>2510.3999023438</ele>
        <time>2014-01-11T09:25:04.000Z</time>
      </trkpt>
      <trkpt lat="45.18458" lon="6.36606">
        <ele>2510.8000488281</ele>
        <time>2014-01-11T09:25:05.000Z</time>
      </trkpt>
      <trkpt lat="45.18458" lon="6.36606">
        <ele>2511</ele>
        <time>2014-01-11T09:25:06.000Z</time>
      </trkpt>
      <trkpt lat="45.18458" lon="6.36606">
        <ele>2511.1999511719</ele>
        <time>2014-01-11T09:25:07.000Z</time>
      </trkpt>
      <trkpt lat="45.18458" lon="6.36606">
        <ele>2511.3999023438</ele>
        <time>2014-01-11T09:25:08.000Z</time>
      </trkpt>
      <trkpt lat="45.18457" lon="6.36606">
        <ele>2511.6000976562</ele>
        <time>2014-01-11T09:25:09.000Z</time>
      </trkpt>
      <trkpt lat="45.18457" lon="6.36606">
        <ele>2511.8000488281</ele>
        <time>2014-01-11T09:25:10.000Z</time>
      </trkpt>
      <trkpt lat="45.18455" lon="6.36607">
        <ele>2511.8000488281</ele>
        <time>2014-01-11T09:25:11.000Z</time>
      </trkpt>
      <trkpt lat="45.18456" lon="6.36607">
        <ele>2512</ele>
        <time>2014-01-11T09:25:12.000Z</time>
      </trkpt>
      <trkpt lat="45.18455" lon="6.36608">
        <ele>2512.1999511719</ele>
        <time>2014-01-11T09:25:13.000Z</time>
      </trkpt>
      <trkpt lat="45.18455" lon="6.36608">
        <ele>2512.3999023438</ele>
        <time>2014-01-11T09:25:14.000Z</time>
      </trkpt>
      <trkpt lat="45.18454" lon="6.36608">
        <ele>2512.6000976562</ele>
        <time>2014-01-11T09:25:15.000Z</time>
      </trkpt>
      <trkpt lat="45.18455" lon="6.36608">
        <ele>2512.8000488281</ele>
        <time>2014-01-11T09:25:16.000Z</time>
      </trkpt>
      <trkpt lat="45.18454" lon="6.36608">
        <ele>2513</ele>
        <time>2014-01-11T09:25:17.000Z</time>
      </trkpt>
      <trkpt lat="45.18454" lon="6.36608">
        <ele>2513.1999511719</ele>
        <time>2014-01-11T09:25:18.000Z</time>
      </trkpt>
      <trkpt lat="45.18453" lon="6.36609">
        <ele>2513.3999023438</ele>
        <time>2014-01-11T09:25:19.000Z</time>
      </trkpt>
      <trkpt lat="45.18453" lon="6.36609">
        <ele>2513.6000976562</ele>
        <time>2014-01-11T09:25:20.000Z</time>
      </trkpt>
      <trkpt lat="45.18452" lon="6.3661">
        <ele>2513.8000488281</ele>
        <time>2014-01-11T09:25:21.000Z</time>
      </trkpt>
      <trkpt lat="45.18452" lon="6.36611">
        <ele>2514</ele>
        <time>2014-01-11T09:25:22.000Z</time>
      </trkpt>
      <trkpt lat="45.18452" lon="6.36611">
        <ele>2514.1999511719</ele>
        <time>2014-01-11T09:25:23.000Z</time>
      </trkpt>
      <trkpt lat="45.18451" lon="6.36611">
        <ele>2514.3999023438</ele>
        <time>2014-01-11T09:25:24.000Z</time>
      </trkpt>
      <trkpt lat="45.18451" lon="6.36611">
        <ele>2514.6000976562</ele>
        <time>2014-01-11T09:25:25.000Z</time>
      </trkpt>
      <trkpt lat="45.18451" lon="6.36611">
        <ele>2514.6000976562</ele>
        <time>2014-01-11T09:25:26.000Z</time>
      </trkpt>
      <trkpt lat="45.18451" lon="6.36611">
        <ele>2515</ele>
        <time>2014-01-11T09:25:27.000Z</time>
      </trkpt>
      <trkpt lat="45.1845" lon="6.36612">
        <ele>2515.1999511719</ele>
        <time>2014-01-11T09:25:28.000Z</time>
      </trkpt>
      <trkpt lat="45.1845" lon="6.36612">
        <ele>2515.3999023438</ele>
        <time>2014-01-11T09:25:29.000Z</time>
      </trkpt>
      <trkpt lat="45.1845" lon="6.36613">
        <ele>2515.6000976562</ele>
        <time>2014-01-11T09:25:30.000Z</time>
      </trkpt>
      <trkpt lat="45.1845" lon="6.36613">
        <ele>2515.8000488281</ele>
        <time>2014-01-11T09:25:31.000Z</time>
      </trkpt>
      <trkpt lat="45.1845" lon="6.36614">
        <ele>2516</ele>
        <time>2014-01-11T09:25:32.000Z</time>
      </trkpt>
      <trkpt lat="45.1845" lon="6.36614">
        <ele>2516.1999511719</ele>
        <time>2014-01-11T09:25:33.000Z</time>
      </trkpt>
      <trkpt lat="45.18449" lon="6.36614">
        <ele>2516.3999023438</ele>
        <time>2014-01-11T09:25:34.000Z</time>
      </trkpt>
      <trkpt lat="45.18449" lon="6.36614">
        <ele>2516.3999023438</ele>
        <time>2014-01-11T09:25:35.000Z</time>
      </trkpt>
      <trkpt lat="45.18448" lon="6.36614">
        <ele>2516.6000976562</ele>
        <time>2014-01-11T09:25:36.000Z</time>
      </trkpt>
      <trkpt lat="45.18448" lon="6.36614">
        <ele>2516.8000488281</ele>
        <time>2014-01-11T09:25:37.000Z</time>
      </trkpt>
      <trkpt lat="45.18448" lon="6.36614">
        <ele>2516.8000488281</ele>
        <time>2014-01-11T09:25:38.000Z</time>
      </trkpt>
      <trkpt lat="45.18448" lon="6.36614">
        <ele>2517</ele>
        <time>2014-01-11T09:25:39.000Z</time>
      </trkpt>
      <trkpt lat="45.18448" lon="6.36614">
        <ele>2517.1999511719</ele>
        <time>2014-01-11T09:25:40.000Z</time>
      </trkpt>
      <trkpt lat="45.18448" lon="6.36614">
        <ele>2517.1999511719</ele>
        <time>2014-01-11T09:25:41.000Z</time>
      </trkpt>
      <trkpt lat="45.18448" lon="6.36614">
        <ele>2517.3999023438</ele>
        <time>2014-01-11T09:25:42.000Z</time>
      </trkpt>
      <trkpt lat="45.18448" lon="6.36614">
        <ele>2517.6000976562</ele>
        <time>2014-01-11T09:25:43.000Z</time>
      </trkpt>
      <trkpt lat="45.18448" lon="6.36614">
        <ele>2517.6000976562</ele>
        <time>2014-01-11T09:25:44.000Z</time>
      </trkpt>
      <trkpt lat="45.18448" lon="6.36615">
        <ele>2517.6000976562</ele>
        <time>2014-01-11T09:25:46.000Z</time>
      </trkpt>
      <trkpt lat="45.18448" lon="6.36615">
        <ele>2517.6000976562</ele>
        <time>2014-01-11T09:25:47.000Z</time>
      </trkpt>
      <trkpt lat="45.18447" lon="6.36615">
        <ele>2517.6000976562</ele>
        <time>2014-01-11T09:25:49.000Z</time>
      </trkpt>
      <trkpt lat="45.18446" lon="6.36616">
        <ele>2517.8000488281</ele>
        <time>2014-01-11T09:25:50.000Z</time>
      </trkpt>
      <trkpt lat="45.18446" lon="6.36616">
        <ele>2518</ele>
        <time>2014-01-11T09:25:51.000Z</time>
      </trkpt>
      <trkpt lat="45.18447" lon="6.36617">
        <ele>2518.1999511719</ele>
        <time>2014-01-11T09:25:52.000Z</time>
      </trkpt>
      <trkpt lat="45.18447" lon="6.36617">
        <ele>2518.3999023438</ele>
        <time>2014-01-11T09:25:53.000Z</time>
      </trkpt>
      <trkpt lat="45.18447" lon="6.36617">
        <ele>2518.3999023438</ele>
        <time>2014-01-11T09:25:54.000Z</time>
      </trkpt>
      <trkpt lat="45.18447" lon="6.36617">
        <ele>2518.6000976562</ele>
        <time>2014-01-11T09:25:55.000Z</time>
      </trkpt>
      <trkpt lat="45.18447" lon="6.36617">
        <ele>2518.8000488281</ele>
        <time>2014-01-11T09:25:56.000Z</time>
      </trkpt>
      <trkpt lat="45.18447" lon="6.36617">
        <ele>2518.8000488281</ele>
        <time>2014-01-11T09:25:57.000Z</time>
      </trkpt>
      <trkpt lat="45.18447" lon="6.36617">
        <ele>2518.8000488281</ele>
        <time>2014-01-11T09:25:58.000Z</time>
      </trkpt>
      <trkpt lat="45.18447" lon="6.36617">
        <ele>2518.8000488281</ele>
        <time>2014-01-11T09:25:59.000Z</time>
      </trkpt>
      <trkpt lat="45.18447" lon="6.36617">
        <ele>2518.8000488281</ele>
        <time>2014-01-11T09:26:00.000Z</time>
      </trkpt>
      <trkpt lat="45.18447" lon="6.36617">
        <ele>2518.8000488281</ele>
        <time>2014-01-11T09:26:03.000Z</time>
      </trkpt>
      <trkpt lat="45.18447" lon="6.36617">
        <ele>2518.8000488281</ele>
        <time>2014-01-11T09:26:10.000Z</time>
      </trkpt>
      <trkpt lat="45.18447" lon="6.36617">
        <ele>2518.8000488281</ele>
        <time>2014-01-11T09:26:11.000Z</time>
      </trkpt>
      <trkpt lat="45.18447" lon="6.36617">
        <ele>2518.8000488281</ele>
        <time>2014-01-11T09:26:12.000Z</time>
      </trkpt>
      <trkpt lat="45.18447" lon="6.36617">
        <ele>2518.8000488281</ele>
        <time>2014-01-11T09:26:13.000Z</time>
      </trkpt>
      <trkpt lat="45.18447" lon="6.36617">
        <ele>2518.8000488281</ele>
        <time>2014-01-11T09:26:14.000Z</time>
      </trkpt>
      <trkpt lat="45.18447" lon="6.36617">
        <ele>2518.8000488281</ele>
        <time>2014-01-11T09:26:15.000Z</time>
      </trkpt>
      <trkpt lat="45.18447" lon="6.36617">
        <ele>2518.8000488281</ele>
        <time>2014-01-11T09:26:17.000Z</time>
      </trkpt>
      <trkpt lat="45.18447" lon="6.36617">
        <ele>2518.8000488281</ele>
        <time>2014-01-11T09:26:18.000Z</time>
      </trkpt>
      <trkpt lat="45.18447" lon="6.36617">
        <ele>2519</ele>
        <time>2014-01-11T09:26:19.000Z</time>
      </trkpt>
      <trkpt lat="45.18447" lon="6.36617">
        <ele>2519</ele>
        <time>2014-01-11T09:26:20.000Z</time>
      </trkpt>
      <trkpt lat="45.18447" lon="6.36617">
        <ele>2519.1999511719</ele>
        <time>2014-01-11T09:26:21.000Z</time>
      </trkpt>
      <trkpt lat="45.18447" lon="6.36617">
        <ele>2519.1999511719</ele>
        <time>2014-01-11T09:26:22.000Z</time>
      </trkpt>
      <trkpt lat="45.18447" lon="6.36617">
        <ele>2519.1999511719</ele>
        <time>2014-01-11T09:26:23.000Z</time>
      </trkpt>
      <trkpt lat="45.18447" lon="6.36617">
        <ele>2519.1999511719</ele>
        <time>2014-01-11T09:26:24.000Z</time>
      </trkpt>
      <trkpt lat="45.18447" lon="6.36617">
        <ele>2519.1999511719</ele>
        <time>2014-01-11T09:26:25.000Z</time>
      </trkpt>
      <trkpt lat="45.18447" lon="6.36617">
        <ele>2519.1999511719</ele>
        <time>2014-01-11T09:26:26.000Z</time>
      </trkpt>
      <trkpt lat="45.18447" lon="6.36617">
        <ele>2519.1999511719</ele>
        <time>2014-01-11T09:26:29.000Z</time>
      </trkpt>
      <trkpt lat="45.18447" lon="6.36617">
        <ele>2519.1999511719</ele>
        <time>2014-01-11T09:26:30.000Z</time>
      </trkpt>
      <trkpt lat="45.18447" lon="6.36617">
        <ele>2519.1999511719</ele>
        <time>2014-01-11T09:26:31.000Z</time>
      </trkpt>
      <trkpt lat="45.18447" lon="6.36617">
        <ele>2519</ele>
        <time>2014-01-11T09:26:32.000Z</time>
      </trkpt>
      <trkpt lat="45.18447" lon="6.36617">
        <ele>2519</ele>
        <time>2014-01-11T09:26:33.000Z</time>
      </trkpt>
      <trkpt lat="45.18447" lon="6.36617">
        <ele>2519.1999511719</ele>
        <time>2014-01-11T09:26:34.000Z</time>
      </trkpt>
      <trkpt lat="45.18447" lon="6.36617">
        <ele>2519.3999023438</ele>
        <time>2014-01-11T09:26:35.000Z</time>
      </trkpt>
      <trkpt lat="45.18447" lon="6.36617">
        <ele>2519.3999023438</ele>
        <time>2014-01-11T09:26:36.000Z</time>
      </trkpt>
      <trkpt lat="45.18447" lon="6.36617">
        <ele>2519.6000976562</ele>
        <time>2014-01-11T09:26:37.000Z</time>
      </trkpt>
      <trkpt lat="45.18447" lon="6.36617">
        <ele>2519.6000976562</ele>
        <time>2014-01-11T09:26:38.000Z</time>
      </trkpt>
      <trkpt lat="45.18447" lon="6.36618">
        <ele>2519.6000976562</ele>
        <time>2014-01-11T09:26:39.000Z</time>
      </trkpt>
      <trkpt lat="45.18448" lon="6.3662">
        <ele>2519.6000976562</ele>
        <time>2014-01-11T09:26:41.000Z</time>
      </trkpt>
      <trkpt lat="45.18448" lon="6.36621">
        <ele>2519.6000976562</ele>
        <time>2014-01-11T09:26:42.000Z</time>
      </trkpt>
      <trkpt lat="45.18448" lon="6.36623">
        <ele>2519.8000488281</ele>
        <time>2014-01-11T09:26:43.000Z</time>
      </trkpt>
      <trkpt lat="45.18448" lon="6.36624">
        <ele>2520</ele>
        <time>2014-01-11T09:26:44.000Z</time>
      </trkpt>
      <trkpt lat="45.18448" lon="6.36625">
        <ele>2520.1999511719</ele>
        <time>2014-01-11T09:26:45.000Z</time>
      </trkpt>
      <trkpt lat="45.18449" lon="6.36626">
        <ele>2520.1999511719</ele>
        <time>2014-01-11T09:26:46.000Z</time>
      </trkpt>
      <trkpt lat="45.18449" lon="6.36626">
        <ele>2520.3999023438</ele>
        <time>2014-01-11T09:26:47.000Z</time>
      </trkpt>
      <trkpt lat="45.18449" lon="6.36626">
        <ele>2520.6000976562</ele>
        <time>2014-01-11T09:26:48.000Z</time>
      </trkpt>
      <trkpt lat="45.18449" lon="6.36626">
        <ele>2520.8000488281</ele>
        <time>2014-01-11T09:26:49.000Z</time>
      </trkpt>
      <trkpt lat="45.1845" lon="6.36627">
        <ele>2521</ele>
        <time>2014-01-11T09:26:50.000Z</time>
      </trkpt>
      <trkpt lat="45.1845" lon="6.36628">
        <ele>2521.1999511719</ele>
        <time>2014-01-11T09:26:51.000Z</time>
      </trkpt>
      <trkpt lat="45.1845" lon="6.36629">
        <ele>2521.3999023438</ele>
        <time>2014-01-11T09:26:52.000Z</time>
      </trkpt>
      <trkpt lat="45.18451" lon="6.36629">
        <ele>2521.6000976562</ele>
        <time>2014-01-11T09:26:53.000Z</time>
      </trkpt>
      <trkpt lat="45.18451" lon="6.3663">
        <ele>2521.8000488281</ele>
        <time>2014-01-11T09:26:54.000Z</time>
      </trkpt>
      <trkpt lat="45.18451" lon="6.3663">
        <ele>2522.1999511719</ele>
        <time>2014-01-11T09:26:55.000Z</time>
      </trkpt>
      <trkpt lat="45.18452" lon="6.36631">
        <ele>2522.3999023438</ele>
        <time>2014-01-11T09:26:56.000Z</time>
      </trkpt>
      <trkpt lat="45.18452" lon="6.36631">
        <ele>2522.6000976562</ele>
        <time>2014-01-11T09:26:57.000Z</time>
      </trkpt>
      <trkpt lat="45.18453" lon="6.36632">
        <ele>2522.8000488281</ele>
        <time>2014-01-11T09:26:58.000Z</time>
      </trkpt>
      <trkpt lat="45.18453" lon="6.36632">
        <ele>2523</ele>
        <time>2014-01-11T09:26:59.000Z</time>
      </trkpt>
      <trkpt lat="45.18453" lon="6.36633">
        <ele>2523.1999511719</ele>
        <time>2014-01-11T09:27:00.000Z</time>
      </trkpt>
      <trkpt lat="45.18453" lon="6.36634">
        <ele>2523.3999023438</ele>
        <time>2014-01-11T09:27:01.000Z</time>
      </trkpt>
      <trkpt lat="45.18454" lon="6.36635">
        <ele>2523.6000976562</ele>
        <time>2014-01-11T09:27:02.000Z</time>
      </trkpt>
      <trkpt lat="45.18454" lon="6.36636">
        <ele>2523.8000488281</ele>
        <time>2014-01-11T09:27:03.000Z</time>
      </trkpt>
      <trkpt lat="45.18454" lon="6.36637">
        <ele>2524</ele>
        <time>2014-01-11T09:27:04.000Z</time>
      </trkpt>
      <trkpt lat="45.18455" lon="6.36638">
        <ele>2524.1999511719</ele>
        <time>2014-01-11T09:27:05.000Z</time>
      </trkpt>
      <trkpt lat="45.18456" lon="6.36639">
        <ele>2524.3999023438</ele>
        <time>2014-01-11T09:27:06.000Z</time>
      </trkpt>
      <trkpt lat="45.18456" lon="6.36639">
        <ele>2524.6000976562</ele>
        <time>2014-01-11T09:27:07.000Z</time>
      </trkpt>
      <trkpt lat="45.18456" lon="6.3664">
        <ele>2524.8000488281</ele>
        <time>2014-01-11T09:27:08.000Z</time>
      </trkpt>
      <trkpt lat="45.18457" lon="6.3664">
        <ele>2525</ele>
        <time>2014-01-11T09:27:09.000Z</time>
      </trkpt>
      <trkpt lat="45.18458" lon="6.3664">
        <ele>2525</ele>
        <time>2014-01-11T09:27:10.000Z</time>
      </trkpt>
      <trkpt lat="45.18458" lon="6.36641">
        <ele>2525.1999511719</ele>
        <time>2014-01-11T09:27:11.000Z</time>
      </trkpt>
      <trkpt lat="45.18459" lon="6.36642">
        <ele>2525.3999023438</ele>
        <time>2014-01-11T09:27:12.000Z</time>
      </trkpt>
      <trkpt lat="45.18459" lon="6.36643">
        <ele>2525.6000976562</ele>
        <time>2014-01-11T09:27:13.000Z</time>
      </trkpt>
      <trkpt lat="45.1846" lon="6.36643">
        <ele>2525.6000976562</ele>
        <time>2014-01-11T09:27:14.000Z</time>
      </trkpt>
      <trkpt lat="45.1846" lon="6.36644">
        <ele>2526</ele>
        <time>2014-01-11T09:27:15.000Z</time>
      </trkpt>
      <trkpt lat="45.1846" lon="6.36644">
        <ele>2526.1999511719</ele>
        <time>2014-01-11T09:27:16.000Z</time>
      </trkpt>
      <trkpt lat="45.18461" lon="6.36645">
        <ele>2526.3999023438</ele>
        <time>2014-01-11T09:27:17.000Z</time>
      </trkpt>
      <trkpt lat="45.18462" lon="6.36645">
        <ele>2526.6000976562</ele>
        <time>2014-01-11T09:27:18.000Z</time>
      </trkpt>
      <trkpt lat="45.18462" lon="6.36646">
        <ele>2527</ele>
        <time>2014-01-11T09:27:19.000Z</time>
      </trkpt>
      <trkpt lat="45.18463" lon="6.36646">
        <ele>2527.1999511719</ele>
        <time>2014-01-11T09:27:20.000Z</time>
      </trkpt>
      <trkpt lat="45.18463" lon="6.36646">
        <ele>2527.3999023438</ele>
        <time>2014-01-11T09:27:21.000Z</time>
      </trkpt>
      <trkpt lat="45.18464" lon="6.36646">
        <ele>2527.6000976562</ele>
        <time>2014-01-11T09:27:22.000Z</time>
      </trkpt>
      <trkpt lat="45.18464" lon="6.36647">
        <ele>2527.8000488281</ele>
        <time>2014-01-11T09:27:23.000Z</time>
      </trkpt>
      <trkpt lat="45.18465" lon="6.36647">
        <ele>2528</ele>
        <time>2014-01-11T09:27:24.000Z</time>
      </trkpt>
      <trkpt lat="45.18465" lon="6.36648">
        <ele>2528.1999511719</ele>
        <time>2014-01-11T09:27:25.000Z</time>
      </trkpt>
      <trkpt lat="45.18465" lon="6.36649">
        <ele>2528.3999023438</ele>
        <time>2014-01-11T09:27:26.000Z</time>
      </trkpt>
      <trkpt lat="45.18465" lon="6.36649">
        <ele>2528.6000976562</ele>
        <time>2014-01-11T09:27:27.000Z</time>
      </trkpt>
      <trkpt lat="45.18466" lon="6.36649">
        <ele>2528.6000976562</ele>
        <time>2014-01-11T09:27:28.000Z</time>
      </trkpt>
      <trkpt lat="45.18467" lon="6.3665">
        <ele>2528.8000488281</ele>
        <time>2014-01-11T09:27:29.000Z</time>
      </trkpt>
      <trkpt lat="45.18467" lon="6.3665">
        <ele>2529</ele>
        <time>2014-01-11T09:27:30.000Z</time>
      </trkpt>
      <trkpt lat="45.18468" lon="6.3665">
        <ele>2529.1999511719</ele>
        <time>2014-01-11T09:27:31.000Z</time>
      </trkpt>
      <trkpt lat="45.18468" lon="6.3665">
        <ele>2529.3999023438</ele>
        <time>2014-01-11T09:27:32.000Z</time>
      </trkpt>
      <trkpt lat="45.18468" lon="6.36651">
        <ele>2529.6000976562</ele>
        <time>2014-01-11T09:27:33.000Z</time>
      </trkpt>
      <trkpt lat="45.18468" lon="6.3665">
        <ele>2529.8000488281</ele>
        <time>2014-01-11T09:27:34.000Z</time>
      </trkpt>
      <trkpt lat="45.18468" lon="6.36651">
        <ele>2530</ele>
        <time>2014-01-11T09:27:35.000Z</time>
      </trkpt>
      <trkpt lat="45.18468" lon="6.36651">
        <ele>2530.3999023438</ele>
        <time>2014-01-11T09:27:36.000Z</time>
      </trkpt>
      <trkpt lat="45.18469" lon="6.36651">
        <ele>2530.6000976562</ele>
        <time>2014-01-11T09:27:37.000Z</time>
      </trkpt>
      <trkpt lat="45.18469" lon="6.3665">
        <ele>2530.6000976562</ele>
        <time>2014-01-11T09:27:38.000Z</time>
      </trkpt>
      <trkpt lat="45.18469" lon="6.36651">
        <ele>2530.8000488281</ele>
        <time>2014-01-11T09:27:39.000Z</time>
      </trkpt>
      <trkpt lat="45.18469" lon="6.36651">
        <ele>2531</ele>
        <time>2014-01-11T09:27:40.000Z</time>
      </trkpt>
      <trkpt lat="45.18469" lon="6.36651">
        <ele>2531.3999023438</ele>
        <time>2014-01-11T09:27:41.000Z</time>
      </trkpt>
      <trkpt lat="45.18469" lon="6.36652">
        <ele>2531.6000976562</ele>
        <time>2014-01-11T09:27:42.000Z</time>
      </trkpt>
      <trkpt lat="45.1847" lon="6.36652">
        <ele>2532.1999511719</ele>
        <time>2014-01-11T09:27:43.000Z</time>
      </trkpt>
      <trkpt lat="45.1847" lon="6.36652">
        <ele>2532.1999511719</ele>
        <time>2014-01-11T09:27:44.000Z</time>
      </trkpt>
      <trkpt lat="45.1847" lon="6.36652">
        <ele>2532.3999023438</ele>
        <time>2014-01-11T09:27:45.000Z</time>
      </trkpt>
      <trkpt lat="45.18471" lon="6.36652">
        <ele>2532.6000976562</ele>
        <time>2014-01-11T09:27:46.000Z</time>
      </trkpt>
      <trkpt lat="45.18472" lon="6.36652">
        <ele>2532.8000488281</ele>
        <time>2014-01-11T09:27:47.000Z</time>
      </trkpt>
      <trkpt lat="45.18472" lon="6.36652">
        <ele>2533</ele>
        <time>2014-01-11T09:27:48.000Z</time>
      </trkpt>
      <trkpt lat="45.18472" lon="6.36652">
        <ele>2533.1999511719</ele>
        <time>2014-01-11T09:27:49.000Z</time>
      </trkpt>
      <trkpt lat="45.18472" lon="6.36652">
        <ele>2533.3999023438</ele>
        <time>2014-01-11T09:27:50.000Z</time>
      </trkpt>
      <trkpt lat="45.18472" lon="6.36653">
        <ele>2533.6000976562</ele>
        <time>2014-01-11T09:27:51.000Z</time>
      </trkpt>
      <trkpt lat="45.18472" lon="6.36653">
        <ele>2533.6000976562</ele>
        <time>2014-01-11T09:27:52.000Z</time>
      </trkpt>
      <trkpt lat="45.18472" lon="6.36653">
        <ele>2533.6000976562</ele>
        <time>2014-01-11T09:27:53.000Z</time>
      </trkpt>
      <trkpt lat="45.18472" lon="6.36653">
        <ele>2533.8000488281</ele>
        <time>2014-01-11T09:27:54.000Z</time>
      </trkpt>
      <trkpt lat="45.18472" lon="6.36653">
        <ele>2534</ele>
        <time>2014-01-11T09:27:55.000Z</time>
      </trkpt>
      <trkpt lat="45.18472" lon="6.36653">
        <ele>2534.1999511719</ele>
        <time>2014-01-11T09:27:56.000Z</time>
      </trkpt>
      <trkpt lat="45.18472" lon="6.36653">
        <ele>2534.1999511719</ele>
        <time>2014-01-11T09:27:57.000Z</time>
      </trkpt>
      <trkpt lat="45.18472" lon="6.36653">
        <ele>2534.3999023438</ele>
        <time>2014-01-11T09:27:58.000Z</time>
      </trkpt>
      <trkpt lat="45.18472" lon="6.36653">
        <ele>2534.6000976562</ele>
        <time>2014-01-11T09:27:59.000Z</time>
      </trkpt>
      <trkpt lat="45.18473" lon="6.36654">
        <ele>2534.8000488281</ele>
        <time>2014-01-11T09:28:00.000Z</time>
      </trkpt>
      <trkpt lat="45.18473" lon="6.36654">
        <ele>2534.8000488281</ele>
        <time>2014-01-11T09:28:01.000Z</time>
      </trkpt>
      <trkpt lat="45.18473" lon="6.36654">
        <ele>2535</ele>
        <time>2014-01-11T09:28:02.000Z</time>
      </trkpt>
      <trkpt lat="45.18474" lon="6.36655">
        <ele>2535.1999511719</ele>
        <time>2014-01-11T09:28:03.000Z</time>
      </trkpt>
      <trkpt lat="45.18475" lon="6.36656">
        <ele>2535.1999511719</ele>
        <time>2014-01-11T09:28:04.000Z</time>
      </trkpt>
      <trkpt lat="45.18475" lon="6.36657">
        <ele>2535.3999023438</ele>
        <time>2014-01-11T09:28:05.000Z</time>
      </trkpt>
      <trkpt lat="45.18475" lon="6.36657">
        <ele>2535.8000488281</ele>
        <time>2014-01-11T09:28:06.000Z</time>
      </trkpt>
      <trkpt lat="45.18475" lon="6.36657">
        <ele>2536.1999511719</ele>
        <time>2014-01-11T09:28:07.000Z</time>
      </trkpt>
      <trkpt lat="45.18475" lon="6.36657">
        <ele>2536.1999511719</ele>
        <time>2014-01-11T09:28:08.000Z</time>
      </trkpt>
      <trkpt lat="45.18475" lon="6.36657">
        <ele>2536.3999023438</ele>
        <time>2014-01-11T09:28:09.000Z</time>
      </trkpt>
      <trkpt lat="45.18476" lon="6.36658">
        <ele>2536.6000976562</ele>
        <time>2014-01-11T09:28:10.000Z</time>
      </trkpt>
      <trkpt lat="45.18476" lon="6.36659">
        <ele>2536.8000488281</ele>
        <time>2014-01-11T09:28:11.000Z</time>
      </trkpt>
      <trkpt lat="45.18477" lon="6.36659">
        <ele>2537</ele>
        <time>2014-01-11T09:28:12.000Z</time>
      </trkpt>
      <trkpt lat="45.18477" lon="6.36659">
        <ele>2537.1999511719</ele>
        <time>2014-01-11T09:28:13.000Z</time>
      </trkpt>
      <trkpt lat="45.18478" lon="6.3666">
        <ele>2537.3999023438</ele>
        <time>2014-01-11T09:28:14.000Z</time>
      </trkpt>
      <trkpt lat="45.18478" lon="6.3666">
        <ele>2537.3999023438</ele>
        <time>2014-01-11T09:28:15.000Z</time>
      </trkpt>
      <trkpt lat="45.18479" lon="6.3666">
        <ele>2537.6000976562</ele>
        <time>2014-01-11T09:28:16.000Z</time>
      </trkpt>
      <trkpt lat="45.18479" lon="6.36661">
        <ele>2537.8000488281</ele>
        <time>2014-01-11T09:28:17.000Z</time>
      </trkpt>
      <trkpt lat="45.1848" lon="6.36662">
        <ele>2538</ele>
        <time>2014-01-11T09:28:18.000Z</time>
      </trkpt>
      <trkpt lat="45.1848" lon="6.36662">
        <ele>2538.1999511719</ele>
        <time>2014-01-11T09:28:19.000Z</time>
      </trkpt>
      <trkpt lat="45.1848" lon="6.36662">
        <ele>2538.3999023438</ele>
        <time>2014-01-11T09:28:20.000Z</time>
      </trkpt>
      <trkpt lat="45.1848" lon="6.36663">
        <ele>2538.3999023438</ele>
        <time>2014-01-11T09:28:21.000Z</time>
      </trkpt>
      <trkpt lat="45.18481" lon="6.36663">
        <ele>2538.6000976562</ele>
        <time>2014-01-11T09:28:22.000Z</time>
      </trkpt>
      <trkpt lat="45.18482" lon="6.36664">
        <ele>2538.6000976562</ele>
        <time>2014-01-11T09:28:23.000Z</time>
      </trkpt>
      <trkpt lat="45.18483" lon="6.36664">
        <ele>2538.8000488281</ele>
        <time>2014-01-11T09:28:24.000Z</time>
      </trkpt>
      <trkpt lat="45.18483" lon="6.36664">
        <ele>2539</ele>
        <time>2014-01-11T09:28:25.000Z</time>
      </trkpt>
      <trkpt lat="45.18483" lon="6.36665">
        <ele>2539</ele>
        <time>2014-01-11T09:28:26.000Z</time>
      </trkpt>
      <trkpt lat="45.18484" lon="6.36665">
        <ele>2539.1999511719</ele>
        <time>2014-01-11T09:28:27.000Z</time>
      </trkpt>
      <trkpt lat="45.18484" lon="6.36666">
        <ele>2539.3999023438</ele>
        <time>2014-01-11T09:28:28.000Z</time>
      </trkpt>
      <trkpt lat="45.18485" lon="6.36666">
        <ele>2539.6000976562</ele>
        <time>2014-01-11T09:28:29.000Z</time>
      </trkpt>
      <trkpt lat="45.18485" lon="6.36666">
        <ele>2539.8000488281</ele>
        <time>2014-01-11T09:28:30.000Z</time>
      </trkpt>
      <trkpt lat="45.18485" lon="6.36667">
        <ele>2540</ele>
        <time>2014-01-11T09:28:31.000Z</time>
      </trkpt>
      <trkpt lat="45.18485" lon="6.36667">
        <ele>2540.1999511719</ele>
        <time>2014-01-11T09:28:32.000Z</time>
      </trkpt>
      <trkpt lat="45.18486" lon="6.36667">
        <ele>2540.3999023438</ele>
        <time>2014-01-11T09:28:33.000Z</time>
      </trkpt>
      <trkpt lat="45.18486" lon="6.36667">
        <ele>2540.3999023438</ele>
        <time>2014-01-11T09:28:34.000Z</time>
      </trkpt>
      <trkpt lat="45.18486" lon="6.36668">
        <ele>2540.6000976562</ele>
        <time>2014-01-11T09:28:35.000Z</time>
      </trkpt>
      <trkpt lat="45.18486" lon="6.36668">
        <ele>2541</ele>
        <time>2014-01-11T09:28:36.000Z</time>
      </trkpt>
      <trkpt lat="45.18486" lon="6.36669">
        <ele>2541.1999511719</ele>
        <time>2014-01-11T09:28:37.000Z</time>
      </trkpt>
      <trkpt lat="45.18486" lon="6.36669">
        <ele>2541.3999023438</ele>
        <time>2014-01-11T09:28:38.000Z</time>
      </trkpt>
      <trkpt lat="45.18486" lon="6.3667">
        <ele>2541.6000976562</ele>
        <time>2014-01-11T09:28:39.000Z</time>
      </trkpt>
      <trkpt lat="45.18486" lon="6.3667">
        <ele>2541.8000488281</ele>
        <time>2014-01-11T09:28:40.000Z</time>
      </trkpt>
      <trkpt lat="45.18487" lon="6.36671">
        <ele>2542</ele>
        <time>2014-01-11T09:28:41.000Z</time>
      </trkpt>
      <trkpt lat="45.18487" lon="6.36672">
        <ele>2542.1999511719</ele>
        <time>2014-01-11T09:28:42.000Z</time>
      </trkpt>
      <trkpt lat="45.18487" lon="6.36673">
        <ele>2542.1999511719</ele>
        <time>2014-01-11T09:28:43.000Z</time>
      </trkpt>
      <trkpt lat="45.18487" lon="6.36673">
        <ele>2542.3999023438</ele>
        <time>2014-01-11T09:28:44.000Z</time>
      </trkpt>
      <trkpt lat="45.18488" lon="6.36674">
        <ele>2542.6000976562</ele>
        <time>2014-01-11T09:28:45.000Z</time>
      </trkpt>
      <trkpt lat="45.18488" lon="6.36675">
        <ele>2542.6000976562</ele>
        <time>2014-01-11T09:28:46.000Z</time>
      </trkpt>
      <trkpt lat="45.18489" lon="6.36675">
        <ele>2542.8000488281</ele>
        <time>2014-01-11T09:28:47.000Z</time>
      </trkpt>
      <trkpt lat="45.1849" lon="6.36676">
        <ele>2543</ele>
        <time>2014-01-11T09:28:48.000Z</time>
      </trkpt>
      <trkpt lat="45.1849" lon="6.36677">
        <ele>2543.1999511719</ele>
        <time>2014-01-11T09:28:49.000Z</time>
      </trkpt>
      <trkpt lat="45.18491" lon="6.36678">
        <ele>2543.3999023438</ele>
        <time>2014-01-11T09:28:50.000Z</time>
      </trkpt>
      <trkpt lat="45.18491" lon="6.36678">
        <ele>2543.6000976562</ele>
        <time>2014-01-11T09:28:51.000Z</time>
      </trkpt>
      <trkpt lat="45.18492" lon="6.36679">
        <ele>2543.8000488281</ele>
        <time>2014-01-11T09:28:52.000Z</time>
      </trkpt>
      <trkpt lat="45.18492" lon="6.3668">
        <ele>2544</ele>
        <time>2014-01-11T09:28:53.000Z</time>
      </trkpt>
      <trkpt lat="45.18492" lon="6.36681">
        <ele>2544.1999511719</ele>
        <time>2014-01-11T09:28:54.000Z</time>
      </trkpt>
      <trkpt lat="45.18492" lon="6.36681">
        <ele>2544.6000976562</ele>
        <time>2014-01-11T09:28:55.000Z</time>
      </trkpt>
      <trkpt lat="45.18492" lon="6.36682">
        <ele>2544.6000976562</ele>
        <time>2014-01-11T09:28:56.000Z</time>
      </trkpt>
      <trkpt lat="45.18492" lon="6.36683">
        <ele>2544.8000488281</ele>
        <time>2014-01-11T09:28:57.000Z</time>
      </trkpt>
      <trkpt lat="45.18492" lon="6.36683">
        <ele>2544.8000488281</ele>
        <time>2014-01-11T09:28:58.000Z</time>
      </trkpt>
      <trkpt lat="45.18493" lon="6.36684">
        <ele>2545</ele>
        <time>2014-01-11T09:28:59.000Z</time>
      </trkpt>
      <trkpt lat="45.18493" lon="6.36684">
        <ele>2545.1999511719</ele>
        <time>2014-01-11T09:29:00.000Z</time>
      </trkpt>
      <trkpt lat="45.18493" lon="6.36684">
        <ele>2545.3999023438</ele>
        <time>2014-01-11T09:29:01.000Z</time>
      </trkpt>
      <trkpt lat="45.18493" lon="6.36685">
        <ele>2545.3999023438</ele>
        <time>2014-01-11T09:29:02.000Z</time>
      </trkpt>
      <trkpt lat="45.18493" lon="6.36685">
        <ele>2545.8000488281</ele>
        <time>2014-01-11T09:29:03.000Z</time>
      </trkpt>
      <trkpt lat="45.18494" lon="6.36685">
        <ele>2546</ele>
        <time>2014-01-11T09:29:04.000Z</time>
      </trkpt>
      <trkpt lat="45.18494" lon="6.36685">
        <ele>2546.1999511719</ele>
        <time>2014-01-11T09:29:05.000Z</time>
      </trkpt>
      <trkpt lat="45.18494" lon="6.36685">
        <ele>2546.1999511719</ele>
        <time>2014-01-11T09:29:06.000Z</time>
      </trkpt>
      <trkpt lat="45.18494" lon="6.36685">
        <ele>2546.3999023438</ele>
        <time>2014-01-11T09:29:07.000Z</time>
      </trkpt>
      <trkpt lat="45.18495" lon="6.36686">
        <ele>2546.3999023438</ele>
        <time>2014-01-11T09:29:08.000Z</time>
      </trkpt>
      <trkpt lat="45.18495" lon="6.36687">
        <ele>2546.6000976562</ele>
        <time>2014-01-11T09:29:09.000Z</time>
      </trkpt>
      <trkpt lat="45.18496" lon="6.36688">
        <ele>2546.8000488281</ele>
        <time>2014-01-11T09:29:10.000Z</time>
      </trkpt>
      <trkpt lat="45.18496" lon="6.36689">
        <ele>2547</ele>
        <time>2014-01-11T09:29:11.000Z</time>
      </trkpt>
      <trkpt lat="45.18497" lon="6.3669">
        <ele>2547.1999511719</ele>
        <time>2014-01-11T09:29:12.000Z</time>
      </trkpt>
      <trkpt lat="45.18497" lon="6.36691">
        <ele>2547.6000976562</ele>
        <time>2014-01-11T09:29:13.000Z</time>
      </trkpt>
      <trkpt lat="45.18497" lon="6.36692">
        <ele>2547.8000488281</ele>
        <time>2014-01-11T09:29:15.000Z</time>
      </trkpt>
      <trkpt lat="45.18498" lon="6.36693">
        <ele>2548</ele>
        <time>2014-01-11T09:29:16.000Z</time>
      </trkpt>
      <trkpt lat="45.18498" lon="6.36693">
        <ele>2548.1999511719</ele>
        <time>2014-01-11T09:29:17.000Z</time>
      </trkpt>
      <trkpt lat="45.18499" lon="6.36694">
        <ele>2548.3999023438</ele>
        <time>2014-01-11T09:29:18.000Z</time>
      </trkpt>
      <trkpt lat="45.18499" lon="6.36695">
        <ele>2548.6000976562</ele>
        <time>2014-01-11T09:29:19.000Z</time>
      </trkpt>
      <trkpt lat="45.18499" lon="6.36695">
        <ele>2548.6000976562</ele>
        <time>2014-01-11T09:29:20.000Z</time>
      </trkpt>
      <trkpt lat="45.185" lon="6.36695">
        <ele>2548.8000488281</ele>
        <time>2014-01-11T09:29:21.000Z</time>
      </trkpt>
      <trkpt lat="45.18501" lon="6.36695">
        <ele>2548.8000488281</ele>
        <time>2014-01-11T09:29:22.000Z</time>
      </trkpt>
      <trkpt lat="45.18501" lon="6.36696">
        <ele>2549</ele>
        <time>2014-01-11T09:29:23.000Z</time>
      </trkpt>
      <trkpt lat="45.18501" lon="6.36696">
        <ele>2549</ele>
        <time>2014-01-11T09:29:24.000Z</time>
      </trkpt>
      <trkpt lat="45.18501" lon="6.36696">
        <ele>2549.1999511719</ele>
        <time>2014-01-11T09:29:25.000Z</time>
      </trkpt>
      <trkpt lat="45.18501" lon="6.36696">
        <ele>2549.6000976562</ele>
        <time>2014-01-11T09:29:26.000Z</time>
      </trkpt>
      <trkpt lat="45.18502" lon="6.36696">
        <ele>2549.8000488281</ele>
        <time>2014-01-11T09:29:27.000Z</time>
      </trkpt>
      <trkpt lat="45.18502" lon="6.36696">
        <ele>2550</ele>
        <time>2014-01-11T09:29:28.000Z</time>
      </trkpt>
      <trkpt lat="45.18502" lon="6.36697">
        <ele>2550.1999511719</ele>
        <time>2014-01-11T09:29:29.000Z</time>
      </trkpt>
      <trkpt lat="45.18502" lon="6.36697">
        <ele>2550.3999023438</ele>
        <time>2014-01-11T09:29:30.000Z</time>
      </trkpt>
      <trkpt lat="45.18503" lon="6.36698">
        <ele>2550.3999023438</ele>
        <time>2014-01-11T09:29:31.000Z</time>
      </trkpt>
      <trkpt lat="45.18503" lon="6.367">
        <ele>2550.6000976562</ele>
        <time>2014-01-11T09:29:32.000Z</time>
      </trkpt>
      <trkpt lat="45.18504" lon="6.36701">
        <ele>2550.8000488281</ele>
        <time>2014-01-11T09:29:33.000Z</time>
      </trkpt>
      <trkpt lat="45.18504" lon="6.36702">
        <ele>2550.8000488281</ele>
        <time>2014-01-11T09:29:34.000Z</time>
      </trkpt>
      <trkpt lat="45.18505" lon="6.36702">
        <ele>2551</ele>
        <time>2014-01-11T09:29:35.000Z</time>
      </trkpt>
      <trkpt lat="45.18505" lon="6.36703">
        <ele>2551.1999511719</ele>
        <time>2014-01-11T09:29:36.000Z</time>
      </trkpt>
      <trkpt lat="45.18505" lon="6.36703">
        <ele>2551.3999023438</ele>
        <time>2014-01-11T09:29:37.000Z</time>
      </trkpt>
      <trkpt lat="45.18505" lon="6.36704">
        <ele>2551.6000976562</ele>
        <time>2014-01-11T09:29:38.000Z</time>
      </trkpt>
      <trkpt lat="45.18505" lon="6.36704">
        <ele>2551.8000488281</ele>
        <time>2014-01-11T09:29:39.000Z</time>
      </trkpt>
      <trkpt lat="45.18505" lon="6.36705">
        <ele>2552</ele>
        <time>2014-01-11T09:29:40.000Z</time>
      </trkpt>
      <trkpt lat="45.18505" lon="6.36705">
        <ele>2552.1999511719</ele>
        <time>2014-01-11T09:29:41.000Z</time>
      </trkpt>
      <trkpt lat="45.18506" lon="6.36705">
        <ele>2552.1999511719</ele>
        <time>2014-01-11T09:29:42.000Z</time>
      </trkpt>
      <trkpt lat="45.18506" lon="6.36705">
        <ele>2552.3999023438</ele>
        <time>2014-01-11T09:29:43.000Z</time>
      </trkpt>
      <trkpt lat="45.18506" lon="6.36706">
        <ele>2552.6000976562</ele>
        <time>2014-01-11T09:29:44.000Z</time>
      </trkpt>
      <trkpt lat="45.18506" lon="6.36707">
        <ele>2552.8000488281</ele>
        <time>2014-01-11T09:29:45.000Z</time>
      </trkpt>
      <trkpt lat="45.18507" lon="6.36707">
        <ele>2553</ele>
        <time>2014-01-11T09:29:46.000Z</time>
      </trkpt>
      <trkpt lat="45.18508" lon="6.36708">
        <ele>2553.1999511719</ele>
        <time>2014-01-11T09:29:47.000Z</time>
      </trkpt>
      <trkpt lat="45.18509" lon="6.36709">
        <ele>2553.3999023438</ele>
        <time>2014-01-11T09:29:48.000Z</time>
      </trkpt>
      <trkpt lat="45.1851" lon="6.36709">
        <ele>2553.6000976562</ele>
        <time>2014-01-11T09:29:49.000Z</time>
      </trkpt>
      <trkpt lat="45.18511" lon="6.3671">
        <ele>2553.6000976562</ele>
        <time>2014-01-11T09:29:50.000Z</time>
      </trkpt>
      <trkpt lat="45.18511" lon="6.36711">
        <ele>2553.8000488281</ele>
        <time>2014-01-11T09:29:51.000Z</time>
      </trkpt>
      <trkpt lat="45.18512" lon="6.36712">
        <ele>2553.8000488281</ele>
        <time>2014-01-11T09:29:52.000Z</time>
      </trkpt>
      <trkpt lat="45.18512" lon="6.36712">
        <ele>2554</ele>
        <time>2014-01-11T09:29:53.000Z</time>
      </trkpt>
      <trkpt lat="45.18512" lon="6.36712">
        <ele>2554.1999511719</ele>
        <time>2014-01-11T09:29:54.000Z</time>
      </trkpt>
      <trkpt lat="45.18512" lon="6.36713">
        <ele>2554.1999511719</ele>
        <time>2014-01-11T09:29:55.000Z</time>
      </trkpt>
      <trkpt lat="45.18512" lon="6.36713">
        <ele>2554.3999023438</ele>
        <time>2014-01-11T09:29:56.000Z</time>
      </trkpt>
      <trkpt lat="45.18513" lon="6.36714">
        <ele>2554.6000976562</ele>
        <time>2014-01-11T09:29:57.000Z</time>
      </trkpt>
      <trkpt lat="45.18513" lon="6.36714">
        <ele>2554.8000488281</ele>
        <time>2014-01-11T09:29:58.000Z</time>
      </trkpt>
      <trkpt lat="45.18513" lon="6.36715">
        <ele>2555</ele>
        <time>2014-01-11T09:29:59.000Z</time>
      </trkpt>
      <trkpt lat="45.18513" lon="6.36715">
        <ele>2555.1999511719</ele>
        <time>2014-01-11T09:30:00.000Z</time>
      </trkpt>
      <trkpt lat="45.18513" lon="6.36716">
        <ele>2555.3999023438</ele>
        <time>2014-01-11T09:30:01.000Z</time>
      </trkpt>
      <trkpt lat="45.18513" lon="6.36716">
        <ele>2555.3999023438</ele>
        <time>2014-01-11T09:30:02.000Z</time>
      </trkpt>
      <trkpt lat="45.18514" lon="6.36716">
        <ele>2555.6000976562</ele>
        <time>2014-01-11T09:30:03.000Z</time>
      </trkpt>
      <trkpt lat="45.18515" lon="6.36717">
        <ele>2555.6000976562</ele>
        <time>2014-01-11T09:30:04.000Z</time>
      </trkpt>
      <trkpt lat="45.18515" lon="6.36718">
        <ele>2555.8000488281</ele>
        <time>2014-01-11T09:30:05.000Z</time>
      </trkpt>
      <trkpt lat="45.18515" lon="6.36718">
        <ele>2556</ele>
        <time>2014-01-11T09:30:06.000Z</time>
      </trkpt>
      <trkpt lat="45.18516" lon="6.3672">
        <ele>2556.6000976562</ele>
        <time>2014-01-11T09:30:07.000Z</time>
      </trkpt>
      <trkpt lat="45.18516" lon="6.36721">
        <ele>2556.8000488281</ele>
        <time>2014-01-11T09:30:08.000Z</time>
      </trkpt>
      <trkpt lat="45.18517" lon="6.36722">
        <ele>2557</ele>
        <time>2014-01-11T09:30:09.000Z</time>
      </trkpt>
      <trkpt lat="45.18517" lon="6.36723">
        <ele>2557.1999511719</ele>
        <time>2014-01-11T09:30:10.000Z</time>
      </trkpt>
      <trkpt lat="45.18518" lon="6.36723">
        <ele>2557.3999023438</ele>
        <time>2014-01-11T09:30:11.000Z</time>
      </trkpt>
      <trkpt lat="45.18518" lon="6.36724">
        <ele>2557.3999023438</ele>
        <time>2014-01-11T09:30:12.000Z</time>
      </trkpt>
      <trkpt lat="45.18518" lon="6.36724">
        <ele>2557.3999023438</ele>
        <time>2014-01-11T09:30:13.000Z</time>
      </trkpt>
      <trkpt lat="45.18518" lon="6.36725">
        <ele>2557.6000976562</ele>
        <time>2014-01-11T09:30:14.000Z</time>
      </trkpt>
      <trkpt lat="45.18518" lon="6.36725">
        <ele>2557.6000976562</ele>
        <time>2014-01-11T09:30:15.000Z</time>
      </trkpt>
      <trkpt lat="45.18518" lon="6.36726">
        <ele>2557.8000488281</ele>
        <time>2014-01-11T09:30:16.000Z</time>
      </trkpt>
      <trkpt lat="45.18518" lon="6.36726">
        <ele>2558</ele>
        <time>2014-01-11T09:30:17.000Z</time>
      </trkpt>
      <trkpt lat="45.18519" lon="6.36727">
        <ele>2558.1999511719</ele>
        <time>2014-01-11T09:30:18.000Z</time>
      </trkpt>
      <trkpt lat="45.18519" lon="6.36727">
        <ele>2558.3999023438</ele>
        <time>2014-01-11T09:30:19.000Z</time>
      </trkpt>
      <trkpt lat="45.18519" lon="6.36728">
        <ele>2558.6000976562</ele>
        <time>2014-01-11T09:30:20.000Z</time>
      </trkpt>
      <trkpt lat="45.18519" lon="6.36728">
        <ele>2558.8000488281</ele>
        <time>2014-01-11T09:30:21.000Z</time>
      </trkpt>
      <trkpt lat="45.18519" lon="6.36729">
        <ele>2559</ele>
        <time>2014-01-11T09:30:22.000Z</time>
      </trkpt>
      <trkpt lat="45.1852" lon="6.3673">
        <ele>2559.1999511719</ele>
        <time>2014-01-11T09:30:23.000Z</time>
      </trkpt>
      <trkpt lat="45.1852" lon="6.3673">
        <ele>2559.1999511719</ele>
        <time>2014-01-11T09:30:24.000Z</time>
      </trkpt>
      <trkpt lat="45.18521" lon="6.36731">
        <ele>2559.3999023438</ele>
        <time>2014-01-11T09:30:25.000Z</time>
      </trkpt>
      <trkpt lat="45.18522" lon="6.36732">
        <ele>2559.3999023438</ele>
        <time>2014-01-11T09:30:26.000Z</time>
      </trkpt>
      <trkpt lat="45.18522" lon="6.36732">
        <ele>2559.6000976562</ele>
        <time>2014-01-11T09:30:27.000Z</time>
      </trkpt>
      <trkpt lat="45.18522" lon="6.36733">
        <ele>2559.6000976562</ele>
        <time>2014-01-11T09:30:28.000Z</time>
      </trkpt>
      <trkpt lat="45.18522" lon="6.36733">
        <ele>2559.8000488281</ele>
        <time>2014-01-11T09:30:29.000Z</time>
      </trkpt>
      <trkpt lat="45.18523" lon="6.36734">
        <ele>2560</ele>
        <time>2014-01-11T09:30:30.000Z</time>
      </trkpt>
      <trkpt lat="45.18523" lon="6.36734">
        <ele>2560.3999023438</ele>
        <time>2014-01-11T09:30:31.000Z</time>
      </trkpt>
      <trkpt lat="45.18523" lon="6.36734">
        <ele>2560.6000976562</ele>
        <time>2014-01-11T09:30:32.000Z</time>
      </trkpt>
      <trkpt lat="45.18523" lon="6.36734">
        <ele>2560.8000488281</ele>
        <time>2014-01-11T09:30:33.000Z</time>
      </trkpt>
      <trkpt lat="45.18524" lon="6.36735">
        <ele>2560.8000488281</ele>
        <time>2014-01-11T09:30:34.000Z</time>
      </trkpt>
      <trkpt lat="45.18524" lon="6.36736">
        <ele>2561</ele>
        <time>2014-01-11T09:30:35.000Z</time>
      </trkpt>
      <trkpt lat="45.18524" lon="6.36736">
        <ele>2561.1999511719</ele>
        <time>2014-01-11T09:30:36.000Z</time>
      </trkpt>
      <trkpt lat="45.18525" lon="6.36737">
        <ele>2561.1999511719</ele>
        <time>2014-01-11T09:30:37.000Z</time>
      </trkpt>
      <trkpt lat="45.18525" lon="6.36738">
        <ele>2561.3999023438</ele>
        <time>2014-01-11T09:30:38.000Z</time>
      </trkpt>
      <trkpt lat="45.18525" lon="6.36739">
        <ele>2561.3999023438</ele>
        <time>2014-01-11T09:30:39.000Z</time>
      </trkpt>
      <trkpt lat="45.18526" lon="6.3674">
        <ele>2561.6000976562</ele>
        <time>2014-01-11T09:30:40.000Z</time>
      </trkpt>
      <trkpt lat="45.18526" lon="6.36741">
        <ele>2561.8000488281</ele>
        <time>2014-01-11T09:30:41.000Z</time>
      </trkpt>
      <trkpt lat="45.18527" lon="6.36741">
        <ele>2562</ele>
        <time>2014-01-11T09:30:42.000Z</time>
      </trkpt>
      <trkpt lat="45.18527" lon="6.36742">
        <ele>2562</ele>
        <time>2014-01-11T09:30:43.000Z</time>
      </trkpt>
      <trkpt lat="45.18528" lon="6.36742">
        <ele>2562.1999511719</ele>
        <time>2014-01-11T09:30:44.000Z</time>
      </trkpt>
      <trkpt lat="45.18529" lon="6.36743">
        <ele>2562.3999023438</ele>
        <time>2014-01-11T09:30:45.000Z</time>
      </trkpt>
      <trkpt lat="45.18529" lon="6.36743">
        <ele>2562.6000976562</ele>
        <time>2014-01-11T09:30:46.000Z</time>
      </trkpt>
      <trkpt lat="45.1853" lon="6.36744">
        <ele>2562.8000488281</ele>
        <time>2014-01-11T09:30:47.000Z</time>
      </trkpt>
      <trkpt lat="45.1853" lon="6.36744">
        <ele>2563</ele>
        <time>2014-01-11T09:30:48.000Z</time>
      </trkpt>
      <trkpt lat="45.1853" lon="6.36745">
        <ele>2563.1999511719</ele>
        <time>2014-01-11T09:30:49.000Z</time>
      </trkpt>
      <trkpt lat="45.18531" lon="6.36745">
        <ele>2563.3999023438</ele>
        <time>2014-01-11T09:30:50.000Z</time>
      </trkpt>
      <trkpt lat="45.18531" lon="6.36746">
        <ele>2563.6000976562</ele>
        <time>2014-01-11T09:30:51.000Z</time>
      </trkpt>
      <trkpt lat="45.18532" lon="6.36746">
        <ele>2563.8000488281</ele>
        <time>2014-01-11T09:30:52.000Z</time>
      </trkpt>
      <trkpt lat="45.18532" lon="6.36747">
        <ele>2563.8000488281</ele>
        <time>2014-01-11T09:30:53.000Z</time>
      </trkpt>
      <trkpt lat="45.18533" lon="6.36748">
        <ele>2563.8000488281</ele>
        <time>2014-01-11T09:30:54.000Z</time>
      </trkpt>
      <trkpt lat="45.18533" lon="6.36748">
        <ele>2564</ele>
        <time>2014-01-11T09:30:55.000Z</time>
      </trkpt>
      <trkpt lat="45.18534" lon="6.36749">
        <ele>2564.3999023438</ele>
        <time>2014-01-11T09:30:56.000Z</time>
      </trkpt>
      <trkpt lat="45.18534" lon="6.3675">
        <ele>2564.6000976562</ele>
        <time>2014-01-11T09:30:57.000Z</time>
      </trkpt>
      <trkpt lat="45.18535" lon="6.3675">
        <ele>2564.8000488281</ele>
        <time>2014-01-11T09:30:58.000Z</time>
      </trkpt>
      <trkpt lat="45.18536" lon="6.36751">
        <ele>2565</ele>
        <time>2014-01-11T09:30:59.000Z</time>
      </trkpt>
      <trkpt lat="45.18536" lon="6.36752">
        <ele>2565.1999511719</ele>
        <time>2014-01-11T09:31:00.000Z</time>
      </trkpt>
      <trkpt lat="45.18536" lon="6.36753">
        <ele>2565.3999023438</ele>
        <time>2014-01-11T09:31:01.000Z</time>
      </trkpt>
      <trkpt lat="45.18537" lon="6.36754">
        <ele>2565.3999023438</ele>
        <time>2014-01-11T09:31:02.000Z</time>
      </trkpt>
      <trkpt lat="45.18538" lon="6.36754">
        <ele>2565.6000976562</ele>
        <time>2014-01-11T09:31:03.000Z</time>
      </trkpt>
      <trkpt lat="45.18538" lon="6.36754">
        <ele>2565.6000976562</ele>
        <time>2014-01-11T09:31:04.000Z</time>
      </trkpt>
      <trkpt lat="45.18538" lon="6.36755">
        <ele>2565.8000488281</ele>
        <time>2014-01-11T09:31:05.000Z</time>
      </trkpt>
      <trkpt lat="45.18538" lon="6.36756">
        <ele>2565.8000488281</ele>
        <time>2014-01-11T09:31:06.000Z</time>
      </trkpt>
      <trkpt lat="45.18539" lon="6.36756">
        <ele>2566</ele>
        <time>2014-01-11T09:31:07.000Z</time>
      </trkpt>
      <trkpt lat="45.18539" lon="6.36757">
        <ele>2566.1999511719</ele>
        <time>2014-01-11T09:31:08.000Z</time>
      </trkpt>
      <trkpt lat="45.18539" lon="6.36757">
        <ele>2566.3999023438</ele>
        <time>2014-01-11T09:31:09.000Z</time>
      </trkpt>
      <trkpt lat="45.1854" lon="6.36758">
        <ele>2566.6000976562</ele>
        <time>2014-01-11T09:31:10.000Z</time>
      </trkpt>
      <trkpt lat="45.1854" lon="6.36758">
        <ele>2566.8000488281</ele>
        <time>2014-01-11T09:31:11.000Z</time>
      </trkpt>
      <trkpt lat="45.18541" lon="6.36759">
        <ele>2567</ele>
        <time>2014-01-11T09:31:12.000Z</time>
      </trkpt>
      <trkpt lat="45.18542" lon="6.3676">
        <ele>2567.1999511719</ele>
        <time>2014-01-11T09:31:13.000Z</time>
      </trkpt>
      <trkpt lat="45.18542" lon="6.3676">
        <ele>2567.1999511719</ele>
        <time>2014-01-11T09:31:14.000Z</time>
      </trkpt>
      <trkpt lat="45.18542" lon="6.3676">
        <ele>2567.3999023438</ele>
        <time>2014-01-11T09:31:15.000Z</time>
      </trkpt>
      <trkpt lat="45.18543" lon="6.3676">
        <ele>2567.6000976562</ele>
        <time>2014-01-11T09:31:16.000Z</time>
      </trkpt>
      <trkpt lat="45.18543" lon="6.3676">
        <ele>2567.6000976562</ele>
        <time>2014-01-11T09:31:17.000Z</time>
      </trkpt>
      <trkpt lat="45.18543" lon="6.3676">
        <ele>2567.8000488281</ele>
        <time>2014-01-11T09:31:18.000Z</time>
      </trkpt>
      <trkpt lat="45.18543" lon="6.36761">
        <ele>2567.8000488281</ele>
        <time>2014-01-11T09:31:19.000Z</time>
      </trkpt>
      <trkpt lat="45.18543" lon="6.36761">
        <ele>2568.1999511719</ele>
        <time>2014-01-11T09:31:20.000Z</time>
      </trkpt>
      <trkpt lat="45.18543" lon="6.36761">
        <ele>2568.3999023438</ele>
        <time>2014-01-11T09:31:21.000Z</time>
      </trkpt>
      <trkpt lat="45.18543" lon="6.36761">
        <ele>2568.6000976562</ele>
        <time>2014-01-11T09:31:22.000Z</time>
      </trkpt>
      <trkpt lat="45.18543" lon="6.36761">
        <ele>2568.8000488281</ele>
        <time>2014-01-11T09:31:23.000Z</time>
      </trkpt>
      <trkpt lat="45.18543" lon="6.36761">
        <ele>2569</ele>
        <time>2014-01-11T09:31:24.000Z</time>
      </trkpt>
      <trkpt lat="45.18543" lon="6.36761">
        <ele>2569.1999511719</ele>
        <time>2014-01-11T09:31:25.000Z</time>
      </trkpt>
      <trkpt lat="45.18543" lon="6.36761">
        <ele>2569.1999511719</ele>
        <time>2014-01-11T09:31:26.000Z</time>
      </trkpt>
      <trkpt lat="45.18544" lon="6.36762">
        <ele>2569.3999023438</ele>
        <time>2014-01-11T09:31:27.000Z</time>
      </trkpt>
      <trkpt lat="45.18544" lon="6.36762">
        <ele>2569.3999023438</ele>
        <time>2014-01-11T09:31:28.000Z</time>
      </trkpt>
      <trkpt lat="45.18544" lon="6.36761">
        <ele>2569.6000976562</ele>
        <time>2014-01-11T09:31:29.000Z</time>
      </trkpt>
      <trkpt lat="45.18545" lon="6.36762">
        <ele>2569.6000976562</ele>
        <time>2014-01-11T09:31:30.000Z</time>
      </trkpt>
      <trkpt lat="45.18545" lon="6.36762">
        <ele>2569.8000488281</ele>
        <time>2014-01-11T09:31:31.000Z</time>
      </trkpt>
      <trkpt lat="45.18546" lon="6.36763">
        <ele>2569.8000488281</ele>
        <time>2014-01-11T09:31:32.000Z</time>
      </trkpt>
      <trkpt lat="45.18546" lon="6.36763">
        <ele>2570</ele>
        <time>2014-01-11T09:31:33.000Z</time>
      </trkpt>
      <trkpt lat="45.18547" lon="6.36764">
        <ele>2570.1999511719</ele>
        <time>2014-01-11T09:31:34.000Z</time>
      </trkpt>
      <trkpt lat="45.18548" lon="6.36765">
        <ele>2570.1999511719</ele>
        <time>2014-01-11T09:31:35.000Z</time>
      </trkpt>
      <trkpt lat="45.18548" lon="6.36766">
        <ele>2570.3999023438</ele>
        <time>2014-01-11T09:31:36.000Z</time>
      </trkpt>
      <trkpt lat="45.18549" lon="6.36766">
        <ele>2570.6000976562</ele>
        <time>2014-01-11T09:31:37.000Z</time>
      </trkpt>
      <trkpt lat="45.18549" lon="6.36767">
        <ele>2570.6000976562</ele>
        <time>2014-01-11T09:31:38.000Z</time>
      </trkpt>
      <trkpt lat="45.18549" lon="6.36768">
        <ele>2570.8000488281</ele>
        <time>2014-01-11T09:31:39.000Z</time>
      </trkpt>
      <trkpt lat="45.18549" lon="6.36768">
        <ele>2571.1999511719</ele>
        <time>2014-01-11T09:31:40.000Z</time>
      </trkpt>
      <trkpt lat="45.1855" lon="6.36769">
        <ele>2571.3999023438</ele>
        <time>2014-01-11T09:31:41.000Z</time>
      </trkpt>
      <trkpt lat="45.1855" lon="6.3677">
        <ele>2571.6000976562</ele>
        <time>2014-01-11T09:31:42.000Z</time>
      </trkpt>
      <trkpt lat="45.18551" lon="6.3677">
        <ele>2571.8000488281</ele>
        <time>2014-01-11T09:31:43.000Z</time>
      </trkpt>
      <trkpt lat="45.18551" lon="6.36771">
        <ele>2572</ele>
        <time>2014-01-11T09:31:44.000Z</time>
      </trkpt>
      <trkpt lat="45.18552" lon="6.36772">
        <ele>2572.1999511719</ele>
        <time>2014-01-11T09:31:45.000Z</time>
      </trkpt>
      <trkpt lat="45.18553" lon="6.36772">
        <ele>2572.3999023438</ele>
        <time>2014-01-11T09:31:46.000Z</time>
      </trkpt>
      <trkpt lat="45.18554" lon="6.36773">
        <ele>2572.3999023438</ele>
        <time>2014-01-11T09:31:47.000Z</time>
      </trkpt>
      <trkpt lat="45.18554" lon="6.36773">
        <ele>2572.6000976562</ele>
        <time>2014-01-11T09:31:48.000Z</time>
      </trkpt>
      <trkpt lat="45.18554" lon="6.36773">
        <ele>2572.8000488281</ele>
        <time>2014-01-11T09:31:49.000Z</time>
      </trkpt>
      <trkpt lat="45.18555" lon="6.36773">
        <ele>2573</ele>
        <time>2014-01-11T09:31:50.000Z</time>
      </trkpt>
      <trkpt lat="45.18555" lon="6.36773">
        <ele>2573.1999511719</ele>
        <time>2014-01-11T09:31:51.000Z</time>
      </trkpt>
      <trkpt lat="45.18555" lon="6.36773">
        <ele>2573.3999023438</ele>
        <time>2014-01-11T09:31:52.000Z</time>
      </trkpt>
      <trkpt lat="45.18556" lon="6.36773">
        <ele>2573.6000976562</ele>
        <time>2014-01-11T09:31:53.000Z</time>
      </trkpt>
      <trkpt lat="45.18557" lon="6.36773">
        <ele>2573.6000976562</ele>
        <time>2014-01-11T09:31:54.000Z</time>
      </trkpt>
      <trkpt lat="45.18557" lon="6.36773">
        <ele>2573.6000976562</ele>
        <time>2014-01-11T09:31:55.000Z</time>
      </trkpt>
      <trkpt lat="45.18558" lon="6.36773">
        <ele>2573.8000488281</ele>
        <time>2014-01-11T09:31:56.000Z</time>
      </trkpt>
      <trkpt lat="45.18558" lon="6.36773">
        <ele>2574</ele>
        <time>2014-01-11T09:31:57.000Z</time>
      </trkpt>
      <trkpt lat="45.18559" lon="6.36773">
        <ele>2574.1999511719</ele>
        <time>2014-01-11T09:31:58.000Z</time>
      </trkpt>
      <trkpt lat="45.18559" lon="6.36773">
        <ele>2574.3999023438</ele>
        <time>2014-01-11T09:31:59.000Z</time>
      </trkpt>
      <trkpt lat="45.18559" lon="6.36773">
        <ele>2574.6000976562</ele>
        <time>2014-01-11T09:32:00.000Z</time>
      </trkpt>
      <trkpt lat="45.1856" lon="6.36774">
        <ele>2574.8000488281</ele>
        <time>2014-01-11T09:32:01.000Z</time>
      </trkpt>
      <trkpt lat="45.18561" lon="6.36774">
        <ele>2574.8000488281</ele>
        <time>2014-01-11T09:32:02.000Z</time>
      </trkpt>
      <trkpt lat="45.18561" lon="6.36775">
        <ele>2575</ele>
        <time>2014-01-11T09:32:03.000Z</time>
      </trkpt>
      <trkpt lat="45.18562" lon="6.36776">
        <ele>2575.1999511719</ele>
        <time>2014-01-11T09:32:04.000Z</time>
      </trkpt>
      <trkpt lat="45.18562" lon="6.36776">
        <ele>2575.1999511719</ele>
        <time>2014-01-11T09:32:05.000Z</time>
      </trkpt>
      <trkpt lat="45.18562" lon="6.36776">
        <ele>2575.6000976562</ele>
        <time>2014-01-11T09:32:06.000Z</time>
      </trkpt>
      <trkpt lat="45.18563" lon="6.36775">
        <ele>2575.8000488281</ele>
        <time>2014-01-11T09:32:07.000Z</time>
      </trkpt>
      <trkpt lat="45.18563" lon="6.36775">
        <ele>2576.1999511719</ele>
        <time>2014-01-11T09:32:08.000Z</time>
      </trkpt>
      <trkpt lat="45.18564" lon="6.36775">
        <ele>2576.3999023438</ele>
        <time>2014-01-11T09:32:09.000Z</time>
      </trkpt>
      <trkpt lat="45.18564" lon="6.36775">
        <ele>2576.6000976562</ele>
        <time>2014-01-11T09:32:10.000Z</time>
      </trkpt>
      <trkpt lat="45.18565" lon="6.36775">
        <ele>2576.8000488281</ele>
        <time>2014-01-11T09:32:11.000Z</time>
      </trkpt>
      <trkpt lat="45.18565" lon="6.36775">
        <ele>2576.8000488281</ele>
        <time>2014-01-11T09:32:12.000Z</time>
      </trkpt>
      <trkpt lat="45.18565" lon="6.36775">
        <ele>2577</ele>
        <time>2014-01-11T09:32:13.000Z</time>
      </trkpt>
      <trkpt lat="45.18565" lon="6.36776">
        <ele>2577.1999511719</ele>
        <time>2014-01-11T09:32:14.000Z</time>
      </trkpt>
      <trkpt lat="45.18566" lon="6.36777">
        <ele>2577.3999023438</ele>
        <time>2014-01-11T09:32:15.000Z</time>
      </trkpt>
      <trkpt lat="45.18566" lon="6.36777">
        <ele>2577.6000976562</ele>
        <time>2014-01-11T09:32:16.000Z</time>
      </trkpt>
      <trkpt lat="45.18567" lon="6.36777">
        <ele>2577.8000488281</ele>
        <time>2014-01-11T09:32:17.000Z</time>
      </trkpt>
      <trkpt lat="45.18567" lon="6.36778">
        <ele>2578</ele>
        <time>2014-01-11T09:32:18.000Z</time>
      </trkpt>
      <trkpt lat="45.18567" lon="6.36778">
        <ele>2578</ele>
        <time>2014-01-11T09:32:19.000Z</time>
      </trkpt>
      <trkpt lat="45.18568" lon="6.36778">
        <ele>2578.1999511719</ele>
        <time>2014-01-11T09:32:20.000Z</time>
      </trkpt>
      <trkpt lat="45.18568" lon="6.36778">
        <ele>2578.1999511719</ele>
        <time>2014-01-11T09:32:21.000Z</time>
      </trkpt>
      <trkpt lat="45.18568" lon="6.36778">
        <ele>2578.3999023438</ele>
        <time>2014-01-11T09:32:22.000Z</time>
      </trkpt>
      <trkpt lat="45.18568" lon="6.36778">
        <ele>2578.6000976562</ele>
        <time>2014-01-11T09:32:23.000Z</time>
      </trkpt>
      <trkpt lat="45.18568" lon="6.36778">
        <ele>2578.8000488281</ele>
        <time>2014-01-11T09:32:24.000Z</time>
      </trkpt>
      <trkpt lat="45.18568" lon="6.36778">
        <ele>2579</ele>
        <time>2014-01-11T09:32:25.000Z</time>
      </trkpt>
      <trkpt lat="45.18569" lon="6.36777">
        <ele>2579.1999511719</ele>
        <time>2014-01-11T09:32:26.000Z</time>
      </trkpt>
      <trkpt lat="45.18569" lon="6.36777">
        <ele>2579.1999511719</ele>
        <time>2014-01-11T09:32:27.000Z</time>
      </trkpt>
      <trkpt lat="45.1857" lon="6.36777">
        <ele>2579.3999023438</ele>
        <time>2014-01-11T09:32:28.000Z</time>
      </trkpt>
      <trkpt lat="45.18571" lon="6.36777">
        <ele>2579.3999023438</ele>
        <time>2014-01-11T09:32:29.000Z</time>
      </trkpt>
      <trkpt lat="45.18571" lon="6.36777">
        <ele>2579.6000976562</ele>
        <time>2014-01-11T09:32:30.000Z</time>
      </trkpt>
      <trkpt lat="45.18572" lon="6.36778">
        <ele>2579.6000976562</ele>
        <time>2014-01-11T09:32:31.000Z</time>
      </trkpt>
      <trkpt lat="45.18572" lon="6.36778">
        <ele>2580</ele>
        <time>2014-01-11T09:32:32.000Z</time>
      </trkpt>
      <trkpt lat="45.18573" lon="6.36778">
        <ele>2580.1999511719</ele>
        <time>2014-01-11T09:32:33.000Z</time>
      </trkpt>
      <trkpt lat="45.18573" lon="6.36778">
        <ele>2580.3999023438</ele>
        <time>2014-01-11T09:32:34.000Z</time>
      </trkpt>
      <trkpt lat="45.18574" lon="6.36778">
        <ele>2580.6000976562</ele>
        <time>2014-01-11T09:32:35.000Z</time>
      </trkpt>
      <trkpt lat="45.18574" lon="6.36778">
        <ele>2580.8000488281</ele>
        <time>2014-01-11T09:32:36.000Z</time>
      </trkpt>
      <trkpt lat="45.18574" lon="6.36778">
        <ele>2581</ele>
        <time>2014-01-11T09:32:37.000Z</time>
      </trkpt>
      <trkpt lat="45.18575" lon="6.36778">
        <ele>2581.1999511719</ele>
        <time>2014-01-11T09:32:38.000Z</time>
      </trkpt>
      <trkpt lat="45.18575" lon="6.36778">
        <ele>2581.1999511719</ele>
        <time>2014-01-11T09:32:39.000Z</time>
      </trkpt>
      <trkpt lat="45.18575" lon="6.36778">
        <ele>2581.3999023438</ele>
        <time>2014-01-11T09:32:40.000Z</time>
      </trkpt>
      <trkpt lat="45.18575" lon="6.36778">
        <ele>2581.6000976562</ele>
        <time>2014-01-11T09:32:41.000Z</time>
      </trkpt>
      <trkpt lat="45.18576" lon="6.36778">
        <ele>2581.8000488281</ele>
        <time>2014-01-11T09:32:42.000Z</time>
      </trkpt>
      <trkpt lat="45.18576" lon="6.36778">
        <ele>2582</ele>
        <time>2014-01-11T09:32:43.000Z</time>
      </trkpt>
      <trkpt lat="45.18576" lon="6.36779">
        <ele>2582.1999511719</ele>
        <time>2014-01-11T09:32:44.000Z</time>
      </trkpt>
      <trkpt lat="45.18577" lon="6.36779">
        <ele>2582.6000976562</ele>
        <time>2014-01-11T09:32:45.000Z</time>
      </trkpt>
      <trkpt lat="45.18577" lon="6.3678">
        <ele>2582.8000488281</ele>
        <time>2014-01-11T09:32:46.000Z</time>
      </trkpt>
      <trkpt lat="45.18578" lon="6.3678">
        <ele>2582.8000488281</ele>
        <time>2014-01-11T09:32:47.000Z</time>
      </trkpt>
      <trkpt lat="45.18578" lon="6.36781">
        <ele>2583</ele>
        <time>2014-01-11T09:32:48.000Z</time>
      </trkpt>
      <trkpt lat="45.18579" lon="6.36781">
        <ele>2583.1999511719</ele>
        <time>2014-01-11T09:32:49.000Z</time>
      </trkpt>
      <trkpt lat="45.18579" lon="6.36782">
        <ele>2583.1999511719</ele>
        <time>2014-01-11T09:32:50.000Z</time>
      </trkpt>
      <trkpt lat="45.1858" lon="6.36782">
        <ele>2583.3999023438</ele>
        <time>2014-01-11T09:32:51.000Z</time>
      </trkpt>
      <trkpt lat="45.18581" lon="6.36782">
        <ele>2583.8000488281</ele>
        <time>2014-01-11T09:32:52.000Z</time>
      </trkpt>
      <trkpt lat="45.18581" lon="6.36782">
        <ele>2584</ele>
        <time>2014-01-11T09:32:53.000Z</time>
      </trkpt>
      <trkpt lat="45.18582" lon="6.36783">
        <ele>2584.1999511719</ele>
        <time>2014-01-11T09:32:54.000Z</time>
      </trkpt>
      <trkpt lat="45.18582" lon="6.36783">
        <ele>2584.3999023438</ele>
        <time>2014-01-11T09:32:55.000Z</time>
      </trkpt>
      <trkpt lat="45.18582" lon="6.36784">
        <ele>2584.8000488281</ele>
        <time>2014-01-11T09:32:56.000Z</time>
      </trkpt>
      <trkpt lat="45.18582" lon="6.36784">
        <ele>2585</ele>
        <time>2014-01-11T09:32:57.000Z</time>
      </trkpt>
      <trkpt lat="45.18582" lon="6.36784">
        <ele>2585.1999511719</ele>
        <time>2014-01-11T09:32:58.000Z</time>
      </trkpt>
      <trkpt lat="45.18582" lon="6.36785">
        <ele>2585.3999023438</ele>
        <time>2014-01-11T09:32:59.000Z</time>
      </trkpt>
      <trkpt lat="45.18583" lon="6.36785">
        <ele>2585.6000976562</ele>
        <time>2014-01-11T09:33:00.000Z</time>
      </trkpt>
      <trkpt lat="45.18583" lon="6.36786">
        <ele>2585.8000488281</ele>
        <time>2014-01-11T09:33:01.000Z</time>
      </trkpt>
      <trkpt lat="45.18583" lon="6.36786">
        <ele>2586</ele>
        <time>2014-01-11T09:33:02.000Z</time>
      </trkpt>
      <trkpt lat="45.18583" lon="6.36786">
        <ele>2586.1999511719</ele>
        <time>2014-01-11T09:33:03.000Z</time>
      </trkpt>
      <trkpt lat="45.18584" lon="6.36785">
        <ele>2586.1999511719</ele>
        <time>2014-01-11T09:33:04.000Z</time>
      </trkpt>
      <trkpt lat="45.18584" lon="6.36785">
        <ele>2586.3999023438</ele>
        <time>2014-01-11T09:33:05.000Z</time>
      </trkpt>
      <trkpt lat="45.18584" lon="6.36784">
        <ele>2586.6000976562</ele>
        <time>2014-01-11T09:33:06.000Z</time>
      </trkpt>
      <trkpt lat="45.18585" lon="6.36784">
        <ele>2586.8000488281</ele>
        <time>2014-01-11T09:33:07.000Z</time>
      </trkpt>
      <trkpt lat="45.18585" lon="6.36785">
        <ele>2587</ele>
        <time>2014-01-11T09:33:08.000Z</time>
      </trkpt>
      <trkpt lat="45.18585" lon="6.36785">
        <ele>2587.1999511719</ele>
        <time>2014-01-11T09:33:09.000Z</time>
      </trkpt>
      <trkpt lat="45.18585" lon="6.36785">
        <ele>2587.3999023438</ele>
        <time>2014-01-11T09:33:10.000Z</time>
      </trkpt>
      <trkpt lat="45.18585" lon="6.36785">
        <ele>2587.6000976562</ele>
        <time>2014-01-11T09:33:11.000Z</time>
      </trkpt>
      <trkpt lat="45.18585" lon="6.36785">
        <ele>2587.8000488281</ele>
        <time>2014-01-11T09:33:12.000Z</time>
      </trkpt>
      <trkpt lat="45.18585" lon="6.36785">
        <ele>2588</ele>
        <time>2014-01-11T09:33:13.000Z</time>
      </trkpt>
      <trkpt lat="45.18585" lon="6.36785">
        <ele>2588</ele>
        <time>2014-01-11T09:33:14.000Z</time>
      </trkpt>
      <trkpt lat="45.18585" lon="6.36785">
        <ele>2588.1999511719</ele>
        <time>2014-01-11T09:33:15.000Z</time>
      </trkpt>
      <trkpt lat="45.18585" lon="6.36785">
        <ele>2588.6000976562</ele>
        <time>2014-01-11T09:33:16.000Z</time>
      </trkpt>
      <trkpt lat="45.18586" lon="6.36785">
        <ele>2588.8000488281</ele>
        <time>2014-01-11T09:33:18.000Z</time>
      </trkpt>
      <trkpt lat="45.18586" lon="6.36785">
        <ele>2589</ele>
        <time>2014-01-11T09:33:19.000Z</time>
      </trkpt>
      <trkpt lat="45.18586" lon="6.36785">
        <ele>2589.3999023438</ele>
        <time>2014-01-11T09:33:20.000Z</time>
      </trkpt>
      <trkpt lat="45.18586" lon="6.36785">
        <ele>2589.6000976562</ele>
        <time>2014-01-11T09:33:21.000Z</time>
      </trkpt>
      <trkpt lat="45.18586" lon="6.36786">
        <ele>2589.6000976562</ele>
        <time>2014-01-11T09:33:22.000Z</time>
      </trkpt>
      <trkpt lat="45.18587" lon="6.36787">
        <ele>2589.8000488281</ele>
        <time>2014-01-11T09:33:23.000Z</time>
      </trkpt>
      <trkpt lat="45.18588" lon="6.36788">
        <ele>2590</ele>
        <time>2014-01-11T09:33:24.000Z</time>
      </trkpt>
      <trkpt lat="45.18589" lon="6.36788">
        <ele>2590.1999511719</ele>
        <time>2014-01-11T09:33:25.000Z</time>
      </trkpt>
      <trkpt lat="45.1859" lon="6.36789">
        <ele>2590.3999023438</ele>
        <time>2014-01-11T09:33:26.000Z</time>
      </trkpt>
      <trkpt lat="45.18591" lon="6.3679">
        <ele>2590.8000488281</ele>
        <time>2014-01-11T09:33:27.000Z</time>
      </trkpt>
      <trkpt lat="45.18591" lon="6.36791">
        <ele>2591</ele>
        <time>2014-01-11T09:33:28.000Z</time>
      </trkpt>
      <trkpt lat="45.18592" lon="6.36791">
        <ele>2591.1999511719</ele>
        <time>2014-01-11T09:33:29.000Z</time>
      </trkpt>
      <trkpt lat="45.18593" lon="6.36791">
        <ele>2591.3999023438</ele>
        <time>2014-01-11T09:33:30.000Z</time>
      </trkpt>
      <trkpt lat="45.18593" lon="6.36792">
        <ele>2591.6000976562</ele>
        <time>2014-01-11T09:33:31.000Z</time>
      </trkpt>
      <trkpt lat="45.18593" lon="6.36792">
        <ele>2591.8000488281</ele>
        <time>2014-01-11T09:33:32.000Z</time>
      </trkpt>
      <trkpt lat="45.18593" lon="6.36792">
        <ele>2591.8000488281</ele>
        <time>2014-01-11T09:33:33.000Z</time>
      </trkpt>
      <trkpt lat="45.18593" lon="6.36792">
        <ele>2592</ele>
        <time>2014-01-11T09:33:34.000Z</time>
      </trkpt>
      <trkpt lat="45.18594" lon="6.36792">
        <ele>2592.1999511719</ele>
        <time>2014-01-11T09:33:35.000Z</time>
      </trkpt>
      <trkpt lat="45.18595" lon="6.36793">
        <ele>2592.3999023438</ele>
        <time>2014-01-11T09:33:36.000Z</time>
      </trkpt>
      <trkpt lat="45.18596" lon="6.36794">
        <ele>2592.6000976562</ele>
        <time>2014-01-11T09:33:37.000Z</time>
      </trkpt>
      <trkpt lat="45.18597" lon="6.36796">
        <ele>2592.8000488281</ele>
        <time>2014-01-11T09:33:38.000Z</time>
      </trkpt>
      <trkpt lat="45.18597" lon="6.36796">
        <ele>2593</ele>
        <time>2014-01-11T09:33:39.000Z</time>
      </trkpt>
      <trkpt lat="45.18598" lon="6.36797">
        <ele>2593.1999511719</ele>
        <time>2014-01-11T09:33:40.000Z</time>
      </trkpt>
      <trkpt lat="45.18599" lon="6.36798">
        <ele>2593.3999023438</ele>
        <time>2014-01-11T09:33:41.000Z</time>
      </trkpt>
      <trkpt lat="45.18599" lon="6.36798">
        <ele>2593.6000976562</ele>
        <time>2014-01-11T09:33:42.000Z</time>
      </trkpt>
      <trkpt lat="45.18599" lon="6.36798">
        <ele>2593.8000488281</ele>
        <time>2014-01-11T09:33:43.000Z</time>
      </trkpt>
      <trkpt lat="45.18599" lon="6.36798">
        <ele>2594.1999511719</ele>
        <time>2014-01-11T09:33:44.000Z</time>
      </trkpt>
      <trkpt lat="45.18599" lon="6.36798">
        <ele>2594.3999023438</ele>
        <time>2014-01-11T09:33:45.000Z</time>
      </trkpt>
      <trkpt lat="45.18599" lon="6.36798">
        <ele>2594.6000976562</ele>
        <time>2014-01-11T09:33:46.000Z</time>
      </trkpt>
      <trkpt lat="45.18599" lon="6.36798">
        <ele>2594.8000488281</ele>
        <time>2014-01-11T09:33:47.000Z</time>
      </trkpt>
      <trkpt lat="45.18599" lon="6.36798">
        <ele>2594.8000488281</ele>
        <time>2014-01-11T09:33:48.000Z</time>
      </trkpt>
      <trkpt lat="45.18599" lon="6.36798">
        <ele>2595</ele>
        <time>2014-01-11T09:33:49.000Z</time>
      </trkpt>
      <trkpt lat="45.18599" lon="6.36798">
        <ele>2595</ele>
        <time>2014-01-11T09:33:50.000Z</time>
      </trkpt>
      <trkpt lat="45.18599" lon="6.36798">
        <ele>2595</ele>
        <time>2014-01-11T09:33:51.000Z</time>
      </trkpt>
      <trkpt lat="45.18598" lon="6.36799">
        <ele>2595</ele>
        <time>2014-01-11T09:33:52.000Z</time>
      </trkpt>
      <trkpt lat="45.18598" lon="6.36799">
        <ele>2595</ele>
        <time>2014-01-11T09:33:53.000Z</time>
      </trkpt>
      <trkpt lat="45.18597" lon="6.368">
        <ele>2595.1999511719</ele>
        <time>2014-01-11T09:33:54.000Z</time>
      </trkpt>
      <trkpt lat="45.18596" lon="6.368">
        <ele>2595.3999023438</ele>
        <time>2014-01-11T09:33:55.000Z</time>
      </trkpt>
      <trkpt lat="45.18595" lon="6.36801">
        <ele>2595.3999023438</ele>
        <time>2014-01-11T09:33:56.000Z</time>
      </trkpt>
      <trkpt lat="45.18594" lon="6.36801">
        <ele>2595.6000976562</ele>
        <time>2014-01-11T09:33:57.000Z</time>
      </trkpt>
      <trkpt lat="45.18593" lon="6.36802">
        <ele>2595.8000488281</ele>
        <time>2014-01-11T09:33:58.000Z</time>
      </trkpt>
      <trkpt lat="45.18593" lon="6.36802">
        <ele>2596</ele>
        <time>2014-01-11T09:33:59.000Z</time>
      </trkpt>
      <trkpt lat="45.18592" lon="6.36802">
        <ele>2596</ele>
        <time>2014-01-11T09:34:00.000Z</time>
      </trkpt>
      <trkpt lat="45.18592" lon="6.36803">
        <ele>2596.1999511719</ele>
        <time>2014-01-11T09:34:01.000Z</time>
      </trkpt>
      <trkpt lat="45.18591" lon="6.36803">
        <ele>2596.3999023438</ele>
        <time>2014-01-11T09:34:02.000Z</time>
      </trkpt>
      <trkpt lat="45.18591" lon="6.36804">
        <ele>2596.6000976562</ele>
        <time>2014-01-11T09:34:03.000Z</time>
      </trkpt>
      <trkpt lat="45.18591" lon="6.36805">
        <ele>2596.8000488281</ele>
        <time>2014-01-11T09:34:04.000Z</time>
      </trkpt>
      <trkpt lat="45.18591" lon="6.36805">
        <ele>2597</ele>
        <time>2014-01-11T09:34:05.000Z</time>
      </trkpt>
      <trkpt lat="45.1859" lon="6.36806">
        <ele>2597.1999511719</ele>
        <time>2014-01-11T09:34:06.000Z</time>
      </trkpt>
      <trkpt lat="45.1859" lon="6.36806">
        <ele>2597.3999023438</ele>
        <time>2014-01-11T09:34:07.000Z</time>
      </trkpt>
      <trkpt lat="45.1859" lon="6.36807">
        <ele>2597.8000488281</ele>
        <time>2014-01-11T09:34:08.000Z</time>
      </trkpt>
      <trkpt lat="45.1859" lon="6.36807">
        <ele>2598</ele>
        <time>2014-01-11T09:34:09.000Z</time>
      </trkpt>
      <trkpt lat="45.1859" lon="6.36807">
        <ele>2598</ele>
        <time>2014-01-11T09:34:10.000Z</time>
      </trkpt>
      <trkpt lat="45.18589" lon="6.36807">
        <ele>2598</ele>
        <time>2014-01-11T09:34:11.000Z</time>
      </trkpt>
      <trkpt lat="45.18589" lon="6.36807">
        <ele>2598.1999511719</ele>
        <time>2014-01-11T09:34:12.000Z</time>
      </trkpt>
      <trkpt lat="45.18589" lon="6.36808">
        <ele>2598.3999023438</ele>
        <time>2014-01-11T09:34:13.000Z</time>
      </trkpt>
      <trkpt lat="45.18588" lon="6.36808">
        <ele>2598.3999023438</ele>
        <time>2014-01-11T09:34:14.000Z</time>
      </trkpt>
      <trkpt lat="45.18588" lon="6.36808">
        <ele>2598.6000976562</ele>
        <time>2014-01-11T09:34:15.000Z</time>
      </trkpt>
      <trkpt lat="45.18587" lon="6.36808">
        <ele>2598.8000488281</ele>
        <time>2014-01-11T09:34:16.000Z</time>
      </trkpt>
      <trkpt lat="45.18587" lon="6.36809">
        <ele>2599</ele>
        <time>2014-01-11T09:34:17.000Z</time>
      </trkpt>
      <trkpt lat="45.18586" lon="6.36809">
        <ele>2599.1999511719</ele>
        <time>2014-01-11T09:34:18.000Z</time>
      </trkpt>
      <trkpt lat="45.18585" lon="6.36809">
        <ele>2599.3999023438</ele>
        <time>2014-01-11T09:34:19.000Z</time>
      </trkpt>
      <trkpt lat="45.18585" lon="6.3681">
        <ele>2599.6000976562</ele>
        <time>2014-01-11T09:34:20.000Z</time>
      </trkpt>
      <trkpt lat="45.18585" lon="6.3681">
        <ele>2599.8000488281</ele>
        <time>2014-01-11T09:34:21.000Z</time>
      </trkpt>
      <trkpt lat="45.18584" lon="6.3681">
        <ele>2600</ele>
        <time>2014-01-11T09:34:22.000Z</time>
      </trkpt>
      <trkpt lat="45.18584" lon="6.3681">
        <ele>2600.1999511719</ele>
        <time>2014-01-11T09:34:23.000Z</time>
      </trkpt>
      <trkpt lat="45.18584" lon="6.3681">
        <ele>2600.3999023438</ele>
        <time>2014-01-11T09:34:24.000Z</time>
      </trkpt>
      <trkpt lat="45.18584" lon="6.3681">
        <ele>2600.6000976562</ele>
        <time>2014-01-11T09:34:25.000Z</time>
      </trkpt>
      <trkpt lat="45.18584" lon="6.36812">
        <ele>2600.6000976562</ele>
        <time>2014-01-11T09:34:26.000Z</time>
      </trkpt>
      <trkpt lat="45.18584" lon="6.36812">
        <ele>2600.8000488281</ele>
        <time>2014-01-11T09:34:27.000Z</time>
      </trkpt>
      <trkpt lat="45.18583" lon="6.36812">
        <ele>2601</ele>
        <time>2014-01-11T09:34:28.000Z</time>
      </trkpt>
      <trkpt lat="45.18583" lon="6.36813">
        <ele>2601.1999511719</ele>
        <time>2014-01-11T09:34:29.000Z</time>
      </trkpt>
      <trkpt lat="45.18582" lon="6.36814">
        <ele>2601.1999511719</ele>
        <time>2014-01-11T09:34:30.000Z</time>
      </trkpt>
      <trkpt lat="45.18582" lon="6.36815">
        <ele>2601.3999023438</ele>
        <time>2014-01-11T09:34:31.000Z</time>
      </trkpt>
      <trkpt lat="45.18581" lon="6.36815">
        <ele>2601.8000488281</ele>
        <time>2014-01-11T09:34:32.000Z</time>
      </trkpt>
      <trkpt lat="45.18582" lon="6.36816">
        <ele>2602</ele>
        <time>2014-01-11T09:34:33.000Z</time>
      </trkpt>
      <trkpt lat="45.18582" lon="6.36816">
        <ele>2602.1999511719</ele>
        <time>2014-01-11T09:34:34.000Z</time>
      </trkpt>
      <trkpt lat="45.18582" lon="6.36817">
        <ele>2602.3999023438</ele>
        <time>2014-01-11T09:34:35.000Z</time>
      </trkpt>
      <trkpt lat="45.18582" lon="6.36817">
        <ele>2602.3999023438</ele>
        <time>2014-01-11T09:34:36.000Z</time>
      </trkpt>
      <trkpt lat="45.18582" lon="6.36818">
        <ele>2602.6000976562</ele>
        <time>2014-01-11T09:34:37.000Z</time>
      </trkpt>
      <trkpt lat="45.18582" lon="6.36818">
        <ele>2602.6000976562</ele>
        <time>2014-01-11T09:34:38.000Z</time>
      </trkpt>
      <trkpt lat="45.18581" lon="6.36818">
        <ele>2602.8000488281</ele>
        <time>2014-01-11T09:34:39.000Z</time>
      </trkpt>
      <trkpt lat="45.18581" lon="6.36818">
        <ele>2603</ele>
        <time>2014-01-11T09:34:40.000Z</time>
      </trkpt>
      <trkpt lat="45.18581" lon="6.36819">
        <ele>2603.1999511719</ele>
        <time>2014-01-11T09:34:41.000Z</time>
      </trkpt>
      <trkpt lat="45.1858" lon="6.3682">
        <ele>2603.6000976562</ele>
        <time>2014-01-11T09:34:42.000Z</time>
      </trkpt>
      <trkpt lat="45.1858" lon="6.3682">
        <ele>2603.8000488281</ele>
        <time>2014-01-11T09:34:43.000Z</time>
      </trkpt>
      <trkpt lat="45.1858" lon="6.36821">
        <ele>2604</ele>
        <time>2014-01-11T09:34:44.000Z</time>
      </trkpt>
      <trkpt lat="45.1858" lon="6.36821">
        <ele>2604</ele>
        <time>2014-01-11T09:34:45.000Z</time>
      </trkpt>
      <trkpt lat="45.18579" lon="6.36821">
        <ele>2604.1999511719</ele>
        <time>2014-01-11T09:34:46.000Z</time>
      </trkpt>
      <trkpt lat="45.18579" lon="6.36821">
        <ele>2604.1999511719</ele>
        <time>2014-01-11T09:34:47.000Z</time>
      </trkpt>
      <trkpt lat="45.18579" lon="6.36821">
        <ele>2604.3999023438</ele>
        <time>2014-01-11T09:34:48.000Z</time>
      </trkpt>
      <trkpt lat="45.18579" lon="6.36821">
        <ele>2604.6000976562</ele>
        <time>2014-01-11T09:34:49.000Z</time>
      </trkpt>
      <trkpt lat="45.18579" lon="6.36821">
        <ele>2604.8000488281</ele>
        <time>2014-01-11T09:34:50.000Z</time>
      </trkpt>
      <trkpt lat="45.18579" lon="6.36821">
        <ele>2604.8000488281</ele>
        <time>2014-01-11T09:34:51.000Z</time>
      </trkpt>
      <trkpt lat="45.1858" lon="6.36821">
        <ele>2605</ele>
        <time>2014-01-11T09:34:52.000Z</time>
      </trkpt>
      <trkpt lat="45.1858" lon="6.36821">
        <ele>2605</ele>
        <time>2014-01-11T09:34:53.000Z</time>
      </trkpt>
      <trkpt lat="45.1858" lon="6.36821">
        <ele>2605</ele>
        <time>2014-01-11T09:34:54.000Z</time>
      </trkpt>
      <trkpt lat="45.1858" lon="6.36821">
        <ele>2605</ele>
        <time>2014-01-11T09:34:55.000Z</time>
      </trkpt>
      <trkpt lat="45.18581" lon="6.36821">
        <ele>2605.3999023438</ele>
        <time>2014-01-11T09:34:56.000Z</time>
      </trkpt>
      <trkpt lat="45.18581" lon="6.36821">
        <ele>2605.6000976562</ele>
        <time>2014-01-11T09:34:57.000Z</time>
      </trkpt>
      <trkpt lat="45.18581" lon="6.36821">
        <ele>2605.8000488281</ele>
        <time>2014-01-11T09:34:58.000Z</time>
      </trkpt>
      <trkpt lat="45.18582" lon="6.36821">
        <ele>2606</ele>
        <time>2014-01-11T09:34:59.000Z</time>
      </trkpt>
      <trkpt lat="45.18582" lon="6.36821">
        <ele>2606</ele>
        <time>2014-01-11T09:35:00.000Z</time>
      </trkpt>
      <trkpt lat="45.18582" lon="6.36821">
        <ele>2606.1999511719</ele>
        <time>2014-01-11T09:35:01.000Z</time>
      </trkpt>
      <trkpt lat="45.18582" lon="6.36821">
        <ele>2606.3999023438</ele>
        <time>2014-01-11T09:35:02.000Z</time>
      </trkpt>
      <trkpt lat="45.18582" lon="6.36821">
        <ele>2606.3999023438</ele>
        <time>2014-01-11T09:35:03.000Z</time>
      </trkpt>
      <trkpt lat="45.18582" lon="6.36821">
        <ele>2606.6000976562</ele>
        <time>2014-01-11T09:35:04.000Z</time>
      </trkpt>
      <trkpt lat="45.18583" lon="6.36822">
        <ele>2606.6000976562</ele>
        <time>2014-01-11T09:35:05.000Z</time>
      </trkpt>
      <trkpt lat="45.18584" lon="6.36823">
        <ele>2606.8000488281</ele>
        <time>2014-01-11T09:35:06.000Z</time>
      </trkpt>
      <trkpt lat="45.18585" lon="6.36823">
        <ele>2607</ele>
        <time>2014-01-11T09:35:07.000Z</time>
      </trkpt>
      <trkpt lat="45.18585" lon="6.36823">
        <ele>2607.3999023438</ele>
        <time>2014-01-11T09:35:08.000Z</time>
      </trkpt>
      <trkpt lat="45.18585" lon="6.36823">
        <ele>2607.3999023438</ele>
        <time>2014-01-11T09:35:09.000Z</time>
      </trkpt>
      <trkpt lat="45.18585" lon="6.36824">
        <ele>2607.6000976562</ele>
        <time>2014-01-11T09:35:10.000Z</time>
      </trkpt>
      <trkpt lat="45.18585" lon="6.36824">
        <ele>2607.8000488281</ele>
        <time>2014-01-11T09:35:11.000Z</time>
      </trkpt>
      <trkpt lat="45.18586" lon="6.36824">
        <ele>2608</ele>
        <time>2014-01-11T09:35:12.000Z</time>
      </trkpt>
      <trkpt lat="45.18586" lon="6.36825">
        <ele>2608.1999511719</ele>
        <time>2014-01-11T09:35:13.000Z</time>
      </trkpt>
      <trkpt lat="45.18587" lon="6.36825">
        <ele>2608.1999511719</ele>
        <time>2014-01-11T09:35:14.000Z</time>
      </trkpt>
      <trkpt lat="45.18588" lon="6.36825">
        <ele>2608.3999023438</ele>
        <time>2014-01-11T09:35:15.000Z</time>
      </trkpt>
      <trkpt lat="45.18589" lon="6.36826">
        <ele>2608.8000488281</ele>
        <time>2014-01-11T09:35:16.000Z</time>
      </trkpt>
      <trkpt lat="45.18589" lon="6.36826">
        <ele>2609</ele>
        <time>2014-01-11T09:35:17.000Z</time>
      </trkpt>
      <trkpt lat="45.18589" lon="6.36826">
        <ele>2609.1999511719</ele>
        <time>2014-01-11T09:35:18.000Z</time>
      </trkpt>
      <trkpt lat="45.18589" lon="6.36826">
        <ele>2609.3999023438</ele>
        <time>2014-01-11T09:35:19.000Z</time>
      </trkpt>
      <trkpt lat="45.18589" lon="6.36826">
        <ele>2609.8000488281</ele>
        <time>2014-01-11T09:35:20.000Z</time>
      </trkpt>
      <trkpt lat="45.1859" lon="6.36827">
        <ele>2609.8000488281</ele>
        <time>2014-01-11T09:35:21.000Z</time>
      </trkpt>
      <trkpt lat="45.1859" lon="6.36827">
        <ele>2610</ele>
        <time>2014-01-11T09:35:22.000Z</time>
      </trkpt>
      <trkpt lat="45.1859" lon="6.36828">
        <ele>2610.1999511719</ele>
        <time>2014-01-11T09:35:23.000Z</time>
      </trkpt>
      <trkpt lat="45.1859" lon="6.36828">
        <ele>2610.3999023438</ele>
        <time>2014-01-11T09:35:24.000Z</time>
      </trkpt>
      <trkpt lat="45.18591" lon="6.36828">
        <ele>2610.6000976562</ele>
        <time>2014-01-11T09:35:25.000Z</time>
      </trkpt>
      <trkpt lat="45.18592" lon="6.36828">
        <ele>2610.8000488281</ele>
        <time>2014-01-11T09:35:26.000Z</time>
      </trkpt>
      <trkpt lat="45.18593" lon="6.36828">
        <ele>2611</ele>
        <time>2014-01-11T09:35:27.000Z</time>
      </trkpt>
      <trkpt lat="45.18594" lon="6.36829">
        <ele>2611</ele>
        <time>2014-01-11T09:35:28.000Z</time>
      </trkpt>
      <trkpt lat="45.18595" lon="6.36829">
        <ele>2611.1999511719</ele>
        <time>2014-01-11T09:35:29.000Z</time>
      </trkpt>
      <trkpt lat="45.18596" lon="6.36829">
        <ele>2611.3999023438</ele>
        <time>2014-01-11T09:35:30.000Z</time>
      </trkpt>
      <trkpt lat="45.18597" lon="6.36829">
        <ele>2611.6000976562</ele>
        <time>2014-01-11T09:35:31.000Z</time>
      </trkpt>
      <trkpt lat="45.18598" lon="6.36829">
        <ele>2611.8000488281</ele>
        <time>2014-01-11T09:35:32.000Z</time>
      </trkpt>
      <trkpt lat="45.18598" lon="6.3683">
        <ele>2612</ele>
        <time>2014-01-11T09:35:33.000Z</time>
      </trkpt>
      <trkpt lat="45.18598" lon="6.36829">
        <ele>2612</ele>
        <time>2014-01-11T09:35:34.000Z</time>
      </trkpt>
      <trkpt lat="45.18598" lon="6.36829">
        <ele>2612.1999511719</ele>
        <time>2014-01-11T09:35:35.000Z</time>
      </trkpt>
      <trkpt lat="45.18599" lon="6.3683">
        <ele>2612.3999023438</ele>
        <time>2014-01-11T09:35:36.000Z</time>
      </trkpt>
      <trkpt lat="45.18599" lon="6.3683">
        <ele>2612.6000976562</ele>
        <time>2014-01-11T09:35:37.000Z</time>
      </trkpt>
      <trkpt lat="45.186" lon="6.3683">
        <ele>2612.6000976562</ele>
        <time>2014-01-11T09:35:38.000Z</time>
      </trkpt>
      <trkpt lat="45.18601" lon="6.36831">
        <ele>2612.8000488281</ele>
        <time>2014-01-11T09:35:39.000Z</time>
      </trkpt>
      <trkpt lat="45.18601" lon="6.36831">
        <ele>2613</ele>
        <time>2014-01-11T09:35:40.000Z</time>
      </trkpt>
      <trkpt lat="45.18602" lon="6.36832">
        <ele>2613.3999023438</ele>
        <time>2014-01-11T09:35:41.000Z</time>
      </trkpt>
      <trkpt lat="45.18602" lon="6.36832">
        <ele>2613.6000976562</ele>
        <time>2014-01-11T09:35:42.000Z</time>
      </trkpt>
      <trkpt lat="45.18602" lon="6.36833">
        <ele>2613.8000488281</ele>
        <time>2014-01-11T09:35:43.000Z</time>
      </trkpt>
      <trkpt lat="45.18602" lon="6.36833">
        <ele>2614.1999511719</ele>
        <time>2014-01-11T09:35:44.000Z</time>
      </trkpt>
      <trkpt lat="45.18602" lon="6.36833">
        <ele>2614.1999511719</ele>
        <time>2014-01-11T09:35:45.000Z</time>
      </trkpt>
      <trkpt lat="45.18602" lon="6.36833">
        <ele>2614.3999023438</ele>
        <time>2014-01-11T09:35:46.000Z</time>
      </trkpt>
      <trkpt lat="45.18603" lon="6.36833">
        <ele>2614.6000976562</ele>
        <time>2014-01-11T09:35:47.000Z</time>
      </trkpt>
      <trkpt lat="45.18603" lon="6.36834">
        <ele>2614.8000488281</ele>
        <time>2014-01-11T09:35:48.000Z</time>
      </trkpt>
      <trkpt lat="45.18604" lon="6.36834">
        <ele>2615</ele>
        <time>2014-01-11T09:35:49.000Z</time>
      </trkpt>
      <trkpt lat="45.18605" lon="6.36835">
        <ele>2615.1999511719</ele>
        <time>2014-01-11T09:35:50.000Z</time>
      </trkpt>
      <trkpt lat="45.18606" lon="6.36835">
        <ele>2615.3999023438</ele>
        <time>2014-01-11T09:35:51.000Z</time>
      </trkpt>
      <trkpt lat="45.18606" lon="6.36835">
        <ele>2615.3999023438</ele>
        <time>2014-01-11T09:35:52.000Z</time>
      </trkpt>
      <trkpt lat="45.18606" lon="6.36835">
        <ele>2615.6000976562</ele>
        <time>2014-01-11T09:35:53.000Z</time>
      </trkpt>
      <trkpt lat="45.18606" lon="6.36836">
        <ele>2615.6000976562</ele>
        <time>2014-01-11T09:35:54.000Z</time>
      </trkpt>
      <trkpt lat="45.18606" lon="6.36836">
        <ele>2615.8000488281</ele>
        <time>2014-01-11T09:35:55.000Z</time>
      </trkpt>
      <trkpt lat="45.18606" lon="6.36836">
        <ele>2616</ele>
        <time>2014-01-11T09:35:56.000Z</time>
      </trkpt>
      <trkpt lat="45.18607" lon="6.36837">
        <ele>2616.1999511719</ele>
        <time>2014-01-11T09:35:57.000Z</time>
      </trkpt>
      <trkpt lat="45.18608" lon="6.36837">
        <ele>2616.3999023438</ele>
        <time>2014-01-11T09:35:58.000Z</time>
      </trkpt>
      <trkpt lat="45.18608" lon="6.36838">
        <ele>2616.6000976562</ele>
        <time>2014-01-11T09:35:59.000Z</time>
      </trkpt>
      <trkpt lat="45.18609" lon="6.36838">
        <ele>2616.8000488281</ele>
        <time>2014-01-11T09:36:00.000Z</time>
      </trkpt>
      <trkpt lat="45.1861" lon="6.36839">
        <ele>2617</ele>
        <time>2014-01-11T09:36:01.000Z</time>
      </trkpt>
      <trkpt lat="45.1861" lon="6.36839">
        <ele>2617.1999511719</ele>
        <time>2014-01-11T09:36:02.000Z</time>
      </trkpt>
      <trkpt lat="45.1861" lon="6.36839">
        <ele>2617.3999023438</ele>
        <time>2014-01-11T09:36:03.000Z</time>
      </trkpt>
      <trkpt lat="45.1861" lon="6.3684">
        <ele>2617.3999023438</ele>
        <time>2014-01-11T09:36:04.000Z</time>
      </trkpt>
      <trkpt lat="45.18611" lon="6.36841">
        <ele>2617.6000976562</ele>
        <time>2014-01-11T09:36:05.000Z</time>
      </trkpt>
      <trkpt lat="45.18611" lon="6.36841">
        <ele>2617.6000976562</ele>
        <time>2014-01-11T09:36:06.000Z</time>
      </trkpt>
      <trkpt lat="45.18612" lon="6.36842">
        <ele>2617.8000488281</ele>
        <time>2014-01-11T09:36:07.000Z</time>
      </trkpt>
      <trkpt lat="45.18612" lon="6.36842">
        <ele>2618.1999511719</ele>
        <time>2014-01-11T09:36:08.000Z</time>
      </trkpt>
      <trkpt lat="45.18612" lon="6.36842">
        <ele>2618.3999023438</ele>
        <time>2014-01-11T09:36:09.000Z</time>
      </trkpt>
      <trkpt lat="45.18612" lon="6.36842">
        <ele>2618.8000488281</ele>
        <time>2014-01-11T09:36:10.000Z</time>
      </trkpt>
      <trkpt lat="45.18612" lon="6.36842">
        <ele>2619</ele>
        <time>2014-01-11T09:36:11.000Z</time>
      </trkpt>
      <trkpt lat="45.18612" lon="6.36842">
        <ele>2619.1999511719</ele>
        <time>2014-01-11T09:36:12.000Z</time>
      </trkpt>
      <trkpt lat="45.18612" lon="6.36842">
        <ele>2619.3999023438</ele>
        <time>2014-01-11T09:36:13.000Z</time>
      </trkpt>
      <trkpt lat="45.18611" lon="6.36842">
        <ele>2619.3999023438</ele>
        <time>2014-01-11T09:36:14.000Z</time>
      </trkpt>
      <trkpt lat="45.1861" lon="6.36842">
        <ele>2619.3999023438</ele>
        <time>2014-01-11T09:36:15.000Z</time>
      </trkpt>
      <trkpt lat="45.1861" lon="6.36842">
        <ele>2619.6000976562</ele>
        <time>2014-01-11T09:36:16.000Z</time>
      </trkpt>
      <trkpt lat="45.18609" lon="6.36842">
        <ele>2619.6000976562</ele>
        <time>2014-01-11T09:36:17.000Z</time>
      </trkpt>
      <trkpt lat="45.18608" lon="6.36842">
        <ele>2619.6000976562</ele>
        <time>2014-01-11T09:36:18.000Z</time>
      </trkpt>
      <trkpt lat="45.18608" lon="6.36842">
        <ele>2619.6000976562</ele>
        <time>2014-01-11T09:36:19.000Z</time>
      </trkpt>
      <trkpt lat="45.18607" lon="6.36842">
        <ele>2619.6000976562</ele>
        <time>2014-01-11T09:36:20.000Z</time>
      </trkpt>
      <trkpt lat="45.18607" lon="6.36842">
        <ele>2619.8000488281</ele>
        <time>2014-01-11T09:36:21.000Z</time>
      </trkpt>
      <trkpt lat="45.18606" lon="6.36842">
        <ele>2620</ele>
        <time>2014-01-11T09:36:22.000Z</time>
      </trkpt>
      <trkpt lat="45.18606" lon="6.36842">
        <ele>2620.1999511719</ele>
        <time>2014-01-11T09:36:23.000Z</time>
      </trkpt>
      <trkpt lat="45.18606" lon="6.36843">
        <ele>2620.1999511719</ele>
        <time>2014-01-11T09:36:24.000Z</time>
      </trkpt>
      <trkpt lat="45.18605" lon="6.36843">
        <ele>2620.3999023438</ele>
        <time>2014-01-11T09:36:25.000Z</time>
      </trkpt>
      <trkpt lat="45.18604" lon="6.36844">
        <ele>2620.6000976562</ele>
        <time>2014-01-11T09:36:26.000Z</time>
      </trkpt>
      <trkpt lat="45.18603" lon="6.36844">
        <ele>2620.8000488281</ele>
        <time>2014-01-11T09:36:27.000Z</time>
      </trkpt>
      <trkpt lat="45.18603" lon="6.36844">
        <ele>2621</ele>
        <time>2014-01-11T09:36:28.000Z</time>
      </trkpt>
      <trkpt lat="45.18603" lon="6.36845">
        <ele>2621.1999511719</ele>
        <time>2014-01-11T09:36:29.000Z</time>
      </trkpt>
      <trkpt lat="45.18602" lon="6.36845">
        <ele>2621.3999023438</ele>
        <time>2014-01-11T09:36:30.000Z</time>
      </trkpt>
      <trkpt lat="45.18602" lon="6.36845">
        <ele>2621.6000976562</ele>
        <time>2014-01-11T09:36:31.000Z</time>
      </trkpt>
      <trkpt lat="45.18602" lon="6.36846">
        <ele>2622</ele>
        <time>2014-01-11T09:36:32.000Z</time>
      </trkpt>
      <trkpt lat="45.18602" lon="6.36846">
        <ele>2622.1999511719</ele>
        <time>2014-01-11T09:36:33.000Z</time>
      </trkpt>
      <trkpt lat="45.18601" lon="6.36846">
        <ele>2622.3999023438</ele>
        <time>2014-01-11T09:36:34.000Z</time>
      </trkpt>
      <trkpt lat="45.18601" lon="6.36846">
        <ele>2622.6000976562</ele>
        <time>2014-01-11T09:36:35.000Z</time>
      </trkpt>
      <trkpt lat="45.18601" lon="6.36847">
        <ele>2622.6000976562</ele>
        <time>2014-01-11T09:36:36.000Z</time>
      </trkpt>
      <trkpt lat="45.18601" lon="6.36848">
        <ele>2622.8000488281</ele>
        <time>2014-01-11T09:36:37.000Z</time>
      </trkpt>
      <trkpt lat="45.18601" lon="6.36849">
        <ele>2622.8000488281</ele>
        <time>2014-01-11T09:36:38.000Z</time>
      </trkpt>
      <trkpt lat="45.18601" lon="6.36849">
        <ele>2623</ele>
        <time>2014-01-11T09:36:39.000Z</time>
      </trkpt>
      <trkpt lat="45.18601" lon="6.36849">
        <ele>2623.1999511719</ele>
        <time>2014-01-11T09:36:40.000Z</time>
      </trkpt>
      <trkpt lat="45.18601" lon="6.36849">
        <ele>2623.6000976562</ele>
        <time>2014-01-11T09:36:41.000Z</time>
      </trkpt>
      <trkpt lat="45.18601" lon="6.3685">
        <ele>2623.8000488281</ele>
        <time>2014-01-11T09:36:42.000Z</time>
      </trkpt>
      <trkpt lat="45.186" lon="6.3685">
        <ele>2624</ele>
        <time>2014-01-11T09:36:43.000Z</time>
      </trkpt>
      <trkpt lat="45.186" lon="6.36851">
        <ele>2624.1999511719</ele>
        <time>2014-01-11T09:36:44.000Z</time>
      </trkpt>
      <trkpt lat="45.18599" lon="6.36851">
        <ele>2624.1999511719</ele>
        <time>2014-01-11T09:36:45.000Z</time>
      </trkpt>
      <trkpt lat="45.18599" lon="6.36853">
        <ele>2624.3999023438</ele>
        <time>2014-01-11T09:36:46.000Z</time>
      </trkpt>
      <trkpt lat="45.18599" lon="6.36854">
        <ele>2624.6000976562</ele>
        <time>2014-01-11T09:36:47.000Z</time>
      </trkpt>
      <trkpt lat="45.18598" lon="6.36855">
        <ele>2624.8000488281</ele>
        <time>2014-01-11T09:36:48.000Z</time>
      </trkpt>
      <trkpt lat="45.18597" lon="6.36856">
        <ele>2625</ele>
        <time>2014-01-11T09:36:49.000Z</time>
      </trkpt>
      <trkpt lat="45.18597" lon="6.36856">
        <ele>2625</ele>
        <time>2014-01-11T09:36:50.000Z</time>
      </trkpt>
      <trkpt lat="45.18597" lon="6.36857">
        <ele>2625.1999511719</ele>
        <time>2014-01-11T09:36:51.000Z</time>
      </trkpt>
      <trkpt lat="45.18596" lon="6.36858">
        <ele>2625.3999023438</ele>
        <time>2014-01-11T09:36:52.000Z</time>
      </trkpt>
      <trkpt lat="45.18595" lon="6.36858">
        <ele>2625.6000976562</ele>
        <time>2014-01-11T09:36:53.000Z</time>
      </trkpt>
      <trkpt lat="45.18595" lon="6.36858">
        <ele>2625.8000488281</ele>
        <time>2014-01-11T09:36:54.000Z</time>
      </trkpt>
      <trkpt lat="45.18595" lon="6.36859">
        <ele>2626</ele>
        <time>2014-01-11T09:36:55.000Z</time>
      </trkpt>
      <trkpt lat="45.18595" lon="6.36859">
        <ele>2626.3999023438</ele>
        <time>2014-01-11T09:36:56.000Z</time>
      </trkpt>
      <trkpt lat="45.18594" lon="6.36859">
        <ele>2626.6000976562</ele>
        <time>2014-01-11T09:36:57.000Z</time>
      </trkpt>
      <trkpt lat="45.18594" lon="6.3686">
        <ele>2626.8000488281</ele>
        <time>2014-01-11T09:36:58.000Z</time>
      </trkpt>
      <trkpt lat="45.18593" lon="6.3686">
        <ele>2626.8000488281</ele>
        <time>2014-01-11T09:36:59.000Z</time>
      </trkpt>
      <trkpt lat="45.18593" lon="6.36861">
        <ele>2627</ele>
        <time>2014-01-11T09:37:00.000Z</time>
      </trkpt>
      <trkpt lat="45.18592" lon="6.36861">
        <ele>2627.1999511719</ele>
        <time>2014-01-11T09:37:01.000Z</time>
      </trkpt>
      <trkpt lat="45.18592" lon="6.36861">
        <ele>2627.3999023438</ele>
        <time>2014-01-11T09:37:02.000Z</time>
      </trkpt>
      <trkpt lat="45.18592" lon="6.36861">
        <ele>2627.3999023438</ele>
        <time>2014-01-11T09:37:03.000Z</time>
      </trkpt>
      <trkpt lat="45.18592" lon="6.36861">
        <ele>2627.6000976562</ele>
        <time>2014-01-11T09:37:04.000Z</time>
      </trkpt>
      <trkpt lat="45.18592" lon="6.36861">
        <ele>2627.8000488281</ele>
        <time>2014-01-11T09:37:05.000Z</time>
      </trkpt>
      <trkpt lat="45.18592" lon="6.36861">
        <ele>2628</ele>
        <time>2014-01-11T09:37:06.000Z</time>
      </trkpt>
      <trkpt lat="45.18593" lon="6.36861">
        <ele>2628</ele>
        <time>2014-01-11T09:37:07.000Z</time>
      </trkpt>
      <trkpt lat="45.18594" lon="6.36862">
        <ele>2628</ele>
        <time>2014-01-11T09:37:08.000Z</time>
      </trkpt>
      <trkpt lat="45.18594" lon="6.36862">
        <ele>2628.1999511719</ele>
        <time>2014-01-11T09:37:09.000Z</time>
      </trkpt>
      <trkpt lat="45.18595" lon="6.36862">
        <ele>2628.1999511719</ele>
        <time>2014-01-11T09:37:10.000Z</time>
      </trkpt>
      <trkpt lat="45.18595" lon="6.36862">
        <ele>2628.3999023438</ele>
        <time>2014-01-11T09:37:11.000Z</time>
      </trkpt>
      <trkpt lat="45.18595" lon="6.36863">
        <ele>2628.3999023438</ele>
        <time>2014-01-11T09:37:12.000Z</time>
      </trkpt>
      <trkpt lat="45.18596" lon="6.36863">
        <ele>2628.6000976562</ele>
        <time>2014-01-11T09:37:13.000Z</time>
      </trkpt>
      <trkpt lat="45.18596" lon="6.36864">
        <ele>2628.8000488281</ele>
        <time>2014-01-11T09:37:14.000Z</time>
      </trkpt>
      <trkpt lat="45.18597" lon="6.36864">
        <ele>2629</ele>
        <time>2014-01-11T09:37:15.000Z</time>
      </trkpt>
      <trkpt lat="45.18597" lon="6.36865">
        <ele>2629.1999511719</ele>
        <time>2014-01-11T09:37:16.000Z</time>
      </trkpt>
      <trkpt lat="45.18597" lon="6.36865">
        <ele>2629.1999511719</ele>
        <time>2014-01-11T09:37:17.000Z</time>
      </trkpt>
      <trkpt lat="45.18597" lon="6.36866">
        <ele>2629.3999023438</ele>
        <time>2014-01-11T09:37:18.000Z</time>
      </trkpt>
      <trkpt lat="45.18598" lon="6.36866">
        <ele>2629.3999023438</ele>
        <time>2014-01-11T09:37:19.000Z</time>
      </trkpt>
      <trkpt lat="45.18598" lon="6.36867">
        <ele>2629.8000488281</ele>
        <time>2014-01-11T09:37:20.000Z</time>
      </trkpt>
      <trkpt lat="45.18599" lon="6.36868">
        <ele>2629.8000488281</ele>
        <time>2014-01-11T09:37:21.000Z</time>
      </trkpt>
      <trkpt lat="45.18599" lon="6.36869">
        <ele>2630</ele>
        <time>2014-01-11T09:37:22.000Z</time>
      </trkpt>
      <trkpt lat="45.186" lon="6.36869">
        <ele>2630.1999511719</ele>
        <time>2014-01-11T09:37:23.000Z</time>
      </trkpt>
      <trkpt lat="45.186" lon="6.36869">
        <ele>2630.3999023438</ele>
        <time>2014-01-11T09:37:24.000Z</time>
      </trkpt>
      <trkpt lat="45.186" lon="6.36869">
        <ele>2630.3999023438</ele>
        <time>2014-01-11T09:37:25.000Z</time>
      </trkpt>
      <trkpt lat="45.18601" lon="6.3687">
        <ele>2630.6000976562</ele>
        <time>2014-01-11T09:37:26.000Z</time>
      </trkpt>
      <trkpt lat="45.18602" lon="6.3687">
        <ele>2630.8000488281</ele>
        <time>2014-01-11T09:37:27.000Z</time>
      </trkpt>
      <trkpt lat="45.18602" lon="6.3687">
        <ele>2631</ele>
        <time>2014-01-11T09:37:28.000Z</time>
      </trkpt>
      <trkpt lat="45.18603" lon="6.36871">
        <ele>2631.1999511719</ele>
        <time>2014-01-11T09:37:29.000Z</time>
      </trkpt>
      <trkpt lat="45.18603" lon="6.36871">
        <ele>2631.3999023438</ele>
        <time>2014-01-11T09:37:30.000Z</time>
      </trkpt>
      <trkpt lat="45.18604" lon="6.36871">
        <ele>2631.6000976562</ele>
        <time>2014-01-11T09:37:31.000Z</time>
      </trkpt>
      <trkpt lat="45.18604" lon="6.36871">
        <ele>2631.8000488281</ele>
        <time>2014-01-11T09:37:32.000Z</time>
      </trkpt>
      <trkpt lat="45.18604" lon="6.36871">
        <ele>2632</ele>
        <time>2014-01-11T09:37:33.000Z</time>
      </trkpt>
      <trkpt lat="45.18604" lon="6.36871">
        <ele>2632.1999511719</ele>
        <time>2014-01-11T09:37:34.000Z</time>
      </trkpt>
      <trkpt lat="45.18605" lon="6.36871">
        <ele>2632.1999511719</ele>
        <time>2014-01-11T09:37:35.000Z</time>
      </trkpt>
      <trkpt lat="45.18605" lon="6.3687">
        <ele>2632.3999023438</ele>
        <time>2014-01-11T09:37:36.000Z</time>
      </trkpt>
      <trkpt lat="45.18606" lon="6.3687">
        <ele>2632.6000976562</ele>
        <time>2014-01-11T09:37:37.000Z</time>
      </trkpt>
      <trkpt lat="45.18606" lon="6.3687">
        <ele>2632.6000976562</ele>
        <time>2014-01-11T09:37:38.000Z</time>
      </trkpt>
      <trkpt lat="45.18606" lon="6.3687">
        <ele>2632.8000488281</ele>
        <time>2014-01-11T09:37:39.000Z</time>
      </trkpt>
      <trkpt lat="45.18606" lon="6.3687">
        <ele>2632.8000488281</ele>
        <time>2014-01-11T09:37:40.000Z</time>
      </trkpt>
      <trkpt lat="45.18606" lon="6.3687">
        <ele>2633.1999511719</ele>
        <time>2014-01-11T09:37:41.000Z</time>
      </trkpt>
      <trkpt lat="45.18607" lon="6.3687">
        <ele>2633.3999023438</ele>
        <time>2014-01-11T09:37:42.000Z</time>
      </trkpt>
      <trkpt lat="45.18608" lon="6.36871">
        <ele>2633.6000976562</ele>
        <time>2014-01-11T09:37:43.000Z</time>
      </trkpt>
      <trkpt lat="45.18608" lon="6.36872">
        <ele>2634</ele>
        <time>2014-01-11T09:37:44.000Z</time>
      </trkpt>
      <trkpt lat="45.18609" lon="6.36872">
        <ele>2634</ele>
        <time>2014-01-11T09:37:45.000Z</time>
      </trkpt>
      <trkpt lat="45.18609" lon="6.36872">
        <ele>2634.1999511719</ele>
        <time>2014-01-11T09:37:46.000Z</time>
      </trkpt>
      <trkpt lat="45.18609" lon="6.36872">
        <ele>2634.6000976562</ele>
        <time>2014-01-11T09:37:47.000Z</time>
      </trkpt>
      <trkpt lat="45.1861" lon="6.36872">
        <ele>2634.8000488281</ele>
        <time>2014-01-11T09:37:48.000Z</time>
      </trkpt>
      <trkpt lat="45.1861" lon="6.36873">
        <ele>2635</ele>
        <time>2014-01-11T09:37:49.000Z</time>
      </trkpt>
      <trkpt lat="45.18611" lon="6.36873">
        <ele>2635.1999511719</ele>
        <time>2014-01-11T09:37:50.000Z</time>
      </trkpt>
      <trkpt lat="45.18612" lon="6.36874">
        <ele>2635.6000976562</ele>
        <time>2014-01-11T09:37:51.000Z</time>
      </trkpt>
      <trkpt lat="45.18612" lon="6.36874">
        <ele>2635.6000976562</ele>
        <time>2014-01-11T09:37:52.000Z</time>
      </trkpt>
      <trkpt lat="45.18613" lon="6.36875">
        <ele>2635.8000488281</ele>
        <time>2014-01-11T09:37:53.000Z</time>
      </trkpt>
      <trkpt lat="45.18613" lon="6.36875">
        <ele>2635.8000488281</ele>
        <time>2014-01-11T09:37:54.000Z</time>
      </trkpt>
      <trkpt lat="45.18614" lon="6.36875">
        <ele>2636</ele>
        <time>2014-01-11T09:37:55.000Z</time>
      </trkpt>
      <trkpt lat="45.18614" lon="6.36875">
        <ele>2636.1999511719</ele>
        <time>2014-01-11T09:37:56.000Z</time>
      </trkpt>
      <trkpt lat="45.18615" lon="6.36875">
        <ele>2636.3999023438</ele>
        <time>2014-01-11T09:37:57.000Z</time>
      </trkpt>
      <trkpt lat="45.18615" lon="6.36875">
        <ele>2636.6000976562</ele>
        <time>2014-01-11T09:37:58.000Z</time>
      </trkpt>
      <trkpt lat="45.18615" lon="6.36875">
        <ele>2636.8000488281</ele>
        <time>2014-01-11T09:37:59.000Z</time>
      </trkpt>
      <trkpt lat="45.18615" lon="6.36875">
        <ele>2637</ele>
        <time>2014-01-11T09:38:00.000Z</time>
      </trkpt>
      <trkpt lat="45.18615" lon="6.36875">
        <ele>2637.1999511719</ele>
        <time>2014-01-11T09:38:01.000Z</time>
      </trkpt>
      <trkpt lat="45.18615" lon="6.36875">
        <ele>2637.1999511719</ele>
        <time>2014-01-11T09:38:02.000Z</time>
      </trkpt>
      <trkpt lat="45.18615" lon="6.36875">
        <ele>2637.3999023438</ele>
        <time>2014-01-11T09:38:03.000Z</time>
      </trkpt>
      <trkpt lat="45.18615" lon="6.36875">
        <ele>2637.3999023438</ele>
        <time>2014-01-11T09:38:04.000Z</time>
      </trkpt>
      <trkpt lat="45.18615" lon="6.36875">
        <ele>2637.6000976562</ele>
        <time>2014-01-11T09:38:05.000Z</time>
      </trkpt>
      <trkpt lat="45.18615" lon="6.36875">
        <ele>2637.8000488281</ele>
        <time>2014-01-11T09:38:06.000Z</time>
      </trkpt>
      <trkpt lat="45.18615" lon="6.36875">
        <ele>2638</ele>
        <time>2014-01-11T09:38:07.000Z</time>
      </trkpt>
      <trkpt lat="45.18615" lon="6.36875">
        <ele>2637.8000488281</ele>
        <time>2014-01-11T09:38:08.000Z</time>
      </trkpt>
      <trkpt lat="45.18615" lon="6.36875">
        <ele>2637.8000488281</ele>
        <time>2014-01-11T09:38:09.000Z</time>
      </trkpt>
      <trkpt lat="45.18615" lon="6.36875">
        <ele>2637.6000976562</ele>
        <time>2014-01-11T09:38:10.000Z</time>
      </trkpt>
      <trkpt lat="45.18615" lon="6.36875">
        <ele>2637.3999023438</ele>
        <time>2014-01-11T09:38:11.000Z</time>
      </trkpt>
      <trkpt lat="45.18615" lon="6.36875">
        <ele>2637.3999023438</ele>
        <time>2014-01-11T09:38:12.000Z</time>
      </trkpt>
      <trkpt lat="45.18615" lon="6.36875">
        <ele>2637.3999023438</ele>
        <time>2014-01-11T09:38:13.000Z</time>
      </trkpt>
      <trkpt lat="45.18614" lon="6.36875">
        <ele>2637.3999023438</ele>
        <time>2014-01-11T09:38:14.000Z</time>
      </trkpt>
      <trkpt lat="45.18614" lon="6.36876">
        <ele>2637.6000976562</ele>
        <time>2014-01-11T09:38:15.000Z</time>
      </trkpt>
      <trkpt lat="45.18613" lon="6.36876">
        <ele>2637.8000488281</ele>
        <time>2014-01-11T09:38:16.000Z</time>
      </trkpt>
      <trkpt lat="45.18612" lon="6.36876">
        <ele>2638</ele>
        <time>2014-01-11T09:38:17.000Z</time>
      </trkpt>
      <trkpt lat="45.18612" lon="6.36876">
        <ele>2638</ele>
        <time>2014-01-11T09:38:18.000Z</time>
      </trkpt>
      <trkpt lat="45.18612" lon="6.36877">
        <ele>2638.1999511719</ele>
        <time>2014-01-11T09:38:19.000Z</time>
      </trkpt>
      <trkpt lat="45.18611" lon="6.36877">
        <ele>2638.3999023438</ele>
        <time>2014-01-11T09:38:20.000Z</time>
      </trkpt>
      <trkpt lat="45.1861" lon="6.36877">
        <ele>2638.6000976562</ele>
        <time>2014-01-11T09:38:21.000Z</time>
      </trkpt>
      <trkpt lat="45.1861" lon="6.36877">
        <ele>2638.6000976562</ele>
        <time>2014-01-11T09:38:22.000Z</time>
      </trkpt>
      <trkpt lat="45.1861" lon="6.36877">
        <ele>2638.8000488281</ele>
        <time>2014-01-11T09:38:23.000Z</time>
      </trkpt>
      <trkpt lat="45.18609" lon="6.36878">
        <ele>2638.8000488281</ele>
        <time>2014-01-11T09:38:24.000Z</time>
      </trkpt>
      <trkpt lat="45.18609" lon="6.36879">
        <ele>2639.1999511719</ele>
        <time>2014-01-11T09:38:25.000Z</time>
      </trkpt>
      <trkpt lat="45.18609" lon="6.36879">
        <ele>2639.3999023438</ele>
        <time>2014-01-11T09:38:26.000Z</time>
      </trkpt>
      <trkpt lat="45.18609" lon="6.36879">
        <ele>2639.6000976562</ele>
        <time>2014-01-11T09:38:27.000Z</time>
      </trkpt>
      <trkpt lat="45.18609" lon="6.36879">
        <ele>2639.8000488281</ele>
        <time>2014-01-11T09:38:28.000Z</time>
      </trkpt>
      <trkpt lat="45.18609" lon="6.36879">
        <ele>2639.8000488281</ele>
        <time>2014-01-11T09:38:29.000Z</time>
      </trkpt>
      <trkpt lat="45.18609" lon="6.36879">
        <ele>2639.8000488281</ele>
        <time>2014-01-11T09:38:30.000Z</time>
      </trkpt>
      <trkpt lat="45.18609" lon="6.36879">
        <ele>2640</ele>
        <time>2014-01-11T09:38:31.000Z</time>
      </trkpt>
      <trkpt lat="45.18609" lon="6.36879">
        <ele>2640</ele>
        <time>2014-01-11T09:38:32.000Z</time>
      </trkpt>
      <trkpt lat="45.18609" lon="6.36879">
        <ele>2640.1999511719</ele>
        <time>2014-01-11T09:38:33.000Z</time>
      </trkpt>
      <trkpt lat="45.18609" lon="6.36879">
        <ele>2640.3999023438</ele>
        <time>2014-01-11T09:38:34.000Z</time>
      </trkpt>
      <trkpt lat="45.18609" lon="6.36879">
        <ele>2640.6000976562</ele>
        <time>2014-01-11T09:38:35.000Z</time>
      </trkpt>
      <trkpt lat="45.1861" lon="6.3688">
        <ele>2640.8000488281</ele>
        <time>2014-01-11T09:38:36.000Z</time>
      </trkpt>
      <trkpt lat="45.1861" lon="6.3688">
        <ele>2641</ele>
        <time>2014-01-11T09:38:37.000Z</time>
      </trkpt>
      <trkpt lat="45.18611" lon="6.36881">
        <ele>2641.1999511719</ele>
        <time>2014-01-11T09:38:38.000Z</time>
      </trkpt>
      <trkpt lat="45.18611" lon="6.36881">
        <ele>2641.3999023438</ele>
        <time>2014-01-11T09:38:39.000Z</time>
      </trkpt>
      <trkpt lat="45.18612" lon="6.36882">
        <ele>2641.6000976562</ele>
        <time>2014-01-11T09:38:40.000Z</time>
      </trkpt>
      <trkpt lat="45.18612" lon="6.36883">
        <ele>2641.8000488281</ele>
        <time>2014-01-11T09:38:41.000Z</time>
      </trkpt>
      <trkpt lat="45.18613" lon="6.36883">
        <ele>2641.8000488281</ele>
        <time>2014-01-11T09:38:42.000Z</time>
      </trkpt>
      <trkpt lat="45.18613" lon="6.36883">
        <ele>2642</ele>
        <time>2014-01-11T09:38:43.000Z</time>
      </trkpt>
      <trkpt lat="45.18613" lon="6.36883">
        <ele>2642.1999511719</ele>
        <time>2014-01-11T09:38:44.000Z</time>
      </trkpt>
      <trkpt lat="45.18613" lon="6.36883">
        <ele>2642.3999023438</ele>
        <time>2014-01-11T09:38:45.000Z</time>
      </trkpt>
      <trkpt lat="45.18613" lon="6.36883">
        <ele>2642.6000976562</ele>
        <time>2014-01-11T09:38:46.000Z</time>
      </trkpt>
      <trkpt lat="45.18613" lon="6.36883">
        <ele>2642.8000488281</ele>
        <time>2014-01-11T09:38:47.000Z</time>
      </trkpt>
      <trkpt lat="45.18613" lon="6.36883">
        <ele>2643</ele>
        <time>2014-01-11T09:38:48.000Z</time>
      </trkpt>
      <trkpt lat="45.18613" lon="6.36883">
        <ele>2643.1999511719</ele>
        <time>2014-01-11T09:38:49.000Z</time>
      </trkpt>
      <trkpt lat="45.18613" lon="6.36883">
        <ele>2643.6000976562</ele>
        <time>2014-01-11T09:38:50.000Z</time>
      </trkpt>
      <trkpt lat="45.18613" lon="6.36883">
        <ele>2643.8000488281</ele>
        <time>2014-01-11T09:38:51.000Z</time>
      </trkpt>
      <trkpt lat="45.18613" lon="6.36883">
        <ele>2644</ele>
        <time>2014-01-11T09:38:52.000Z</time>
      </trkpt>
      <trkpt lat="45.18613" lon="6.36883">
        <ele>2644.1999511719</ele>
        <time>2014-01-11T09:38:53.000Z</time>
      </trkpt>
      <trkpt lat="45.18613" lon="6.36883">
        <ele>2644.1999511719</ele>
        <time>2014-01-11T09:38:54.000Z</time>
      </trkpt>
      <trkpt lat="45.18613" lon="6.36883">
        <ele>2644.3999023438</ele>
        <time>2014-01-11T09:38:55.000Z</time>
      </trkpt>
      <trkpt lat="45.18613" lon="6.36883">
        <ele>2644.3999023438</ele>
        <time>2014-01-11T09:38:56.000Z</time>
      </trkpt>
      <trkpt lat="45.18613" lon="6.36883">
        <ele>2644.3999023438</ele>
        <time>2014-01-11T09:38:57.000Z</time>
      </trkpt>
      <trkpt lat="45.18613" lon="6.36883">
        <ele>2644.3999023438</ele>
        <time>2014-01-11T09:38:58.000Z</time>
      </trkpt>
      <trkpt lat="45.18613" lon="6.36883">
        <ele>2644.6000976562</ele>
        <time>2014-01-11T09:38:59.000Z</time>
      </trkpt>
      <trkpt lat="45.18614" lon="6.36884">
        <ele>2644.8000488281</ele>
        <time>2014-01-11T09:39:00.000Z</time>
      </trkpt>
      <trkpt lat="45.18614" lon="6.36884">
        <ele>2645</ele>
        <time>2014-01-11T09:39:01.000Z</time>
      </trkpt>
      <trkpt lat="45.18614" lon="6.36884">
        <ele>2645.1999511719</ele>
        <time>2014-01-11T09:39:02.000Z</time>
      </trkpt>
      <trkpt lat="45.18614" lon="6.36884">
        <ele>2645.3999023438</ele>
        <time>2014-01-11T09:39:03.000Z</time>
      </trkpt>
      <trkpt lat="45.18614" lon="6.36884">
        <ele>2645.3999023438</ele>
        <time>2014-01-11T09:39:04.000Z</time>
      </trkpt>
      <trkpt lat="45.18614" lon="6.36884">
        <ele>2645.6000976562</ele>
        <time>2014-01-11T09:39:05.000Z</time>
      </trkpt>
      <trkpt lat="45.18614" lon="6.36884">
        <ele>2645.8000488281</ele>
        <time>2014-01-11T09:39:06.000Z</time>
      </trkpt>
      <trkpt lat="45.18614" lon="6.36884">
        <ele>2645.8000488281</ele>
        <time>2014-01-11T09:39:07.000Z</time>
      </trkpt>
      <trkpt lat="45.18614" lon="6.36884">
        <ele>2645.8000488281</ele>
        <time>2014-01-11T09:39:08.000Z</time>
      </trkpt>
      <trkpt lat="45.18614" lon="6.36884">
        <ele>2645.8000488281</ele>
        <time>2014-01-11T09:39:09.000Z</time>
      </trkpt>
      <trkpt lat="45.18614" lon="6.36884">
        <ele>2645.6000976562</ele>
        <time>2014-01-11T09:39:10.000Z</time>
      </trkpt>
      <trkpt lat="45.18614" lon="6.36884">
        <ele>2645.6000976562</ele>
        <time>2014-01-11T09:39:11.000Z</time>
      </trkpt>
      <trkpt lat="45.18614" lon="6.36884">
        <ele>2645.6000976562</ele>
        <time>2014-01-11T09:39:12.000Z</time>
      </trkpt>
      <trkpt lat="45.18614" lon="6.36884">
        <ele>2645.6000976562</ele>
        <time>2014-01-11T09:39:13.000Z</time>
      </trkpt>
      <trkpt lat="45.18614" lon="6.36884">
        <ele>2645.6000976562</ele>
        <time>2014-01-11T09:39:14.000Z</time>
      </trkpt>
      <trkpt lat="45.18614" lon="6.36884">
        <ele>2645.6000976562</ele>
        <time>2014-01-11T09:39:16.000Z</time>
      </trkpt>
      <trkpt lat="45.18614" lon="6.36884">
        <ele>2645.6000976562</ele>
        <time>2014-01-11T09:39:17.000Z</time>
      </trkpt>
      <trkpt lat="45.18614" lon="6.36884">
        <ele>2645.6000976562</ele>
        <time>2014-01-11T09:39:18.000Z</time>
      </trkpt>
      <trkpt lat="45.18614" lon="6.36884">
        <ele>2645.6000976562</ele>
        <time>2014-01-11T09:39:19.000Z</time>
      </trkpt>
      <trkpt lat="45.18614" lon="6.36884">
        <ele>2645.8000488281</ele>
        <time>2014-01-11T09:39:20.000Z</time>
      </trkpt>
      <trkpt lat="45.18614" lon="6.36884">
        <ele>2645.8000488281</ele>
        <time>2014-01-11T09:39:21.000Z</time>
      </trkpt>
      <trkpt lat="45.18614" lon="6.36884">
        <ele>2645.8000488281</ele>
        <time>2014-01-11T09:39:22.000Z</time>
      </trkpt>
      <trkpt lat="45.18614" lon="6.36884">
        <ele>2645.8000488281</ele>
        <time>2014-01-11T09:39:23.000Z</time>
      </trkpt>
      <trkpt lat="45.18614" lon="6.36884">
        <ele>2645.8000488281</ele>
        <time>2014-01-11T09:39:24.000Z</time>
      </trkpt>
      <trkpt lat="45.18614" lon="6.36884">
        <ele>2645.8000488281</ele>
        <time>2014-01-11T09:39:25.000Z</time>
      </trkpt>
      <trkpt lat="45.18614" lon="6.36884">
        <ele>2645.8000488281</ele>
        <time>2014-01-11T09:39:26.000Z</time>
      </trkpt>
      <trkpt lat="45.18614" lon="6.36884">
        <ele>2645.8000488281</ele>
        <time>2014-01-11T09:39:27.000Z</time>
      </trkpt>
      <trkpt lat="45.18614" lon="6.36884">
        <ele>2646</ele>
        <time>2014-01-11T09:39:28.000Z</time>
      </trkpt>
      <trkpt lat="45.18613" lon="6.36884">
        <ele>2646</ele>
        <time>2014-01-11T09:39:30.000Z</time>
      </trkpt>
      <trkpt lat="45.18613" lon="6.36885">
        <ele>2645.8000488281</ele>
        <time>2014-01-11T09:39:31.000Z</time>
      </trkpt>
      <trkpt lat="45.18613" lon="6.36886">
        <ele>2645.8000488281</ele>
        <time>2014-01-11T09:39:32.000Z</time>
      </trkpt>
      <trkpt lat="45.18613" lon="6.36887">
        <ele>2645.8000488281</ele>
        <time>2014-01-11T09:39:34.000Z</time>
      </trkpt>
      <trkpt lat="45.18612" lon="6.36887">
        <ele>2645.8000488281</ele>
        <time>2014-01-11T09:39:35.000Z</time>
      </trkpt>
      <trkpt lat="45.18612" lon="6.36887">
        <ele>2646</ele>
        <time>2014-01-11T09:39:36.000Z</time>
      </trkpt>
      <trkpt lat="45.18612" lon="6.36888">
        <ele>2646.1999511719</ele>
        <time>2014-01-11T09:39:37.000Z</time>
      </trkpt>
      <trkpt lat="45.18612" lon="6.36888">
        <ele>2646.3999023438</ele>
        <time>2014-01-11T09:39:38.000Z</time>
      </trkpt>
      <trkpt lat="45.18612" lon="6.36888">
        <ele>2646.6000976562</ele>
        <time>2014-01-11T09:39:39.000Z</time>
      </trkpt>
      <trkpt lat="45.18612" lon="6.36888">
        <ele>2646.8000488281</ele>
        <time>2014-01-11T09:39:40.000Z</time>
      </trkpt>
      <trkpt lat="45.18612" lon="6.36888">
        <ele>2646.8000488281</ele>
        <time>2014-01-11T09:39:41.000Z</time>
      </trkpt>
      <trkpt lat="45.18611" lon="6.36889">
        <ele>2647</ele>
        <time>2014-01-11T09:39:42.000Z</time>
      </trkpt>
      <trkpt lat="45.18611" lon="6.36889">
        <ele>2647.3999023438</ele>
        <time>2014-01-11T09:39:43.000Z</time>
      </trkpt>
      <trkpt lat="45.18611" lon="6.36889">
        <ele>2647.8000488281</ele>
        <time>2014-01-11T09:39:44.000Z</time>
      </trkpt>
      <trkpt lat="45.1861" lon="6.3689">
        <ele>2648</ele>
        <time>2014-01-11T09:39:45.000Z</time>
      </trkpt>
      <trkpt lat="45.1861" lon="6.3689">
        <ele>2648.1999511719</ele>
        <time>2014-01-11T09:39:46.000Z</time>
      </trkpt>
      <trkpt lat="45.1861" lon="6.3689">
        <ele>2648.1999511719</ele>
        <time>2014-01-11T09:39:47.000Z</time>
      </trkpt>
      <trkpt lat="45.1861" lon="6.3689">
        <ele>2648.3999023438</ele>
        <time>2014-01-11T09:39:48.000Z</time>
      </trkpt>
      <trkpt lat="45.1861" lon="6.3689">
        <ele>2648.3999023438</ele>
        <time>2014-01-11T09:39:49.000Z</time>
      </trkpt>
      <trkpt lat="45.1861" lon="6.3689">
        <ele>2648.3999023438</ele>
        <time>2014-01-11T09:39:50.000Z</time>
      </trkpt>
      <trkpt lat="45.1861" lon="6.3689">
        <ele>2648.6000976562</ele>
        <time>2014-01-11T09:39:51.000Z</time>
      </trkpt>
      <trkpt lat="45.1861" lon="6.3689">
        <ele>2648.6000976562</ele>
        <time>2014-01-11T09:39:52.000Z</time>
      </trkpt>
      <trkpt lat="45.1861" lon="6.3689">
        <ele>2648.6000976562</ele>
        <time>2014-01-11T09:39:54.000Z</time>
      </trkpt>
      <trkpt lat="45.1861" lon="6.3689">
        <ele>2648.6000976562</ele>
        <time>2014-01-11T09:39:55.000Z</time>
      </trkpt>
      <trkpt lat="45.18611" lon="6.36891">
        <ele>2648.6000976562</ele>
        <time>2014-01-11T09:39:56.000Z</time>
      </trkpt>
      <trkpt lat="45.18611" lon="6.36891">
        <ele>2648.6000976562</ele>
        <time>2014-01-11T09:39:57.000Z</time>
      </trkpt>
      <trkpt lat="45.18611" lon="6.36891">
        <ele>2648.8000488281</ele>
        <time>2014-01-11T09:39:58.000Z</time>
      </trkpt>
      <trkpt lat="45.18611" lon="6.36892">
        <ele>2649</ele>
        <time>2014-01-11T09:39:59.000Z</time>
      </trkpt>
      <trkpt lat="45.18612" lon="6.36892">
        <ele>2649.1999511719</ele>
        <time>2014-01-11T09:40:00.000Z</time>
      </trkpt>
      <trkpt lat="45.18612" lon="6.36893">
        <ele>2649.6000976562</ele>
        <time>2014-01-11T09:40:01.000Z</time>
      </trkpt>
      <trkpt lat="45.18612" lon="6.36894">
        <ele>2649.8000488281</ele>
        <time>2014-01-11T09:40:02.000Z</time>
      </trkpt>
      <trkpt lat="45.18612" lon="6.36894">
        <ele>2649.8000488281</ele>
        <time>2014-01-11T09:40:03.000Z</time>
      </trkpt>
      <trkpt lat="45.18612" lon="6.36894">
        <ele>2650</ele>
        <time>2014-01-11T09:40:04.000Z</time>
      </trkpt>
      <trkpt lat="45.18612" lon="6.36894">
        <ele>2650.1999511719</ele>
        <time>2014-01-11T09:40:05.000Z</time>
      </trkpt>
      <trkpt lat="45.18612" lon="6.36894">
        <ele>2650.1999511719</ele>
        <time>2014-01-11T09:40:06.000Z</time>
      </trkpt>
      <trkpt lat="45.18613" lon="6.36894">
        <ele>2650.3999023438</ele>
        <time>2014-01-11T09:40:07.000Z</time>
      </trkpt>
      <trkpt lat="45.18613" lon="6.36894">
        <ele>2650.6000976562</ele>
        <time>2014-01-11T09:40:08.000Z</time>
      </trkpt>
      <trkpt lat="45.18613" lon="6.36894">
        <ele>2650.8000488281</ele>
        <time>2014-01-11T09:40:09.000Z</time>
      </trkpt>
      <trkpt lat="45.18614" lon="6.36895">
        <ele>2650.8000488281</ele>
        <time>2014-01-11T09:40:10.000Z</time>
      </trkpt>
      <trkpt lat="45.18614" lon="6.36896">
        <ele>2651</ele>
        <time>2014-01-11T09:40:11.000Z</time>
      </trkpt>
      <trkpt lat="45.18614" lon="6.36896">
        <ele>2651.1999511719</ele>
        <time>2014-01-11T09:40:12.000Z</time>
      </trkpt>
      <trkpt lat="45.18615" lon="6.36897">
        <ele>2651.3999023438</ele>
        <time>2014-01-11T09:40:13.000Z</time>
      </trkpt>
      <trkpt lat="45.18615" lon="6.36898">
        <ele>2651.6000976562</ele>
        <time>2014-01-11T09:40:14.000Z</time>
      </trkpt>
      <trkpt lat="45.18615" lon="6.36898">
        <ele>2651.8000488281</ele>
        <time>2014-01-11T09:40:15.000Z</time>
      </trkpt>
      <trkpt lat="45.18616" lon="6.36899">
        <ele>2651.8000488281</ele>
        <time>2014-01-11T09:40:16.000Z</time>
      </trkpt>
      <trkpt lat="45.18616" lon="6.36899">
        <ele>2652</ele>
        <time>2014-01-11T09:40:17.000Z</time>
      </trkpt>
      <trkpt lat="45.18617" lon="6.369">
        <ele>2652.1999511719</ele>
        <time>2014-01-11T09:40:18.000Z</time>
      </trkpt>
      <trkpt lat="45.18617" lon="6.369">
        <ele>2652.3999023438</ele>
        <time>2014-01-11T09:40:19.000Z</time>
      </trkpt>
      <trkpt lat="45.18617" lon="6.36901">
        <ele>2652.6000976562</ele>
        <time>2014-01-11T09:40:20.000Z</time>
      </trkpt>
      <trkpt lat="45.18618" lon="6.36901">
        <ele>2652.8000488281</ele>
        <time>2014-01-11T09:40:21.000Z</time>
      </trkpt>
      <trkpt lat="45.18618" lon="6.36901">
        <ele>2653</ele>
        <time>2014-01-11T09:40:22.000Z</time>
      </trkpt>
      <trkpt lat="45.18618" lon="6.36902">
        <ele>2653</ele>
        <time>2014-01-11T09:40:23.000Z</time>
      </trkpt>
      <trkpt lat="45.18618" lon="6.36902">
        <ele>2653.1999511719</ele>
        <time>2014-01-11T09:40:24.000Z</time>
      </trkpt>
      <trkpt lat="45.18618" lon="6.36902">
        <ele>2653.1999511719</ele>
        <time>2014-01-11T09:40:25.000Z</time>
      </trkpt>
      <trkpt lat="45.18618" lon="6.36902">
        <ele>2653.3999023438</ele>
        <time>2014-01-11T09:40:26.000Z</time>
      </trkpt>
      <trkpt lat="45.18618" lon="6.36902">
        <ele>2653.6000976562</ele>
        <time>2014-01-11T09:40:27.000Z</time>
      </trkpt>
      <trkpt lat="45.18618" lon="6.36902">
        <ele>2653.8000488281</ele>
        <time>2014-01-11T09:40:28.000Z</time>
      </trkpt>
      <trkpt lat="45.18618" lon="6.36902">
        <ele>2654</ele>
        <time>2014-01-11T09:40:29.000Z</time>
      </trkpt>
      <trkpt lat="45.18618" lon="6.36902">
        <ele>2654.1999511719</ele>
        <time>2014-01-11T09:40:30.000Z</time>
      </trkpt>
      <trkpt lat="45.18618" lon="6.36902">
        <ele>2654.1999511719</ele>
        <time>2014-01-11T09:40:31.000Z</time>
      </trkpt>
      <trkpt lat="45.18618" lon="6.36902">
        <ele>2654.1999511719</ele>
        <time>2014-01-11T09:40:32.000Z</time>
      </trkpt>
      <trkpt lat="45.18618" lon="6.36902">
        <ele>2654</ele>
        <time>2014-01-11T09:40:33.000Z</time>
      </trkpt>
      <trkpt lat="45.18617" lon="6.36902">
        <ele>2654</ele>
        <time>2014-01-11T09:40:34.000Z</time>
      </trkpt>
      <trkpt lat="45.18617" lon="6.36903">
        <ele>2654</ele>
        <time>2014-01-11T09:40:35.000Z</time>
      </trkpt>
      <trkpt lat="45.18617" lon="6.36903">
        <ele>2654</ele>
        <time>2014-01-11T09:40:36.000Z</time>
      </trkpt>
      <trkpt lat="45.18617" lon="6.36903">
        <ele>2654.1999511719</ele>
        <time>2014-01-11T09:40:37.000Z</time>
      </trkpt>
      <trkpt lat="45.18616" lon="6.36904">
        <ele>2654.1999511719</ele>
        <time>2014-01-11T09:40:38.000Z</time>
      </trkpt>
      <trkpt lat="45.18616" lon="6.36904">
        <ele>2654.1999511719</ele>
        <time>2014-01-11T09:40:39.000Z</time>
      </trkpt>
      <trkpt lat="45.18616" lon="6.36904">
        <ele>2654.3999023438</ele>
        <time>2014-01-11T09:40:40.000Z</time>
      </trkpt>
      <trkpt lat="45.18616" lon="6.36904">
        <ele>2654.3999023438</ele>
        <time>2014-01-11T09:40:41.000Z</time>
      </trkpt>
      <trkpt lat="45.18616" lon="6.36904">
        <ele>2654.6000976562</ele>
        <time>2014-01-11T09:40:42.000Z</time>
      </trkpt>
      <trkpt lat="45.18616" lon="6.36904">
        <ele>2654.6000976562</ele>
        <time>2014-01-11T09:40:43.000Z</time>
      </trkpt>
      <trkpt lat="45.18615" lon="6.36905">
        <ele>2654.6000976562</ele>
        <time>2014-01-11T09:40:44.000Z</time>
      </trkpt>
      <trkpt lat="45.18615" lon="6.36905">
        <ele>2654.8000488281</ele>
        <time>2014-01-11T09:40:45.000Z</time>
      </trkpt>
      <trkpt lat="45.18615" lon="6.36905">
        <ele>2655</ele>
        <time>2014-01-11T09:40:46.000Z</time>
      </trkpt>
      <trkpt lat="45.18615" lon="6.36905">
        <ele>2655</ele>
        <time>2014-01-11T09:40:47.000Z</time>
      </trkpt>
      <trkpt lat="45.18615" lon="6.36905">
        <ele>2655.1999511719</ele>
        <time>2014-01-11T09:40:48.000Z</time>
      </trkpt>
      <trkpt lat="45.18615" lon="6.36905">
        <ele>2655.1999511719</ele>
        <time>2014-01-11T09:40:49.000Z</time>
      </trkpt>
      <trkpt lat="45.18615" lon="6.36905">
        <ele>2655.1999511719</ele>
        <time>2014-01-11T09:40:50.000Z</time>
      </trkpt>
      <trkpt lat="45.18615" lon="6.36905">
        <ele>2655.3999023438</ele>
        <time>2014-01-11T09:40:51.000Z</time>
      </trkpt>
      <trkpt lat="45.18615" lon="6.36905">
        <ele>2655.3999023438</ele>
        <time>2014-01-11T09:40:52.000Z</time>
      </trkpt>
      <trkpt lat="45.18615" lon="6.36905">
        <ele>2655.3999023438</ele>
        <time>2014-01-11T09:40:53.000Z</time>
      </trkpt>
      <trkpt lat="45.18615" lon="6.36905">
        <ele>2655.3999023438</ele>
        <time>2014-01-11T09:40:54.000Z</time>
      </trkpt>
      <trkpt lat="45.18615" lon="6.36905">
        <ele>2655.6000976562</ele>
        <time>2014-01-11T09:40:56.000Z</time>
      </trkpt>
      <trkpt lat="45.18615" lon="6.36905">
        <ele>2655.6000976562</ele>
        <time>2014-01-11T09:40:57.000Z</time>
      </trkpt>
      <trkpt lat="45.18615" lon="6.36905">
        <ele>2655.6000976562</ele>
        <time>2014-01-11T09:40:58.000Z</time>
      </trkpt>
      <trkpt lat="45.18615" lon="6.36905">
        <ele>2655.6000976562</ele>
        <time>2014-01-11T09:40:59.000Z</time>
      </trkpt>
      <trkpt lat="45.18615" lon="6.36905">
        <ele>2655.6000976562</ele>
        <time>2014-01-11T09:41:00.000Z</time>
      </trkpt>
      <trkpt lat="45.18615" lon="6.36906">
        <ele>2655.6000976562</ele>
        <time>2014-01-11T09:41:01.000Z</time>
      </trkpt>
      <trkpt lat="45.18615" lon="6.36906">
        <ele>2655.6000976562</ele>
        <time>2014-01-11T09:41:02.000Z</time>
      </trkpt>
      <trkpt lat="45.18615" lon="6.36906">
        <ele>2655.8000488281</ele>
        <time>2014-01-11T09:41:03.000Z</time>
      </trkpt>
      <trkpt lat="45.18615" lon="6.36906">
        <ele>2655.8000488281</ele>
        <time>2014-01-11T09:41:04.000Z</time>
      </trkpt>
      <trkpt lat="45.18615" lon="6.36906">
        <ele>2655.8000488281</ele>
        <time>2014-01-11T09:41:05.000Z</time>
      </trkpt>
      <trkpt lat="45.18615" lon="6.36906">
        <ele>2655.8000488281</ele>
        <time>2014-01-11T09:41:06.000Z</time>
      </trkpt>
      <trkpt lat="45.18615" lon="6.36906">
        <ele>2655.8000488281</ele>
        <time>2014-01-11T09:41:07.000Z</time>
      </trkpt>
      <trkpt lat="45.18615" lon="6.36906">
        <ele>2655.8000488281</ele>
        <time>2014-01-11T09:41:14.000Z</time>
      </trkpt>
      <trkpt lat="45.18615" lon="6.36906">
        <ele>2655.8000488281</ele>
        <time>2014-01-11T09:41:15.000Z</time>
      </trkpt>
      <trkpt lat="45.18615" lon="6.36906">
        <ele>2656</ele>
        <time>2014-01-11T09:41:16.000Z</time>
      </trkpt>
      <trkpt lat="45.18615" lon="6.36906">
        <ele>2656.1999511719</ele>
        <time>2014-01-11T09:41:17.000Z</time>
      </trkpt>
      <trkpt lat="45.18615" lon="6.36906">
        <ele>2656.3999023438</ele>
        <time>2014-01-11T09:41:18.000Z</time>
      </trkpt>
      <trkpt lat="45.18615" lon="6.36906">
        <ele>2656.3999023438</ele>
        <time>2014-01-11T09:41:19.000Z</time>
      </trkpt>
      <trkpt lat="45.18615" lon="6.36906">
        <ele>2656.3999023438</ele>
        <time>2014-01-11T09:41:20.000Z</time>
      </trkpt>
      <trkpt lat="45.18615" lon="6.36906">
        <ele>2656.3999023438</ele>
        <time>2014-01-11T09:41:21.000Z</time>
      </trkpt>
      <trkpt lat="45.18615" lon="6.36906">
        <ele>2656.3999023438</ele>
        <time>2014-01-11T09:41:22.000Z</time>
      </trkpt>
      <trkpt lat="45.18615" lon="6.36906">
        <ele>2656.3999023438</ele>
        <time>2014-01-11T09:41:23.000Z</time>
      </trkpt>
      <trkpt lat="45.18615" lon="6.36906">
        <ele>2656.3999023438</ele>
        <time>2014-01-11T09:41:24.000Z</time>
      </trkpt>
      <trkpt lat="45.18615" lon="6.36906">
        <ele>2656.3999023438</ele>
        <time>2014-01-11T09:41:25.000Z</time>
      </trkpt>
      <trkpt lat="45.18615" lon="6.36906">
        <ele>2656.3999023438</ele>
        <time>2014-01-11T09:41:26.000Z</time>
      </trkpt>
      <trkpt lat="45.18615" lon="6.36906">
        <ele>2656.3999023438</ele>
        <time>2014-01-11T09:41:27.000Z</time>
      </trkpt>
      <trkpt lat="45.18615" lon="6.36906">
        <ele>2656.3999023438</ele>
        <time>2014-01-11T09:41:28.000Z</time>
      </trkpt>
      <trkpt lat="45.18615" lon="6.36906">
        <ele>2656.3999023438</ele>
        <time>2014-01-11T09:41:30.000Z</time>
      </trkpt>
      <trkpt lat="45.18615" lon="6.36906">
        <ele>2656.3999023438</ele>
        <time>2014-01-11T09:41:31.000Z</time>
      </trkpt>
      <trkpt lat="45.18615" lon="6.36906">
        <ele>2656.1999511719</ele>
        <time>2014-01-11T09:41:32.000Z</time>
      </trkpt>
      <trkpt lat="45.18615" lon="6.36906">
        <ele>2656.1999511719</ele>
        <time>2014-01-11T09:41:33.000Z</time>
      </trkpt>
      <trkpt lat="45.18615" lon="6.36906">
        <ele>2656.1999511719</ele>
        <time>2014-01-11T09:41:34.000Z</time>
      </trkpt>
      <trkpt lat="45.18615" lon="6.36906">
        <ele>2656</ele>
        <time>2014-01-11T09:41:35.000Z</time>
      </trkpt>
      <trkpt lat="45.18615" lon="6.36906">
        <ele>2656</ele>
        <time>2014-01-11T09:41:36.000Z</time>
      </trkpt>
      <trkpt lat="45.18615" lon="6.36906">
        <ele>2656</ele>
        <time>2014-01-11T09:41:37.000Z</time>
      </trkpt>
      <trkpt lat="45.18615" lon="6.36906">
        <ele>2656</ele>
        <time>2014-01-11T09:41:38.000Z</time>
      </trkpt>
      <trkpt lat="45.18615" lon="6.36906">
        <ele>2656</ele>
        <time>2014-01-11T09:41:39.000Z</time>
      </trkpt>
      <trkpt lat="45.18615" lon="6.36906">
        <ele>2656</ele>
        <time>2014-01-11T09:41:40.000Z</time>
      </trkpt>
      <trkpt lat="45.18614" lon="6.36906">
        <ele>2656</ele>
        <time>2014-01-11T09:41:41.000Z</time>
      </trkpt>
      <trkpt lat="45.18614" lon="6.36906">
        <ele>2656.1999511719</ele>
        <time>2014-01-11T09:41:42.000Z</time>
      </trkpt>
      <trkpt lat="45.18614" lon="6.36906">
        <ele>2656.1999511719</ele>
        <time>2014-01-11T09:41:43.000Z</time>
      </trkpt>
      <trkpt lat="45.18614" lon="6.36906">
        <ele>2656.3999023438</ele>
        <time>2014-01-11T09:41:44.000Z</time>
      </trkpt>
      <trkpt lat="45.18614" lon="6.36906">
        <ele>2656.3999023438</ele>
        <time>2014-01-11T09:41:45.000Z</time>
      </trkpt>
      <trkpt lat="45.18614" lon="6.36906">
        <ele>2656.3999023438</ele>
        <time>2014-01-11T09:41:46.000Z</time>
      </trkpt>
      <trkpt lat="45.18614" lon="6.36906">
        <ele>2656.3999023438</ele>
        <time>2014-01-11T09:41:47.000Z</time>
      </trkpt>
      <trkpt lat="45.18614" lon="6.36906">
        <ele>2656.3999023438</ele>
        <time>2014-01-11T09:41:48.000Z</time>
      </trkpt>
      <trkpt lat="45.18614" lon="6.36906">
        <ele>2656.3999023438</ele>
        <time>2014-01-11T09:41:49.000Z</time>
      </trkpt>
      <trkpt lat="45.18614" lon="6.36906">
        <ele>2656.3999023438</ele>
        <time>2014-01-11T09:41:50.000Z</time>
      </trkpt>
      <trkpt lat="45.18614" lon="6.36906">
        <ele>2656.3999023438</ele>
        <time>2014-01-11T09:41:52.000Z</time>
      </trkpt>
      <trkpt lat="45.18614" lon="6.36906">
        <ele>2656.6000976562</ele>
        <time>2014-01-11T09:41:53.000Z</time>
      </trkpt>
      <trkpt lat="45.18614" lon="6.36906">
        <ele>2656.3999023438</ele>
        <time>2014-01-11T09:41:54.000Z</time>
      </trkpt>
      <trkpt lat="45.18614" lon="6.36906">
        <ele>2656.3999023438</ele>
        <time>2014-01-11T09:41:55.000Z</time>
      </trkpt>
      <trkpt lat="45.18614" lon="6.36906">
        <ele>2656.3999023438</ele>
        <time>2014-01-11T09:41:56.000Z</time>
      </trkpt>
      <trkpt lat="45.18614" lon="6.36906">
        <ele>2656.3999023438</ele>
        <time>2014-01-11T09:41:57.000Z</time>
      </trkpt>
      <trkpt lat="45.18614" lon="6.36906">
        <ele>2656.3999023438</ele>
        <time>2014-01-11T09:41:58.000Z</time>
      </trkpt>
      <trkpt lat="45.18614" lon="6.36906">
        <ele>2656.3999023438</ele>
        <time>2014-01-11T09:42:01.000Z</time>
      </trkpt>
      <trkpt lat="45.18614" lon="6.36906">
        <ele>2656.3999023438</ele>
        <time>2014-01-11T09:42:02.000Z</time>
      </trkpt>
      <trkpt lat="45.18614" lon="6.36906">
        <ele>2656.1999511719</ele>
        <time>2014-01-11T09:42:03.000Z</time>
      </trkpt>
      <trkpt lat="45.18614" lon="6.36906">
        <ele>2656.1999511719</ele>
        <time>2014-01-11T09:42:04.000Z</time>
      </trkpt>
      <trkpt lat="45.18614" lon="6.36906">
        <ele>2656.1999511719</ele>
        <time>2014-01-11T09:42:05.000Z</time>
      </trkpt>
      <trkpt lat="45.18614" lon="6.36906">
        <ele>2656.1999511719</ele>
        <time>2014-01-11T09:42:06.000Z</time>
      </trkpt>
      <trkpt lat="45.18614" lon="6.36906">
        <ele>2656.1999511719</ele>
        <time>2014-01-11T09:42:07.000Z</time>
      </trkpt>
      <trkpt lat="45.18614" lon="6.36906">
        <ele>2656</ele>
        <time>2014-01-11T09:42:08.000Z</time>
      </trkpt>
      <trkpt lat="45.18614" lon="6.36906">
        <ele>2656</ele>
        <time>2014-01-11T09:42:09.000Z</time>
      </trkpt>
      <trkpt lat="45.18614" lon="6.36906">
        <ele>2656</ele>
        <time>2014-01-11T09:42:10.000Z</time>
      </trkpt>
      <trkpt lat="45.18614" lon="6.36906">
        <ele>2656</ele>
        <time>2014-01-11T09:42:11.000Z</time>
      </trkpt>
      <trkpt lat="45.18614" lon="6.36906">
        <ele>2656.1999511719</ele>
        <time>2014-01-11T09:42:12.000Z</time>
      </trkpt>
      <trkpt lat="45.18614" lon="6.36906">
        <ele>2656.1999511719</ele>
        <time>2014-01-11T09:42:13.000Z</time>
      </trkpt>
      <trkpt lat="45.18613" lon="6.36906">
        <ele>2656.3999023438</ele>
        <time>2014-01-11T09:42:14.000Z</time>
      </trkpt>
      <trkpt lat="45.18613" lon="6.36907">
        <ele>2656.3999023438</ele>
        <time>2014-01-11T09:42:15.000Z</time>
      </trkpt>
      <trkpt lat="45.18612" lon="6.36908">
        <ele>2656.6000976562</ele>
        <time>2014-01-11T09:42:16.000Z</time>
      </trkpt>
      <trkpt lat="45.18612" lon="6.36908">
        <ele>2656.8000488281</ele>
        <time>2014-01-11T09:42:17.000Z</time>
      </trkpt>
      <trkpt lat="45.18612" lon="6.36908">
        <ele>2657</ele>
        <time>2014-01-11T09:42:18.000Z</time>
      </trkpt>
      <trkpt lat="45.18612" lon="6.36908">
        <ele>2657.3999023438</ele>
        <time>2014-01-11T09:42:19.000Z</time>
      </trkpt>
      <trkpt lat="45.18612" lon="6.36908">
        <ele>2657.6000976562</ele>
        <time>2014-01-11T09:42:20.000Z</time>
      </trkpt>
      <trkpt lat="45.18612" lon="6.36908">
        <ele>2657.8000488281</ele>
        <time>2014-01-11T09:42:21.000Z</time>
      </trkpt>
      <trkpt lat="45.18612" lon="6.36908">
        <ele>2658</ele>
        <time>2014-01-11T09:42:22.000Z</time>
      </trkpt>
      <trkpt lat="45.18612" lon="6.36908">
        <ele>2658</ele>
        <time>2014-01-11T09:42:23.000Z</time>
      </trkpt>
      <trkpt lat="45.18612" lon="6.36908">
        <ele>2658.1999511719</ele>
        <time>2014-01-11T09:42:24.000Z</time>
      </trkpt>
      <trkpt lat="45.18612" lon="6.36908">
        <ele>2658.1999511719</ele>
        <time>2014-01-11T09:42:25.000Z</time>
      </trkpt>
      <trkpt lat="45.18612" lon="6.36908">
        <ele>2658.3999023438</ele>
        <time>2014-01-11T09:42:26.000Z</time>
      </trkpt>
      <trkpt lat="45.18612" lon="6.36908">
        <ele>2658.6000976562</ele>
        <time>2014-01-11T09:42:27.000Z</time>
      </trkpt>
      <trkpt lat="45.18612" lon="6.36908">
        <ele>2658.6000976562</ele>
        <time>2014-01-11T09:42:28.000Z</time>
      </trkpt>
      <trkpt lat="45.18612" lon="6.36908">
        <ele>2658.8000488281</ele>
        <time>2014-01-11T09:42:29.000Z</time>
      </trkpt>
      <trkpt lat="45.18612" lon="6.36908">
        <ele>2658.8000488281</ele>
        <time>2014-01-11T09:42:30.000Z</time>
      </trkpt>
      <trkpt lat="45.18612" lon="6.36908">
        <ele>2659</ele>
        <time>2014-01-11T09:42:31.000Z</time>
      </trkpt>
      <trkpt lat="45.18612" lon="6.36908">
        <ele>2659.1999511719</ele>
        <time>2014-01-11T09:42:32.000Z</time>
      </trkpt>
      <trkpt lat="45.18612" lon="6.36908">
        <ele>2659.3999023438</ele>
        <time>2014-01-11T09:42:33.000Z</time>
      </trkpt>
      <trkpt lat="45.18612" lon="6.36908">
        <ele>2659.3999023438</ele>
        <time>2014-01-11T09:42:34.000Z</time>
      </trkpt>
      <trkpt lat="45.18612" lon="6.36908">
        <ele>2659.6000976562</ele>
        <time>2014-01-11T09:42:35.000Z</time>
      </trkpt>
      <trkpt lat="45.18612" lon="6.36908">
        <ele>2659.6000976562</ele>
        <time>2014-01-11T09:42:36.000Z</time>
      </trkpt>
      <trkpt lat="45.18612" lon="6.36908">
        <ele>2659.8000488281</ele>
        <time>2014-01-11T09:42:37.000Z</time>
      </trkpt>
      <trkpt lat="45.18611" lon="6.36909">
        <ele>2659.8000488281</ele>
        <time>2014-01-11T09:42:38.000Z</time>
      </trkpt>
      <trkpt lat="45.1861" lon="6.36909">
        <ele>2659.8000488281</ele>
        <time>2014-01-11T09:42:39.000Z</time>
      </trkpt>
      <trkpt lat="45.1861" lon="6.36909">
        <ele>2659.8000488281</ele>
        <time>2014-01-11T09:42:40.000Z</time>
      </trkpt>
      <trkpt lat="45.1861" lon="6.36909">
        <ele>2659.8000488281</ele>
        <time>2014-01-11T09:42:41.000Z</time>
      </trkpt>
      <trkpt lat="45.1861" lon="6.36909">
        <ele>2659.8000488281</ele>
        <time>2014-01-11T09:42:42.000Z</time>
      </trkpt>
      <trkpt lat="45.1861" lon="6.3691">
        <ele>2660</ele>
        <time>2014-01-11T09:42:43.000Z</time>
      </trkpt>
      <trkpt lat="45.1861" lon="6.3691">
        <ele>2660</ele>
        <time>2014-01-11T09:42:44.000Z</time>
      </trkpt>
      <trkpt lat="45.1861" lon="6.3691">
        <ele>2660.1999511719</ele>
        <time>2014-01-11T09:42:45.000Z</time>
      </trkpt>
      <trkpt lat="45.1861" lon="6.3691">
        <ele>2660.3999023438</ele>
        <time>2014-01-11T09:42:46.000Z</time>
      </trkpt>
      <trkpt lat="45.1861" lon="6.3691">
        <ele>2660.6000976562</ele>
        <time>2014-01-11T09:42:47.000Z</time>
      </trkpt>
      <trkpt lat="45.1861" lon="6.3691">
        <ele>2660.8000488281</ele>
        <time>2014-01-11T09:42:48.000Z</time>
      </trkpt>
      <trkpt lat="45.1861" lon="6.3691">
        <ele>2661</ele>
        <time>2014-01-11T09:42:49.000Z</time>
      </trkpt>
      <trkpt lat="45.1861" lon="6.3691">
        <ele>2661.3999023438</ele>
        <time>2014-01-11T09:42:50.000Z</time>
      </trkpt>
      <trkpt lat="45.1861" lon="6.3691">
        <ele>2661.6000976562</ele>
        <time>2014-01-11T09:42:51.000Z</time>
      </trkpt>
      <trkpt lat="45.1861" lon="6.3691">
        <ele>2661.6000976562</ele>
        <time>2014-01-11T09:42:52.000Z</time>
      </trkpt>
      <trkpt lat="45.1861" lon="6.3691">
        <ele>2661.6000976562</ele>
        <time>2014-01-11T09:42:53.000Z</time>
      </trkpt>
      <trkpt lat="45.1861" lon="6.3691">
        <ele>2661.8000488281</ele>
        <time>2014-01-11T09:42:54.000Z</time>
      </trkpt>
      <trkpt lat="45.1861" lon="6.3691">
        <ele>2661.8000488281</ele>
        <time>2014-01-11T09:42:55.000Z</time>
      </trkpt>
      <trkpt lat="45.1861" lon="6.3691">
        <ele>2661.8000488281</ele>
        <time>2014-01-11T09:42:56.000Z</time>
      </trkpt>
      <trkpt lat="45.1861" lon="6.3691">
        <ele>2661.8000488281</ele>
        <time>2014-01-11T09:42:57.000Z</time>
      </trkpt>
      <trkpt lat="45.1861" lon="6.3691">
        <ele>2662</ele>
        <time>2014-01-11T09:42:58.000Z</time>
      </trkpt>
      <trkpt lat="45.1861" lon="6.3691">
        <ele>2662</ele>
        <time>2014-01-11T09:42:59.000Z</time>
      </trkpt>
      <trkpt lat="45.1861" lon="6.3691">
        <ele>2662.1999511719</ele>
        <time>2014-01-11T09:43:00.000Z</time>
      </trkpt>
      <trkpt lat="45.1861" lon="6.3691">
        <ele>2662.6000976562</ele>
        <time>2014-01-11T09:43:01.000Z</time>
      </trkpt>
      <trkpt lat="45.1861" lon="6.3691">
        <ele>2663</ele>
        <time>2014-01-11T09:43:02.000Z</time>
      </trkpt>
      <trkpt lat="45.18609" lon="6.36911">
        <ele>2663.3999023438</ele>
        <time>2014-01-11T09:43:03.000Z</time>
      </trkpt>
      <trkpt lat="45.18609" lon="6.36913">
        <ele>2663.8000488281</ele>
        <time>2014-01-11T09:43:04.000Z</time>
      </trkpt>
      <trkpt lat="45.18609" lon="6.36913">
        <ele>2664</ele>
        <time>2014-01-11T09:43:05.000Z</time>
      </trkpt>
      <trkpt lat="45.18609" lon="6.36913">
        <ele>2664</ele>
        <time>2014-01-11T09:43:06.000Z</time>
      </trkpt>
      <trkpt lat="45.18609" lon="6.36913">
        <ele>2664.1999511719</ele>
        <time>2014-01-11T09:43:07.000Z</time>
      </trkpt>
      <trkpt lat="45.18609" lon="6.36914">
        <ele>2664.6000976562</ele>
        <time>2014-01-11T09:43:08.000Z</time>
      </trkpt>
      <trkpt lat="45.18609" lon="6.36914">
        <ele>2664.8000488281</ele>
        <time>2014-01-11T09:43:09.000Z</time>
      </trkpt>
      <trkpt lat="45.18608" lon="6.36915">
        <ele>2665</ele>
        <time>2014-01-11T09:43:10.000Z</time>
      </trkpt>
      <trkpt lat="45.18608" lon="6.36915">
        <ele>2665</ele>
        <time>2014-01-11T09:43:11.000Z</time>
      </trkpt>
      <trkpt lat="45.18608" lon="6.36915">
        <ele>2665.1999511719</ele>
        <time>2014-01-11T09:43:12.000Z</time>
      </trkpt>
      <trkpt lat="45.18608" lon="6.36915">
        <ele>2665.1999511719</ele>
        <time>2014-01-11T09:43:13.000Z</time>
      </trkpt>
      <trkpt lat="45.18608" lon="6.36916">
        <ele>2665.3999023438</ele>
        <time>2014-01-11T09:43:14.000Z</time>
      </trkpt>
      <trkpt lat="45.18608" lon="6.36917">
        <ele>2665.3999023438</ele>
        <time>2014-01-11T09:43:15.000Z</time>
      </trkpt>
      <trkpt lat="45.18607" lon="6.36918">
        <ele>2665.3999023438</ele>
        <time>2014-01-11T09:43:16.000Z</time>
      </trkpt>
      <trkpt lat="45.18607" lon="6.36918">
        <ele>2665.3999023438</ele>
        <time>2014-01-11T09:43:19.000Z</time>
      </trkpt>
      <trkpt lat="45.18607" lon="6.36918">
        <ele>2665.3999023438</ele>
        <time>2014-01-11T09:43:20.000Z</time>
      </trkpt>
      <trkpt lat="45.18607" lon="6.36918">
        <ele>2665.3999023438</ele>
        <time>2014-01-11T09:43:22.000Z</time>
      </trkpt>
      <trkpt lat="45.18607" lon="6.36918">
        <ele>2665.3999023438</ele>
        <time>2014-01-11T09:43:23.000Z</time>
      </trkpt>
      <trkpt lat="45.18607" lon="6.36918">
        <ele>2665.3999023438</ele>
        <time>2014-01-11T09:43:24.000Z</time>
      </trkpt>
      <trkpt lat="45.18607" lon="6.36918">
        <ele>2665.3999023438</ele>
        <time>2014-01-11T09:43:25.000Z</time>
      </trkpt>
      <trkpt lat="45.18607" lon="6.36918">
        <ele>2665.3999023438</ele>
        <time>2014-01-11T09:43:26.000Z</time>
      </trkpt>
      <trkpt lat="45.18607" lon="6.36918">
        <ele>2665.3999023438</ele>
        <time>2014-01-11T09:43:27.000Z</time>
      </trkpt>
      <trkpt lat="45.18607" lon="6.36918">
        <ele>2665.3999023438</ele>
        <time>2014-01-11T09:43:29.000Z</time>
      </trkpt>
      <trkpt lat="45.18607" lon="6.36918">
        <ele>2665.3999023438</ele>
        <time>2014-01-11T09:43:30.000Z</time>
      </trkpt>
      <trkpt lat="45.18607" lon="6.36918">
        <ele>2665.3999023438</ele>
        <time>2014-01-11T09:43:31.000Z</time>
      </trkpt>
      <trkpt lat="45.18607" lon="6.36918">
        <ele>2665.3999023438</ele>
        <time>2014-01-11T09:43:32.000Z</time>
      </trkpt>
      <trkpt lat="45.18607" lon="6.36918">
        <ele>2665.6000976562</ele>
        <time>2014-01-11T09:43:33.000Z</time>
      </trkpt>
      <trkpt lat="45.18607" lon="6.36918">
        <ele>2665.6000976562</ele>
        <time>2014-01-11T09:43:34.000Z</time>
      </trkpt>
      <trkpt lat="45.18607" lon="6.36918">
        <ele>2665.6000976562</ele>
        <time>2014-01-11T09:43:35.000Z</time>
      </trkpt>
      <trkpt lat="45.18607" lon="6.36918">
        <ele>2665.6000976562</ele>
        <time>2014-01-11T09:43:36.000Z</time>
      </trkpt>
      <trkpt lat="45.18607" lon="6.36918">
        <ele>2665.8000488281</ele>
        <time>2014-01-11T09:43:37.000Z</time>
      </trkpt>
      <trkpt lat="45.18607" lon="6.36918">
        <ele>2665.8000488281</ele>
        <time>2014-01-11T09:43:38.000Z</time>
      </trkpt>
      <trkpt lat="45.18607" lon="6.36918">
        <ele>2666</ele>
        <time>2014-01-11T09:43:39.000Z</time>
      </trkpt>
      <trkpt lat="45.18607" lon="6.36918">
        <ele>2666</ele>
        <time>2014-01-11T09:43:40.000Z</time>
      </trkpt>
      <trkpt lat="45.18607" lon="6.36918">
        <ele>2666.1999511719</ele>
        <time>2014-01-11T09:43:41.000Z</time>
      </trkpt>
      <trkpt lat="45.18607" lon="6.36918">
        <ele>2666.1999511719</ele>
        <time>2014-01-11T09:43:42.000Z</time>
      </trkpt>
      <trkpt lat="45.18607" lon="6.36918">
        <ele>2666.1999511719</ele>
        <time>2014-01-11T09:43:43.000Z</time>
      </trkpt>
      <trkpt lat="45.18607" lon="6.36918">
        <ele>2666.1999511719</ele>
        <time>2014-01-11T09:43:46.000Z</time>
      </trkpt>
      <trkpt lat="45.18607" lon="6.36918">
        <ele>2666.1999511719</ele>
        <time>2014-01-11T09:43:47.000Z</time>
      </trkpt>
      <trkpt lat="45.18607" lon="6.36918">
        <ele>2666.1999511719</ele>
        <time>2014-01-11T09:43:48.000Z</time>
      </trkpt>
      <trkpt lat="45.18607" lon="6.36918">
        <ele>2666.3999023438</ele>
        <time>2014-01-11T09:43:49.000Z</time>
      </trkpt>
      <trkpt lat="45.18607" lon="6.36918">
        <ele>2666.3999023438</ele>
        <time>2014-01-11T09:43:50.000Z</time>
      </trkpt>
      <trkpt lat="45.18607" lon="6.36918">
        <ele>2666.6000976562</ele>
        <time>2014-01-11T09:43:51.000Z</time>
      </trkpt>
      <trkpt lat="45.18607" lon="6.36918">
        <ele>2666.8000488281</ele>
        <time>2014-01-11T09:43:52.000Z</time>
      </trkpt>
      <trkpt lat="45.18607" lon="6.36919">
        <ele>2667.1999511719</ele>
        <time>2014-01-11T09:43:53.000Z</time>
      </trkpt>
      <trkpt lat="45.18607" lon="6.3692">
        <ele>2667.3999023438</ele>
        <time>2014-01-11T09:43:54.000Z</time>
      </trkpt>
      <trkpt lat="45.18607" lon="6.36921">
        <ele>2667.6000976562</ele>
        <time>2014-01-11T09:43:55.000Z</time>
      </trkpt>
      <trkpt lat="45.18607" lon="6.36921">
        <ele>2667.6000976562</ele>
        <time>2014-01-11T09:43:56.000Z</time>
      </trkpt>
      <trkpt lat="45.18607" lon="6.36921">
        <ele>2667.8000488281</ele>
        <time>2014-01-11T09:43:57.000Z</time>
      </trkpt>
      <trkpt lat="45.18607" lon="6.36921">
        <ele>2668</ele>
        <time>2014-01-11T09:43:58.000Z</time>
      </trkpt>
      <trkpt lat="45.18607" lon="6.36921">
        <ele>2668</ele>
        <time>2014-01-11T09:43:59.000Z</time>
      </trkpt>
      <trkpt lat="45.18607" lon="6.36921">
        <ele>2668.1999511719</ele>
        <time>2014-01-11T09:44:00.000Z</time>
      </trkpt>
      <trkpt lat="45.18607" lon="6.36921">
        <ele>2668.3999023438</ele>
        <time>2014-01-11T09:44:01.000Z</time>
      </trkpt>
      <trkpt lat="45.18607" lon="6.36921">
        <ele>2668.3999023438</ele>
        <time>2014-01-11T09:44:02.000Z</time>
      </trkpt>
      <trkpt lat="45.18607" lon="6.36921">
        <ele>2668.3999023438</ele>
        <time>2014-01-11T09:44:03.000Z</time>
      </trkpt>
      <trkpt lat="45.18607" lon="6.36921">
        <ele>2668.6000976562</ele>
        <time>2014-01-11T09:44:04.000Z</time>
      </trkpt>
      <trkpt lat="45.18607" lon="6.36921">
        <ele>2668.3999023438</ele>
        <time>2014-01-11T09:44:05.000Z</time>
      </trkpt>
      <trkpt lat="45.18607" lon="6.36921">
        <ele>2668.3999023438</ele>
        <time>2014-01-11T09:44:06.000Z</time>
      </trkpt>
      <trkpt lat="45.18607" lon="6.36921">
        <ele>2668.3999023438</ele>
        <time>2014-01-11T09:44:07.000Z</time>
      </trkpt>
      <trkpt lat="45.18607" lon="6.36922">
        <ele>2668.1999511719</ele>
        <time>2014-01-11T09:44:08.000Z</time>
      </trkpt>
      <trkpt lat="45.18606" lon="6.36924">
        <ele>2668.1999511719</ele>
        <time>2014-01-11T09:44:09.000Z</time>
      </trkpt>
      <trkpt lat="45.18606" lon="6.36925">
        <ele>2668.1999511719</ele>
        <time>2014-01-11T09:44:10.000Z</time>
      </trkpt>
      <trkpt lat="45.18605" lon="6.36928">
        <ele>2668.1999511719</ele>
        <time>2014-01-11T09:44:12.000Z</time>
      </trkpt>
      <trkpt lat="45.18605" lon="6.36929">
        <ele>2668.1999511719</ele>
        <time>2014-01-11T09:44:13.000Z</time>
      </trkpt>
      <trkpt lat="45.18605" lon="6.3693">
        <ele>2668.6000976562</ele>
        <time>2014-01-11T09:44:14.000Z</time>
      </trkpt>
      <trkpt lat="45.18605" lon="6.36931">
        <ele>2668.8000488281</ele>
        <time>2014-01-11T09:44:15.000Z</time>
      </trkpt>
      <trkpt lat="45.18605" lon="6.36932">
        <ele>2669</ele>
        <time>2014-01-11T09:44:16.000Z</time>
      </trkpt>
      <trkpt lat="45.18605" lon="6.36933">
        <ele>2669.3999023438</ele>
        <time>2014-01-11T09:44:17.000Z</time>
      </trkpt>
      <trkpt lat="45.18604" lon="6.36934">
        <ele>2669.6000976562</ele>
        <time>2014-01-11T09:44:18.000Z</time>
      </trkpt>
      <trkpt lat="45.18604" lon="6.36935">
        <ele>2670</ele>
        <time>2014-01-11T09:44:19.000Z</time>
      </trkpt>
      <trkpt lat="45.18604" lon="6.36936">
        <ele>2670.1999511719</ele>
        <time>2014-01-11T09:44:20.000Z</time>
      </trkpt>
      <trkpt lat="45.18604" lon="6.36937">
        <ele>2670.1999511719</ele>
        <time>2014-01-11T09:44:21.000Z</time>
      </trkpt>
      <trkpt lat="45.18603" lon="6.36938">
        <ele>2670.3999023438</ele>
        <time>2014-01-11T09:44:22.000Z</time>
      </trkpt>
      <trkpt lat="45.18603" lon="6.36939">
        <ele>2670.3999023438</ele>
        <time>2014-01-11T09:44:23.000Z</time>
      </trkpt>
      <trkpt lat="45.18603" lon="6.3694">
        <ele>2670.3999023438</ele>
        <time>2014-01-11T09:44:24.000Z</time>
      </trkpt>
      <trkpt lat="45.18603" lon="6.36941">
        <ele>2670.6000976562</ele>
        <time>2014-01-11T09:44:25.000Z</time>
      </trkpt>
      <trkpt lat="45.18602" lon="6.36942">
        <ele>2670.6000976562</ele>
        <time>2014-01-11T09:44:26.000Z</time>
      </trkpt>
      <trkpt lat="45.18602" lon="6.36943">
        <ele>2670.6000976562</ele>
        <time>2014-01-11T09:44:27.000Z</time>
      </trkpt>
      <trkpt lat="45.18601" lon="6.36944">
        <ele>2670.8000488281</ele>
        <time>2014-01-11T09:44:28.000Z</time>
      </trkpt>
      <trkpt lat="45.18601" lon="6.36945">
        <ele>2670.8000488281</ele>
        <time>2014-01-11T09:44:29.000Z</time>
      </trkpt>
      <trkpt lat="45.18601" lon="6.36946">
        <ele>2671</ele>
        <time>2014-01-11T09:44:30.000Z</time>
      </trkpt>
      <trkpt lat="45.186" lon="6.36947">
        <ele>2671</ele>
        <time>2014-01-11T09:44:31.000Z</time>
      </trkpt>
      <trkpt lat="45.186" lon="6.36948">
        <ele>2671</ele>
        <time>2014-01-11T09:44:32.000Z</time>
      </trkpt>
      <trkpt lat="45.186" lon="6.36949">
        <ele>2671.1999511719</ele>
        <time>2014-01-11T09:44:33.000Z</time>
      </trkpt>
      <trkpt lat="45.186" lon="6.3695">
        <ele>2671.1999511719</ele>
        <time>2014-01-11T09:44:34.000Z</time>
      </trkpt>
      <trkpt lat="45.186" lon="6.36951">
        <ele>2671.3999023438</ele>
        <time>2014-01-11T09:44:35.000Z</time>
      </trkpt>
      <trkpt lat="45.186" lon="6.36951">
        <ele>2671.3999023438</ele>
        <time>2014-01-11T09:44:36.000Z</time>
      </trkpt>
      <trkpt lat="45.18599" lon="6.36952">
        <ele>2671.3999023438</ele>
        <time>2014-01-11T09:44:37.000Z</time>
      </trkpt>
      <trkpt lat="45.18599" lon="6.36954">
        <ele>2671.6000976562</ele>
        <time>2014-01-11T09:44:38.000Z</time>
      </trkpt>
      <trkpt lat="45.18599" lon="6.36955">
        <ele>2671.6000976562</ele>
        <time>2014-01-11T09:44:39.000Z</time>
      </trkpt>
      <trkpt lat="45.18599" lon="6.36956">
        <ele>2671.6000976562</ele>
        <time>2014-01-11T09:44:40.000Z</time>
      </trkpt>
      <trkpt lat="45.18598" lon="6.36958">
        <ele>2671.6000976562</ele>
        <time>2014-01-11T09:44:42.000Z</time>
      </trkpt>
      <trkpt lat="45.18598" lon="6.36958">
        <ele>2671.6000976562</ele>
        <time>2014-01-11T09:44:43.000Z</time>
      </trkpt>
      <trkpt lat="45.18598" lon="6.36958">
        <ele>2671.6000976562</ele>
        <time>2014-01-11T09:44:44.000Z</time>
      </trkpt>
      <trkpt lat="45.18598" lon="6.36958">
        <ele>2671.6000976562</ele>
        <time>2014-01-11T09:44:45.000Z</time>
      </trkpt>
      <trkpt lat="45.18598" lon="6.36958">
        <ele>2671.6000976562</ele>
        <time>2014-01-11T09:44:46.000Z</time>
      </trkpt>
      <trkpt lat="45.18598" lon="6.36958">
        <ele>2671.6000976562</ele>
        <time>2014-01-11T09:44:47.000Z</time>
      </trkpt>
      <trkpt lat="45.18598" lon="6.36958">
        <ele>2671.6000976562</ele>
        <time>2014-01-11T09:44:48.000Z</time>
      </trkpt>
      <trkpt lat="45.18598" lon="6.36958">
        <ele>2671.8000488281</ele>
        <time>2014-01-11T09:44:49.000Z</time>
      </trkpt>
      <trkpt lat="45.18598" lon="6.36958">
        <ele>2671.8000488281</ele>
        <time>2014-01-11T09:44:50.000Z</time>
      </trkpt>
      <trkpt lat="45.18598" lon="6.36958">
        <ele>2671.8000488281</ele>
        <time>2014-01-11T09:44:51.000Z</time>
      </trkpt>
      <trkpt lat="45.18598" lon="6.36958">
        <ele>2671.8000488281</ele>
        <time>2014-01-11T09:44:52.000Z</time>
      </trkpt>
      <trkpt lat="45.18598" lon="6.36958">
        <ele>2672</ele>
        <time>2014-01-11T09:44:53.000Z</time>
      </trkpt>
      <trkpt lat="45.18598" lon="6.36958">
        <ele>2672</ele>
        <time>2014-01-11T09:44:54.000Z</time>
      </trkpt>
      <trkpt lat="45.18598" lon="6.36958">
        <ele>2672</ele>
        <time>2014-01-11T09:44:55.000Z</time>
      </trkpt>
      <trkpt lat="45.18598" lon="6.36958">
        <ele>2672.1999511719</ele>
        <time>2014-01-11T09:44:56.000Z</time>
      </trkpt>
      <trkpt lat="45.18598" lon="6.36958">
        <ele>2672</ele>
        <time>2014-01-11T09:44:57.000Z</time>
      </trkpt>
      <trkpt lat="45.18598" lon="6.36958">
        <ele>2672</ele>
        <time>2014-01-11T09:44:58.000Z</time>
      </trkpt>
      <trkpt lat="45.18598" lon="6.36958">
        <ele>2672</ele>
        <time>2014-01-11T09:44:59.000Z</time>
      </trkpt>
      <trkpt lat="45.18598" lon="6.36958">
        <ele>2671.8000488281</ele>
        <time>2014-01-11T09:45:00.000Z</time>
      </trkpt>
      <trkpt lat="45.18598" lon="6.36958">
        <ele>2671.8000488281</ele>
        <time>2014-01-11T09:45:01.000Z</time>
      </trkpt>
      <trkpt lat="45.18598" lon="6.36958">
        <ele>2672</ele>
        <time>2014-01-11T09:45:04.000Z</time>
      </trkpt>
      <trkpt lat="45.18598" lon="6.36958">
        <ele>2672</ele>
        <time>2014-01-11T09:45:05.000Z</time>
      </trkpt>
      <trkpt lat="45.18598" lon="6.36958">
        <ele>2672.1999511719</ele>
        <time>2014-01-11T09:45:06.000Z</time>
      </trkpt>
      <trkpt lat="45.18598" lon="6.36958">
        <ele>2672.1999511719</ele>
        <time>2014-01-11T09:45:07.000Z</time>
      </trkpt>
      <trkpt lat="45.18598" lon="6.36958">
        <ele>2672.1999511719</ele>
        <time>2014-01-11T09:45:08.000Z</time>
      </trkpt>
      <trkpt lat="45.18598" lon="6.36958">
        <ele>2672.1999511719</ele>
        <time>2014-01-11T09:45:09.000Z</time>
      </trkpt>
      <trkpt lat="45.18598" lon="6.36958">
        <ele>2672.1999511719</ele>
        <time>2014-01-11T09:45:10.000Z</time>
      </trkpt>
      <trkpt lat="45.18598" lon="6.36958">
        <ele>2672.1999511719</ele>
        <time>2014-01-11T09:45:11.000Z</time>
      </trkpt>
      <trkpt lat="45.18598" lon="6.36958">
        <ele>2672.1999511719</ele>
        <time>2014-01-11T09:45:14.000Z</time>
      </trkpt>
      <trkpt lat="45.18598" lon="6.36958">
        <ele>2672.1999511719</ele>
        <time>2014-01-11T09:45:15.000Z</time>
      </trkpt>
      <trkpt lat="45.18598" lon="6.36958">
        <ele>2672</ele>
        <time>2014-01-11T09:45:16.000Z</time>
      </trkpt>
      <trkpt lat="45.18598" lon="6.36958">
        <ele>2672</ele>
        <time>2014-01-11T09:45:17.000Z</time>
      </trkpt>
      <trkpt lat="45.18598" lon="6.36958">
        <ele>2671.8000488281</ele>
        <time>2014-01-11T09:45:18.000Z</time>
      </trkpt>
      <trkpt lat="45.18598" lon="6.36958">
        <ele>2671.8000488281</ele>
        <time>2014-01-11T09:45:19.000Z</time>
      </trkpt>
      <trkpt lat="45.18598" lon="6.36958">
        <ele>2671.8000488281</ele>
        <time>2014-01-11T09:45:20.000Z</time>
      </trkpt>
      <trkpt lat="45.18598" lon="6.36958">
        <ele>2671.8000488281</ele>
        <time>2014-01-11T09:45:21.000Z</time>
      </trkpt>
      <trkpt lat="45.18598" lon="6.36958">
        <ele>2671.6000976562</ele>
        <time>2014-01-11T09:45:22.000Z</time>
      </trkpt>
      <trkpt lat="45.18598" lon="6.36958">
        <ele>2671.3999023438</ele>
        <time>2014-01-11T09:45:23.000Z</time>
      </trkpt>
      <trkpt lat="45.18598" lon="6.36958">
        <ele>2671.3999023438</ele>
        <time>2014-01-11T09:45:24.000Z</time>
      </trkpt>
      <trkpt lat="45.18598" lon="6.36958">
        <ele>2671.3999023438</ele>
        <time>2014-01-11T09:45:25.000Z</time>
      </trkpt>
      <trkpt lat="45.18598" lon="6.36958">
        <ele>2671.1999511719</ele>
        <time>2014-01-11T09:45:26.000Z</time>
      </trkpt>
      <trkpt lat="45.18598" lon="6.36958">
        <ele>2671.1999511719</ele>
        <time>2014-01-11T09:45:27.000Z</time>
      </trkpt>
      <trkpt lat="45.18598" lon="6.36958">
        <ele>2671.1999511719</ele>
        <time>2014-01-11T09:45:28.000Z</time>
      </trkpt>
      <trkpt lat="45.18598" lon="6.36958">
        <ele>2671.1999511719</ele>
        <time>2014-01-11T09:45:29.000Z</time>
      </trkpt>
      <trkpt lat="45.18598" lon="6.36958">
        <ele>2671.1999511719</ele>
        <time>2014-01-11T09:45:30.000Z</time>
      </trkpt>
      <trkpt lat="45.18598" lon="6.36958">
        <ele>2671</ele>
        <time>2014-01-11T09:45:31.000Z</time>
      </trkpt>
      <trkpt lat="45.18598" lon="6.36958">
        <ele>2671</ele>
        <time>2014-01-11T09:45:32.000Z</time>
      </trkpt>
      <trkpt lat="45.18598" lon="6.36958">
        <ele>2671</ele>
        <time>2014-01-11T09:45:33.000Z</time>
      </trkpt>
      <trkpt lat="45.18598" lon="6.36958">
        <ele>2671</ele>
        <time>2014-01-11T09:45:34.000Z</time>
      </trkpt>
      <trkpt lat="45.18598" lon="6.36958">
        <ele>2671</ele>
        <time>2014-01-11T09:45:35.000Z</time>
      </trkpt>
      <trkpt lat="45.18598" lon="6.36958">
        <ele>2671</ele>
        <time>2014-01-11T09:45:36.000Z</time>
      </trkpt>
      <trkpt lat="45.18598" lon="6.36958">
        <ele>2671</ele>
        <time>2014-01-11T09:45:37.000Z</time>
      </trkpt>
      <trkpt lat="45.18598" lon="6.36958">
        <ele>2671</ele>
        <time>2014-01-11T09:45:38.000Z</time>
      </trkpt>
      <trkpt lat="45.18598" lon="6.36958">
        <ele>2671.1999511719</ele>
        <time>2014-01-11T09:45:39.000Z</time>
      </trkpt>
      <trkpt lat="45.18598" lon="6.36958">
        <ele>2671</ele>
        <time>2014-01-11T09:45:40.000Z</time>
      </trkpt>
      <trkpt lat="45.18598" lon="6.36958">
        <ele>2671</ele>
        <time>2014-01-11T09:45:41.000Z</time>
      </trkpt>
      <trkpt lat="45.18598" lon="6.36958">
        <ele>2671</ele>
        <time>2014-01-11T09:45:42.000Z</time>
      </trkpt>
      <trkpt lat="45.18598" lon="6.36958">
        <ele>2671</ele>
        <time>2014-01-11T09:45:43.000Z</time>
      </trkpt>
      <trkpt lat="45.18598" lon="6.36958">
        <ele>2670.8000488281</ele>
        <time>2014-01-11T09:45:44.000Z</time>
      </trkpt>
      <trkpt lat="45.18598" lon="6.36958">
        <ele>2670.8000488281</ele>
        <time>2014-01-11T09:45:45.000Z</time>
      </trkpt>
      <trkpt lat="45.18598" lon="6.36958">
        <ele>2670.8000488281</ele>
        <time>2014-01-11T09:45:46.000Z</time>
      </trkpt>
      <trkpt lat="45.18598" lon="6.36958">
        <ele>2671</ele>
        <time>2014-01-11T09:45:47.000Z</time>
      </trkpt>
      <trkpt lat="45.18598" lon="6.36958">
        <ele>2671</ele>
        <time>2014-01-11T09:45:48.000Z</time>
      </trkpt>
      <trkpt lat="45.18598" lon="6.36958">
        <ele>2671</ele>
        <time>2014-01-11T09:45:49.000Z</time>
      </trkpt>
      <trkpt lat="45.18598" lon="6.36958">
        <ele>2670.8000488281</ele>
        <time>2014-01-11T09:45:50.000Z</time>
      </trkpt>
      <trkpt lat="45.18598" lon="6.36958">
        <ele>2670.8000488281</ele>
        <time>2014-01-11T09:45:51.000Z</time>
      </trkpt>
      <trkpt lat="45.18598" lon="6.36958">
        <ele>2670.8000488281</ele>
        <time>2014-01-11T09:45:52.000Z</time>
      </trkpt>
      <trkpt lat="45.18598" lon="6.36958">
        <ele>2670.6000976562</ele>
        <time>2014-01-11T09:45:53.000Z</time>
      </trkpt>
      <trkpt lat="45.18598" lon="6.36958">
        <ele>2670.6000976562</ele>
        <time>2014-01-11T09:45:54.000Z</time>
      </trkpt>
      <trkpt lat="45.18598" lon="6.36958">
        <ele>2670.3999023438</ele>
        <time>2014-01-11T09:45:55.000Z</time>
      </trkpt>
      <trkpt lat="45.18598" lon="6.36958">
        <ele>2670.3999023438</ele>
        <time>2014-01-11T09:45:56.000Z</time>
      </trkpt>
      <trkpt lat="45.18598" lon="6.36958">
        <ele>2670.3999023438</ele>
        <time>2014-01-11T09:45:57.000Z</time>
      </trkpt>
      <trkpt lat="45.18598" lon="6.36958">
        <ele>2670.3999023438</ele>
        <time>2014-01-11T09:45:58.000Z</time>
      </trkpt>
      <trkpt lat="45.18598" lon="6.36958">
        <ele>2670.3999023438</ele>
        <time>2014-01-11T09:45:59.000Z</time>
      </trkpt>
      <trkpt lat="45.18598" lon="6.36958">
        <ele>2670.3999023438</ele>
        <time>2014-01-11T09:46:02.000Z</time>
      </trkpt>
      <trkpt lat="45.18598" lon="6.36958">
        <ele>2670.3999023438</ele>
        <time>2014-01-11T09:46:03.000Z</time>
      </trkpt>
      <trkpt lat="45.18598" lon="6.36958">
        <ele>2670.3999023438</ele>
        <time>2014-01-11T09:46:04.000Z</time>
      </trkpt>
      <trkpt lat="45.18598" lon="6.36958">
        <ele>2670.6000976562</ele>
        <time>2014-01-11T09:46:05.000Z</time>
      </trkpt>
      <trkpt lat="45.18598" lon="6.36958">
        <ele>2670.6000976562</ele>
        <time>2014-01-11T09:46:06.000Z</time>
      </trkpt>
      <trkpt lat="45.18598" lon="6.36958">
        <ele>2670.6000976562</ele>
        <time>2014-01-11T09:46:07.000Z</time>
      </trkpt>
      <trkpt lat="45.18598" lon="6.36958">
        <ele>2670.6000976562</ele>
        <time>2014-01-11T09:46:08.000Z</time>
      </trkpt>
      <trkpt lat="45.18598" lon="6.36958">
        <ele>2670.6000976562</ele>
        <time>2014-01-11T09:46:09.000Z</time>
      </trkpt>
      <trkpt lat="45.18598" lon="6.36958">
        <ele>2670.6000976562</ele>
        <time>2014-01-11T09:46:10.000Z</time>
      </trkpt>
      <trkpt lat="45.18598" lon="6.36958">
        <ele>2670.6000976562</ele>
        <time>2014-01-11T09:46:11.000Z</time>
      </trkpt>
      <trkpt lat="45.18598" lon="6.36958">
        <ele>2670.6000976562</ele>
        <time>2014-01-11T09:46:12.000Z</time>
      </trkpt>
      <trkpt lat="45.18598" lon="6.36958">
        <ele>2670.6000976562</ele>
        <time>2014-01-11T09:46:14.000Z</time>
      </trkpt>
      <trkpt lat="45.18598" lon="6.36958">
        <ele>2670.6000976562</ele>
        <time>2014-01-11T09:46:15.000Z</time>
      </trkpt>
      <trkpt lat="45.18598" lon="6.36958">
        <ele>2670.6000976562</ele>
        <time>2014-01-11T09:46:16.000Z</time>
      </trkpt>
      <trkpt lat="45.18598" lon="6.36958">
        <ele>2670.6000976562</ele>
        <time>2014-01-11T09:46:17.000Z</time>
      </trkpt>
      <trkpt lat="45.18598" lon="6.36958">
        <ele>2670.6000976562</ele>
        <time>2014-01-11T09:46:18.000Z</time>
      </trkpt>
      <trkpt lat="45.18598" lon="6.36958">
        <ele>2670.6000976562</ele>
        <time>2014-01-11T09:46:19.000Z</time>
      </trkpt>
      <trkpt lat="45.18598" lon="6.36958">
        <ele>2670.3999023438</ele>
        <time>2014-01-11T09:46:20.000Z</time>
      </trkpt>
      <trkpt lat="45.18598" lon="6.36958">
        <ele>2670.3999023438</ele>
        <time>2014-01-11T09:46:21.000Z</time>
      </trkpt>
      <trkpt lat="45.18598" lon="6.36958">
        <ele>2670.3999023438</ele>
        <time>2014-01-11T09:46:22.000Z</time>
      </trkpt>
      <trkpt lat="45.18598" lon="6.36958">
        <ele>2670.3999023438</ele>
        <time>2014-01-11T09:46:23.000Z</time>
      </trkpt>
      <trkpt lat="45.18598" lon="6.36958">
        <ele>2670.3999023438</ele>
        <time>2014-01-11T09:46:24.000Z</time>
      </trkpt>
      <trkpt lat="45.18598" lon="6.36958">
        <ele>2670.3999023438</ele>
        <time>2014-01-11T09:46:25.000Z</time>
      </trkpt>
      <trkpt lat="45.18598" lon="6.36958">
        <ele>2670.3999023438</ele>
        <time>2014-01-11T09:46:26.000Z</time>
      </trkpt>
      <trkpt lat="45.18598" lon="6.36958">
        <ele>2670.3999023438</ele>
        <time>2014-01-11T09:46:27.000Z</time>
      </trkpt>
      <trkpt lat="45.18598" lon="6.36958">
        <ele>2670.3999023438</ele>
        <time>2014-01-11T09:46:29.000Z</time>
      </trkpt>
      <trkpt lat="45.18598" lon="6.36958">
        <ele>2670.3999023438</ele>
        <time>2014-01-11T09:46:30.000Z</time>
      </trkpt>
      <trkpt lat="45.18598" lon="6.36958">
        <ele>2670.3999023438</ele>
        <time>2014-01-11T09:46:32.000Z</time>
      </trkpt>
      <trkpt lat="45.18598" lon="6.36958">
        <ele>2670.3999023438</ele>
        <time>2014-01-11T09:46:33.000Z</time>
      </trkpt>
      <trkpt lat="45.18598" lon="6.36958">
        <ele>2670.3999023438</ele>
        <time>2014-01-11T09:46:34.000Z</time>
      </trkpt>
      <trkpt lat="45.18598" lon="6.36958">
        <ele>2670.3999023438</ele>
        <time>2014-01-11T09:46:35.000Z</time>
      </trkpt>
      <trkpt lat="45.18598" lon="6.36958">
        <ele>2670.3999023438</ele>
        <time>2014-01-11T09:46:36.000Z</time>
      </trkpt>
      <trkpt lat="45.18598" lon="6.36958">
        <ele>2670.3999023438</ele>
        <time>2014-01-11T09:46:37.000Z</time>
      </trkpt>
      <trkpt lat="45.18598" lon="6.36958">
        <ele>2670.6000976562</ele>
        <time>2014-01-11T09:46:42.000Z</time>
      </trkpt>
      <trkpt lat="45.18598" lon="6.36958">
        <ele>2670.6000976562</ele>
        <time>2014-01-11T09:46:43.000Z</time>
      </trkpt>
      <trkpt lat="45.18598" lon="6.36958">
        <ele>2670.6000976562</ele>
        <time>2014-01-11T09:46:44.000Z</time>
      </trkpt>
      <trkpt lat="45.18598" lon="6.36958">
        <ele>2670.6000976562</ele>
        <time>2014-01-11T09:46:45.000Z</time>
      </trkpt>
      <trkpt lat="45.18598" lon="6.36958">
        <ele>2670.6000976562</ele>
        <time>2014-01-11T09:46:46.000Z</time>
      </trkpt>
      <trkpt lat="45.18598" lon="6.36958">
        <ele>2670.6000976562</ele>
        <time>2014-01-11T09:46:47.000Z</time>
      </trkpt>
      <trkpt lat="45.18598" lon="6.36958">
        <ele>2670.6000976562</ele>
        <time>2014-01-11T09:46:49.000Z</time>
      </trkpt>
      <trkpt lat="45.18598" lon="6.36958">
        <ele>2670.6000976562</ele>
        <time>2014-01-11T09:46:50.000Z</time>
      </trkpt>
      <trkpt lat="45.18598" lon="6.36958">
        <ele>2670.6000976562</ele>
        <time>2014-01-11T09:46:53.000Z</time>
      </trkpt>
      <trkpt lat="45.18598" lon="6.36958">
        <ele>2670.6000976562</ele>
        <time>2014-01-11T09:46:54.000Z</time>
      </trkpt>
      <trkpt lat="45.18598" lon="6.36958">
        <ele>2670.6000976562</ele>
        <time>2014-01-11T09:46:55.000Z</time>
      </trkpt>
      <trkpt lat="45.18598" lon="6.36958">
        <ele>2670.6000976562</ele>
        <time>2014-01-11T09:46:56.000Z</time>
      </trkpt>
      <trkpt lat="45.18598" lon="6.36958">
        <ele>2670.6000976562</ele>
        <time>2014-01-11T09:46:58.000Z</time>
      </trkpt>
      <trkpt lat="45.18598" lon="6.36958">
        <ele>2670.6000976562</ele>
        <time>2014-01-11T09:46:59.000Z</time>
      </trkpt>
      <trkpt lat="45.18598" lon="6.36958">
        <ele>2670.6000976562</ele>
        <time>2014-01-11T09:47:00.000Z</time>
      </trkpt>
      <trkpt lat="45.18598" lon="6.36958">
        <ele>2670.6000976562</ele>
        <time>2014-01-11T09:47:01.000Z</time>
      </trkpt>
      <trkpt lat="45.18598" lon="6.36958">
        <ele>2670.6000976562</ele>
        <time>2014-01-11T09:47:02.000Z</time>
      </trkpt>
      <trkpt lat="45.18598" lon="6.36958">
        <ele>2670.6000976562</ele>
        <time>2014-01-11T09:47:03.000Z</time>
      </trkpt>
      <trkpt lat="45.18598" lon="6.36958">
        <ele>2670.6000976562</ele>
        <time>2014-01-11T09:47:04.000Z</time>
      </trkpt>
      <trkpt lat="45.18598" lon="6.36958">
        <ele>2670.6000976562</ele>
        <time>2014-01-11T09:47:06.000Z</time>
      </trkpt>
      <trkpt lat="45.18598" lon="6.36958">
        <ele>2670.6000976562</ele>
        <time>2014-01-11T09:47:07.000Z</time>
      </trkpt>
      <trkpt lat="45.18598" lon="6.36958">
        <ele>2670.6000976562</ele>
        <time>2014-01-11T09:47:09.000Z</time>
      </trkpt>
      <trkpt lat="45.18598" lon="6.36958">
        <ele>2670.6000976562</ele>
        <time>2014-01-11T09:47:10.000Z</time>
      </trkpt>
      <trkpt lat="45.18598" lon="6.36958">
        <ele>2670.6000976562</ele>
        <time>2014-01-11T09:47:11.000Z</time>
      </trkpt>
      <trkpt lat="45.18598" lon="6.36958">
        <ele>2670.6000976562</ele>
        <time>2014-01-11T09:47:12.000Z</time>
      </trkpt>
      <trkpt lat="45.18598" lon="6.36958">
        <ele>2670.6000976562</ele>
        <time>2014-01-11T09:47:13.000Z</time>
      </trkpt>
      <trkpt lat="45.18598" lon="6.36958">
        <ele>2670.6000976562</ele>
        <time>2014-01-11T09:47:14.000Z</time>
      </trkpt>
      <trkpt lat="45.18598" lon="6.36958">
        <ele>2670.6000976562</ele>
        <time>2014-01-11T09:47:15.000Z</time>
      </trkpt>
      <trkpt lat="45.18598" lon="6.36958">
        <ele>2670.3999023438</ele>
        <time>2014-01-11T09:47:16.000Z</time>
      </trkpt>
      <trkpt lat="45.18598" lon="6.36958">
        <ele>2670.3999023438</ele>
        <time>2014-01-11T09:47:17.000Z</time>
      </trkpt>
      <trkpt lat="45.18598" lon="6.36958">
        <ele>2670.3999023438</ele>
        <time>2014-01-11T09:47:18.000Z</time>
      </trkpt>
      <trkpt lat="45.18598" lon="6.36958">
        <ele>2670.3999023438</ele>
        <time>2014-01-11T09:47:19.000Z</time>
      </trkpt>
      <trkpt lat="45.18598" lon="6.36958">
        <ele>2670.3999023438</ele>
        <time>2014-01-11T09:47:20.000Z</time>
      </trkpt>
      <trkpt lat="45.18598" lon="6.36958">
        <ele>2670.3999023438</ele>
        <time>2014-01-11T09:47:21.000Z</time>
      </trkpt>
      <trkpt lat="45.18598" lon="6.36958">
        <ele>2670.3999023438</ele>
        <time>2014-01-11T09:47:24.000Z</time>
      </trkpt>
      <trkpt lat="45.18598" lon="6.36958">
        <ele>2670.3999023438</ele>
        <time>2014-01-11T09:47:25.000Z</time>
      </trkpt>
      <trkpt lat="45.18598" lon="6.36958">
        <ele>2670.3999023438</ele>
        <time>2014-01-11T09:47:26.000Z</time>
      </trkpt>
      <trkpt lat="45.18598" lon="6.36958">
        <ele>2670.1999511719</ele>
        <time>2014-01-11T09:47:27.000Z</time>
      </trkpt>
      <trkpt lat="45.18598" lon="6.36958">
        <ele>2670.1999511719</ele>
        <time>2014-01-11T09:47:28.000Z</time>
      </trkpt>
      <trkpt lat="45.18598" lon="6.36958">
        <ele>2670.1999511719</ele>
        <time>2014-01-11T09:47:29.000Z</time>
      </trkpt>
      <trkpt lat="45.18598" lon="6.36958">
        <ele>2670.1999511719</ele>
        <time>2014-01-11T09:47:30.000Z</time>
      </trkpt>
      <trkpt lat="45.18598" lon="6.36958">
        <ele>2670.1999511719</ele>
        <time>2014-01-11T09:47:31.000Z</time>
      </trkpt>
      <trkpt lat="45.18598" lon="6.36958">
        <ele>2670.1999511719</ele>
        <time>2014-01-11T09:47:32.000Z</time>
      </trkpt>
      <trkpt lat="45.18598" lon="6.36958">
        <ele>2670.1999511719</ele>
        <time>2014-01-11T09:47:36.000Z</time>
      </trkpt>
      <trkpt lat="45.18598" lon="6.36958">
        <ele>2670.1999511719</ele>
        <time>2014-01-11T09:47:37.000Z</time>
      </trkpt>
      <trkpt lat="45.18598" lon="6.36958">
        <ele>2670.1999511719</ele>
        <time>2014-01-11T09:47:38.000Z</time>
      </trkpt>
      <trkpt lat="45.18598" lon="6.36958">
        <ele>2670.1999511719</ele>
        <time>2014-01-11T09:47:39.000Z</time>
      </trkpt>
      <trkpt lat="45.18598" lon="6.36958">
        <ele>2670.1999511719</ele>
        <time>2014-01-11T09:47:42.000Z</time>
      </trkpt>
      <trkpt lat="45.18598" lon="6.36958">
        <ele>2670.1999511719</ele>
        <time>2014-01-11T09:47:43.000Z</time>
      </trkpt>
      <trkpt lat="45.18598" lon="6.36958">
        <ele>2670.1999511719</ele>
        <time>2014-01-11T09:47:44.000Z</time>
      </trkpt>
      <trkpt lat="45.18598" lon="6.36958">
        <ele>2670.1999511719</ele>
        <time>2014-01-11T09:47:45.000Z</time>
      </trkpt>
      <trkpt lat="45.18598" lon="6.36958">
        <ele>2670.1999511719</ele>
        <time>2014-01-11T09:47:46.000Z</time>
      </trkpt>
      <trkpt lat="45.18598" lon="6.36958">
        <ele>2670.3999023438</ele>
        <time>2014-01-11T09:47:48.000Z</time>
      </trkpt>
      <trkpt lat="45.18598" lon="6.36958">
        <ele>2670.3999023438</ele>
        <time>2014-01-11T09:47:49.000Z</time>
      </trkpt>
      <trkpt lat="45.18598" lon="6.36958">
        <ele>2670.3999023438</ele>
        <time>2014-01-11T09:47:50.000Z</time>
      </trkpt>
      <trkpt lat="45.18598" lon="6.36958">
        <ele>2670.3999023438</ele>
        <time>2014-01-11T09:47:51.000Z</time>
      </trkpt>
      <trkpt lat="45.18598" lon="6.36958">
        <ele>2670.3999023438</ele>
        <time>2014-01-11T09:47:52.000Z</time>
      </trkpt>
      <trkpt lat="45.18598" lon="6.36958">
        <ele>2670.3999023438</ele>
        <time>2014-01-11T09:47:56.000Z</time>
      </trkpt>
      <trkpt lat="45.18598" lon="6.36958">
        <ele>2670.3999023438</ele>
        <time>2014-01-11T09:47:57.000Z</time>
      </trkpt>
      <trkpt lat="45.18598" lon="6.36958">
        <ele>2670.1999511719</ele>
        <time>2014-01-11T09:47:58.000Z</time>
      </trkpt>
      <trkpt lat="45.18598" lon="6.36958">
        <ele>2670.3999023438</ele>
        <time>2014-01-11T09:48:00.000Z</time>
      </trkpt>
      <trkpt lat="45.18598" lon="6.36958">
        <ele>2670.3999023438</ele>
        <time>2014-01-11T09:48:01.000Z</time>
      </trkpt>
      <trkpt lat="45.18598" lon="6.36958">
        <ele>2670.3999023438</ele>
        <time>2014-01-11T09:48:03.000Z</time>
      </trkpt>
      <trkpt lat="45.18598" lon="6.36958">
        <ele>2670.3999023438</ele>
        <time>2014-01-11T09:48:04.000Z</time>
      </trkpt>
      <trkpt lat="45.18598" lon="6.36958">
        <ele>2670.3999023438</ele>
        <time>2014-01-11T09:48:05.000Z</time>
      </trkpt>
      <trkpt lat="45.18598" lon="6.36958">
        <ele>2670.3999023438</ele>
        <time>2014-01-11T09:48:08.000Z</time>
      </trkpt>
      <trkpt lat="45.18598" lon="6.36958">
        <ele>2670.3999023438</ele>
        <time>2014-01-11T09:48:09.000Z</time>
      </trkpt>
      <trkpt lat="45.18598" lon="6.36958">
        <ele>2670.3999023438</ele>
        <time>2014-01-11T09:48:10.000Z</time>
      </trkpt>
      <trkpt lat="45.18598" lon="6.36958">
        <ele>2670.3999023438</ele>
        <time>2014-01-11T09:48:11.000Z</time>
      </trkpt>
      <trkpt lat="45.18598" lon="6.36958">
        <ele>2670.3999023438</ele>
        <time>2014-01-11T09:48:12.000Z</time>
      </trkpt>
      <trkpt lat="45.18598" lon="6.36958">
        <ele>2670.6000976562</ele>
        <time>2014-01-11T09:48:13.000Z</time>
      </trkpt>
      <trkpt lat="45.18598" lon="6.36958">
        <ele>2670.6000976562</ele>
        <time>2014-01-11T09:48:14.000Z</time>
      </trkpt>
      <trkpt lat="45.18598" lon="6.36958">
        <ele>2670.6000976562</ele>
        <time>2014-01-11T09:48:15.000Z</time>
      </trkpt>
      <trkpt lat="45.18598" lon="6.36958">
        <ele>2670.6000976562</ele>
        <time>2014-01-11T09:48:17.000Z</time>
      </trkpt>
      <trkpt lat="45.18598" lon="6.36958">
        <ele>2670.3999023438</ele>
        <time>2014-01-11T09:48:18.000Z</time>
      </trkpt>
      <trkpt lat="45.18598" lon="6.36958">
        <ele>2670.3999023438</ele>
        <time>2014-01-11T09:48:19.000Z</time>
      </trkpt>
      <trkpt lat="45.18598" lon="6.36958">
        <ele>2670.3999023438</ele>
        <time>2014-01-11T09:48:20.000Z</time>
      </trkpt>
      <trkpt lat="45.18598" lon="6.36958">
        <ele>2670.3999023438</ele>
        <time>2014-01-11T09:48:21.000Z</time>
      </trkpt>
      <trkpt lat="45.18598" lon="6.36958">
        <ele>2670.1999511719</ele>
        <time>2014-01-11T09:48:22.000Z</time>
      </trkpt>
      <trkpt lat="45.18598" lon="6.36958">
        <ele>2670.1999511719</ele>
        <time>2014-01-11T09:48:23.000Z</time>
      </trkpt>
      <trkpt lat="45.18598" lon="6.36958">
        <ele>2670.1999511719</ele>
        <time>2014-01-11T09:48:24.000Z</time>
      </trkpt>
      <trkpt lat="45.18598" lon="6.36958">
        <ele>2670.1999511719</ele>
        <time>2014-01-11T09:48:25.000Z</time>
      </trkpt>
      <trkpt lat="45.18598" lon="6.36958">
        <ele>2670.1999511719</ele>
        <time>2014-01-11T09:48:27.000Z</time>
      </trkpt>
      <trkpt lat="45.18598" lon="6.36958">
        <ele>2670.1999511719</ele>
        <time>2014-01-11T09:48:28.000Z</time>
      </trkpt>
      <trkpt lat="45.18598" lon="6.36958">
        <ele>2670.1999511719</ele>
        <time>2014-01-11T09:48:29.000Z</time>
      </trkpt>
      <trkpt lat="45.18598" lon="6.36958">
        <ele>2670.1999511719</ele>
        <time>2014-01-11T09:48:30.000Z</time>
      </trkpt>
      <trkpt lat="45.18598" lon="6.36958">
        <ele>2670.1999511719</ele>
        <time>2014-01-11T09:48:32.000Z</time>
      </trkpt>
      <trkpt lat="45.18598" lon="6.36958">
        <ele>2670.1999511719</ele>
        <time>2014-01-11T09:48:33.000Z</time>
      </trkpt>
      <trkpt lat="45.18598" lon="6.36958">
        <ele>2670.1999511719</ele>
        <time>2014-01-11T09:48:34.000Z</time>
      </trkpt>
      <trkpt lat="45.18598" lon="6.36958">
        <ele>2670.3999023438</ele>
        <time>2014-01-11T09:48:36.000Z</time>
      </trkpt>
      <trkpt lat="45.18598" lon="6.36958">
        <ele>2670.3999023438</ele>
        <time>2014-01-11T09:48:37.000Z</time>
      </trkpt>
      <trkpt lat="45.18598" lon="6.36958">
        <ele>2670.3999023438</ele>
        <time>2014-01-11T09:48:38.000Z</time>
      </trkpt>
      <trkpt lat="45.18598" lon="6.36958">
        <ele>2670.3999023438</ele>
        <time>2014-01-11T09:48:39.000Z</time>
      </trkpt>
      <trkpt lat="45.18598" lon="6.36958">
        <ele>2670.3999023438</ele>
        <time>2014-01-11T09:48:40.000Z</time>
      </trkpt>
      <trkpt lat="45.18598" lon="6.36958">
        <ele>2670.3999023438</ele>
        <time>2014-01-11T09:48:41.000Z</time>
      </trkpt>
      <trkpt lat="45.18598" lon="6.36958">
        <ele>2670.3999023438</ele>
        <time>2014-01-11T09:48:42.000Z</time>
      </trkpt>
      <trkpt lat="45.18598" lon="6.36958">
        <ele>2670.3999023438</ele>
        <time>2014-01-11T09:48:43.000Z</time>
      </trkpt>
      <trkpt lat="45.18598" lon="6.36958">
        <ele>2670.3999023438</ele>
        <time>2014-01-11T09:48:45.000Z</time>
      </trkpt>
      <trkpt lat="45.18598" lon="6.36958">
        <ele>2670.3999023438</ele>
        <time>2014-01-11T09:48:46.000Z</time>
      </trkpt>
      <trkpt lat="45.18598" lon="6.36958">
        <ele>2670.3999023438</ele>
        <time>2014-01-11T09:48:47.000Z</time>
      </trkpt>
      <trkpt lat="45.18598" lon="6.36958">
        <ele>2670.1999511719</ele>
        <time>2014-01-11T09:48:48.000Z</time>
      </trkpt>
      <trkpt lat="45.18598" lon="6.36958">
        <ele>2670.1999511719</ele>
        <time>2014-01-11T09:48:49.000Z</time>
      </trkpt>
      <trkpt lat="45.18598" lon="6.36958">
        <ele>2670.1999511719</ele>
        <time>2014-01-11T09:48:50.000Z</time>
      </trkpt>
      <trkpt lat="45.18598" lon="6.36958">
        <ele>2670.1999511719</ele>
        <time>2014-01-11T09:48:51.000Z</time>
      </trkpt>
      <trkpt lat="45.18598" lon="6.36958">
        <ele>2670.1999511719</ele>
        <time>2014-01-11T09:48:52.000Z</time>
      </trkpt>
      <trkpt lat="45.18598" lon="6.36958">
        <ele>2670.1999511719</ele>
        <time>2014-01-11T09:48:54.000Z</time>
      </trkpt>
      <trkpt lat="45.18598" lon="6.36958">
        <ele>2670.1999511719</ele>
        <time>2014-01-11T09:48:55.000Z</time>
      </trkpt>
      <trkpt lat="45.18598" lon="6.36958">
        <ele>2670.1999511719</ele>
        <time>2014-01-11T09:48:56.000Z</time>
      </trkpt>
      <trkpt lat="45.18598" lon="6.36958">
        <ele>2670.3999023438</ele>
        <time>2014-01-11T09:48:57.000Z</time>
      </trkpt>
      <trkpt lat="45.18598" lon="6.36958">
        <ele>2670.3999023438</ele>
        <time>2014-01-11T09:48:58.000Z</time>
      </trkpt>
      <trkpt lat="45.18598" lon="6.36958">
        <ele>2670.3999023438</ele>
        <time>2014-01-11T09:48:59.000Z</time>
      </trkpt>
      <trkpt lat="45.18598" lon="6.36958">
        <ele>2670.3999023438</ele>
        <time>2014-01-11T09:49:00.000Z</time>
      </trkpt>
      <trkpt lat="45.18598" lon="6.36958">
        <ele>2670.6000976562</ele>
        <time>2014-01-11T09:49:05.000Z</time>
      </trkpt>
      <trkpt lat="45.18598" lon="6.36958">
        <ele>2670.6000976562</ele>
        <time>2014-01-11T09:49:06.000Z</time>
      </trkpt>
      <trkpt lat="45.18598" lon="6.36958">
        <ele>2670.6000976562</ele>
        <time>2014-01-11T09:49:07.000Z</time>
      </trkpt>
      <trkpt lat="45.18598" lon="6.36958">
        <ele>2670.6000976562</ele>
        <time>2014-01-11T09:49:08.000Z</time>
      </trkpt>
      <trkpt lat="45.18598" lon="6.36958">
        <ele>2670.8000488281</ele>
        <time>2014-01-11T09:49:09.000Z</time>
      </trkpt>
      <trkpt lat="45.18598" lon="6.36958">
        <ele>2670.8000488281</ele>
        <time>2014-01-11T09:49:11.000Z</time>
      </trkpt>
      <trkpt lat="45.18598" lon="6.36958">
        <ele>2670.6000976562</ele>
        <time>2014-01-11T09:49:12.000Z</time>
      </trkpt>
      <trkpt lat="45.18598" lon="6.36958">
        <ele>2670.6000976562</ele>
        <time>2014-01-11T09:49:13.000Z</time>
      </trkpt>
      <trkpt lat="45.18598" lon="6.36958">
        <ele>2670.6000976562</ele>
        <time>2014-01-11T09:49:14.000Z</time>
      </trkpt>
      <trkpt lat="45.18598" lon="6.36958">
        <ele>2670.6000976562</ele>
        <time>2014-01-11T09:49:15.000Z</time>
      </trkpt>
      <trkpt lat="45.18597" lon="6.36957">
        <ele>2670.6000976562</ele>
        <time>2014-01-11T09:49:16.000Z</time>
      </trkpt>
      <trkpt lat="45.18597" lon="6.36956">
        <ele>2670.6000976562</ele>
        <time>2014-01-11T09:49:17.000Z</time>
      </trkpt>
      <trkpt lat="45.18596" lon="6.36954">
        <ele>2670.3999023438</ele>
        <time>2014-01-11T09:49:18.000Z</time>
      </trkpt>
      <trkpt lat="45.18596" lon="6.36954">
        <ele>2670.3999023438</ele>
        <time>2014-01-11T09:49:19.000Z</time>
      </trkpt>
      <trkpt lat="45.18596" lon="6.36953">
        <ele>2670.6000976562</ele>
        <time>2014-01-11T09:49:20.000Z</time>
      </trkpt>
      <trkpt lat="45.18596" lon="6.36953">
        <ele>2670.8000488281</ele>
        <time>2014-01-11T09:49:21.000Z</time>
      </trkpt>
      <trkpt lat="45.18596" lon="6.36953">
        <ele>2670.8000488281</ele>
        <time>2014-01-11T09:49:22.000Z</time>
      </trkpt>
      <trkpt lat="45.18596" lon="6.36953">
        <ele>2670.8000488281</ele>
        <time>2014-01-11T09:49:23.000Z</time>
      </trkpt>
      <trkpt lat="45.18596" lon="6.36953">
        <ele>2670.8000488281</ele>
        <time>2014-01-11T09:49:24.000Z</time>
      </trkpt>
      <trkpt lat="45.18596" lon="6.36953">
        <ele>2670.8000488281</ele>
        <time>2014-01-11T09:49:25.000Z</time>
      </trkpt>
      <trkpt lat="45.18596" lon="6.36953">
        <ele>2670.8000488281</ele>
        <time>2014-01-11T09:49:26.000Z</time>
      </trkpt>
      <trkpt lat="45.18596" lon="6.36953">
        <ele>2670.8000488281</ele>
        <time>2014-01-11T09:49:27.000Z</time>
      </trkpt>
      <trkpt lat="45.18596" lon="6.36953">
        <ele>2670.8000488281</ele>
        <time>2014-01-11T09:49:28.000Z</time>
      </trkpt>
      <trkpt lat="45.18596" lon="6.36953">
        <ele>2670.8000488281</ele>
        <time>2014-01-11T09:49:29.000Z</time>
      </trkpt>
      <trkpt lat="45.18596" lon="6.36953">
        <ele>2670.8000488281</ele>
        <time>2014-01-11T09:49:30.000Z</time>
      </trkpt>
      <trkpt lat="45.18596" lon="6.36953">
        <ele>2670.8000488281</ele>
        <time>2014-01-11T09:49:31.000Z</time>
      </trkpt>
      <trkpt lat="45.18596" lon="6.36953">
        <ele>2670.8000488281</ele>
        <time>2014-01-11T09:49:32.000Z</time>
      </trkpt>
      <trkpt lat="45.18596" lon="6.36953">
        <ele>2670.8000488281</ele>
        <time>2014-01-11T09:49:33.000Z</time>
      </trkpt>
      <trkpt lat="45.18596" lon="6.36953">
        <ele>2670.8000488281</ele>
        <time>2014-01-11T09:49:34.000Z</time>
      </trkpt>
      <trkpt lat="45.18596" lon="6.36953">
        <ele>2670.8000488281</ele>
        <time>2014-01-11T09:49:35.000Z</time>
      </trkpt>
      <trkpt lat="45.18596" lon="6.36953">
        <ele>2670.6000976562</ele>
        <time>2014-01-11T09:49:36.000Z</time>
      </trkpt>
      <trkpt lat="45.18596" lon="6.36953">
        <ele>2670.6000976562</ele>
        <time>2014-01-11T09:49:37.000Z</time>
      </trkpt>
      <trkpt lat="45.18596" lon="6.36953">
        <ele>2670.6000976562</ele>
        <time>2014-01-11T09:49:38.000Z</time>
      </trkpt>
      <trkpt lat="45.18596" lon="6.36953">
        <ele>2670.6000976562</ele>
        <time>2014-01-11T09:49:39.000Z</time>
      </trkpt>
      <trkpt lat="45.18596" lon="6.36953">
        <ele>2670.6000976562</ele>
        <time>2014-01-11T09:49:40.000Z</time>
      </trkpt>
      <trkpt lat="45.18596" lon="6.36953">
        <ele>2670.6000976562</ele>
        <time>2014-01-11T09:49:41.000Z</time>
      </trkpt>
      <trkpt lat="45.18596" lon="6.36953">
        <ele>2670.6000976562</ele>
        <time>2014-01-11T09:49:42.000Z</time>
      </trkpt>
      <trkpt lat="45.18596" lon="6.36953">
        <ele>2670.6000976562</ele>
        <time>2014-01-11T09:49:43.000Z</time>
      </trkpt>
      <trkpt lat="45.18596" lon="6.36953">
        <ele>2670.3999023438</ele>
        <time>2014-01-11T09:49:45.000Z</time>
      </trkpt>
      <trkpt lat="45.18596" lon="6.36953">
        <ele>2670.3999023438</ele>
        <time>2014-01-11T09:49:46.000Z</time>
      </trkpt>
      <trkpt lat="45.18596" lon="6.36953">
        <ele>2670.3999023438</ele>
        <time>2014-01-11T09:49:47.000Z</time>
      </trkpt>
      <trkpt lat="45.18596" lon="6.36953">
        <ele>2670.3999023438</ele>
        <time>2014-01-11T09:49:48.000Z</time>
      </trkpt>
      <trkpt lat="45.18596" lon="6.36953">
        <ele>2670.3999023438</ele>
        <time>2014-01-11T09:49:49.000Z</time>
      </trkpt>
      <trkpt lat="45.18596" lon="6.36953">
        <ele>2670.3999023438</ele>
        <time>2014-01-11T09:49:50.000Z</time>
      </trkpt>
      <trkpt lat="45.18596" lon="6.36953">
        <ele>2670.3999023438</ele>
        <time>2014-01-11T09:49:51.000Z</time>
      </trkpt>
      <trkpt lat="45.18596" lon="6.36953">
        <ele>2670.3999023438</ele>
        <time>2014-01-11T09:49:52.000Z</time>
      </trkpt>
      <trkpt lat="45.18596" lon="6.36953">
        <ele>2670.3999023438</ele>
        <time>2014-01-11T09:49:53.000Z</time>
      </trkpt>
      <trkpt lat="45.18596" lon="6.36953">
        <ele>2670.3999023438</ele>
        <time>2014-01-11T09:49:54.000Z</time>
      </trkpt>
      <trkpt lat="45.18596" lon="6.36953">
        <ele>2670.3999023438</ele>
        <time>2014-01-11T09:49:55.000Z</time>
      </trkpt>
      <trkpt lat="45.18596" lon="6.36953">
        <ele>2670.3999023438</ele>
        <time>2014-01-11T09:49:56.000Z</time>
      </trkpt>
      <trkpt lat="45.18596" lon="6.36953">
        <ele>2670.3999023438</ele>
        <time>2014-01-11T09:49:57.000Z</time>
      </trkpt>
      <trkpt lat="45.18596" lon="6.36953">
        <ele>2670.3999023438</ele>
        <time>2014-01-11T09:49:58.000Z</time>
      </trkpt>
      <trkpt lat="45.18596" lon="6.36953">
        <ele>2670.3999023438</ele>
        <time>2014-01-11T09:49:59.000Z</time>
      </trkpt>
      <trkpt lat="45.18596" lon="6.36953">
        <ele>2670.3999023438</ele>
        <time>2014-01-11T09:50:00.000Z</time>
      </trkpt>
      <trkpt lat="45.18596" lon="6.36954">
        <ele>2670.3999023438</ele>
        <time>2014-01-11T09:50:01.000Z</time>
      </trkpt>
      <trkpt lat="45.18596" lon="6.36954">
        <ele>2670.3999023438</ele>
        <time>2014-01-11T09:50:03.000Z</time>
      </trkpt>
      <trkpt lat="45.18596" lon="6.36954">
        <ele>2670.3999023438</ele>
        <time>2014-01-11T09:50:04.000Z</time>
      </trkpt>
      <trkpt lat="45.18596" lon="6.36954">
        <ele>2670.3999023438</ele>
        <time>2014-01-11T09:50:07.000Z</time>
      </trkpt>
      <trkpt lat="45.18596" lon="6.36954">
        <ele>2670.6000976562</ele>
        <time>2014-01-11T09:50:08.000Z</time>
      </trkpt>
      <trkpt lat="45.18596" lon="6.36954">
        <ele>2670.6000976562</ele>
        <time>2014-01-11T09:50:09.000Z</time>
      </trkpt>
      <trkpt lat="45.18596" lon="6.36954">
        <ele>2670.3999023438</ele>
        <time>2014-01-11T09:50:10.000Z</time>
      </trkpt>
      <trkpt lat="45.18596" lon="6.36954">
        <ele>2670.3999023438</ele>
        <time>2014-01-11T09:50:11.000Z</time>
      </trkpt>
      <trkpt lat="45.18596" lon="6.36954">
        <ele>2670.3999023438</ele>
        <time>2014-01-11T09:50:12.000Z</time>
      </trkpt>
      <trkpt lat="45.18596" lon="6.36954">
        <ele>2670.3999023438</ele>
        <time>2014-01-11T09:50:13.000Z</time>
      </trkpt>
      <trkpt lat="45.18596" lon="6.36954">
        <ele>2670.3999023438</ele>
        <time>2014-01-11T09:50:14.000Z</time>
      </trkpt>
      <trkpt lat="45.18596" lon="6.36954">
        <ele>2670.3999023438</ele>
        <time>2014-01-11T09:50:15.000Z</time>
      </trkpt>
      <trkpt lat="45.18596" lon="6.36954">
        <ele>2670.1999511719</ele>
        <time>2014-01-11T09:50:16.000Z</time>
      </trkpt>
      <trkpt lat="45.18596" lon="6.36954">
        <ele>2670.3999023438</ele>
        <time>2014-01-11T09:50:20.000Z</time>
      </trkpt>
      <trkpt lat="45.18596" lon="6.36954">
        <ele>2670.3999023438</ele>
        <time>2014-01-11T09:50:21.000Z</time>
      </trkpt>
      <trkpt lat="45.18596" lon="6.36954">
        <ele>2670.3999023438</ele>
        <time>2014-01-11T09:50:22.000Z</time>
      </trkpt>
      <trkpt lat="45.18596" lon="6.36954">
        <ele>2670.3999023438</ele>
        <time>2014-01-11T09:50:23.000Z</time>
      </trkpt>
      <trkpt lat="45.18596" lon="6.36954">
        <ele>2670.3999023438</ele>
        <time>2014-01-11T09:50:25.000Z</time>
      </trkpt>
      <trkpt lat="45.18596" lon="6.36954">
        <ele>2670.3999023438</ele>
        <time>2014-01-11T09:50:26.000Z</time>
      </trkpt>
      <trkpt lat="45.18596" lon="6.36954">
        <ele>2670.3999023438</ele>
        <time>2014-01-11T09:50:27.000Z</time>
      </trkpt>
      <trkpt lat="45.18596" lon="6.36954">
        <ele>2670.3999023438</ele>
        <time>2014-01-11T09:50:28.000Z</time>
      </trkpt>
      <trkpt lat="45.18596" lon="6.36954">
        <ele>2670.3999023438</ele>
        <time>2014-01-11T09:50:29.000Z</time>
      </trkpt>
      <trkpt lat="45.18596" lon="6.36954">
        <ele>2670.3999023438</ele>
        <time>2014-01-11T09:50:30.000Z</time>
      </trkpt>
      <trkpt lat="45.18596" lon="6.36954">
        <ele>2670.3999023438</ele>
        <time>2014-01-11T09:50:31.000Z</time>
      </trkpt>
      <trkpt lat="45.18596" lon="6.36954">
        <ele>2670.3999023438</ele>
        <time>2014-01-11T09:50:33.000Z</time>
      </trkpt>
      <trkpt lat="45.18596" lon="6.36954">
        <ele>2670.3999023438</ele>
        <time>2014-01-11T09:50:34.000Z</time>
      </trkpt>
      <trkpt lat="45.18596" lon="6.36954">
        <ele>2670.3999023438</ele>
        <time>2014-01-11T09:50:35.000Z</time>
      </trkpt>
      <trkpt lat="45.18596" lon="6.36954">
        <ele>2670.3999023438</ele>
        <time>2014-01-11T09:50:36.000Z</time>
      </trkpt>
      <trkpt lat="45.18596" lon="6.36954">
        <ele>2670.3999023438</ele>
        <time>2014-01-11T09:50:37.000Z</time>
      </trkpt>
      <trkpt lat="45.18596" lon="6.36954">
        <ele>2670.3999023438</ele>
        <time>2014-01-11T09:50:38.000Z</time>
      </trkpt>
      <trkpt lat="45.18596" lon="6.36954">
        <ele>2670.3999023438</ele>
        <time>2014-01-11T09:50:39.000Z</time>
      </trkpt>
      <trkpt lat="45.18596" lon="6.36954">
        <ele>2670.3999023438</ele>
        <time>2014-01-11T09:50:40.000Z</time>
      </trkpt>
      <trkpt lat="45.18596" lon="6.36954">
        <ele>2670.3999023438</ele>
        <time>2014-01-11T09:50:41.000Z</time>
      </trkpt>
      <trkpt lat="45.18596" lon="6.36954">
        <ele>2670.6000976562</ele>
        <time>2014-01-11T09:50:42.000Z</time>
      </trkpt>
      <trkpt lat="45.18596" lon="6.36954">
        <ele>2670.6000976562</ele>
        <time>2014-01-11T09:50:43.000Z</time>
      </trkpt>
      <trkpt lat="45.18596" lon="6.36954">
        <ele>2670.6000976562</ele>
        <time>2014-01-11T09:50:44.000Z</time>
      </trkpt>
      <trkpt lat="45.18596" lon="6.36954">
        <ele>2670.6000976562</ele>
        <time>2014-01-11T09:50:47.000Z</time>
      </trkpt>
      <trkpt lat="45.18596" lon="6.36954">
        <ele>2670.6000976562</ele>
        <time>2014-01-11T09:50:49.000Z</time>
      </trkpt>
      <trkpt lat="45.18596" lon="6.36954">
        <ele>2670.6000976562</ele>
        <time>2014-01-11T09:50:53.000Z</time>
      </trkpt>
      <trkpt lat="45.18596" lon="6.36954">
        <ele>2670.6000976562</ele>
        <time>2014-01-11T09:50:54.000Z</time>
      </trkpt>
      <trkpt lat="45.18596" lon="6.36954">
        <ele>2670.6000976562</ele>
        <time>2014-01-11T09:50:56.000Z</time>
      </trkpt>
      <trkpt lat="45.18596" lon="6.36954">
        <ele>2670.6000976562</ele>
        <time>2014-01-11T09:50:57.000Z</time>
      </trkpt>
      <trkpt lat="45.18596" lon="6.36954">
        <ele>2670.6000976562</ele>
        <time>2014-01-11T09:50:58.000Z</time>
      </trkpt>
      <trkpt lat="45.18596" lon="6.36954">
        <ele>2670.6000976562</ele>
        <time>2014-01-11T09:50:59.000Z</time>
      </trkpt>
      <trkpt lat="45.18596" lon="6.36954">
        <ele>2670.6000976562</ele>
        <time>2014-01-11T09:51:00.000Z</time>
      </trkpt>
      <trkpt lat="45.18596" lon="6.36954">
        <ele>2670.6000976562</ele>
        <time>2014-01-11T09:51:01.000Z</time>
      </trkpt>
      <trkpt lat="45.18596" lon="6.36954">
        <ele>2670.6000976562</ele>
        <time>2014-01-11T09:51:02.000Z</time>
      </trkpt>
      <trkpt lat="45.18596" lon="6.36954">
        <ele>2670.6000976562</ele>
        <time>2014-01-11T09:51:03.000Z</time>
      </trkpt>
      <trkpt lat="45.18596" lon="6.36954">
        <ele>2670.6000976562</ele>
        <time>2014-01-11T09:51:04.000Z</time>
      </trkpt>
      <trkpt lat="45.18596" lon="6.36954">
        <ele>2670.6000976562</ele>
        <time>2014-01-11T09:51:05.000Z</time>
      </trkpt>
      <trkpt lat="45.18596" lon="6.36954">
        <ele>2670.8000488281</ele>
        <time>2014-01-11T09:51:06.000Z</time>
      </trkpt>
      <trkpt lat="45.18596" lon="6.36954">
        <ele>2670.8000488281</ele>
        <time>2014-01-11T09:51:07.000Z</time>
      </trkpt>
      <trkpt lat="45.18596" lon="6.36954">
        <ele>2670.8000488281</ele>
        <time>2014-01-11T09:51:08.000Z</time>
      </trkpt>
      <trkpt lat="45.18596" lon="6.36954">
        <ele>2670.8000488281</ele>
        <time>2014-01-11T09:51:09.000Z</time>
      </trkpt>
      <trkpt lat="45.18596" lon="6.36954">
        <ele>2670.8000488281</ele>
        <time>2014-01-11T09:51:11.000Z</time>
      </trkpt>
      <trkpt lat="45.18596" lon="6.36954">
        <ele>2670.8000488281</ele>
        <time>2014-01-11T09:51:12.000Z</time>
      </trkpt>
      <trkpt lat="45.18596" lon="6.36954">
        <ele>2670.8000488281</ele>
        <time>2014-01-11T09:51:13.000Z</time>
      </trkpt>
      <trkpt lat="45.18596" lon="6.36954">
        <ele>2670.8000488281</ele>
        <time>2014-01-11T09:51:15.000Z</time>
      </trkpt>
      <trkpt lat="45.18596" lon="6.36954">
        <ele>2670.8000488281</ele>
        <time>2014-01-11T09:51:16.000Z</time>
      </trkpt>
      <trkpt lat="45.18596" lon="6.36954">
        <ele>2670.8000488281</ele>
        <time>2014-01-11T09:51:19.000Z</time>
      </trkpt>
      <trkpt lat="45.18596" lon="6.36954">
        <ele>2670.8000488281</ele>
        <time>2014-01-11T09:51:23.000Z</time>
      </trkpt>
      <trkpt lat="45.18596" lon="6.36954">
        <ele>2670.8000488281</ele>
        <time>2014-01-11T09:51:24.000Z</time>
      </trkpt>
      <trkpt lat="45.18596" lon="6.36954">
        <ele>2670.8000488281</ele>
        <time>2014-01-11T09:51:25.000Z</time>
      </trkpt>
      <trkpt lat="45.18596" lon="6.36954">
        <ele>2670.8000488281</ele>
        <time>2014-01-11T09:51:26.000Z</time>
      </trkpt>
      <trkpt lat="45.18596" lon="6.36954">
        <ele>2670.6000976562</ele>
        <time>2014-01-11T09:51:27.000Z</time>
      </trkpt>
      <trkpt lat="45.18596" lon="6.36954">
        <ele>2670.6000976562</ele>
        <time>2014-01-11T09:51:28.000Z</time>
      </trkpt>
      <trkpt lat="45.18596" lon="6.36954">
        <ele>2670.6000976562</ele>
        <time>2014-01-11T09:51:29.000Z</time>
      </trkpt>
      <trkpt lat="45.18596" lon="6.36954">
        <ele>2670.6000976562</ele>
        <time>2014-01-11T09:51:30.000Z</time>
      </trkpt>
      <trkpt lat="45.18596" lon="6.36954">
        <ele>2670.6000976562</ele>
        <time>2014-01-11T09:51:31.000Z</time>
      </trkpt>
      <trkpt lat="45.18596" lon="6.36954">
        <ele>2670.6000976562</ele>
        <time>2014-01-11T09:51:32.000Z</time>
      </trkpt>
      <trkpt lat="45.18596" lon="6.36954">
        <ele>2670.6000976562</ele>
        <time>2014-01-11T09:51:33.000Z</time>
      </trkpt>
      <trkpt lat="45.18596" lon="6.36954">
        <ele>2670.6000976562</ele>
        <time>2014-01-11T09:51:34.000Z</time>
      </trkpt>
      <trkpt lat="45.18596" lon="6.36954">
        <ele>2670.6000976562</ele>
        <time>2014-01-11T09:51:35.000Z</time>
      </trkpt>
      <trkpt lat="45.18596" lon="6.36954">
        <ele>2670.6000976562</ele>
        <time>2014-01-11T09:51:36.000Z</time>
      </trkpt>
      <trkpt lat="45.18596" lon="6.36954">
        <ele>2670.6000976562</ele>
        <time>2014-01-11T09:51:37.000Z</time>
      </trkpt>
      <trkpt lat="45.18596" lon="6.36954">
        <ele>2670.6000976562</ele>
        <time>2014-01-11T09:51:38.000Z</time>
      </trkpt>
      <trkpt lat="45.18596" lon="6.36954">
        <ele>2670.6000976562</ele>
        <time>2014-01-11T09:51:39.000Z</time>
      </trkpt>
      <trkpt lat="45.18596" lon="6.36954">
        <ele>2670.6000976562</ele>
        <time>2014-01-11T09:51:40.000Z</time>
      </trkpt>
      <trkpt lat="45.18596" lon="6.36954">
        <ele>2670.6000976562</ele>
        <time>2014-01-11T09:51:41.000Z</time>
      </trkpt>
      <trkpt lat="45.18596" lon="6.36954">
        <ele>2670.6000976562</ele>
        <time>2014-01-11T09:51:42.000Z</time>
      </trkpt>
      <trkpt lat="45.18596" lon="6.36954">
        <ele>2670.6000976562</ele>
        <time>2014-01-11T09:51:43.000Z</time>
      </trkpt>
      <trkpt lat="45.18596" lon="6.36954">
        <ele>2670.6000976562</ele>
        <time>2014-01-11T09:51:44.000Z</time>
      </trkpt>
      <trkpt lat="45.18596" lon="6.36954">
        <ele>2670.6000976562</ele>
        <time>2014-01-11T09:51:45.000Z</time>
      </trkpt>
      <trkpt lat="45.18596" lon="6.36954">
        <ele>2670.6000976562</ele>
        <time>2014-01-11T09:51:46.000Z</time>
      </trkpt>
      <trkpt lat="45.18596" lon="6.36954">
        <ele>2670.6000976562</ele>
        <time>2014-01-11T09:51:47.000Z</time>
      </trkpt>
      <trkpt lat="45.18596" lon="6.36954">
        <ele>2670.6000976562</ele>
        <time>2014-01-11T09:51:48.000Z</time>
      </trkpt>
      <trkpt lat="45.18596" lon="6.36954">
        <ele>2670.6000976562</ele>
        <time>2014-01-11T09:51:49.000Z</time>
      </trkpt>
      <trkpt lat="45.18596" lon="6.36954">
        <ele>2670.6000976562</ele>
        <time>2014-01-11T09:51:51.000Z</time>
      </trkpt>
      <trkpt lat="45.18596" lon="6.36954">
        <ele>2670.6000976562</ele>
        <time>2014-01-11T09:51:52.000Z</time>
      </trkpt>
      <trkpt lat="45.18596" lon="6.36954">
        <ele>2670.6000976562</ele>
        <time>2014-01-11T09:51:53.000Z</time>
      </trkpt>
      <trkpt lat="45.18596" lon="6.36954">
        <ele>2670.6000976562</ele>
        <time>2014-01-11T09:51:54.000Z</time>
      </trkpt>
      <trkpt lat="45.18596" lon="6.36954">
        <ele>2670.6000976562</ele>
        <time>2014-01-11T09:51:55.000Z</time>
      </trkpt>
      <trkpt lat="45.18596" lon="6.36954">
        <ele>2670.6000976562</ele>
        <time>2014-01-11T09:51:56.000Z</time>
      </trkpt>
      <trkpt lat="45.18596" lon="6.36954">
        <ele>2670.6000976562</ele>
        <time>2014-01-11T09:51:57.000Z</time>
      </trkpt>
      <trkpt lat="45.18596" lon="6.36954">
        <ele>2670.6000976562</ele>
        <time>2014-01-11T09:51:58.000Z</time>
      </trkpt>
      <trkpt lat="45.18596" lon="6.36954">
        <ele>2670.6000976562</ele>
        <time>2014-01-11T09:51:59.000Z</time>
      </trkpt>
      <trkpt lat="45.18596" lon="6.36954">
        <ele>2670.6000976562</ele>
        <time>2014-01-11T09:52:01.000Z</time>
      </trkpt>
      <trkpt lat="45.18596" lon="6.36954">
        <ele>2670.6000976562</ele>
        <time>2014-01-11T09:52:02.000Z</time>
      </trkpt>
      <trkpt lat="45.18596" lon="6.36954">
        <ele>2670.6000976562</ele>
        <time>2014-01-11T09:52:03.000Z</time>
      </trkpt>
      <trkpt lat="45.18596" lon="6.36954">
        <ele>2670.6000976562</ele>
        <time>2014-01-11T09:52:04.000Z</time>
      </trkpt>
      <trkpt lat="45.18596" lon="6.36954">
        <ele>2670.6000976562</ele>
        <time>2014-01-11T09:52:05.000Z</time>
      </trkpt>
      <trkpt lat="45.18596" lon="6.36954">
        <ele>2670.6000976562</ele>
        <time>2014-01-11T09:52:06.000Z</time>
      </trkpt>
      <trkpt lat="45.18596" lon="6.36954">
        <ele>2670.6000976562</ele>
        <time>2014-01-11T09:52:07.000Z</time>
      </trkpt>
      <trkpt lat="45.18596" lon="6.36954">
        <ele>2670.6000976562</ele>
        <time>2014-01-11T09:52:08.000Z</time>
      </trkpt>
      <trkpt lat="45.18596" lon="6.36954">
        <ele>2670.6000976562</ele>
        <time>2014-01-11T09:52:10.000Z</time>
      </trkpt>
      <trkpt lat="45.18596" lon="6.36954">
        <ele>2670.6000976562</ele>
        <time>2014-01-11T09:52:11.000Z</time>
      </trkpt>
      <trkpt lat="45.18596" lon="6.36954">
        <ele>2670.6000976562</ele>
        <time>2014-01-11T09:52:12.000Z</time>
      </trkpt>
      <trkpt lat="45.18596" lon="6.36954">
        <ele>2670.6000976562</ele>
        <time>2014-01-11T09:52:13.000Z</time>
      </trkpt>
      <trkpt lat="45.18596" lon="6.36954">
        <ele>2670.6000976562</ele>
        <time>2014-01-11T09:52:14.000Z</time>
      </trkpt>
      <trkpt lat="45.18596" lon="6.36954">
        <ele>2670.6000976562</ele>
        <time>2014-01-11T09:52:15.000Z</time>
      </trkpt>
      <trkpt lat="45.18596" lon="6.36954">
        <ele>2670.6000976562</ele>
        <time>2014-01-11T09:52:16.000Z</time>
      </trkpt>
      <trkpt lat="45.18596" lon="6.36954">
        <ele>2670.6000976562</ele>
        <time>2014-01-11T09:52:17.000Z</time>
      </trkpt>
      <trkpt lat="45.18596" lon="6.36954">
        <ele>2670.6000976562</ele>
        <time>2014-01-11T09:52:18.000Z</time>
      </trkpt>
      <trkpt lat="45.18596" lon="6.36954">
        <ele>2670.6000976562</ele>
        <time>2014-01-11T09:52:20.000Z</time>
      </trkpt>
      <trkpt lat="45.18596" lon="6.36954">
        <ele>2670.6000976562</ele>
        <time>2014-01-11T09:52:21.000Z</time>
      </trkpt>
      <trkpt lat="45.18596" lon="6.36954">
        <ele>2670.3999023438</ele>
        <time>2014-01-11T09:52:22.000Z</time>
      </trkpt>
      <trkpt lat="45.18596" lon="6.36954">
        <ele>2670.3999023438</ele>
        <time>2014-01-11T09:52:23.000Z</time>
      </trkpt>
      <trkpt lat="45.18596" lon="6.36954">
        <ele>2670.3999023438</ele>
        <time>2014-01-11T09:52:24.000Z</time>
      </trkpt>
      <trkpt lat="45.18596" lon="6.36954">
        <ele>2670.3999023438</ele>
        <time>2014-01-11T09:52:25.000Z</time>
      </trkpt>
      <trkpt lat="45.18596" lon="6.36954">
        <ele>2670.3999023438</ele>
        <time>2014-01-11T09:52:26.000Z</time>
      </trkpt>
      <trkpt lat="45.18596" lon="6.36954">
        <ele>2670.3999023438</ele>
        <time>2014-01-11T09:52:27.000Z</time>
      </trkpt>
      <trkpt lat="45.18596" lon="6.36954">
        <ele>2670.3999023438</ele>
        <time>2014-01-11T09:52:28.000Z</time>
      </trkpt>
      <trkpt lat="45.18596" lon="6.36954">
        <ele>2670.3999023438</ele>
        <time>2014-01-11T09:52:29.000Z</time>
      </trkpt>
      <trkpt lat="45.18596" lon="6.36954">
        <ele>2670.6000976562</ele>
        <time>2014-01-11T09:52:30.000Z</time>
      </trkpt>
      <trkpt lat="45.18596" lon="6.36954">
        <ele>2670.6000976562</ele>
        <time>2014-01-11T09:52:31.000Z</time>
      </trkpt>
      <trkpt lat="45.18596" lon="6.36954">
        <ele>2670.6000976562</ele>
        <time>2014-01-11T09:52:32.000Z</time>
      </trkpt>
      <trkpt lat="45.18596" lon="6.36954">
        <ele>2670.6000976562</ele>
        <time>2014-01-11T09:52:33.000Z</time>
      </trkpt>
      <trkpt lat="45.18596" lon="6.36954">
        <ele>2670.6000976562</ele>
        <time>2014-01-11T09:52:35.000Z</time>
      </trkpt>
      <trkpt lat="45.18596" lon="6.36954">
        <ele>2670.6000976562</ele>
        <time>2014-01-11T09:52:36.000Z</time>
      </trkpt>
      <trkpt lat="45.18596" lon="6.36954">
        <ele>2670.6000976562</ele>
        <time>2014-01-11T09:52:37.000Z</time>
      </trkpt>
      <trkpt lat="45.18596" lon="6.36954">
        <ele>2670.6000976562</ele>
        <time>2014-01-11T09:52:38.000Z</time>
      </trkpt>
      <trkpt lat="45.18596" lon="6.36954">
        <ele>2670.6000976562</ele>
        <time>2014-01-11T09:52:39.000Z</time>
      </trkpt>
      <trkpt lat="45.18596" lon="6.36954">
        <ele>2670.6000976562</ele>
        <time>2014-01-11T09:52:40.000Z</time>
      </trkpt>
      <trkpt lat="45.18596" lon="6.36954">
        <ele>2670.6000976562</ele>
        <time>2014-01-11T09:52:42.000Z</time>
      </trkpt>
      <trkpt lat="45.18596" lon="6.36954">
        <ele>2670.6000976562</ele>
        <time>2014-01-11T09:52:43.000Z</time>
      </trkpt>
      <trkpt lat="45.18596" lon="6.36954">
        <ele>2670.6000976562</ele>
        <time>2014-01-11T09:52:44.000Z</time>
      </trkpt>
      <trkpt lat="45.18596" lon="6.36954">
        <ele>2670.6000976562</ele>
        <time>2014-01-11T09:52:45.000Z</time>
      </trkpt>
      <trkpt lat="45.18596" lon="6.36954">
        <ele>2670.6000976562</ele>
        <time>2014-01-11T09:52:46.000Z</time>
      </trkpt>
      <trkpt lat="45.18596" lon="6.36954">
        <ele>2670.6000976562</ele>
        <time>2014-01-11T09:52:47.000Z</time>
      </trkpt>
      <trkpt lat="45.18596" lon="6.36954">
        <ele>2670.6000976562</ele>
        <time>2014-01-11T09:52:48.000Z</time>
      </trkpt>
      <trkpt lat="45.18596" lon="6.36954">
        <ele>2670.6000976562</ele>
        <time>2014-01-11T09:52:49.000Z</time>
      </trkpt>
      <trkpt lat="45.18596" lon="6.36954">
        <ele>2670.6000976562</ele>
        <time>2014-01-11T09:52:50.000Z</time>
      </trkpt>
      <trkpt lat="45.18596" lon="6.36954">
        <ele>2670.6000976562</ele>
        <time>2014-01-11T09:52:51.000Z</time>
      </trkpt>
      <trkpt lat="45.18596" lon="6.36954">
        <ele>2670.6000976562</ele>
        <time>2014-01-11T09:52:52.000Z</time>
      </trkpt>
      <trkpt lat="45.18596" lon="6.36954">
        <ele>2670.6000976562</ele>
        <time>2014-01-11T09:52:53.000Z</time>
      </trkpt>
      <trkpt lat="45.18596" lon="6.36954">
        <ele>2670.6000976562</ele>
        <time>2014-01-11T09:52:54.000Z</time>
      </trkpt>
      <trkpt lat="45.18596" lon="6.36954">
        <ele>2670.6000976562</ele>
        <time>2014-01-11T09:52:55.000Z</time>
      </trkpt>
      <trkpt lat="45.18596" lon="6.36954">
        <ele>2670.6000976562</ele>
        <time>2014-01-11T09:52:58.000Z</time>
      </trkpt>
      <trkpt lat="45.18596" lon="6.36954">
        <ele>2670.6000976562</ele>
        <time>2014-01-11T09:52:59.000Z</time>
      </trkpt>
      <trkpt lat="45.18596" lon="6.36954">
        <ele>2670.6000976562</ele>
        <time>2014-01-11T09:53:00.000Z</time>
      </trkpt>
      <trkpt lat="45.18596" lon="6.36954">
        <ele>2670.6000976562</ele>
        <time>2014-01-11T09:53:01.000Z</time>
      </trkpt>
      <trkpt lat="45.18596" lon="6.36954">
        <ele>2670.6000976562</ele>
        <time>2014-01-11T09:53:02.000Z</time>
      </trkpt>
      <trkpt lat="45.18596" lon="6.36954">
        <ele>2670.6000976562</ele>
        <time>2014-01-11T09:53:03.000Z</time>
      </trkpt>
      <trkpt lat="45.18596" lon="6.36954">
        <ele>2670.6000976562</ele>
        <time>2014-01-11T09:53:04.000Z</time>
      </trkpt>
      <trkpt lat="45.18596" lon="6.36954">
        <ele>2670.6000976562</ele>
        <time>2014-01-11T09:53:05.000Z</time>
      </trkpt>
      <trkpt lat="45.18596" lon="6.36954">
        <ele>2670.6000976562</ele>
        <time>2014-01-11T09:53:06.000Z</time>
      </trkpt>
      <trkpt lat="45.18596" lon="6.36954">
        <ele>2670.6000976562</ele>
        <time>2014-01-11T09:53:07.000Z</time>
      </trkpt>
      <trkpt lat="45.18596" lon="6.36954">
        <ele>2670.6000976562</ele>
        <time>2014-01-11T09:53:12.000Z</time>
      </trkpt>
      <trkpt lat="45.18596" lon="6.36954">
        <ele>2670.6000976562</ele>
        <time>2014-01-11T09:53:14.000Z</time>
      </trkpt>
      <trkpt lat="45.18596" lon="6.36954">
        <ele>2670.6000976562</ele>
        <time>2014-01-11T09:53:17.000Z</time>
      </trkpt>
      <trkpt lat="45.18596" lon="6.36954">
        <ele>2670.6000976562</ele>
        <time>2014-01-11T09:53:18.000Z</time>
      </trkpt>
      <trkpt lat="45.18596" lon="6.36954">
        <ele>2670.6000976562</ele>
        <time>2014-01-11T09:53:19.000Z</time>
      </trkpt>
      <trkpt lat="45.18596" lon="6.36954">
        <ele>2670.6000976562</ele>
        <time>2014-01-11T09:53:20.000Z</time>
      </trkpt>
      <trkpt lat="45.18596" lon="6.36954">
        <ele>2670.6000976562</ele>
        <time>2014-01-11T09:53:21.000Z</time>
      </trkpt>
      <trkpt lat="45.18596" lon="6.36954">
        <ele>2670.6000976562</ele>
        <time>2014-01-11T09:53:22.000Z</time>
      </trkpt>
      <trkpt lat="45.18596" lon="6.36955">
        <ele>2670.6000976562</ele>
        <time>2014-01-11T09:53:23.000Z</time>
      </trkpt>
      <trkpt lat="45.18596" lon="6.36955">
        <ele>2670.6000976562</ele>
        <time>2014-01-11T09:53:25.000Z</time>
      </trkpt>
      <trkpt lat="45.18596" lon="6.36955">
        <ele>2670.6000976562</ele>
        <time>2014-01-11T09:53:26.000Z</time>
      </trkpt>
      <trkpt lat="45.18596" lon="6.36955">
        <ele>2670.6000976562</ele>
        <time>2014-01-11T09:53:27.000Z</time>
      </trkpt>
      <trkpt lat="45.18596" lon="6.36955">
        <ele>2670.6000976562</ele>
        <time>2014-01-11T09:53:28.000Z</time>
      </trkpt>
      <trkpt lat="45.18596" lon="6.36955">
        <ele>2670.6000976562</ele>
        <time>2014-01-11T09:53:30.000Z</time>
      </trkpt>
      <trkpt lat="45.18596" lon="6.36955">
        <ele>2670.6000976562</ele>
        <time>2014-01-11T09:53:32.000Z</time>
      </trkpt>
      <trkpt lat="45.18596" lon="6.36955">
        <ele>2670.6000976562</ele>
        <time>2014-01-11T09:53:34.000Z</time>
      </trkpt>
      <trkpt lat="45.18596" lon="6.36955">
        <ele>2670.6000976562</ele>
        <time>2014-01-11T09:53:35.000Z</time>
      </trkpt>
      <trkpt lat="45.18596" lon="6.36955">
        <ele>2670.6000976562</ele>
        <time>2014-01-11T09:53:36.000Z</time>
      </trkpt>
      <trkpt lat="45.18596" lon="6.36955">
        <ele>2670.3999023438</ele>
        <time>2014-01-11T09:53:37.000Z</time>
      </trkpt>
      <trkpt lat="45.18596" lon="6.36955">
        <ele>2670.3999023438</ele>
        <time>2014-01-11T09:53:38.000Z</time>
      </trkpt>
      <trkpt lat="45.18596" lon="6.36955">
        <ele>2670.3999023438</ele>
        <time>2014-01-11T09:53:39.000Z</time>
      </trkpt>
      <trkpt lat="45.18596" lon="6.36955">
        <ele>2670.3999023438</ele>
        <time>2014-01-11T09:53:40.000Z</time>
      </trkpt>
      <trkpt lat="45.18596" lon="6.36955">
        <ele>2670.3999023438</ele>
        <time>2014-01-11T09:53:41.000Z</time>
      </trkpt>
      <trkpt lat="45.18596" lon="6.36956">
        <ele>2670.3999023438</ele>
        <time>2014-01-11T09:53:42.000Z</time>
      </trkpt>
      <trkpt lat="45.18596" lon="6.36956">
        <ele>2670.3999023438</ele>
        <time>2014-01-11T09:53:43.000Z</time>
      </trkpt>
      <trkpt lat="45.18596" lon="6.36956">
        <ele>2670.1999511719</ele>
        <time>2014-01-11T09:53:44.000Z</time>
      </trkpt>
      <trkpt lat="45.18596" lon="6.36956">
        <ele>2670.1999511719</ele>
        <time>2014-01-11T09:53:45.000Z</time>
      </trkpt>
      <trkpt lat="45.18596" lon="6.36956">
        <ele>2670.3999023438</ele>
        <time>2014-01-11T09:53:46.000Z</time>
      </trkpt>
      <trkpt lat="45.18596" lon="6.36956">
        <ele>2670.6000976562</ele>
        <time>2014-01-11T09:53:47.000Z</time>
      </trkpt>
      <trkpt lat="45.18596" lon="6.36956">
        <ele>2670.8000488281</ele>
        <time>2014-01-11T09:53:48.000Z</time>
      </trkpt>
      <trkpt lat="45.18596" lon="6.36956">
        <ele>2671</ele>
        <time>2014-01-11T09:53:49.000Z</time>
      </trkpt>
      <trkpt lat="45.18596" lon="6.36956">
        <ele>2671</ele>
        <time>2014-01-11T09:53:50.000Z</time>
      </trkpt>
      <trkpt lat="45.18596" lon="6.36956">
        <ele>2671</ele>
        <time>2014-01-11T09:53:51.000Z</time>
      </trkpt>
      <trkpt lat="45.18596" lon="6.36956">
        <ele>2671</ele>
        <time>2014-01-11T09:53:52.000Z</time>
      </trkpt>
      <trkpt lat="45.18596" lon="6.36956">
        <ele>2671</ele>
        <time>2014-01-11T09:53:53.000Z</time>
      </trkpt>
      <trkpt lat="45.18596" lon="6.36956">
        <ele>2671</ele>
        <time>2014-01-11T09:53:54.000Z</time>
      </trkpt>
      <trkpt lat="45.18596" lon="6.36956">
        <ele>2671</ele>
        <time>2014-01-11T09:53:55.000Z</time>
      </trkpt>
      <trkpt lat="45.18596" lon="6.36956">
        <ele>2670.8000488281</ele>
        <time>2014-01-11T09:53:56.000Z</time>
      </trkpt>
      <trkpt lat="45.18596" lon="6.36956">
        <ele>2670.8000488281</ele>
        <time>2014-01-11T09:53:57.000Z</time>
      </trkpt>
      <trkpt lat="45.18596" lon="6.36956">
        <ele>2670.8000488281</ele>
        <time>2014-01-11T09:53:58.000Z</time>
      </trkpt>
      <trkpt lat="45.18596" lon="6.36956">
        <ele>2670.8000488281</ele>
        <time>2014-01-11T09:53:59.000Z</time>
      </trkpt>
      <trkpt lat="45.18596" lon="6.36956">
        <ele>2670.8000488281</ele>
        <time>2014-01-11T09:54:00.000Z</time>
      </trkpt>
      <trkpt lat="45.18596" lon="6.36956">
        <ele>2670.8000488281</ele>
        <time>2014-01-11T09:54:01.000Z</time>
      </trkpt>
      <trkpt lat="45.18596" lon="6.36956">
        <ele>2670.8000488281</ele>
        <time>2014-01-11T09:54:03.000Z</time>
      </trkpt>
      <trkpt lat="45.18596" lon="6.36956">
        <ele>2670.8000488281</ele>
        <time>2014-01-11T09:54:04.000Z</time>
      </trkpt>
      <trkpt lat="45.18596" lon="6.36956">
        <ele>2670.8000488281</ele>
        <time>2014-01-11T09:54:05.000Z</time>
      </trkpt>
      <trkpt lat="45.18596" lon="6.36956">
        <ele>2670.8000488281</ele>
        <time>2014-01-11T09:54:06.000Z</time>
      </trkpt>
      <trkpt lat="45.18596" lon="6.36956">
        <ele>2670.8000488281</ele>
        <time>2014-01-11T09:54:07.000Z</time>
      </trkpt>
      <trkpt lat="45.18596" lon="6.36956">
        <ele>2670.8000488281</ele>
        <time>2014-01-11T09:54:08.000Z</time>
      </trkpt>
      <trkpt lat="45.18596" lon="6.36956">
        <ele>2670.8000488281</ele>
        <time>2014-01-11T09:54:09.000Z</time>
      </trkpt>
      <trkpt lat="45.18596" lon="6.36956">
        <ele>2670.8000488281</ele>
        <time>2014-01-11T09:54:10.000Z</time>
      </trkpt>
      <trkpt lat="45.18596" lon="6.36956">
        <ele>2670.8000488281</ele>
        <time>2014-01-11T09:54:11.000Z</time>
      </trkpt>
      <trkpt lat="45.18596" lon="6.36956">
        <ele>2671</ele>
        <time>2014-01-11T09:54:12.000Z</time>
      </trkpt>
      <trkpt lat="45.18596" lon="6.36956">
        <ele>2671</ele>
        <time>2014-01-11T09:54:13.000Z</time>
      </trkpt>
      <trkpt lat="45.18596" lon="6.36956">
        <ele>2671.1999511719</ele>
        <time>2014-01-11T09:54:14.000Z</time>
      </trkpt>
      <trkpt lat="45.18596" lon="6.36956">
        <ele>2671.1999511719</ele>
        <time>2014-01-11T09:54:15.000Z</time>
      </trkpt>
      <trkpt lat="45.18596" lon="6.36956">
        <ele>2671.1999511719</ele>
        <time>2014-01-11T09:54:16.000Z</time>
      </trkpt>
      <trkpt lat="45.18596" lon="6.36956">
        <ele>2671.1999511719</ele>
        <time>2014-01-11T09:54:17.000Z</time>
      </trkpt>
      <trkpt lat="45.18596" lon="6.36956">
        <ele>2671.1999511719</ele>
        <time>2014-01-11T09:54:18.000Z</time>
      </trkpt>
      <trkpt lat="45.18596" lon="6.36956">
        <ele>2671.1999511719</ele>
        <time>2014-01-11T09:54:19.000Z</time>
      </trkpt>
      <trkpt lat="45.18596" lon="6.36956">
        <ele>2671</ele>
        <time>2014-01-11T09:54:20.000Z</time>
      </trkpt>
      <trkpt lat="45.18596" lon="6.36956">
        <ele>2671.1999511719</ele>
        <time>2014-01-11T09:54:21.000Z</time>
      </trkpt>
      <trkpt lat="45.18596" lon="6.36956">
        <ele>2671.1999511719</ele>
        <time>2014-01-11T09:54:22.000Z</time>
      </trkpt>
      <trkpt lat="45.18596" lon="6.36956">
        <ele>2671.1999511719</ele>
        <time>2014-01-11T09:54:23.000Z</time>
      </trkpt>
      <trkpt lat="45.18596" lon="6.36956">
        <ele>2671.1999511719</ele>
        <time>2014-01-11T09:54:24.000Z</time>
      </trkpt>
      <trkpt lat="45.18596" lon="6.36956">
        <ele>2671.1999511719</ele>
        <time>2014-01-11T09:54:25.000Z</time>
      </trkpt>
      <trkpt lat="45.18596" lon="6.36956">
        <ele>2671.1999511719</ele>
        <time>2014-01-11T09:54:26.000Z</time>
      </trkpt>
      <trkpt lat="45.18596" lon="6.36956">
        <ele>2671.1999511719</ele>
        <time>2014-01-11T09:54:27.000Z</time>
      </trkpt>
      <trkpt lat="45.18596" lon="6.36956">
        <ele>2671.3999023438</ele>
        <time>2014-01-11T09:54:28.000Z</time>
      </trkpt>
      <trkpt lat="45.18596" lon="6.36956">
        <ele>2671.3999023438</ele>
        <time>2014-01-11T09:54:29.000Z</time>
      </trkpt>
      <trkpt lat="45.18596" lon="6.36956">
        <ele>2671.3999023438</ele>
        <time>2014-01-11T09:54:30.000Z</time>
      </trkpt>
      <trkpt lat="45.18596" lon="6.36956">
        <ele>2671.3999023438</ele>
        <time>2014-01-11T09:54:32.000Z</time>
      </trkpt>
      <trkpt lat="45.18596" lon="6.36956">
        <ele>2671.1999511719</ele>
        <time>2014-01-11T09:54:33.000Z</time>
      </trkpt>
      <trkpt lat="45.18596" lon="6.36956">
        <ele>2671.1999511719</ele>
        <time>2014-01-11T09:54:34.000Z</time>
      </trkpt>
      <trkpt lat="45.18596" lon="6.36956">
        <ele>2671.1999511719</ele>
        <time>2014-01-11T09:54:35.000Z</time>
      </trkpt>
      <trkpt lat="45.18596" lon="6.36956">
        <ele>2671.1999511719</ele>
        <time>2014-01-11T09:54:36.000Z</time>
      </trkpt>
      <trkpt lat="45.18596" lon="6.36956">
        <ele>2671</ele>
        <time>2014-01-11T09:54:37.000Z</time>
      </trkpt>
      <trkpt lat="45.18596" lon="6.36956">
        <ele>2671</ele>
        <time>2014-01-11T09:54:38.000Z</time>
      </trkpt>
      <trkpt lat="45.18596" lon="6.36956">
        <ele>2671</ele>
        <time>2014-01-11T09:54:39.000Z</time>
      </trkpt>
      <trkpt lat="45.18596" lon="6.36956">
        <ele>2671</ele>
        <time>2014-01-11T09:54:40.000Z</time>
      </trkpt>
      <trkpt lat="45.18596" lon="6.36956">
        <ele>2671</ele>
        <time>2014-01-11T09:54:41.000Z</time>
      </trkpt>
      <trkpt lat="45.18596" lon="6.36956">
        <ele>2671</ele>
        <time>2014-01-11T09:54:42.000Z</time>
      </trkpt>
      <trkpt lat="45.18596" lon="6.36956">
        <ele>2671</ele>
        <time>2014-01-11T09:54:43.000Z</time>
      </trkpt>
      <trkpt lat="45.18596" lon="6.36956">
        <ele>2671</ele>
        <time>2014-01-11T09:54:44.000Z</time>
      </trkpt>
      <trkpt lat="45.18596" lon="6.36956">
        <ele>2671</ele>
        <time>2014-01-11T09:54:45.000Z</time>
      </trkpt>
      <trkpt lat="45.18596" lon="6.36956">
        <ele>2671</ele>
        <time>2014-01-11T09:54:46.000Z</time>
      </trkpt>
      <trkpt lat="45.18596" lon="6.36956">
        <ele>2671</ele>
        <time>2014-01-11T09:54:47.000Z</time>
      </trkpt>
      <trkpt lat="45.18596" lon="6.36956">
        <ele>2671</ele>
        <time>2014-01-11T09:54:48.000Z</time>
      </trkpt>
      <trkpt lat="45.18596" lon="6.36956">
        <ele>2670.8000488281</ele>
        <time>2014-01-11T09:54:49.000Z</time>
      </trkpt>
      <trkpt lat="45.18596" lon="6.36956">
        <ele>2671</ele>
        <time>2014-01-11T09:54:50.000Z</time>
      </trkpt>
      <trkpt lat="45.18596" lon="6.36956">
        <ele>2671</ele>
        <time>2014-01-11T09:54:51.000Z</time>
      </trkpt>
      <trkpt lat="45.18596" lon="6.36956">
        <ele>2671</ele>
        <time>2014-01-11T09:54:52.000Z</time>
      </trkpt>
      <trkpt lat="45.18596" lon="6.36956">
        <ele>2671</ele>
        <time>2014-01-11T09:54:53.000Z</time>
      </trkpt>
      <trkpt lat="45.18596" lon="6.36956">
        <ele>2671</ele>
        <time>2014-01-11T09:54:54.000Z</time>
      </trkpt>
      <trkpt lat="45.18596" lon="6.36956">
        <ele>2671</ele>
        <time>2014-01-11T09:54:55.000Z</time>
      </trkpt>
      <trkpt lat="45.18596" lon="6.36956">
        <ele>2671</ele>
        <time>2014-01-11T09:54:56.000Z</time>
      </trkpt>
      <trkpt lat="45.18596" lon="6.36956">
        <ele>2671.1999511719</ele>
        <time>2014-01-11T09:54:57.000Z</time>
      </trkpt>
      <trkpt lat="45.18596" lon="6.36956">
        <ele>2671.1999511719</ele>
        <time>2014-01-11T09:54:58.000Z</time>
      </trkpt>
      <trkpt lat="45.18596" lon="6.36956">
        <ele>2671.1999511719</ele>
        <time>2014-01-11T09:54:59.000Z</time>
      </trkpt>
      <trkpt lat="45.18596" lon="6.36956">
        <ele>2671.1999511719</ele>
        <time>2014-01-11T09:55:03.000Z</time>
      </trkpt>
      <trkpt lat="45.18596" lon="6.36956">
        <ele>2671.1999511719</ele>
        <time>2014-01-11T09:55:04.000Z</time>
      </trkpt>
      <trkpt lat="45.18596" lon="6.36956">
        <ele>2671.3999023438</ele>
        <time>2014-01-11T09:55:05.000Z</time>
      </trkpt>
      <trkpt lat="45.18596" lon="6.36956">
        <ele>2671.6000976562</ele>
        <time>2014-01-11T09:55:06.000Z</time>
      </trkpt>
      <trkpt lat="45.18596" lon="6.36956">
        <ele>2671.8000488281</ele>
        <time>2014-01-11T09:55:07.000Z</time>
      </trkpt>
      <trkpt lat="45.18596" lon="6.36956">
        <ele>2672</ele>
        <time>2014-01-11T09:55:08.000Z</time>
      </trkpt>
      <trkpt lat="45.18596" lon="6.36956">
        <ele>2672</ele>
        <time>2014-01-11T09:55:09.000Z</time>
      </trkpt>
      <trkpt lat="45.18596" lon="6.36956">
        <ele>2671.8000488281</ele>
        <time>2014-01-11T09:55:10.000Z</time>
      </trkpt>
      <trkpt lat="45.18596" lon="6.36956">
        <ele>2671.8000488281</ele>
        <time>2014-01-11T09:55:11.000Z</time>
      </trkpt>
      <trkpt lat="45.18596" lon="6.36956">
        <ele>2671.6000976562</ele>
        <time>2014-01-11T09:55:12.000Z</time>
      </trkpt>
      <trkpt lat="45.18596" lon="6.36956">
        <ele>2671.3999023438</ele>
        <time>2014-01-11T09:55:13.000Z</time>
      </trkpt>
      <trkpt lat="45.18596" lon="6.36956">
        <ele>2671.3999023438</ele>
        <time>2014-01-11T09:55:14.000Z</time>
      </trkpt>
      <trkpt lat="45.18596" lon="6.36956">
        <ele>2671.3999023438</ele>
        <time>2014-01-11T09:55:15.000Z</time>
      </trkpt>
      <trkpt lat="45.18596" lon="6.36956">
        <ele>2671.3999023438</ele>
        <time>2014-01-11T09:55:16.000Z</time>
      </trkpt>
      <trkpt lat="45.18596" lon="6.36956">
        <ele>2671.1999511719</ele>
        <time>2014-01-11T09:55:17.000Z</time>
      </trkpt>
      <trkpt lat="45.18596" lon="6.36956">
        <ele>2671.1999511719</ele>
        <time>2014-01-11T09:55:18.000Z</time>
      </trkpt>
      <trkpt lat="45.18596" lon="6.36956">
        <ele>2671.1999511719</ele>
        <time>2014-01-11T09:55:19.000Z</time>
      </trkpt>
      <trkpt lat="45.18596" lon="6.36956">
        <ele>2671.1999511719</ele>
        <time>2014-01-11T09:55:20.000Z</time>
      </trkpt>
      <trkpt lat="45.18596" lon="6.36956">
        <ele>2671.1999511719</ele>
        <time>2014-01-11T09:55:22.000Z</time>
      </trkpt>
      <trkpt lat="45.18596" lon="6.36956">
        <ele>2671.1999511719</ele>
        <time>2014-01-11T09:55:23.000Z</time>
      </trkpt>
      <trkpt lat="45.18596" lon="6.36956">
        <ele>2671.3999023438</ele>
        <time>2014-01-11T09:55:24.000Z</time>
      </trkpt>
      <trkpt lat="45.18596" lon="6.36956">
        <ele>2671.3999023438</ele>
        <time>2014-01-11T09:55:25.000Z</time>
      </trkpt>
      <trkpt lat="45.18596" lon="6.36956">
        <ele>2671.3999023438</ele>
        <time>2014-01-11T09:55:26.000Z</time>
      </trkpt>
      <trkpt lat="45.18596" lon="6.36956">
        <ele>2671.3999023438</ele>
        <time>2014-01-11T09:55:27.000Z</time>
      </trkpt>
      <trkpt lat="45.18596" lon="6.36956">
        <ele>2671.3999023438</ele>
        <time>2014-01-11T09:55:28.000Z</time>
      </trkpt>
      <trkpt lat="45.18596" lon="6.36956">
        <ele>2671.6000976562</ele>
        <time>2014-01-11T09:55:29.000Z</time>
      </trkpt>
      <trkpt lat="45.18596" lon="6.36956">
        <ele>2671.6000976562</ele>
        <time>2014-01-11T09:55:30.000Z</time>
      </trkpt>
      <trkpt lat="45.18596" lon="6.36956">
        <ele>2671.6000976562</ele>
        <time>2014-01-11T09:55:31.000Z</time>
      </trkpt>
      <trkpt lat="45.18596" lon="6.36956">
        <ele>2671.6000976562</ele>
        <time>2014-01-11T09:55:33.000Z</time>
      </trkpt>
      <trkpt lat="45.18596" lon="6.36956">
        <ele>2671.6000976562</ele>
        <time>2014-01-11T09:55:34.000Z</time>
      </trkpt>
      <trkpt lat="45.18596" lon="6.36956">
        <ele>2671.3999023438</ele>
        <time>2014-01-11T09:55:35.000Z</time>
      </trkpt>
      <trkpt lat="45.18596" lon="6.36956">
        <ele>2671.3999023438</ele>
        <time>2014-01-11T09:55:36.000Z</time>
      </trkpt>
      <trkpt lat="45.18596" lon="6.36956">
        <ele>2671.3999023438</ele>
        <time>2014-01-11T09:55:37.000Z</time>
      </trkpt>
      <trkpt lat="45.18596" lon="6.36956">
        <ele>2671.3999023438</ele>
        <time>2014-01-11T09:55:38.000Z</time>
      </trkpt>
      <trkpt lat="45.18596" lon="6.36956">
        <ele>2671.3999023438</ele>
        <time>2014-01-11T09:55:39.000Z</time>
      </trkpt>
      <trkpt lat="45.18596" lon="6.36956">
        <ele>2671.3999023438</ele>
        <time>2014-01-11T09:55:40.000Z</time>
      </trkpt>
      <trkpt lat="45.18596" lon="6.36956">
        <ele>2671.3999023438</ele>
        <time>2014-01-11T09:55:41.000Z</time>
      </trkpt>
      <trkpt lat="45.18596" lon="6.36956">
        <ele>2671.3999023438</ele>
        <time>2014-01-11T09:55:42.000Z</time>
      </trkpt>
      <trkpt lat="45.18596" lon="6.36956">
        <ele>2671.3999023438</ele>
        <time>2014-01-11T09:55:43.000Z</time>
      </trkpt>
      <trkpt lat="45.18595" lon="6.36956">
        <ele>2671.3999023438</ele>
        <time>2014-01-11T09:55:46.000Z</time>
      </trkpt>
      <trkpt lat="45.18595" lon="6.36956">
        <ele>2671.3999023438</ele>
        <time>2014-01-11T09:55:47.000Z</time>
      </trkpt>
      <trkpt lat="45.18595" lon="6.36956">
        <ele>2671.3999023438</ele>
        <time>2014-01-11T09:55:48.000Z</time>
      </trkpt>
      <trkpt lat="45.18595" lon="6.36956">
        <ele>2671.3999023438</ele>
        <time>2014-01-11T09:55:49.000Z</time>
      </trkpt>
      <trkpt lat="45.18595" lon="6.36956">
        <ele>2671.3999023438</ele>
        <time>2014-01-11T09:55:51.000Z</time>
      </trkpt>
      <trkpt lat="45.18595" lon="6.36956">
        <ele>2671.3999023438</ele>
        <time>2014-01-11T09:55:52.000Z</time>
      </trkpt>
      <trkpt lat="45.18595" lon="6.36956">
        <ele>2671.1999511719</ele>
        <time>2014-01-11T09:55:53.000Z</time>
      </trkpt>
      <trkpt lat="45.18595" lon="6.36956">
        <ele>2671.1999511719</ele>
        <time>2014-01-11T09:55:54.000Z</time>
      </trkpt>
      <trkpt lat="45.18595" lon="6.36956">
        <ele>2671.1999511719</ele>
        <time>2014-01-11T09:55:55.000Z</time>
      </trkpt>
      <trkpt lat="45.18595" lon="6.36956">
        <ele>2671.1999511719</ele>
        <time>2014-01-11T09:55:56.000Z</time>
      </trkpt>
      <trkpt lat="45.18595" lon="6.36956">
        <ele>2671.3999023438</ele>
        <time>2014-01-11T09:55:57.000Z</time>
      </trkpt>
      <trkpt lat="45.18595" lon="6.36956">
        <ele>2671.6000976562</ele>
        <time>2014-01-11T09:55:58.000Z</time>
      </trkpt>
      <trkpt lat="45.18595" lon="6.36956">
        <ele>2671.6000976562</ele>
        <time>2014-01-11T09:55:59.000Z</time>
      </trkpt>
      <trkpt lat="45.18595" lon="6.36956">
        <ele>2671.6000976562</ele>
        <time>2014-01-11T09:56:00.000Z</time>
      </trkpt>
      <trkpt lat="45.18595" lon="6.36956">
        <ele>2671.6000976562</ele>
        <time>2014-01-11T09:56:01.000Z</time>
      </trkpt>
      <trkpt lat="45.18595" lon="6.36956">
        <ele>2671.6000976562</ele>
        <time>2014-01-11T09:56:02.000Z</time>
      </trkpt>
      <trkpt lat="45.18595" lon="6.36956">
        <ele>2671.6000976562</ele>
        <time>2014-01-11T09:56:03.000Z</time>
      </trkpt>
      <trkpt lat="45.18595" lon="6.36956">
        <ele>2671.3999023438</ele>
        <time>2014-01-11T09:56:04.000Z</time>
      </trkpt>
      <trkpt lat="45.18595" lon="6.36956">
        <ele>2671.3999023438</ele>
        <time>2014-01-11T09:56:05.000Z</time>
      </trkpt>
      <trkpt lat="45.18595" lon="6.36956">
        <ele>2671.3999023438</ele>
        <time>2014-01-11T09:56:06.000Z</time>
      </trkpt>
      <trkpt lat="45.18595" lon="6.36956">
        <ele>2671.1999511719</ele>
        <time>2014-01-11T09:56:07.000Z</time>
      </trkpt>
      <trkpt lat="45.18595" lon="6.36956">
        <ele>2671.1999511719</ele>
        <time>2014-01-11T09:56:08.000Z</time>
      </trkpt>
      <trkpt lat="45.18595" lon="6.36956">
        <ele>2671.1999511719</ele>
        <time>2014-01-11T09:56:09.000Z</time>
      </trkpt>
      <trkpt lat="45.18595" lon="6.36956">
        <ele>2671</ele>
        <time>2014-01-11T09:56:10.000Z</time>
      </trkpt>
      <trkpt lat="45.18595" lon="6.36956">
        <ele>2671</ele>
        <time>2014-01-11T09:56:11.000Z</time>
      </trkpt>
      <trkpt lat="45.18595" lon="6.36956">
        <ele>2671</ele>
        <time>2014-01-11T09:56:12.000Z</time>
      </trkpt>
      <trkpt lat="45.18595" lon="6.36956">
        <ele>2671</ele>
        <time>2014-01-11T09:56:13.000Z</time>
      </trkpt>
      <trkpt lat="45.18595" lon="6.36956">
        <ele>2671</ele>
        <time>2014-01-11T09:56:14.000Z</time>
      </trkpt>
      <trkpt lat="45.18595" lon="6.36956">
        <ele>2671</ele>
        <time>2014-01-11T09:56:15.000Z</time>
      </trkpt>
      <trkpt lat="45.18595" lon="6.36956">
        <ele>2671</ele>
        <time>2014-01-11T09:56:16.000Z</time>
      </trkpt>
      <trkpt lat="45.18595" lon="6.36956">
        <ele>2671</ele>
        <time>2014-01-11T09:56:17.000Z</time>
      </trkpt>
      <trkpt lat="45.18595" lon="6.36956">
        <ele>2671</ele>
        <time>2014-01-11T09:56:18.000Z</time>
      </trkpt>
      <trkpt lat="45.18595" lon="6.36956">
        <ele>2671</ele>
        <time>2014-01-11T09:56:19.000Z</time>
      </trkpt>
      <trkpt lat="45.18595" lon="6.36956">
        <ele>2671</ele>
        <time>2014-01-11T09:56:21.000Z</time>
      </trkpt>
      <trkpt lat="45.18595" lon="6.36956">
        <ele>2671</ele>
        <time>2014-01-11T09:56:22.000Z</time>
      </trkpt>
      <trkpt lat="45.18595" lon="6.36956">
        <ele>2671</ele>
        <time>2014-01-11T09:56:23.000Z</time>
      </trkpt>
      <trkpt lat="45.18595" lon="6.36956">
        <ele>2670.8000488281</ele>
        <time>2014-01-11T09:56:24.000Z</time>
      </trkpt>
      <trkpt lat="45.18595" lon="6.36956">
        <ele>2670.8000488281</ele>
        <time>2014-01-11T09:56:25.000Z</time>
      </trkpt>
      <trkpt lat="45.18595" lon="6.36956">
        <ele>2670.8000488281</ele>
        <time>2014-01-11T09:56:26.000Z</time>
      </trkpt>
      <trkpt lat="45.18595" lon="6.36956">
        <ele>2670.8000488281</ele>
        <time>2014-01-11T09:56:27.000Z</time>
      </trkpt>
      <trkpt lat="45.18595" lon="6.36956">
        <ele>2670.8000488281</ele>
        <time>2014-01-11T09:56:28.000Z</time>
      </trkpt>
      <trkpt lat="45.18595" lon="6.36956">
        <ele>2671</ele>
        <time>2014-01-11T09:56:29.000Z</time>
      </trkpt>
      <trkpt lat="45.18595" lon="6.36956">
        <ele>2671</ele>
        <time>2014-01-11T09:56:30.000Z</time>
      </trkpt>
      <trkpt lat="45.18595" lon="6.36956">
        <ele>2671</ele>
        <time>2014-01-11T09:56:31.000Z</time>
      </trkpt>
      <trkpt lat="45.18595" lon="6.36956">
        <ele>2671</ele>
        <time>2014-01-11T09:56:32.000Z</time>
      </trkpt>
      <trkpt lat="45.18595" lon="6.36956">
        <ele>2671</ele>
        <time>2014-01-11T09:56:33.000Z</time>
      </trkpt>
      <trkpt lat="45.18595" lon="6.36956">
        <ele>2671</ele>
        <time>2014-01-11T09:56:34.000Z</time>
      </trkpt>
      <trkpt lat="45.18595" lon="6.36956">
        <ele>2671</ele>
        <time>2014-01-11T09:56:35.000Z</time>
      </trkpt>
      <trkpt lat="45.18595" lon="6.36956">
        <ele>2671</ele>
        <time>2014-01-11T09:56:36.000Z</time>
      </trkpt>
      <trkpt lat="45.18595" lon="6.36956">
        <ele>2671</ele>
        <time>2014-01-11T09:56:37.000Z</time>
      </trkpt>
      <trkpt lat="45.18595" lon="6.36956">
        <ele>2671</ele>
        <time>2014-01-11T09:56:38.000Z</time>
      </trkpt>
      <trkpt lat="45.18595" lon="6.36956">
        <ele>2671</ele>
        <time>2014-01-11T09:56:43.000Z</time>
      </trkpt>
      <trkpt lat="45.18595" lon="6.36956">
        <ele>2671</ele>
        <time>2014-01-11T09:56:44.000Z</time>
      </trkpt>
      <trkpt lat="45.18595" lon="6.36956">
        <ele>2671</ele>
        <time>2014-01-11T09:56:47.000Z</time>
      </trkpt>
      <trkpt lat="45.18595" lon="6.36956">
        <ele>2670.8000488281</ele>
        <time>2014-01-11T09:56:50.000Z</time>
      </trkpt>
      <trkpt lat="45.18595" lon="6.36956">
        <ele>2670.8000488281</ele>
        <time>2014-01-11T09:56:51.000Z</time>
      </trkpt>
      <trkpt lat="45.18595" lon="6.36956">
        <ele>2670.8000488281</ele>
        <time>2014-01-11T09:56:52.000Z</time>
      </trkpt>
      <trkpt lat="45.18595" lon="6.36956">
        <ele>2670.8000488281</ele>
        <time>2014-01-11T09:56:53.000Z</time>
      </trkpt>
      <trkpt lat="45.18595" lon="6.36956">
        <ele>2670.8000488281</ele>
        <time>2014-01-11T09:56:54.000Z</time>
      </trkpt>
      <trkpt lat="45.18595" lon="6.36956">
        <ele>2670.8000488281</ele>
        <time>2014-01-11T09:56:55.000Z</time>
      </trkpt>
      <trkpt lat="45.18595" lon="6.36956">
        <ele>2670.8000488281</ele>
        <time>2014-01-11T09:57:01.000Z</time>
      </trkpt>
      <trkpt lat="45.18595" lon="6.36956">
        <ele>2670.8000488281</ele>
        <time>2014-01-11T09:57:02.000Z</time>
      </trkpt>
      <trkpt lat="45.18595" lon="6.36956">
        <ele>2670.8000488281</ele>
        <time>2014-01-11T09:57:03.000Z</time>
      </trkpt>
      <trkpt lat="45.18595" lon="6.36956">
        <ele>2670.8000488281</ele>
        <time>2014-01-11T09:57:04.000Z</time>
      </trkpt>
      <trkpt lat="45.18595" lon="6.36956">
        <ele>2670.8000488281</ele>
        <time>2014-01-11T09:57:05.000Z</time>
      </trkpt>
      <trkpt lat="45.18595" lon="6.36956">
        <ele>2671</ele>
        <time>2014-01-11T09:57:06.000Z</time>
      </trkpt>
      <trkpt lat="45.18595" lon="6.36957">
        <ele>2671</ele>
        <time>2014-01-11T09:57:07.000Z</time>
      </trkpt>
      <trkpt lat="45.18595" lon="6.36957">
        <ele>2671</ele>
        <time>2014-01-11T09:57:08.000Z</time>
      </trkpt>
      <trkpt lat="45.18595" lon="6.36957">
        <ele>2671</ele>
        <time>2014-01-11T09:57:09.000Z</time>
      </trkpt>
      <trkpt lat="45.18595" lon="6.36957">
        <ele>2671</ele>
        <time>2014-01-11T09:57:10.000Z</time>
      </trkpt>
      <trkpt lat="45.18595" lon="6.36957">
        <ele>2671.1999511719</ele>
        <time>2014-01-11T09:57:11.000Z</time>
      </trkpt>
      <trkpt lat="45.18595" lon="6.36957">
        <ele>2671.1999511719</ele>
        <time>2014-01-11T09:57:12.000Z</time>
      </trkpt>
      <trkpt lat="45.18595" lon="6.36957">
        <ele>2671.1999511719</ele>
        <time>2014-01-11T09:57:13.000Z</time>
      </trkpt>
      <trkpt lat="45.18595" lon="6.36957">
        <ele>2671.1999511719</ele>
        <time>2014-01-11T09:57:14.000Z</time>
      </trkpt>
      <trkpt lat="45.18595" lon="6.36957">
        <ele>2671</ele>
        <time>2014-01-11T09:57:15.000Z</time>
      </trkpt>
      <trkpt lat="45.18595" lon="6.36957">
        <ele>2671</ele>
        <time>2014-01-11T09:57:16.000Z</time>
      </trkpt>
      <trkpt lat="45.18595" lon="6.36957">
        <ele>2670.8000488281</ele>
        <time>2014-01-11T09:57:17.000Z</time>
      </trkpt>
      <trkpt lat="45.18595" lon="6.36957">
        <ele>2670.8000488281</ele>
        <time>2014-01-11T09:57:18.000Z</time>
      </trkpt>
      <trkpt lat="45.18595" lon="6.36957">
        <ele>2670.8000488281</ele>
        <time>2014-01-11T09:57:19.000Z</time>
      </trkpt>
      <trkpt lat="45.18595" lon="6.36957">
        <ele>2670.6000976562</ele>
        <time>2014-01-11T09:57:20.000Z</time>
      </trkpt>
      <trkpt lat="45.18595" lon="6.36957">
        <ele>2670.8000488281</ele>
        <time>2014-01-11T09:57:21.000Z</time>
      </trkpt>
      <trkpt lat="45.18595" lon="6.36957">
        <ele>2671</ele>
        <time>2014-01-11T09:57:22.000Z</time>
      </trkpt>
      <trkpt lat="45.18595" lon="6.36957">
        <ele>2671</ele>
        <time>2014-01-11T09:57:23.000Z</time>
      </trkpt>
      <trkpt lat="45.18595" lon="6.36957">
        <ele>2670.8000488281</ele>
        <time>2014-01-11T09:57:25.000Z</time>
      </trkpt>
      <trkpt lat="45.18595" lon="6.36957">
        <ele>2670.8000488281</ele>
        <time>2014-01-11T09:57:26.000Z</time>
      </trkpt>
      <trkpt lat="45.18595" lon="6.36957">
        <ele>2670.8000488281</ele>
        <time>2014-01-11T09:57:27.000Z</time>
      </trkpt>
      <trkpt lat="45.18595" lon="6.36957">
        <ele>2670.8000488281</ele>
        <time>2014-01-11T09:57:28.000Z</time>
      </trkpt>
      <trkpt lat="45.18595" lon="6.36957">
        <ele>2670.8000488281</ele>
        <time>2014-01-11T09:57:29.000Z</time>
      </trkpt>
      <trkpt lat="45.18595" lon="6.36957">
        <ele>2670.8000488281</ele>
        <time>2014-01-11T09:57:30.000Z</time>
      </trkpt>
      <trkpt lat="45.18595" lon="6.36957">
        <ele>2670.6000976562</ele>
        <time>2014-01-11T09:57:31.000Z</time>
      </trkpt>
      <trkpt lat="45.18595" lon="6.36957">
        <ele>2670.6000976562</ele>
        <time>2014-01-11T09:57:32.000Z</time>
      </trkpt>
      <trkpt lat="45.18594" lon="6.36957">
        <ele>2670.6000976562</ele>
        <time>2014-01-11T09:57:33.000Z</time>
      </trkpt>
      <trkpt lat="45.18593" lon="6.36958">
        <ele>2670.6000976562</ele>
        <time>2014-01-11T09:57:34.000Z</time>
      </trkpt>
      <trkpt lat="45.18592" lon="6.36958">
        <ele>2670.6000976562</ele>
        <time>2014-01-11T09:57:35.000Z</time>
      </trkpt>
      <trkpt lat="45.18592" lon="6.36958">
        <ele>2671</ele>
        <time>2014-01-11T09:57:36.000Z</time>
      </trkpt>
      <trkpt lat="45.18592" lon="6.36958">
        <ele>2671.3999023438</ele>
        <time>2014-01-11T09:57:37.000Z</time>
      </trkpt>
      <trkpt lat="45.18591" lon="6.36959">
        <ele>2671.6000976562</ele>
        <time>2014-01-11T09:57:38.000Z</time>
      </trkpt>
      <trkpt lat="45.1859" lon="6.3696">
        <ele>2672</ele>
        <time>2014-01-11T09:57:39.000Z</time>
      </trkpt>
      <trkpt lat="45.18589" lon="6.3696">
        <ele>2672</ele>
        <time>2014-01-11T09:57:40.000Z</time>
      </trkpt>
      <trkpt lat="45.18588" lon="6.36961">
        <ele>2672.1999511719</ele>
        <time>2014-01-11T09:57:41.000Z</time>
      </trkpt>
      <trkpt lat="45.18587" lon="6.36963">
        <ele>2672.1999511719</ele>
        <time>2014-01-11T09:57:42.000Z</time>
      </trkpt>
      <trkpt lat="45.18587" lon="6.36964">
        <ele>2672.3999023438</ele>
        <time>2014-01-11T09:57:43.000Z</time>
      </trkpt>
      <trkpt lat="45.18586" lon="6.36965">
        <ele>2672.3999023438</ele>
        <time>2014-01-11T09:57:44.000Z</time>
      </trkpt>
      <trkpt lat="45.18585" lon="6.36965">
        <ele>2672.6000976562</ele>
        <time>2014-01-11T09:57:45.000Z</time>
      </trkpt>
      <trkpt lat="45.18584" lon="6.36966">
        <ele>2672.8000488281</ele>
        <time>2014-01-11T09:57:46.000Z</time>
      </trkpt>
      <trkpt lat="45.18583" lon="6.36967">
        <ele>2672.8000488281</ele>
        <time>2014-01-11T09:57:47.000Z</time>
      </trkpt>
      <trkpt lat="45.18583" lon="6.36968">
        <ele>2673</ele>
        <time>2014-01-11T09:57:48.000Z</time>
      </trkpt>
      <trkpt lat="45.18582" lon="6.36969">
        <ele>2673</ele>
        <time>2014-01-11T09:57:49.000Z</time>
      </trkpt>
      <trkpt lat="45.18581" lon="6.36969">
        <ele>2673</ele>
        <time>2014-01-11T09:57:50.000Z</time>
      </trkpt>
      <trkpt lat="45.1858" lon="6.36971">
        <ele>2673.1999511719</ele>
        <time>2014-01-11T09:57:51.000Z</time>
      </trkpt>
      <trkpt lat="45.18579" lon="6.36971">
        <ele>2673.3999023438</ele>
        <time>2014-01-11T09:57:52.000Z</time>
      </trkpt>
      <trkpt lat="45.18579" lon="6.36972">
        <ele>2673.3999023438</ele>
        <time>2014-01-11T09:57:53.000Z</time>
      </trkpt>
      <trkpt lat="45.18578" lon="6.36973">
        <ele>2673.6000976562</ele>
        <time>2014-01-11T09:57:54.000Z</time>
      </trkpt>
      <trkpt lat="45.18578" lon="6.36973">
        <ele>2673.6000976562</ele>
        <time>2014-01-11T09:57:55.000Z</time>
      </trkpt>
      <trkpt lat="45.18577" lon="6.36974">
        <ele>2673.8000488281</ele>
        <time>2014-01-11T09:57:56.000Z</time>
      </trkpt>
      <trkpt lat="45.18577" lon="6.36975">
        <ele>2674</ele>
        <time>2014-01-11T09:57:57.000Z</time>
      </trkpt>
      <trkpt lat="45.18577" lon="6.36975">
        <ele>2674</ele>
        <time>2014-01-11T09:57:58.000Z</time>
      </trkpt>
      <trkpt lat="45.18576" lon="6.36977">
        <ele>2674</ele>
        <time>2014-01-11T09:57:59.000Z</time>
      </trkpt>
      <trkpt lat="45.18576" lon="6.36977">
        <ele>2674.1999511719</ele>
        <time>2014-01-11T09:58:00.000Z</time>
      </trkpt>
      <trkpt lat="45.18575" lon="6.36977">
        <ele>2674.1999511719</ele>
        <time>2014-01-11T09:58:01.000Z</time>
      </trkpt>
      <trkpt lat="45.18574" lon="6.36979">
        <ele>2674.1999511719</ele>
        <time>2014-01-11T09:58:02.000Z</time>
      </trkpt>
      <trkpt lat="45.18574" lon="6.36979">
        <ele>2674.1999511719</ele>
        <time>2014-01-11T09:58:03.000Z</time>
      </trkpt>
      <trkpt lat="45.18574" lon="6.36979">
        <ele>2674.1999511719</ele>
        <time>2014-01-11T09:58:04.000Z</time>
      </trkpt>
      <trkpt lat="45.18573" lon="6.36981">
        <ele>2674.3999023438</ele>
        <time>2014-01-11T09:58:05.000Z</time>
      </trkpt>
      <trkpt lat="45.18573" lon="6.36981">
        <ele>2674.3999023438</ele>
        <time>2014-01-11T09:58:06.000Z</time>
      </trkpt>
      <trkpt lat="45.18572" lon="6.36982">
        <ele>2674.6000976562</ele>
        <time>2014-01-11T09:58:07.000Z</time>
      </trkpt>
      <trkpt lat="45.18571" lon="6.36984">
        <ele>2674.6000976562</ele>
        <time>2014-01-11T09:58:08.000Z</time>
      </trkpt>
      <trkpt lat="45.18571" lon="6.36984">
        <ele>2674.6000976562</ele>
        <time>2014-01-11T09:58:09.000Z</time>
      </trkpt>
      <trkpt lat="45.1857" lon="6.36985">
        <ele>2674.6000976562</ele>
        <time>2014-01-11T09:58:10.000Z</time>
      </trkpt>
      <trkpt lat="45.1857" lon="6.36985">
        <ele>2674.8000488281</ele>
        <time>2014-01-11T09:58:11.000Z</time>
      </trkpt>
      <trkpt lat="45.1857" lon="6.36985">
        <ele>2674.8000488281</ele>
        <time>2014-01-11T09:58:12.000Z</time>
      </trkpt>
      <trkpt lat="45.1857" lon="6.36985">
        <ele>2675</ele>
        <time>2014-01-11T09:58:13.000Z</time>
      </trkpt>
      <trkpt lat="45.1857" lon="6.36985">
        <ele>2675</ele>
        <time>2014-01-11T09:58:14.000Z</time>
      </trkpt>
      <trkpt lat="45.1857" lon="6.36985">
        <ele>2675.1999511719</ele>
        <time>2014-01-11T09:58:15.000Z</time>
      </trkpt>
      <trkpt lat="45.1857" lon="6.36985">
        <ele>2675.3999023438</ele>
        <time>2014-01-11T09:58:16.000Z</time>
      </trkpt>
      <trkpt lat="45.1857" lon="6.36985">
        <ele>2675.3999023438</ele>
        <time>2014-01-11T09:58:17.000Z</time>
      </trkpt>
      <trkpt lat="45.1857" lon="6.36985">
        <ele>2675.6000976562</ele>
        <time>2014-01-11T09:58:18.000Z</time>
      </trkpt>
      <trkpt lat="45.1857" lon="6.36985">
        <ele>2675.6000976562</ele>
        <time>2014-01-11T09:58:19.000Z</time>
      </trkpt>
      <trkpt lat="45.18569" lon="6.36985">
        <ele>2675.6000976562</ele>
        <time>2014-01-11T09:58:21.000Z</time>
      </trkpt>
      <trkpt lat="45.18567" lon="6.36987">
        <ele>2675.6000976562</ele>
        <time>2014-01-11T09:58:22.000Z</time>
      </trkpt>
      <trkpt lat="45.18567" lon="6.36987">
        <ele>2675.3999023438</ele>
        <time>2014-01-11T09:58:23.000Z</time>
      </trkpt>
      <trkpt lat="45.18566" lon="6.36988">
        <ele>2675.3999023438</ele>
        <time>2014-01-11T09:58:24.000Z</time>
      </trkpt>
      <trkpt lat="45.18566" lon="6.36989">
        <ele>2675.3999023438</ele>
        <time>2014-01-11T09:58:25.000Z</time>
      </trkpt>
      <trkpt lat="45.18566" lon="6.36989">
        <ele>2675.6000976562</ele>
        <time>2014-01-11T09:58:26.000Z</time>
      </trkpt>
      <trkpt lat="45.18565" lon="6.3699">
        <ele>2675.6000976562</ele>
        <time>2014-01-11T09:58:27.000Z</time>
      </trkpt>
      <trkpt lat="45.18565" lon="6.36991">
        <ele>2675.8000488281</ele>
        <time>2014-01-11T09:58:28.000Z</time>
      </trkpt>
      <trkpt lat="45.18565" lon="6.36992">
        <ele>2675.8000488281</ele>
        <time>2014-01-11T09:58:29.000Z</time>
      </trkpt>
      <trkpt lat="45.18564" lon="6.36994">
        <ele>2676</ele>
        <time>2014-01-11T09:58:30.000Z</time>
      </trkpt>
      <trkpt lat="45.18564" lon="6.36994">
        <ele>2676.1999511719</ele>
        <time>2014-01-11T09:58:31.000Z</time>
      </trkpt>
      <trkpt lat="45.18563" lon="6.36996">
        <ele>2676.3999023438</ele>
        <time>2014-01-11T09:58:32.000Z</time>
      </trkpt>
      <trkpt lat="45.18563" lon="6.36995">
        <ele>2676.3999023438</ele>
        <time>2014-01-11T09:58:33.000Z</time>
      </trkpt>
      <trkpt lat="45.18562" lon="6.36996">
        <ele>2676.8000488281</ele>
        <time>2014-01-11T09:58:34.000Z</time>
      </trkpt>
      <trkpt lat="45.18562" lon="6.36996">
        <ele>2677</ele>
        <time>2014-01-11T09:58:35.000Z</time>
      </trkpt>
      <trkpt lat="45.18561" lon="6.36997">
        <ele>2677.1999511719</ele>
        <time>2014-01-11T09:58:36.000Z</time>
      </trkpt>
      <trkpt lat="45.1856" lon="6.36998">
        <ele>2677.3999023438</ele>
        <time>2014-01-11T09:58:37.000Z</time>
      </trkpt>
      <trkpt lat="45.1856" lon="6.36998">
        <ele>2677.6000976562</ele>
        <time>2014-01-11T09:58:38.000Z</time>
      </trkpt>
      <trkpt lat="45.1856" lon="6.36999">
        <ele>2677.6000976562</ele>
        <time>2014-01-11T09:58:39.000Z</time>
      </trkpt>
      <trkpt lat="45.1856" lon="6.37">
        <ele>2677.8000488281</ele>
        <time>2014-01-11T09:58:40.000Z</time>
      </trkpt>
      <trkpt lat="45.1856" lon="6.37">
        <ele>2678</ele>
        <time>2014-01-11T09:58:41.000Z</time>
      </trkpt>
      <trkpt lat="45.18559" lon="6.37">
        <ele>2678.1999511719</ele>
        <time>2014-01-11T09:58:42.000Z</time>
      </trkpt>
      <trkpt lat="45.18559" lon="6.37">
        <ele>2678.1999511719</ele>
        <time>2014-01-11T09:58:43.000Z</time>
      </trkpt>
      <trkpt lat="45.18559" lon="6.37">
        <ele>2678.3999023438</ele>
        <time>2014-01-11T09:58:44.000Z</time>
      </trkpt>
      <trkpt lat="45.18558" lon="6.37001">
        <ele>2678.8000488281</ele>
        <time>2014-01-11T09:58:45.000Z</time>
      </trkpt>
      <trkpt lat="45.18558" lon="6.37001">
        <ele>2679</ele>
        <time>2014-01-11T09:58:46.000Z</time>
      </trkpt>
      <trkpt lat="45.18558" lon="6.37001">
        <ele>2679.1999511719</ele>
        <time>2014-01-11T09:58:47.000Z</time>
      </trkpt>
      <trkpt lat="45.18558" lon="6.37001">
        <ele>2679.3999023438</ele>
        <time>2014-01-11T09:58:48.000Z</time>
      </trkpt>
      <trkpt lat="45.18558" lon="6.37001">
        <ele>2679.3999023438</ele>
        <time>2014-01-11T09:58:49.000Z</time>
      </trkpt>
      <trkpt lat="45.18558" lon="6.37001">
        <ele>2679.6000976562</ele>
        <time>2014-01-11T09:58:50.000Z</time>
      </trkpt>
      <trkpt lat="45.18558" lon="6.37001">
        <ele>2679.6000976562</ele>
        <time>2014-01-11T09:58:51.000Z</time>
      </trkpt>
      <trkpt lat="45.18558" lon="6.37001">
        <ele>2679.8000488281</ele>
        <time>2014-01-11T09:58:52.000Z</time>
      </trkpt>
      <trkpt lat="45.18558" lon="6.37001">
        <ele>2679.8000488281</ele>
        <time>2014-01-11T09:58:53.000Z</time>
      </trkpt>
      <trkpt lat="45.18558" lon="6.37001">
        <ele>2679.8000488281</ele>
        <time>2014-01-11T09:58:54.000Z</time>
      </trkpt>
      <trkpt lat="45.18558" lon="6.37001">
        <ele>2679.8000488281</ele>
        <time>2014-01-11T09:58:55.000Z</time>
      </trkpt>
      <trkpt lat="45.18557" lon="6.37002">
        <ele>2679.8000488281</ele>
        <time>2014-01-11T09:58:57.000Z</time>
      </trkpt>
      <trkpt lat="45.18557" lon="6.37002">
        <ele>2680</ele>
        <time>2014-01-11T09:58:58.000Z</time>
      </trkpt>
      <trkpt lat="45.18556" lon="6.37002">
        <ele>2680.1999511719</ele>
        <time>2014-01-11T09:58:59.000Z</time>
      </trkpt>
      <trkpt lat="45.18556" lon="6.37002">
        <ele>2680.3999023438</ele>
        <time>2014-01-11T09:59:00.000Z</time>
      </trkpt>
      <trkpt lat="45.18555" lon="6.37002">
        <ele>2680.6000976562</ele>
        <time>2014-01-11T09:59:01.000Z</time>
      </trkpt>
      <trkpt lat="45.18555" lon="6.37002">
        <ele>2680.6000976562</ele>
        <time>2014-01-11T09:59:02.000Z</time>
      </trkpt>
      <trkpt lat="45.18555" lon="6.37002">
        <ele>2680.8000488281</ele>
        <time>2014-01-11T09:59:03.000Z</time>
      </trkpt>
      <trkpt lat="45.18554" lon="6.37003">
        <ele>2680.8000488281</ele>
        <time>2014-01-11T09:59:04.000Z</time>
      </trkpt>
      <trkpt lat="45.18554" lon="6.37003">
        <ele>2681</ele>
        <time>2014-01-11T09:59:05.000Z</time>
      </trkpt>
      <trkpt lat="45.18554" lon="6.37004">
        <ele>2681.1999511719</ele>
        <time>2014-01-11T09:59:06.000Z</time>
      </trkpt>
      <trkpt lat="45.18554" lon="6.37004">
        <ele>2681.3999023438</ele>
        <time>2014-01-11T09:59:07.000Z</time>
      </trkpt>
      <trkpt lat="45.18553" lon="6.37004">
        <ele>2681.3999023438</ele>
        <time>2014-01-11T09:59:08.000Z</time>
      </trkpt>
      <trkpt lat="45.18553" lon="6.37004">
        <ele>2681.6000976562</ele>
        <time>2014-01-11T09:59:09.000Z</time>
      </trkpt>
      <trkpt lat="45.18553" lon="6.37004">
        <ele>2681.8000488281</ele>
        <time>2014-01-11T09:59:10.000Z</time>
      </trkpt>
      <trkpt lat="45.18552" lon="6.37005">
        <ele>2681.8000488281</ele>
        <time>2014-01-11T09:59:11.000Z</time>
      </trkpt>
      <trkpt lat="45.18552" lon="6.37005">
        <ele>2682</ele>
        <time>2014-01-11T09:59:12.000Z</time>
      </trkpt>
      <trkpt lat="45.18552" lon="6.37005">
        <ele>2682.3999023438</ele>
        <time>2014-01-11T09:59:13.000Z</time>
      </trkpt>
      <trkpt lat="45.18552" lon="6.37005">
        <ele>2682.6000976562</ele>
        <time>2014-01-11T09:59:14.000Z</time>
      </trkpt>
      <trkpt lat="45.18551" lon="6.37005">
        <ele>2682.6000976562</ele>
        <time>2014-01-11T09:59:15.000Z</time>
      </trkpt>
      <trkpt lat="45.1855" lon="6.37006">
        <ele>2682.8000488281</ele>
        <time>2014-01-11T09:59:16.000Z</time>
      </trkpt>
      <trkpt lat="45.18551" lon="6.37006">
        <ele>2683</ele>
        <time>2014-01-11T09:59:17.000Z</time>
      </trkpt>
      <trkpt lat="45.1855" lon="6.37006">
        <ele>2683.1999511719</ele>
        <time>2014-01-11T09:59:18.000Z</time>
      </trkpt>
      <trkpt lat="45.1855" lon="6.37007">
        <ele>2683.3999023438</ele>
        <time>2014-01-11T09:59:19.000Z</time>
      </trkpt>
      <trkpt lat="45.18549" lon="6.37007">
        <ele>2683.3999023438</ele>
        <time>2014-01-11T09:59:20.000Z</time>
      </trkpt>
      <trkpt lat="45.18549" lon="6.37007">
        <ele>2683.6000976562</ele>
        <time>2014-01-11T09:59:21.000Z</time>
      </trkpt>
      <trkpt lat="45.18549" lon="6.37007">
        <ele>2683.8000488281</ele>
        <time>2014-01-11T09:59:22.000Z</time>
      </trkpt>
      <trkpt lat="45.18549" lon="6.37007">
        <ele>2684</ele>
        <time>2014-01-11T09:59:23.000Z</time>
      </trkpt>
      <trkpt lat="45.18548" lon="6.37008">
        <ele>2684</ele>
        <time>2014-01-11T09:59:24.000Z</time>
      </trkpt>
      <trkpt lat="45.18548" lon="6.37008">
        <ele>2684.1999511719</ele>
        <time>2014-01-11T09:59:25.000Z</time>
      </trkpt>
      <trkpt lat="45.18547" lon="6.37008">
        <ele>2684.1999511719</ele>
        <time>2014-01-11T09:59:26.000Z</time>
      </trkpt>
      <trkpt lat="45.18547" lon="6.37008">
        <ele>2684.3999023438</ele>
        <time>2014-01-11T09:59:27.000Z</time>
      </trkpt>
      <trkpt lat="45.18546" lon="6.37008">
        <ele>2684.6000976562</ele>
        <time>2014-01-11T09:59:28.000Z</time>
      </trkpt>
      <trkpt lat="45.18546" lon="6.37008">
        <ele>2684.8000488281</ele>
        <time>2014-01-11T09:59:29.000Z</time>
      </trkpt>
      <trkpt lat="45.18546" lon="6.37008">
        <ele>2685</ele>
        <time>2014-01-11T09:59:30.000Z</time>
      </trkpt>
      <trkpt lat="45.18546" lon="6.37008">
        <ele>2685.1999511719</ele>
        <time>2014-01-11T09:59:31.000Z</time>
      </trkpt>
      <trkpt lat="45.18546" lon="6.37008">
        <ele>2685.1999511719</ele>
        <time>2014-01-11T09:59:32.000Z</time>
      </trkpt>
      <trkpt lat="45.18546" lon="6.37008">
        <ele>2685.3999023438</ele>
        <time>2014-01-11T09:59:33.000Z</time>
      </trkpt>
      <trkpt lat="45.18546" lon="6.37008">
        <ele>2685.3999023438</ele>
        <time>2014-01-11T09:59:34.000Z</time>
      </trkpt>
      <trkpt lat="45.18546" lon="6.37008">
        <ele>2685.3999023438</ele>
        <time>2014-01-11T09:59:35.000Z</time>
      </trkpt>
      <trkpt lat="45.18545" lon="6.37008">
        <ele>2685.3999023438</ele>
        <time>2014-01-11T09:59:38.000Z</time>
      </trkpt>
      <trkpt lat="45.18545" lon="6.37008">
        <ele>2685.3999023438</ele>
        <time>2014-01-11T09:59:39.000Z</time>
      </trkpt>
      <trkpt lat="45.18545" lon="6.37008">
        <ele>2685.6000976562</ele>
        <time>2014-01-11T09:59:40.000Z</time>
      </trkpt>
      <trkpt lat="45.18545" lon="6.37008">
        <ele>2685.6000976562</ele>
        <time>2014-01-11T09:59:41.000Z</time>
      </trkpt>
      <trkpt lat="45.18545" lon="6.37008">
        <ele>2685.6000976562</ele>
        <time>2014-01-11T09:59:42.000Z</time>
      </trkpt>
      <trkpt lat="45.18545" lon="6.37008">
        <ele>2685.6000976562</ele>
        <time>2014-01-11T09:59:43.000Z</time>
      </trkpt>
      <trkpt lat="45.18545" lon="6.37008">
        <ele>2685.6000976562</ele>
        <time>2014-01-11T09:59:44.000Z</time>
      </trkpt>
      <trkpt lat="45.18545" lon="6.37008">
        <ele>2685.8000488281</ele>
        <time>2014-01-11T09:59:45.000Z</time>
      </trkpt>
      <trkpt lat="45.18545" lon="6.37008">
        <ele>2685.8000488281</ele>
        <time>2014-01-11T09:59:46.000Z</time>
      </trkpt>
      <trkpt lat="45.18545" lon="6.37008">
        <ele>2685.8000488281</ele>
        <time>2014-01-11T09:59:47.000Z</time>
      </trkpt>
      <trkpt lat="45.18545" lon="6.37008">
        <ele>2685.8000488281</ele>
        <time>2014-01-11T09:59:48.000Z</time>
      </trkpt>
      <trkpt lat="45.18545" lon="6.37008">
        <ele>2686</ele>
        <time>2014-01-11T09:59:49.000Z</time>
      </trkpt>
      <trkpt lat="45.18545" lon="6.37008">
        <ele>2686</ele>
        <time>2014-01-11T09:59:50.000Z</time>
      </trkpt>
      <trkpt lat="45.18545" lon="6.37008">
        <ele>2686</ele>
        <time>2014-01-11T09:59:51.000Z</time>
      </trkpt>
      <trkpt lat="45.18545" lon="6.37009">
        <ele>2686</ele>
        <time>2014-01-11T09:59:52.000Z</time>
      </trkpt>
      <trkpt lat="45.18544" lon="6.37009">
        <ele>2686</ele>
        <time>2014-01-11T09:59:53.000Z</time>
      </trkpt>
      <trkpt lat="45.18544" lon="6.3701">
        <ele>2686</ele>
        <time>2014-01-11T09:59:54.000Z</time>
      </trkpt>
      <trkpt lat="45.18543" lon="6.3701">
        <ele>2686.1999511719</ele>
        <time>2014-01-11T09:59:55.000Z</time>
      </trkpt>
      <trkpt lat="45.18543" lon="6.3701">
        <ele>2686.1999511719</ele>
        <time>2014-01-11T09:59:56.000Z</time>
      </trkpt>
      <trkpt lat="45.18543" lon="6.37011">
        <ele>2686.1999511719</ele>
        <time>2014-01-11T09:59:57.000Z</time>
      </trkpt>
      <trkpt lat="45.18543" lon="6.37011">
        <ele>2686.1999511719</ele>
        <time>2014-01-11T09:59:58.000Z</time>
      </trkpt>
      <trkpt lat="45.18543" lon="6.37011">
        <ele>2686.3999023438</ele>
        <time>2014-01-11T09:59:59.000Z</time>
      </trkpt>
      <trkpt lat="45.18543" lon="6.37011">
        <ele>2686.6000976562</ele>
        <time>2014-01-11T10:00:00.000Z</time>
      </trkpt>
      <trkpt lat="45.18543" lon="6.37011">
        <ele>2686.6000976562</ele>
        <time>2014-01-11T10:00:01.000Z</time>
      </trkpt>
      <trkpt lat="45.18543" lon="6.37011">
        <ele>2686.8000488281</ele>
        <time>2014-01-11T10:00:02.000Z</time>
      </trkpt>
      <trkpt lat="45.18543" lon="6.37011">
        <ele>2686.8000488281</ele>
        <time>2014-01-11T10:00:03.000Z</time>
      </trkpt>
      <trkpt lat="45.18543" lon="6.37011">
        <ele>2686.8000488281</ele>
        <time>2014-01-11T10:00:05.000Z</time>
      </trkpt>
      <trkpt lat="45.18543" lon="6.37011">
        <ele>2686.6000976562</ele>
        <time>2014-01-11T10:00:06.000Z</time>
      </trkpt>
      <trkpt lat="45.18543" lon="6.37011">
        <ele>2686.3999023438</ele>
        <time>2014-01-11T10:00:07.000Z</time>
      </trkpt>
      <trkpt lat="45.18543" lon="6.37011">
        <ele>2686.3999023438</ele>
        <time>2014-01-11T10:00:08.000Z</time>
      </trkpt>
      <trkpt lat="45.18543" lon="6.37011">
        <ele>2686.3999023438</ele>
        <time>2014-01-11T10:00:09.000Z</time>
      </trkpt>
      <trkpt lat="45.18543" lon="6.37011">
        <ele>2686.1999511719</ele>
        <time>2014-01-11T10:00:10.000Z</time>
      </trkpt>
      <trkpt lat="45.18543" lon="6.37011">
        <ele>2686.1999511719</ele>
        <time>2014-01-11T10:00:11.000Z</time>
      </trkpt>
      <trkpt lat="45.18543" lon="6.37011">
        <ele>2686.1999511719</ele>
        <time>2014-01-11T10:00:12.000Z</time>
      </trkpt>
      <trkpt lat="45.18543" lon="6.37011">
        <ele>2686</ele>
        <time>2014-01-11T10:00:13.000Z</time>
      </trkpt>
      <trkpt lat="45.18543" lon="6.37011">
        <ele>2686</ele>
        <time>2014-01-11T10:00:14.000Z</time>
      </trkpt>
      <trkpt lat="45.18543" lon="6.37011">
        <ele>2685.8000488281</ele>
        <time>2014-01-11T10:00:15.000Z</time>
      </trkpt>
      <trkpt lat="45.18543" lon="6.37011">
        <ele>2685.8000488281</ele>
        <time>2014-01-11T10:00:16.000Z</time>
      </trkpt>
      <trkpt lat="45.18543" lon="6.37011">
        <ele>2685.8000488281</ele>
        <time>2014-01-11T10:00:17.000Z</time>
      </trkpt>
      <trkpt lat="45.18543" lon="6.37011">
        <ele>2685.8000488281</ele>
        <time>2014-01-11T10:00:18.000Z</time>
      </trkpt>
      <trkpt lat="45.18543" lon="6.37011">
        <ele>2685.6000976562</ele>
        <time>2014-01-11T10:00:19.000Z</time>
      </trkpt>
      <trkpt lat="45.18543" lon="6.37011">
        <ele>2685.6000976562</ele>
        <time>2014-01-11T10:00:20.000Z</time>
      </trkpt>
      <trkpt lat="45.18543" lon="6.37011">
        <ele>2685.6000976562</ele>
        <time>2014-01-11T10:00:21.000Z</time>
      </trkpt>
      <trkpt lat="45.18543" lon="6.37011">
        <ele>2685.6000976562</ele>
        <time>2014-01-11T10:00:22.000Z</time>
      </trkpt>
      <trkpt lat="45.18543" lon="6.37011">
        <ele>2685.6000976562</ele>
        <time>2014-01-11T10:00:23.000Z</time>
      </trkpt>
      <trkpt lat="45.18543" lon="6.37011">
        <ele>2685.6000976562</ele>
        <time>2014-01-11T10:00:24.000Z</time>
      </trkpt>
      <trkpt lat="45.18543" lon="6.37011">
        <ele>2685.6000976562</ele>
        <time>2014-01-11T10:00:25.000Z</time>
      </trkpt>
      <trkpt lat="45.18543" lon="6.37011">
        <ele>2685.6000976562</ele>
        <time>2014-01-11T10:00:28.000Z</time>
      </trkpt>
      <trkpt lat="45.18543" lon="6.37011">
        <ele>2685.6000976562</ele>
        <time>2014-01-11T10:00:29.000Z</time>
      </trkpt>
      <trkpt lat="45.18543" lon="6.37011">
        <ele>2685.6000976562</ele>
        <time>2014-01-11T10:00:30.000Z</time>
      </trkpt>
      <trkpt lat="45.18543" lon="6.37011">
        <ele>2685.6000976562</ele>
        <time>2014-01-11T10:00:31.000Z</time>
      </trkpt>
      <trkpt lat="45.18543" lon="6.37011">
        <ele>2685.3999023438</ele>
        <time>2014-01-11T10:00:32.000Z</time>
      </trkpt>
      <trkpt lat="45.18543" lon="6.37011">
        <ele>2685.3999023438</ele>
        <time>2014-01-11T10:00:33.000Z</time>
      </trkpt>
      <trkpt lat="45.18543" lon="6.37011">
        <ele>2685.3999023438</ele>
        <time>2014-01-11T10:00:34.000Z</time>
      </trkpt>
      <trkpt lat="45.18543" lon="6.37011">
        <ele>2685.3999023438</ele>
        <time>2014-01-11T10:00:37.000Z</time>
      </trkpt>
      <trkpt lat="45.18543" lon="6.37011">
        <ele>2685.3999023438</ele>
        <time>2014-01-11T10:00:38.000Z</time>
      </trkpt>
      <trkpt lat="45.18543" lon="6.37011">
        <ele>2685.3999023438</ele>
        <time>2014-01-11T10:00:39.000Z</time>
      </trkpt>
      <trkpt lat="45.18543" lon="6.37011">
        <ele>2685.3999023438</ele>
        <time>2014-01-11T10:00:40.000Z</time>
      </trkpt>
      <trkpt lat="45.18543" lon="6.37011">
        <ele>2685.3999023438</ele>
        <time>2014-01-11T10:00:41.000Z</time>
      </trkpt>
      <trkpt lat="45.18543" lon="6.37011">
        <ele>2685.3999023438</ele>
        <time>2014-01-11T10:00:42.000Z</time>
      </trkpt>
      <trkpt lat="45.18543" lon="6.37011">
        <ele>2685.3999023438</ele>
        <time>2014-01-11T10:00:45.000Z</time>
      </trkpt>
      <trkpt lat="45.18543" lon="6.37011">
        <ele>2685.3999023438</ele>
        <time>2014-01-11T10:00:46.000Z</time>
      </trkpt>
      <trkpt lat="45.18543" lon="6.37011">
        <ele>2685.3999023438</ele>
        <time>2014-01-11T10:00:47.000Z</time>
      </trkpt>
      <trkpt lat="45.18543" lon="6.37011">
        <ele>2685.3999023438</ele>
        <time>2014-01-11T10:00:48.000Z</time>
      </trkpt>
      <trkpt lat="45.18543" lon="6.37011">
        <ele>2685.3999023438</ele>
        <time>2014-01-11T10:00:49.000Z</time>
      </trkpt>
      <trkpt lat="45.18543" lon="6.37011">
        <ele>2685.3999023438</ele>
        <time>2014-01-11T10:00:50.000Z</time>
      </trkpt>
      <trkpt lat="45.18543" lon="6.37011">
        <ele>2685.3999023438</ele>
        <time>2014-01-11T10:00:52.000Z</time>
      </trkpt>
      <trkpt lat="45.18543" lon="6.37011">
        <ele>2685.3999023438</ele>
        <time>2014-01-11T10:00:56.000Z</time>
      </trkpt>
      <trkpt lat="45.18543" lon="6.37011">
        <ele>2685.3999023438</ele>
        <time>2014-01-11T10:00:57.000Z</time>
      </trkpt>
      <trkpt lat="45.18543" lon="6.37011">
        <ele>2685.3999023438</ele>
        <time>2014-01-11T10:00:58.000Z</time>
      </trkpt>
      <trkpt lat="45.18543" lon="6.37011">
        <ele>2685.1999511719</ele>
        <time>2014-01-11T10:00:59.000Z</time>
      </trkpt>
      <trkpt lat="45.18543" lon="6.37011">
        <ele>2685.1999511719</ele>
        <time>2014-01-11T10:01:00.000Z</time>
      </trkpt>
      <trkpt lat="45.18543" lon="6.37011">
        <ele>2685.1999511719</ele>
        <time>2014-01-11T10:01:01.000Z</time>
      </trkpt>
      <trkpt lat="45.18543" lon="6.37011">
        <ele>2685.1999511719</ele>
        <time>2014-01-11T10:01:06.000Z</time>
      </trkpt>
      <trkpt lat="45.18543" lon="6.37011">
        <ele>2685.1999511719</ele>
        <time>2014-01-11T10:01:07.000Z</time>
      </trkpt>
      <trkpt lat="45.18542" lon="6.37012">
        <ele>2685.1999511719</ele>
        <time>2014-01-11T10:01:08.000Z</time>
      </trkpt>
      <trkpt lat="45.18541" lon="6.37012">
        <ele>2685</ele>
        <time>2014-01-11T10:01:09.000Z</time>
      </trkpt>
      <trkpt lat="45.1854" lon="6.37012">
        <ele>2685</ele>
        <time>2014-01-11T10:01:10.000Z</time>
      </trkpt>
      <trkpt lat="45.18539" lon="6.37012">
        <ele>2685</ele>
        <time>2014-01-11T10:01:11.000Z</time>
      </trkpt>
      <trkpt lat="45.18539" lon="6.37013">
        <ele>2685</ele>
        <time>2014-01-11T10:01:12.000Z</time>
      </trkpt>
      <trkpt lat="45.18538" lon="6.37013">
        <ele>2685.1999511719</ele>
        <time>2014-01-11T10:01:13.000Z</time>
      </trkpt>
      <trkpt lat="45.18538" lon="6.37014">
        <ele>2685.6000976562</ele>
        <time>2014-01-11T10:01:14.000Z</time>
      </trkpt>
      <trkpt lat="45.18537" lon="6.37014">
        <ele>2685.8000488281</ele>
        <time>2014-01-11T10:01:15.000Z</time>
      </trkpt>
      <trkpt lat="45.18536" lon="6.37014">
        <ele>2686</ele>
        <time>2014-01-11T10:01:16.000Z</time>
      </trkpt>
      <trkpt lat="45.18536" lon="6.37014">
        <ele>2686.1999511719</ele>
        <time>2014-01-11T10:01:17.000Z</time>
      </trkpt>
      <trkpt lat="45.18535" lon="6.37014">
        <ele>2686.6000976562</ele>
        <time>2014-01-11T10:01:18.000Z</time>
      </trkpt>
      <trkpt lat="45.18535" lon="6.37015">
        <ele>2686.8000488281</ele>
        <time>2014-01-11T10:01:19.000Z</time>
      </trkpt>
      <trkpt lat="45.18535" lon="6.37015">
        <ele>2687</ele>
        <time>2014-01-11T10:01:20.000Z</time>
      </trkpt>
      <trkpt lat="45.18534" lon="6.37016">
        <ele>2687.1999511719</ele>
        <time>2014-01-11T10:01:21.000Z</time>
      </trkpt>
      <trkpt lat="45.18533" lon="6.37017">
        <ele>2687.3999023438</ele>
        <time>2014-01-11T10:01:22.000Z</time>
      </trkpt>
      <trkpt lat="45.18533" lon="6.37017">
        <ele>2687.6000976562</ele>
        <time>2014-01-11T10:01:23.000Z</time>
      </trkpt>
      <trkpt lat="45.18532" lon="6.37018">
        <ele>2687.8000488281</ele>
        <time>2014-01-11T10:01:24.000Z</time>
      </trkpt>
      <trkpt lat="45.18532" lon="6.37018">
        <ele>2687.8000488281</ele>
        <time>2014-01-11T10:01:25.000Z</time>
      </trkpt>
      <trkpt lat="45.18531" lon="6.37019">
        <ele>2688</ele>
        <time>2014-01-11T10:01:26.000Z</time>
      </trkpt>
      <trkpt lat="45.1853" lon="6.37019">
        <ele>2688</ele>
        <time>2014-01-11T10:01:27.000Z</time>
      </trkpt>
      <trkpt lat="45.18529" lon="6.37019">
        <ele>2688.1999511719</ele>
        <time>2014-01-11T10:01:28.000Z</time>
      </trkpt>
      <trkpt lat="45.18529" lon="6.37019">
        <ele>2688.3999023438</ele>
        <time>2014-01-11T10:01:29.000Z</time>
      </trkpt>
      <trkpt lat="45.18528" lon="6.37019">
        <ele>2688.6000976562</ele>
        <time>2014-01-11T10:01:30.000Z</time>
      </trkpt>
      <trkpt lat="45.18527" lon="6.37019">
        <ele>2688.8000488281</ele>
        <time>2014-01-11T10:01:31.000Z</time>
      </trkpt>
      <trkpt lat="45.18527" lon="6.37019">
        <ele>2689</ele>
        <time>2014-01-11T10:01:32.000Z</time>
      </trkpt>
      <trkpt lat="45.18526" lon="6.37019">
        <ele>2689.1999511719</ele>
        <time>2014-01-11T10:01:33.000Z</time>
      </trkpt>
      <trkpt lat="45.18525" lon="6.3702">
        <ele>2689.3999023438</ele>
        <time>2014-01-11T10:01:34.000Z</time>
      </trkpt>
      <trkpt lat="45.18525" lon="6.3702">
        <ele>2689.6000976562</ele>
        <time>2014-01-11T10:01:35.000Z</time>
      </trkpt>
      <trkpt lat="45.18524" lon="6.3702">
        <ele>2689.8000488281</ele>
        <time>2014-01-11T10:01:36.000Z</time>
      </trkpt>
      <trkpt lat="45.18524" lon="6.37021">
        <ele>2690</ele>
        <time>2014-01-11T10:01:37.000Z</time>
      </trkpt>
      <trkpt lat="45.18523" lon="6.37022">
        <ele>2690.1999511719</ele>
        <time>2014-01-11T10:01:38.000Z</time>
      </trkpt>
      <trkpt lat="45.18523" lon="6.37022">
        <ele>2690.3999023438</ele>
        <time>2014-01-11T10:01:39.000Z</time>
      </trkpt>
      <trkpt lat="45.18523" lon="6.37023">
        <ele>2690.6000976562</ele>
        <time>2014-01-11T10:01:40.000Z</time>
      </trkpt>
      <trkpt lat="45.18522" lon="6.37023">
        <ele>2690.8000488281</ele>
        <time>2014-01-11T10:01:41.000Z</time>
      </trkpt>
      <trkpt lat="45.18522" lon="6.37024">
        <ele>2691</ele>
        <time>2014-01-11T10:01:42.000Z</time>
      </trkpt>
      <trkpt lat="45.18522" lon="6.37025">
        <ele>2691.1999511719</ele>
        <time>2014-01-11T10:01:43.000Z</time>
      </trkpt>
      <trkpt lat="45.18522" lon="6.37025">
        <ele>2691.1999511719</ele>
        <time>2014-01-11T10:01:44.000Z</time>
      </trkpt>
      <trkpt lat="45.18521" lon="6.37026">
        <ele>2691.3999023438</ele>
        <time>2014-01-11T10:01:45.000Z</time>
      </trkpt>
      <trkpt lat="45.1852" lon="6.37026">
        <ele>2691.6000976562</ele>
        <time>2014-01-11T10:01:46.000Z</time>
      </trkpt>
      <trkpt lat="45.18519" lon="6.37027">
        <ele>2691.8000488281</ele>
        <time>2014-01-11T10:01:47.000Z</time>
      </trkpt>
      <trkpt lat="45.18519" lon="6.37027">
        <ele>2692</ele>
        <time>2014-01-11T10:01:48.000Z</time>
      </trkpt>
      <trkpt lat="45.18518" lon="6.37028">
        <ele>2692.1999511719</ele>
        <time>2014-01-11T10:01:49.000Z</time>
      </trkpt>
      <trkpt lat="45.18518" lon="6.37028">
        <ele>2692.3999023438</ele>
        <time>2014-01-11T10:01:50.000Z</time>
      </trkpt>
      <trkpt lat="45.18518" lon="6.37028">
        <ele>2692.3999023438</ele>
        <time>2014-01-11T10:01:51.000Z</time>
      </trkpt>
      <trkpt lat="45.18518" lon="6.37029">
        <ele>2692.6000976562</ele>
        <time>2014-01-11T10:01:52.000Z</time>
      </trkpt>
      <trkpt lat="45.18518" lon="6.3703">
        <ele>2692.6000976562</ele>
        <time>2014-01-11T10:01:53.000Z</time>
      </trkpt>
      <trkpt lat="45.18518" lon="6.3703">
        <ele>2693</ele>
        <time>2014-01-11T10:01:54.000Z</time>
      </trkpt>
      <trkpt lat="45.18517" lon="6.37031">
        <ele>2693.1999511719</ele>
        <time>2014-01-11T10:01:55.000Z</time>
      </trkpt>
      <trkpt lat="45.18517" lon="6.37031">
        <ele>2693.3999023438</ele>
        <time>2014-01-11T10:01:56.000Z</time>
      </trkpt>
      <trkpt lat="45.18517" lon="6.37031">
        <ele>2693.3999023438</ele>
        <time>2014-01-11T10:01:57.000Z</time>
      </trkpt>
      <trkpt lat="45.18517" lon="6.37031">
        <ele>2693.6000976562</ele>
        <time>2014-01-11T10:01:58.000Z</time>
      </trkpt>
      <trkpt lat="45.18516" lon="6.37032">
        <ele>2693.6000976562</ele>
        <time>2014-01-11T10:01:59.000Z</time>
      </trkpt>
      <trkpt lat="45.18516" lon="6.37033">
        <ele>2693.6000976562</ele>
        <time>2014-01-11T10:02:00.000Z</time>
      </trkpt>
      <trkpt lat="45.18516" lon="6.37034">
        <ele>2693.6000976562</ele>
        <time>2014-01-11T10:02:01.000Z</time>
      </trkpt>
      <trkpt lat="45.18516" lon="6.37034">
        <ele>2693.8000488281</ele>
        <time>2014-01-11T10:02:02.000Z</time>
      </trkpt>
      <trkpt lat="45.18516" lon="6.37035">
        <ele>2693.8000488281</ele>
        <time>2014-01-11T10:02:03.000Z</time>
      </trkpt>
      <trkpt lat="45.18517" lon="6.37036">
        <ele>2694</ele>
        <time>2014-01-11T10:02:04.000Z</time>
      </trkpt>
      <trkpt lat="45.18516" lon="6.37037">
        <ele>2694.1999511719</ele>
        <time>2014-01-11T10:02:05.000Z</time>
      </trkpt>
      <trkpt lat="45.18516" lon="6.37038">
        <ele>2694.3999023438</ele>
        <time>2014-01-11T10:02:06.000Z</time>
      </trkpt>
      <trkpt lat="45.18516" lon="6.37039">
        <ele>2694.3999023438</ele>
        <time>2014-01-11T10:02:07.000Z</time>
      </trkpt>
      <trkpt lat="45.18516" lon="6.3704">
        <ele>2694.6000976562</ele>
        <time>2014-01-11T10:02:08.000Z</time>
      </trkpt>
      <trkpt lat="45.18516" lon="6.37041">
        <ele>2694.8000488281</ele>
        <time>2014-01-11T10:02:09.000Z</time>
      </trkpt>
      <trkpt lat="45.18516" lon="6.37042">
        <ele>2695</ele>
        <time>2014-01-11T10:02:10.000Z</time>
      </trkpt>
      <trkpt lat="45.18515" lon="6.37043">
        <ele>2695.1999511719</ele>
        <time>2014-01-11T10:02:11.000Z</time>
      </trkpt>
      <trkpt lat="45.18515" lon="6.37043">
        <ele>2695.1999511719</ele>
        <time>2014-01-11T10:02:12.000Z</time>
      </trkpt>
      <trkpt lat="45.18515" lon="6.37044">
        <ele>2695.3999023438</ele>
        <time>2014-01-11T10:02:13.000Z</time>
      </trkpt>
      <trkpt lat="45.18515" lon="6.37045">
        <ele>2695.6000976562</ele>
        <time>2014-01-11T10:02:14.000Z</time>
      </trkpt>
      <trkpt lat="45.18515" lon="6.37046">
        <ele>2695.8000488281</ele>
        <time>2014-01-11T10:02:15.000Z</time>
      </trkpt>
      <trkpt lat="45.18515" lon="6.37046">
        <ele>2695.8000488281</ele>
        <time>2014-01-11T10:02:16.000Z</time>
      </trkpt>
      <trkpt lat="45.18515" lon="6.37047">
        <ele>2696</ele>
        <time>2014-01-11T10:02:17.000Z</time>
      </trkpt>
      <trkpt lat="45.18515" lon="6.37048">
        <ele>2696.1999511719</ele>
        <time>2014-01-11T10:02:18.000Z</time>
      </trkpt>
      <trkpt lat="45.18514" lon="6.37048">
        <ele>2696.1999511719</ele>
        <time>2014-01-11T10:02:19.000Z</time>
      </trkpt>
      <trkpt lat="45.18514" lon="6.37049">
        <ele>2696.3999023438</ele>
        <time>2014-01-11T10:02:20.000Z</time>
      </trkpt>
      <trkpt lat="45.18514" lon="6.3705">
        <ele>2696.3999023438</ele>
        <time>2014-01-11T10:02:21.000Z</time>
      </trkpt>
      <trkpt lat="45.18514" lon="6.3705">
        <ele>2696.6000976562</ele>
        <time>2014-01-11T10:02:22.000Z</time>
      </trkpt>
      <trkpt lat="45.18514" lon="6.37051">
        <ele>2696.8000488281</ele>
        <time>2014-01-11T10:02:23.000Z</time>
      </trkpt>
      <trkpt lat="45.18515" lon="6.37051">
        <ele>2696.8000488281</ele>
        <time>2014-01-11T10:02:24.000Z</time>
      </trkpt>
      <trkpt lat="45.18515" lon="6.37051">
        <ele>2697</ele>
        <time>2014-01-11T10:02:25.000Z</time>
      </trkpt>
      <trkpt lat="45.18515" lon="6.37052">
        <ele>2697</ele>
        <time>2014-01-11T10:02:26.000Z</time>
      </trkpt>
      <trkpt lat="45.18515" lon="6.37053">
        <ele>2697.1999511719</ele>
        <time>2014-01-11T10:02:27.000Z</time>
      </trkpt>
      <trkpt lat="45.18515" lon="6.37054">
        <ele>2697.1999511719</ele>
        <time>2014-01-11T10:02:28.000Z</time>
      </trkpt>
      <trkpt lat="45.18515" lon="6.37055">
        <ele>2697.3999023438</ele>
        <time>2014-01-11T10:02:29.000Z</time>
      </trkpt>
      <trkpt lat="45.18515" lon="6.37055">
        <ele>2697.3999023438</ele>
        <time>2014-01-11T10:02:30.000Z</time>
      </trkpt>
      <trkpt lat="45.18515" lon="6.37056">
        <ele>2697.6000976562</ele>
        <time>2014-01-11T10:02:31.000Z</time>
      </trkpt>
      <trkpt lat="45.18515" lon="6.37056">
        <ele>2697.6000976562</ele>
        <time>2014-01-11T10:02:32.000Z</time>
      </trkpt>
      <trkpt lat="45.18514" lon="6.37057">
        <ele>2697.8000488281</ele>
        <time>2014-01-11T10:02:33.000Z</time>
      </trkpt>
      <trkpt lat="45.18514" lon="6.37058">
        <ele>2698</ele>
        <time>2014-01-11T10:02:34.000Z</time>
      </trkpt>
      <trkpt lat="45.18514" lon="6.37059">
        <ele>2698.1999511719</ele>
        <time>2014-01-11T10:02:35.000Z</time>
      </trkpt>
      <trkpt lat="45.18514" lon="6.3706">
        <ele>2698.3999023438</ele>
        <time>2014-01-11T10:02:36.000Z</time>
      </trkpt>
      <trkpt lat="45.18514" lon="6.37061">
        <ele>2698.6000976562</ele>
        <time>2014-01-11T10:02:37.000Z</time>
      </trkpt>
      <trkpt lat="45.18514" lon="6.37061">
        <ele>2698.6000976562</ele>
        <time>2014-01-11T10:02:38.000Z</time>
      </trkpt>
      <trkpt lat="45.18514" lon="6.37062">
        <ele>2698.8000488281</ele>
        <time>2014-01-11T10:02:39.000Z</time>
      </trkpt>
      <trkpt lat="45.18514" lon="6.37063">
        <ele>2699</ele>
        <time>2014-01-11T10:02:40.000Z</time>
      </trkpt>
      <trkpt lat="45.18514" lon="6.37064">
        <ele>2699.1999511719</ele>
        <time>2014-01-11T10:02:41.000Z</time>
      </trkpt>
      <trkpt lat="45.18514" lon="6.37065">
        <ele>2699.1999511719</ele>
        <time>2014-01-11T10:02:42.000Z</time>
      </trkpt>
      <trkpt lat="45.18514" lon="6.37066">
        <ele>2699.1999511719</ele>
        <time>2014-01-11T10:02:43.000Z</time>
      </trkpt>
      <trkpt lat="45.18514" lon="6.37067">
        <ele>2699.3999023438</ele>
        <time>2014-01-11T10:02:44.000Z</time>
      </trkpt>
      <trkpt lat="45.18514" lon="6.37067">
        <ele>2699.3999023438</ele>
        <time>2014-01-11T10:02:45.000Z</time>
      </trkpt>
      <trkpt lat="45.18514" lon="6.37068">
        <ele>2699.3999023438</ele>
        <time>2014-01-11T10:02:46.000Z</time>
      </trkpt>
      <trkpt lat="45.18514" lon="6.37068">
        <ele>2699.6000976562</ele>
        <time>2014-01-11T10:02:47.000Z</time>
      </trkpt>
      <trkpt lat="45.18514" lon="6.37069">
        <ele>2699.6000976562</ele>
        <time>2014-01-11T10:02:48.000Z</time>
      </trkpt>
      <trkpt lat="45.18514" lon="6.3707">
        <ele>2699.8000488281</ele>
        <time>2014-01-11T10:02:49.000Z</time>
      </trkpt>
      <trkpt lat="45.18513" lon="6.37071">
        <ele>2699.8000488281</ele>
        <time>2014-01-11T10:02:50.000Z</time>
      </trkpt>
      <trkpt lat="45.18513" lon="6.37072">
        <ele>2700</ele>
        <time>2014-01-11T10:02:51.000Z</time>
      </trkpt>
      <trkpt lat="45.18513" lon="6.37072">
        <ele>2700</ele>
        <time>2014-01-11T10:02:52.000Z</time>
      </trkpt>
      <trkpt lat="45.18512" lon="6.37073">
        <ele>2700.1999511719</ele>
        <time>2014-01-11T10:02:53.000Z</time>
      </trkpt>
      <trkpt lat="45.18512" lon="6.37074">
        <ele>2700.3999023438</ele>
        <time>2014-01-11T10:02:54.000Z</time>
      </trkpt>
      <trkpt lat="45.18512" lon="6.37074">
        <ele>2700.3999023438</ele>
        <time>2014-01-11T10:02:55.000Z</time>
      </trkpt>
      <trkpt lat="45.18511" lon="6.37075">
        <ele>2700.6000976562</ele>
        <time>2014-01-11T10:02:56.000Z</time>
      </trkpt>
      <trkpt lat="45.18511" lon="6.37075">
        <ele>2700.8000488281</ele>
        <time>2014-01-11T10:02:57.000Z</time>
      </trkpt>
      <trkpt lat="45.18511" lon="6.37076">
        <ele>2701</ele>
        <time>2014-01-11T10:02:58.000Z</time>
      </trkpt>
      <trkpt lat="45.1851" lon="6.37077">
        <ele>2701.1999511719</ele>
        <time>2014-01-11T10:02:59.000Z</time>
      </trkpt>
      <trkpt lat="45.1851" lon="6.37077">
        <ele>2701.1999511719</ele>
        <time>2014-01-11T10:03:00.000Z</time>
      </trkpt>
      <trkpt lat="45.18509" lon="6.37078">
        <ele>2701.3999023438</ele>
        <time>2014-01-11T10:03:01.000Z</time>
      </trkpt>
      <trkpt lat="45.18509" lon="6.37078">
        <ele>2701.6000976562</ele>
        <time>2014-01-11T10:03:02.000Z</time>
      </trkpt>
      <trkpt lat="45.18509" lon="6.37078">
        <ele>2701.6000976562</ele>
        <time>2014-01-11T10:03:03.000Z</time>
      </trkpt>
      <trkpt lat="45.18508" lon="6.37079">
        <ele>2701.8000488281</ele>
        <time>2014-01-11T10:03:04.000Z</time>
      </trkpt>
      <trkpt lat="45.18508" lon="6.37079">
        <ele>2702</ele>
        <time>2014-01-11T10:03:05.000Z</time>
      </trkpt>
      <trkpt lat="45.18507" lon="6.37079">
        <ele>2702.1999511719</ele>
        <time>2014-01-11T10:03:06.000Z</time>
      </trkpt>
      <trkpt lat="45.18507" lon="6.37079">
        <ele>2702.3999023438</ele>
        <time>2014-01-11T10:03:07.000Z</time>
      </trkpt>
      <trkpt lat="45.18506" lon="6.3708">
        <ele>2702.6000976562</ele>
        <time>2014-01-11T10:03:08.000Z</time>
      </trkpt>
      <trkpt lat="45.18505" lon="6.3708">
        <ele>2702.8000488281</ele>
        <time>2014-01-11T10:03:09.000Z</time>
      </trkpt>
      <trkpt lat="45.18505" lon="6.3708">
        <ele>2703</ele>
        <time>2014-01-11T10:03:10.000Z</time>
      </trkpt>
      <trkpt lat="45.18504" lon="6.3708">
        <ele>2703.1999511719</ele>
        <time>2014-01-11T10:03:11.000Z</time>
      </trkpt>
      <trkpt lat="45.18504" lon="6.3708">
        <ele>2703.1999511719</ele>
        <time>2014-01-11T10:03:12.000Z</time>
      </trkpt>
      <trkpt lat="45.18503" lon="6.3708">
        <ele>2703.3999023438</ele>
        <time>2014-01-11T10:03:13.000Z</time>
      </trkpt>
      <trkpt lat="45.18503" lon="6.37079">
        <ele>2703.6000976562</ele>
        <time>2014-01-11T10:03:14.000Z</time>
      </trkpt>
      <trkpt lat="45.18502" lon="6.37079">
        <ele>2703.6000976562</ele>
        <time>2014-01-11T10:03:15.000Z</time>
      </trkpt>
      <trkpt lat="45.18501" lon="6.37078">
        <ele>2703.8000488281</ele>
        <time>2014-01-11T10:03:16.000Z</time>
      </trkpt>
      <trkpt lat="45.18501" lon="6.37078">
        <ele>2704</ele>
        <time>2014-01-11T10:03:17.000Z</time>
      </trkpt>
      <trkpt lat="45.185" lon="6.37078">
        <ele>2704</ele>
        <time>2014-01-11T10:03:18.000Z</time>
      </trkpt>
      <trkpt lat="45.185" lon="6.37077">
        <ele>2704.1999511719</ele>
        <time>2014-01-11T10:03:19.000Z</time>
      </trkpt>
      <trkpt lat="45.185" lon="6.37077">
        <ele>2704.1999511719</ele>
        <time>2014-01-11T10:03:20.000Z</time>
      </trkpt>
      <trkpt lat="45.185" lon="6.37077">
        <ele>2704.3999023438</ele>
        <time>2014-01-11T10:03:21.000Z</time>
      </trkpt>
      <trkpt lat="45.18499" lon="6.37077">
        <ele>2704.8000488281</ele>
        <time>2014-01-11T10:03:22.000Z</time>
      </trkpt>
      <trkpt lat="45.18498" lon="6.37077">
        <ele>2705</ele>
        <time>2014-01-11T10:03:23.000Z</time>
      </trkpt>
      <trkpt lat="45.18498" lon="6.37076">
        <ele>2705.1999511719</ele>
        <time>2014-01-11T10:03:24.000Z</time>
      </trkpt>
      <trkpt lat="45.18497" lon="6.37076">
        <ele>2705.3999023438</ele>
        <time>2014-01-11T10:03:25.000Z</time>
      </trkpt>
      <trkpt lat="45.18497" lon="6.37076">
        <ele>2705.6000976562</ele>
        <time>2014-01-11T10:03:26.000Z</time>
      </trkpt>
      <trkpt lat="45.18497" lon="6.37076">
        <ele>2705.8000488281</ele>
        <time>2014-01-11T10:03:27.000Z</time>
      </trkpt>
      <trkpt lat="45.18497" lon="6.37076">
        <ele>2706</ele>
        <time>2014-01-11T10:03:28.000Z</time>
      </trkpt>
      <trkpt lat="45.18497" lon="6.37076">
        <ele>2706</ele>
        <time>2014-01-11T10:03:29.000Z</time>
      </trkpt>
      <trkpt lat="45.18496" lon="6.37076">
        <ele>2706.1999511719</ele>
        <time>2014-01-11T10:03:30.000Z</time>
      </trkpt>
      <trkpt lat="45.18496" lon="6.37076">
        <ele>2706.1999511719</ele>
        <time>2014-01-11T10:03:31.000Z</time>
      </trkpt>
      <trkpt lat="45.18495" lon="6.37076">
        <ele>2706.1999511719</ele>
        <time>2014-01-11T10:03:32.000Z</time>
      </trkpt>
      <trkpt lat="45.18495" lon="6.37076">
        <ele>2706.1999511719</ele>
        <time>2014-01-11T10:03:33.000Z</time>
      </trkpt>
      <trkpt lat="45.18494" lon="6.37076">
        <ele>2706.3999023438</ele>
        <time>2014-01-11T10:03:34.000Z</time>
      </trkpt>
      <trkpt lat="45.18492" lon="6.37075">
        <ele>2706.3999023438</ele>
        <time>2014-01-11T10:03:35.000Z</time>
      </trkpt>
      <trkpt lat="45.18492" lon="6.37075">
        <ele>2706.8000488281</ele>
        <time>2014-01-11T10:03:36.000Z</time>
      </trkpt>
      <trkpt lat="45.18491" lon="6.37075">
        <ele>2707</ele>
        <time>2014-01-11T10:03:37.000Z</time>
      </trkpt>
      <trkpt lat="45.1849" lon="6.37074">
        <ele>2707.3999023438</ele>
        <time>2014-01-11T10:03:38.000Z</time>
      </trkpt>
      <trkpt lat="45.1849" lon="6.37074">
        <ele>2707.3999023438</ele>
        <time>2014-01-11T10:03:39.000Z</time>
      </trkpt>
      <trkpt lat="45.1849" lon="6.37074">
        <ele>2707.6000976562</ele>
        <time>2014-01-11T10:03:40.000Z</time>
      </trkpt>
      <trkpt lat="45.18489" lon="6.37074">
        <ele>2707.8000488281</ele>
        <time>2014-01-11T10:03:41.000Z</time>
      </trkpt>
      <trkpt lat="45.18488" lon="6.37074">
        <ele>2708.1999511719</ele>
        <time>2014-01-11T10:03:42.000Z</time>
      </trkpt>
      <trkpt lat="45.18488" lon="6.37073">
        <ele>2708.3999023438</ele>
        <time>2014-01-11T10:03:43.000Z</time>
      </trkpt>
      <trkpt lat="45.18488" lon="6.37073">
        <ele>2708.6000976562</ele>
        <time>2014-01-11T10:03:44.000Z</time>
      </trkpt>
      <trkpt lat="45.18487" lon="6.37073">
        <ele>2708.6000976562</ele>
        <time>2014-01-11T10:03:45.000Z</time>
      </trkpt>
      <trkpt lat="45.18487" lon="6.37073">
        <ele>2709</ele>
        <time>2014-01-11T10:03:46.000Z</time>
      </trkpt>
      <trkpt lat="45.18487" lon="6.37073">
        <ele>2709.1999511719</ele>
        <time>2014-01-11T10:03:47.000Z</time>
      </trkpt>
      <trkpt lat="45.18487" lon="6.37073">
        <ele>2709.3999023438</ele>
        <time>2014-01-11T10:03:48.000Z</time>
      </trkpt>
      <trkpt lat="45.18487" lon="6.37073">
        <ele>2709.6000976562</ele>
        <time>2014-01-11T10:03:49.000Z</time>
      </trkpt>
      <trkpt lat="45.18486" lon="6.37073">
        <ele>2709.8000488281</ele>
        <time>2014-01-11T10:03:50.000Z</time>
      </trkpt>
      <trkpt lat="45.18486" lon="6.37073">
        <ele>2710</ele>
        <time>2014-01-11T10:03:51.000Z</time>
      </trkpt>
      <trkpt lat="45.18485" lon="6.37073">
        <ele>2710.1999511719</ele>
        <time>2014-01-11T10:03:52.000Z</time>
      </trkpt>
      <trkpt lat="45.18485" lon="6.37073">
        <ele>2710.6000976562</ele>
        <time>2014-01-11T10:03:53.000Z</time>
      </trkpt>
      <trkpt lat="45.18484" lon="6.37073">
        <ele>2710.6000976562</ele>
        <time>2014-01-11T10:03:54.000Z</time>
      </trkpt>
      <trkpt lat="45.18483" lon="6.37073">
        <ele>2710.8000488281</ele>
        <time>2014-01-11T10:03:55.000Z</time>
      </trkpt>
      <trkpt lat="45.18482" lon="6.37072">
        <ele>2711</ele>
        <time>2014-01-11T10:03:56.000Z</time>
      </trkpt>
      <trkpt lat="45.18482" lon="6.37073">
        <ele>2711</ele>
        <time>2014-01-11T10:03:57.000Z</time>
      </trkpt>
      <trkpt lat="45.18481" lon="6.37073">
        <ele>2711.1999511719</ele>
        <time>2014-01-11T10:03:58.000Z</time>
      </trkpt>
      <trkpt lat="45.18481" lon="6.37073">
        <ele>2711.3999023438</ele>
        <time>2014-01-11T10:03:59.000Z</time>
      </trkpt>
      <trkpt lat="45.18481" lon="6.37073">
        <ele>2711.6000976562</ele>
        <time>2014-01-11T10:04:00.000Z</time>
      </trkpt>
      <trkpt lat="45.1848" lon="6.37073">
        <ele>2711.8000488281</ele>
        <time>2014-01-11T10:04:01.000Z</time>
      </trkpt>
      <trkpt lat="45.1848" lon="6.37073">
        <ele>2711.8000488281</ele>
        <time>2014-01-11T10:04:02.000Z</time>
      </trkpt>
      <trkpt lat="45.1848" lon="6.37073">
        <ele>2712</ele>
        <time>2014-01-11T10:04:03.000Z</time>
      </trkpt>
      <trkpt lat="45.18479" lon="6.37073">
        <ele>2712.1999511719</ele>
        <time>2014-01-11T10:04:04.000Z</time>
      </trkpt>
      <trkpt lat="45.18479" lon="6.37073">
        <ele>2712.1999511719</ele>
        <time>2014-01-11T10:04:05.000Z</time>
      </trkpt>
      <trkpt lat="45.18479" lon="6.37072">
        <ele>2712.3999023438</ele>
        <time>2014-01-11T10:04:06.000Z</time>
      </trkpt>
      <trkpt lat="45.18479" lon="6.37072">
        <ele>2712.6000976562</ele>
        <time>2014-01-11T10:04:07.000Z</time>
      </trkpt>
      <trkpt lat="45.18479" lon="6.37072">
        <ele>2712.8000488281</ele>
        <time>2014-01-11T10:04:08.000Z</time>
      </trkpt>
      <trkpt lat="45.18478" lon="6.37073">
        <ele>2713</ele>
        <time>2014-01-11T10:04:09.000Z</time>
      </trkpt>
      <trkpt lat="45.18478" lon="6.37073">
        <ele>2713.1999511719</ele>
        <time>2014-01-11T10:04:10.000Z</time>
      </trkpt>
      <trkpt lat="45.18478" lon="6.37073">
        <ele>2713.3999023438</ele>
        <time>2014-01-11T10:04:11.000Z</time>
      </trkpt>
      <trkpt lat="45.18478" lon="6.37073">
        <ele>2713.6000976562</ele>
        <time>2014-01-11T10:04:12.000Z</time>
      </trkpt>
      <trkpt lat="45.18478" lon="6.37073">
        <ele>2713.8000488281</ele>
        <time>2014-01-11T10:04:13.000Z</time>
      </trkpt>
      <trkpt lat="45.18477" lon="6.37073">
        <ele>2714</ele>
        <time>2014-01-11T10:04:14.000Z</time>
      </trkpt>
      <trkpt lat="45.18476" lon="6.37073">
        <ele>2714.1999511719</ele>
        <time>2014-01-11T10:04:15.000Z</time>
      </trkpt>
      <trkpt lat="45.18476" lon="6.37073">
        <ele>2714.1999511719</ele>
        <time>2014-01-11T10:04:16.000Z</time>
      </trkpt>
      <trkpt lat="45.18476" lon="6.37073">
        <ele>2714.3999023438</ele>
        <time>2014-01-11T10:04:17.000Z</time>
      </trkpt>
      <trkpt lat="45.18475" lon="6.37073">
        <ele>2714.6000976562</ele>
        <time>2014-01-11T10:04:18.000Z</time>
      </trkpt>
      <trkpt lat="45.18475" lon="6.37073">
        <ele>2714.8000488281</ele>
        <time>2014-01-11T10:04:19.000Z</time>
      </trkpt>
      <trkpt lat="45.18475" lon="6.37073">
        <ele>2715</ele>
        <time>2014-01-11T10:04:20.000Z</time>
      </trkpt>
      <trkpt lat="45.18475" lon="6.37074">
        <ele>2715.1999511719</ele>
        <time>2014-01-11T10:04:21.000Z</time>
      </trkpt>
      <trkpt lat="45.18475" lon="6.37074">
        <ele>2715.3999023438</ele>
        <time>2014-01-11T10:04:22.000Z</time>
      </trkpt>
      <trkpt lat="45.18475" lon="6.37074">
        <ele>2715.6000976562</ele>
        <time>2014-01-11T10:04:23.000Z</time>
      </trkpt>
      <trkpt lat="45.18475" lon="6.37074">
        <ele>2715.6000976562</ele>
        <time>2014-01-11T10:04:24.000Z</time>
      </trkpt>
      <trkpt lat="45.18474" lon="6.37074">
        <ele>2715.6000976562</ele>
        <time>2014-01-11T10:04:25.000Z</time>
      </trkpt>
      <trkpt lat="45.18474" lon="6.37074">
        <ele>2715.6000976562</ele>
        <time>2014-01-11T10:04:26.000Z</time>
      </trkpt>
      <trkpt lat="45.18473" lon="6.37074">
        <ele>2715.6000976562</ele>
        <time>2014-01-11T10:04:27.000Z</time>
      </trkpt>
      <trkpt lat="45.18473" lon="6.37074">
        <ele>2715.8000488281</ele>
        <time>2014-01-11T10:04:28.000Z</time>
      </trkpt>
      <trkpt lat="45.18473" lon="6.37074">
        <ele>2715.8000488281</ele>
        <time>2014-01-11T10:04:29.000Z</time>
      </trkpt>
      <trkpt lat="45.18473" lon="6.37074">
        <ele>2716</ele>
        <time>2014-01-11T10:04:30.000Z</time>
      </trkpt>
      <trkpt lat="45.18473" lon="6.37074">
        <ele>2716.1999511719</ele>
        <time>2014-01-11T10:04:31.000Z</time>
      </trkpt>
      <trkpt lat="45.18472" lon="6.37073">
        <ele>2716.3999023438</ele>
        <time>2014-01-11T10:04:32.000Z</time>
      </trkpt>
      <trkpt lat="45.18472" lon="6.37073">
        <ele>2716.6000976562</ele>
        <time>2014-01-11T10:04:33.000Z</time>
      </trkpt>
      <trkpt lat="45.18472" lon="6.37073">
        <ele>2717</ele>
        <time>2014-01-11T10:04:34.000Z</time>
      </trkpt>
      <trkpt lat="45.18472" lon="6.37071">
        <ele>2717.1999511719</ele>
        <time>2014-01-11T10:04:35.000Z</time>
      </trkpt>
      <trkpt lat="45.18472" lon="6.37071">
        <ele>2717.1999511719</ele>
        <time>2014-01-11T10:04:36.000Z</time>
      </trkpt>
      <trkpt lat="45.18471" lon="6.3707">
        <ele>2717.3999023438</ele>
        <time>2014-01-11T10:04:37.000Z</time>
      </trkpt>
      <trkpt lat="45.18471" lon="6.3707">
        <ele>2717.6000976562</ele>
        <time>2014-01-11T10:04:38.000Z</time>
      </trkpt>
      <trkpt lat="45.1847" lon="6.37068">
        <ele>2717.8000488281</ele>
        <time>2014-01-11T10:04:39.000Z</time>
      </trkpt>
      <trkpt lat="45.1847" lon="6.37068">
        <ele>2718</ele>
        <time>2014-01-11T10:04:40.000Z</time>
      </trkpt>
      <trkpt lat="45.1847" lon="6.37067">
        <ele>2718.1999511719</ele>
        <time>2014-01-11T10:04:41.000Z</time>
      </trkpt>
      <trkpt lat="45.1847" lon="6.37066">
        <ele>2718.3999023438</ele>
        <time>2014-01-11T10:04:42.000Z</time>
      </trkpt>
      <trkpt lat="45.1847" lon="6.37065">
        <ele>2718.8000488281</ele>
        <time>2014-01-11T10:04:43.000Z</time>
      </trkpt>
      <trkpt lat="45.1847" lon="6.37064">
        <ele>2719</ele>
        <time>2014-01-11T10:04:44.000Z</time>
      </trkpt>
      <trkpt lat="45.1847" lon="6.37064">
        <ele>2719.1999511719</ele>
        <time>2014-01-11T10:04:45.000Z</time>
      </trkpt>
      <trkpt lat="45.1847" lon="6.37063">
        <ele>2719.3999023438</ele>
        <time>2014-01-11T10:04:46.000Z</time>
      </trkpt>
      <trkpt lat="45.1847" lon="6.37062">
        <ele>2719.6000976562</ele>
        <time>2014-01-11T10:04:47.000Z</time>
      </trkpt>
      <trkpt lat="45.1847" lon="6.37062">
        <ele>2719.8000488281</ele>
        <time>2014-01-11T10:04:48.000Z</time>
      </trkpt>
      <trkpt lat="45.18469" lon="6.37061">
        <ele>2719.8000488281</ele>
        <time>2014-01-11T10:04:49.000Z</time>
      </trkpt>
      <trkpt lat="45.18469" lon="6.37061">
        <ele>2720</ele>
        <time>2014-01-11T10:04:50.000Z</time>
      </trkpt>
      <trkpt lat="45.18469" lon="6.3706">
        <ele>2720.1999511719</ele>
        <time>2014-01-11T10:04:51.000Z</time>
      </trkpt>
      <trkpt lat="45.18469" lon="6.3706">
        <ele>2720.3999023438</ele>
        <time>2014-01-11T10:04:52.000Z</time>
      </trkpt>
      <trkpt lat="45.1847" lon="6.37059">
        <ele>2720.6000976562</ele>
        <time>2014-01-11T10:04:53.000Z</time>
      </trkpt>
      <trkpt lat="45.1847" lon="6.37059">
        <ele>2720.8000488281</ele>
        <time>2014-01-11T10:04:54.000Z</time>
      </trkpt>
      <trkpt lat="45.1847" lon="6.37059">
        <ele>2721</ele>
        <time>2014-01-11T10:04:55.000Z</time>
      </trkpt>
      <trkpt lat="45.1847" lon="6.37059">
        <ele>2721.3999023438</ele>
        <time>2014-01-11T10:04:56.000Z</time>
      </trkpt>
      <trkpt lat="45.18469" lon="6.37058">
        <ele>2721.6000976562</ele>
        <time>2014-01-11T10:04:57.000Z</time>
      </trkpt>
      <trkpt lat="45.18469" lon="6.37057">
        <ele>2721.8000488281</ele>
        <time>2014-01-11T10:04:58.000Z</time>
      </trkpt>
      <trkpt lat="45.18469" lon="6.37056">
        <ele>2722.1999511719</ele>
        <time>2014-01-11T10:04:59.000Z</time>
      </trkpt>
      <trkpt lat="45.18469" lon="6.37056">
        <ele>2722.3999023438</ele>
        <time>2014-01-11T10:05:00.000Z</time>
      </trkpt>
      <trkpt lat="45.18469" lon="6.37055">
        <ele>2722.6000976562</ele>
        <time>2014-01-11T10:05:01.000Z</time>
      </trkpt>
      <trkpt lat="45.18469" lon="6.37055">
        <ele>2722.8000488281</ele>
        <time>2014-01-11T10:05:02.000Z</time>
      </trkpt>
      <trkpt lat="45.18469" lon="6.37055">
        <ele>2723</ele>
        <time>2014-01-11T10:05:03.000Z</time>
      </trkpt>
      <trkpt lat="45.18469" lon="6.37055">
        <ele>2723</ele>
        <time>2014-01-11T10:05:04.000Z</time>
      </trkpt>
      <trkpt lat="45.18469" lon="6.37055">
        <ele>2723.1999511719</ele>
        <time>2014-01-11T10:05:05.000Z</time>
      </trkpt>
      <trkpt lat="45.18469" lon="6.37055">
        <ele>2723.3999023438</ele>
        <time>2014-01-11T10:05:06.000Z</time>
      </trkpt>
      <trkpt lat="45.18468" lon="6.37055">
        <ele>2723.3999023438</ele>
        <time>2014-01-11T10:05:07.000Z</time>
      </trkpt>
      <trkpt lat="45.18467" lon="6.37055">
        <ele>2723.6000976562</ele>
        <time>2014-01-11T10:05:08.000Z</time>
      </trkpt>
      <trkpt lat="45.18467" lon="6.37055">
        <ele>2723.6000976562</ele>
        <time>2014-01-11T10:05:09.000Z</time>
      </trkpt>
      <trkpt lat="45.18465" lon="6.37055">
        <ele>2723.8000488281</ele>
        <time>2014-01-11T10:05:10.000Z</time>
      </trkpt>
      <trkpt lat="45.18465" lon="6.37055">
        <ele>2724.1999511719</ele>
        <time>2014-01-11T10:05:11.000Z</time>
      </trkpt>
      <trkpt lat="45.18464" lon="6.37055">
        <ele>2724.3999023438</ele>
        <time>2014-01-11T10:05:12.000Z</time>
      </trkpt>
      <trkpt lat="45.18464" lon="6.37054">
        <ele>2724.6000976562</ele>
        <time>2014-01-11T10:05:13.000Z</time>
      </trkpt>
      <trkpt lat="45.18463" lon="6.37054">
        <ele>2724.8000488281</ele>
        <time>2014-01-11T10:05:14.000Z</time>
      </trkpt>
      <trkpt lat="45.18463" lon="6.37054">
        <ele>2725</ele>
        <time>2014-01-11T10:05:15.000Z</time>
      </trkpt>
      <trkpt lat="45.18461" lon="6.37054">
        <ele>2725.1999511719</ele>
        <time>2014-01-11T10:05:16.000Z</time>
      </trkpt>
      <trkpt lat="45.18461" lon="6.37054">
        <ele>2725.1999511719</ele>
        <time>2014-01-11T10:05:17.000Z</time>
      </trkpt>
      <trkpt lat="45.1846" lon="6.37055">
        <ele>2725.3999023438</ele>
        <time>2014-01-11T10:05:18.000Z</time>
      </trkpt>
      <trkpt lat="45.1846" lon="6.37055">
        <ele>2725.6000976562</ele>
        <time>2014-01-11T10:05:19.000Z</time>
      </trkpt>
      <trkpt lat="45.1846" lon="6.37055">
        <ele>2725.8000488281</ele>
        <time>2014-01-11T10:05:20.000Z</time>
      </trkpt>
      <trkpt lat="45.18459" lon="6.37055">
        <ele>2725.8000488281</ele>
        <time>2014-01-11T10:05:21.000Z</time>
      </trkpt>
      <trkpt lat="45.18458" lon="6.37055">
        <ele>2726</ele>
        <time>2014-01-11T10:05:22.000Z</time>
      </trkpt>
      <trkpt lat="45.18458" lon="6.37055">
        <ele>2726.3999023438</ele>
        <time>2014-01-11T10:05:23.000Z</time>
      </trkpt>
      <trkpt lat="45.18457" lon="6.37055">
        <ele>2726.3999023438</ele>
        <time>2014-01-11T10:05:24.000Z</time>
      </trkpt>
      <trkpt lat="45.18456" lon="6.37054">
        <ele>2726.6000976562</ele>
        <time>2014-01-11T10:05:25.000Z</time>
      </trkpt>
      <trkpt lat="45.18455" lon="6.37055">
        <ele>2726.8000488281</ele>
        <time>2014-01-11T10:05:26.000Z</time>
      </trkpt>
      <trkpt lat="45.18455" lon="6.37054">
        <ele>2727</ele>
        <time>2014-01-11T10:05:27.000Z</time>
      </trkpt>
      <trkpt lat="45.18454" lon="6.37055">
        <ele>2727.1999511719</ele>
        <time>2014-01-11T10:05:28.000Z</time>
      </trkpt>
      <trkpt lat="45.18454" lon="6.37054">
        <ele>2727.3999023438</ele>
        <time>2014-01-11T10:05:29.000Z</time>
      </trkpt>
      <trkpt lat="45.18452" lon="6.37055">
        <ele>2727.6000976562</ele>
        <time>2014-01-11T10:05:30.000Z</time>
      </trkpt>
      <trkpt lat="45.18453" lon="6.37055">
        <ele>2727.8000488281</ele>
        <time>2014-01-11T10:05:31.000Z</time>
      </trkpt>
      <trkpt lat="45.18452" lon="6.37055">
        <ele>2728</ele>
        <time>2014-01-11T10:05:32.000Z</time>
      </trkpt>
      <trkpt lat="45.18451" lon="6.37055">
        <ele>2728.1999511719</ele>
        <time>2014-01-11T10:05:33.000Z</time>
      </trkpt>
      <trkpt lat="45.1845" lon="6.37055">
        <ele>2728.3999023438</ele>
        <time>2014-01-11T10:05:34.000Z</time>
      </trkpt>
      <trkpt lat="45.1845" lon="6.37055">
        <ele>2728.6000976562</ele>
        <time>2014-01-11T10:05:35.000Z</time>
      </trkpt>
      <trkpt lat="45.18449" lon="6.37056">
        <ele>2728.8000488281</ele>
        <time>2014-01-11T10:05:36.000Z</time>
      </trkpt>
      <trkpt lat="45.18449" lon="6.37056">
        <ele>2729</ele>
        <time>2014-01-11T10:05:37.000Z</time>
      </trkpt>
      <trkpt lat="45.18447" lon="6.37056">
        <ele>2729.1999511719</ele>
        <time>2014-01-11T10:05:38.000Z</time>
      </trkpt>
      <trkpt lat="45.18448" lon="6.37056">
        <ele>2729.3999023438</ele>
        <time>2014-01-11T10:05:39.000Z</time>
      </trkpt>
      <trkpt lat="45.18447" lon="6.37057">
        <ele>2729.6000976562</ele>
        <time>2014-01-11T10:05:40.000Z</time>
      </trkpt>
      <trkpt lat="45.18447" lon="6.37057">
        <ele>2729.6000976562</ele>
        <time>2014-01-11T10:05:41.000Z</time>
      </trkpt>
      <trkpt lat="45.18447" lon="6.37058">
        <ele>2729.8000488281</ele>
        <time>2014-01-11T10:05:42.000Z</time>
      </trkpt>
      <trkpt lat="45.18447" lon="6.37058">
        <ele>2730</ele>
        <time>2014-01-11T10:05:43.000Z</time>
      </trkpt>
      <trkpt lat="45.18446" lon="6.37058">
        <ele>2730.1999511719</ele>
        <time>2014-01-11T10:05:44.000Z</time>
      </trkpt>
      <trkpt lat="45.18446" lon="6.37059">
        <ele>2730.1999511719</ele>
        <time>2014-01-11T10:05:45.000Z</time>
      </trkpt>
      <trkpt lat="45.18445" lon="6.37059">
        <ele>2730.3999023438</ele>
        <time>2014-01-11T10:05:46.000Z</time>
      </trkpt>
      <trkpt lat="45.18445" lon="6.3706">
        <ele>2730.6000976562</ele>
        <time>2014-01-11T10:05:47.000Z</time>
      </trkpt>
      <trkpt lat="45.18444" lon="6.37061">
        <ele>2730.8000488281</ele>
        <time>2014-01-11T10:05:48.000Z</time>
      </trkpt>
      <trkpt lat="45.18444" lon="6.37061">
        <ele>2731</ele>
        <time>2014-01-11T10:05:49.000Z</time>
      </trkpt>
      <trkpt lat="45.18443" lon="6.37061">
        <ele>2731</ele>
        <time>2014-01-11T10:05:50.000Z</time>
      </trkpt>
      <trkpt lat="45.18442" lon="6.37061">
        <ele>2731.1999511719</ele>
        <time>2014-01-11T10:05:51.000Z</time>
      </trkpt>
      <trkpt lat="45.18442" lon="6.37061">
        <ele>2731.3999023438</ele>
        <time>2014-01-11T10:05:52.000Z</time>
      </trkpt>
      <trkpt lat="45.18441" lon="6.37062">
        <ele>2731.6000976562</ele>
        <time>2014-01-11T10:05:53.000Z</time>
      </trkpt>
      <trkpt lat="45.18441" lon="6.37063">
        <ele>2731.8000488281</ele>
        <time>2014-01-11T10:05:54.000Z</time>
      </trkpt>
      <trkpt lat="45.1844" lon="6.37063">
        <ele>2732</ele>
        <time>2014-01-11T10:05:55.000Z</time>
      </trkpt>
      <trkpt lat="45.1844" lon="6.37063">
        <ele>2732.1999511719</ele>
        <time>2014-01-11T10:05:56.000Z</time>
      </trkpt>
      <trkpt lat="45.18439" lon="6.37063">
        <ele>2732.6000976562</ele>
        <time>2014-01-11T10:05:57.000Z</time>
      </trkpt>
      <trkpt lat="45.18438" lon="6.37062">
        <ele>2732.8000488281</ele>
        <time>2014-01-11T10:05:58.000Z</time>
      </trkpt>
      <trkpt lat="45.18438" lon="6.37062">
        <ele>2733</ele>
        <time>2014-01-11T10:05:59.000Z</time>
      </trkpt>
      <trkpt lat="45.18437" lon="6.37063">
        <ele>2733.1999511719</ele>
        <time>2014-01-11T10:06:00.000Z</time>
      </trkpt>
      <trkpt lat="45.18436" lon="6.37063">
        <ele>2733.3999023438</ele>
        <time>2014-01-11T10:06:01.000Z</time>
      </trkpt>
      <trkpt lat="45.18436" lon="6.37063">
        <ele>2733.6000976562</ele>
        <time>2014-01-11T10:06:02.000Z</time>
      </trkpt>
      <trkpt lat="45.18434" lon="6.37064">
        <ele>2733.8000488281</ele>
        <time>2014-01-11T10:06:03.000Z</time>
      </trkpt>
      <trkpt lat="45.18435" lon="6.37064">
        <ele>2734</ele>
        <time>2014-01-11T10:06:04.000Z</time>
      </trkpt>
      <trkpt lat="45.18434" lon="6.37064">
        <ele>2734.1999511719</ele>
        <time>2014-01-11T10:06:05.000Z</time>
      </trkpt>
      <trkpt lat="45.18434" lon="6.37064">
        <ele>2734.1999511719</ele>
        <time>2014-01-11T10:06:06.000Z</time>
      </trkpt>
      <trkpt lat="45.18434" lon="6.37064">
        <ele>2734.3999023438</ele>
        <time>2014-01-11T10:06:07.000Z</time>
      </trkpt>
      <trkpt lat="45.18434" lon="6.37065">
        <ele>2734.6000976562</ele>
        <time>2014-01-11T10:06:08.000Z</time>
      </trkpt>
      <trkpt lat="45.18432" lon="6.37066">
        <ele>2734.6000976562</ele>
        <time>2014-01-11T10:06:09.000Z</time>
      </trkpt>
      <trkpt lat="45.18432" lon="6.37066">
        <ele>2734.8000488281</ele>
        <time>2014-01-11T10:06:10.000Z</time>
      </trkpt>
      <trkpt lat="45.18432" lon="6.37066">
        <ele>2735.1999511719</ele>
        <time>2014-01-11T10:06:11.000Z</time>
      </trkpt>
      <trkpt lat="45.18432" lon="6.37067">
        <ele>2735.1999511719</ele>
        <time>2014-01-11T10:06:12.000Z</time>
      </trkpt>
      <trkpt lat="45.18431" lon="6.37067">
        <ele>2735.3999023438</ele>
        <time>2014-01-11T10:06:13.000Z</time>
      </trkpt>
      <trkpt lat="45.18431" lon="6.37067">
        <ele>2735.6000976562</ele>
        <time>2014-01-11T10:06:14.000Z</time>
      </trkpt>
      <trkpt lat="45.18431" lon="6.37068">
        <ele>2735.8000488281</ele>
        <time>2014-01-11T10:06:15.000Z</time>
      </trkpt>
      <trkpt lat="45.18431" lon="6.37068">
        <ele>2735.8000488281</ele>
        <time>2014-01-11T10:06:16.000Z</time>
      </trkpt>
      <trkpt lat="45.18429" lon="6.37069">
        <ele>2736.1999511719</ele>
        <time>2014-01-11T10:06:17.000Z</time>
      </trkpt>
      <trkpt lat="45.18429" lon="6.37069">
        <ele>2736.3999023438</ele>
        <time>2014-01-11T10:06:18.000Z</time>
      </trkpt>
      <trkpt lat="45.18429" lon="6.3707">
        <ele>2736.6000976562</ele>
        <time>2014-01-11T10:06:19.000Z</time>
      </trkpt>
      <trkpt lat="45.18429" lon="6.3707">
        <ele>2737</ele>
        <time>2014-01-11T10:06:20.000Z</time>
      </trkpt>
      <trkpt lat="45.18428" lon="6.37071">
        <ele>2737.1999511719</ele>
        <time>2014-01-11T10:06:21.000Z</time>
      </trkpt>
      <trkpt lat="45.18428" lon="6.37071">
        <ele>2737.3999023438</ele>
        <time>2014-01-11T10:06:22.000Z</time>
      </trkpt>
      <trkpt lat="45.18426" lon="6.37072">
        <ele>2737.6000976562</ele>
        <time>2014-01-11T10:06:23.000Z</time>
      </trkpt>
      <trkpt lat="45.18426" lon="6.37072">
        <ele>2737.8000488281</ele>
        <time>2014-01-11T10:06:24.000Z</time>
      </trkpt>
      <trkpt lat="45.18426" lon="6.37072">
        <ele>2738</ele>
        <time>2014-01-11T10:06:25.000Z</time>
      </trkpt>
      <trkpt lat="45.18426" lon="6.37072">
        <ele>2738.1999511719</ele>
        <time>2014-01-11T10:06:26.000Z</time>
      </trkpt>
      <trkpt lat="45.18425" lon="6.37073">
        <ele>2738.1999511719</ele>
        <time>2014-01-11T10:06:27.000Z</time>
      </trkpt>
      <trkpt lat="45.18425" lon="6.37073">
        <ele>2738.3999023438</ele>
        <time>2014-01-11T10:06:28.000Z</time>
      </trkpt>
      <trkpt lat="45.18424" lon="6.37073">
        <ele>2738.3999023438</ele>
        <time>2014-01-11T10:06:29.000Z</time>
      </trkpt>
      <trkpt lat="45.18424" lon="6.37073">
        <ele>2738.3999023438</ele>
        <time>2014-01-11T10:06:30.000Z</time>
      </trkpt>
      <trkpt lat="45.18423" lon="6.37074">
        <ele>2738.3999023438</ele>
        <time>2014-01-11T10:06:31.000Z</time>
      </trkpt>
      <trkpt lat="45.18422" lon="6.37074">
        <ele>2738.3999023438</ele>
        <time>2014-01-11T10:06:32.000Z</time>
      </trkpt>
      <trkpt lat="45.18422" lon="6.37074">
        <ele>2738.6000976562</ele>
        <time>2014-01-11T10:06:33.000Z</time>
      </trkpt>
      <trkpt lat="45.18421" lon="6.37074">
        <ele>2738.6000976562</ele>
        <time>2014-01-11T10:06:34.000Z</time>
      </trkpt>
      <trkpt lat="45.18421" lon="6.37075">
        <ele>2738.8000488281</ele>
        <time>2014-01-11T10:06:35.000Z</time>
      </trkpt>
      <trkpt lat="45.18421" lon="6.37075">
        <ele>2739</ele>
        <time>2014-01-11T10:06:36.000Z</time>
      </trkpt>
      <trkpt lat="45.1842" lon="6.37076">
        <ele>2739</ele>
        <time>2014-01-11T10:06:37.000Z</time>
      </trkpt>
      <trkpt lat="45.1842" lon="6.37076">
        <ele>2739.3999023438</ele>
        <time>2014-01-11T10:06:38.000Z</time>
      </trkpt>
      <trkpt lat="45.1842" lon="6.37077">
        <ele>2739.6000976562</ele>
        <time>2014-01-11T10:06:39.000Z</time>
      </trkpt>
      <trkpt lat="45.1842" lon="6.37077">
        <ele>2739.8000488281</ele>
        <time>2014-01-11T10:06:40.000Z</time>
      </trkpt>
      <trkpt lat="45.18419" lon="6.37078">
        <ele>2740</ele>
        <time>2014-01-11T10:06:41.000Z</time>
      </trkpt>
      <trkpt lat="45.18419" lon="6.37079">
        <ele>2740.1999511719</ele>
        <time>2014-01-11T10:06:42.000Z</time>
      </trkpt>
      <trkpt lat="45.18419" lon="6.3708">
        <ele>2740.3999023438</ele>
        <time>2014-01-11T10:06:43.000Z</time>
      </trkpt>
      <trkpt lat="45.18419" lon="6.3708">
        <ele>2740.6000976562</ele>
        <time>2014-01-11T10:06:44.000Z</time>
      </trkpt>
      <trkpt lat="45.18418" lon="6.3708">
        <ele>2740.8000488281</ele>
        <time>2014-01-11T10:06:45.000Z</time>
      </trkpt>
      <trkpt lat="45.18418" lon="6.3708">
        <ele>2741</ele>
        <time>2014-01-11T10:06:46.000Z</time>
      </trkpt>
      <trkpt lat="45.18417" lon="6.3708">
        <ele>2741</ele>
        <time>2014-01-11T10:06:47.000Z</time>
      </trkpt>
      <trkpt lat="45.18417" lon="6.37081">
        <ele>2741.1999511719</ele>
        <time>2014-01-11T10:06:48.000Z</time>
      </trkpt>
      <trkpt lat="45.18416" lon="6.37081">
        <ele>2741.1999511719</ele>
        <time>2014-01-11T10:06:49.000Z</time>
      </trkpt>
      <trkpt lat="45.18416" lon="6.37081">
        <ele>2741.1999511719</ele>
        <time>2014-01-11T10:06:50.000Z</time>
      </trkpt>
      <trkpt lat="45.18415" lon="6.37081">
        <ele>2741.3999023438</ele>
        <time>2014-01-11T10:06:51.000Z</time>
      </trkpt>
      <trkpt lat="45.18415" lon="6.37082">
        <ele>2741.6000976562</ele>
        <time>2014-01-11T10:06:52.000Z</time>
      </trkpt>
      <trkpt lat="45.18415" lon="6.37083">
        <ele>2741.6000976562</ele>
        <time>2014-01-11T10:06:53.000Z</time>
      </trkpt>
      <trkpt lat="45.18415" lon="6.37083">
        <ele>2741.8000488281</ele>
        <time>2014-01-11T10:06:54.000Z</time>
      </trkpt>
      <trkpt lat="45.18414" lon="6.37083">
        <ele>2742</ele>
        <time>2014-01-11T10:06:55.000Z</time>
      </trkpt>
      <trkpt lat="45.18414" lon="6.37083">
        <ele>2742.1999511719</ele>
        <time>2014-01-11T10:06:56.000Z</time>
      </trkpt>
      <trkpt lat="45.18413" lon="6.37083">
        <ele>2742.3999023438</ele>
        <time>2014-01-11T10:06:57.000Z</time>
      </trkpt>
      <trkpt lat="45.18413" lon="6.37083">
        <ele>2742.6000976562</ele>
        <time>2014-01-11T10:06:58.000Z</time>
      </trkpt>
      <trkpt lat="45.18413" lon="6.37084">
        <ele>2743</ele>
        <time>2014-01-11T10:06:59.000Z</time>
      </trkpt>
      <trkpt lat="45.18413" lon="6.37084">
        <ele>2743.1999511719</ele>
        <time>2014-01-11T10:07:00.000Z</time>
      </trkpt>
      <trkpt lat="45.18412" lon="6.37084">
        <ele>2743.3999023438</ele>
        <time>2014-01-11T10:07:01.000Z</time>
      </trkpt>
      <trkpt lat="45.18411" lon="6.37084">
        <ele>2743.6000976562</ele>
        <time>2014-01-11T10:07:02.000Z</time>
      </trkpt>
      <trkpt lat="45.18411" lon="6.37085">
        <ele>2743.8000488281</ele>
        <time>2014-01-11T10:07:03.000Z</time>
      </trkpt>
      <trkpt lat="45.1841" lon="6.37085">
        <ele>2744</ele>
        <time>2014-01-11T10:07:04.000Z</time>
      </trkpt>
      <trkpt lat="45.1841" lon="6.37085">
        <ele>2744.1999511719</ele>
        <time>2014-01-11T10:07:05.000Z</time>
      </trkpt>
      <trkpt lat="45.18409" lon="6.37086">
        <ele>2744.1999511719</ele>
        <time>2014-01-11T10:07:06.000Z</time>
      </trkpt>
      <trkpt lat="45.18409" lon="6.37086">
        <ele>2744.3999023438</ele>
        <time>2014-01-11T10:07:07.000Z</time>
      </trkpt>
      <trkpt lat="45.18408" lon="6.37087">
        <ele>2744.6000976562</ele>
        <time>2014-01-11T10:07:08.000Z</time>
      </trkpt>
      <trkpt lat="45.18408" lon="6.37087">
        <ele>2744.8000488281</ele>
        <time>2014-01-11T10:07:09.000Z</time>
      </trkpt>
      <trkpt lat="45.18407" lon="6.37088">
        <ele>2745</ele>
        <time>2014-01-11T10:07:10.000Z</time>
      </trkpt>
      <trkpt lat="45.18407" lon="6.37088">
        <ele>2745.1999511719</ele>
        <time>2014-01-11T10:07:11.000Z</time>
      </trkpt>
      <trkpt lat="45.18406" lon="6.37088">
        <ele>2745.3999023438</ele>
        <time>2014-01-11T10:07:12.000Z</time>
      </trkpt>
      <trkpt lat="45.18405" lon="6.37089">
        <ele>2745.6000976562</ele>
        <time>2014-01-11T10:07:13.000Z</time>
      </trkpt>
      <trkpt lat="45.18405" lon="6.37089">
        <ele>2745.8000488281</ele>
        <time>2014-01-11T10:07:14.000Z</time>
      </trkpt>
      <trkpt lat="45.18404" lon="6.37089">
        <ele>2745.8000488281</ele>
        <time>2014-01-11T10:07:15.000Z</time>
      </trkpt>
      <trkpt lat="45.18404" lon="6.3709">
        <ele>2746</ele>
        <time>2014-01-11T10:07:16.000Z</time>
      </trkpt>
      <trkpt lat="45.18404" lon="6.3709">
        <ele>2746</ele>
        <time>2014-01-11T10:07:17.000Z</time>
      </trkpt>
      <trkpt lat="45.18403" lon="6.3709">
        <ele>2746.1999511719</ele>
        <time>2014-01-11T10:07:18.000Z</time>
      </trkpt>
      <trkpt lat="45.18403" lon="6.3709">
        <ele>2746.1999511719</ele>
        <time>2014-01-11T10:07:19.000Z</time>
      </trkpt>
      <trkpt lat="45.18403" lon="6.37091">
        <ele>2746.3999023438</ele>
        <time>2014-01-11T10:07:20.000Z</time>
      </trkpt>
      <trkpt lat="45.18403" lon="6.37091">
        <ele>2746.6000976562</ele>
        <time>2014-01-11T10:07:21.000Z</time>
      </trkpt>
      <trkpt lat="45.18402" lon="6.37091">
        <ele>2746.8000488281</ele>
        <time>2014-01-11T10:07:22.000Z</time>
      </trkpt>
      <trkpt lat="45.18402" lon="6.37091">
        <ele>2747.3999023438</ele>
        <time>2014-01-11T10:07:23.000Z</time>
      </trkpt>
      <trkpt lat="45.18401" lon="6.37091">
        <ele>2747.6000976562</ele>
        <time>2014-01-11T10:07:24.000Z</time>
      </trkpt>
      <trkpt lat="45.18401" lon="6.37091">
        <ele>2747.8000488281</ele>
        <time>2014-01-11T10:07:25.000Z</time>
      </trkpt>
      <trkpt lat="45.18401" lon="6.37092">
        <ele>2748</ele>
        <time>2014-01-11T10:07:26.000Z</time>
      </trkpt>
      <trkpt lat="45.18401" lon="6.37092">
        <ele>2748.1999511719</ele>
        <time>2014-01-11T10:07:27.000Z</time>
      </trkpt>
      <trkpt lat="45.184" lon="6.37092">
        <ele>2748.3999023438</ele>
        <time>2014-01-11T10:07:28.000Z</time>
      </trkpt>
      <trkpt lat="45.184" lon="6.37092">
        <ele>2748.3999023438</ele>
        <time>2014-01-11T10:07:29.000Z</time>
      </trkpt>
      <trkpt lat="45.184" lon="6.37093">
        <ele>2748.6000976562</ele>
        <time>2014-01-11T10:07:30.000Z</time>
      </trkpt>
      <trkpt lat="45.18399" lon="6.37093">
        <ele>2748.6000976562</ele>
        <time>2014-01-11T10:07:31.000Z</time>
      </trkpt>
      <trkpt lat="45.18399" lon="6.37094">
        <ele>2748.8000488281</ele>
        <time>2014-01-11T10:07:32.000Z</time>
      </trkpt>
      <trkpt lat="45.18398" lon="6.37095">
        <ele>2749</ele>
        <time>2014-01-11T10:07:33.000Z</time>
      </trkpt>
      <trkpt lat="45.18398" lon="6.37095">
        <ele>2749.1999511719</ele>
        <time>2014-01-11T10:07:34.000Z</time>
      </trkpt>
      <trkpt lat="45.18397" lon="6.37095">
        <ele>2749.3999023438</ele>
        <time>2014-01-11T10:07:35.000Z</time>
      </trkpt>
      <trkpt lat="45.18397" lon="6.37095">
        <ele>2749.6000976562</ele>
        <time>2014-01-11T10:07:36.000Z</time>
      </trkpt>
      <trkpt lat="45.18397" lon="6.37096">
        <ele>2749.8000488281</ele>
        <time>2014-01-11T10:07:37.000Z</time>
      </trkpt>
      <trkpt lat="45.18397" lon="6.37096">
        <ele>2750.1999511719</ele>
        <time>2014-01-11T10:07:38.000Z</time>
      </trkpt>
      <trkpt lat="45.18396" lon="6.37097">
        <ele>2750.3999023438</ele>
        <time>2014-01-11T10:07:39.000Z</time>
      </trkpt>
      <trkpt lat="45.18396" lon="6.37097">
        <ele>2750.6000976562</ele>
        <time>2014-01-11T10:07:40.000Z</time>
      </trkpt>
      <trkpt lat="45.18395" lon="6.37098">
        <ele>2751</ele>
        <time>2014-01-11T10:07:41.000Z</time>
      </trkpt>
      <trkpt lat="45.18395" lon="6.37098">
        <ele>2751</ele>
        <time>2014-01-11T10:07:42.000Z</time>
      </trkpt>
      <trkpt lat="45.18395" lon="6.37099">
        <ele>2751</ele>
        <time>2014-01-11T10:07:43.000Z</time>
      </trkpt>
      <trkpt lat="45.18394" lon="6.371">
        <ele>2751.1999511719</ele>
        <time>2014-01-11T10:07:44.000Z</time>
      </trkpt>
      <trkpt lat="45.18393" lon="6.37101">
        <ele>2751.3999023438</ele>
        <time>2014-01-11T10:07:45.000Z</time>
      </trkpt>
      <trkpt lat="45.18393" lon="6.37102">
        <ele>2751.3999023438</ele>
        <time>2014-01-11T10:07:46.000Z</time>
      </trkpt>
      <trkpt lat="45.18392" lon="6.37102">
        <ele>2751.8000488281</ele>
        <time>2014-01-11T10:07:47.000Z</time>
      </trkpt>
      <trkpt lat="45.18391" lon="6.37103">
        <ele>2752</ele>
        <time>2014-01-11T10:07:48.000Z</time>
      </trkpt>
      <trkpt lat="45.18389" lon="6.37103">
        <ele>2752</ele>
        <time>2014-01-11T10:07:49.000Z</time>
      </trkpt>
      <trkpt lat="45.1839" lon="6.37103">
        <ele>2752.1999511719</ele>
        <time>2014-01-11T10:07:50.000Z</time>
      </trkpt>
      <trkpt lat="45.18388" lon="6.37104">
        <ele>2752.3999023438</ele>
        <time>2014-01-11T10:07:51.000Z</time>
      </trkpt>
      <trkpt lat="45.18388" lon="6.37104">
        <ele>2752.6000976562</ele>
        <time>2014-01-11T10:07:52.000Z</time>
      </trkpt>
      <trkpt lat="45.18387" lon="6.37105">
        <ele>2752.8000488281</ele>
        <time>2014-01-11T10:07:53.000Z</time>
      </trkpt>
      <trkpt lat="45.18387" lon="6.37105">
        <ele>2753.1999511719</ele>
        <time>2014-01-11T10:07:54.000Z</time>
      </trkpt>
      <trkpt lat="45.18387" lon="6.37105">
        <ele>2753.3999023438</ele>
        <time>2014-01-11T10:07:55.000Z</time>
      </trkpt>
      <trkpt lat="45.18387" lon="6.37105">
        <ele>2753.6000976562</ele>
        <time>2014-01-11T10:07:56.000Z</time>
      </trkpt>
      <trkpt lat="45.18386" lon="6.37106">
        <ele>2753.8000488281</ele>
        <time>2014-01-11T10:07:57.000Z</time>
      </trkpt>
      <trkpt lat="45.18386" lon="6.37106">
        <ele>2754</ele>
        <time>2014-01-11T10:07:58.000Z</time>
      </trkpt>
      <trkpt lat="45.18385" lon="6.37106">
        <ele>2754.3999023438</ele>
        <time>2014-01-11T10:07:59.000Z</time>
      </trkpt>
      <trkpt lat="45.18384" lon="6.37106">
        <ele>2754.6000976562</ele>
        <time>2014-01-11T10:08:00.000Z</time>
      </trkpt>
      <trkpt lat="45.18384" lon="6.37106">
        <ele>2754.8000488281</ele>
        <time>2014-01-11T10:08:01.000Z</time>
      </trkpt>
      <trkpt lat="45.18383" lon="6.37106">
        <ele>2755</ele>
        <time>2014-01-11T10:08:02.000Z</time>
      </trkpt>
      <trkpt lat="45.18383" lon="6.37107">
        <ele>2755.1999511719</ele>
        <time>2014-01-11T10:08:03.000Z</time>
      </trkpt>
      <trkpt lat="45.18382" lon="6.37107">
        <ele>2755.3999023438</ele>
        <time>2014-01-11T10:08:04.000Z</time>
      </trkpt>
      <trkpt lat="45.18382" lon="6.37107">
        <ele>2755.3999023438</ele>
        <time>2014-01-11T10:08:05.000Z</time>
      </trkpt>
      <trkpt lat="45.18381" lon="6.37107">
        <ele>2755.6000976562</ele>
        <time>2014-01-11T10:08:06.000Z</time>
      </trkpt>
      <trkpt lat="45.1838" lon="6.37107">
        <ele>2755.8000488281</ele>
        <time>2014-01-11T10:08:07.000Z</time>
      </trkpt>
      <trkpt lat="45.1838" lon="6.37107">
        <ele>2756</ele>
        <time>2014-01-11T10:08:08.000Z</time>
      </trkpt>
      <trkpt lat="45.18379" lon="6.37107">
        <ele>2756.1999511719</ele>
        <time>2014-01-11T10:08:09.000Z</time>
      </trkpt>
      <trkpt lat="45.18379" lon="6.37107">
        <ele>2756.3999023438</ele>
        <time>2014-01-11T10:08:10.000Z</time>
      </trkpt>
      <trkpt lat="45.18378" lon="6.37106">
        <ele>2756.6000976562</ele>
        <time>2014-01-11T10:08:11.000Z</time>
      </trkpt>
      <trkpt lat="45.18378" lon="6.37106">
        <ele>2756.8000488281</ele>
        <time>2014-01-11T10:08:12.000Z</time>
      </trkpt>
      <trkpt lat="45.18377" lon="6.37106">
        <ele>2757</ele>
        <time>2014-01-11T10:08:13.000Z</time>
      </trkpt>
      <trkpt lat="45.18377" lon="6.37106">
        <ele>2757.1999511719</ele>
        <time>2014-01-11T10:08:14.000Z</time>
      </trkpt>
      <trkpt lat="45.18377" lon="6.37106">
        <ele>2757.3999023438</ele>
        <time>2014-01-11T10:08:15.000Z</time>
      </trkpt>
      <trkpt lat="45.18377" lon="6.37106">
        <ele>2757.3999023438</ele>
        <time>2014-01-11T10:08:16.000Z</time>
      </trkpt>
      <trkpt lat="45.18377" lon="6.37106">
        <ele>2757.3999023438</ele>
        <time>2014-01-11T10:08:17.000Z</time>
      </trkpt>
      <trkpt lat="45.18377" lon="6.37106">
        <ele>2757.3999023438</ele>
        <time>2014-01-11T10:08:18.000Z</time>
      </trkpt>
      <trkpt lat="45.18377" lon="6.37106">
        <ele>2757.3999023438</ele>
        <time>2014-01-11T10:08:19.000Z</time>
      </trkpt>
      <trkpt lat="45.18376" lon="6.37106">
        <ele>2757.3999023438</ele>
        <time>2014-01-11T10:08:20.000Z</time>
      </trkpt>
      <trkpt lat="45.18376" lon="6.37106">
        <ele>2757.3999023438</ele>
        <time>2014-01-11T10:08:21.000Z</time>
      </trkpt>
      <trkpt lat="45.18376" lon="6.37105">
        <ele>2757.3999023438</ele>
        <time>2014-01-11T10:08:22.000Z</time>
      </trkpt>
      <trkpt lat="45.18376" lon="6.37105">
        <ele>2757.3999023438</ele>
        <time>2014-01-11T10:08:23.000Z</time>
      </trkpt>
      <trkpt lat="45.18375" lon="6.37105">
        <ele>2757.3999023438</ele>
        <time>2014-01-11T10:08:24.000Z</time>
      </trkpt>
      <trkpt lat="45.18375" lon="6.37105">
        <ele>2757.6000976562</ele>
        <time>2014-01-11T10:08:25.000Z</time>
      </trkpt>
      <trkpt lat="45.18374" lon="6.37105">
        <ele>2758</ele>
        <time>2014-01-11T10:08:26.000Z</time>
      </trkpt>
      <trkpt lat="45.18373" lon="6.37105">
        <ele>2758.1999511719</ele>
        <time>2014-01-11T10:08:27.000Z</time>
      </trkpt>
      <trkpt lat="45.18373" lon="6.37104">
        <ele>2758.1999511719</ele>
        <time>2014-01-11T10:08:28.000Z</time>
      </trkpt>
      <trkpt lat="45.18372" lon="6.37104">
        <ele>2758.3999023438</ele>
        <time>2014-01-11T10:08:29.000Z</time>
      </trkpt>
      <trkpt lat="45.18371" lon="6.37103">
        <ele>2758.3999023438</ele>
        <time>2014-01-11T10:08:30.000Z</time>
      </trkpt>
      <trkpt lat="45.18371" lon="6.37103">
        <ele>2758.6000976562</ele>
        <time>2014-01-11T10:08:31.000Z</time>
      </trkpt>
      <trkpt lat="45.1837" lon="6.37102">
        <ele>2758.8000488281</ele>
        <time>2014-01-11T10:08:32.000Z</time>
      </trkpt>
      <trkpt lat="45.1837" lon="6.37102">
        <ele>2759</ele>
        <time>2014-01-11T10:08:33.000Z</time>
      </trkpt>
      <trkpt lat="45.18369" lon="6.37101">
        <ele>2759.1999511719</ele>
        <time>2014-01-11T10:08:34.000Z</time>
      </trkpt>
      <trkpt lat="45.18369" lon="6.37101">
        <ele>2759.6000976562</ele>
        <time>2014-01-11T10:08:35.000Z</time>
      </trkpt>
      <trkpt lat="45.18369" lon="6.37101">
        <ele>2759.8000488281</ele>
        <time>2014-01-11T10:08:36.000Z</time>
      </trkpt>
      <trkpt lat="45.18369" lon="6.37101">
        <ele>2760.1999511719</ele>
        <time>2014-01-11T10:08:37.000Z</time>
      </trkpt>
      <trkpt lat="45.18369" lon="6.371">
        <ele>2760.3999023438</ele>
        <time>2014-01-11T10:08:38.000Z</time>
      </trkpt>
      <trkpt lat="45.18369" lon="6.37099">
        <ele>2760.6000976562</ele>
        <time>2014-01-11T10:08:39.000Z</time>
      </trkpt>
      <trkpt lat="45.18368" lon="6.37099">
        <ele>2760.8000488281</ele>
        <time>2014-01-11T10:08:40.000Z</time>
      </trkpt>
      <trkpt lat="45.18368" lon="6.37099">
        <ele>2761</ele>
        <time>2014-01-11T10:08:41.000Z</time>
      </trkpt>
      <trkpt lat="45.18368" lon="6.37098">
        <ele>2761.1999511719</ele>
        <time>2014-01-11T10:08:42.000Z</time>
      </trkpt>
      <trkpt lat="45.18368" lon="6.37098">
        <ele>2761.1999511719</ele>
        <time>2014-01-11T10:08:43.000Z</time>
      </trkpt>
      <trkpt lat="45.18367" lon="6.37097">
        <ele>2761.3999023438</ele>
        <time>2014-01-11T10:08:44.000Z</time>
      </trkpt>
      <trkpt lat="45.18367" lon="6.37096">
        <ele>2761.6000976562</ele>
        <time>2014-01-11T10:08:45.000Z</time>
      </trkpt>
      <trkpt lat="45.18367" lon="6.37096">
        <ele>2761.6000976562</ele>
        <time>2014-01-11T10:08:46.000Z</time>
      </trkpt>
      <trkpt lat="45.18366" lon="6.37093">
        <ele>2761.8000488281</ele>
        <time>2014-01-11T10:08:47.000Z</time>
      </trkpt>
      <trkpt lat="45.18366" lon="6.37093">
        <ele>2762</ele>
        <time>2014-01-11T10:08:48.000Z</time>
      </trkpt>
      <trkpt lat="45.18365" lon="6.37091">
        <ele>2762</ele>
        <time>2014-01-11T10:08:49.000Z</time>
      </trkpt>
      <trkpt lat="45.18365" lon="6.37091">
        <ele>2762.1999511719</ele>
        <time>2014-01-11T10:08:50.000Z</time>
      </trkpt>
      <trkpt lat="45.18365" lon="6.3709">
        <ele>2762.3999023438</ele>
        <time>2014-01-11T10:08:51.000Z</time>
      </trkpt>
      <trkpt lat="45.18365" lon="6.37089">
        <ele>2762.6000976562</ele>
        <time>2014-01-11T10:08:52.000Z</time>
      </trkpt>
      <trkpt lat="45.18364" lon="6.37089">
        <ele>2762.8000488281</ele>
        <time>2014-01-11T10:08:53.000Z</time>
      </trkpt>
      <trkpt lat="45.18363" lon="6.37087">
        <ele>2763</ele>
        <time>2014-01-11T10:08:54.000Z</time>
      </trkpt>
      <trkpt lat="45.18363" lon="6.37087">
        <ele>2763</ele>
        <time>2014-01-11T10:08:55.000Z</time>
      </trkpt>
      <trkpt lat="45.18363" lon="6.37086">
        <ele>2763.1999511719</ele>
        <time>2014-01-11T10:08:56.000Z</time>
      </trkpt>
      <trkpt lat="45.18362" lon="6.37086">
        <ele>2763.3999023438</ele>
        <time>2014-01-11T10:08:57.000Z</time>
      </trkpt>
      <trkpt lat="45.18362" lon="6.37085">
        <ele>2763.6000976562</ele>
        <time>2014-01-11T10:08:58.000Z</time>
      </trkpt>
      <trkpt lat="45.18361" lon="6.37085">
        <ele>2764</ele>
        <time>2014-01-11T10:08:59.000Z</time>
      </trkpt>
      <trkpt lat="45.18361" lon="6.37084">
        <ele>2764.1999511719</ele>
        <time>2014-01-11T10:09:00.000Z</time>
      </trkpt>
      <trkpt lat="45.18361" lon="6.37083">
        <ele>2764.3999023438</ele>
        <time>2014-01-11T10:09:01.000Z</time>
      </trkpt>
      <trkpt lat="45.1836" lon="6.37083">
        <ele>2764.6000976562</ele>
        <time>2014-01-11T10:09:02.000Z</time>
      </trkpt>
      <trkpt lat="45.1836" lon="6.37082">
        <ele>2765</ele>
        <time>2014-01-11T10:09:03.000Z</time>
      </trkpt>
      <trkpt lat="45.18359" lon="6.37081">
        <ele>2765.1999511719</ele>
        <time>2014-01-11T10:09:04.000Z</time>
      </trkpt>
      <trkpt lat="45.18359" lon="6.3708">
        <ele>2765.3999023438</ele>
        <time>2014-01-11T10:09:05.000Z</time>
      </trkpt>
      <trkpt lat="45.18358" lon="6.3708">
        <ele>2765.6000976562</ele>
        <time>2014-01-11T10:09:06.000Z</time>
      </trkpt>
      <trkpt lat="45.18357" lon="6.37079">
        <ele>2765.8000488281</ele>
        <time>2014-01-11T10:09:07.000Z</time>
      </trkpt>
      <trkpt lat="45.18356" lon="6.37079">
        <ele>2766</ele>
        <time>2014-01-11T10:09:08.000Z</time>
      </trkpt>
      <trkpt lat="45.18356" lon="6.37078">
        <ele>2766.1999511719</ele>
        <time>2014-01-11T10:09:09.000Z</time>
      </trkpt>
      <trkpt lat="45.18355" lon="6.37078">
        <ele>2766.1999511719</ele>
        <time>2014-01-11T10:09:10.000Z</time>
      </trkpt>
      <trkpt lat="45.18354" lon="6.37078">
        <ele>2766.3999023438</ele>
        <time>2014-01-11T10:09:11.000Z</time>
      </trkpt>
      <trkpt lat="45.18354" lon="6.37077">
        <ele>2766.6000976562</ele>
        <time>2014-01-11T10:09:12.000Z</time>
      </trkpt>
      <trkpt lat="45.18353" lon="6.37077">
        <ele>2766.6000976562</ele>
        <time>2014-01-11T10:09:13.000Z</time>
      </trkpt>
      <trkpt lat="45.18353" lon="6.37077">
        <ele>2766.8000488281</ele>
        <time>2014-01-11T10:09:14.000Z</time>
      </trkpt>
      <trkpt lat="45.18352" lon="6.37077">
        <ele>2767</ele>
        <time>2014-01-11T10:09:15.000Z</time>
      </trkpt>
      <trkpt lat="45.18352" lon="6.37077">
        <ele>2767.1999511719</ele>
        <time>2014-01-11T10:09:16.000Z</time>
      </trkpt>
      <trkpt lat="45.18351" lon="6.37078">
        <ele>2767.3999023438</ele>
        <time>2014-01-11T10:09:17.000Z</time>
      </trkpt>
      <trkpt lat="45.18351" lon="6.37078">
        <ele>2767.6000976562</ele>
        <time>2014-01-11T10:09:18.000Z</time>
      </trkpt>
      <trkpt lat="45.1835" lon="6.37079">
        <ele>2767.6000976562</ele>
        <time>2014-01-11T10:09:19.000Z</time>
      </trkpt>
      <trkpt lat="45.1835" lon="6.37079">
        <ele>2767.8000488281</ele>
        <time>2014-01-11T10:09:20.000Z</time>
      </trkpt>
      <trkpt lat="45.18349" lon="6.3708">
        <ele>2768.1999511719</ele>
        <time>2014-01-11T10:09:21.000Z</time>
      </trkpt>
      <trkpt lat="45.18349" lon="6.3708">
        <ele>2768.3999023438</ele>
        <time>2014-01-11T10:09:22.000Z</time>
      </trkpt>
      <trkpt lat="45.18348" lon="6.37081">
        <ele>2768.8000488281</ele>
        <time>2014-01-11T10:09:23.000Z</time>
      </trkpt>
      <trkpt lat="45.18347" lon="6.37081">
        <ele>2769</ele>
        <time>2014-01-11T10:09:24.000Z</time>
      </trkpt>
      <trkpt lat="45.18347" lon="6.37082">
        <ele>2769.1999511719</ele>
        <time>2014-01-11T10:09:25.000Z</time>
      </trkpt>
      <trkpt lat="45.18347" lon="6.37082">
        <ele>2769.3999023438</ele>
        <time>2014-01-11T10:09:26.000Z</time>
      </trkpt>
      <trkpt lat="45.18346" lon="6.37082">
        <ele>2769.6000976562</ele>
        <time>2014-01-11T10:09:27.000Z</time>
      </trkpt>
      <trkpt lat="45.18346" lon="6.37083">
        <ele>2769.8000488281</ele>
        <time>2014-01-11T10:09:28.000Z</time>
      </trkpt>
      <trkpt lat="45.18346" lon="6.37083">
        <ele>2770</ele>
        <time>2014-01-11T10:09:29.000Z</time>
      </trkpt>
      <trkpt lat="45.18345" lon="6.37083">
        <ele>2770.1999511719</ele>
        <time>2014-01-11T10:09:30.000Z</time>
      </trkpt>
      <trkpt lat="45.18345" lon="6.37084">
        <ele>2770.3999023438</ele>
        <time>2014-01-11T10:09:31.000Z</time>
      </trkpt>
      <trkpt lat="45.18344" lon="6.37084">
        <ele>2770.6000976562</ele>
        <time>2014-01-11T10:09:32.000Z</time>
      </trkpt>
      <trkpt lat="45.18344" lon="6.37085">
        <ele>2770.8000488281</ele>
        <time>2014-01-11T10:09:33.000Z</time>
      </trkpt>
      <trkpt lat="45.18344" lon="6.37085">
        <ele>2770.8000488281</ele>
        <time>2014-01-11T10:09:34.000Z</time>
      </trkpt>
      <trkpt lat="45.18343" lon="6.37085">
        <ele>2771</ele>
        <time>2014-01-11T10:09:35.000Z</time>
      </trkpt>
      <trkpt lat="45.18343" lon="6.37086">
        <ele>2771.1999511719</ele>
        <time>2014-01-11T10:09:36.000Z</time>
      </trkpt>
      <trkpt lat="45.18343" lon="6.37086">
        <ele>2771.1999511719</ele>
        <time>2014-01-11T10:09:37.000Z</time>
      </trkpt>
      <trkpt lat="45.18342" lon="6.37087">
        <ele>2771.3999023438</ele>
        <time>2014-01-11T10:09:38.000Z</time>
      </trkpt>
      <trkpt lat="45.18341" lon="6.37087">
        <ele>2771.6000976562</ele>
        <time>2014-01-11T10:09:39.000Z</time>
      </trkpt>
      <trkpt lat="45.18341" lon="6.37087">
        <ele>2771.6000976562</ele>
        <time>2014-01-11T10:09:40.000Z</time>
      </trkpt>
      <trkpt lat="45.1834" lon="6.37088">
        <ele>2771.8000488281</ele>
        <time>2014-01-11T10:09:41.000Z</time>
      </trkpt>
      <trkpt lat="45.1834" lon="6.37088">
        <ele>2771.8000488281</ele>
        <time>2014-01-11T10:09:42.000Z</time>
      </trkpt>
      <trkpt lat="45.18339" lon="6.37089">
        <ele>2772</ele>
        <time>2014-01-11T10:09:43.000Z</time>
      </trkpt>
      <trkpt lat="45.18338" lon="6.37089">
        <ele>2772.1999511719</ele>
        <time>2014-01-11T10:09:44.000Z</time>
      </trkpt>
      <trkpt lat="45.18338" lon="6.37089">
        <ele>2772.3999023438</ele>
        <time>2014-01-11T10:09:45.000Z</time>
      </trkpt>
      <trkpt lat="45.18337" lon="6.37089">
        <ele>2772.6000976562</ele>
        <time>2014-01-11T10:09:46.000Z</time>
      </trkpt>
      <trkpt lat="45.18337" lon="6.3709">
        <ele>2773</ele>
        <time>2014-01-11T10:09:47.000Z</time>
      </trkpt>
      <trkpt lat="45.18336" lon="6.3709">
        <ele>2773.1999511719</ele>
        <time>2014-01-11T10:09:48.000Z</time>
      </trkpt>
      <trkpt lat="45.18335" lon="6.37091">
        <ele>2773.3999023438</ele>
        <time>2014-01-11T10:09:49.000Z</time>
      </trkpt>
      <trkpt lat="45.18335" lon="6.37091">
        <ele>2773.3999023438</ele>
        <time>2014-01-11T10:09:50.000Z</time>
      </trkpt>
      <trkpt lat="45.18335" lon="6.37091">
        <ele>2773.6000976562</ele>
        <time>2014-01-11T10:09:51.000Z</time>
      </trkpt>
      <trkpt lat="45.18334" lon="6.37091">
        <ele>2773.6000976562</ele>
        <time>2014-01-11T10:09:52.000Z</time>
      </trkpt>
      <trkpt lat="45.18334" lon="6.37091">
        <ele>2773.8000488281</ele>
        <time>2014-01-11T10:09:53.000Z</time>
      </trkpt>
      <trkpt lat="45.18334" lon="6.37091">
        <ele>2774</ele>
        <time>2014-01-11T10:09:54.000Z</time>
      </trkpt>
      <trkpt lat="45.18334" lon="6.37091">
        <ele>2774.3999023438</ele>
        <time>2014-01-11T10:09:55.000Z</time>
      </trkpt>
      <trkpt lat="45.18334" lon="6.37091">
        <ele>2774.6000976562</ele>
        <time>2014-01-11T10:09:56.000Z</time>
      </trkpt>
      <trkpt lat="45.18333" lon="6.37089">
        <ele>2774.8000488281</ele>
        <time>2014-01-11T10:09:57.000Z</time>
      </trkpt>
      <trkpt lat="45.18332" lon="6.37087">
        <ele>2775</ele>
        <time>2014-01-11T10:09:58.000Z</time>
      </trkpt>
      <trkpt lat="45.18332" lon="6.37087">
        <ele>2775.1999511719</ele>
        <time>2014-01-11T10:09:59.000Z</time>
      </trkpt>
      <trkpt lat="45.18332" lon="6.37086">
        <ele>2775.1999511719</ele>
        <time>2014-01-11T10:10:00.000Z</time>
      </trkpt>
      <trkpt lat="45.18332" lon="6.37086">
        <ele>2775.3999023438</ele>
        <time>2014-01-11T10:10:01.000Z</time>
      </trkpt>
      <trkpt lat="45.18332" lon="6.37084">
        <ele>2775.8000488281</ele>
        <time>2014-01-11T10:10:02.000Z</time>
      </trkpt>
      <trkpt lat="45.18332" lon="6.37084">
        <ele>2776</ele>
        <time>2014-01-11T10:10:03.000Z</time>
      </trkpt>
      <trkpt lat="45.18332" lon="6.37083">
        <ele>2776.1999511719</ele>
        <time>2014-01-11T10:10:04.000Z</time>
      </trkpt>
      <trkpt lat="45.18332" lon="6.37082">
        <ele>2776.3999023438</ele>
        <time>2014-01-11T10:10:05.000Z</time>
      </trkpt>
      <trkpt lat="45.18332" lon="6.37081">
        <ele>2776.6000976562</ele>
        <time>2014-01-11T10:10:06.000Z</time>
      </trkpt>
      <trkpt lat="45.18332" lon="6.3708">
        <ele>2776.8000488281</ele>
        <time>2014-01-11T10:10:07.000Z</time>
      </trkpt>
      <trkpt lat="45.18332" lon="6.3708">
        <ele>2776.8000488281</ele>
        <time>2014-01-11T10:10:08.000Z</time>
      </trkpt>
      <trkpt lat="45.18331" lon="6.37079">
        <ele>2777</ele>
        <time>2014-01-11T10:10:09.000Z</time>
      </trkpt>
      <trkpt lat="45.18331" lon="6.37078">
        <ele>2777.1999511719</ele>
        <time>2014-01-11T10:10:10.000Z</time>
      </trkpt>
      <trkpt lat="45.18331" lon="6.37078">
        <ele>2777.6000976562</ele>
        <time>2014-01-11T10:10:11.000Z</time>
      </trkpt>
      <trkpt lat="45.18331" lon="6.37078">
        <ele>2777.8000488281</ele>
        <time>2014-01-11T10:10:12.000Z</time>
      </trkpt>
      <trkpt lat="45.18331" lon="6.37078">
        <ele>2778</ele>
        <time>2014-01-11T10:10:13.000Z</time>
      </trkpt>
      <trkpt lat="45.18331" lon="6.37078">
        <ele>2778.1999511719</ele>
        <time>2014-01-11T10:10:14.000Z</time>
      </trkpt>
      <trkpt lat="45.1833" lon="6.37078">
        <ele>2778.3999023438</ele>
        <time>2014-01-11T10:10:15.000Z</time>
      </trkpt>
      <trkpt lat="45.1833" lon="6.37078">
        <ele>2778.3999023438</ele>
        <time>2014-01-11T10:10:16.000Z</time>
      </trkpt>
      <trkpt lat="45.18329" lon="6.37077">
        <ele>2778.6000976562</ele>
        <time>2014-01-11T10:10:17.000Z</time>
      </trkpt>
      <trkpt lat="45.18329" lon="6.37077">
        <ele>2778.6000976562</ele>
        <time>2014-01-11T10:10:18.000Z</time>
      </trkpt>
      <trkpt lat="45.18329" lon="6.37077">
        <ele>2778.8000488281</ele>
        <time>2014-01-11T10:10:19.000Z</time>
      </trkpt>
      <trkpt lat="45.18329" lon="6.37077">
        <ele>2779</ele>
        <time>2014-01-11T10:10:20.000Z</time>
      </trkpt>
      <trkpt lat="45.18329" lon="6.37077">
        <ele>2779.1999511719</ele>
        <time>2014-01-11T10:10:21.000Z</time>
      </trkpt>
      <trkpt lat="45.18329" lon="6.37077">
        <ele>2779.3999023438</ele>
        <time>2014-01-11T10:10:22.000Z</time>
      </trkpt>
      <trkpt lat="45.18329" lon="6.37076">
        <ele>2779.3999023438</ele>
        <time>2014-01-11T10:10:23.000Z</time>
      </trkpt>
      <trkpt lat="45.18328" lon="6.37075">
        <ele>2779.6000976562</ele>
        <time>2014-01-11T10:10:24.000Z</time>
      </trkpt>
      <trkpt lat="45.18328" lon="6.37074">
        <ele>2779.6000976562</ele>
        <time>2014-01-11T10:10:25.000Z</time>
      </trkpt>
      <trkpt lat="45.18327" lon="6.37074">
        <ele>2779.8000488281</ele>
        <time>2014-01-11T10:10:26.000Z</time>
      </trkpt>
      <trkpt lat="45.18327" lon="6.37073">
        <ele>2779.8000488281</ele>
        <time>2014-01-11T10:10:27.000Z</time>
      </trkpt>
      <trkpt lat="45.18327" lon="6.37073">
        <ele>2780</ele>
        <time>2014-01-11T10:10:28.000Z</time>
      </trkpt>
      <trkpt lat="45.18327" lon="6.37073">
        <ele>2780.1999511719</ele>
        <time>2014-01-11T10:10:29.000Z</time>
      </trkpt>
      <trkpt lat="45.18327" lon="6.37073">
        <ele>2780.3999023438</ele>
        <time>2014-01-11T10:10:30.000Z</time>
      </trkpt>
      <trkpt lat="45.18327" lon="6.37074">
        <ele>2780.6000976562</ele>
        <time>2014-01-11T10:10:31.000Z</time>
      </trkpt>
      <trkpt lat="45.18326" lon="6.37074">
        <ele>2780.8000488281</ele>
        <time>2014-01-11T10:10:32.000Z</time>
      </trkpt>
      <trkpt lat="45.18326" lon="6.37075">
        <ele>2781</ele>
        <time>2014-01-11T10:10:33.000Z</time>
      </trkpt>
      <trkpt lat="45.18326" lon="6.37076">
        <ele>2781.1999511719</ele>
        <time>2014-01-11T10:10:34.000Z</time>
      </trkpt>
      <trkpt lat="45.18325" lon="6.37076">
        <ele>2781.3999023438</ele>
        <time>2014-01-11T10:10:35.000Z</time>
      </trkpt>
      <trkpt lat="45.18325" lon="6.37077">
        <ele>2781.6000976562</ele>
        <time>2014-01-11T10:10:36.000Z</time>
      </trkpt>
      <trkpt lat="45.18325" lon="6.37078">
        <ele>2781.8000488281</ele>
        <time>2014-01-11T10:10:37.000Z</time>
      </trkpt>
      <trkpt lat="45.18325" lon="6.37078">
        <ele>2782.1999511719</ele>
        <time>2014-01-11T10:10:38.000Z</time>
      </trkpt>
      <trkpt lat="45.18325" lon="6.37079">
        <ele>2782.3999023438</ele>
        <time>2014-01-11T10:10:39.000Z</time>
      </trkpt>
      <trkpt lat="45.18325" lon="6.3708">
        <ele>2782.3999023438</ele>
        <time>2014-01-11T10:10:40.000Z</time>
      </trkpt>
      <trkpt lat="45.18325" lon="6.3708">
        <ele>2782.6000976562</ele>
        <time>2014-01-11T10:10:41.000Z</time>
      </trkpt>
      <trkpt lat="45.18324" lon="6.37081">
        <ele>2782.6000976562</ele>
        <time>2014-01-11T10:10:42.000Z</time>
      </trkpt>
      <trkpt lat="45.18324" lon="6.37082">
        <ele>2782.6000976562</ele>
        <time>2014-01-11T10:10:43.000Z</time>
      </trkpt>
      <trkpt lat="45.18324" lon="6.37083">
        <ele>2782.8000488281</ele>
        <time>2014-01-11T10:10:44.000Z</time>
      </trkpt>
      <trkpt lat="45.18323" lon="6.37083">
        <ele>2782.8000488281</ele>
        <time>2014-01-11T10:10:45.000Z</time>
      </trkpt>
      <trkpt lat="45.18323" lon="6.37084">
        <ele>2783</ele>
        <time>2014-01-11T10:10:46.000Z</time>
      </trkpt>
      <trkpt lat="45.18323" lon="6.37084">
        <ele>2783.1999511719</ele>
        <time>2014-01-11T10:10:47.000Z</time>
      </trkpt>
      <trkpt lat="45.18323" lon="6.37084">
        <ele>2783.3999023438</ele>
        <time>2014-01-11T10:10:48.000Z</time>
      </trkpt>
      <trkpt lat="45.18323" lon="6.37084">
        <ele>2783.6000976562</ele>
        <time>2014-01-11T10:10:49.000Z</time>
      </trkpt>
      <trkpt lat="45.18322" lon="6.37085">
        <ele>2783.8000488281</ele>
        <time>2014-01-11T10:10:50.000Z</time>
      </trkpt>
      <trkpt lat="45.18322" lon="6.37085">
        <ele>2783.8000488281</ele>
        <time>2014-01-11T10:10:51.000Z</time>
      </trkpt>
      <trkpt lat="45.18322" lon="6.37086">
        <ele>2783.8000488281</ele>
        <time>2014-01-11T10:10:52.000Z</time>
      </trkpt>
      <trkpt lat="45.18321" lon="6.37086">
        <ele>2784</ele>
        <time>2014-01-11T10:10:53.000Z</time>
      </trkpt>
      <trkpt lat="45.18321" lon="6.37087">
        <ele>2784.3999023438</ele>
        <time>2014-01-11T10:10:54.000Z</time>
      </trkpt>
      <trkpt lat="45.1832" lon="6.37087">
        <ele>2784.6000976562</ele>
        <time>2014-01-11T10:10:55.000Z</time>
      </trkpt>
      <trkpt lat="45.1832" lon="6.37087">
        <ele>2784.8000488281</ele>
        <time>2014-01-11T10:10:56.000Z</time>
      </trkpt>
      <trkpt lat="45.1832" lon="6.37087">
        <ele>2785</ele>
        <time>2014-01-11T10:10:57.000Z</time>
      </trkpt>
      <trkpt lat="45.1832" lon="6.37087">
        <ele>2785</ele>
        <time>2014-01-11T10:10:58.000Z</time>
      </trkpt>
      <trkpt lat="45.1832" lon="6.37088">
        <ele>2785.1999511719</ele>
        <time>2014-01-11T10:10:59.000Z</time>
      </trkpt>
      <trkpt lat="45.1832" lon="6.37089">
        <ele>2785.3999023438</ele>
        <time>2014-01-11T10:11:00.000Z</time>
      </trkpt>
      <trkpt lat="45.1832" lon="6.37089">
        <ele>2785.8000488281</ele>
        <time>2014-01-11T10:11:01.000Z</time>
      </trkpt>
      <trkpt lat="45.1832" lon="6.37089">
        <ele>2786</ele>
        <time>2014-01-11T10:11:02.000Z</time>
      </trkpt>
      <trkpt lat="45.18319" lon="6.3709">
        <ele>2786.1999511719</ele>
        <time>2014-01-11T10:11:03.000Z</time>
      </trkpt>
      <trkpt lat="45.18319" lon="6.3709">
        <ele>2786.6000976562</ele>
        <time>2014-01-11T10:11:04.000Z</time>
      </trkpt>
      <trkpt lat="45.18319" lon="6.3709">
        <ele>2786.8000488281</ele>
        <time>2014-01-11T10:11:05.000Z</time>
      </trkpt>
      <trkpt lat="45.18318" lon="6.37091">
        <ele>2786.8000488281</ele>
        <time>2014-01-11T10:11:06.000Z</time>
      </trkpt>
      <trkpt lat="45.18318" lon="6.37091">
        <ele>2787</ele>
        <time>2014-01-11T10:11:07.000Z</time>
      </trkpt>
      <trkpt lat="45.18317" lon="6.37092">
        <ele>2787</ele>
        <time>2014-01-11T10:11:08.000Z</time>
      </trkpt>
      <trkpt lat="45.18317" lon="6.37092">
        <ele>2787.1999511719</ele>
        <time>2014-01-11T10:11:09.000Z</time>
      </trkpt>
      <trkpt lat="45.18317" lon="6.37092">
        <ele>2787.3999023438</ele>
        <time>2014-01-11T10:11:10.000Z</time>
      </trkpt>
      <trkpt lat="45.18317" lon="6.37092">
        <ele>2787.8000488281</ele>
        <time>2014-01-11T10:11:11.000Z</time>
      </trkpt>
      <trkpt lat="45.18317" lon="6.37092">
        <ele>2788.1999511719</ele>
        <time>2014-01-11T10:11:12.000Z</time>
      </trkpt>
      <trkpt lat="45.18317" lon="6.37092">
        <ele>2788.1999511719</ele>
        <time>2014-01-11T10:11:13.000Z</time>
      </trkpt>
      <trkpt lat="45.18317" lon="6.37092">
        <ele>2788.3999023438</ele>
        <time>2014-01-11T10:11:14.000Z</time>
      </trkpt>
      <trkpt lat="45.18317" lon="6.37092">
        <ele>2788.6000976562</ele>
        <time>2014-01-11T10:11:15.000Z</time>
      </trkpt>
      <trkpt lat="45.18317" lon="6.37092">
        <ele>2788.6000976562</ele>
        <time>2014-01-11T10:11:16.000Z</time>
      </trkpt>
      <trkpt lat="45.18317" lon="6.37092">
        <ele>2788.8000488281</ele>
        <time>2014-01-11T10:11:17.000Z</time>
      </trkpt>
      <trkpt lat="45.18317" lon="6.37091">
        <ele>2788.8000488281</ele>
        <time>2014-01-11T10:11:18.000Z</time>
      </trkpt>
      <trkpt lat="45.18316" lon="6.3709">
        <ele>2789</ele>
        <time>2014-01-11T10:11:19.000Z</time>
      </trkpt>
      <trkpt lat="45.18316" lon="6.37089">
        <ele>2789</ele>
        <time>2014-01-11T10:11:20.000Z</time>
      </trkpt>
      <trkpt lat="45.18316" lon="6.37089">
        <ele>2789</ele>
        <time>2014-01-11T10:11:21.000Z</time>
      </trkpt>
      <trkpt lat="45.18316" lon="6.37088">
        <ele>2789</ele>
        <time>2014-01-11T10:11:22.000Z</time>
      </trkpt>
      <trkpt lat="45.18316" lon="6.37088">
        <ele>2789.1999511719</ele>
        <time>2014-01-11T10:11:23.000Z</time>
      </trkpt>
      <trkpt lat="45.18316" lon="6.37087">
        <ele>2789.3999023438</ele>
        <time>2014-01-11T10:11:24.000Z</time>
      </trkpt>
      <trkpt lat="45.18315" lon="6.37086">
        <ele>2789.6000976562</ele>
        <time>2014-01-11T10:11:25.000Z</time>
      </trkpt>
      <trkpt lat="45.18315" lon="6.37085">
        <ele>2789.8000488281</ele>
        <time>2014-01-11T10:11:26.000Z</time>
      </trkpt>
      <trkpt lat="45.18315" lon="6.37084">
        <ele>2790</ele>
        <time>2014-01-11T10:11:27.000Z</time>
      </trkpt>
      <trkpt lat="45.18315" lon="6.37084">
        <ele>2790.1999511719</ele>
        <time>2014-01-11T10:11:28.000Z</time>
      </trkpt>
      <trkpt lat="45.18315" lon="6.37083">
        <ele>2790.1999511719</ele>
        <time>2014-01-11T10:11:29.000Z</time>
      </trkpt>
      <trkpt lat="45.18315" lon="6.37083">
        <ele>2790.3999023438</ele>
        <time>2014-01-11T10:11:30.000Z</time>
      </trkpt>
      <trkpt lat="45.18315" lon="6.37083">
        <ele>2790.3999023438</ele>
        <time>2014-01-11T10:11:31.000Z</time>
      </trkpt>
      <trkpt lat="45.18315" lon="6.37083">
        <ele>2790.6000976562</ele>
        <time>2014-01-11T10:11:32.000Z</time>
      </trkpt>
      <trkpt lat="45.18314" lon="6.37082">
        <ele>2790.8000488281</ele>
        <time>2014-01-11T10:11:33.000Z</time>
      </trkpt>
      <trkpt lat="45.18314" lon="6.37081">
        <ele>2791</ele>
        <time>2014-01-11T10:11:34.000Z</time>
      </trkpt>
      <trkpt lat="45.18314" lon="6.37081">
        <ele>2791</ele>
        <time>2014-01-11T10:11:35.000Z</time>
      </trkpt>
      <trkpt lat="45.18314" lon="6.37081">
        <ele>2791.3999023438</ele>
        <time>2014-01-11T10:11:36.000Z</time>
      </trkpt>
      <trkpt lat="45.18314" lon="6.37081">
        <ele>2791.6000976562</ele>
        <time>2014-01-11T10:11:37.000Z</time>
      </trkpt>
      <trkpt lat="45.18314" lon="6.37081">
        <ele>2792</ele>
        <time>2014-01-11T10:11:38.000Z</time>
      </trkpt>
      <trkpt lat="45.18313" lon="6.3708">
        <ele>2792.1999511719</ele>
        <time>2014-01-11T10:11:39.000Z</time>
      </trkpt>
      <trkpt lat="45.18313" lon="6.3708">
        <ele>2792.3999023438</ele>
        <time>2014-01-11T10:11:40.000Z</time>
      </trkpt>
      <trkpt lat="45.18313" lon="6.37079">
        <ele>2792.3999023438</ele>
        <time>2014-01-11T10:11:41.000Z</time>
      </trkpt>
      <trkpt lat="45.18313" lon="6.37079">
        <ele>2792.6000976562</ele>
        <time>2014-01-11T10:11:42.000Z</time>
      </trkpt>
      <trkpt lat="45.18313" lon="6.37079">
        <ele>2792.6000976562</ele>
        <time>2014-01-11T10:11:43.000Z</time>
      </trkpt>
      <trkpt lat="45.18313" lon="6.37079">
        <ele>2792.6000976562</ele>
        <time>2014-01-11T10:11:44.000Z</time>
      </trkpt>
      <trkpt lat="45.18312" lon="6.3708">
        <ele>2792.6000976562</ele>
        <time>2014-01-11T10:11:46.000Z</time>
      </trkpt>
      <trkpt lat="45.18312" lon="6.3708">
        <ele>2792.6000976562</ele>
        <time>2014-01-11T10:11:47.000Z</time>
      </trkpt>
      <trkpt lat="45.18311" lon="6.37081">
        <ele>2792.6000976562</ele>
        <time>2014-01-11T10:11:48.000Z</time>
      </trkpt>
      <trkpt lat="45.1831" lon="6.37081">
        <ele>2792.8000488281</ele>
        <time>2014-01-11T10:11:49.000Z</time>
      </trkpt>
      <trkpt lat="45.1831" lon="6.37081">
        <ele>2792.8000488281</ele>
        <time>2014-01-11T10:11:50.000Z</time>
      </trkpt>
      <trkpt lat="45.18309" lon="6.37082">
        <ele>2793</ele>
        <time>2014-01-11T10:11:51.000Z</time>
      </trkpt>
      <trkpt lat="45.18308" lon="6.37082">
        <ele>2793.1999511719</ele>
        <time>2014-01-11T10:11:52.000Z</time>
      </trkpt>
      <trkpt lat="45.18308" lon="6.37083">
        <ele>2793.1999511719</ele>
        <time>2014-01-11T10:11:53.000Z</time>
      </trkpt>
      <trkpt lat="45.18307" lon="6.37083">
        <ele>2793.3999023438</ele>
        <time>2014-01-11T10:11:54.000Z</time>
      </trkpt>
      <trkpt lat="45.18307" lon="6.37083">
        <ele>2793.3999023438</ele>
        <time>2014-01-11T10:11:55.000Z</time>
      </trkpt>
      <trkpt lat="45.18307" lon="6.37084">
        <ele>2793.6000976562</ele>
        <time>2014-01-11T10:11:56.000Z</time>
      </trkpt>
      <trkpt lat="45.18307" lon="6.37084">
        <ele>2793.6000976562</ele>
        <time>2014-01-11T10:11:57.000Z</time>
      </trkpt>
      <trkpt lat="45.18307" lon="6.37084">
        <ele>2793.8000488281</ele>
        <time>2014-01-11T10:11:58.000Z</time>
      </trkpt>
      <trkpt lat="45.18306" lon="6.37085">
        <ele>2794</ele>
        <time>2014-01-11T10:11:59.000Z</time>
      </trkpt>
      <trkpt lat="45.18305" lon="6.37085">
        <ele>2794.1999511719</ele>
        <time>2014-01-11T10:12:00.000Z</time>
      </trkpt>
      <trkpt lat="45.18305" lon="6.37086">
        <ele>2794.3999023438</ele>
        <time>2014-01-11T10:12:01.000Z</time>
      </trkpt>
      <trkpt lat="45.18305" lon="6.37087">
        <ele>2794.6000976562</ele>
        <time>2014-01-11T10:12:02.000Z</time>
      </trkpt>
      <trkpt lat="45.18305" lon="6.37088">
        <ele>2794.8000488281</ele>
        <time>2014-01-11T10:12:03.000Z</time>
      </trkpt>
      <trkpt lat="45.18305" lon="6.37088">
        <ele>2795</ele>
        <time>2014-01-11T10:12:04.000Z</time>
      </trkpt>
      <trkpt lat="45.18305" lon="6.37089">
        <ele>2795</ele>
        <time>2014-01-11T10:12:05.000Z</time>
      </trkpt>
      <trkpt lat="45.18304" lon="6.37089">
        <ele>2795.1999511719</ele>
        <time>2014-01-11T10:12:06.000Z</time>
      </trkpt>
      <trkpt lat="45.18304" lon="6.3709">
        <ele>2795.1999511719</ele>
        <time>2014-01-11T10:12:07.000Z</time>
      </trkpt>
      <trkpt lat="45.18303" lon="6.3709">
        <ele>2795.1999511719</ele>
        <time>2014-01-11T10:12:08.000Z</time>
      </trkpt>
      <trkpt lat="45.18303" lon="6.37091">
        <ele>2795.6000976562</ele>
        <time>2014-01-11T10:12:09.000Z</time>
      </trkpt>
      <trkpt lat="45.18302" lon="6.37091">
        <ele>2795.8000488281</ele>
        <time>2014-01-11T10:12:10.000Z</time>
      </trkpt>
      <trkpt lat="45.18302" lon="6.37092">
        <ele>2796.8000488281</ele>
        <time>2014-01-11T10:12:11.000Z</time>
      </trkpt>
      <trkpt lat="45.18302" lon="6.37093">
        <ele>2797.1999511719</ele>
        <time>2014-01-11T10:12:12.000Z</time>
      </trkpt>
      <trkpt lat="45.18301" lon="6.37094">
        <ele>2797.6000976562</ele>
        <time>2014-01-11T10:12:13.000Z</time>
      </trkpt>
      <trkpt lat="45.18301" lon="6.37095">
        <ele>2797.8000488281</ele>
        <time>2014-01-11T10:12:14.000Z</time>
      </trkpt>
      <trkpt lat="45.18301" lon="6.37095">
        <ele>2797.8000488281</ele>
        <time>2014-01-11T10:12:15.000Z</time>
      </trkpt>
      <trkpt lat="45.18301" lon="6.37096">
        <ele>2798</ele>
        <time>2014-01-11T10:12:16.000Z</time>
      </trkpt>
      <trkpt lat="45.183" lon="6.37096">
        <ele>2798</ele>
        <time>2014-01-11T10:12:17.000Z</time>
      </trkpt>
      <trkpt lat="45.183" lon="6.37096">
        <ele>2798.1999511719</ele>
        <time>2014-01-11T10:12:18.000Z</time>
      </trkpt>
      <trkpt lat="45.183" lon="6.37097">
        <ele>2798.1999511719</ele>
        <time>2014-01-11T10:12:19.000Z</time>
      </trkpt>
      <trkpt lat="45.18299" lon="6.37097">
        <ele>2798.3999023438</ele>
        <time>2014-01-11T10:12:20.000Z</time>
      </trkpt>
      <trkpt lat="45.18299" lon="6.37098">
        <ele>2798.6000976562</ele>
        <time>2014-01-11T10:12:21.000Z</time>
      </trkpt>
      <trkpt lat="45.18298" lon="6.37098">
        <ele>2798.8000488281</ele>
        <time>2014-01-11T10:12:22.000Z</time>
      </trkpt>
      <trkpt lat="45.18298" lon="6.37099">
        <ele>2799</ele>
        <time>2014-01-11T10:12:23.000Z</time>
      </trkpt>
      <trkpt lat="45.18298" lon="6.37099">
        <ele>2799.1999511719</ele>
        <time>2014-01-11T10:12:24.000Z</time>
      </trkpt>
      <trkpt lat="45.18298" lon="6.37099">
        <ele>2799.3999023438</ele>
        <time>2014-01-11T10:12:25.000Z</time>
      </trkpt>
      <trkpt lat="45.18298" lon="6.37099">
        <ele>2799.6000976562</ele>
        <time>2014-01-11T10:12:26.000Z</time>
      </trkpt>
      <trkpt lat="45.18298" lon="6.37099">
        <ele>2799.8000488281</ele>
        <time>2014-01-11T10:12:27.000Z</time>
      </trkpt>
      <trkpt lat="45.18298" lon="6.371">
        <ele>2800</ele>
        <time>2014-01-11T10:12:28.000Z</time>
      </trkpt>
      <trkpt lat="45.18298" lon="6.371">
        <ele>2800</ele>
        <time>2014-01-11T10:12:29.000Z</time>
      </trkpt>
      <trkpt lat="45.18298" lon="6.371">
        <ele>2800.1999511719</ele>
        <time>2014-01-11T10:12:30.000Z</time>
      </trkpt>
      <trkpt lat="45.18298" lon="6.371">
        <ele>2800.1999511719</ele>
        <time>2014-01-11T10:12:31.000Z</time>
      </trkpt>
      <trkpt lat="45.18298" lon="6.371">
        <ele>2800.3999023438</ele>
        <time>2014-01-11T10:12:32.000Z</time>
      </trkpt>
      <trkpt lat="45.18298" lon="6.371">
        <ele>2800.6000976562</ele>
        <time>2014-01-11T10:12:33.000Z</time>
      </trkpt>
      <trkpt lat="45.18298" lon="6.37099">
        <ele>2800.8000488281</ele>
        <time>2014-01-11T10:12:34.000Z</time>
      </trkpt>
      <trkpt lat="45.18298" lon="6.37099">
        <ele>2801.1999511719</ele>
        <time>2014-01-11T10:12:35.000Z</time>
      </trkpt>
      <trkpt lat="45.18298" lon="6.37098">
        <ele>2801.3999023438</ele>
        <time>2014-01-11T10:12:36.000Z</time>
      </trkpt>
      <trkpt lat="45.18298" lon="6.37098">
        <ele>2801.3999023438</ele>
        <time>2014-01-11T10:12:37.000Z</time>
      </trkpt>
      <trkpt lat="45.18298" lon="6.37098">
        <ele>2801.3999023438</ele>
        <time>2014-01-11T10:12:38.000Z</time>
      </trkpt>
      <trkpt lat="45.18298" lon="6.37097">
        <ele>2801.6000976562</ele>
        <time>2014-01-11T10:12:39.000Z</time>
      </trkpt>
      <trkpt lat="45.18298" lon="6.37096">
        <ele>2801.8000488281</ele>
        <time>2014-01-11T10:12:40.000Z</time>
      </trkpt>
      <trkpt lat="45.18297" lon="6.37096">
        <ele>2802</ele>
        <time>2014-01-11T10:12:41.000Z</time>
      </trkpt>
      <trkpt lat="45.18297" lon="6.37096">
        <ele>2802.1999511719</ele>
        <time>2014-01-11T10:12:42.000Z</time>
      </trkpt>
      <trkpt lat="45.18297" lon="6.37095">
        <ele>2802.3999023438</ele>
        <time>2014-01-11T10:12:43.000Z</time>
      </trkpt>
      <trkpt lat="45.18297" lon="6.37094">
        <ele>2802.3999023438</ele>
        <time>2014-01-11T10:12:44.000Z</time>
      </trkpt>
      <trkpt lat="45.18296" lon="6.37094">
        <ele>2802.6000976562</ele>
        <time>2014-01-11T10:12:45.000Z</time>
      </trkpt>
      <trkpt lat="45.18296" lon="6.37093">
        <ele>2802.6000976562</ele>
        <time>2014-01-11T10:12:46.000Z</time>
      </trkpt>
      <trkpt lat="45.18296" lon="6.37093">
        <ele>2802.8000488281</ele>
        <time>2014-01-11T10:12:47.000Z</time>
      </trkpt>
      <trkpt lat="45.18295" lon="6.37092">
        <ele>2803</ele>
        <time>2014-01-11T10:12:48.000Z</time>
      </trkpt>
      <trkpt lat="45.18295" lon="6.37092">
        <ele>2803.1999511719</ele>
        <time>2014-01-11T10:12:49.000Z</time>
      </trkpt>
      <trkpt lat="45.18295" lon="6.37091">
        <ele>2803.1999511719</ele>
        <time>2014-01-11T10:12:50.000Z</time>
      </trkpt>
      <trkpt lat="45.18295" lon="6.37091">
        <ele>2803.3999023438</ele>
        <time>2014-01-11T10:12:51.000Z</time>
      </trkpt>
      <trkpt lat="45.18295" lon="6.37091">
        <ele>2803.6000976562</ele>
        <time>2014-01-11T10:12:52.000Z</time>
      </trkpt>
      <trkpt lat="45.18294" lon="6.3709">
        <ele>2803.8000488281</ele>
        <time>2014-01-11T10:12:53.000Z</time>
      </trkpt>
      <trkpt lat="45.18294" lon="6.3709">
        <ele>2804</ele>
        <time>2014-01-11T10:12:54.000Z</time>
      </trkpt>
      <trkpt lat="45.18294" lon="6.3709">
        <ele>2804</ele>
        <time>2014-01-11T10:12:55.000Z</time>
      </trkpt>
      <trkpt lat="45.18294" lon="6.3709">
        <ele>2804.1999511719</ele>
        <time>2014-01-11T10:12:56.000Z</time>
      </trkpt>
      <trkpt lat="45.18294" lon="6.37089">
        <ele>2804.3999023438</ele>
        <time>2014-01-11T10:12:57.000Z</time>
      </trkpt>
      <trkpt lat="45.18294" lon="6.37088">
        <ele>2804.6000976562</ele>
        <time>2014-01-11T10:12:58.000Z</time>
      </trkpt>
      <trkpt lat="45.18294" lon="6.37088">
        <ele>2805</ele>
        <time>2014-01-11T10:12:59.000Z</time>
      </trkpt>
      <trkpt lat="45.18294" lon="6.37088">
        <ele>2805.1999511719</ele>
        <time>2014-01-11T10:13:00.000Z</time>
      </trkpt>
      <trkpt lat="45.18294" lon="6.37088">
        <ele>2805.3999023438</ele>
        <time>2014-01-11T10:13:01.000Z</time>
      </trkpt>
      <trkpt lat="45.18294" lon="6.37088">
        <ele>2805.3999023438</ele>
        <time>2014-01-11T10:13:02.000Z</time>
      </trkpt>
      <trkpt lat="45.18294" lon="6.37088">
        <ele>2805.6000976562</ele>
        <time>2014-01-11T10:13:03.000Z</time>
      </trkpt>
      <trkpt lat="45.18294" lon="6.37088">
        <ele>2805.6000976562</ele>
        <time>2014-01-11T10:13:04.000Z</time>
      </trkpt>
      <trkpt lat="45.18294" lon="6.37088">
        <ele>2805.6000976562</ele>
        <time>2014-01-11T10:13:05.000Z</time>
      </trkpt>
      <trkpt lat="45.18294" lon="6.37088">
        <ele>2805.6000976562</ele>
        <time>2014-01-11T10:13:06.000Z</time>
      </trkpt>
      <trkpt lat="45.18294" lon="6.37088">
        <ele>2805.6000976562</ele>
        <time>2014-01-11T10:13:07.000Z</time>
      </trkpt>
      <trkpt lat="45.18294" lon="6.37088">
        <ele>2805.6000976562</ele>
        <time>2014-01-11T10:13:08.000Z</time>
      </trkpt>
      <trkpt lat="45.18293" lon="6.37088">
        <ele>2805.6000976562</ele>
        <time>2014-01-11T10:13:09.000Z</time>
      </trkpt>
      <trkpt lat="45.18293" lon="6.37088">
        <ele>2805.8000488281</ele>
        <time>2014-01-11T10:13:10.000Z</time>
      </trkpt>
      <trkpt lat="45.18292" lon="6.37087">
        <ele>2805.8000488281</ele>
        <time>2014-01-11T10:13:11.000Z</time>
      </trkpt>
      <trkpt lat="45.18292" lon="6.37086">
        <ele>2806</ele>
        <time>2014-01-11T10:13:12.000Z</time>
      </trkpt>
      <trkpt lat="45.18292" lon="6.37086">
        <ele>2806.1999511719</ele>
        <time>2014-01-11T10:13:13.000Z</time>
      </trkpt>
      <trkpt lat="45.18292" lon="6.37086">
        <ele>2806.3999023438</ele>
        <time>2014-01-11T10:13:14.000Z</time>
      </trkpt>
      <trkpt lat="45.18292" lon="6.37086">
        <ele>2806.3999023438</ele>
        <time>2014-01-11T10:13:15.000Z</time>
      </trkpt>
      <trkpt lat="45.18292" lon="6.37086">
        <ele>2806.3999023438</ele>
        <time>2014-01-11T10:13:16.000Z</time>
      </trkpt>
      <trkpt lat="45.18292" lon="6.37086">
        <ele>2806.3999023438</ele>
        <time>2014-01-11T10:13:17.000Z</time>
      </trkpt>
      <trkpt lat="45.18292" lon="6.37085">
        <ele>2806.6000976562</ele>
        <time>2014-01-11T10:13:18.000Z</time>
      </trkpt>
      <trkpt lat="45.18291" lon="6.37085">
        <ele>2806.6000976562</ele>
        <time>2014-01-11T10:13:19.000Z</time>
      </trkpt>
      <trkpt lat="45.18291" lon="6.37085">
        <ele>2806.6000976562</ele>
        <time>2014-01-11T10:13:21.000Z</time>
      </trkpt>
      <trkpt lat="45.18291" lon="6.37085">
        <ele>2806.6000976562</ele>
        <time>2014-01-11T10:13:22.000Z</time>
      </trkpt>
      <trkpt lat="45.1829" lon="6.37085">
        <ele>2806.6000976562</ele>
        <time>2014-01-11T10:13:25.000Z</time>
      </trkpt>
      <trkpt lat="45.1829" lon="6.37085">
        <ele>2806.8000488281</ele>
        <time>2014-01-11T10:13:26.000Z</time>
      </trkpt>
      <trkpt lat="45.1829" lon="6.37085">
        <ele>2807</ele>
        <time>2014-01-11T10:13:27.000Z</time>
      </trkpt>
      <trkpt lat="45.1829" lon="6.37085">
        <ele>2807</ele>
        <time>2014-01-11T10:13:28.000Z</time>
      </trkpt>
      <trkpt lat="45.1829" lon="6.37085">
        <ele>2807.1999511719</ele>
        <time>2014-01-11T10:13:29.000Z</time>
      </trkpt>
      <trkpt lat="45.18289" lon="6.37085">
        <ele>2807.3999023438</ele>
        <time>2014-01-11T10:13:30.000Z</time>
      </trkpt>
      <trkpt lat="45.18289" lon="6.37085">
        <ele>2807.6000976562</ele>
        <time>2014-01-11T10:13:31.000Z</time>
      </trkpt>
      <trkpt lat="45.18289" lon="6.37086">
        <ele>2807.6000976562</ele>
        <time>2014-01-11T10:13:32.000Z</time>
      </trkpt>
      <trkpt lat="45.18288" lon="6.37086">
        <ele>2807.8000488281</ele>
        <time>2014-01-11T10:13:33.000Z</time>
      </trkpt>
      <trkpt lat="45.18288" lon="6.37087">
        <ele>2808</ele>
        <time>2014-01-11T10:13:34.000Z</time>
      </trkpt>
      <trkpt lat="45.18288" lon="6.37087">
        <ele>2808</ele>
        <time>2014-01-11T10:13:35.000Z</time>
      </trkpt>
      <trkpt lat="45.18287" lon="6.37087">
        <ele>2808.1999511719</ele>
        <time>2014-01-11T10:13:36.000Z</time>
      </trkpt>
      <trkpt lat="45.18287" lon="6.37088">
        <ele>2808.6000976562</ele>
        <time>2014-01-11T10:13:37.000Z</time>
      </trkpt>
      <trkpt lat="45.18287" lon="6.37088">
        <ele>2808.8000488281</ele>
        <time>2014-01-11T10:13:38.000Z</time>
      </trkpt>
      <trkpt lat="45.18287" lon="6.37088">
        <ele>2808.8000488281</ele>
        <time>2014-01-11T10:13:39.000Z</time>
      </trkpt>
      <trkpt lat="45.18287" lon="6.37088">
        <ele>2809</ele>
        <time>2014-01-11T10:13:40.000Z</time>
      </trkpt>
      <trkpt lat="45.18287" lon="6.37089">
        <ele>2809</ele>
        <time>2014-01-11T10:13:41.000Z</time>
      </trkpt>
      <trkpt lat="45.18287" lon="6.37089">
        <ele>2809.1999511719</ele>
        <time>2014-01-11T10:13:42.000Z</time>
      </trkpt>
      <trkpt lat="45.18286" lon="6.37089">
        <ele>2809.1999511719</ele>
        <time>2014-01-11T10:13:43.000Z</time>
      </trkpt>
      <trkpt lat="45.18286" lon="6.3709">
        <ele>2809.1999511719</ele>
        <time>2014-01-11T10:13:44.000Z</time>
      </trkpt>
      <trkpt lat="45.18285" lon="6.3709">
        <ele>2809.1999511719</ele>
        <time>2014-01-11T10:13:45.000Z</time>
      </trkpt>
      <trkpt lat="45.18285" lon="6.3709">
        <ele>2809.3999023438</ele>
        <time>2014-01-11T10:13:46.000Z</time>
      </trkpt>
      <trkpt lat="45.18285" lon="6.37091">
        <ele>2809.3999023438</ele>
        <time>2014-01-11T10:13:47.000Z</time>
      </trkpt>
      <trkpt lat="45.18285" lon="6.37091">
        <ele>2809.3999023438</ele>
        <time>2014-01-11T10:13:48.000Z</time>
      </trkpt>
      <trkpt lat="45.18284" lon="6.37092">
        <ele>2809.6000976562</ele>
        <time>2014-01-11T10:13:49.000Z</time>
      </trkpt>
      <trkpt lat="45.18284" lon="6.37092">
        <ele>2809.8000488281</ele>
        <time>2014-01-11T10:13:50.000Z</time>
      </trkpt>
      <trkpt lat="45.18283" lon="6.37093">
        <ele>2810</ele>
        <time>2014-01-11T10:13:51.000Z</time>
      </trkpt>
      <trkpt lat="45.18283" lon="6.37093">
        <ele>2810.1999511719</ele>
        <time>2014-01-11T10:13:52.000Z</time>
      </trkpt>
      <trkpt lat="45.18282" lon="6.37094">
        <ele>2810.3999023438</ele>
        <time>2014-01-11T10:13:53.000Z</time>
      </trkpt>
      <trkpt lat="45.18282" lon="6.37094">
        <ele>2810.3999023438</ele>
        <time>2014-01-11T10:13:54.000Z</time>
      </trkpt>
      <trkpt lat="45.18282" lon="6.37095">
        <ele>2810.6000976562</ele>
        <time>2014-01-11T10:13:55.000Z</time>
      </trkpt>
      <trkpt lat="45.18282" lon="6.37096">
        <ele>2810.8000488281</ele>
        <time>2014-01-11T10:13:56.000Z</time>
      </trkpt>
      <trkpt lat="45.18282" lon="6.37097">
        <ele>2810.8000488281</ele>
        <time>2014-01-11T10:13:57.000Z</time>
      </trkpt>
      <trkpt lat="45.18282" lon="6.37097">
        <ele>2811</ele>
        <time>2014-01-11T10:13:58.000Z</time>
      </trkpt>
      <trkpt lat="45.18282" lon="6.37097">
        <ele>2811.1999511719</ele>
        <time>2014-01-11T10:13:59.000Z</time>
      </trkpt>
      <trkpt lat="45.18282" lon="6.37098">
        <ele>2811.3999023438</ele>
        <time>2014-01-11T10:14:00.000Z</time>
      </trkpt>
      <trkpt lat="45.18282" lon="6.37099">
        <ele>2811.3999023438</ele>
        <time>2014-01-11T10:14:01.000Z</time>
      </trkpt>
      <trkpt lat="45.18281" lon="6.371">
        <ele>2811.6000976562</ele>
        <time>2014-01-11T10:14:02.000Z</time>
      </trkpt>
      <trkpt lat="45.18281" lon="6.37101">
        <ele>2811.6000976562</ele>
        <time>2014-01-11T10:14:03.000Z</time>
      </trkpt>
      <trkpt lat="45.18281" lon="6.37101">
        <ele>2811.6000976562</ele>
        <time>2014-01-11T10:14:04.000Z</time>
      </trkpt>
      <trkpt lat="45.1828" lon="6.37102">
        <ele>2811.8000488281</ele>
        <time>2014-01-11T10:14:05.000Z</time>
      </trkpt>
      <trkpt lat="45.1828" lon="6.37103">
        <ele>2811.8000488281</ele>
        <time>2014-01-11T10:14:06.000Z</time>
      </trkpt>
      <trkpt lat="45.1828" lon="6.37104">
        <ele>2812</ele>
        <time>2014-01-11T10:14:07.000Z</time>
      </trkpt>
      <trkpt lat="45.1828" lon="6.37104">
        <ele>2812.1999511719</ele>
        <time>2014-01-11T10:14:08.000Z</time>
      </trkpt>
      <trkpt lat="45.18279" lon="6.37104">
        <ele>2812.3999023438</ele>
        <time>2014-01-11T10:14:09.000Z</time>
      </trkpt>
      <trkpt lat="45.18279" lon="6.37104">
        <ele>2812.6000976562</ele>
        <time>2014-01-11T10:14:10.000Z</time>
      </trkpt>
      <trkpt lat="45.18278" lon="6.37105">
        <ele>2812.8000488281</ele>
        <time>2014-01-11T10:14:11.000Z</time>
      </trkpt>
      <trkpt lat="45.18278" lon="6.37105">
        <ele>2813</ele>
        <time>2014-01-11T10:14:12.000Z</time>
      </trkpt>
      <trkpt lat="45.18277" lon="6.37105">
        <ele>2813.1999511719</ele>
        <time>2014-01-11T10:14:13.000Z</time>
      </trkpt>
      <trkpt lat="45.18277" lon="6.37106">
        <ele>2813.3999023438</ele>
        <time>2014-01-11T10:14:14.000Z</time>
      </trkpt>
      <trkpt lat="45.18277" lon="6.37106">
        <ele>2813.6000976562</ele>
        <time>2014-01-11T10:14:15.000Z</time>
      </trkpt>
      <trkpt lat="45.18276" lon="6.37107">
        <ele>2813.8000488281</ele>
        <time>2014-01-11T10:14:16.000Z</time>
      </trkpt>
      <trkpt lat="45.18276" lon="6.37108">
        <ele>2814</ele>
        <time>2014-01-11T10:14:17.000Z</time>
      </trkpt>
      <trkpt lat="45.18276" lon="6.37109">
        <ele>2814.1999511719</ele>
        <time>2014-01-11T10:14:18.000Z</time>
      </trkpt>
      <trkpt lat="45.18276" lon="6.37109">
        <ele>2814.3999023438</ele>
        <time>2014-01-11T10:14:19.000Z</time>
      </trkpt>
      <trkpt lat="45.18276" lon="6.37109">
        <ele>2814.3999023438</ele>
        <time>2014-01-11T10:14:20.000Z</time>
      </trkpt>
      <trkpt lat="45.18276" lon="6.37109">
        <ele>2814.6000976562</ele>
        <time>2014-01-11T10:14:21.000Z</time>
      </trkpt>
      <trkpt lat="45.18276" lon="6.37109">
        <ele>2814.6000976562</ele>
        <time>2014-01-11T10:14:22.000Z</time>
      </trkpt>
      <trkpt lat="45.18276" lon="6.37109">
        <ele>2814.8000488281</ele>
        <time>2014-01-11T10:14:23.000Z</time>
      </trkpt>
      <trkpt lat="45.18275" lon="6.3711">
        <ele>2815</ele>
        <time>2014-01-11T10:14:24.000Z</time>
      </trkpt>
      <trkpt lat="45.18275" lon="6.3711">
        <ele>2815</ele>
        <time>2014-01-11T10:14:25.000Z</time>
      </trkpt>
      <trkpt lat="45.18274" lon="6.3711">
        <ele>2815</ele>
        <time>2014-01-11T10:14:26.000Z</time>
      </trkpt>
      <trkpt lat="45.18274" lon="6.37111">
        <ele>2815.1999511719</ele>
        <time>2014-01-11T10:14:27.000Z</time>
      </trkpt>
      <trkpt lat="45.18274" lon="6.37111">
        <ele>2815.1999511719</ele>
        <time>2014-01-11T10:14:28.000Z</time>
      </trkpt>
      <trkpt lat="45.18273" lon="6.37112">
        <ele>2815.3999023438</ele>
        <time>2014-01-11T10:14:29.000Z</time>
      </trkpt>
      <trkpt lat="45.18272" lon="6.37113">
        <ele>2815.3999023438</ele>
        <time>2014-01-11T10:14:30.000Z</time>
      </trkpt>
      <trkpt lat="45.18272" lon="6.37113">
        <ele>2815.6000976562</ele>
        <time>2014-01-11T10:14:31.000Z</time>
      </trkpt>
      <trkpt lat="45.18271" lon="6.37114">
        <ele>2815.8000488281</ele>
        <time>2014-01-11T10:14:32.000Z</time>
      </trkpt>
      <trkpt lat="45.1827" lon="6.37115">
        <ele>2815.8000488281</ele>
        <time>2014-01-11T10:14:33.000Z</time>
      </trkpt>
      <trkpt lat="45.1827" lon="6.37115">
        <ele>2815.8000488281</ele>
        <time>2014-01-11T10:14:34.000Z</time>
      </trkpt>
      <trkpt lat="45.1827" lon="6.37115">
        <ele>2816</ele>
        <time>2014-01-11T10:14:35.000Z</time>
      </trkpt>
      <trkpt lat="45.18269" lon="6.37117">
        <ele>2816.1999511719</ele>
        <time>2014-01-11T10:14:36.000Z</time>
      </trkpt>
      <trkpt lat="45.18269" lon="6.37117">
        <ele>2816.1999511719</ele>
        <time>2014-01-11T10:14:37.000Z</time>
      </trkpt>
      <trkpt lat="45.18268" lon="6.37118">
        <ele>2816.1999511719</ele>
        <time>2014-01-11T10:14:38.000Z</time>
      </trkpt>
      <trkpt lat="45.18268" lon="6.37118">
        <ele>2816.3999023438</ele>
        <time>2014-01-11T10:14:39.000Z</time>
      </trkpt>
      <trkpt lat="45.18268" lon="6.37118">
        <ele>2816.6000976562</ele>
        <time>2014-01-11T10:14:40.000Z</time>
      </trkpt>
      <trkpt lat="45.18267" lon="6.37119">
        <ele>2816.6000976562</ele>
        <time>2014-01-11T10:14:41.000Z</time>
      </trkpt>
      <trkpt lat="45.18267" lon="6.37119">
        <ele>2816.8000488281</ele>
        <time>2014-01-11T10:14:42.000Z</time>
      </trkpt>
      <trkpt lat="45.18266" lon="6.3712">
        <ele>2816.8000488281</ele>
        <time>2014-01-11T10:14:43.000Z</time>
      </trkpt>
      <trkpt lat="45.18266" lon="6.3712">
        <ele>2817</ele>
        <time>2014-01-11T10:14:44.000Z</time>
      </trkpt>
      <trkpt lat="45.18265" lon="6.37121">
        <ele>2817</ele>
        <time>2014-01-11T10:14:45.000Z</time>
      </trkpt>
      <trkpt lat="45.18264" lon="6.37121">
        <ele>2817.1999511719</ele>
        <time>2014-01-11T10:14:46.000Z</time>
      </trkpt>
      <trkpt lat="45.18263" lon="6.37122">
        <ele>2817.3999023438</ele>
        <time>2014-01-11T10:14:47.000Z</time>
      </trkpt>
      <trkpt lat="45.18263" lon="6.37122">
        <ele>2817.3999023438</ele>
        <time>2014-01-11T10:14:48.000Z</time>
      </trkpt>
      <trkpt lat="45.18263" lon="6.37122">
        <ele>2817.6000976562</ele>
        <time>2014-01-11T10:14:49.000Z</time>
      </trkpt>
      <trkpt lat="45.18263" lon="6.37122">
        <ele>2817.8000488281</ele>
        <time>2014-01-11T10:14:50.000Z</time>
      </trkpt>
      <trkpt lat="45.18262" lon="6.37122">
        <ele>2818</ele>
        <time>2014-01-11T10:14:51.000Z</time>
      </trkpt>
      <trkpt lat="45.18262" lon="6.37122">
        <ele>2818</ele>
        <time>2014-01-11T10:14:52.000Z</time>
      </trkpt>
      <trkpt lat="45.18262" lon="6.37122">
        <ele>2818.1999511719</ele>
        <time>2014-01-11T10:14:53.000Z</time>
      </trkpt>
      <trkpt lat="45.18262" lon="6.37122">
        <ele>2818.1999511719</ele>
        <time>2014-01-11T10:14:54.000Z</time>
      </trkpt>
      <trkpt lat="45.18262" lon="6.37122">
        <ele>2818.1999511719</ele>
        <time>2014-01-11T10:14:55.000Z</time>
      </trkpt>
      <trkpt lat="45.18262" lon="6.37122">
        <ele>2818.1999511719</ele>
        <time>2014-01-11T10:14:56.000Z</time>
      </trkpt>
      <trkpt lat="45.18262" lon="6.37122">
        <ele>2818.1999511719</ele>
        <time>2014-01-11T10:14:57.000Z</time>
      </trkpt>
      <trkpt lat="45.18262" lon="6.37122">
        <ele>2818.1999511719</ele>
        <time>2014-01-11T10:14:58.000Z</time>
      </trkpt>
      <trkpt lat="45.18262" lon="6.37122">
        <ele>2818.1999511719</ele>
        <time>2014-01-11T10:14:59.000Z</time>
      </trkpt>
      <trkpt lat="45.18262" lon="6.37122">
        <ele>2818.1999511719</ele>
        <time>2014-01-11T10:15:00.000Z</time>
      </trkpt>
      <trkpt lat="45.18262" lon="6.37122">
        <ele>2818.1999511719</ele>
        <time>2014-01-11T10:15:01.000Z</time>
      </trkpt>
      <trkpt lat="45.18262" lon="6.37122">
        <ele>2818.1999511719</ele>
        <time>2014-01-11T10:15:02.000Z</time>
      </trkpt>
      <trkpt lat="45.18262" lon="6.37122">
        <ele>2818.3999023438</ele>
        <time>2014-01-11T10:15:03.000Z</time>
      </trkpt>
      <trkpt lat="45.18261" lon="6.37123">
        <ele>2818.3999023438</ele>
        <time>2014-01-11T10:15:04.000Z</time>
      </trkpt>
      <trkpt lat="45.1826" lon="6.37123">
        <ele>2818.3999023438</ele>
        <time>2014-01-11T10:15:05.000Z</time>
      </trkpt>
      <trkpt lat="45.18259" lon="6.37123">
        <ele>2818.3999023438</ele>
        <time>2014-01-11T10:15:06.000Z</time>
      </trkpt>
      <trkpt lat="45.18259" lon="6.37123">
        <ele>2818.6000976562</ele>
        <time>2014-01-11T10:15:07.000Z</time>
      </trkpt>
      <trkpt lat="45.18257" lon="6.37123">
        <ele>2818.6000976562</ele>
        <time>2014-01-11T10:15:08.000Z</time>
      </trkpt>
      <trkpt lat="45.18256" lon="6.37123">
        <ele>2818.6000976562</ele>
        <time>2014-01-11T10:15:09.000Z</time>
      </trkpt>
      <trkpt lat="45.18256" lon="6.37123">
        <ele>2818.8000488281</ele>
        <time>2014-01-11T10:15:11.000Z</time>
      </trkpt>
      <trkpt lat="45.18255" lon="6.37123">
        <ele>2818.8000488281</ele>
        <time>2014-01-11T10:15:12.000Z</time>
      </trkpt>
      <trkpt lat="45.18255" lon="6.37124">
        <ele>2819</ele>
        <time>2014-01-11T10:15:13.000Z</time>
      </trkpt>
      <trkpt lat="45.18254" lon="6.37124">
        <ele>2819</ele>
        <time>2014-01-11T10:15:14.000Z</time>
      </trkpt>
      <trkpt lat="45.18253" lon="6.37125">
        <ele>2819</ele>
        <time>2014-01-11T10:15:15.000Z</time>
      </trkpt>
      <trkpt lat="45.18252" lon="6.37125">
        <ele>2819.1999511719</ele>
        <time>2014-01-11T10:15:16.000Z</time>
      </trkpt>
      <trkpt lat="45.18251" lon="6.37126">
        <ele>2819.3999023438</ele>
        <time>2014-01-11T10:15:17.000Z</time>
      </trkpt>
      <trkpt lat="45.1825" lon="6.37126">
        <ele>2819.8000488281</ele>
        <time>2014-01-11T10:15:18.000Z</time>
      </trkpt>
      <trkpt lat="45.1825" lon="6.37126">
        <ele>2820</ele>
        <time>2014-01-11T10:15:19.000Z</time>
      </trkpt>
      <trkpt lat="45.18249" lon="6.37127">
        <ele>2820.1999511719</ele>
        <time>2014-01-11T10:15:20.000Z</time>
      </trkpt>
      <trkpt lat="45.18249" lon="6.37127">
        <ele>2820.1999511719</ele>
        <time>2014-01-11T10:15:21.000Z</time>
      </trkpt>
      <trkpt lat="45.18249" lon="6.37127">
        <ele>2820.3999023438</ele>
        <time>2014-01-11T10:15:22.000Z</time>
      </trkpt>
      <trkpt lat="45.18248" lon="6.37128">
        <ele>2820.3999023438</ele>
        <time>2014-01-11T10:15:23.000Z</time>
      </trkpt>
      <trkpt lat="45.18248" lon="6.37128">
        <ele>2820.6000976562</ele>
        <time>2014-01-11T10:15:24.000Z</time>
      </trkpt>
      <trkpt lat="45.18247" lon="6.37129">
        <ele>2820.8000488281</ele>
        <time>2014-01-11T10:15:25.000Z</time>
      </trkpt>
      <trkpt lat="45.18246" lon="6.37129">
        <ele>2820.8000488281</ele>
        <time>2014-01-11T10:15:26.000Z</time>
      </trkpt>
      <trkpt lat="45.18246" lon="6.37129">
        <ele>2821</ele>
        <time>2014-01-11T10:15:27.000Z</time>
      </trkpt>
      <trkpt lat="45.18246" lon="6.37129">
        <ele>2821</ele>
        <time>2014-01-11T10:15:28.000Z</time>
      </trkpt>
      <trkpt lat="45.18245" lon="6.37128">
        <ele>2821.1999511719</ele>
        <time>2014-01-11T10:15:29.000Z</time>
      </trkpt>
      <trkpt lat="45.18245" lon="6.37128">
        <ele>2821.1999511719</ele>
        <time>2014-01-11T10:15:30.000Z</time>
      </trkpt>
      <trkpt lat="45.18245" lon="6.37128">
        <ele>2821.3999023438</ele>
        <time>2014-01-11T10:15:31.000Z</time>
      </trkpt>
      <trkpt lat="45.18245" lon="6.37128">
        <ele>2821.3999023438</ele>
        <time>2014-01-11T10:15:32.000Z</time>
      </trkpt>
      <trkpt lat="45.18245" lon="6.37128">
        <ele>2821.6000976562</ele>
        <time>2014-01-11T10:15:33.000Z</time>
      </trkpt>
      <trkpt lat="45.18245" lon="6.37128">
        <ele>2821.6000976562</ele>
        <time>2014-01-11T10:15:34.000Z</time>
      </trkpt>
      <trkpt lat="45.18245" lon="6.37128">
        <ele>2821.6000976562</ele>
        <time>2014-01-11T10:15:35.000Z</time>
      </trkpt>
      <trkpt lat="45.18245" lon="6.37128">
        <ele>2821.6000976562</ele>
        <time>2014-01-11T10:15:36.000Z</time>
      </trkpt>
      <trkpt lat="45.18245" lon="6.37128">
        <ele>2821.6000976562</ele>
        <time>2014-01-11T10:15:37.000Z</time>
      </trkpt>
      <trkpt lat="45.18245" lon="6.37128">
        <ele>2821.6000976562</ele>
        <time>2014-01-11T10:15:38.000Z</time>
      </trkpt>
      <trkpt lat="45.18245" lon="6.37128">
        <ele>2821.6000976562</ele>
        <time>2014-01-11T10:15:39.000Z</time>
      </trkpt>
      <trkpt lat="45.18245" lon="6.37128">
        <ele>2821.6000976562</ele>
        <time>2014-01-11T10:15:40.000Z</time>
      </trkpt>
      <trkpt lat="45.18245" lon="6.37128">
        <ele>2821.6000976562</ele>
        <time>2014-01-11T10:15:43.000Z</time>
      </trkpt>
      <trkpt lat="45.18245" lon="6.37128">
        <ele>2821.3999023438</ele>
        <time>2014-01-11T10:15:44.000Z</time>
      </trkpt>
      <trkpt lat="45.18245" lon="6.37128">
        <ele>2821.1999511719</ele>
        <time>2014-01-11T10:15:45.000Z</time>
      </trkpt>
      <trkpt lat="45.18245" lon="6.37128">
        <ele>2821</ele>
        <time>2014-01-11T10:15:46.000Z</time>
      </trkpt>
      <trkpt lat="45.18245" lon="6.37128">
        <ele>2820.8000488281</ele>
        <time>2014-01-11T10:15:47.000Z</time>
      </trkpt>
      <trkpt lat="45.18245" lon="6.37128">
        <ele>2820.6000976562</ele>
        <time>2014-01-11T10:15:48.000Z</time>
      </trkpt>
      <trkpt lat="45.18245" lon="6.37128">
        <ele>2820.6000976562</ele>
        <time>2014-01-11T10:15:49.000Z</time>
      </trkpt>
      <trkpt lat="45.18245" lon="6.37128">
        <ele>2820.6000976562</ele>
        <time>2014-01-11T10:15:50.000Z</time>
      </trkpt>
      <trkpt lat="45.18245" lon="6.37128">
        <ele>2820.6000976562</ele>
        <time>2014-01-11T10:15:51.000Z</time>
      </trkpt>
      <trkpt lat="45.18245" lon="6.37128">
        <ele>2820.6000976562</ele>
        <time>2014-01-11T10:15:52.000Z</time>
      </trkpt>
      <trkpt lat="45.18245" lon="6.37128">
        <ele>2820.6000976562</ele>
        <time>2014-01-11T10:15:54.000Z</time>
      </trkpt>
      <trkpt lat="45.18245" lon="6.37128">
        <ele>2821</ele>
        <time>2014-01-11T10:15:55.000Z</time>
      </trkpt>
      <trkpt lat="45.18245" lon="6.37128">
        <ele>2821.1999511719</ele>
        <time>2014-01-11T10:15:56.000Z</time>
      </trkpt>
      <trkpt lat="45.18245" lon="6.37128">
        <ele>2821.3999023438</ele>
        <time>2014-01-11T10:15:57.000Z</time>
      </trkpt>
      <trkpt lat="45.18245" lon="6.37128">
        <ele>2821.6000976562</ele>
        <time>2014-01-11T10:15:58.000Z</time>
      </trkpt>
      <trkpt lat="45.18245" lon="6.37128">
        <ele>2821.6000976562</ele>
        <time>2014-01-11T10:15:59.000Z</time>
      </trkpt>
      <trkpt lat="45.18245" lon="6.37128">
        <ele>2821.6000976562</ele>
        <time>2014-01-11T10:16:01.000Z</time>
      </trkpt>
      <trkpt lat="45.18245" lon="6.37128">
        <ele>2821.6000976562</ele>
        <time>2014-01-11T10:16:02.000Z</time>
      </trkpt>
      <trkpt lat="45.18245" lon="6.37128">
        <ele>2821.3999023438</ele>
        <time>2014-01-11T10:16:03.000Z</time>
      </trkpt>
      <trkpt lat="45.18245" lon="6.37128">
        <ele>2821.3999023438</ele>
        <time>2014-01-11T10:16:04.000Z</time>
      </trkpt>
      <trkpt lat="45.18245" lon="6.37128">
        <ele>2821.3999023438</ele>
        <time>2014-01-11T10:16:05.000Z</time>
      </trkpt>
      <trkpt lat="45.18245" lon="6.37128">
        <ele>2821.3999023438</ele>
        <time>2014-01-11T10:16:06.000Z</time>
      </trkpt>
      <trkpt lat="45.18244" lon="6.37127">
        <ele>2821.3999023438</ele>
        <time>2014-01-11T10:16:07.000Z</time>
      </trkpt>
      <trkpt lat="45.18244" lon="6.37125">
        <ele>2821.8000488281</ele>
        <time>2014-01-11T10:16:08.000Z</time>
      </trkpt>
      <trkpt lat="45.18244" lon="6.37124">
        <ele>2822.1999511719</ele>
        <time>2014-01-11T10:16:09.000Z</time>
      </trkpt>
      <trkpt lat="45.18244" lon="6.37123">
        <ele>2822.6000976562</ele>
        <time>2014-01-11T10:16:10.000Z</time>
      </trkpt>
      <trkpt lat="45.18243" lon="6.37122">
        <ele>2823.1999511719</ele>
        <time>2014-01-11T10:16:11.000Z</time>
      </trkpt>
      <trkpt lat="45.18243" lon="6.37122">
        <ele>2823.1999511719</ele>
        <time>2014-01-11T10:16:12.000Z</time>
      </trkpt>
      <trkpt lat="45.18243" lon="6.37121">
        <ele>2823.3999023438</ele>
        <time>2014-01-11T10:16:13.000Z</time>
      </trkpt>
      <trkpt lat="45.18243" lon="6.37121">
        <ele>2823.3999023438</ele>
        <time>2014-01-11T10:16:14.000Z</time>
      </trkpt>
      <trkpt lat="45.18243" lon="6.37121">
        <ele>2823.3999023438</ele>
        <time>2014-01-11T10:16:15.000Z</time>
      </trkpt>
      <trkpt lat="45.18243" lon="6.37121">
        <ele>2823.3999023438</ele>
        <time>2014-01-11T10:16:16.000Z</time>
      </trkpt>
      <trkpt lat="45.18243" lon="6.37121">
        <ele>2823.3999023438</ele>
        <time>2014-01-11T10:16:17.000Z</time>
      </trkpt>
      <trkpt lat="45.18243" lon="6.37121">
        <ele>2823.1999511719</ele>
        <time>2014-01-11T10:16:19.000Z</time>
      </trkpt>
      <trkpt lat="45.18243" lon="6.37121">
        <ele>2823.1999511719</ele>
        <time>2014-01-11T10:16:20.000Z</time>
      </trkpt>
      <trkpt lat="45.18243" lon="6.37121">
        <ele>2823.1999511719</ele>
        <time>2014-01-11T10:16:21.000Z</time>
      </trkpt>
      <trkpt lat="45.18243" lon="6.37121">
        <ele>2823.1999511719</ele>
        <time>2014-01-11T10:16:24.000Z</time>
      </trkpt>
      <trkpt lat="45.18243" lon="6.37121">
        <ele>2823.1999511719</ele>
        <time>2014-01-11T10:16:25.000Z</time>
      </trkpt>
      <trkpt lat="45.18243" lon="6.37121">
        <ele>2823.1999511719</ele>
        <time>2014-01-11T10:16:26.000Z</time>
      </trkpt>
      <trkpt lat="45.18243" lon="6.37121">
        <ele>2823.1999511719</ele>
        <time>2014-01-11T10:16:27.000Z</time>
      </trkpt>
      <trkpt lat="45.18243" lon="6.37121">
        <ele>2823.3999023438</ele>
        <time>2014-01-11T10:16:28.000Z</time>
      </trkpt>
      <trkpt lat="45.18243" lon="6.37121">
        <ele>2823.3999023438</ele>
        <time>2014-01-11T10:16:29.000Z</time>
      </trkpt>
      <trkpt lat="45.18243" lon="6.37121">
        <ele>2823.3999023438</ele>
        <time>2014-01-11T10:16:30.000Z</time>
      </trkpt>
      <trkpt lat="45.18243" lon="6.37121">
        <ele>2823.3999023438</ele>
        <time>2014-01-11T10:16:32.000Z</time>
      </trkpt>
      <trkpt lat="45.18243" lon="6.37121">
        <ele>2823.3999023438</ele>
        <time>2014-01-11T10:16:33.000Z</time>
      </trkpt>
      <trkpt lat="45.18243" lon="6.37121">
        <ele>2823.6000976562</ele>
        <time>2014-01-11T10:16:34.000Z</time>
      </trkpt>
      <trkpt lat="45.18243" lon="6.37121">
        <ele>2823.8000488281</ele>
        <time>2014-01-11T10:16:35.000Z</time>
      </trkpt>
      <trkpt lat="45.18243" lon="6.37121">
        <ele>2823.8000488281</ele>
        <time>2014-01-11T10:16:36.000Z</time>
      </trkpt>
      <trkpt lat="45.18243" lon="6.37121">
        <ele>2824</ele>
        <time>2014-01-11T10:16:37.000Z</time>
      </trkpt>
      <trkpt lat="45.18243" lon="6.37121">
        <ele>2824</ele>
        <time>2014-01-11T10:16:38.000Z</time>
      </trkpt>
      <trkpt lat="45.18243" lon="6.37121">
        <ele>2824</ele>
        <time>2014-01-11T10:16:39.000Z</time>
      </trkpt>
      <trkpt lat="45.18243" lon="6.37121">
        <ele>2824</ele>
        <time>2014-01-11T10:16:40.000Z</time>
      </trkpt>
      <trkpt lat="45.18243" lon="6.37121">
        <ele>2824</ele>
        <time>2014-01-11T10:16:41.000Z</time>
      </trkpt>
      <trkpt lat="45.18243" lon="6.37121">
        <ele>2823.8000488281</ele>
        <time>2014-01-11T10:16:42.000Z</time>
      </trkpt>
      <trkpt lat="45.18243" lon="6.37121">
        <ele>2823.8000488281</ele>
        <time>2014-01-11T10:16:43.000Z</time>
      </trkpt>
      <trkpt lat="45.18243" lon="6.37121">
        <ele>2823.6000976562</ele>
        <time>2014-01-11T10:16:44.000Z</time>
      </trkpt>
      <trkpt lat="45.18243" lon="6.37121">
        <ele>2823.6000976562</ele>
        <time>2014-01-11T10:16:45.000Z</time>
      </trkpt>
      <trkpt lat="45.18243" lon="6.37121">
        <ele>2823.3999023438</ele>
        <time>2014-01-11T10:16:46.000Z</time>
      </trkpt>
      <trkpt lat="45.18243" lon="6.37121">
        <ele>2823.3999023438</ele>
        <time>2014-01-11T10:16:47.000Z</time>
      </trkpt>
      <trkpt lat="45.18243" lon="6.37121">
        <ele>2823.3999023438</ele>
        <time>2014-01-11T10:16:48.000Z</time>
      </trkpt>
      <trkpt lat="45.18243" lon="6.37121">
        <ele>2823.3999023438</ele>
        <time>2014-01-11T10:16:49.000Z</time>
      </trkpt>
      <trkpt lat="45.18243" lon="6.3712">
        <ele>2823.3999023438</ele>
        <time>2014-01-11T10:16:50.000Z</time>
      </trkpt>
      <trkpt lat="45.18243" lon="6.37119">
        <ele>2823.1999511719</ele>
        <time>2014-01-11T10:16:51.000Z</time>
      </trkpt>
      <trkpt lat="45.18243" lon="6.37119">
        <ele>2823.1999511719</ele>
        <time>2014-01-11T10:16:52.000Z</time>
      </trkpt>
      <trkpt lat="45.18243" lon="6.37119">
        <ele>2823</ele>
        <time>2014-01-11T10:16:53.000Z</time>
      </trkpt>
      <trkpt lat="45.18243" lon="6.37119">
        <ele>2822.8000488281</ele>
        <time>2014-01-11T10:16:54.000Z</time>
      </trkpt>
      <trkpt lat="45.18243" lon="6.37119">
        <ele>2822.6000976562</ele>
        <time>2014-01-11T10:16:55.000Z</time>
      </trkpt>
      <trkpt lat="45.18243" lon="6.37119">
        <ele>2822.6000976562</ele>
        <time>2014-01-11T10:16:56.000Z</time>
      </trkpt>
      <trkpt lat="45.18243" lon="6.37119">
        <ele>2822.6000976562</ele>
        <time>2014-01-11T10:16:58.000Z</time>
      </trkpt>
      <trkpt lat="45.18243" lon="6.37119">
        <ele>2823.1999511719</ele>
        <time>2014-01-11T10:16:59.000Z</time>
      </trkpt>
      <trkpt lat="45.18243" lon="6.37119">
        <ele>2823.3999023438</ele>
        <time>2014-01-11T10:17:00.000Z</time>
      </trkpt>
      <trkpt lat="45.18243" lon="6.37119">
        <ele>2823.6000976562</ele>
        <time>2014-01-11T10:17:01.000Z</time>
      </trkpt>
      <trkpt lat="45.18243" lon="6.37119">
        <ele>2823.6000976562</ele>
        <time>2014-01-11T10:17:02.000Z</time>
      </trkpt>
      <trkpt lat="45.18243" lon="6.37119">
        <ele>2823.8000488281</ele>
        <time>2014-01-11T10:17:03.000Z</time>
      </trkpt>
      <trkpt lat="45.18243" lon="6.37119">
        <ele>2823.8000488281</ele>
        <time>2014-01-11T10:17:04.000Z</time>
      </trkpt>
      <trkpt lat="45.18243" lon="6.37119">
        <ele>2823.8000488281</ele>
        <time>2014-01-11T10:17:06.000Z</time>
      </trkpt>
      <trkpt lat="45.18243" lon="6.37119">
        <ele>2823.8000488281</ele>
        <time>2014-01-11T10:17:07.000Z</time>
      </trkpt>
      <trkpt lat="45.18243" lon="6.37119">
        <ele>2823.6000976562</ele>
        <time>2014-01-11T10:17:08.000Z</time>
      </trkpt>
      <trkpt lat="45.18243" lon="6.37119">
        <ele>2823.3999023438</ele>
        <time>2014-01-11T10:17:09.000Z</time>
      </trkpt>
      <trkpt lat="45.18243" lon="6.37119">
        <ele>2823.3999023438</ele>
        <time>2014-01-11T10:17:10.000Z</time>
      </trkpt>
      <trkpt lat="45.18243" lon="6.37119">
        <ele>2823.1999511719</ele>
        <time>2014-01-11T10:17:11.000Z</time>
      </trkpt>
      <trkpt lat="45.18243" lon="6.37119">
        <ele>2823.1999511719</ele>
        <time>2014-01-11T10:17:12.000Z</time>
      </trkpt>
      <trkpt lat="45.18243" lon="6.37119">
        <ele>2823</ele>
        <time>2014-01-11T10:17:13.000Z</time>
      </trkpt>
      <trkpt lat="45.18243" lon="6.37119">
        <ele>2823</ele>
        <time>2014-01-11T10:17:14.000Z</time>
      </trkpt>
      <trkpt lat="45.18243" lon="6.37119">
        <ele>2822.8000488281</ele>
        <time>2014-01-11T10:17:15.000Z</time>
      </trkpt>
      <trkpt lat="45.18243" lon="6.37119">
        <ele>2822.8000488281</ele>
        <time>2014-01-11T10:17:16.000Z</time>
      </trkpt>
      <trkpt lat="45.18243" lon="6.37119">
        <ele>2822.8000488281</ele>
        <time>2014-01-11T10:17:17.000Z</time>
      </trkpt>
      <trkpt lat="45.18243" lon="6.37119">
        <ele>2822.8000488281</ele>
        <time>2014-01-11T10:17:18.000Z</time>
      </trkpt>
      <trkpt lat="45.18243" lon="6.37119">
        <ele>2822.8000488281</ele>
        <time>2014-01-11T10:17:19.000Z</time>
      </trkpt>
      <trkpt lat="45.18243" lon="6.37119">
        <ele>2822.8000488281</ele>
        <time>2014-01-11T10:17:20.000Z</time>
      </trkpt>
      <trkpt lat="45.18243" lon="6.37119">
        <ele>2822.8000488281</ele>
        <time>2014-01-11T10:17:21.000Z</time>
      </trkpt>
      <trkpt lat="45.18243" lon="6.37119">
        <ele>2822.8000488281</ele>
        <time>2014-01-11T10:17:22.000Z</time>
      </trkpt>
      <trkpt lat="45.18243" lon="6.37119">
        <ele>2822.8000488281</ele>
        <time>2014-01-11T10:17:23.000Z</time>
      </trkpt>
      <trkpt lat="45.18243" lon="6.37119">
        <ele>2822.8000488281</ele>
        <time>2014-01-11T10:17:24.000Z</time>
      </trkpt>
      <trkpt lat="45.18243" lon="6.37119">
        <ele>2822.8000488281</ele>
        <time>2014-01-11T10:17:25.000Z</time>
      </trkpt>
      <trkpt lat="45.18243" lon="6.37119">
        <ele>2822.8000488281</ele>
        <time>2014-01-11T10:17:26.000Z</time>
      </trkpt>
      <trkpt lat="45.18243" lon="6.37119">
        <ele>2822.8000488281</ele>
        <time>2014-01-11T10:17:27.000Z</time>
      </trkpt>
      <trkpt lat="45.18243" lon="6.37119">
        <ele>2822.8000488281</ele>
        <time>2014-01-11T10:17:28.000Z</time>
      </trkpt>
      <trkpt lat="45.18243" lon="6.37119">
        <ele>2822.8000488281</ele>
        <time>2014-01-11T10:17:29.000Z</time>
      </trkpt>
      <trkpt lat="45.18243" lon="6.37119">
        <ele>2822.8000488281</ele>
        <time>2014-01-11T10:17:30.000Z</time>
      </trkpt>
      <trkpt lat="45.18243" lon="6.37119">
        <ele>2822.8000488281</ele>
        <time>2014-01-11T10:17:31.000Z</time>
      </trkpt>
      <trkpt lat="45.18242" lon="6.3712">
        <ele>2823</ele>
        <time>2014-01-11T10:17:32.000Z</time>
      </trkpt>
      <trkpt lat="45.18242" lon="6.3712">
        <ele>2823</ele>
        <time>2014-01-11T10:17:33.000Z</time>
      </trkpt>
      <trkpt lat="45.18241" lon="6.37122">
        <ele>2823</ele>
        <time>2014-01-11T10:17:34.000Z</time>
      </trkpt>
      <trkpt lat="45.1824" lon="6.37123">
        <ele>2822.8000488281</ele>
        <time>2014-01-11T10:17:35.000Z</time>
      </trkpt>
      <trkpt lat="45.18239" lon="6.37124">
        <ele>2822.6000976562</ele>
        <time>2014-01-11T10:17:36.000Z</time>
      </trkpt>
      <trkpt lat="45.18238" lon="6.37125">
        <ele>2821.8000488281</ele>
        <time>2014-01-11T10:17:37.000Z</time>
      </trkpt>
      <trkpt lat="45.18237" lon="6.37126">
        <ele>2821</ele>
        <time>2014-01-11T10:17:38.000Z</time>
      </trkpt>
      <trkpt lat="45.18237" lon="6.37127">
        <ele>2820.1999511719</ele>
        <time>2014-01-11T10:17:39.000Z</time>
      </trkpt>
      <trkpt lat="45.18236" lon="6.37127">
        <ele>2819.8000488281</ele>
        <time>2014-01-11T10:17:40.000Z</time>
      </trkpt>
      <trkpt lat="45.18236" lon="6.37127">
        <ele>2819.3999023438</ele>
        <time>2014-01-11T10:17:41.000Z</time>
      </trkpt>
      <trkpt lat="45.18236" lon="6.37127">
        <ele>2819.1999511719</ele>
        <time>2014-01-11T10:17:42.000Z</time>
      </trkpt>
      <trkpt lat="45.18236" lon="6.37127">
        <ele>2819.1999511719</ele>
        <time>2014-01-11T10:17:43.000Z</time>
      </trkpt>
      <trkpt lat="45.18236" lon="6.37128">
        <ele>2819</ele>
        <time>2014-01-11T10:17:44.000Z</time>
      </trkpt>
      <trkpt lat="45.18236" lon="6.37129">
        <ele>2819</ele>
        <time>2014-01-11T10:17:45.000Z</time>
      </trkpt>
      <trkpt lat="45.18236" lon="6.37129">
        <ele>2819</ele>
        <time>2014-01-11T10:17:46.000Z</time>
      </trkpt>
      <trkpt lat="45.18236" lon="6.37129">
        <ele>2818.8000488281</ele>
        <time>2014-01-11T10:17:47.000Z</time>
      </trkpt>
      <trkpt lat="45.18236" lon="6.37129">
        <ele>2818.8000488281</ele>
        <time>2014-01-11T10:17:48.000Z</time>
      </trkpt>
      <trkpt lat="45.18236" lon="6.37129">
        <ele>2818.6000976562</ele>
        <time>2014-01-11T10:17:49.000Z</time>
      </trkpt>
      <trkpt lat="45.18236" lon="6.37129">
        <ele>2818.6000976562</ele>
        <time>2014-01-11T10:17:50.000Z</time>
      </trkpt>
      <trkpt lat="45.18236" lon="6.37129">
        <ele>2818.6000976562</ele>
        <time>2014-01-11T10:17:51.000Z</time>
      </trkpt>
      <trkpt lat="45.18236" lon="6.37129">
        <ele>2818.6000976562</ele>
        <time>2014-01-11T10:17:52.000Z</time>
      </trkpt>
      <trkpt lat="45.18236" lon="6.37129">
        <ele>2818.3999023438</ele>
        <time>2014-01-11T10:17:53.000Z</time>
      </trkpt>
      <trkpt lat="45.18236" lon="6.37129">
        <ele>2818.3999023438</ele>
        <time>2014-01-11T10:17:54.000Z</time>
      </trkpt>
      <trkpt lat="45.18236" lon="6.37129">
        <ele>2818.3999023438</ele>
        <time>2014-01-11T10:17:55.000Z</time>
      </trkpt>
      <trkpt lat="45.18236" lon="6.37129">
        <ele>2818.3999023438</ele>
        <time>2014-01-11T10:17:56.000Z</time>
      </trkpt>
      <trkpt lat="45.18236" lon="6.37129">
        <ele>2818.3999023438</ele>
        <time>2014-01-11T10:17:58.000Z</time>
      </trkpt>
      <trkpt lat="45.18236" lon="6.37129">
        <ele>2818.3999023438</ele>
        <time>2014-01-11T10:17:59.000Z</time>
      </trkpt>
      <trkpt lat="45.18236" lon="6.37129">
        <ele>2818.3999023438</ele>
        <time>2014-01-11T10:18:00.000Z</time>
      </trkpt>
      <trkpt lat="45.18236" lon="6.37129">
        <ele>2818.3999023438</ele>
        <time>2014-01-11T10:18:01.000Z</time>
      </trkpt>
      <trkpt lat="45.18236" lon="6.37129">
        <ele>2818.3999023438</ele>
        <time>2014-01-11T10:18:02.000Z</time>
      </trkpt>
      <trkpt lat="45.18236" lon="6.37129">
        <ele>2818.3999023438</ele>
        <time>2014-01-11T10:18:03.000Z</time>
      </trkpt>
      <trkpt lat="45.18236" lon="6.37129">
        <ele>2818.3999023438</ele>
        <time>2014-01-11T10:18:04.000Z</time>
      </trkpt>
      <trkpt lat="45.18236" lon="6.37129">
        <ele>2818.3999023438</ele>
        <time>2014-01-11T10:18:05.000Z</time>
      </trkpt>
      <trkpt lat="45.18236" lon="6.37129">
        <ele>2818.3999023438</ele>
        <time>2014-01-11T10:18:07.000Z</time>
      </trkpt>
      <trkpt lat="45.18236" lon="6.37129">
        <ele>2818.3999023438</ele>
        <time>2014-01-11T10:18:08.000Z</time>
      </trkpt>
      <trkpt lat="45.18236" lon="6.37129">
        <ele>2818.3999023438</ele>
        <time>2014-01-11T10:18:10.000Z</time>
      </trkpt>
      <trkpt lat="45.18236" lon="6.37129">
        <ele>2818.3999023438</ele>
        <time>2014-01-11T10:18:11.000Z</time>
      </trkpt>
      <trkpt lat="45.18236" lon="6.37129">
        <ele>2818.3999023438</ele>
        <time>2014-01-11T10:18:13.000Z</time>
      </trkpt>
      <trkpt lat="45.18236" lon="6.37131">
        <ele>2818.6000976562</ele>
        <time>2014-01-11T10:18:15.000Z</time>
      </trkpt>
      <trkpt lat="45.18236" lon="6.37133">
        <ele>2818.6000976562</ele>
        <time>2014-01-11T10:18:16.000Z</time>
      </trkpt>
      <trkpt lat="45.18236" lon="6.37134">
        <ele>2818.8000488281</ele>
        <time>2014-01-11T10:18:17.000Z</time>
      </trkpt>
      <trkpt lat="45.18237" lon="6.37135">
        <ele>2818.8000488281</ele>
        <time>2014-01-11T10:18:18.000Z</time>
      </trkpt>
      <trkpt lat="45.18238" lon="6.37136">
        <ele>2819.1999511719</ele>
        <time>2014-01-11T10:18:19.000Z</time>
      </trkpt>
      <trkpt lat="45.18238" lon="6.37137">
        <ele>2819.6000976562</ele>
        <time>2014-01-11T10:18:20.000Z</time>
      </trkpt>
      <trkpt lat="45.18239" lon="6.37138">
        <ele>2820.1999511719</ele>
        <time>2014-01-11T10:18:21.000Z</time>
      </trkpt>
      <trkpt lat="45.18239" lon="6.37138">
        <ele>2820.6000976562</ele>
        <time>2014-01-11T10:18:22.000Z</time>
      </trkpt>
      <trkpt lat="45.1824" lon="6.37139">
        <ele>2821</ele>
        <time>2014-01-11T10:18:23.000Z</time>
      </trkpt>
      <trkpt lat="45.1824" lon="6.37139">
        <ele>2821.3999023438</ele>
        <time>2014-01-11T10:18:24.000Z</time>
      </trkpt>
      <trkpt lat="45.1824" lon="6.3714">
        <ele>2821.6000976562</ele>
        <time>2014-01-11T10:18:25.000Z</time>
      </trkpt>
      <trkpt lat="45.18241" lon="6.3714">
        <ele>2821.8000488281</ele>
        <time>2014-01-11T10:18:26.000Z</time>
      </trkpt>
      <trkpt lat="45.18242" lon="6.3714">
        <ele>2822</ele>
        <time>2014-01-11T10:18:27.000Z</time>
      </trkpt>
      <trkpt lat="45.18242" lon="6.3714">
        <ele>2822</ele>
        <time>2014-01-11T10:18:28.000Z</time>
      </trkpt>
      <trkpt lat="45.18243" lon="6.3714">
        <ele>2822</ele>
        <time>2014-01-11T10:18:29.000Z</time>
      </trkpt>
      <trkpt lat="45.18243" lon="6.3714">
        <ele>2822</ele>
        <time>2014-01-11T10:18:30.000Z</time>
      </trkpt>
      <trkpt lat="45.18243" lon="6.3714">
        <ele>2822</ele>
        <time>2014-01-11T10:18:31.000Z</time>
      </trkpt>
      <trkpt lat="45.18243" lon="6.3714">
        <ele>2821.8000488281</ele>
        <time>2014-01-11T10:18:32.000Z</time>
      </trkpt>
      <trkpt lat="45.18243" lon="6.3714">
        <ele>2821.8000488281</ele>
        <time>2014-01-11T10:18:33.000Z</time>
      </trkpt>
      <trkpt lat="45.18243" lon="6.3714">
        <ele>2821.8000488281</ele>
        <time>2014-01-11T10:18:34.000Z</time>
      </trkpt>
      <trkpt lat="45.18243" lon="6.3714">
        <ele>2821.6000976562</ele>
        <time>2014-01-11T10:18:35.000Z</time>
      </trkpt>
      <trkpt lat="45.18243" lon="6.3714">
        <ele>2821.6000976562</ele>
        <time>2014-01-11T10:18:37.000Z</time>
      </trkpt>
      <trkpt lat="45.18243" lon="6.3714">
        <ele>2821.6000976562</ele>
        <time>2014-01-11T10:18:38.000Z</time>
      </trkpt>
      <trkpt lat="45.18243" lon="6.3714">
        <ele>2821.8000488281</ele>
        <time>2014-01-11T10:18:39.000Z</time>
      </trkpt>
      <trkpt lat="45.18243" lon="6.3714">
        <ele>2821.8000488281</ele>
        <time>2014-01-11T10:18:41.000Z</time>
      </trkpt>
      <trkpt lat="45.18243" lon="6.3714">
        <ele>2821.6000976562</ele>
        <time>2014-01-11T10:18:43.000Z</time>
      </trkpt>
      <trkpt lat="45.18243" lon="6.3714">
        <ele>2821.6000976562</ele>
        <time>2014-01-11T10:18:44.000Z</time>
      </trkpt>
      <trkpt lat="45.18243" lon="6.3714">
        <ele>2821.6000976562</ele>
        <time>2014-01-11T10:18:45.000Z</time>
      </trkpt>
      <trkpt lat="45.18243" lon="6.3714">
        <ele>2821.3999023438</ele>
        <time>2014-01-11T10:18:46.000Z</time>
      </trkpt>
      <trkpt lat="45.18243" lon="6.3714">
        <ele>2821.3999023438</ele>
        <time>2014-01-11T10:18:47.000Z</time>
      </trkpt>
      <trkpt lat="45.18243" lon="6.3714">
        <ele>2821.3999023438</ele>
        <time>2014-01-11T10:18:48.000Z</time>
      </trkpt>
      <trkpt lat="45.18243" lon="6.3714">
        <ele>2821.3999023438</ele>
        <time>2014-01-11T10:18:49.000Z</time>
      </trkpt>
      <trkpt lat="45.18243" lon="6.3714">
        <ele>2821.3999023438</ele>
        <time>2014-01-11T10:18:50.000Z</time>
      </trkpt>
      <trkpt lat="45.18243" lon="6.3714">
        <ele>2821.6000976562</ele>
        <time>2014-01-11T10:18:51.000Z</time>
      </trkpt>
      <trkpt lat="45.18243" lon="6.3714">
        <ele>2821.6000976562</ele>
        <time>2014-01-11T10:18:52.000Z</time>
      </trkpt>
      <trkpt lat="45.18243" lon="6.3714">
        <ele>2821.8000488281</ele>
        <time>2014-01-11T10:18:53.000Z</time>
      </trkpt>
      <trkpt lat="45.18243" lon="6.3714">
        <ele>2821.8000488281</ele>
        <time>2014-01-11T10:18:54.000Z</time>
      </trkpt>
      <trkpt lat="45.18243" lon="6.3714">
        <ele>2821.8000488281</ele>
        <time>2014-01-11T10:18:55.000Z</time>
      </trkpt>
      <trkpt lat="45.18243" lon="6.3714">
        <ele>2821.8000488281</ele>
        <time>2014-01-11T10:18:56.000Z</time>
      </trkpt>
      <trkpt lat="45.18243" lon="6.3714">
        <ele>2821.8000488281</ele>
        <time>2014-01-11T10:18:57.000Z</time>
      </trkpt>
      <trkpt lat="45.18243" lon="6.3714">
        <ele>2821.8000488281</ele>
        <time>2014-01-11T10:18:58.000Z</time>
      </trkpt>
      <trkpt lat="45.18243" lon="6.3714">
        <ele>2822</ele>
        <time>2014-01-11T10:18:59.000Z</time>
      </trkpt>
      <trkpt lat="45.18243" lon="6.3714">
        <ele>2822</ele>
        <time>2014-01-11T10:19:00.000Z</time>
      </trkpt>
      <trkpt lat="45.18243" lon="6.3714">
        <ele>2822</ele>
        <time>2014-01-11T10:19:01.000Z</time>
      </trkpt>
      <trkpt lat="45.18243" lon="6.3714">
        <ele>2822</ele>
        <time>2014-01-11T10:19:02.000Z</time>
      </trkpt>
      <trkpt lat="45.18243" lon="6.3714">
        <ele>2822</ele>
        <time>2014-01-11T10:19:04.000Z</time>
      </trkpt>
      <trkpt lat="45.18243" lon="6.3714">
        <ele>2822</ele>
        <time>2014-01-11T10:19:05.000Z</time>
      </trkpt>
      <trkpt lat="45.18243" lon="6.3714">
        <ele>2822</ele>
        <time>2014-01-11T10:19:06.000Z</time>
      </trkpt>
      <trkpt lat="45.18243" lon="6.3714">
        <ele>2822</ele>
        <time>2014-01-11T10:19:07.000Z</time>
      </trkpt>
      <trkpt lat="45.18243" lon="6.3714">
        <ele>2822</ele>
        <time>2014-01-11T10:19:08.000Z</time>
      </trkpt>
      <trkpt lat="45.18243" lon="6.3714">
        <ele>2822</ele>
        <time>2014-01-11T10:19:09.000Z</time>
      </trkpt>
      <trkpt lat="45.18243" lon="6.3714">
        <ele>2821.8000488281</ele>
        <time>2014-01-11T10:19:10.000Z</time>
      </trkpt>
      <trkpt lat="45.18243" lon="6.3714">
        <ele>2821.8000488281</ele>
        <time>2014-01-11T10:19:11.000Z</time>
      </trkpt>
      <trkpt lat="45.18243" lon="6.3714">
        <ele>2821.8000488281</ele>
        <time>2014-01-11T10:19:12.000Z</time>
      </trkpt>
      <trkpt lat="45.18243" lon="6.3714">
        <ele>2821.6000976562</ele>
        <time>2014-01-11T10:19:13.000Z</time>
      </trkpt>
      <trkpt lat="45.18243" lon="6.3714">
        <ele>2821.6000976562</ele>
        <time>2014-01-11T10:19:14.000Z</time>
      </trkpt>
      <trkpt lat="45.18243" lon="6.3714">
        <ele>2821.3999023438</ele>
        <time>2014-01-11T10:19:15.000Z</time>
      </trkpt>
      <trkpt lat="45.18243" lon="6.3714">
        <ele>2821.3999023438</ele>
        <time>2014-01-11T10:19:16.000Z</time>
      </trkpt>
      <trkpt lat="45.18243" lon="6.3714">
        <ele>2821.3999023438</ele>
        <time>2014-01-11T10:19:17.000Z</time>
      </trkpt>
      <trkpt lat="45.18243" lon="6.3714">
        <ele>2821.3999023438</ele>
        <time>2014-01-11T10:19:18.000Z</time>
      </trkpt>
      <trkpt lat="45.18243" lon="6.3714">
        <ele>2821.3999023438</ele>
        <time>2014-01-11T10:19:19.000Z</time>
      </trkpt>
      <trkpt lat="45.18243" lon="6.3714">
        <ele>2821.3999023438</ele>
        <time>2014-01-11T10:19:20.000Z</time>
      </trkpt>
      <trkpt lat="45.18243" lon="6.3714">
        <ele>2821.6000976562</ele>
        <time>2014-01-11T10:19:21.000Z</time>
      </trkpt>
      <trkpt lat="45.18243" lon="6.3714">
        <ele>2821.3999023438</ele>
        <time>2014-01-11T10:19:22.000Z</time>
      </trkpt>
      <trkpt lat="45.18243" lon="6.3714">
        <ele>2821.3999023438</ele>
        <time>2014-01-11T10:19:23.000Z</time>
      </trkpt>
      <trkpt lat="45.18243" lon="6.3714">
        <ele>2821.3999023438</ele>
        <time>2014-01-11T10:19:24.000Z</time>
      </trkpt>
      <trkpt lat="45.18243" lon="6.3714">
        <ele>2821.1999511719</ele>
        <time>2014-01-11T10:19:25.000Z</time>
      </trkpt>
      <trkpt lat="45.18243" lon="6.3714">
        <ele>2821.1999511719</ele>
        <time>2014-01-11T10:19:26.000Z</time>
      </trkpt>
      <trkpt lat="45.18243" lon="6.3714">
        <ele>2821</ele>
        <time>2014-01-11T10:19:27.000Z</time>
      </trkpt>
      <trkpt lat="45.18243" lon="6.3714">
        <ele>2821.1999511719</ele>
        <time>2014-01-11T10:19:28.000Z</time>
      </trkpt>
      <trkpt lat="45.18243" lon="6.3714">
        <ele>2821.6000976562</ele>
        <time>2014-01-11T10:19:29.000Z</time>
      </trkpt>
      <trkpt lat="45.18243" lon="6.3714">
        <ele>2822</ele>
        <time>2014-01-11T10:19:30.000Z</time>
      </trkpt>
      <trkpt lat="45.18243" lon="6.3714">
        <ele>2822.1999511719</ele>
        <time>2014-01-11T10:19:31.000Z</time>
      </trkpt>
      <trkpt lat="45.18243" lon="6.3714">
        <ele>2822.3999023438</ele>
        <time>2014-01-11T10:19:32.000Z</time>
      </trkpt>
      <trkpt lat="45.18243" lon="6.3714">
        <ele>2822.1999511719</ele>
        <time>2014-01-11T10:19:33.000Z</time>
      </trkpt>
      <trkpt lat="45.18243" lon="6.3714">
        <ele>2822.1999511719</ele>
        <time>2014-01-11T10:19:34.000Z</time>
      </trkpt>
      <trkpt lat="45.18243" lon="6.3714">
        <ele>2822</ele>
        <time>2014-01-11T10:19:35.000Z</time>
      </trkpt>
      <trkpt lat="45.18243" lon="6.3714">
        <ele>2822</ele>
        <time>2014-01-11T10:19:36.000Z</time>
      </trkpt>
      <trkpt lat="45.18243" lon="6.3714">
        <ele>2821.8000488281</ele>
        <time>2014-01-11T10:19:37.000Z</time>
      </trkpt>
      <trkpt lat="45.18243" lon="6.3714">
        <ele>2821.8000488281</ele>
        <time>2014-01-11T10:19:38.000Z</time>
      </trkpt>
      <trkpt lat="45.18243" lon="6.3714">
        <ele>2821.8000488281</ele>
        <time>2014-01-11T10:19:39.000Z</time>
      </trkpt>
      <trkpt lat="45.18243" lon="6.3714">
        <ele>2821.8000488281</ele>
        <time>2014-01-11T10:19:40.000Z</time>
      </trkpt>
      <trkpt lat="45.18243" lon="6.3714">
        <ele>2821.8000488281</ele>
        <time>2014-01-11T10:19:41.000Z</time>
      </trkpt>
      <trkpt lat="45.18243" lon="6.3714">
        <ele>2821.8000488281</ele>
        <time>2014-01-11T10:19:42.000Z</time>
      </trkpt>
      <trkpt lat="45.18243" lon="6.3714">
        <ele>2822</ele>
        <time>2014-01-11T10:19:43.000Z</time>
      </trkpt>
      <trkpt lat="45.18243" lon="6.3714">
        <ele>2822</ele>
        <time>2014-01-11T10:19:44.000Z</time>
      </trkpt>
      <trkpt lat="45.18243" lon="6.3714">
        <ele>2822.1999511719</ele>
        <time>2014-01-11T10:19:45.000Z</time>
      </trkpt>
      <trkpt lat="45.18243" lon="6.3714">
        <ele>2822.1999511719</ele>
        <time>2014-01-11T10:19:46.000Z</time>
      </trkpt>
      <trkpt lat="45.18243" lon="6.3714">
        <ele>2822.1999511719</ele>
        <time>2014-01-11T10:19:47.000Z</time>
      </trkpt>
      <trkpt lat="45.18243" lon="6.3714">
        <ele>2822.1999511719</ele>
        <time>2014-01-11T10:19:48.000Z</time>
      </trkpt>
      <trkpt lat="45.18243" lon="6.3714">
        <ele>2822</ele>
        <time>2014-01-11T10:19:49.000Z</time>
      </trkpt>
      <trkpt lat="45.18243" lon="6.3714">
        <ele>2822</ele>
        <time>2014-01-11T10:19:50.000Z</time>
      </trkpt>
      <trkpt lat="45.18243" lon="6.3714">
        <ele>2821.8000488281</ele>
        <time>2014-01-11T10:19:51.000Z</time>
      </trkpt>
      <trkpt lat="45.18243" lon="6.37139">
        <ele>2821.8000488281</ele>
        <time>2014-01-11T10:19:52.000Z</time>
      </trkpt>
      <trkpt lat="45.18242" lon="6.37139">
        <ele>2821.8000488281</ele>
        <time>2014-01-11T10:19:53.000Z</time>
      </trkpt>
      <trkpt lat="45.18241" lon="6.37138">
        <ele>2821.8000488281</ele>
        <time>2014-01-11T10:19:55.000Z</time>
      </trkpt>
      <trkpt lat="45.1824" lon="6.37138">
        <ele>2821.8000488281</ele>
        <time>2014-01-11T10:19:56.000Z</time>
      </trkpt>
      <trkpt lat="45.18239" lon="6.37137">
        <ele>2821.8000488281</ele>
        <time>2014-01-11T10:19:57.000Z</time>
      </trkpt>
      <trkpt lat="45.18239" lon="6.37137">
        <ele>2822</ele>
        <time>2014-01-11T10:19:58.000Z</time>
      </trkpt>
      <trkpt lat="45.18238" lon="6.37137">
        <ele>2822</ele>
        <time>2014-01-11T10:19:59.000Z</time>
      </trkpt>
      <trkpt lat="45.18238" lon="6.37136">
        <ele>2822</ele>
        <time>2014-01-11T10:20:00.000Z</time>
      </trkpt>
      <trkpt lat="45.18238" lon="6.37136">
        <ele>2821.8000488281</ele>
        <time>2014-01-11T10:20:01.000Z</time>
      </trkpt>
      <trkpt lat="45.18238" lon="6.37136">
        <ele>2821.6000976562</ele>
        <time>2014-01-11T10:20:02.000Z</time>
      </trkpt>
      <trkpt lat="45.18238" lon="6.37136">
        <ele>2821.1999511719</ele>
        <time>2014-01-11T10:20:03.000Z</time>
      </trkpt>
      <trkpt lat="45.18238" lon="6.37136">
        <ele>2820.8000488281</ele>
        <time>2014-01-11T10:20:04.000Z</time>
      </trkpt>
      <trkpt lat="45.18238" lon="6.37136">
        <ele>2820.6000976562</ele>
        <time>2014-01-11T10:20:05.000Z</time>
      </trkpt>
      <trkpt lat="45.18238" lon="6.37136">
        <ele>2820.3999023438</ele>
        <time>2014-01-11T10:20:06.000Z</time>
      </trkpt>
      <trkpt lat="45.18238" lon="6.37136">
        <ele>2820.3999023438</ele>
        <time>2014-01-11T10:20:07.000Z</time>
      </trkpt>
      <trkpt lat="45.18238" lon="6.37136">
        <ele>2820.3999023438</ele>
        <time>2014-01-11T10:20:08.000Z</time>
      </trkpt>
      <trkpt lat="45.18238" lon="6.37136">
        <ele>2820.3999023438</ele>
        <time>2014-01-11T10:20:10.000Z</time>
      </trkpt>
      <trkpt lat="45.18238" lon="6.37136">
        <ele>2820.6000976562</ele>
        <time>2014-01-11T10:20:11.000Z</time>
      </trkpt>
      <trkpt lat="45.18238" lon="6.37136">
        <ele>2820.8000488281</ele>
        <time>2014-01-11T10:20:12.000Z</time>
      </trkpt>
      <trkpt lat="45.18238" lon="6.37136">
        <ele>2821</ele>
        <time>2014-01-11T10:20:13.000Z</time>
      </trkpt>
      <trkpt lat="45.18238" lon="6.37136">
        <ele>2821.1999511719</ele>
        <time>2014-01-11T10:20:14.000Z</time>
      </trkpt>
      <trkpt lat="45.18238" lon="6.37136">
        <ele>2821.3999023438</ele>
        <time>2014-01-11T10:20:15.000Z</time>
      </trkpt>
      <trkpt lat="45.18238" lon="6.37136">
        <ele>2821.6000976562</ele>
        <time>2014-01-11T10:20:16.000Z</time>
      </trkpt>
      <trkpt lat="45.18238" lon="6.37136">
        <ele>2821.8000488281</ele>
        <time>2014-01-11T10:20:17.000Z</time>
      </trkpt>
      <trkpt lat="45.18238" lon="6.37136">
        <ele>2821.8000488281</ele>
        <time>2014-01-11T10:20:18.000Z</time>
      </trkpt>
      <trkpt lat="45.18238" lon="6.37136">
        <ele>2821.8000488281</ele>
        <time>2014-01-11T10:20:19.000Z</time>
      </trkpt>
      <trkpt lat="45.18238" lon="6.37136">
        <ele>2821.8000488281</ele>
        <time>2014-01-11T10:20:20.000Z</time>
      </trkpt>
      <trkpt lat="45.18238" lon="6.37136">
        <ele>2821.8000488281</ele>
        <time>2014-01-11T10:20:21.000Z</time>
      </trkpt>
      <trkpt lat="45.18238" lon="6.37136">
        <ele>2821.8000488281</ele>
        <time>2014-01-11T10:20:23.000Z</time>
      </trkpt>
      <trkpt lat="45.18238" lon="6.37136">
        <ele>2821.8000488281</ele>
        <time>2014-01-11T10:20:24.000Z</time>
      </trkpt>
      <trkpt lat="45.18238" lon="6.37136">
        <ele>2822</ele>
        <time>2014-01-11T10:20:25.000Z</time>
      </trkpt>
      <trkpt lat="45.18238" lon="6.37136">
        <ele>2822.1999511719</ele>
        <time>2014-01-11T10:20:26.000Z</time>
      </trkpt>
      <trkpt lat="45.18238" lon="6.37136">
        <ele>2822.3999023438</ele>
        <time>2014-01-11T10:20:27.000Z</time>
      </trkpt>
      <trkpt lat="45.18238" lon="6.37136">
        <ele>2822.6000976562</ele>
        <time>2014-01-11T10:20:28.000Z</time>
      </trkpt>
      <trkpt lat="45.18238" lon="6.37136">
        <ele>2822.6000976562</ele>
        <time>2014-01-11T10:20:29.000Z</time>
      </trkpt>
      <trkpt lat="45.18238" lon="6.37136">
        <ele>2822.6000976562</ele>
        <time>2014-01-11T10:20:30.000Z</time>
      </trkpt>
      <trkpt lat="45.18238" lon="6.37136">
        <ele>2822.6000976562</ele>
        <time>2014-01-11T10:20:32.000Z</time>
      </trkpt>
      <trkpt lat="45.18238" lon="6.37136">
        <ele>2822.3999023438</ele>
        <time>2014-01-11T10:20:33.000Z</time>
      </trkpt>
      <trkpt lat="45.18238" lon="6.37136">
        <ele>2822.3999023438</ele>
        <time>2014-01-11T10:20:34.000Z</time>
      </trkpt>
      <trkpt lat="45.18238" lon="6.37136">
        <ele>2822.3999023438</ele>
        <time>2014-01-11T10:20:35.000Z</time>
      </trkpt>
      <trkpt lat="45.18238" lon="6.37136">
        <ele>2822.3999023438</ele>
        <time>2014-01-11T10:20:39.000Z</time>
      </trkpt>
      <trkpt lat="45.18238" lon="6.37136">
        <ele>2822.3999023438</ele>
        <time>2014-01-11T10:20:40.000Z</time>
      </trkpt>
      <trkpt lat="45.18238" lon="6.37136">
        <ele>2822.3999023438</ele>
        <time>2014-01-11T10:20:41.000Z</time>
      </trkpt>
      <trkpt lat="45.18238" lon="6.37136">
        <ele>2822.6000976562</ele>
        <time>2014-01-11T10:20:42.000Z</time>
      </trkpt>
      <trkpt lat="45.18238" lon="6.37136">
        <ele>2822.8000488281</ele>
        <time>2014-01-11T10:20:43.000Z</time>
      </trkpt>
      <trkpt lat="45.18238" lon="6.37136">
        <ele>2823.1999511719</ele>
        <time>2014-01-11T10:20:44.000Z</time>
      </trkpt>
      <trkpt lat="45.18238" lon="6.37136">
        <ele>2823.3999023438</ele>
        <time>2014-01-11T10:20:45.000Z</time>
      </trkpt>
      <trkpt lat="45.18238" lon="6.37136">
        <ele>2823.3999023438</ele>
        <time>2014-01-11T10:20:46.000Z</time>
      </trkpt>
      <trkpt lat="45.18238" lon="6.37136">
        <ele>2823.3999023438</ele>
        <time>2014-01-11T10:20:47.000Z</time>
      </trkpt>
      <trkpt lat="45.18238" lon="6.37136">
        <ele>2823.6000976562</ele>
        <time>2014-01-11T10:20:48.000Z</time>
      </trkpt>
      <trkpt lat="45.18237" lon="6.37136">
        <ele>2823.6000976562</ele>
        <time>2014-01-11T10:20:49.000Z</time>
      </trkpt>
      <trkpt lat="45.18236" lon="6.37136">
        <ele>2823.6000976562</ele>
        <time>2014-01-11T10:20:50.000Z</time>
      </trkpt>
      <trkpt lat="45.18236" lon="6.37137">
        <ele>2823.3999023438</ele>
        <time>2014-01-11T10:20:51.000Z</time>
      </trkpt>
      <trkpt lat="45.18234" lon="6.37137">
        <ele>2823</ele>
        <time>2014-01-11T10:20:52.000Z</time>
      </trkpt>
      <trkpt lat="45.18233" lon="6.37138">
        <ele>2822.3999023438</ele>
        <time>2014-01-11T10:20:53.000Z</time>
      </trkpt>
      <trkpt lat="45.18231" lon="6.37138">
        <ele>2821.6000976562</ele>
        <time>2014-01-11T10:20:54.000Z</time>
      </trkpt>
      <trkpt lat="45.1823" lon="6.37139">
        <ele>2821</ele>
        <time>2014-01-11T10:20:55.000Z</time>
      </trkpt>
      <trkpt lat="45.18229" lon="6.37139">
        <ele>2820.6000976562</ele>
        <time>2014-01-11T10:20:56.000Z</time>
      </trkpt>
      <trkpt lat="45.18228" lon="6.37139">
        <ele>2820.1999511719</ele>
        <time>2014-01-11T10:20:57.000Z</time>
      </trkpt>
      <trkpt lat="45.18228" lon="6.3714">
        <ele>2819.8000488281</ele>
        <time>2014-01-11T10:20:58.000Z</time>
      </trkpt>
      <trkpt lat="45.18227" lon="6.3714">
        <ele>2819.3999023438</ele>
        <time>2014-01-11T10:20:59.000Z</time>
      </trkpt>
      <trkpt lat="45.18227" lon="6.37141">
        <ele>2819</ele>
        <time>2014-01-11T10:21:00.000Z</time>
      </trkpt>
      <trkpt lat="45.18226" lon="6.37141">
        <ele>2818.6000976562</ele>
        <time>2014-01-11T10:21:01.000Z</time>
      </trkpt>
      <trkpt lat="45.18226" lon="6.37142">
        <ele>2818.3999023438</ele>
        <time>2014-01-11T10:21:02.000Z</time>
      </trkpt>
      <trkpt lat="45.18226" lon="6.37142">
        <ele>2818.1999511719</ele>
        <time>2014-01-11T10:21:03.000Z</time>
      </trkpt>
      <trkpt lat="45.18226" lon="6.37142">
        <ele>2818.1999511719</ele>
        <time>2014-01-11T10:21:04.000Z</time>
      </trkpt>
      <trkpt lat="45.18226" lon="6.37142">
        <ele>2818.1999511719</ele>
        <time>2014-01-11T10:21:05.000Z</time>
      </trkpt>
      <trkpt lat="45.18226" lon="6.37142">
        <ele>2818.1999511719</ele>
        <time>2014-01-11T10:21:06.000Z</time>
      </trkpt>
      <trkpt lat="45.18226" lon="6.37142">
        <ele>2818.1999511719</ele>
        <time>2014-01-11T10:21:07.000Z</time>
      </trkpt>
      <trkpt lat="45.18226" lon="6.37142">
        <ele>2818.1999511719</ele>
        <time>2014-01-11T10:21:08.000Z</time>
      </trkpt>
      <trkpt lat="45.18226" lon="6.37142">
        <ele>2818.1999511719</ele>
        <time>2014-01-11T10:21:09.000Z</time>
      </trkpt>
      <trkpt lat="45.18226" lon="6.37142">
        <ele>2818.3999023438</ele>
        <time>2014-01-11T10:21:10.000Z</time>
      </trkpt>
      <trkpt lat="45.18226" lon="6.37142">
        <ele>2818.3999023438</ele>
        <time>2014-01-11T10:21:11.000Z</time>
      </trkpt>
      <trkpt lat="45.18226" lon="6.37142">
        <ele>2818.3999023438</ele>
        <time>2014-01-11T10:21:12.000Z</time>
      </trkpt>
      <trkpt lat="45.18226" lon="6.37142">
        <ele>2818.3999023438</ele>
        <time>2014-01-11T10:21:13.000Z</time>
      </trkpt>
      <trkpt lat="45.18226" lon="6.37142">
        <ele>2818.3999023438</ele>
        <time>2014-01-11T10:21:14.000Z</time>
      </trkpt>
      <trkpt lat="45.18226" lon="6.37142">
        <ele>2818.3999023438</ele>
        <time>2014-01-11T10:21:15.000Z</time>
      </trkpt>
      <trkpt lat="45.18226" lon="6.37142">
        <ele>2818.3999023438</ele>
        <time>2014-01-11T10:21:16.000Z</time>
      </trkpt>
      <trkpt lat="45.18226" lon="6.37142">
        <ele>2818.6000976562</ele>
        <time>2014-01-11T10:21:17.000Z</time>
      </trkpt>
      <trkpt lat="45.18226" lon="6.37142">
        <ele>2818.6000976562</ele>
        <time>2014-01-11T10:21:18.000Z</time>
      </trkpt>
      <trkpt lat="45.18226" lon="6.37142">
        <ele>2818.6000976562</ele>
        <time>2014-01-11T10:21:20.000Z</time>
      </trkpt>
      <trkpt lat="45.18226" lon="6.37142">
        <ele>2818.3999023438</ele>
        <time>2014-01-11T10:21:21.000Z</time>
      </trkpt>
      <trkpt lat="45.18226" lon="6.37142">
        <ele>2818.3999023438</ele>
        <time>2014-01-11T10:21:22.000Z</time>
      </trkpt>
      <trkpt lat="45.18226" lon="6.37143">
        <ele>2818.3999023438</ele>
        <time>2014-01-11T10:21:23.000Z</time>
      </trkpt>
      <trkpt lat="45.18226" lon="6.37143">
        <ele>2818.3999023438</ele>
        <time>2014-01-11T10:21:24.000Z</time>
      </trkpt>
      <trkpt lat="45.18225" lon="6.37144">
        <ele>2818.3999023438</ele>
        <time>2014-01-11T10:21:25.000Z</time>
      </trkpt>
      <trkpt lat="45.18225" lon="6.37145">
        <ele>2818.3999023438</ele>
        <time>2014-01-11T10:21:26.000Z</time>
      </trkpt>
      <trkpt lat="45.18224" lon="6.37145">
        <ele>2818.3999023438</ele>
        <time>2014-01-11T10:21:27.000Z</time>
      </trkpt>
      <trkpt lat="45.18224" lon="6.37146">
        <ele>2818.3999023438</ele>
        <time>2014-01-11T10:21:28.000Z</time>
      </trkpt>
      <trkpt lat="45.18224" lon="6.37146">
        <ele>2818.6000976562</ele>
        <time>2014-01-11T10:21:31.000Z</time>
      </trkpt>
      <trkpt lat="45.18224" lon="6.37146">
        <ele>2818.8000488281</ele>
        <time>2014-01-11T10:21:32.000Z</time>
      </trkpt>
      <trkpt lat="45.18224" lon="6.37146">
        <ele>2819.1999511719</ele>
        <time>2014-01-11T10:21:33.000Z</time>
      </trkpt>
      <trkpt lat="45.18224" lon="6.37146">
        <ele>2819.1999511719</ele>
        <time>2014-01-11T10:21:34.000Z</time>
      </trkpt>
      <trkpt lat="45.18224" lon="6.37146">
        <ele>2819.1999511719</ele>
        <time>2014-01-11T10:21:35.000Z</time>
      </trkpt>
      <trkpt lat="45.18224" lon="6.37146">
        <ele>2819.1999511719</ele>
        <time>2014-01-11T10:21:36.000Z</time>
      </trkpt>
      <trkpt lat="45.18224" lon="6.37146">
        <ele>2819</ele>
        <time>2014-01-11T10:21:37.000Z</time>
      </trkpt>
      <trkpt lat="45.18223" lon="6.37146">
        <ele>2819</ele>
        <time>2014-01-11T10:21:38.000Z</time>
      </trkpt>
      <trkpt lat="45.18223" lon="6.37146">
        <ele>2819</ele>
        <time>2014-01-11T10:21:39.000Z</time>
      </trkpt>
      <trkpt lat="45.18223" lon="6.37146">
        <ele>2819</ele>
        <time>2014-01-11T10:21:40.000Z</time>
      </trkpt>
      <trkpt lat="45.18222" lon="6.37145">
        <ele>2818.8000488281</ele>
        <time>2014-01-11T10:21:41.000Z</time>
      </trkpt>
      <trkpt lat="45.18221" lon="6.37145">
        <ele>2819</ele>
        <time>2014-01-11T10:21:42.000Z</time>
      </trkpt>
      <trkpt lat="45.18221" lon="6.37145">
        <ele>2819.1999511719</ele>
        <time>2014-01-11T10:21:43.000Z</time>
      </trkpt>
      <trkpt lat="45.1822" lon="6.37145">
        <ele>2819.3999023438</ele>
        <time>2014-01-11T10:21:44.000Z</time>
      </trkpt>
      <trkpt lat="45.18219" lon="6.37145">
        <ele>2819.6000976562</ele>
        <time>2014-01-11T10:21:45.000Z</time>
      </trkpt>
      <trkpt lat="45.18219" lon="6.37145">
        <ele>2819.8000488281</ele>
        <time>2014-01-11T10:21:46.000Z</time>
      </trkpt>
      <trkpt lat="45.18218" lon="6.37145">
        <ele>2819.6000976562</ele>
        <time>2014-01-11T10:21:47.000Z</time>
      </trkpt>
      <trkpt lat="45.18218" lon="6.37145">
        <ele>2819.3999023438</ele>
        <time>2014-01-11T10:21:48.000Z</time>
      </trkpt>
      <trkpt lat="45.18218" lon="6.37145">
        <ele>2819.1999511719</ele>
        <time>2014-01-11T10:21:49.000Z</time>
      </trkpt>
      <trkpt lat="45.18218" lon="6.37145">
        <ele>2818.6000976562</ele>
        <time>2014-01-11T10:21:50.000Z</time>
      </trkpt>
      <trkpt lat="45.18218" lon="6.37145">
        <ele>2818</ele>
        <time>2014-01-11T10:21:51.000Z</time>
      </trkpt>
      <trkpt lat="45.18218" lon="6.37145">
        <ele>2817.3999023438</ele>
        <time>2014-01-11T10:21:52.000Z</time>
      </trkpt>
      <trkpt lat="45.18218" lon="6.37145">
        <ele>2816.8000488281</ele>
        <time>2014-01-11T10:21:53.000Z</time>
      </trkpt>
      <trkpt lat="45.18218" lon="6.37145">
        <ele>2816.3999023438</ele>
        <time>2014-01-11T10:21:54.000Z</time>
      </trkpt>
      <trkpt lat="45.18218" lon="6.37145">
        <ele>2816.1999511719</ele>
        <time>2014-01-11T10:21:55.000Z</time>
      </trkpt>
      <trkpt lat="45.18218" lon="6.37145">
        <ele>2816.1999511719</ele>
        <time>2014-01-11T10:21:56.000Z</time>
      </trkpt>
      <trkpt lat="45.18218" lon="6.37145">
        <ele>2816.1999511719</ele>
        <time>2014-01-11T10:21:57.000Z</time>
      </trkpt>
      <trkpt lat="45.18218" lon="6.37145">
        <ele>2816.1999511719</ele>
        <time>2014-01-11T10:21:58.000Z</time>
      </trkpt>
      <trkpt lat="45.18218" lon="6.37145">
        <ele>2816.3999023438</ele>
        <time>2014-01-11T10:21:59.000Z</time>
      </trkpt>
      <trkpt lat="45.18218" lon="6.37145">
        <ele>2816.3999023438</ele>
        <time>2014-01-11T10:22:00.000Z</time>
      </trkpt>
      <trkpt lat="45.18218" lon="6.37145">
        <ele>2816.3999023438</ele>
        <time>2014-01-11T10:22:01.000Z</time>
      </trkpt>
      <trkpt lat="45.18218" lon="6.37145">
        <ele>2816.6000976562</ele>
        <time>2014-01-11T10:22:02.000Z</time>
      </trkpt>
      <trkpt lat="45.18218" lon="6.37145">
        <ele>2816.8000488281</ele>
        <time>2014-01-11T10:22:03.000Z</time>
      </trkpt>
      <trkpt lat="45.18218" lon="6.37145">
        <ele>2816.8000488281</ele>
        <time>2014-01-11T10:22:04.000Z</time>
      </trkpt>
      <trkpt lat="45.18218" lon="6.37145">
        <ele>2816.8000488281</ele>
        <time>2014-01-11T10:22:05.000Z</time>
      </trkpt>
      <trkpt lat="45.18218" lon="6.37145">
        <ele>2817</ele>
        <time>2014-01-11T10:22:06.000Z</time>
      </trkpt>
      <trkpt lat="45.18218" lon="6.37145">
        <ele>2816.8000488281</ele>
        <time>2014-01-11T10:22:07.000Z</time>
      </trkpt>
      <trkpt lat="45.18218" lon="6.37145">
        <ele>2816.8000488281</ele>
        <time>2014-01-11T10:22:08.000Z</time>
      </trkpt>
      <trkpt lat="45.18218" lon="6.37145">
        <ele>2816.8000488281</ele>
        <time>2014-01-11T10:22:09.000Z</time>
      </trkpt>
      <trkpt lat="45.18218" lon="6.37145">
        <ele>2816.6000976562</ele>
        <time>2014-01-11T10:22:10.000Z</time>
      </trkpt>
      <trkpt lat="45.18218" lon="6.37145">
        <ele>2816.8000488281</ele>
        <time>2014-01-11T10:22:11.000Z</time>
      </trkpt>
      <trkpt lat="45.18218" lon="6.37145">
        <ele>2817.3999023438</ele>
        <time>2014-01-11T10:22:12.000Z</time>
      </trkpt>
      <trkpt lat="45.18218" lon="6.37145">
        <ele>2817.3999023438</ele>
        <time>2014-01-11T10:22:13.000Z</time>
      </trkpt>
      <trkpt lat="45.18218" lon="6.37145">
        <ele>2817.3999023438</ele>
        <time>2014-01-11T10:22:14.000Z</time>
      </trkpt>
      <trkpt lat="45.18218" lon="6.37145">
        <ele>2817.3999023438</ele>
        <time>2014-01-11T10:22:15.000Z</time>
      </trkpt>
      <trkpt lat="45.18218" lon="6.37145">
        <ele>2817</ele>
        <time>2014-01-11T10:22:16.000Z</time>
      </trkpt>
      <trkpt lat="45.18218" lon="6.37145">
        <ele>2816.8000488281</ele>
        <time>2014-01-11T10:22:17.000Z</time>
      </trkpt>
      <trkpt lat="45.18218" lon="6.37145">
        <ele>2816.6000976562</ele>
        <time>2014-01-11T10:22:18.000Z</time>
      </trkpt>
      <trkpt lat="45.18218" lon="6.37145">
        <ele>2816.8000488281</ele>
        <time>2014-01-11T10:22:19.000Z</time>
      </trkpt>
      <trkpt lat="45.18218" lon="6.37145">
        <ele>2817</ele>
        <time>2014-01-11T10:22:20.000Z</time>
      </trkpt>
      <trkpt lat="45.18218" lon="6.37145">
        <ele>2817.1999511719</ele>
        <time>2014-01-11T10:22:21.000Z</time>
      </trkpt>
      <trkpt lat="45.18218" lon="6.37145">
        <ele>2817.3999023438</ele>
        <time>2014-01-11T10:22:22.000Z</time>
      </trkpt>
      <trkpt lat="45.18218" lon="6.37145">
        <ele>2817.6000976562</ele>
        <time>2014-01-11T10:22:23.000Z</time>
      </trkpt>
      <trkpt lat="45.18218" lon="6.37145">
        <ele>2817.6000976562</ele>
        <time>2014-01-11T10:22:24.000Z</time>
      </trkpt>
      <trkpt lat="45.18218" lon="6.37145">
        <ele>2817.6000976562</ele>
        <time>2014-01-11T10:22:25.000Z</time>
      </trkpt>
      <trkpt lat="45.18218" lon="6.37145">
        <ele>2817.6000976562</ele>
        <time>2014-01-11T10:22:26.000Z</time>
      </trkpt>
      <trkpt lat="45.18218" lon="6.37145">
        <ele>2817.6000976562</ele>
        <time>2014-01-11T10:22:27.000Z</time>
      </trkpt>
      <trkpt lat="45.18218" lon="6.37145">
        <ele>2817.6000976562</ele>
        <time>2014-01-11T10:22:28.000Z</time>
      </trkpt>
      <trkpt lat="45.18218" lon="6.37145">
        <ele>2817.6000976562</ele>
        <time>2014-01-11T10:22:29.000Z</time>
      </trkpt>
      <trkpt lat="45.18218" lon="6.37145">
        <ele>2817.6000976562</ele>
        <time>2014-01-11T10:22:30.000Z</time>
      </trkpt>
      <trkpt lat="45.18218" lon="6.37145">
        <ele>2817.8000488281</ele>
        <time>2014-01-11T10:22:31.000Z</time>
      </trkpt>
      <trkpt lat="45.18218" lon="6.37145">
        <ele>2818.1999511719</ele>
        <time>2014-01-11T10:22:32.000Z</time>
      </trkpt>
      <trkpt lat="45.18218" lon="6.37145">
        <ele>2818.6000976562</ele>
        <time>2014-01-11T10:22:33.000Z</time>
      </trkpt>
      <trkpt lat="45.18218" lon="6.37145">
        <ele>2818.6000976562</ele>
        <time>2014-01-11T10:22:34.000Z</time>
      </trkpt>
      <trkpt lat="45.18218" lon="6.37145">
        <ele>2818.8000488281</ele>
        <time>2014-01-11T10:22:35.000Z</time>
      </trkpt>
      <trkpt lat="45.18218" lon="6.37145">
        <ele>2818.8000488281</ele>
        <time>2014-01-11T10:22:36.000Z</time>
      </trkpt>
      <trkpt lat="45.18218" lon="6.37145">
        <ele>2818.8000488281</ele>
        <time>2014-01-11T10:22:37.000Z</time>
      </trkpt>
      <trkpt lat="45.18218" lon="6.37145">
        <ele>2818.8000488281</ele>
        <time>2014-01-11T10:22:38.000Z</time>
      </trkpt>
      <trkpt lat="45.18218" lon="6.37145">
        <ele>2818.6000976562</ele>
        <time>2014-01-11T10:22:39.000Z</time>
      </trkpt>
      <trkpt lat="45.18218" lon="6.37145">
        <ele>2818.6000976562</ele>
        <time>2014-01-11T10:22:40.000Z</time>
      </trkpt>
      <trkpt lat="45.18218" lon="6.37145">
        <ele>2818.3999023438</ele>
        <time>2014-01-11T10:22:41.000Z</time>
      </trkpt>
      <trkpt lat="45.18218" lon="6.37145">
        <ele>2818</ele>
        <time>2014-01-11T10:22:42.000Z</time>
      </trkpt>
      <trkpt lat="45.18218" lon="6.37145">
        <ele>2817.8000488281</ele>
        <time>2014-01-11T10:22:43.000Z</time>
      </trkpt>
      <trkpt lat="45.18218" lon="6.37145">
        <ele>2817.6000976562</ele>
        <time>2014-01-11T10:22:44.000Z</time>
      </trkpt>
      <trkpt lat="45.18218" lon="6.37145">
        <ele>2817.3999023438</ele>
        <time>2014-01-11T10:22:45.000Z</time>
      </trkpt>
      <trkpt lat="45.18218" lon="6.37145">
        <ele>2817.1999511719</ele>
        <time>2014-01-11T10:22:46.000Z</time>
      </trkpt>
      <trkpt lat="45.18218" lon="6.37145">
        <ele>2817.1999511719</ele>
        <time>2014-01-11T10:22:47.000Z</time>
      </trkpt>
      <trkpt lat="45.18218" lon="6.37145">
        <ele>2817.1999511719</ele>
        <time>2014-01-11T10:22:48.000Z</time>
      </trkpt>
      <trkpt lat="45.18218" lon="6.37145">
        <ele>2817.1999511719</ele>
        <time>2014-01-11T10:22:49.000Z</time>
      </trkpt>
      <trkpt lat="45.18217" lon="6.37146">
        <ele>2817.3999023438</ele>
        <time>2014-01-11T10:22:50.000Z</time>
      </trkpt>
      <trkpt lat="45.18216" lon="6.37146">
        <ele>2817.6000976562</ele>
        <time>2014-01-11T10:22:51.000Z</time>
      </trkpt>
      <trkpt lat="45.18216" lon="6.37147">
        <ele>2817.6000976562</ele>
        <time>2014-01-11T10:22:52.000Z</time>
      </trkpt>
      <trkpt lat="45.18216" lon="6.37147">
        <ele>2817.3999023438</ele>
        <time>2014-01-11T10:22:53.000Z</time>
      </trkpt>
      <trkpt lat="45.18215" lon="6.37148">
        <ele>2817.1999511719</ele>
        <time>2014-01-11T10:22:54.000Z</time>
      </trkpt>
      <trkpt lat="45.18215" lon="6.37148">
        <ele>2817</ele>
        <time>2014-01-11T10:22:55.000Z</time>
      </trkpt>
      <trkpt lat="45.18214" lon="6.37148">
        <ele>2817</ele>
        <time>2014-01-11T10:22:56.000Z</time>
      </trkpt>
      <trkpt lat="45.18213" lon="6.37148">
        <ele>2817</ele>
        <time>2014-01-11T10:22:57.000Z</time>
      </trkpt>
      <trkpt lat="45.18213" lon="6.37149">
        <ele>2817</ele>
        <time>2014-01-11T10:22:58.000Z</time>
      </trkpt>
      <trkpt lat="45.18213" lon="6.37149">
        <ele>2817</ele>
        <time>2014-01-11T10:22:59.000Z</time>
      </trkpt>
      <trkpt lat="45.18212" lon="6.37149">
        <ele>2817</ele>
        <time>2014-01-11T10:23:00.000Z</time>
      </trkpt>
      <trkpt lat="45.18211" lon="6.37149">
        <ele>2817</ele>
        <time>2014-01-11T10:23:01.000Z</time>
      </trkpt>
      <trkpt lat="45.1821" lon="6.3715">
        <ele>2817</ele>
        <time>2014-01-11T10:23:02.000Z</time>
      </trkpt>
      <trkpt lat="45.18209" lon="6.3715">
        <ele>2817</ele>
        <time>2014-01-11T10:23:03.000Z</time>
      </trkpt>
      <trkpt lat="45.18209" lon="6.3715">
        <ele>2816.8000488281</ele>
        <time>2014-01-11T10:23:04.000Z</time>
      </trkpt>
      <trkpt lat="45.18209" lon="6.37151">
        <ele>2816.8000488281</ele>
        <time>2014-01-11T10:23:05.000Z</time>
      </trkpt>
      <trkpt lat="45.18209" lon="6.37151">
        <ele>2816.8000488281</ele>
        <time>2014-01-11T10:23:07.000Z</time>
      </trkpt>
      <trkpt lat="45.18209" lon="6.37151">
        <ele>2816.8000488281</ele>
        <time>2014-01-11T10:23:08.000Z</time>
      </trkpt>
      <trkpt lat="45.18209" lon="6.37151">
        <ele>2816.8000488281</ele>
        <time>2014-01-11T10:23:09.000Z</time>
      </trkpt>
      <trkpt lat="45.18209" lon="6.37151">
        <ele>2816.6000976562</ele>
        <time>2014-01-11T10:23:10.000Z</time>
      </trkpt>
      <trkpt lat="45.18209" lon="6.37151">
        <ele>2816.6000976562</ele>
        <time>2014-01-11T10:23:11.000Z</time>
      </trkpt>
      <trkpt lat="45.18209" lon="6.37151">
        <ele>2816.6000976562</ele>
        <time>2014-01-11T10:23:12.000Z</time>
      </trkpt>
      <trkpt lat="45.18209" lon="6.37151">
        <ele>2816.6000976562</ele>
        <time>2014-01-11T10:23:13.000Z</time>
      </trkpt>
      <trkpt lat="45.18209" lon="6.37151">
        <ele>2816.6000976562</ele>
        <time>2014-01-11T10:23:15.000Z</time>
      </trkpt>
      <trkpt lat="45.18209" lon="6.37151">
        <ele>2816.6000976562</ele>
        <time>2014-01-11T10:23:16.000Z</time>
      </trkpt>
      <trkpt lat="45.18209" lon="6.37151">
        <ele>2816.6000976562</ele>
        <time>2014-01-11T10:23:17.000Z</time>
      </trkpt>
      <trkpt lat="45.18209" lon="6.37151">
        <ele>2816.6000976562</ele>
        <time>2014-01-11T10:23:18.000Z</time>
      </trkpt>
      <trkpt lat="45.18209" lon="6.37151">
        <ele>2816.6000976562</ele>
        <time>2014-01-11T10:23:19.000Z</time>
      </trkpt>
      <trkpt lat="45.18205" lon="6.37152">
        <ele>2817</ele>
        <time>2014-01-11T10:23:24.000Z</time>
      </trkpt>
      <trkpt lat="45.18205" lon="6.37152">
        <ele>2817</ele>
        <time>2014-01-11T10:23:25.000Z</time>
      </trkpt>
      <trkpt lat="45.18204" lon="6.37152">
        <ele>2817.1999511719</ele>
        <time>2014-01-11T10:23:26.000Z</time>
      </trkpt>
      <trkpt lat="45.18203" lon="6.37152">
        <ele>2817.1999511719</ele>
        <time>2014-01-11T10:23:27.000Z</time>
      </trkpt>
      <trkpt lat="45.18202" lon="6.37152">
        <ele>2817.1999511719</ele>
        <time>2014-01-11T10:23:28.000Z</time>
      </trkpt>
      <trkpt lat="45.18201" lon="6.37152">
        <ele>2817.1999511719</ele>
        <time>2014-01-11T10:23:29.000Z</time>
      </trkpt>
      <trkpt lat="45.18202" lon="6.37153">
        <ele>2817.1999511719</ele>
        <time>2014-01-11T10:23:30.000Z</time>
      </trkpt>
      <trkpt lat="45.18202" lon="6.37153">
        <ele>2817.1999511719</ele>
        <time>2014-01-11T10:23:31.000Z</time>
      </trkpt>
      <trkpt lat="45.18202" lon="6.37153">
        <ele>2817.1999511719</ele>
        <time>2014-01-11T10:23:32.000Z</time>
      </trkpt>
      <trkpt lat="45.18202" lon="6.37153">
        <ele>2817</ele>
        <time>2014-01-11T10:23:33.000Z</time>
      </trkpt>
      <trkpt lat="45.18202" lon="6.37153">
        <ele>2817</ele>
        <time>2014-01-11T10:23:34.000Z</time>
      </trkpt>
      <trkpt lat="45.18202" lon="6.37153">
        <ele>2816.8000488281</ele>
        <time>2014-01-11T10:23:35.000Z</time>
      </trkpt>
      <trkpt lat="45.18202" lon="6.37153">
        <ele>2816.8000488281</ele>
        <time>2014-01-11T10:23:36.000Z</time>
      </trkpt>
      <trkpt lat="45.18202" lon="6.37153">
        <ele>2816.6000976562</ele>
        <time>2014-01-11T10:23:37.000Z</time>
      </trkpt>
      <trkpt lat="45.18202" lon="6.37153">
        <ele>2816.6000976562</ele>
        <time>2014-01-11T10:23:38.000Z</time>
      </trkpt>
      <trkpt lat="45.18202" lon="6.37153">
        <ele>2816.6000976562</ele>
        <time>2014-01-11T10:23:39.000Z</time>
      </trkpt>
      <trkpt lat="45.18202" lon="6.37153">
        <ele>2816.6000976562</ele>
        <time>2014-01-11T10:23:40.000Z</time>
      </trkpt>
      <trkpt lat="45.18202" lon="6.37153">
        <ele>2816.3999023438</ele>
        <time>2014-01-11T10:23:41.000Z</time>
      </trkpt>
      <trkpt lat="45.18202" lon="6.37153">
        <ele>2816.3999023438</ele>
        <time>2014-01-11T10:23:42.000Z</time>
      </trkpt>
      <trkpt lat="45.18202" lon="6.37153">
        <ele>2816.3999023438</ele>
        <time>2014-01-11T10:23:43.000Z</time>
      </trkpt>
      <trkpt lat="45.18202" lon="6.37153">
        <ele>2816.1999511719</ele>
        <time>2014-01-11T10:23:44.000Z</time>
      </trkpt>
      <trkpt lat="45.18202" lon="6.37153">
        <ele>2816.1999511719</ele>
        <time>2014-01-11T10:23:45.000Z</time>
      </trkpt>
      <trkpt lat="45.18202" lon="6.37153">
        <ele>2816.1999511719</ele>
        <time>2014-01-11T10:23:46.000Z</time>
      </trkpt>
      <trkpt lat="45.18202" lon="6.37153">
        <ele>2816.1999511719</ele>
        <time>2014-01-11T10:23:47.000Z</time>
      </trkpt>
      <trkpt lat="45.18202" lon="6.37153">
        <ele>2816.1999511719</ele>
        <time>2014-01-11T10:23:48.000Z</time>
      </trkpt>
      <trkpt lat="45.18202" lon="6.37153">
        <ele>2816</ele>
        <time>2014-01-11T10:23:49.000Z</time>
      </trkpt>
      <trkpt lat="45.18202" lon="6.37153">
        <ele>2816</ele>
        <time>2014-01-11T10:23:50.000Z</time>
      </trkpt>
      <trkpt lat="45.18202" lon="6.37153">
        <ele>2816</ele>
        <time>2014-01-11T10:23:51.000Z</time>
      </trkpt>
      <trkpt lat="45.18202" lon="6.37153">
        <ele>2816</ele>
        <time>2014-01-11T10:23:52.000Z</time>
      </trkpt>
      <trkpt lat="45.18202" lon="6.37153">
        <ele>2815.8000488281</ele>
        <time>2014-01-11T10:23:53.000Z</time>
      </trkpt>
      <trkpt lat="45.18202" lon="6.37153">
        <ele>2815.8000488281</ele>
        <time>2014-01-11T10:23:54.000Z</time>
      </trkpt>
      <trkpt lat="45.18202" lon="6.37153">
        <ele>2815.8000488281</ele>
        <time>2014-01-11T10:23:55.000Z</time>
      </trkpt>
      <trkpt lat="45.18202" lon="6.37153">
        <ele>2815.6000976562</ele>
        <time>2014-01-11T10:23:56.000Z</time>
      </trkpt>
      <trkpt lat="45.18202" lon="6.37153">
        <ele>2815.6000976562</ele>
        <time>2014-01-11T10:23:57.000Z</time>
      </trkpt>
      <trkpt lat="45.18202" lon="6.37153">
        <ele>2815.6000976562</ele>
        <time>2014-01-11T10:23:58.000Z</time>
      </trkpt>
      <trkpt lat="45.18202" lon="6.37153">
        <ele>2815.6000976562</ele>
        <time>2014-01-11T10:24:02.000Z</time>
      </trkpt>
      <trkpt lat="45.18202" lon="6.37153">
        <ele>2815.8000488281</ele>
        <time>2014-01-11T10:24:03.000Z</time>
      </trkpt>
      <trkpt lat="45.18202" lon="6.37153">
        <ele>2815.8000488281</ele>
        <time>2014-01-11T10:24:04.000Z</time>
      </trkpt>
      <trkpt lat="45.18202" lon="6.37153">
        <ele>2815.8000488281</ele>
        <time>2014-01-11T10:24:05.000Z</time>
      </trkpt>
      <trkpt lat="45.18202" lon="6.37153">
        <ele>2815.8000488281</ele>
        <time>2014-01-11T10:24:06.000Z</time>
      </trkpt>
      <trkpt lat="45.18202" lon="6.37153">
        <ele>2815.8000488281</ele>
        <time>2014-01-11T10:24:07.000Z</time>
      </trkpt>
      <trkpt lat="45.18202" lon="6.37153">
        <ele>2815.6000976562</ele>
        <time>2014-01-11T10:24:08.000Z</time>
      </trkpt>
      <trkpt lat="45.18202" lon="6.37153">
        <ele>2815.6000976562</ele>
        <time>2014-01-11T10:24:09.000Z</time>
      </trkpt>
      <trkpt lat="45.18202" lon="6.37153">
        <ele>2815.6000976562</ele>
        <time>2014-01-11T10:24:10.000Z</time>
      </trkpt>
      <trkpt lat="45.18202" lon="6.37153">
        <ele>2815.6000976562</ele>
        <time>2014-01-11T10:24:11.000Z</time>
      </trkpt>
      <trkpt lat="45.18202" lon="6.37153">
        <ele>2815.8000488281</ele>
        <time>2014-01-11T10:24:12.000Z</time>
      </trkpt>
      <trkpt lat="45.18202" lon="6.37153">
        <ele>2815.8000488281</ele>
        <time>2014-01-11T10:24:13.000Z</time>
      </trkpt>
      <trkpt lat="45.18202" lon="6.37153">
        <ele>2815.8000488281</ele>
        <time>2014-01-11T10:24:14.000Z</time>
      </trkpt>
      <trkpt lat="45.18202" lon="6.37153">
        <ele>2815.8000488281</ele>
        <time>2014-01-11T10:24:15.000Z</time>
      </trkpt>
      <trkpt lat="45.18202" lon="6.37153">
        <ele>2816</ele>
        <time>2014-01-11T10:24:16.000Z</time>
      </trkpt>
      <trkpt lat="45.18202" lon="6.37153">
        <ele>2815.8000488281</ele>
        <time>2014-01-11T10:24:17.000Z</time>
      </trkpt>
      <trkpt lat="45.18202" lon="6.37153">
        <ele>2815.8000488281</ele>
        <time>2014-01-11T10:24:18.000Z</time>
      </trkpt>
      <trkpt lat="45.18202" lon="6.37153">
        <ele>2815.8000488281</ele>
        <time>2014-01-11T10:24:20.000Z</time>
      </trkpt>
      <trkpt lat="45.18202" lon="6.37153">
        <ele>2816</ele>
        <time>2014-01-11T10:24:21.000Z</time>
      </trkpt>
      <trkpt lat="45.18202" lon="6.37153">
        <ele>2816</ele>
        <time>2014-01-11T10:24:22.000Z</time>
      </trkpt>
      <trkpt lat="45.18202" lon="6.37153">
        <ele>2816</ele>
        <time>2014-01-11T10:24:23.000Z</time>
      </trkpt>
      <trkpt lat="45.18202" lon="6.37153">
        <ele>2816.1999511719</ele>
        <time>2014-01-11T10:24:24.000Z</time>
      </trkpt>
      <trkpt lat="45.18202" lon="6.37153">
        <ele>2816.1999511719</ele>
        <time>2014-01-11T10:24:25.000Z</time>
      </trkpt>
      <trkpt lat="45.18202" lon="6.37153">
        <ele>2816.1999511719</ele>
        <time>2014-01-11T10:24:26.000Z</time>
      </trkpt>
      <trkpt lat="45.18202" lon="6.37153">
        <ele>2816</ele>
        <time>2014-01-11T10:24:27.000Z</time>
      </trkpt>
      <trkpt lat="45.18202" lon="6.37153">
        <ele>2816</ele>
        <time>2014-01-11T10:24:28.000Z</time>
      </trkpt>
      <trkpt lat="45.18202" lon="6.37153">
        <ele>2816</ele>
        <time>2014-01-11T10:24:29.000Z</time>
      </trkpt>
      <trkpt lat="45.18202" lon="6.37153">
        <ele>2816</ele>
        <time>2014-01-11T10:24:30.000Z</time>
      </trkpt>
      <trkpt lat="45.18202" lon="6.37153">
        <ele>2816</ele>
        <time>2014-01-11T10:24:31.000Z</time>
      </trkpt>
      <trkpt lat="45.18202" lon="6.37153">
        <ele>2816</ele>
        <time>2014-01-11T10:24:32.000Z</time>
      </trkpt>
      <trkpt lat="45.18202" lon="6.37153">
        <ele>2815.8000488281</ele>
        <time>2014-01-11T10:24:34.000Z</time>
      </trkpt>
      <trkpt lat="45.18202" lon="6.37153">
        <ele>2815.8000488281</ele>
        <time>2014-01-11T10:24:35.000Z</time>
      </trkpt>
      <trkpt lat="45.18202" lon="6.37153">
        <ele>2815.8000488281</ele>
        <time>2014-01-11T10:24:36.000Z</time>
      </trkpt>
      <trkpt lat="45.18202" lon="6.37153">
        <ele>2815.8000488281</ele>
        <time>2014-01-11T10:24:40.000Z</time>
      </trkpt>
      <trkpt lat="45.18202" lon="6.37153">
        <ele>2815.8000488281</ele>
        <time>2014-01-11T10:24:41.000Z</time>
      </trkpt>
      <trkpt lat="45.18202" lon="6.37153">
        <ele>2815.8000488281</ele>
        <time>2014-01-11T10:24:42.000Z</time>
      </trkpt>
      <trkpt lat="45.18202" lon="6.37153">
        <ele>2816</ele>
        <time>2014-01-11T10:24:43.000Z</time>
      </trkpt>
      <trkpt lat="45.18202" lon="6.37153">
        <ele>2816</ele>
        <time>2014-01-11T10:24:44.000Z</time>
      </trkpt>
      <trkpt lat="45.18202" lon="6.37153">
        <ele>2816</ele>
        <time>2014-01-11T10:24:45.000Z</time>
      </trkpt>
      <trkpt lat="45.18202" lon="6.37153">
        <ele>2816</ele>
        <time>2014-01-11T10:24:46.000Z</time>
      </trkpt>
      <trkpt lat="45.18202" lon="6.37153">
        <ele>2816</ele>
        <time>2014-01-11T10:24:47.000Z</time>
      </trkpt>
      <trkpt lat="45.18202" lon="6.37153">
        <ele>2816.1999511719</ele>
        <time>2014-01-11T10:24:48.000Z</time>
      </trkpt>
      <trkpt lat="45.18201" lon="6.37153">
        <ele>2816.1999511719</ele>
        <time>2014-01-11T10:24:49.000Z</time>
      </trkpt>
      <trkpt lat="45.182" lon="6.37152">
        <ele>2816.1999511719</ele>
        <time>2014-01-11T10:24:52.000Z</time>
      </trkpt>
      <trkpt lat="45.182" lon="6.37152">
        <ele>2816.1999511719</ele>
        <time>2014-01-11T10:24:53.000Z</time>
      </trkpt>
      <trkpt lat="45.18199" lon="6.37153">
        <ele>2816</ele>
        <time>2014-01-11T10:24:54.000Z</time>
      </trkpt>
      <trkpt lat="45.18199" lon="6.37153">
        <ele>2816</ele>
        <time>2014-01-11T10:24:55.000Z</time>
      </trkpt>
      <trkpt lat="45.18199" lon="6.37153">
        <ele>2816</ele>
        <time>2014-01-11T10:24:56.000Z</time>
      </trkpt>
      <trkpt lat="45.18199" lon="6.37153">
        <ele>2815.8000488281</ele>
        <time>2014-01-11T10:24:57.000Z</time>
      </trkpt>
      <trkpt lat="45.18198" lon="6.37154">
        <ele>2815.6000976562</ele>
        <time>2014-01-11T10:24:58.000Z</time>
      </trkpt>
      <trkpt lat="45.18198" lon="6.37154">
        <ele>2815.6000976562</ele>
        <time>2014-01-11T10:24:59.000Z</time>
      </trkpt>
      <trkpt lat="45.18198" lon="6.37154">
        <ele>2815.6000976562</ele>
        <time>2014-01-11T10:25:00.000Z</time>
      </trkpt>
      <trkpt lat="45.18198" lon="6.37154">
        <ele>2815.6000976562</ele>
        <time>2014-01-11T10:25:01.000Z</time>
      </trkpt>
      <trkpt lat="45.18198" lon="6.37154">
        <ele>2815.6000976562</ele>
        <time>2014-01-11T10:25:02.000Z</time>
      </trkpt>
      <trkpt lat="45.18198" lon="6.37154">
        <ele>2815.6000976562</ele>
        <time>2014-01-11T10:25:03.000Z</time>
      </trkpt>
      <trkpt lat="45.18198" lon="6.37154">
        <ele>2815.6000976562</ele>
        <time>2014-01-11T10:25:04.000Z</time>
      </trkpt>
      <trkpt lat="45.18198" lon="6.37154">
        <ele>2815.6000976562</ele>
        <time>2014-01-11T10:25:05.000Z</time>
      </trkpt>
      <trkpt lat="45.18198" lon="6.37154">
        <ele>2815.8000488281</ele>
        <time>2014-01-11T10:25:06.000Z</time>
      </trkpt>
      <trkpt lat="45.18198" lon="6.37154">
        <ele>2815.8000488281</ele>
        <time>2014-01-11T10:25:07.000Z</time>
      </trkpt>
      <trkpt lat="45.18198" lon="6.37154">
        <ele>2816</ele>
        <time>2014-01-11T10:25:08.000Z</time>
      </trkpt>
      <trkpt lat="45.18198" lon="6.37154">
        <ele>2816</ele>
        <time>2014-01-11T10:25:09.000Z</time>
      </trkpt>
      <trkpt lat="45.18198" lon="6.37155">
        <ele>2816</ele>
        <time>2014-01-11T10:25:10.000Z</time>
      </trkpt>
      <trkpt lat="45.18198" lon="6.37155">
        <ele>2816</ele>
        <time>2014-01-11T10:25:11.000Z</time>
      </trkpt>
      <trkpt lat="45.18197" lon="6.37155">
        <ele>2816</ele>
        <time>2014-01-11T10:25:12.000Z</time>
      </trkpt>
      <trkpt lat="45.18197" lon="6.37156">
        <ele>2816</ele>
        <time>2014-01-11T10:25:13.000Z</time>
      </trkpt>
      <trkpt lat="45.18196" lon="6.37157">
        <ele>2816</ele>
        <time>2014-01-11T10:25:14.000Z</time>
      </trkpt>
      <trkpt lat="45.18196" lon="6.37158">
        <ele>2816</ele>
        <time>2014-01-11T10:25:15.000Z</time>
      </trkpt>
      <trkpt lat="45.18195" lon="6.3716">
        <ele>2816</ele>
        <time>2014-01-11T10:25:17.000Z</time>
      </trkpt>
      <trkpt lat="45.18195" lon="6.3716">
        <ele>2816.1999511719</ele>
        <time>2014-01-11T10:25:18.000Z</time>
      </trkpt>
      <trkpt lat="45.18194" lon="6.3716">
        <ele>2816.1999511719</ele>
        <time>2014-01-11T10:25:19.000Z</time>
      </trkpt>
      <trkpt lat="45.18194" lon="6.3716">
        <ele>2816.1999511719</ele>
        <time>2014-01-11T10:25:22.000Z</time>
      </trkpt>
      <trkpt lat="45.18194" lon="6.3716">
        <ele>2816.3999023438</ele>
        <time>2014-01-11T10:25:23.000Z</time>
      </trkpt>
      <trkpt lat="45.18194" lon="6.3716">
        <ele>2816.3999023438</ele>
        <time>2014-01-11T10:25:24.000Z</time>
      </trkpt>
      <trkpt lat="45.18194" lon="6.3716">
        <ele>2816.6000976562</ele>
        <time>2014-01-11T10:25:25.000Z</time>
      </trkpt>
      <trkpt lat="45.18194" lon="6.3716">
        <ele>2816.6000976562</ele>
        <time>2014-01-11T10:25:26.000Z</time>
      </trkpt>
      <trkpt lat="45.18194" lon="6.3716">
        <ele>2816.8000488281</ele>
        <time>2014-01-11T10:25:27.000Z</time>
      </trkpt>
      <trkpt lat="45.18194" lon="6.3716">
        <ele>2816.8000488281</ele>
        <time>2014-01-11T10:25:28.000Z</time>
      </trkpt>
      <trkpt lat="45.18194" lon="6.3716">
        <ele>2816.8000488281</ele>
        <time>2014-01-11T10:25:29.000Z</time>
      </trkpt>
      <trkpt lat="45.18194" lon="6.3716">
        <ele>2816.8000488281</ele>
        <time>2014-01-11T10:25:30.000Z</time>
      </trkpt>
      <trkpt lat="45.18194" lon="6.3716">
        <ele>2816.8000488281</ele>
        <time>2014-01-11T10:25:31.000Z</time>
      </trkpt>
      <trkpt lat="45.18193" lon="6.3716">
        <ele>2816.8000488281</ele>
        <time>2014-01-11T10:25:32.000Z</time>
      </trkpt>
      <trkpt lat="45.18193" lon="6.3716">
        <ele>2816.8000488281</ele>
        <time>2014-01-11T10:25:33.000Z</time>
      </trkpt>
      <trkpt lat="45.18193" lon="6.3716">
        <ele>2817</ele>
        <time>2014-01-11T10:25:35.000Z</time>
      </trkpt>
      <trkpt lat="45.18193" lon="6.3716">
        <ele>2817.1999511719</ele>
        <time>2014-01-11T10:25:36.000Z</time>
      </trkpt>
      <trkpt lat="45.18192" lon="6.3716">
        <ele>2817.1999511719</ele>
        <time>2014-01-11T10:25:37.000Z</time>
      </trkpt>
      <trkpt lat="45.18192" lon="6.3716">
        <ele>2817.1999511719</ele>
        <time>2014-01-11T10:25:38.000Z</time>
      </trkpt>
      <trkpt lat="45.18192" lon="6.3716">
        <ele>2817.1999511719</ele>
        <time>2014-01-11T10:25:39.000Z</time>
      </trkpt>
      <trkpt lat="45.18191" lon="6.37161">
        <ele>2817.1999511719</ele>
        <time>2014-01-11T10:25:40.000Z</time>
      </trkpt>
      <trkpt lat="45.18191" lon="6.37162">
        <ele>2817.1999511719</ele>
        <time>2014-01-11T10:25:41.000Z</time>
      </trkpt>
      <trkpt lat="45.1819" lon="6.37163">
        <ele>2817.1999511719</ele>
        <time>2014-01-11T10:25:43.000Z</time>
      </trkpt>
      <trkpt lat="45.1819" lon="6.37163">
        <ele>2817.1999511719</ele>
        <time>2014-01-11T10:25:44.000Z</time>
      </trkpt>
      <trkpt lat="45.1819" lon="6.37163">
        <ele>2817.3999023438</ele>
        <time>2014-01-11T10:25:45.000Z</time>
      </trkpt>
      <trkpt lat="45.1819" lon="6.37164">
        <ele>2817.3999023438</ele>
        <time>2014-01-11T10:25:46.000Z</time>
      </trkpt>
      <trkpt lat="45.1819" lon="6.37164">
        <ele>2817.6000976562</ele>
        <time>2014-01-11T10:25:47.000Z</time>
      </trkpt>
      <trkpt lat="45.1819" lon="6.37164">
        <ele>2817.8000488281</ele>
        <time>2014-01-11T10:25:48.000Z</time>
      </trkpt>
      <trkpt lat="45.1819" lon="6.37164">
        <ele>2817.8000488281</ele>
        <time>2014-01-11T10:25:49.000Z</time>
      </trkpt>
      <trkpt lat="45.1819" lon="6.37164">
        <ele>2817.6000976562</ele>
        <time>2014-01-11T10:25:50.000Z</time>
      </trkpt>
      <trkpt lat="45.1819" lon="6.37164">
        <ele>2817.6000976562</ele>
        <time>2014-01-11T10:25:51.000Z</time>
      </trkpt>
      <trkpt lat="45.1819" lon="6.37164">
        <ele>2817.6000976562</ele>
        <time>2014-01-11T10:25:52.000Z</time>
      </trkpt>
      <trkpt lat="45.1819" lon="6.37164">
        <ele>2817.6000976562</ele>
        <time>2014-01-11T10:25:53.000Z</time>
      </trkpt>
      <trkpt lat="45.1819" lon="6.37164">
        <ele>2817.6000976562</ele>
        <time>2014-01-11T10:25:54.000Z</time>
      </trkpt>
      <trkpt lat="45.1819" lon="6.37164">
        <ele>2817.8000488281</ele>
        <time>2014-01-11T10:25:55.000Z</time>
      </trkpt>
      <trkpt lat="45.1819" lon="6.37164">
        <ele>2818</ele>
        <time>2014-01-11T10:25:56.000Z</time>
      </trkpt>
      <trkpt lat="45.1819" lon="6.37164">
        <ele>2818</ele>
        <time>2014-01-11T10:25:57.000Z</time>
      </trkpt>
      <trkpt lat="45.1819" lon="6.37164">
        <ele>2818.1999511719</ele>
        <time>2014-01-11T10:25:58.000Z</time>
      </trkpt>
      <trkpt lat="45.1819" lon="6.37164">
        <ele>2818.3999023438</ele>
        <time>2014-01-11T10:25:59.000Z</time>
      </trkpt>
      <trkpt lat="45.1819" lon="6.37164">
        <ele>2818.3999023438</ele>
        <time>2014-01-11T10:26:00.000Z</time>
      </trkpt>
      <trkpt lat="45.1819" lon="6.37164">
        <ele>2818.6000976562</ele>
        <time>2014-01-11T10:26:01.000Z</time>
      </trkpt>
      <trkpt lat="45.1819" lon="6.37164">
        <ele>2818.8000488281</ele>
        <time>2014-01-11T10:26:02.000Z</time>
      </trkpt>
      <trkpt lat="45.1819" lon="6.37164">
        <ele>2819</ele>
        <time>2014-01-11T10:26:03.000Z</time>
      </trkpt>
      <trkpt lat="45.1819" lon="6.37164">
        <ele>2819</ele>
        <time>2014-01-11T10:26:04.000Z</time>
      </trkpt>
      <trkpt lat="45.1819" lon="6.37164">
        <ele>2819</ele>
        <time>2014-01-11T10:26:05.000Z</time>
      </trkpt>
      <trkpt lat="45.1819" lon="6.37164">
        <ele>2819</ele>
        <time>2014-01-11T10:26:06.000Z</time>
      </trkpt>
      <trkpt lat="45.1819" lon="6.37164">
        <ele>2818.8000488281</ele>
        <time>2014-01-11T10:26:07.000Z</time>
      </trkpt>
      <trkpt lat="45.1819" lon="6.37164">
        <ele>2818.6000976562</ele>
        <time>2014-01-11T10:26:08.000Z</time>
      </trkpt>
      <trkpt lat="45.1819" lon="6.37164">
        <ele>2818.6000976562</ele>
        <time>2014-01-11T10:26:09.000Z</time>
      </trkpt>
      <trkpt lat="45.1819" lon="6.37164">
        <ele>2818.6000976562</ele>
        <time>2014-01-11T10:26:10.000Z</time>
      </trkpt>
      <trkpt lat="45.1819" lon="6.37164">
        <ele>2818.3999023438</ele>
        <time>2014-01-11T10:26:11.000Z</time>
      </trkpt>
      <trkpt lat="45.1819" lon="6.37164">
        <ele>2818.1999511719</ele>
        <time>2014-01-11T10:26:12.000Z</time>
      </trkpt>
      <trkpt lat="45.1819" lon="6.37164">
        <ele>2818.1999511719</ele>
        <time>2014-01-11T10:26:13.000Z</time>
      </trkpt>
      <trkpt lat="45.1819" lon="6.37164">
        <ele>2818</ele>
        <time>2014-01-11T10:26:14.000Z</time>
      </trkpt>
      <trkpt lat="45.1819" lon="6.37164">
        <ele>2818</ele>
        <time>2014-01-11T10:26:15.000Z</time>
      </trkpt>
      <trkpt lat="45.1819" lon="6.37164">
        <ele>2818</ele>
        <time>2014-01-11T10:26:16.000Z</time>
      </trkpt>
      <trkpt lat="45.1819" lon="6.37164">
        <ele>2818</ele>
        <time>2014-01-11T10:26:18.000Z</time>
      </trkpt>
      <trkpt lat="45.1819" lon="6.37164">
        <ele>2818</ele>
        <time>2014-01-11T10:26:19.000Z</time>
      </trkpt>
      <trkpt lat="45.1819" lon="6.37164">
        <ele>2818</ele>
        <time>2014-01-11T10:26:20.000Z</time>
      </trkpt>
      <trkpt lat="45.1819" lon="6.37164">
        <ele>2818</ele>
        <time>2014-01-11T10:26:21.000Z</time>
      </trkpt>
      <trkpt lat="45.1819" lon="6.37164">
        <ele>2817.8000488281</ele>
        <time>2014-01-11T10:26:22.000Z</time>
      </trkpt>
      <trkpt lat="45.1819" lon="6.37164">
        <ele>2817.8000488281</ele>
        <time>2014-01-11T10:26:23.000Z</time>
      </trkpt>
      <trkpt lat="45.1819" lon="6.37164">
        <ele>2817.6000976562</ele>
        <time>2014-01-11T10:26:24.000Z</time>
      </trkpt>
      <trkpt lat="45.1819" lon="6.37164">
        <ele>2817.6000976562</ele>
        <time>2014-01-11T10:26:25.000Z</time>
      </trkpt>
      <trkpt lat="45.18189" lon="6.37164">
        <ele>2817.6000976562</ele>
        <time>2014-01-11T10:26:26.000Z</time>
      </trkpt>
      <trkpt lat="45.18189" lon="6.37164">
        <ele>2817.6000976562</ele>
        <time>2014-01-11T10:26:27.000Z</time>
      </trkpt>
      <trkpt lat="45.18189" lon="6.37164">
        <ele>2817.8000488281</ele>
        <time>2014-01-11T10:26:28.000Z</time>
      </trkpt>
      <trkpt lat="45.18189" lon="6.37164">
        <ele>2818</ele>
        <time>2014-01-11T10:26:29.000Z</time>
      </trkpt>
      <trkpt lat="45.18189" lon="6.37164">
        <ele>2818.1999511719</ele>
        <time>2014-01-11T10:26:30.000Z</time>
      </trkpt>
      <trkpt lat="45.18189" lon="6.37164">
        <ele>2818.1999511719</ele>
        <time>2014-01-11T10:26:31.000Z</time>
      </trkpt>
      <trkpt lat="45.18189" lon="6.37164">
        <ele>2818.1999511719</ele>
        <time>2014-01-11T10:26:32.000Z</time>
      </trkpt>
      <trkpt lat="45.18189" lon="6.37164">
        <ele>2818.1999511719</ele>
        <time>2014-01-11T10:26:33.000Z</time>
      </trkpt>
      <trkpt lat="45.18189" lon="6.37164">
        <ele>2818.1999511719</ele>
        <time>2014-01-11T10:26:34.000Z</time>
      </trkpt>
      <trkpt lat="45.18189" lon="6.37164">
        <ele>2818</ele>
        <time>2014-01-11T10:26:35.000Z</time>
      </trkpt>
      <trkpt lat="45.18189" lon="6.37164">
        <ele>2817.6000976562</ele>
        <time>2014-01-11T10:26:36.000Z</time>
      </trkpt>
      <trkpt lat="45.18189" lon="6.37164">
        <ele>2817.3999023438</ele>
        <time>2014-01-11T10:26:37.000Z</time>
      </trkpt>
      <trkpt lat="45.18189" lon="6.37164">
        <ele>2817.3999023438</ele>
        <time>2014-01-11T10:26:38.000Z</time>
      </trkpt>
      <trkpt lat="45.18189" lon="6.37164">
        <ele>2817.3999023438</ele>
        <time>2014-01-11T10:26:39.000Z</time>
      </trkpt>
      <trkpt lat="45.18189" lon="6.37164">
        <ele>2817.1999511719</ele>
        <time>2014-01-11T10:26:40.000Z</time>
      </trkpt>
      <trkpt lat="45.18189" lon="6.37164">
        <ele>2817.1999511719</ele>
        <time>2014-01-11T10:26:41.000Z</time>
      </trkpt>
      <trkpt lat="45.18189" lon="6.37164">
        <ele>2817.1999511719</ele>
        <time>2014-01-11T10:26:42.000Z</time>
      </trkpt>
      <trkpt lat="45.18189" lon="6.37164">
        <ele>2817</ele>
        <time>2014-01-11T10:26:43.000Z</time>
      </trkpt>
      <trkpt lat="45.18189" lon="6.37164">
        <ele>2817</ele>
        <time>2014-01-11T10:26:44.000Z</time>
      </trkpt>
      <trkpt lat="45.18189" lon="6.37164">
        <ele>2817</ele>
        <time>2014-01-11T10:26:45.000Z</time>
      </trkpt>
      <trkpt lat="45.18189" lon="6.37164">
        <ele>2817</ele>
        <time>2014-01-11T10:26:47.000Z</time>
      </trkpt>
      <trkpt lat="45.18189" lon="6.37164">
        <ele>2817</ele>
        <time>2014-01-11T10:26:48.000Z</time>
      </trkpt>
      <trkpt lat="45.18189" lon="6.37164">
        <ele>2817</ele>
        <time>2014-01-11T10:26:49.000Z</time>
      </trkpt>
      <trkpt lat="45.18189" lon="6.37164">
        <ele>2817</ele>
        <time>2014-01-11T10:26:52.000Z</time>
      </trkpt>
      <trkpt lat="45.18189" lon="6.37164">
        <ele>2817.1999511719</ele>
        <time>2014-01-11T10:26:53.000Z</time>
      </trkpt>
      <trkpt lat="45.18189" lon="6.37164">
        <ele>2817.1999511719</ele>
        <time>2014-01-11T10:26:54.000Z</time>
      </trkpt>
      <trkpt lat="45.18189" lon="6.37164">
        <ele>2817.1999511719</ele>
        <time>2014-01-11T10:26:55.000Z</time>
      </trkpt>
      <trkpt lat="45.18189" lon="6.37164">
        <ele>2817.3999023438</ele>
        <time>2014-01-11T10:26:56.000Z</time>
      </trkpt>
      <trkpt lat="45.18189" lon="6.37164">
        <ele>2817.3999023438</ele>
        <time>2014-01-11T10:26:57.000Z</time>
      </trkpt>
      <trkpt lat="45.18189" lon="6.37164">
        <ele>2817.3999023438</ele>
        <time>2014-01-11T10:26:58.000Z</time>
      </trkpt>
      <trkpt lat="45.18189" lon="6.37164">
        <ele>2817.3999023438</ele>
        <time>2014-01-11T10:26:59.000Z</time>
      </trkpt>
      <trkpt lat="45.18189" lon="6.37164">
        <ele>2817.1999511719</ele>
        <time>2014-01-11T10:27:00.000Z</time>
      </trkpt>
      <trkpt lat="45.18189" lon="6.37164">
        <ele>2817.1999511719</ele>
        <time>2014-01-11T10:27:01.000Z</time>
      </trkpt>
      <trkpt lat="45.18189" lon="6.37164">
        <ele>2817.3999023438</ele>
        <time>2014-01-11T10:27:02.000Z</time>
      </trkpt>
      <trkpt lat="45.18189" lon="6.37164">
        <ele>2817.8000488281</ele>
        <time>2014-01-11T10:27:03.000Z</time>
      </trkpt>
      <trkpt lat="45.18189" lon="6.37164">
        <ele>2818.1999511719</ele>
        <time>2014-01-11T10:27:04.000Z</time>
      </trkpt>
      <trkpt lat="45.18189" lon="6.37164">
        <ele>2818.3999023438</ele>
        <time>2014-01-11T10:27:05.000Z</time>
      </trkpt>
      <trkpt lat="45.18189" lon="6.37164">
        <ele>2818.6000976562</ele>
        <time>2014-01-11T10:27:06.000Z</time>
      </trkpt>
      <trkpt lat="45.18189" lon="6.37164">
        <ele>2818.6000976562</ele>
        <time>2014-01-11T10:27:07.000Z</time>
      </trkpt>
      <trkpt lat="45.18189" lon="6.37164">
        <ele>2818.6000976562</ele>
        <time>2014-01-11T10:27:08.000Z</time>
      </trkpt>
      <trkpt lat="45.18189" lon="6.37164">
        <ele>2818.6000976562</ele>
        <time>2014-01-11T10:27:09.000Z</time>
      </trkpt>
      <trkpt lat="45.18189" lon="6.37164">
        <ele>2818.6000976562</ele>
        <time>2014-01-11T10:27:10.000Z</time>
      </trkpt>
      <trkpt lat="45.18189" lon="6.37164">
        <ele>2818.3999023438</ele>
        <time>2014-01-11T10:27:11.000Z</time>
      </trkpt>
      <trkpt lat="45.18189" lon="6.37164">
        <ele>2818.3999023438</ele>
        <time>2014-01-11T10:27:12.000Z</time>
      </trkpt>
      <trkpt lat="45.18189" lon="6.37164">
        <ele>2818.1999511719</ele>
        <time>2014-01-11T10:27:13.000Z</time>
      </trkpt>
      <trkpt lat="45.1819" lon="6.37164">
        <ele>2818.1999511719</ele>
        <time>2014-01-11T10:27:14.000Z</time>
      </trkpt>
      <trkpt lat="45.1819" lon="6.37164">
        <ele>2818.3999023438</ele>
        <time>2014-01-11T10:27:15.000Z</time>
      </trkpt>
      <trkpt lat="45.1819" lon="6.37164">
        <ele>2818.3999023438</ele>
        <time>2014-01-11T10:27:16.000Z</time>
      </trkpt>
      <trkpt lat="45.18191" lon="6.37164">
        <ele>2818.3999023438</ele>
        <time>2014-01-11T10:27:17.000Z</time>
      </trkpt>
      <trkpt lat="45.18191" lon="6.37164">
        <ele>2818.3999023438</ele>
        <time>2014-01-11T10:27:18.000Z</time>
      </trkpt>
      <trkpt lat="45.18192" lon="6.37164">
        <ele>2818.6000976562</ele>
        <time>2014-01-11T10:27:19.000Z</time>
      </trkpt>
      <trkpt lat="45.18192" lon="6.37164">
        <ele>2818.3999023438</ele>
        <time>2014-01-11T10:27:20.000Z</time>
      </trkpt>
      <trkpt lat="45.18193" lon="6.37163">
        <ele>2818.1999511719</ele>
        <time>2014-01-11T10:27:21.000Z</time>
      </trkpt>
      <trkpt lat="45.18193" lon="6.37163">
        <ele>2818</ele>
        <time>2014-01-11T10:27:22.000Z</time>
      </trkpt>
      <trkpt lat="45.18193" lon="6.37162">
        <ele>2817.8000488281</ele>
        <time>2014-01-11T10:27:23.000Z</time>
      </trkpt>
      <trkpt lat="45.18193" lon="6.37162">
        <ele>2817.6000976562</ele>
        <time>2014-01-11T10:27:24.000Z</time>
      </trkpt>
      <trkpt lat="45.18193" lon="6.37162">
        <ele>2817.6000976562</ele>
        <time>2014-01-11T10:27:25.000Z</time>
      </trkpt>
      <trkpt lat="45.18193" lon="6.37161">
        <ele>2817.6000976562</ele>
        <time>2014-01-11T10:27:26.000Z</time>
      </trkpt>
      <trkpt lat="45.18194" lon="6.3716">
        <ele>2817.6000976562</ele>
        <time>2014-01-11T10:27:27.000Z</time>
      </trkpt>
      <trkpt lat="45.18195" lon="6.3716">
        <ele>2817.3999023438</ele>
        <time>2014-01-11T10:27:28.000Z</time>
      </trkpt>
      <trkpt lat="45.18195" lon="6.3716">
        <ele>2817.1999511719</ele>
        <time>2014-01-11T10:27:29.000Z</time>
      </trkpt>
      <trkpt lat="45.18196" lon="6.37159">
        <ele>2817.1999511719</ele>
        <time>2014-01-11T10:27:30.000Z</time>
      </trkpt>
      <trkpt lat="45.18196" lon="6.37159">
        <ele>2817</ele>
        <time>2014-01-11T10:27:31.000Z</time>
      </trkpt>
      <trkpt lat="45.18196" lon="6.37158">
        <ele>2817</ele>
        <time>2014-01-11T10:27:32.000Z</time>
      </trkpt>
      <trkpt lat="45.18196" lon="6.37158">
        <ele>2816.8000488281</ele>
        <time>2014-01-11T10:27:33.000Z</time>
      </trkpt>
      <trkpt lat="45.18197" lon="6.37157">
        <ele>2816.6000976562</ele>
        <time>2014-01-11T10:27:34.000Z</time>
      </trkpt>
      <trkpt lat="45.18197" lon="6.37157">
        <ele>2816.3999023438</ele>
        <time>2014-01-11T10:27:35.000Z</time>
      </trkpt>
      <trkpt lat="45.18197" lon="6.37157">
        <ele>2816.3999023438</ele>
        <time>2014-01-11T10:27:36.000Z</time>
      </trkpt>
      <trkpt lat="45.18197" lon="6.37157">
        <ele>2816.3999023438</ele>
        <time>2014-01-11T10:27:37.000Z</time>
      </trkpt>
      <trkpt lat="45.18197" lon="6.37157">
        <ele>2816.3999023438</ele>
        <time>2014-01-11T10:27:38.000Z</time>
      </trkpt>
      <trkpt lat="45.18197" lon="6.37157">
        <ele>2816.3999023438</ele>
        <time>2014-01-11T10:27:39.000Z</time>
      </trkpt>
      <trkpt lat="45.18197" lon="6.37157">
        <ele>2816.3999023438</ele>
        <time>2014-01-11T10:27:40.000Z</time>
      </trkpt>
      <trkpt lat="45.18197" lon="6.37157">
        <ele>2816.6000976562</ele>
        <time>2014-01-11T10:27:41.000Z</time>
      </trkpt>
      <trkpt lat="45.18197" lon="6.37157">
        <ele>2816.6000976562</ele>
        <time>2014-01-11T10:27:42.000Z</time>
      </trkpt>
      <trkpt lat="45.18198" lon="6.37156">
        <ele>2816.6000976562</ele>
        <time>2014-01-11T10:27:43.000Z</time>
      </trkpt>
      <trkpt lat="45.18198" lon="6.37155">
        <ele>2816.6000976562</ele>
        <time>2014-01-11T10:27:44.000Z</time>
      </trkpt>
      <trkpt lat="45.18199" lon="6.37155">
        <ele>2816.6000976562</ele>
        <time>2014-01-11T10:27:45.000Z</time>
      </trkpt>
      <trkpt lat="45.18201" lon="6.37155">
        <ele>2816.3999023438</ele>
        <time>2014-01-11T10:27:48.000Z</time>
      </trkpt>
      <trkpt lat="45.18202" lon="6.37154">
        <ele>2816.3999023438</ele>
        <time>2014-01-11T10:27:49.000Z</time>
      </trkpt>
      <trkpt lat="45.18203" lon="6.37153">
        <ele>2816.1999511719</ele>
        <time>2014-01-11T10:27:50.000Z</time>
      </trkpt>
      <trkpt lat="45.18204" lon="6.37153">
        <ele>2816.1999511719</ele>
        <time>2014-01-11T10:27:51.000Z</time>
      </trkpt>
      <trkpt lat="45.18204" lon="6.37153">
        <ele>2816</ele>
        <time>2014-01-11T10:27:52.000Z</time>
      </trkpt>
      <trkpt lat="45.18205" lon="6.37152">
        <ele>2816.1999511719</ele>
        <time>2014-01-11T10:27:53.000Z</time>
      </trkpt>
      <trkpt lat="45.18206" lon="6.37152">
        <ele>2816.1999511719</ele>
        <time>2014-01-11T10:27:54.000Z</time>
      </trkpt>
      <trkpt lat="45.18207" lon="6.37151">
        <ele>2816.3999023438</ele>
        <time>2014-01-11T10:27:55.000Z</time>
      </trkpt>
      <trkpt lat="45.18207" lon="6.37151">
        <ele>2816.3999023438</ele>
        <time>2014-01-11T10:27:56.000Z</time>
      </trkpt>
      <trkpt lat="45.18208" lon="6.37151">
        <ele>2816.6000976562</ele>
        <time>2014-01-11T10:27:57.000Z</time>
      </trkpt>
      <trkpt lat="45.18208" lon="6.37151">
        <ele>2816.6000976562</ele>
        <time>2014-01-11T10:27:58.000Z</time>
      </trkpt>
      <trkpt lat="45.18209" lon="6.37151">
        <ele>2816.6000976562</ele>
        <time>2014-01-11T10:27:59.000Z</time>
      </trkpt>
      <trkpt lat="45.18209" lon="6.37151">
        <ele>2816.6000976562</ele>
        <time>2014-01-11T10:28:00.000Z</time>
      </trkpt>
      <trkpt lat="45.18211" lon="6.37151">
        <ele>2816.8000488281</ele>
        <time>2014-01-11T10:28:01.000Z</time>
      </trkpt>
      <trkpt lat="45.18211" lon="6.3715">
        <ele>2817</ele>
        <time>2014-01-11T10:28:02.000Z</time>
      </trkpt>
      <trkpt lat="45.18211" lon="6.3715">
        <ele>2817.1999511719</ele>
        <time>2014-01-11T10:28:03.000Z</time>
      </trkpt>
      <trkpt lat="45.18211" lon="6.3715">
        <ele>2817.3999023438</ele>
        <time>2014-01-11T10:28:04.000Z</time>
      </trkpt>
      <trkpt lat="45.18211" lon="6.3715">
        <ele>2817.6000976562</ele>
        <time>2014-01-11T10:28:05.000Z</time>
      </trkpt>
      <trkpt lat="45.18212" lon="6.3715">
        <ele>2817.6000976562</ele>
        <time>2014-01-11T10:28:06.000Z</time>
      </trkpt>
      <trkpt lat="45.18213" lon="6.37149">
        <ele>2817.8000488281</ele>
        <time>2014-01-11T10:28:07.000Z</time>
      </trkpt>
      <trkpt lat="45.18213" lon="6.37149">
        <ele>2817.8000488281</ele>
        <time>2014-01-11T10:28:08.000Z</time>
      </trkpt>
      <trkpt lat="45.18214" lon="6.37148">
        <ele>2817.8000488281</ele>
        <time>2014-01-11T10:28:09.000Z</time>
      </trkpt>
      <trkpt lat="45.18214" lon="6.37148">
        <ele>2818</ele>
        <time>2014-01-11T10:28:10.000Z</time>
      </trkpt>
      <trkpt lat="45.18215" lon="6.37148">
        <ele>2818</ele>
        <time>2014-01-11T10:28:11.000Z</time>
      </trkpt>
      <trkpt lat="45.18215" lon="6.37148">
        <ele>2818.3999023438</ele>
        <time>2014-01-11T10:28:12.000Z</time>
      </trkpt>
      <trkpt lat="45.18215" lon="6.37147">
        <ele>2818.3999023438</ele>
        <time>2014-01-11T10:28:13.000Z</time>
      </trkpt>
      <trkpt lat="45.18215" lon="6.37146">
        <ele>2818.6000976562</ele>
        <time>2014-01-11T10:28:14.000Z</time>
      </trkpt>
      <trkpt lat="45.18216" lon="6.37145">
        <ele>2818.6000976562</ele>
        <time>2014-01-11T10:28:15.000Z</time>
      </trkpt>
      <trkpt lat="45.18217" lon="6.37144">
        <ele>2818.3999023438</ele>
        <time>2014-01-11T10:28:16.000Z</time>
      </trkpt>
      <trkpt lat="45.18218" lon="6.37144">
        <ele>2818.3999023438</ele>
        <time>2014-01-11T10:28:17.000Z</time>
      </trkpt>
      <trkpt lat="45.18218" lon="6.37143">
        <ele>2818.3999023438</ele>
        <time>2014-01-11T10:28:18.000Z</time>
      </trkpt>
      <trkpt lat="45.18219" lon="6.37143">
        <ele>2818.1999511719</ele>
        <time>2014-01-11T10:28:19.000Z</time>
      </trkpt>
      <trkpt lat="45.1822" lon="6.37143">
        <ele>2818.1999511719</ele>
        <time>2014-01-11T10:28:20.000Z</time>
      </trkpt>
      <trkpt lat="45.18221" lon="6.37143">
        <ele>2818.1999511719</ele>
        <time>2014-01-11T10:28:21.000Z</time>
      </trkpt>
      <trkpt lat="45.18221" lon="6.37143">
        <ele>2818.3999023438</ele>
        <time>2014-01-11T10:28:22.000Z</time>
      </trkpt>
      <trkpt lat="45.18222" lon="6.37142">
        <ele>2818.8000488281</ele>
        <time>2014-01-11T10:28:23.000Z</time>
      </trkpt>
      <trkpt lat="45.18223" lon="6.37142">
        <ele>2819.1999511719</ele>
        <time>2014-01-11T10:28:24.000Z</time>
      </trkpt>
      <trkpt lat="45.18224" lon="6.37141">
        <ele>2819.3999023438</ele>
        <time>2014-01-11T10:28:25.000Z</time>
      </trkpt>
      <trkpt lat="45.18225" lon="6.3714">
        <ele>2819.6000976562</ele>
        <time>2014-01-11T10:28:26.000Z</time>
      </trkpt>
      <trkpt lat="45.18226" lon="6.37139">
        <ele>2819.6000976562</ele>
        <time>2014-01-11T10:28:27.000Z</time>
      </trkpt>
      <trkpt lat="45.18227" lon="6.37139">
        <ele>2819.8000488281</ele>
        <time>2014-01-11T10:28:28.000Z</time>
      </trkpt>
      <trkpt lat="45.18227" lon="6.37138">
        <ele>2819.8000488281</ele>
        <time>2014-01-11T10:28:29.000Z</time>
      </trkpt>
      <trkpt lat="45.18228" lon="6.37137">
        <ele>2819.8000488281</ele>
        <time>2014-01-11T10:28:30.000Z</time>
      </trkpt>
      <trkpt lat="45.18229" lon="6.37137">
        <ele>2819.8000488281</ele>
        <time>2014-01-11T10:28:31.000Z</time>
      </trkpt>
      <trkpt lat="45.18229" lon="6.37136">
        <ele>2820</ele>
        <time>2014-01-11T10:28:32.000Z</time>
      </trkpt>
      <trkpt lat="45.18231" lon="6.37135">
        <ele>2820</ele>
        <time>2014-01-11T10:28:33.000Z</time>
      </trkpt>
      <trkpt lat="45.18232" lon="6.37135">
        <ele>2820.1999511719</ele>
        <time>2014-01-11T10:28:34.000Z</time>
      </trkpt>
      <trkpt lat="45.18232" lon="6.37134">
        <ele>2820.1999511719</ele>
        <time>2014-01-11T10:28:35.000Z</time>
      </trkpt>
      <trkpt lat="45.18233" lon="6.37134">
        <ele>2820.1999511719</ele>
        <time>2014-01-11T10:28:36.000Z</time>
      </trkpt>
      <trkpt lat="45.18234" lon="6.37133">
        <ele>2820.1999511719</ele>
        <time>2014-01-11T10:28:37.000Z</time>
      </trkpt>
      <trkpt lat="45.18235" lon="6.37132">
        <ele>2820.1999511719</ele>
        <time>2014-01-11T10:28:38.000Z</time>
      </trkpt>
      <trkpt lat="45.18235" lon="6.37132">
        <ele>2820.1999511719</ele>
        <time>2014-01-11T10:28:39.000Z</time>
      </trkpt>
      <trkpt lat="45.18236" lon="6.37132">
        <ele>2820.3999023438</ele>
        <time>2014-01-11T10:28:40.000Z</time>
      </trkpt>
      <trkpt lat="45.18236" lon="6.37132">
        <ele>2820.3999023438</ele>
        <time>2014-01-11T10:28:41.000Z</time>
      </trkpt>
      <trkpt lat="45.18236" lon="6.37132">
        <ele>2820.3999023438</ele>
        <time>2014-01-11T10:28:42.000Z</time>
      </trkpt>
      <trkpt lat="45.18236" lon="6.37132">
        <ele>2820.6000976562</ele>
        <time>2014-01-11T10:28:43.000Z</time>
      </trkpt>
      <trkpt lat="45.18236" lon="6.37132">
        <ele>2820.6000976562</ele>
        <time>2014-01-11T10:28:44.000Z</time>
      </trkpt>
      <trkpt lat="45.18236" lon="6.37132">
        <ele>2820.6000976562</ele>
        <time>2014-01-11T10:28:45.000Z</time>
      </trkpt>
      <trkpt lat="45.18236" lon="6.37132">
        <ele>2820.6000976562</ele>
        <time>2014-01-11T10:28:46.000Z</time>
      </trkpt>
      <trkpt lat="45.18236" lon="6.37132">
        <ele>2820.6000976562</ele>
        <time>2014-01-11T10:28:47.000Z</time>
      </trkpt>
      <trkpt lat="45.18236" lon="6.37132">
        <ele>2820.6000976562</ele>
        <time>2014-01-11T10:28:48.000Z</time>
      </trkpt>
      <trkpt lat="45.18236" lon="6.37132">
        <ele>2820.8000488281</ele>
        <time>2014-01-11T10:28:49.000Z</time>
      </trkpt>
      <trkpt lat="45.18236" lon="6.37132">
        <ele>2821</ele>
        <time>2014-01-11T10:28:50.000Z</time>
      </trkpt>
      <trkpt lat="45.18236" lon="6.37132">
        <ele>2821</ele>
        <time>2014-01-11T10:28:51.000Z</time>
      </trkpt>
      <trkpt lat="45.18236" lon="6.37132">
        <ele>2821.1999511719</ele>
        <time>2014-01-11T10:28:52.000Z</time>
      </trkpt>
      <trkpt lat="45.18236" lon="6.37132">
        <ele>2821.1999511719</ele>
        <time>2014-01-11T10:28:53.000Z</time>
      </trkpt>
      <trkpt lat="45.18236" lon="6.37132">
        <ele>2821.1999511719</ele>
        <time>2014-01-11T10:28:54.000Z</time>
      </trkpt>
      <trkpt lat="45.18236" lon="6.37132">
        <ele>2821.1999511719</ele>
        <time>2014-01-11T10:28:57.000Z</time>
      </trkpt>
      <trkpt lat="45.18236" lon="6.37132">
        <ele>2821.1999511719</ele>
        <time>2014-01-11T10:29:00.000Z</time>
      </trkpt>
      <trkpt lat="45.18236" lon="6.37132">
        <ele>2821.1999511719</ele>
        <time>2014-01-11T10:29:01.000Z</time>
      </trkpt>
      <trkpt lat="45.18236" lon="6.37132">
        <ele>2821</ele>
        <time>2014-01-11T10:29:02.000Z</time>
      </trkpt>
      <trkpt lat="45.18236" lon="6.37132">
        <ele>2821</ele>
        <time>2014-01-11T10:29:03.000Z</time>
      </trkpt>
      <trkpt lat="45.18236" lon="6.37132">
        <ele>2821</ele>
        <time>2014-01-11T10:29:04.000Z</time>
      </trkpt>
      <trkpt lat="45.18236" lon="6.37132">
        <ele>2820.8000488281</ele>
        <time>2014-01-11T10:29:05.000Z</time>
      </trkpt>
      <trkpt lat="45.18236" lon="6.37132">
        <ele>2820.8000488281</ele>
        <time>2014-01-11T10:29:06.000Z</time>
      </trkpt>
      <trkpt lat="45.18236" lon="6.37132">
        <ele>2820.8000488281</ele>
        <time>2014-01-11T10:29:07.000Z</time>
      </trkpt>
      <trkpt lat="45.18236" lon="6.37132">
        <ele>2820.8000488281</ele>
        <time>2014-01-11T10:29:08.000Z</time>
      </trkpt>
      <trkpt lat="45.18236" lon="6.37132">
        <ele>2820.8000488281</ele>
        <time>2014-01-11T10:29:10.000Z</time>
      </trkpt>
      <trkpt lat="45.18236" lon="6.37132">
        <ele>2820.8000488281</ele>
        <time>2014-01-11T10:29:11.000Z</time>
      </trkpt>
      <trkpt lat="45.18236" lon="6.37132">
        <ele>2820.8000488281</ele>
        <time>2014-01-11T10:29:12.000Z</time>
      </trkpt>
      <trkpt lat="45.18236" lon="6.37132">
        <ele>2820.8000488281</ele>
        <time>2014-01-11T10:29:13.000Z</time>
      </trkpt>
      <trkpt lat="45.18236" lon="6.37132">
        <ele>2820.8000488281</ele>
        <time>2014-01-11T10:29:14.000Z</time>
      </trkpt>
      <trkpt lat="45.18236" lon="6.37132">
        <ele>2820.8000488281</ele>
        <time>2014-01-11T10:29:15.000Z</time>
      </trkpt>
      <trkpt lat="45.18236" lon="6.37132">
        <ele>2820.8000488281</ele>
        <time>2014-01-11T10:29:16.000Z</time>
      </trkpt>
      <trkpt lat="45.18236" lon="6.37132">
        <ele>2820.8000488281</ele>
        <time>2014-01-11T10:29:17.000Z</time>
      </trkpt>
      <trkpt lat="45.18236" lon="6.37132">
        <ele>2820.8000488281</ele>
        <time>2014-01-11T10:29:18.000Z</time>
      </trkpt>
      <trkpt lat="45.18236" lon="6.37132">
        <ele>2820.8000488281</ele>
        <time>2014-01-11T10:29:19.000Z</time>
      </trkpt>
      <trkpt lat="45.18236" lon="6.37132">
        <ele>2820.8000488281</ele>
        <time>2014-01-11T10:29:20.000Z</time>
      </trkpt>
      <trkpt lat="45.18236" lon="6.37132">
        <ele>2820.8000488281</ele>
        <time>2014-01-11T10:29:21.000Z</time>
      </trkpt>
      <trkpt lat="45.18236" lon="6.37132">
        <ele>2820.8000488281</ele>
        <time>2014-01-11T10:29:22.000Z</time>
      </trkpt>
      <trkpt lat="45.18236" lon="6.37132">
        <ele>2820.8000488281</ele>
        <time>2014-01-11T10:29:23.000Z</time>
      </trkpt>
      <trkpt lat="45.18236" lon="6.37132">
        <ele>2820.6000976562</ele>
        <time>2014-01-11T10:29:24.000Z</time>
      </trkpt>
      <trkpt lat="45.18236" lon="6.37132">
        <ele>2820.6000976562</ele>
        <time>2014-01-11T10:29:25.000Z</time>
      </trkpt>
      <trkpt lat="45.18236" lon="6.37132">
        <ele>2820.3999023438</ele>
        <time>2014-01-11T10:29:26.000Z</time>
      </trkpt>
      <trkpt lat="45.18236" lon="6.37132">
        <ele>2820.3999023438</ele>
        <time>2014-01-11T10:29:27.000Z</time>
      </trkpt>
      <trkpt lat="45.18236" lon="6.37132">
        <ele>2820.3999023438</ele>
        <time>2014-01-11T10:29:28.000Z</time>
      </trkpt>
      <trkpt lat="45.18236" lon="6.37132">
        <ele>2820.3999023438</ele>
        <time>2014-01-11T10:29:29.000Z</time>
      </trkpt>
      <trkpt lat="45.18236" lon="6.37132">
        <ele>2820.3999023438</ele>
        <time>2014-01-11T10:29:30.000Z</time>
      </trkpt>
      <trkpt lat="45.18236" lon="6.37132">
        <ele>2820.6000976562</ele>
        <time>2014-01-11T10:29:31.000Z</time>
      </trkpt>
      <trkpt lat="45.18236" lon="6.37132">
        <ele>2820.6000976562</ele>
        <time>2014-01-11T10:29:32.000Z</time>
      </trkpt>
      <trkpt lat="45.18236" lon="6.37132">
        <ele>2820.6000976562</ele>
        <time>2014-01-11T10:29:33.000Z</time>
      </trkpt>
      <trkpt lat="45.18236" lon="6.37132">
        <ele>2820.6000976562</ele>
        <time>2014-01-11T10:29:34.000Z</time>
      </trkpt>
      <trkpt lat="45.18236" lon="6.37132">
        <ele>2820.6000976562</ele>
        <time>2014-01-11T10:29:35.000Z</time>
      </trkpt>
      <trkpt lat="45.18236" lon="6.37132">
        <ele>2820.6000976562</ele>
        <time>2014-01-11T10:29:36.000Z</time>
      </trkpt>
      <trkpt lat="45.18236" lon="6.37132">
        <ele>2820.6000976562</ele>
        <time>2014-01-11T10:29:37.000Z</time>
      </trkpt>
      <trkpt lat="45.18236" lon="6.37132">
        <ele>2820.6000976562</ele>
        <time>2014-01-11T10:29:39.000Z</time>
      </trkpt>
      <trkpt lat="45.18236" lon="6.37132">
        <ele>2820.6000976562</ele>
        <time>2014-01-11T10:29:40.000Z</time>
      </trkpt>
      <trkpt lat="45.18236" lon="6.37132">
        <ele>2820.8000488281</ele>
        <time>2014-01-11T10:29:41.000Z</time>
      </trkpt>
      <trkpt lat="45.18236" lon="6.37132">
        <ele>2821</ele>
        <time>2014-01-11T10:29:42.000Z</time>
      </trkpt>
      <trkpt lat="45.18236" lon="6.37132">
        <ele>2821</ele>
        <time>2014-01-11T10:29:43.000Z</time>
      </trkpt>
      <trkpt lat="45.18236" lon="6.37132">
        <ele>2821</ele>
        <time>2014-01-11T10:29:44.000Z</time>
      </trkpt>
      <trkpt lat="45.18236" lon="6.37132">
        <ele>2821</ele>
        <time>2014-01-11T10:29:45.000Z</time>
      </trkpt>
      <trkpt lat="45.18236" lon="6.37132">
        <ele>2821</ele>
        <time>2014-01-11T10:29:46.000Z</time>
      </trkpt>
      <trkpt lat="45.18236" lon="6.37132">
        <ele>2821</ele>
        <time>2014-01-11T10:29:47.000Z</time>
      </trkpt>
      <trkpt lat="45.18236" lon="6.37132">
        <ele>2820.8000488281</ele>
        <time>2014-01-11T10:29:48.000Z</time>
      </trkpt>
      <trkpt lat="45.18236" lon="6.37132">
        <ele>2820.8000488281</ele>
        <time>2014-01-11T10:29:49.000Z</time>
      </trkpt>
      <trkpt lat="45.18236" lon="6.37132">
        <ele>2820.8000488281</ele>
        <time>2014-01-11T10:29:50.000Z</time>
      </trkpt>
      <trkpt lat="45.18236" lon="6.37132">
        <ele>2821</ele>
        <time>2014-01-11T10:29:51.000Z</time>
      </trkpt>
      <trkpt lat="45.18236" lon="6.37132">
        <ele>2821</ele>
        <time>2014-01-11T10:29:52.000Z</time>
      </trkpt>
      <trkpt lat="45.18236" lon="6.37132">
        <ele>2821.1999511719</ele>
        <time>2014-01-11T10:29:53.000Z</time>
      </trkpt>
      <trkpt lat="45.18236" lon="6.37132">
        <ele>2821.1999511719</ele>
        <time>2014-01-11T10:29:54.000Z</time>
      </trkpt>
      <trkpt lat="45.18236" lon="6.37132">
        <ele>2821.1999511719</ele>
        <time>2014-01-11T10:29:55.000Z</time>
      </trkpt>
      <trkpt lat="45.18236" lon="6.37132">
        <ele>2821.1999511719</ele>
        <time>2014-01-11T10:29:56.000Z</time>
      </trkpt>
      <trkpt lat="45.18236" lon="6.37132">
        <ele>2821.1999511719</ele>
        <time>2014-01-11T10:29:57.000Z</time>
      </trkpt>
      <trkpt lat="45.18236" lon="6.37132">
        <ele>2821.1999511719</ele>
        <time>2014-01-11T10:29:58.000Z</time>
      </trkpt>
      <trkpt lat="45.18236" lon="6.37132">
        <ele>2821.1999511719</ele>
        <time>2014-01-11T10:29:59.000Z</time>
      </trkpt>
      <trkpt lat="45.18236" lon="6.37132">
        <ele>2821</ele>
        <time>2014-01-11T10:30:00.000Z</time>
      </trkpt>
      <trkpt lat="45.18236" lon="6.37132">
        <ele>2821</ele>
        <time>2014-01-11T10:30:01.000Z</time>
      </trkpt>
      <trkpt lat="45.18236" lon="6.37132">
        <ele>2820.8000488281</ele>
        <time>2014-01-11T10:30:02.000Z</time>
      </trkpt>
      <trkpt lat="45.18236" lon="6.37132">
        <ele>2820.8000488281</ele>
        <time>2014-01-11T10:30:03.000Z</time>
      </trkpt>
      <trkpt lat="45.18236" lon="6.37132">
        <ele>2820.8000488281</ele>
        <time>2014-01-11T10:30:04.000Z</time>
      </trkpt>
      <trkpt lat="45.18236" lon="6.37132">
        <ele>2820.8000488281</ele>
        <time>2014-01-11T10:30:05.000Z</time>
      </trkpt>
      <trkpt lat="45.18236" lon="6.37132">
        <ele>2821</ele>
        <time>2014-01-11T10:30:06.000Z</time>
      </trkpt>
      <trkpt lat="45.18236" lon="6.37132">
        <ele>2821</ele>
        <time>2014-01-11T10:30:07.000Z</time>
      </trkpt>
      <trkpt lat="45.18236" lon="6.37132">
        <ele>2821</ele>
        <time>2014-01-11T10:30:09.000Z</time>
      </trkpt>
      <trkpt lat="45.18236" lon="6.37132">
        <ele>2821</ele>
        <time>2014-01-11T10:30:10.000Z</time>
      </trkpt>
      <trkpt lat="45.18236" lon="6.37132">
        <ele>2821</ele>
        <time>2014-01-11T10:30:12.000Z</time>
      </trkpt>
      <trkpt lat="45.18236" lon="6.37132">
        <ele>2820.8000488281</ele>
        <time>2014-01-11T10:30:16.000Z</time>
      </trkpt>
      <trkpt lat="45.18236" lon="6.37132">
        <ele>2820.8000488281</ele>
        <time>2014-01-11T10:30:17.000Z</time>
      </trkpt>
      <trkpt lat="45.18236" lon="6.37132">
        <ele>2820.8000488281</ele>
        <time>2014-01-11T10:30:18.000Z</time>
      </trkpt>
      <trkpt lat="45.18236" lon="6.37132">
        <ele>2820.8000488281</ele>
        <time>2014-01-11T10:30:19.000Z</time>
      </trkpt>
      <trkpt lat="45.18236" lon="6.37132">
        <ele>2820.8000488281</ele>
        <time>2014-01-11T10:30:20.000Z</time>
      </trkpt>
      <trkpt lat="45.18236" lon="6.37132">
        <ele>2821</ele>
        <time>2014-01-11T10:30:21.000Z</time>
      </trkpt>
      <trkpt lat="45.18236" lon="6.37132">
        <ele>2821</ele>
        <time>2014-01-11T10:30:22.000Z</time>
      </trkpt>
      <trkpt lat="45.18236" lon="6.37132">
        <ele>2821</ele>
        <time>2014-01-11T10:30:23.000Z</time>
      </trkpt>
      <trkpt lat="45.18236" lon="6.37131">
        <ele>2821.1999511719</ele>
        <time>2014-01-11T10:30:24.000Z</time>
      </trkpt>
      <trkpt lat="45.18236" lon="6.37131">
        <ele>2821</ele>
        <time>2014-01-11T10:30:26.000Z</time>
      </trkpt>
      <trkpt lat="45.18236" lon="6.37131">
        <ele>2820.8000488281</ele>
        <time>2014-01-11T10:30:27.000Z</time>
      </trkpt>
      <trkpt lat="45.18236" lon="6.37131">
        <ele>2820.6000976562</ele>
        <time>2014-01-11T10:30:28.000Z</time>
      </trkpt>
      <trkpt lat="45.18236" lon="6.37131">
        <ele>2820.6000976562</ele>
        <time>2014-01-11T10:30:29.000Z</time>
      </trkpt>
      <trkpt lat="45.18236" lon="6.37131">
        <ele>2820.3999023438</ele>
        <time>2014-01-11T10:30:30.000Z</time>
      </trkpt>
      <trkpt lat="45.18236" lon="6.37131">
        <ele>2820.3999023438</ele>
        <time>2014-01-11T10:30:31.000Z</time>
      </trkpt>
      <trkpt lat="45.18236" lon="6.37131">
        <ele>2820.6000976562</ele>
        <time>2014-01-11T10:30:32.000Z</time>
      </trkpt>
      <trkpt lat="45.18236" lon="6.37131">
        <ele>2820.6000976562</ele>
        <time>2014-01-11T10:30:33.000Z</time>
      </trkpt>
      <trkpt lat="45.18236" lon="6.37131">
        <ele>2820.8000488281</ele>
        <time>2014-01-11T10:30:34.000Z</time>
      </trkpt>
      <trkpt lat="45.18236" lon="6.37131">
        <ele>2820.8000488281</ele>
        <time>2014-01-11T10:30:35.000Z</time>
      </trkpt>
      <trkpt lat="45.18236" lon="6.37131">
        <ele>2820.8000488281</ele>
        <time>2014-01-11T10:30:36.000Z</time>
      </trkpt>
      <trkpt lat="45.18236" lon="6.37131">
        <ele>2820.6000976562</ele>
        <time>2014-01-11T10:30:37.000Z</time>
      </trkpt>
      <trkpt lat="45.18236" lon="6.37131">
        <ele>2820.3999023438</ele>
        <time>2014-01-11T10:30:38.000Z</time>
      </trkpt>
      <trkpt lat="45.18236" lon="6.37131">
        <ele>2820.3999023438</ele>
        <time>2014-01-11T10:30:39.000Z</time>
      </trkpt>
      <trkpt lat="45.18236" lon="6.37131">
        <ele>2820.3999023438</ele>
        <time>2014-01-11T10:30:40.000Z</time>
      </trkpt>
      <trkpt lat="45.18236" lon="6.37131">
        <ele>2820.3999023438</ele>
        <time>2014-01-11T10:30:41.000Z</time>
      </trkpt>
      <trkpt lat="45.18236" lon="6.37131">
        <ele>2820.3999023438</ele>
        <time>2014-01-11T10:30:42.000Z</time>
      </trkpt>
      <trkpt lat="45.18236" lon="6.37131">
        <ele>2820.6000976562</ele>
        <time>2014-01-11T10:30:43.000Z</time>
      </trkpt>
      <trkpt lat="45.18236" lon="6.37131">
        <ele>2820.6000976562</ele>
        <time>2014-01-11T10:30:44.000Z</time>
      </trkpt>
      <trkpt lat="45.18236" lon="6.37131">
        <ele>2820.6000976562</ele>
        <time>2014-01-11T10:30:45.000Z</time>
      </trkpt>
      <trkpt lat="45.18236" lon="6.37131">
        <ele>2820.6000976562</ele>
        <time>2014-01-11T10:30:46.000Z</time>
      </trkpt>
      <trkpt lat="45.18236" lon="6.37131">
        <ele>2820.6000976562</ele>
        <time>2014-01-11T10:30:47.000Z</time>
      </trkpt>
      <trkpt lat="45.18236" lon="6.37131">
        <ele>2820.3999023438</ele>
        <time>2014-01-11T10:30:48.000Z</time>
      </trkpt>
      <trkpt lat="45.18236" lon="6.37131">
        <ele>2820.3999023438</ele>
        <time>2014-01-11T10:30:49.000Z</time>
      </trkpt>
      <trkpt lat="45.18236" lon="6.37131">
        <ele>2820.3999023438</ele>
        <time>2014-01-11T10:30:50.000Z</time>
      </trkpt>
      <trkpt lat="45.18236" lon="6.37131">
        <ele>2820.3999023438</ele>
        <time>2014-01-11T10:30:51.000Z</time>
      </trkpt>
      <trkpt lat="45.18236" lon="6.37131">
        <ele>2820.3999023438</ele>
        <time>2014-01-11T10:30:52.000Z</time>
      </trkpt>
      <trkpt lat="45.18236" lon="6.37131">
        <ele>2820.3999023438</ele>
        <time>2014-01-11T10:30:53.000Z</time>
      </trkpt>
      <trkpt lat="45.18236" lon="6.37131">
        <ele>2820.3999023438</ele>
        <time>2014-01-11T10:30:54.000Z</time>
      </trkpt>
      <trkpt lat="45.18236" lon="6.37131">
        <ele>2820.3999023438</ele>
        <time>2014-01-11T10:30:55.000Z</time>
      </trkpt>
      <trkpt lat="45.18236" lon="6.37131">
        <ele>2820.3999023438</ele>
        <time>2014-01-11T10:30:56.000Z</time>
      </trkpt>
      <trkpt lat="45.18236" lon="6.37131">
        <ele>2820.6000976562</ele>
        <time>2014-01-11T10:30:57.000Z</time>
      </trkpt>
      <trkpt lat="45.18236" lon="6.37131">
        <ele>2820.6000976562</ele>
        <time>2014-01-11T10:30:58.000Z</time>
      </trkpt>
      <trkpt lat="45.18236" lon="6.37131">
        <ele>2820.6000976562</ele>
        <time>2014-01-11T10:30:59.000Z</time>
      </trkpt>
      <trkpt lat="45.18236" lon="6.37131">
        <ele>2820.6000976562</ele>
        <time>2014-01-11T10:31:00.000Z</time>
      </trkpt>
      <trkpt lat="45.18236" lon="6.37131">
        <ele>2820.8000488281</ele>
        <time>2014-01-11T10:31:01.000Z</time>
      </trkpt>
      <trkpt lat="45.18236" lon="6.37131">
        <ele>2820.8000488281</ele>
        <time>2014-01-11T10:31:02.000Z</time>
      </trkpt>
      <trkpt lat="45.18236" lon="6.37131">
        <ele>2820.8000488281</ele>
        <time>2014-01-11T10:31:03.000Z</time>
      </trkpt>
      <trkpt lat="45.18236" lon="6.37131">
        <ele>2820.8000488281</ele>
        <time>2014-01-11T10:31:04.000Z</time>
      </trkpt>
      <trkpt lat="45.18236" lon="6.37131">
        <ele>2820.8000488281</ele>
        <time>2014-01-11T10:31:05.000Z</time>
      </trkpt>
      <trkpt lat="45.18236" lon="6.37131">
        <ele>2820.8000488281</ele>
        <time>2014-01-11T10:31:06.000Z</time>
      </trkpt>
      <trkpt lat="45.18236" lon="6.37131">
        <ele>2821</ele>
        <time>2014-01-11T10:31:07.000Z</time>
      </trkpt>
      <trkpt lat="45.18236" lon="6.37131">
        <ele>2821</ele>
        <time>2014-01-11T10:31:08.000Z</time>
      </trkpt>
      <trkpt lat="45.18236" lon="6.37131">
        <ele>2821</ele>
        <time>2014-01-11T10:31:09.000Z</time>
      </trkpt>
      <trkpt lat="45.18236" lon="6.37131">
        <ele>2821</ele>
        <time>2014-01-11T10:31:10.000Z</time>
      </trkpt>
      <trkpt lat="45.18236" lon="6.37131">
        <ele>2821</ele>
        <time>2014-01-11T10:31:12.000Z</time>
      </trkpt>
      <trkpt lat="45.18236" lon="6.37131">
        <ele>2821</ele>
        <time>2014-01-11T10:31:13.000Z</time>
      </trkpt>
      <trkpt lat="45.18236" lon="6.37131">
        <ele>2821</ele>
        <time>2014-01-11T10:31:16.000Z</time>
      </trkpt>
      <trkpt lat="45.18236" lon="6.37131">
        <ele>2821</ele>
        <time>2014-01-11T10:31:17.000Z</time>
      </trkpt>
      <trkpt lat="45.18236" lon="6.37131">
        <ele>2821</ele>
        <time>2014-01-11T10:31:18.000Z</time>
      </trkpt>
      <trkpt lat="45.18236" lon="6.37131">
        <ele>2821</ele>
        <time>2014-01-11T10:31:19.000Z</time>
      </trkpt>
      <trkpt lat="45.18236" lon="6.37131">
        <ele>2821</ele>
        <time>2014-01-11T10:31:20.000Z</time>
      </trkpt>
      <trkpt lat="45.18236" lon="6.37131">
        <ele>2820.8000488281</ele>
        <time>2014-01-11T10:31:21.000Z</time>
      </trkpt>
      <trkpt lat="45.18236" lon="6.37131">
        <ele>2820.8000488281</ele>
        <time>2014-01-11T10:31:22.000Z</time>
      </trkpt>
      <trkpt lat="45.18236" lon="6.37131">
        <ele>2820.8000488281</ele>
        <time>2014-01-11T10:31:23.000Z</time>
      </trkpt>
      <trkpt lat="45.18236" lon="6.37131">
        <ele>2821</ele>
        <time>2014-01-11T10:31:24.000Z</time>
      </trkpt>
      <trkpt lat="45.18236" lon="6.37131">
        <ele>2821</ele>
        <time>2014-01-11T10:31:25.000Z</time>
      </trkpt>
      <trkpt lat="45.18236" lon="6.37131">
        <ele>2821</ele>
        <time>2014-01-11T10:31:26.000Z</time>
      </trkpt>
      <trkpt lat="45.18236" lon="6.37131">
        <ele>2821</ele>
        <time>2014-01-11T10:31:27.000Z</time>
      </trkpt>
      <trkpt lat="45.18236" lon="6.37131">
        <ele>2821</ele>
        <time>2014-01-11T10:31:29.000Z</time>
      </trkpt>
      <trkpt lat="45.18236" lon="6.37131">
        <ele>2821</ele>
        <time>2014-01-11T10:31:30.000Z</time>
      </trkpt>
      <trkpt lat="45.18236" lon="6.37131">
        <ele>2821</ele>
        <time>2014-01-11T10:31:31.000Z</time>
      </trkpt>
      <trkpt lat="45.18236" lon="6.37131">
        <ele>2821</ele>
        <time>2014-01-11T10:31:32.000Z</time>
      </trkpt>
      <trkpt lat="45.18236" lon="6.37131">
        <ele>2821</ele>
        <time>2014-01-11T10:31:33.000Z</time>
      </trkpt>
      <trkpt lat="45.18236" lon="6.37131">
        <ele>2821</ele>
        <time>2014-01-11T10:31:34.000Z</time>
      </trkpt>
      <trkpt lat="45.18236" lon="6.37131">
        <ele>2821</ele>
        <time>2014-01-11T10:31:35.000Z</time>
      </trkpt>
      <trkpt lat="45.18236" lon="6.37131">
        <ele>2821</ele>
        <time>2014-01-11T10:31:36.000Z</time>
      </trkpt>
      <trkpt lat="45.18236" lon="6.37131">
        <ele>2821</ele>
        <time>2014-01-11T10:31:37.000Z</time>
      </trkpt>
      <trkpt lat="45.18236" lon="6.37131">
        <ele>2820.8000488281</ele>
        <time>2014-01-11T10:31:38.000Z</time>
      </trkpt>
      <trkpt lat="45.18236" lon="6.37131">
        <ele>2821</ele>
        <time>2014-01-11T10:31:39.000Z</time>
      </trkpt>
      <trkpt lat="45.18236" lon="6.37131">
        <ele>2821</ele>
        <time>2014-01-11T10:31:40.000Z</time>
      </trkpt>
      <trkpt lat="45.18236" lon="6.37131">
        <ele>2821</ele>
        <time>2014-01-11T10:31:41.000Z</time>
      </trkpt>
      <trkpt lat="45.18236" lon="6.37131">
        <ele>2821</ele>
        <time>2014-01-11T10:31:42.000Z</time>
      </trkpt>
      <trkpt lat="45.18236" lon="6.37131">
        <ele>2821</ele>
        <time>2014-01-11T10:31:43.000Z</time>
      </trkpt>
      <trkpt lat="45.18236" lon="6.37131">
        <ele>2821</ele>
        <time>2014-01-11T10:31:44.000Z</time>
      </trkpt>
      <trkpt lat="45.18236" lon="6.37131">
        <ele>2821</ele>
        <time>2014-01-11T10:31:46.000Z</time>
      </trkpt>
      <trkpt lat="45.18236" lon="6.37131">
        <ele>2821</ele>
        <time>2014-01-11T10:31:47.000Z</time>
      </trkpt>
      <trkpt lat="45.18236" lon="6.37131">
        <ele>2820.8000488281</ele>
        <time>2014-01-11T10:31:48.000Z</time>
      </trkpt>
      <trkpt lat="45.18236" lon="6.37131">
        <ele>2820.8000488281</ele>
        <time>2014-01-11T10:31:49.000Z</time>
      </trkpt>
      <trkpt lat="45.18236" lon="6.37131">
        <ele>2820.8000488281</ele>
        <time>2014-01-11T10:31:50.000Z</time>
      </trkpt>
      <trkpt lat="45.18236" lon="6.37131">
        <ele>2820.8000488281</ele>
        <time>2014-01-11T10:31:51.000Z</time>
      </trkpt>
      <trkpt lat="45.18236" lon="6.37131">
        <ele>2820.8000488281</ele>
        <time>2014-01-11T10:31:52.000Z</time>
      </trkpt>
      <trkpt lat="45.18236" lon="6.37131">
        <ele>2820.8000488281</ele>
        <time>2014-01-11T10:31:53.000Z</time>
      </trkpt>
      <trkpt lat="45.18236" lon="6.37131">
        <ele>2820.8000488281</ele>
        <time>2014-01-11T10:31:54.000Z</time>
      </trkpt>
      <trkpt lat="45.18236" lon="6.37131">
        <ele>2820.8000488281</ele>
        <time>2014-01-11T10:31:55.000Z</time>
      </trkpt>
      <trkpt lat="45.18236" lon="6.37131">
        <ele>2820.8000488281</ele>
        <time>2014-01-11T10:31:56.000Z</time>
      </trkpt>
      <trkpt lat="45.18236" lon="6.37131">
        <ele>2820.8000488281</ele>
        <time>2014-01-11T10:31:57.000Z</time>
      </trkpt>
      <trkpt lat="45.18236" lon="6.37131">
        <ele>2820.8000488281</ele>
        <time>2014-01-11T10:31:58.000Z</time>
      </trkpt>
      <trkpt lat="45.18236" lon="6.37131">
        <ele>2820.8000488281</ele>
        <time>2014-01-11T10:31:59.000Z</time>
      </trkpt>
      <trkpt lat="45.18236" lon="6.37131">
        <ele>2820.8000488281</ele>
        <time>2014-01-11T10:32:00.000Z</time>
      </trkpt>
      <trkpt lat="45.18236" lon="6.37131">
        <ele>2820.8000488281</ele>
        <time>2014-01-11T10:32:01.000Z</time>
      </trkpt>
      <trkpt lat="45.18236" lon="6.37131">
        <ele>2820.8000488281</ele>
        <time>2014-01-11T10:32:02.000Z</time>
      </trkpt>
      <trkpt lat="45.18236" lon="6.37131">
        <ele>2821</ele>
        <time>2014-01-11T10:32:03.000Z</time>
      </trkpt>
      <trkpt lat="45.18236" lon="6.37131">
        <ele>2821</ele>
        <time>2014-01-11T10:32:04.000Z</time>
      </trkpt>
      <trkpt lat="45.18236" lon="6.37131">
        <ele>2821</ele>
        <time>2014-01-11T10:32:05.000Z</time>
      </trkpt>
      <trkpt lat="45.18236" lon="6.37131">
        <ele>2821.1999511719</ele>
        <time>2014-01-11T10:32:06.000Z</time>
      </trkpt>
      <trkpt lat="45.18236" lon="6.37131">
        <ele>2821.1999511719</ele>
        <time>2014-01-11T10:32:07.000Z</time>
      </trkpt>
      <trkpt lat="45.18236" lon="6.37131">
        <ele>2821.1999511719</ele>
        <time>2014-01-11T10:32:08.000Z</time>
      </trkpt>
      <trkpt lat="45.18236" lon="6.37131">
        <ele>2821</ele>
        <time>2014-01-11T10:32:09.000Z</time>
      </trkpt>
      <trkpt lat="45.18236" lon="6.37131">
        <ele>2821</ele>
        <time>2014-01-11T10:32:10.000Z</time>
      </trkpt>
      <trkpt lat="45.18236" lon="6.37131">
        <ele>2821</ele>
        <time>2014-01-11T10:32:11.000Z</time>
      </trkpt>
      <trkpt lat="45.18236" lon="6.37131">
        <ele>2821.1999511719</ele>
        <time>2014-01-11T10:32:12.000Z</time>
      </trkpt>
      <trkpt lat="45.18236" lon="6.37131">
        <ele>2821.3999023438</ele>
        <time>2014-01-11T10:32:13.000Z</time>
      </trkpt>
      <trkpt lat="45.18236" lon="6.37131">
        <ele>2821.3999023438</ele>
        <time>2014-01-11T10:32:14.000Z</time>
      </trkpt>
      <trkpt lat="45.18236" lon="6.37131">
        <ele>2821.6000976562</ele>
        <time>2014-01-11T10:32:15.000Z</time>
      </trkpt>
      <trkpt lat="45.18236" lon="6.37131">
        <ele>2821.6000976562</ele>
        <time>2014-01-11T10:32:16.000Z</time>
      </trkpt>
      <trkpt lat="45.18236" lon="6.37131">
        <ele>2821.8000488281</ele>
        <time>2014-01-11T10:32:17.000Z</time>
      </trkpt>
      <trkpt lat="45.18236" lon="6.37131">
        <ele>2821.8000488281</ele>
        <time>2014-01-11T10:32:18.000Z</time>
      </trkpt>
      <trkpt lat="45.18236" lon="6.37131">
        <ele>2821.8000488281</ele>
        <time>2014-01-11T10:32:19.000Z</time>
      </trkpt>
      <trkpt lat="45.18236" lon="6.37131">
        <ele>2821.8000488281</ele>
        <time>2014-01-11T10:32:20.000Z</time>
      </trkpt>
      <trkpt lat="45.18236" lon="6.37131">
        <ele>2821.6000976562</ele>
        <time>2014-01-11T10:32:21.000Z</time>
      </trkpt>
      <trkpt lat="45.18236" lon="6.37131">
        <ele>2821.3999023438</ele>
        <time>2014-01-11T10:32:22.000Z</time>
      </trkpt>
      <trkpt lat="45.18236" lon="6.37131">
        <ele>2821.1999511719</ele>
        <time>2014-01-11T10:32:23.000Z</time>
      </trkpt>
      <trkpt lat="45.18236" lon="6.37131">
        <ele>2821.1999511719</ele>
        <time>2014-01-11T10:32:24.000Z</time>
      </trkpt>
      <trkpt lat="45.18236" lon="6.37131">
        <ele>2821</ele>
        <time>2014-01-11T10:32:25.000Z</time>
      </trkpt>
      <trkpt lat="45.18236" lon="6.37131">
        <ele>2821</ele>
        <time>2014-01-11T10:32:26.000Z</time>
      </trkpt>
      <trkpt lat="45.18236" lon="6.37131">
        <ele>2821</ele>
        <time>2014-01-11T10:32:27.000Z</time>
      </trkpt>
      <trkpt lat="45.18236" lon="6.37131">
        <ele>2820.8000488281</ele>
        <time>2014-01-11T10:32:28.000Z</time>
      </trkpt>
      <trkpt lat="45.18236" lon="6.37131">
        <ele>2820.8000488281</ele>
        <time>2014-01-11T10:32:29.000Z</time>
      </trkpt>
      <trkpt lat="45.18236" lon="6.37131">
        <ele>2820.8000488281</ele>
        <time>2014-01-11T10:32:30.000Z</time>
      </trkpt>
      <trkpt lat="45.18236" lon="6.37131">
        <ele>2820.8000488281</ele>
        <time>2014-01-11T10:32:31.000Z</time>
      </trkpt>
      <trkpt lat="45.18236" lon="6.37131">
        <ele>2821</ele>
        <time>2014-01-11T10:32:32.000Z</time>
      </trkpt>
      <trkpt lat="45.18236" lon="6.37131">
        <ele>2821</ele>
        <time>2014-01-11T10:32:33.000Z</time>
      </trkpt>
      <trkpt lat="45.18236" lon="6.3713">
        <ele>2821.1999511719</ele>
        <time>2014-01-11T10:32:34.000Z</time>
      </trkpt>
      <trkpt lat="45.18237" lon="6.37128">
        <ele>2821.1999511719</ele>
        <time>2014-01-11T10:32:35.000Z</time>
      </trkpt>
      <trkpt lat="45.18238" lon="6.37127">
        <ele>2821.1999511719</ele>
        <time>2014-01-11T10:32:36.000Z</time>
      </trkpt>
      <trkpt lat="45.18239" lon="6.37126">
        <ele>2821.1999511719</ele>
        <time>2014-01-11T10:32:37.000Z</time>
      </trkpt>
      <trkpt lat="45.18239" lon="6.37125">
        <ele>2821.1999511719</ele>
        <time>2014-01-11T10:32:38.000Z</time>
      </trkpt>
      <trkpt lat="45.1824" lon="6.37125">
        <ele>2821.1999511719</ele>
        <time>2014-01-11T10:32:39.000Z</time>
      </trkpt>
      <trkpt lat="45.1824" lon="6.37124">
        <ele>2821.3999023438</ele>
        <time>2014-01-11T10:32:40.000Z</time>
      </trkpt>
      <trkpt lat="45.18241" lon="6.37124">
        <ele>2821.8000488281</ele>
        <time>2014-01-11T10:32:41.000Z</time>
      </trkpt>
      <trkpt lat="45.18242" lon="6.37123">
        <ele>2822</ele>
        <time>2014-01-11T10:32:42.000Z</time>
      </trkpt>
      <trkpt lat="45.18242" lon="6.37122">
        <ele>2822.1999511719</ele>
        <time>2014-01-11T10:32:43.000Z</time>
      </trkpt>
      <trkpt lat="45.18242" lon="6.37122">
        <ele>2822.3999023438</ele>
        <time>2014-01-11T10:32:44.000Z</time>
      </trkpt>
      <trkpt lat="45.18242" lon="6.37122">
        <ele>2822.3999023438</ele>
        <time>2014-01-11T10:32:45.000Z</time>
      </trkpt>
      <trkpt lat="45.18243" lon="6.37121">
        <ele>2822.6000976562</ele>
        <time>2014-01-11T10:32:46.000Z</time>
      </trkpt>
      <trkpt lat="45.18243" lon="6.37121">
        <ele>2822.6000976562</ele>
        <time>2014-01-11T10:32:47.000Z</time>
      </trkpt>
      <trkpt lat="45.18243" lon="6.3712">
        <ele>2822.6000976562</ele>
        <time>2014-01-11T10:32:48.000Z</time>
      </trkpt>
      <trkpt lat="45.18243" lon="6.37119">
        <ele>2822.6000976562</ele>
        <time>2014-01-11T10:32:49.000Z</time>
      </trkpt>
      <trkpt lat="45.18244" lon="6.37119">
        <ele>2822.6000976562</ele>
        <time>2014-01-11T10:32:50.000Z</time>
      </trkpt>
      <trkpt lat="45.18244" lon="6.37118">
        <ele>2822.6000976562</ele>
        <time>2014-01-11T10:32:51.000Z</time>
      </trkpt>
      <trkpt lat="45.18244" lon="6.37117">
        <ele>2822.6000976562</ele>
        <time>2014-01-11T10:32:53.000Z</time>
      </trkpt>
      <trkpt lat="45.18244" lon="6.37117">
        <ele>2822.8000488281</ele>
        <time>2014-01-11T10:32:54.000Z</time>
      </trkpt>
      <trkpt lat="45.18246" lon="6.37116">
        <ele>2822.8000488281</ele>
        <time>2014-01-11T10:32:56.000Z</time>
      </trkpt>
      <trkpt lat="45.18246" lon="6.37116">
        <ele>2822.6000976562</ele>
        <time>2014-01-11T10:32:59.000Z</time>
      </trkpt>
      <trkpt lat="45.18246" lon="6.37115">
        <ele>2822.6000976562</ele>
        <time>2014-01-11T10:33:00.000Z</time>
      </trkpt>
      <trkpt lat="45.18246" lon="6.37114">
        <ele>2822.8000488281</ele>
        <time>2014-01-11T10:33:02.000Z</time>
      </trkpt>
      <trkpt lat="45.18246" lon="6.37114">
        <ele>2822.8000488281</ele>
        <time>2014-01-11T10:33:03.000Z</time>
      </trkpt>
      <trkpt lat="45.18246" lon="6.37113">
        <ele>2823.1999511719</ele>
        <time>2014-01-11T10:33:04.000Z</time>
      </trkpt>
      <trkpt lat="45.18246" lon="6.37112">
        <ele>2823.6000976562</ele>
        <time>2014-01-11T10:33:05.000Z</time>
      </trkpt>
      <trkpt lat="45.18247" lon="6.37111">
        <ele>2824</ele>
        <time>2014-01-11T10:33:06.000Z</time>
      </trkpt>
      <trkpt lat="45.18247" lon="6.3711">
        <ele>2824.1999511719</ele>
        <time>2014-01-11T10:33:07.000Z</time>
      </trkpt>
      <trkpt lat="45.18248" lon="6.37109">
        <ele>2824.1999511719</ele>
        <time>2014-01-11T10:33:08.000Z</time>
      </trkpt>
      <trkpt lat="45.18248" lon="6.37109">
        <ele>2824</ele>
        <time>2014-01-11T10:33:09.000Z</time>
      </trkpt>
      <trkpt lat="45.18248" lon="6.37109">
        <ele>2824</ele>
        <time>2014-01-11T10:33:10.000Z</time>
      </trkpt>
      <trkpt lat="45.18249" lon="6.37108">
        <ele>2823.8000488281</ele>
        <time>2014-01-11T10:33:11.000Z</time>
      </trkpt>
      <trkpt lat="45.18249" lon="6.37108">
        <ele>2823.6000976562</ele>
        <time>2014-01-11T10:33:12.000Z</time>
      </trkpt>
      <trkpt lat="45.1825" lon="6.37106">
        <ele>2823.3999023438</ele>
        <time>2014-01-11T10:33:13.000Z</time>
      </trkpt>
      <trkpt lat="45.1825" lon="6.37106">
        <ele>2823.3999023438</ele>
        <time>2014-01-11T10:33:14.000Z</time>
      </trkpt>
      <trkpt lat="45.1825" lon="6.37105">
        <ele>2823.1999511719</ele>
        <time>2014-01-11T10:33:15.000Z</time>
      </trkpt>
      <trkpt lat="45.18251" lon="6.37105">
        <ele>2823.1999511719</ele>
        <time>2014-01-11T10:33:16.000Z</time>
      </trkpt>
      <trkpt lat="45.18251" lon="6.37104">
        <ele>2823.3999023438</ele>
        <time>2014-01-11T10:33:17.000Z</time>
      </trkpt>
      <trkpt lat="45.18252" lon="6.37104">
        <ele>2823.6000976562</ele>
        <time>2014-01-11T10:33:18.000Z</time>
      </trkpt>
      <trkpt lat="45.18252" lon="6.37103">
        <ele>2823.6000976562</ele>
        <time>2014-01-11T10:33:19.000Z</time>
      </trkpt>
      <trkpt lat="45.18253" lon="6.37103">
        <ele>2823.8000488281</ele>
        <time>2014-01-11T10:33:20.000Z</time>
      </trkpt>
      <trkpt lat="45.18253" lon="6.37103">
        <ele>2824</ele>
        <time>2014-01-11T10:33:21.000Z</time>
      </trkpt>
      <trkpt lat="45.18254" lon="6.37102">
        <ele>2824.1999511719</ele>
        <time>2014-01-11T10:33:22.000Z</time>
      </trkpt>
      <trkpt lat="45.18254" lon="6.37102">
        <ele>2824.1999511719</ele>
        <time>2014-01-11T10:33:23.000Z</time>
      </trkpt>
      <trkpt lat="45.18254" lon="6.37102">
        <ele>2824.1999511719</ele>
        <time>2014-01-11T10:33:24.000Z</time>
      </trkpt>
      <trkpt lat="45.18255" lon="6.37101">
        <ele>2824.1999511719</ele>
        <time>2014-01-11T10:33:25.000Z</time>
      </trkpt>
      <trkpt lat="45.18255" lon="6.37101">
        <ele>2824.1999511719</ele>
        <time>2014-01-11T10:33:26.000Z</time>
      </trkpt>
      <trkpt lat="45.18256" lon="6.371">
        <ele>2824.1999511719</ele>
        <time>2014-01-11T10:33:27.000Z</time>
      </trkpt>
      <trkpt lat="45.18257" lon="6.371">
        <ele>2824</ele>
        <time>2014-01-11T10:33:29.000Z</time>
      </trkpt>
      <trkpt lat="45.18257" lon="6.371">
        <ele>2823.8000488281</ele>
        <time>2014-01-11T10:33:30.000Z</time>
      </trkpt>
      <trkpt lat="45.18257" lon="6.371">
        <ele>2823.8000488281</ele>
        <time>2014-01-11T10:33:31.000Z</time>
      </trkpt>
      <trkpt lat="45.18257" lon="6.371">
        <ele>2823.8000488281</ele>
        <time>2014-01-11T10:33:32.000Z</time>
      </trkpt>
      <trkpt lat="45.18257" lon="6.371">
        <ele>2823.8000488281</ele>
        <time>2014-01-11T10:33:33.000Z</time>
      </trkpt>
      <trkpt lat="45.18257" lon="6.371">
        <ele>2823.8000488281</ele>
        <time>2014-01-11T10:33:34.000Z</time>
      </trkpt>
      <trkpt lat="45.18257" lon="6.371">
        <ele>2823.8000488281</ele>
        <time>2014-01-11T10:33:35.000Z</time>
      </trkpt>
      <trkpt lat="45.18257" lon="6.371">
        <ele>2823.8000488281</ele>
        <time>2014-01-11T10:33:36.000Z</time>
      </trkpt>
      <trkpt lat="45.18257" lon="6.371">
        <ele>2823.8000488281</ele>
        <time>2014-01-11T10:33:37.000Z</time>
      </trkpt>
      <trkpt lat="45.18257" lon="6.371">
        <ele>2823.8000488281</ele>
        <time>2014-01-11T10:33:38.000Z</time>
      </trkpt>
      <trkpt lat="45.18257" lon="6.371">
        <ele>2823.8000488281</ele>
        <time>2014-01-11T10:33:39.000Z</time>
      </trkpt>
      <trkpt lat="45.18257" lon="6.371">
        <ele>2823.8000488281</ele>
        <time>2014-01-11T10:33:40.000Z</time>
      </trkpt>
      <trkpt lat="45.18257" lon="6.371">
        <ele>2823.8000488281</ele>
        <time>2014-01-11T10:33:41.000Z</time>
      </trkpt>
      <trkpt lat="45.18257" lon="6.371">
        <ele>2824</ele>
        <time>2014-01-11T10:33:42.000Z</time>
      </trkpt>
      <trkpt lat="45.18257" lon="6.371">
        <ele>2824.1999511719</ele>
        <time>2014-01-11T10:33:43.000Z</time>
      </trkpt>
      <trkpt lat="45.18257" lon="6.371">
        <ele>2824.1999511719</ele>
        <time>2014-01-11T10:33:44.000Z</time>
      </trkpt>
      <trkpt lat="45.18257" lon="6.371">
        <ele>2824.1999511719</ele>
        <time>2014-01-11T10:33:45.000Z</time>
      </trkpt>
      <trkpt lat="45.18257" lon="6.371">
        <ele>2824.1999511719</ele>
        <time>2014-01-11T10:33:46.000Z</time>
      </trkpt>
      <trkpt lat="45.18257" lon="6.371">
        <ele>2824.3999023438</ele>
        <time>2014-01-11T10:33:47.000Z</time>
      </trkpt>
      <trkpt lat="45.18257" lon="6.371">
        <ele>2824.3999023438</ele>
        <time>2014-01-11T10:33:48.000Z</time>
      </trkpt>
      <trkpt lat="45.18257" lon="6.371">
        <ele>2824.1999511719</ele>
        <time>2014-01-11T10:33:49.000Z</time>
      </trkpt>
      <trkpt lat="45.18257" lon="6.371">
        <ele>2824.1999511719</ele>
        <time>2014-01-11T10:33:50.000Z</time>
      </trkpt>
      <trkpt lat="45.18257" lon="6.371">
        <ele>2824.1999511719</ele>
        <time>2014-01-11T10:33:51.000Z</time>
      </trkpt>
      <trkpt lat="45.18257" lon="6.371">
        <ele>2824</ele>
        <time>2014-01-11T10:33:52.000Z</time>
      </trkpt>
      <trkpt lat="45.18257" lon="6.371">
        <ele>2824</ele>
        <time>2014-01-11T10:33:53.000Z</time>
      </trkpt>
      <trkpt lat="45.18257" lon="6.371">
        <ele>2824</ele>
        <time>2014-01-11T10:33:54.000Z</time>
      </trkpt>
      <trkpt lat="45.18257" lon="6.371">
        <ele>2824</ele>
        <time>2014-01-11T10:33:55.000Z</time>
      </trkpt>
      <trkpt lat="45.18257" lon="6.371">
        <ele>2823.8000488281</ele>
        <time>2014-01-11T10:33:56.000Z</time>
      </trkpt>
      <trkpt lat="45.18257" lon="6.371">
        <ele>2823.8000488281</ele>
        <time>2014-01-11T10:33:57.000Z</time>
      </trkpt>
      <trkpt lat="45.18257" lon="6.371">
        <ele>2823.6000976562</ele>
        <time>2014-01-11T10:33:58.000Z</time>
      </trkpt>
      <trkpt lat="45.18257" lon="6.371">
        <ele>2823.6000976562</ele>
        <time>2014-01-11T10:33:59.000Z</time>
      </trkpt>
      <trkpt lat="45.18257" lon="6.371">
        <ele>2823.6000976562</ele>
        <time>2014-01-11T10:34:00.000Z</time>
      </trkpt>
      <trkpt lat="45.18257" lon="6.371">
        <ele>2823.6000976562</ele>
        <time>2014-01-11T10:34:01.000Z</time>
      </trkpt>
      <trkpt lat="45.18257" lon="6.371">
        <ele>2823.6000976562</ele>
        <time>2014-01-11T10:34:02.000Z</time>
      </trkpt>
      <trkpt lat="45.18257" lon="6.371">
        <ele>2823.8000488281</ele>
        <time>2014-01-11T10:34:03.000Z</time>
      </trkpt>
      <trkpt lat="45.18257" lon="6.371">
        <ele>2823.8000488281</ele>
        <time>2014-01-11T10:34:04.000Z</time>
      </trkpt>
      <trkpt lat="45.18257" lon="6.371">
        <ele>2823.8000488281</ele>
        <time>2014-01-11T10:34:05.000Z</time>
      </trkpt>
      <trkpt lat="45.18257" lon="6.371">
        <ele>2823.8000488281</ele>
        <time>2014-01-11T10:34:06.000Z</time>
      </trkpt>
      <trkpt lat="45.18257" lon="6.371">
        <ele>2823.8000488281</ele>
        <time>2014-01-11T10:34:07.000Z</time>
      </trkpt>
      <trkpt lat="45.18257" lon="6.371">
        <ele>2823.8000488281</ele>
        <time>2014-01-11T10:34:08.000Z</time>
      </trkpt>
      <trkpt lat="45.18257" lon="6.371">
        <ele>2823.8000488281</ele>
        <time>2014-01-11T10:34:09.000Z</time>
      </trkpt>
      <trkpt lat="45.18257" lon="6.371">
        <ele>2823.8000488281</ele>
        <time>2014-01-11T10:34:10.000Z</time>
      </trkpt>
      <trkpt lat="45.18257" lon="6.371">
        <ele>2823.8000488281</ele>
        <time>2014-01-11T10:34:11.000Z</time>
      </trkpt>
      <trkpt lat="45.18257" lon="6.371">
        <ele>2823.8000488281</ele>
        <time>2014-01-11T10:34:12.000Z</time>
      </trkpt>
      <trkpt lat="45.18257" lon="6.371">
        <ele>2823.8000488281</ele>
        <time>2014-01-11T10:34:13.000Z</time>
      </trkpt>
      <trkpt lat="45.18257" lon="6.371">
        <ele>2823.8000488281</ele>
        <time>2014-01-11T10:34:14.000Z</time>
      </trkpt>
      <trkpt lat="45.18257" lon="6.371">
        <ele>2823.8000488281</ele>
        <time>2014-01-11T10:34:15.000Z</time>
      </trkpt>
      <trkpt lat="45.18257" lon="6.371">
        <ele>2823.8000488281</ele>
        <time>2014-01-11T10:34:16.000Z</time>
      </trkpt>
      <trkpt lat="45.18257" lon="6.371">
        <ele>2823.8000488281</ele>
        <time>2014-01-11T10:34:17.000Z</time>
      </trkpt>
      <trkpt lat="45.18257" lon="6.371">
        <ele>2823.8000488281</ele>
        <time>2014-01-11T10:34:18.000Z</time>
      </trkpt>
      <trkpt lat="45.18257" lon="6.371">
        <ele>2823.8000488281</ele>
        <time>2014-01-11T10:34:19.000Z</time>
      </trkpt>
      <trkpt lat="45.18257" lon="6.371">
        <ele>2823.6000976562</ele>
        <time>2014-01-11T10:34:20.000Z</time>
      </trkpt>
      <trkpt lat="45.18257" lon="6.371">
        <ele>2823.6000976562</ele>
        <time>2014-01-11T10:34:21.000Z</time>
      </trkpt>
      <trkpt lat="45.18257" lon="6.371">
        <ele>2823.6000976562</ele>
        <time>2014-01-11T10:34:22.000Z</time>
      </trkpt>
      <trkpt lat="45.18257" lon="6.371">
        <ele>2823.3999023438</ele>
        <time>2014-01-11T10:34:23.000Z</time>
      </trkpt>
      <trkpt lat="45.18257" lon="6.371">
        <ele>2823.3999023438</ele>
        <time>2014-01-11T10:34:24.000Z</time>
      </trkpt>
      <trkpt lat="45.18257" lon="6.371">
        <ele>2823.3999023438</ele>
        <time>2014-01-11T10:34:25.000Z</time>
      </trkpt>
      <trkpt lat="45.18257" lon="6.371">
        <ele>2823.6000976562</ele>
        <time>2014-01-11T10:34:26.000Z</time>
      </trkpt>
      <trkpt lat="45.18257" lon="6.371">
        <ele>2823.6000976562</ele>
        <time>2014-01-11T10:34:27.000Z</time>
      </trkpt>
      <trkpt lat="45.18257" lon="6.371">
        <ele>2823.6000976562</ele>
        <time>2014-01-11T10:34:28.000Z</time>
      </trkpt>
      <trkpt lat="45.18257" lon="6.371">
        <ele>2823.6000976562</ele>
        <time>2014-01-11T10:34:29.000Z</time>
      </trkpt>
      <trkpt lat="45.18257" lon="6.371">
        <ele>2823.6000976562</ele>
        <time>2014-01-11T10:34:30.000Z</time>
      </trkpt>
      <trkpt lat="45.18257" lon="6.371">
        <ele>2823.6000976562</ele>
        <time>2014-01-11T10:34:31.000Z</time>
      </trkpt>
      <trkpt lat="45.18257" lon="6.371">
        <ele>2823.6000976562</ele>
        <time>2014-01-11T10:34:32.000Z</time>
      </trkpt>
      <trkpt lat="45.18257" lon="6.371">
        <ele>2823.6000976562</ele>
        <time>2014-01-11T10:34:33.000Z</time>
      </trkpt>
      <trkpt lat="45.18257" lon="6.371">
        <ele>2823.6000976562</ele>
        <time>2014-01-11T10:34:34.000Z</time>
      </trkpt>
      <trkpt lat="45.18257" lon="6.371">
        <ele>2823.6000976562</ele>
        <time>2014-01-11T10:34:35.000Z</time>
      </trkpt>
      <trkpt lat="45.18257" lon="6.371">
        <ele>2823.6000976562</ele>
        <time>2014-01-11T10:34:36.000Z</time>
      </trkpt>
      <trkpt lat="45.18257" lon="6.371">
        <ele>2823.8000488281</ele>
        <time>2014-01-11T10:34:37.000Z</time>
      </trkpt>
      <trkpt lat="45.18257" lon="6.371">
        <ele>2824</ele>
        <time>2014-01-11T10:34:38.000Z</time>
      </trkpt>
      <trkpt lat="45.18257" lon="6.371">
        <ele>2824</ele>
        <time>2014-01-11T10:34:39.000Z</time>
      </trkpt>
      <trkpt lat="45.18257" lon="6.371">
        <ele>2824</ele>
        <time>2014-01-11T10:34:40.000Z</time>
      </trkpt>
      <trkpt lat="45.18257" lon="6.371">
        <ele>2824.1999511719</ele>
        <time>2014-01-11T10:34:41.000Z</time>
      </trkpt>
      <trkpt lat="45.18257" lon="6.371">
        <ele>2824</ele>
        <time>2014-01-11T10:34:42.000Z</time>
      </trkpt>
      <trkpt lat="45.18257" lon="6.371">
        <ele>2824</ele>
        <time>2014-01-11T10:34:43.000Z</time>
      </trkpt>
      <trkpt lat="45.18257" lon="6.371">
        <ele>2824</ele>
        <time>2014-01-11T10:34:44.000Z</time>
      </trkpt>
      <trkpt lat="45.18257" lon="6.371">
        <ele>2824</ele>
        <time>2014-01-11T10:34:45.000Z</time>
      </trkpt>
      <trkpt lat="45.18257" lon="6.371">
        <ele>2824</ele>
        <time>2014-01-11T10:34:47.000Z</time>
      </trkpt>
      <trkpt lat="45.18257" lon="6.371">
        <ele>2824</ele>
        <time>2014-01-11T10:34:49.000Z</time>
      </trkpt>
      <trkpt lat="45.18257" lon="6.371">
        <ele>2824</ele>
        <time>2014-01-11T10:34:50.000Z</time>
      </trkpt>
      <trkpt lat="45.18257" lon="6.371">
        <ele>2824.1999511719</ele>
        <time>2014-01-11T10:34:51.000Z</time>
      </trkpt>
      <trkpt lat="45.18257" lon="6.371">
        <ele>2824.3999023438</ele>
        <time>2014-01-11T10:34:52.000Z</time>
      </trkpt>
      <trkpt lat="45.18257" lon="6.371">
        <ele>2824.6000976562</ele>
        <time>2014-01-11T10:34:53.000Z</time>
      </trkpt>
      <trkpt lat="45.18257" lon="6.371">
        <ele>2824.8000488281</ele>
        <time>2014-01-11T10:34:54.000Z</time>
      </trkpt>
      <trkpt lat="45.18257" lon="6.371">
        <ele>2825</ele>
        <time>2014-01-11T10:34:55.000Z</time>
      </trkpt>
      <trkpt lat="45.18257" lon="6.371">
        <ele>2825</ele>
        <time>2014-01-11T10:34:56.000Z</time>
      </trkpt>
      <trkpt lat="45.18257" lon="6.371">
        <ele>2825.1999511719</ele>
        <time>2014-01-11T10:34:57.000Z</time>
      </trkpt>
      <trkpt lat="45.18257" lon="6.371">
        <ele>2825.1999511719</ele>
        <time>2014-01-11T10:34:58.000Z</time>
      </trkpt>
      <trkpt lat="45.18257" lon="6.371">
        <ele>2825.1999511719</ele>
        <time>2014-01-11T10:34:59.000Z</time>
      </trkpt>
      <trkpt lat="45.18257" lon="6.371">
        <ele>2825.3999023438</ele>
        <time>2014-01-11T10:35:00.000Z</time>
      </trkpt>
      <trkpt lat="45.18257" lon="6.371">
        <ele>2825.3999023438</ele>
        <time>2014-01-11T10:35:01.000Z</time>
      </trkpt>
      <trkpt lat="45.18257" lon="6.371">
        <ele>2825.6000976562</ele>
        <time>2014-01-11T10:35:02.000Z</time>
      </trkpt>
      <trkpt lat="45.18257" lon="6.371">
        <ele>2825.6000976562</ele>
        <time>2014-01-11T10:35:03.000Z</time>
      </trkpt>
      <trkpt lat="45.18257" lon="6.371">
        <ele>2825.6000976562</ele>
        <time>2014-01-11T10:35:04.000Z</time>
      </trkpt>
      <trkpt lat="45.18257" lon="6.371">
        <ele>2825.6000976562</ele>
        <time>2014-01-11T10:35:05.000Z</time>
      </trkpt>
      <trkpt lat="45.18257" lon="6.371">
        <ele>2825.6000976562</ele>
        <time>2014-01-11T10:35:06.000Z</time>
      </trkpt>
      <trkpt lat="45.18257" lon="6.371">
        <ele>2825.6000976562</ele>
        <time>2014-01-11T10:35:07.000Z</time>
      </trkpt>
      <trkpt lat="45.18257" lon="6.371">
        <ele>2825.6000976562</ele>
        <time>2014-01-11T10:35:08.000Z</time>
      </trkpt>
      <trkpt lat="45.18257" lon="6.371">
        <ele>2825.6000976562</ele>
        <time>2014-01-11T10:35:09.000Z</time>
      </trkpt>
      <trkpt lat="45.18257" lon="6.371">
        <ele>2825.8000488281</ele>
        <time>2014-01-11T10:35:11.000Z</time>
      </trkpt>
      <trkpt lat="45.18257" lon="6.371">
        <ele>2825.8000488281</ele>
        <time>2014-01-11T10:35:12.000Z</time>
      </trkpt>
      <trkpt lat="45.18257" lon="6.371">
        <ele>2826</ele>
        <time>2014-01-11T10:35:13.000Z</time>
      </trkpt>
      <trkpt lat="45.18257" lon="6.371">
        <ele>2826</ele>
        <time>2014-01-11T10:35:14.000Z</time>
      </trkpt>
      <trkpt lat="45.18257" lon="6.371">
        <ele>2826</ele>
        <time>2014-01-11T10:35:15.000Z</time>
      </trkpt>
      <trkpt lat="45.18257" lon="6.371">
        <ele>2826</ele>
        <time>2014-01-11T10:35:16.000Z</time>
      </trkpt>
      <trkpt lat="45.18257" lon="6.371">
        <ele>2826</ele>
        <time>2014-01-11T10:35:17.000Z</time>
      </trkpt>
      <trkpt lat="45.18257" lon="6.371">
        <ele>2826.1999511719</ele>
        <time>2014-01-11T10:35:18.000Z</time>
      </trkpt>
      <trkpt lat="45.18257" lon="6.371">
        <ele>2826.1999511719</ele>
        <time>2014-01-11T10:35:20.000Z</time>
      </trkpt>
      <trkpt lat="45.18257" lon="6.371">
        <ele>2826</ele>
        <time>2014-01-11T10:35:21.000Z</time>
      </trkpt>
      <trkpt lat="45.18257" lon="6.371">
        <ele>2826</ele>
        <time>2014-01-11T10:35:22.000Z</time>
      </trkpt>
      <trkpt lat="45.18257" lon="6.371">
        <ele>2825.8000488281</ele>
        <time>2014-01-11T10:35:23.000Z</time>
      </trkpt>
      <trkpt lat="45.18257" lon="6.371">
        <ele>2825.8000488281</ele>
        <time>2014-01-11T10:35:24.000Z</time>
      </trkpt>
      <trkpt lat="45.18257" lon="6.371">
        <ele>2825.6000976562</ele>
        <time>2014-01-11T10:35:25.000Z</time>
      </trkpt>
      <trkpt lat="45.18257" lon="6.371">
        <ele>2825.6000976562</ele>
        <time>2014-01-11T10:35:26.000Z</time>
      </trkpt>
      <trkpt lat="45.18257" lon="6.371">
        <ele>2825.6000976562</ele>
        <time>2014-01-11T10:35:27.000Z</time>
      </trkpt>
      <trkpt lat="45.18257" lon="6.371">
        <ele>2825.3999023438</ele>
        <time>2014-01-11T10:35:28.000Z</time>
      </trkpt>
      <trkpt lat="45.18257" lon="6.371">
        <ele>2825.3999023438</ele>
        <time>2014-01-11T10:35:29.000Z</time>
      </trkpt>
      <trkpt lat="45.18257" lon="6.371">
        <ele>2825.3999023438</ele>
        <time>2014-01-11T10:35:30.000Z</time>
      </trkpt>
      <trkpt lat="45.18257" lon="6.371">
        <ele>2825.3999023438</ele>
        <time>2014-01-11T10:35:31.000Z</time>
      </trkpt>
      <trkpt lat="45.18257" lon="6.371">
        <ele>2825.3999023438</ele>
        <time>2014-01-11T10:35:32.000Z</time>
      </trkpt>
      <trkpt lat="45.18257" lon="6.371">
        <ele>2825.3999023438</ele>
        <time>2014-01-11T10:35:33.000Z</time>
      </trkpt>
      <trkpt lat="45.18257" lon="6.371">
        <ele>2825.3999023438</ele>
        <time>2014-01-11T10:35:34.000Z</time>
      </trkpt>
      <trkpt lat="45.18257" lon="6.371">
        <ele>2825.3999023438</ele>
        <time>2014-01-11T10:35:35.000Z</time>
      </trkpt>
      <trkpt lat="45.18257" lon="6.371">
        <ele>2825.3999023438</ele>
        <time>2014-01-11T10:35:36.000Z</time>
      </trkpt>
      <trkpt lat="45.18257" lon="6.371">
        <ele>2825.3999023438</ele>
        <time>2014-01-11T10:35:37.000Z</time>
      </trkpt>
      <trkpt lat="45.18257" lon="6.371">
        <ele>2825.6000976562</ele>
        <time>2014-01-11T10:35:38.000Z</time>
      </trkpt>
      <trkpt lat="45.18257" lon="6.371">
        <ele>2825.6000976562</ele>
        <time>2014-01-11T10:35:39.000Z</time>
      </trkpt>
      <trkpt lat="45.18257" lon="6.371">
        <ele>2825.3999023438</ele>
        <time>2014-01-11T10:35:40.000Z</time>
      </trkpt>
      <trkpt lat="45.18257" lon="6.371">
        <ele>2825.3999023438</ele>
        <time>2014-01-11T10:35:41.000Z</time>
      </trkpt>
      <trkpt lat="45.18257" lon="6.371">
        <ele>2825.3999023438</ele>
        <time>2014-01-11T10:35:42.000Z</time>
      </trkpt>
      <trkpt lat="45.18257" lon="6.371">
        <ele>2825.3999023438</ele>
        <time>2014-01-11T10:35:43.000Z</time>
      </trkpt>
      <trkpt lat="45.18257" lon="6.371">
        <ele>2825.3999023438</ele>
        <time>2014-01-11T10:35:44.000Z</time>
      </trkpt>
      <trkpt lat="45.18257" lon="6.371">
        <ele>2825.1999511719</ele>
        <time>2014-01-11T10:35:45.000Z</time>
      </trkpt>
      <trkpt lat="45.18257" lon="6.371">
        <ele>2825.1999511719</ele>
        <time>2014-01-11T10:35:46.000Z</time>
      </trkpt>
      <trkpt lat="45.18257" lon="6.371">
        <ele>2825.1999511719</ele>
        <time>2014-01-11T10:35:47.000Z</time>
      </trkpt>
      <trkpt lat="45.18257" lon="6.371">
        <ele>2825.1999511719</ele>
        <time>2014-01-11T10:35:48.000Z</time>
      </trkpt>
      <trkpt lat="45.18257" lon="6.371">
        <ele>2825.1999511719</ele>
        <time>2014-01-11T10:35:49.000Z</time>
      </trkpt>
      <trkpt lat="45.18257" lon="6.371">
        <ele>2825.1999511719</ele>
        <time>2014-01-11T10:35:50.000Z</time>
      </trkpt>
      <trkpt lat="45.18257" lon="6.371">
        <ele>2825.1999511719</ele>
        <time>2014-01-11T10:35:51.000Z</time>
      </trkpt>
      <trkpt lat="45.18257" lon="6.371">
        <ele>2825.1999511719</ele>
        <time>2014-01-11T10:35:52.000Z</time>
      </trkpt>
      <trkpt lat="45.18257" lon="6.371">
        <ele>2825.3999023438</ele>
        <time>2014-01-11T10:35:53.000Z</time>
      </trkpt>
      <trkpt lat="45.18257" lon="6.371">
        <ele>2825.1999511719</ele>
        <time>2014-01-11T10:35:54.000Z</time>
      </trkpt>
      <trkpt lat="45.18257" lon="6.371">
        <ele>2825.1999511719</ele>
        <time>2014-01-11T10:35:55.000Z</time>
      </trkpt>
      <trkpt lat="45.18257" lon="6.371">
        <ele>2825</ele>
        <time>2014-01-11T10:35:56.000Z</time>
      </trkpt>
      <trkpt lat="45.18257" lon="6.371">
        <ele>2825</ele>
        <time>2014-01-11T10:35:57.000Z</time>
      </trkpt>
      <trkpt lat="45.18257" lon="6.371">
        <ele>2824.8000488281</ele>
        <time>2014-01-11T10:35:58.000Z</time>
      </trkpt>
      <trkpt lat="45.18257" lon="6.371">
        <ele>2824.8000488281</ele>
        <time>2014-01-11T10:35:59.000Z</time>
      </trkpt>
      <trkpt lat="45.18257" lon="6.371">
        <ele>2824.8000488281</ele>
        <time>2014-01-11T10:36:00.000Z</time>
      </trkpt>
      <trkpt lat="45.18257" lon="6.371">
        <ele>2824.6000976562</ele>
        <time>2014-01-11T10:36:01.000Z</time>
      </trkpt>
      <trkpt lat="45.18257" lon="6.371">
        <ele>2824.6000976562</ele>
        <time>2014-01-11T10:36:02.000Z</time>
      </trkpt>
      <trkpt lat="45.18257" lon="6.371">
        <ele>2824.6000976562</ele>
        <time>2014-01-11T10:36:03.000Z</time>
      </trkpt>
      <trkpt lat="45.18257" lon="6.371">
        <ele>2824.3999023438</ele>
        <time>2014-01-11T10:36:04.000Z</time>
      </trkpt>
      <trkpt lat="45.18257" lon="6.371">
        <ele>2824.3999023438</ele>
        <time>2014-01-11T10:36:05.000Z</time>
      </trkpt>
      <trkpt lat="45.18257" lon="6.371">
        <ele>2824.3999023438</ele>
        <time>2014-01-11T10:36:06.000Z</time>
      </trkpt>
      <trkpt lat="45.18257" lon="6.371">
        <ele>2824.3999023438</ele>
        <time>2014-01-11T10:36:07.000Z</time>
      </trkpt>
      <trkpt lat="45.18257" lon="6.371">
        <ele>2824.3999023438</ele>
        <time>2014-01-11T10:36:09.000Z</time>
      </trkpt>
      <trkpt lat="45.18257" lon="6.371">
        <ele>2824.1999511719</ele>
        <time>2014-01-11T10:36:10.000Z</time>
      </trkpt>
      <trkpt lat="45.18257" lon="6.371">
        <ele>2824.1999511719</ele>
        <time>2014-01-11T10:36:11.000Z</time>
      </trkpt>
      <trkpt lat="45.18257" lon="6.371">
        <ele>2824</ele>
        <time>2014-01-11T10:36:12.000Z</time>
      </trkpt>
      <trkpt lat="45.18257" lon="6.371">
        <ele>2824.1999511719</ele>
        <time>2014-01-11T10:36:13.000Z</time>
      </trkpt>
      <trkpt lat="45.18257" lon="6.371">
        <ele>2824.1999511719</ele>
        <time>2014-01-11T10:36:14.000Z</time>
      </trkpt>
      <trkpt lat="45.18257" lon="6.371">
        <ele>2824.3999023438</ele>
        <time>2014-01-11T10:36:15.000Z</time>
      </trkpt>
      <trkpt lat="45.18257" lon="6.371">
        <ele>2824.6000976562</ele>
        <time>2014-01-11T10:36:16.000Z</time>
      </trkpt>
      <trkpt lat="45.18257" lon="6.371">
        <ele>2824.6000976562</ele>
        <time>2014-01-11T10:36:17.000Z</time>
      </trkpt>
      <trkpt lat="45.18257" lon="6.371">
        <ele>2824.6000976562</ele>
        <time>2014-01-11T10:36:18.000Z</time>
      </trkpt>
      <trkpt lat="45.18257" lon="6.371">
        <ele>2824.6000976562</ele>
        <time>2014-01-11T10:36:19.000Z</time>
      </trkpt>
      <trkpt lat="45.18257" lon="6.371">
        <ele>2824.6000976562</ele>
        <time>2014-01-11T10:36:21.000Z</time>
      </trkpt>
      <trkpt lat="45.18257" lon="6.371">
        <ele>2824.3999023438</ele>
        <time>2014-01-11T10:36:22.000Z</time>
      </trkpt>
      <trkpt lat="45.18257" lon="6.371">
        <ele>2824.3999023438</ele>
        <time>2014-01-11T10:36:23.000Z</time>
      </trkpt>
      <trkpt lat="45.18257" lon="6.371">
        <ele>2824.3999023438</ele>
        <time>2014-01-11T10:36:24.000Z</time>
      </trkpt>
      <trkpt lat="45.18257" lon="6.371">
        <ele>2824.1999511719</ele>
        <time>2014-01-11T10:36:25.000Z</time>
      </trkpt>
      <trkpt lat="45.18257" lon="6.371">
        <ele>2824.1999511719</ele>
        <time>2014-01-11T10:36:26.000Z</time>
      </trkpt>
      <trkpt lat="45.18257" lon="6.371">
        <ele>2824</ele>
        <time>2014-01-11T10:36:27.000Z</time>
      </trkpt>
      <trkpt lat="45.18257" lon="6.371">
        <ele>2824</ele>
        <time>2014-01-11T10:36:28.000Z</time>
      </trkpt>
      <trkpt lat="45.18257" lon="6.371">
        <ele>2824</ele>
        <time>2014-01-11T10:36:29.000Z</time>
      </trkpt>
      <trkpt lat="45.18257" lon="6.371">
        <ele>2824</ele>
        <time>2014-01-11T10:36:31.000Z</time>
      </trkpt>
      <trkpt lat="45.18257" lon="6.371">
        <ele>2824.1999511719</ele>
        <time>2014-01-11T10:36:32.000Z</time>
      </trkpt>
      <trkpt lat="45.18257" lon="6.371">
        <ele>2824.1999511719</ele>
        <time>2014-01-11T10:36:33.000Z</time>
      </trkpt>
      <trkpt lat="45.18257" lon="6.371">
        <ele>2824.1999511719</ele>
        <time>2014-01-11T10:36:34.000Z</time>
      </trkpt>
      <trkpt lat="45.18257" lon="6.371">
        <ele>2824.1999511719</ele>
        <time>2014-01-11T10:36:35.000Z</time>
      </trkpt>
      <trkpt lat="45.18257" lon="6.371">
        <ele>2824.1999511719</ele>
        <time>2014-01-11T10:36:37.000Z</time>
      </trkpt>
      <trkpt lat="45.18257" lon="6.371">
        <ele>2824.1999511719</ele>
        <time>2014-01-11T10:36:38.000Z</time>
      </trkpt>
      <trkpt lat="45.18257" lon="6.371">
        <ele>2824.1999511719</ele>
        <time>2014-01-11T10:36:39.000Z</time>
      </trkpt>
      <trkpt lat="45.18257" lon="6.371">
        <ele>2824.1999511719</ele>
        <time>2014-01-11T10:36:40.000Z</time>
      </trkpt>
      <trkpt lat="45.18257" lon="6.371">
        <ele>2824.1999511719</ele>
        <time>2014-01-11T10:36:41.000Z</time>
      </trkpt>
      <trkpt lat="45.18257" lon="6.371">
        <ele>2824</ele>
        <time>2014-01-11T10:36:42.000Z</time>
      </trkpt>
      <trkpt lat="45.18257" lon="6.371">
        <ele>2824</ele>
        <time>2014-01-11T10:36:43.000Z</time>
      </trkpt>
      <trkpt lat="45.18257" lon="6.371">
        <ele>2823.8000488281</ele>
        <time>2014-01-11T10:36:44.000Z</time>
      </trkpt>
      <trkpt lat="45.18257" lon="6.371">
        <ele>2823.8000488281</ele>
        <time>2014-01-11T10:36:45.000Z</time>
      </trkpt>
      <trkpt lat="45.18257" lon="6.371">
        <ele>2823.8000488281</ele>
        <time>2014-01-11T10:36:46.000Z</time>
      </trkpt>
      <trkpt lat="45.18257" lon="6.371">
        <ele>2823.8000488281</ele>
        <time>2014-01-11T10:36:47.000Z</time>
      </trkpt>
      <trkpt lat="45.18257" lon="6.371">
        <ele>2823.8000488281</ele>
        <time>2014-01-11T10:36:48.000Z</time>
      </trkpt>
      <trkpt lat="45.18257" lon="6.371">
        <ele>2823.8000488281</ele>
        <time>2014-01-11T10:36:49.000Z</time>
      </trkpt>
      <trkpt lat="45.18257" lon="6.371">
        <ele>2823.8000488281</ele>
        <time>2014-01-11T10:36:50.000Z</time>
      </trkpt>
      <trkpt lat="45.18257" lon="6.371">
        <ele>2823.8000488281</ele>
        <time>2014-01-11T10:36:51.000Z</time>
      </trkpt>
      <trkpt lat="45.18257" lon="6.371">
        <ele>2824</ele>
        <time>2014-01-11T10:36:52.000Z</time>
      </trkpt>
      <trkpt lat="45.18257" lon="6.371">
        <ele>2824</ele>
        <time>2014-01-11T10:36:53.000Z</time>
      </trkpt>
      <trkpt lat="45.18257" lon="6.371">
        <ele>2824</ele>
        <time>2014-01-11T10:36:54.000Z</time>
      </trkpt>
      <trkpt lat="45.18257" lon="6.371">
        <ele>2824</ele>
        <time>2014-01-11T10:36:55.000Z</time>
      </trkpt>
      <trkpt lat="45.18257" lon="6.371">
        <ele>2824</ele>
        <time>2014-01-11T10:36:56.000Z</time>
      </trkpt>
      <trkpt lat="45.18257" lon="6.371">
        <ele>2824</ele>
        <time>2014-01-11T10:36:57.000Z</time>
      </trkpt>
      <trkpt lat="45.18257" lon="6.371">
        <ele>2824</ele>
        <time>2014-01-11T10:36:59.000Z</time>
      </trkpt>
      <trkpt lat="45.18257" lon="6.371">
        <ele>2824</ele>
        <time>2014-01-11T10:37:00.000Z</time>
      </trkpt>
      <trkpt lat="45.18257" lon="6.371">
        <ele>2824</ele>
        <time>2014-01-11T10:37:01.000Z</time>
      </trkpt>
      <trkpt lat="45.18257" lon="6.371">
        <ele>2824</ele>
        <time>2014-01-11T10:37:04.000Z</time>
      </trkpt>
      <trkpt lat="45.18257" lon="6.371">
        <ele>2824</ele>
        <time>2014-01-11T10:37:05.000Z</time>
      </trkpt>
      <trkpt lat="45.18257" lon="6.371">
        <ele>2824</ele>
        <time>2014-01-11T10:37:06.000Z</time>
      </trkpt>
      <trkpt lat="45.18257" lon="6.371">
        <ele>2824</ele>
        <time>2014-01-11T10:37:08.000Z</time>
      </trkpt>
      <trkpt lat="45.18257" lon="6.371">
        <ele>2824</ele>
        <time>2014-01-11T10:37:10.000Z</time>
      </trkpt>
      <trkpt lat="45.18257" lon="6.371">
        <ele>2824</ele>
        <time>2014-01-11T10:37:11.000Z</time>
      </trkpt>
      <trkpt lat="45.18257" lon="6.371">
        <ele>2824</ele>
        <time>2014-01-11T10:37:14.000Z</time>
      </trkpt>
      <trkpt lat="45.18257" lon="6.371">
        <ele>2824</ele>
        <time>2014-01-11T10:37:15.000Z</time>
      </trkpt>
      <trkpt lat="45.18257" lon="6.371">
        <ele>2824</ele>
        <time>2014-01-11T10:37:16.000Z</time>
      </trkpt>
      <trkpt lat="45.18257" lon="6.371">
        <ele>2823.8000488281</ele>
        <time>2014-01-11T10:37:17.000Z</time>
      </trkpt>
      <trkpt lat="45.18257" lon="6.371">
        <ele>2823.8000488281</ele>
        <time>2014-01-11T10:37:18.000Z</time>
      </trkpt>
      <trkpt lat="45.18257" lon="6.371">
        <ele>2823.8000488281</ele>
        <time>2014-01-11T10:37:19.000Z</time>
      </trkpt>
      <trkpt lat="45.18257" lon="6.371">
        <ele>2823.8000488281</ele>
        <time>2014-01-11T10:37:20.000Z</time>
      </trkpt>
      <trkpt lat="45.18257" lon="6.371">
        <ele>2823.8000488281</ele>
        <time>2014-01-11T10:37:22.000Z</time>
      </trkpt>
      <trkpt lat="45.18257" lon="6.371">
        <ele>2823.8000488281</ele>
        <time>2014-01-11T10:37:23.000Z</time>
      </trkpt>
      <trkpt lat="45.18257" lon="6.371">
        <ele>2823.8000488281</ele>
        <time>2014-01-11T10:37:24.000Z</time>
      </trkpt>
      <trkpt lat="45.18257" lon="6.371">
        <ele>2823.8000488281</ele>
        <time>2014-01-11T10:37:25.000Z</time>
      </trkpt>
      <trkpt lat="45.18257" lon="6.371">
        <ele>2823.8000488281</ele>
        <time>2014-01-11T10:37:26.000Z</time>
      </trkpt>
      <trkpt lat="45.18257" lon="6.371">
        <ele>2824</ele>
        <time>2014-01-11T10:37:27.000Z</time>
      </trkpt>
      <trkpt lat="45.18257" lon="6.371">
        <ele>2824</ele>
        <time>2014-01-11T10:37:28.000Z</time>
      </trkpt>
      <trkpt lat="45.18257" lon="6.371">
        <ele>2824.1999511719</ele>
        <time>2014-01-11T10:37:29.000Z</time>
      </trkpt>
      <trkpt lat="45.18257" lon="6.371">
        <ele>2824.3999023438</ele>
        <time>2014-01-11T10:37:30.000Z</time>
      </trkpt>
      <trkpt lat="45.18257" lon="6.371">
        <ele>2824.6000976562</ele>
        <time>2014-01-11T10:37:31.000Z</time>
      </trkpt>
      <trkpt lat="45.18257" lon="6.371">
        <ele>2824.6000976562</ele>
        <time>2014-01-11T10:37:32.000Z</time>
      </trkpt>
      <trkpt lat="45.18257" lon="6.371">
        <ele>2824.6000976562</ele>
        <time>2014-01-11T10:37:33.000Z</time>
      </trkpt>
      <trkpt lat="45.18257" lon="6.371">
        <ele>2824.3999023438</ele>
        <time>2014-01-11T10:37:34.000Z</time>
      </trkpt>
      <trkpt lat="45.18257" lon="6.371">
        <ele>2824.3999023438</ele>
        <time>2014-01-11T10:37:35.000Z</time>
      </trkpt>
      <trkpt lat="45.18257" lon="6.371">
        <ele>2824.3999023438</ele>
        <time>2014-01-11T10:37:36.000Z</time>
      </trkpt>
      <trkpt lat="45.18257" lon="6.371">
        <ele>2824.3999023438</ele>
        <time>2014-01-11T10:37:37.000Z</time>
      </trkpt>
      <trkpt lat="45.18257" lon="6.371">
        <ele>2824.3999023438</ele>
        <time>2014-01-11T10:37:38.000Z</time>
      </trkpt>
      <trkpt lat="45.18257" lon="6.371">
        <ele>2824.3999023438</ele>
        <time>2014-01-11T10:37:39.000Z</time>
      </trkpt>
      <trkpt lat="45.18257" lon="6.371">
        <ele>2824.3999023438</ele>
        <time>2014-01-11T10:37:40.000Z</time>
      </trkpt>
      <trkpt lat="45.18257" lon="6.371">
        <ele>2824.3999023438</ele>
        <time>2014-01-11T10:37:41.000Z</time>
      </trkpt>
      <trkpt lat="45.18257" lon="6.371">
        <ele>2824.3999023438</ele>
        <time>2014-01-11T10:37:42.000Z</time>
      </trkpt>
      <trkpt lat="45.18257" lon="6.371">
        <ele>2824.6000976562</ele>
        <time>2014-01-11T10:37:43.000Z</time>
      </trkpt>
      <trkpt lat="45.18257" lon="6.371">
        <ele>2824.6000976562</ele>
        <time>2014-01-11T10:37:44.000Z</time>
      </trkpt>
      <trkpt lat="45.18257" lon="6.371">
        <ele>2824.6000976562</ele>
        <time>2014-01-11T10:37:45.000Z</time>
      </trkpt>
      <trkpt lat="45.18257" lon="6.371">
        <ele>2824.6000976562</ele>
        <time>2014-01-11T10:37:46.000Z</time>
      </trkpt>
      <trkpt lat="45.18257" lon="6.371">
        <ele>2824.6000976562</ele>
        <time>2014-01-11T10:37:47.000Z</time>
      </trkpt>
      <trkpt lat="45.18257" lon="6.371">
        <ele>2824.6000976562</ele>
        <time>2014-01-11T10:37:48.000Z</time>
      </trkpt>
      <trkpt lat="45.18257" lon="6.371">
        <ele>2824.6000976562</ele>
        <time>2014-01-11T10:37:49.000Z</time>
      </trkpt>
      <trkpt lat="45.18257" lon="6.371">
        <ele>2824.3999023438</ele>
        <time>2014-01-11T10:37:50.000Z</time>
      </trkpt>
      <trkpt lat="45.18257" lon="6.371">
        <ele>2824.3999023438</ele>
        <time>2014-01-11T10:37:51.000Z</time>
      </trkpt>
      <trkpt lat="45.18257" lon="6.371">
        <ele>2824.3999023438</ele>
        <time>2014-01-11T10:37:52.000Z</time>
      </trkpt>
      <trkpt lat="45.18257" lon="6.371">
        <ele>2824.3999023438</ele>
        <time>2014-01-11T10:37:54.000Z</time>
      </trkpt>
      <trkpt lat="45.18257" lon="6.371">
        <ele>2824.6000976562</ele>
        <time>2014-01-11T10:37:55.000Z</time>
      </trkpt>
      <trkpt lat="45.18257" lon="6.371">
        <ele>2824.6000976562</ele>
        <time>2014-01-11T10:37:56.000Z</time>
      </trkpt>
      <trkpt lat="45.18257" lon="6.371">
        <ele>2824.6000976562</ele>
        <time>2014-01-11T10:37:57.000Z</time>
      </trkpt>
      <trkpt lat="45.18257" lon="6.371">
        <ele>2824.6000976562</ele>
        <time>2014-01-11T10:37:59.000Z</time>
      </trkpt>
      <trkpt lat="45.18257" lon="6.371">
        <ele>2824.6000976562</ele>
        <time>2014-01-11T10:38:00.000Z</time>
      </trkpt>
      <trkpt lat="45.18257" lon="6.371">
        <ele>2824.3999023438</ele>
        <time>2014-01-11T10:38:01.000Z</time>
      </trkpt>
      <trkpt lat="45.18257" lon="6.371">
        <ele>2824.3999023438</ele>
        <time>2014-01-11T10:38:02.000Z</time>
      </trkpt>
      <trkpt lat="45.18257" lon="6.371">
        <ele>2824.6000976562</ele>
        <time>2014-01-11T10:38:03.000Z</time>
      </trkpt>
      <trkpt lat="45.18257" lon="6.371">
        <ele>2824.6000976562</ele>
        <time>2014-01-11T10:38:04.000Z</time>
      </trkpt>
      <trkpt lat="45.18257" lon="6.371">
        <ele>2824.8000488281</ele>
        <time>2014-01-11T10:38:05.000Z</time>
      </trkpt>
      <trkpt lat="45.18257" lon="6.371">
        <ele>2824.8000488281</ele>
        <time>2014-01-11T10:38:06.000Z</time>
      </trkpt>
      <trkpt lat="45.18257" lon="6.371">
        <ele>2824.8000488281</ele>
        <time>2014-01-11T10:38:07.000Z</time>
      </trkpt>
      <trkpt lat="45.18257" lon="6.371">
        <ele>2824.8000488281</ele>
        <time>2014-01-11T10:38:08.000Z</time>
      </trkpt>
      <trkpt lat="45.18257" lon="6.371">
        <ele>2824.8000488281</ele>
        <time>2014-01-11T10:38:09.000Z</time>
      </trkpt>
      <trkpt lat="45.18257" lon="6.371">
        <ele>2824.6000976562</ele>
        <time>2014-01-11T10:38:10.000Z</time>
      </trkpt>
      <trkpt lat="45.18257" lon="6.371">
        <ele>2824.6000976562</ele>
        <time>2014-01-11T10:38:11.000Z</time>
      </trkpt>
      <trkpt lat="45.18257" lon="6.371">
        <ele>2824.3999023438</ele>
        <time>2014-01-11T10:38:12.000Z</time>
      </trkpt>
      <trkpt lat="45.18257" lon="6.371">
        <ele>2824.3999023438</ele>
        <time>2014-01-11T10:38:13.000Z</time>
      </trkpt>
      <trkpt lat="45.18257" lon="6.371">
        <ele>2824.1999511719</ele>
        <time>2014-01-11T10:38:14.000Z</time>
      </trkpt>
      <trkpt lat="45.18257" lon="6.371">
        <ele>2824.1999511719</ele>
        <time>2014-01-11T10:38:15.000Z</time>
      </trkpt>
      <trkpt lat="45.18257" lon="6.371">
        <ele>2824</ele>
        <time>2014-01-11T10:38:16.000Z</time>
      </trkpt>
      <trkpt lat="45.18257" lon="6.371">
        <ele>2824</ele>
        <time>2014-01-11T10:38:17.000Z</time>
      </trkpt>
      <trkpt lat="45.18257" lon="6.371">
        <ele>2824</ele>
        <time>2014-01-11T10:38:18.000Z</time>
      </trkpt>
      <trkpt lat="45.18257" lon="6.371">
        <ele>2824</ele>
        <time>2014-01-11T10:38:19.000Z</time>
      </trkpt>
      <trkpt lat="45.18257" lon="6.371">
        <ele>2824</ele>
        <time>2014-01-11T10:38:20.000Z</time>
      </trkpt>
      <trkpt lat="45.18257" lon="6.371">
        <ele>2824</ele>
        <time>2014-01-11T10:38:23.000Z</time>
      </trkpt>
      <trkpt lat="45.18257" lon="6.371">
        <ele>2823.8000488281</ele>
        <time>2014-01-11T10:38:24.000Z</time>
      </trkpt>
      <trkpt lat="45.18257" lon="6.371">
        <ele>2823.8000488281</ele>
        <time>2014-01-11T10:38:25.000Z</time>
      </trkpt>
      <trkpt lat="45.18257" lon="6.371">
        <ele>2823.8000488281</ele>
        <time>2014-01-11T10:38:26.000Z</time>
      </trkpt>
      <trkpt lat="45.18257" lon="6.371">
        <ele>2823.8000488281</ele>
        <time>2014-01-11T10:38:27.000Z</time>
      </trkpt>
      <trkpt lat="45.18257" lon="6.371">
        <ele>2823.8000488281</ele>
        <time>2014-01-11T10:38:28.000Z</time>
      </trkpt>
      <trkpt lat="45.18257" lon="6.371">
        <ele>2823.8000488281</ele>
        <time>2014-01-11T10:38:29.000Z</time>
      </trkpt>
      <trkpt lat="45.18257" lon="6.371">
        <ele>2823.6000976562</ele>
        <time>2014-01-11T10:38:30.000Z</time>
      </trkpt>
      <trkpt lat="45.18257" lon="6.371">
        <ele>2823.6000976562</ele>
        <time>2014-01-11T10:38:31.000Z</time>
      </trkpt>
      <trkpt lat="45.18257" lon="6.371">
        <ele>2823.6000976562</ele>
        <time>2014-01-11T10:38:34.000Z</time>
      </trkpt>
      <trkpt lat="45.18257" lon="6.371">
        <ele>2823.8000488281</ele>
        <time>2014-01-11T10:38:35.000Z</time>
      </trkpt>
      <trkpt lat="45.18257" lon="6.371">
        <ele>2823.8000488281</ele>
        <time>2014-01-11T10:38:36.000Z</time>
      </trkpt>
      <trkpt lat="45.18257" lon="6.371">
        <ele>2823.8000488281</ele>
        <time>2014-01-11T10:38:37.000Z</time>
      </trkpt>
      <trkpt lat="45.18257" lon="6.371">
        <ele>2823.8000488281</ele>
        <time>2014-01-11T10:38:41.000Z</time>
      </trkpt>
      <trkpt lat="45.18257" lon="6.371">
        <ele>2824</ele>
        <time>2014-01-11T10:38:42.000Z</time>
      </trkpt>
      <trkpt lat="45.18257" lon="6.371">
        <ele>2824.1999511719</ele>
        <time>2014-01-11T10:38:43.000Z</time>
      </trkpt>
      <trkpt lat="45.18257" lon="6.371">
        <ele>2824.3999023438</ele>
        <time>2014-01-11T10:38:44.000Z</time>
      </trkpt>
      <trkpt lat="45.18257" lon="6.371">
        <ele>2824.6000976562</ele>
        <time>2014-01-11T10:38:45.000Z</time>
      </trkpt>
      <trkpt lat="45.18257" lon="6.371">
        <ele>2824.6000976562</ele>
        <time>2014-01-11T10:38:46.000Z</time>
      </trkpt>
      <trkpt lat="45.18257" lon="6.371">
        <ele>2824.6000976562</ele>
        <time>2014-01-11T10:38:47.000Z</time>
      </trkpt>
      <trkpt lat="45.18257" lon="6.371">
        <ele>2824.6000976562</ele>
        <time>2014-01-11T10:38:48.000Z</time>
      </trkpt>
      <trkpt lat="45.18257" lon="6.371">
        <ele>2824.3999023438</ele>
        <time>2014-01-11T10:38:49.000Z</time>
      </trkpt>
      <trkpt lat="45.18257" lon="6.371">
        <ele>2824.3999023438</ele>
        <time>2014-01-11T10:38:50.000Z</time>
      </trkpt>
      <trkpt lat="45.18257" lon="6.371">
        <ele>2824.3999023438</ele>
        <time>2014-01-11T10:38:51.000Z</time>
      </trkpt>
      <trkpt lat="45.18257" lon="6.371">
        <ele>2824.3999023438</ele>
        <time>2014-01-11T10:38:52.000Z</time>
      </trkpt>
      <trkpt lat="45.18257" lon="6.371">
        <ele>2824.1999511719</ele>
        <time>2014-01-11T10:38:53.000Z</time>
      </trkpt>
      <trkpt lat="45.18257" lon="6.371">
        <ele>2824.1999511719</ele>
        <time>2014-01-11T10:38:54.000Z</time>
      </trkpt>
      <trkpt lat="45.18257" lon="6.371">
        <ele>2824.1999511719</ele>
        <time>2014-01-11T10:38:55.000Z</time>
      </trkpt>
      <trkpt lat="45.18257" lon="6.371">
        <ele>2824.1999511719</ele>
        <time>2014-01-11T10:38:56.000Z</time>
      </trkpt>
      <trkpt lat="45.18257" lon="6.371">
        <ele>2824.1999511719</ele>
        <time>2014-01-11T10:38:57.000Z</time>
      </trkpt>
      <trkpt lat="45.18257" lon="6.371">
        <ele>2824.1999511719</ele>
        <time>2014-01-11T10:38:58.000Z</time>
      </trkpt>
      <trkpt lat="45.18257" lon="6.371">
        <ele>2824.1999511719</ele>
        <time>2014-01-11T10:39:00.000Z</time>
      </trkpt>
      <trkpt lat="45.18257" lon="6.371">
        <ele>2824.1999511719</ele>
        <time>2014-01-11T10:39:01.000Z</time>
      </trkpt>
      <trkpt lat="45.18257" lon="6.371">
        <ele>2824.3999023438</ele>
        <time>2014-01-11T10:39:02.000Z</time>
      </trkpt>
      <trkpt lat="45.18257" lon="6.371">
        <ele>2824.3999023438</ele>
        <time>2014-01-11T10:39:03.000Z</time>
      </trkpt>
      <trkpt lat="45.18257" lon="6.371">
        <ele>2824.3999023438</ele>
        <time>2014-01-11T10:39:04.000Z</time>
      </trkpt>
      <trkpt lat="45.18257" lon="6.371">
        <ele>2824.3999023438</ele>
        <time>2014-01-11T10:39:05.000Z</time>
      </trkpt>
      <trkpt lat="45.18257" lon="6.371">
        <ele>2824.3999023438</ele>
        <time>2014-01-11T10:39:06.000Z</time>
      </trkpt>
      <trkpt lat="45.18257" lon="6.371">
        <ele>2824.6000976562</ele>
        <time>2014-01-11T10:39:07.000Z</time>
      </trkpt>
      <trkpt lat="45.18257" lon="6.371">
        <ele>2824.6000976562</ele>
        <time>2014-01-11T10:39:08.000Z</time>
      </trkpt>
      <trkpt lat="45.18257" lon="6.371">
        <ele>2824.6000976562</ele>
        <time>2014-01-11T10:39:09.000Z</time>
      </trkpt>
      <trkpt lat="45.18257" lon="6.371">
        <ele>2824.6000976562</ele>
        <time>2014-01-11T10:39:10.000Z</time>
      </trkpt>
      <trkpt lat="45.18257" lon="6.371">
        <ele>2824.6000976562</ele>
        <time>2014-01-11T10:39:11.000Z</time>
      </trkpt>
      <trkpt lat="45.18257" lon="6.371">
        <ele>2824.6000976562</ele>
        <time>2014-01-11T10:39:12.000Z</time>
      </trkpt>
      <trkpt lat="45.18257" lon="6.371">
        <ele>2824.6000976562</ele>
        <time>2014-01-11T10:39:14.000Z</time>
      </trkpt>
      <trkpt lat="45.18257" lon="6.371">
        <ele>2824.6000976562</ele>
        <time>2014-01-11T10:39:15.000Z</time>
      </trkpt>
      <trkpt lat="45.18257" lon="6.371">
        <ele>2824.6000976562</ele>
        <time>2014-01-11T10:39:16.000Z</time>
      </trkpt>
      <trkpt lat="45.18257" lon="6.371">
        <ele>2824.3999023438</ele>
        <time>2014-01-11T10:39:17.000Z</time>
      </trkpt>
      <trkpt lat="45.18257" lon="6.371">
        <ele>2824.1999511719</ele>
        <time>2014-01-11T10:39:18.000Z</time>
      </trkpt>
      <trkpt lat="45.18257" lon="6.371">
        <ele>2824</ele>
        <time>2014-01-11T10:39:19.000Z</time>
      </trkpt>
      <trkpt lat="45.18257" lon="6.371">
        <ele>2824</ele>
        <time>2014-01-11T10:39:20.000Z</time>
      </trkpt>
      <trkpt lat="45.18257" lon="6.371">
        <ele>2824</ele>
        <time>2014-01-11T10:39:21.000Z</time>
      </trkpt>
      <trkpt lat="45.18257" lon="6.371">
        <ele>2823.8000488281</ele>
        <time>2014-01-11T10:39:22.000Z</time>
      </trkpt>
      <trkpt lat="45.18257" lon="6.371">
        <ele>2823.8000488281</ele>
        <time>2014-01-11T10:39:24.000Z</time>
      </trkpt>
      <trkpt lat="45.18257" lon="6.371">
        <ele>2823.8000488281</ele>
        <time>2014-01-11T10:39:26.000Z</time>
      </trkpt>
      <trkpt lat="45.18257" lon="6.371">
        <ele>2823.8000488281</ele>
        <time>2014-01-11T10:39:27.000Z</time>
      </trkpt>
      <trkpt lat="45.18257" lon="6.371">
        <ele>2823.8000488281</ele>
        <time>2014-01-11T10:39:28.000Z</time>
      </trkpt>
      <trkpt lat="45.18257" lon="6.371">
        <ele>2823.8000488281</ele>
        <time>2014-01-11T10:39:29.000Z</time>
      </trkpt>
      <trkpt lat="45.18257" lon="6.37101">
        <ele>2823.8000488281</ele>
        <time>2014-01-11T10:39:30.000Z</time>
      </trkpt>
      <trkpt lat="45.18257" lon="6.37101">
        <ele>2824</ele>
        <time>2014-01-11T10:39:31.000Z</time>
      </trkpt>
      <trkpt lat="45.18257" lon="6.37101">
        <ele>2824</ele>
        <time>2014-01-11T10:39:32.000Z</time>
      </trkpt>
      <trkpt lat="45.18257" lon="6.37101">
        <ele>2824</ele>
        <time>2014-01-11T10:39:33.000Z</time>
      </trkpt>
      <trkpt lat="45.18257" lon="6.37101">
        <ele>2823.8000488281</ele>
        <time>2014-01-11T10:39:34.000Z</time>
      </trkpt>
      <trkpt lat="45.18257" lon="6.37101">
        <ele>2823.8000488281</ele>
        <time>2014-01-11T10:39:35.000Z</time>
      </trkpt>
      <trkpt lat="45.18257" lon="6.37101">
        <ele>2823.8000488281</ele>
        <time>2014-01-11T10:39:36.000Z</time>
      </trkpt>
      <trkpt lat="45.18257" lon="6.37101">
        <ele>2823.8000488281</ele>
        <time>2014-01-11T10:39:37.000Z</time>
      </trkpt>
      <trkpt lat="45.18257" lon="6.37101">
        <ele>2823.8000488281</ele>
        <time>2014-01-11T10:39:38.000Z</time>
      </trkpt>
      <trkpt lat="45.18257" lon="6.37101">
        <ele>2823.8000488281</ele>
        <time>2014-01-11T10:39:40.000Z</time>
      </trkpt>
      <trkpt lat="45.18257" lon="6.37101">
        <ele>2823.8000488281</ele>
        <time>2014-01-11T10:39:41.000Z</time>
      </trkpt>
      <trkpt lat="45.18257" lon="6.37101">
        <ele>2823.8000488281</ele>
        <time>2014-01-11T10:39:42.000Z</time>
      </trkpt>
      <trkpt lat="45.18257" lon="6.37101">
        <ele>2823.6000976562</ele>
        <time>2014-01-11T10:39:43.000Z</time>
      </trkpt>
      <trkpt lat="45.18257" lon="6.37101">
        <ele>2823.6000976562</ele>
        <time>2014-01-11T10:39:44.000Z</time>
      </trkpt>
      <trkpt lat="45.18257" lon="6.37101">
        <ele>2823.6000976562</ele>
        <time>2014-01-11T10:39:45.000Z</time>
      </trkpt>
      <trkpt lat="45.18257" lon="6.37101">
        <ele>2823.6000976562</ele>
        <time>2014-01-11T10:39:47.000Z</time>
      </trkpt>
      <trkpt lat="45.18257" lon="6.37101">
        <ele>2823.6000976562</ele>
        <time>2014-01-11T10:39:48.000Z</time>
      </trkpt>
      <trkpt lat="45.18257" lon="6.37101">
        <ele>2823.6000976562</ele>
        <time>2014-01-11T10:39:49.000Z</time>
      </trkpt>
      <trkpt lat="45.18257" lon="6.37101">
        <ele>2823.8000488281</ele>
        <time>2014-01-11T10:39:50.000Z</time>
      </trkpt>
      <trkpt lat="45.18257" lon="6.37101">
        <ele>2823.8000488281</ele>
        <time>2014-01-11T10:39:51.000Z</time>
      </trkpt>
      <trkpt lat="45.18257" lon="6.37101">
        <ele>2823.8000488281</ele>
        <time>2014-01-11T10:39:52.000Z</time>
      </trkpt>
      <trkpt lat="45.18257" lon="6.37101">
        <ele>2823.8000488281</ele>
        <time>2014-01-11T10:39:53.000Z</time>
      </trkpt>
      <trkpt lat="45.18257" lon="6.37101">
        <ele>2823.8000488281</ele>
        <time>2014-01-11T10:39:54.000Z</time>
      </trkpt>
      <trkpt lat="45.18257" lon="6.37101">
        <ele>2824</ele>
        <time>2014-01-11T10:39:55.000Z</time>
      </trkpt>
      <trkpt lat="45.18257" lon="6.37101">
        <ele>2824</ele>
        <time>2014-01-11T10:39:56.000Z</time>
      </trkpt>
      <trkpt lat="45.18257" lon="6.37101">
        <ele>2824</ele>
        <time>2014-01-11T10:39:57.000Z</time>
      </trkpt>
      <trkpt lat="45.18257" lon="6.37101">
        <ele>2824</ele>
        <time>2014-01-11T10:39:58.000Z</time>
      </trkpt>
      <trkpt lat="45.18257" lon="6.37101">
        <ele>2824</ele>
        <time>2014-01-11T10:39:59.000Z</time>
      </trkpt>
      <trkpt lat="45.18257" lon="6.37101">
        <ele>2824</ele>
        <time>2014-01-11T10:40:01.000Z</time>
      </trkpt>
      <trkpt lat="45.18257" lon="6.37101">
        <ele>2824</ele>
        <time>2014-01-11T10:40:03.000Z</time>
      </trkpt>
      <trkpt lat="45.18257" lon="6.37101">
        <ele>2823.8000488281</ele>
        <time>2014-01-11T10:40:04.000Z</time>
      </trkpt>
      <trkpt lat="45.18257" lon="6.37101">
        <ele>2823.8000488281</ele>
        <time>2014-01-11T10:40:05.000Z</time>
      </trkpt>
      <trkpt lat="45.18257" lon="6.37101">
        <ele>2824</ele>
        <time>2014-01-11T10:40:06.000Z</time>
      </trkpt>
      <trkpt lat="45.18257" lon="6.37101">
        <ele>2824</ele>
        <time>2014-01-11T10:40:07.000Z</time>
      </trkpt>
      <trkpt lat="45.18257" lon="6.37101">
        <ele>2824</ele>
        <time>2014-01-11T10:40:12.000Z</time>
      </trkpt>
      <trkpt lat="45.18257" lon="6.37101">
        <ele>2823.8000488281</ele>
        <time>2014-01-11T10:40:13.000Z</time>
      </trkpt>
      <trkpt lat="45.18257" lon="6.37101">
        <ele>2823.8000488281</ele>
        <time>2014-01-11T10:40:14.000Z</time>
      </trkpt>
      <trkpt lat="45.18257" lon="6.37101">
        <ele>2823.8000488281</ele>
        <time>2014-01-11T10:40:15.000Z</time>
      </trkpt>
      <trkpt lat="45.18257" lon="6.37101">
        <ele>2823.8000488281</ele>
        <time>2014-01-11T10:40:16.000Z</time>
      </trkpt>
      <trkpt lat="45.18257" lon="6.37101">
        <ele>2823.8000488281</ele>
        <time>2014-01-11T10:40:17.000Z</time>
      </trkpt>
      <trkpt lat="45.18257" lon="6.37101">
        <ele>2823.8000488281</ele>
        <time>2014-01-11T10:40:18.000Z</time>
      </trkpt>
      <trkpt lat="45.18257" lon="6.37101">
        <ele>2824</ele>
        <time>2014-01-11T10:40:19.000Z</time>
      </trkpt>
      <trkpt lat="45.18257" lon="6.37101">
        <ele>2824</ele>
        <time>2014-01-11T10:40:20.000Z</time>
      </trkpt>
      <trkpt lat="45.18257" lon="6.37101">
        <ele>2824</ele>
        <time>2014-01-11T10:40:21.000Z</time>
      </trkpt>
      <trkpt lat="45.18257" lon="6.37101">
        <ele>2824</ele>
        <time>2014-01-11T10:40:22.000Z</time>
      </trkpt>
      <trkpt lat="45.18257" lon="6.37101">
        <ele>2823.8000488281</ele>
        <time>2014-01-11T10:40:23.000Z</time>
      </trkpt>
      <trkpt lat="45.18257" lon="6.37101">
        <ele>2823.8000488281</ele>
        <time>2014-01-11T10:40:24.000Z</time>
      </trkpt>
      <trkpt lat="45.18257" lon="6.37101">
        <ele>2823.8000488281</ele>
        <time>2014-01-11T10:40:25.000Z</time>
      </trkpt>
      <trkpt lat="45.18257" lon="6.37101">
        <ele>2823.8000488281</ele>
        <time>2014-01-11T10:40:26.000Z</time>
      </trkpt>
      <trkpt lat="45.18257" lon="6.37101">
        <ele>2823.6000976562</ele>
        <time>2014-01-11T10:40:27.000Z</time>
      </trkpt>
      <trkpt lat="45.18257" lon="6.37101">
        <ele>2823.6000976562</ele>
        <time>2014-01-11T10:40:28.000Z</time>
      </trkpt>
      <trkpt lat="45.18257" lon="6.37101">
        <ele>2823.6000976562</ele>
        <time>2014-01-11T10:40:29.000Z</time>
      </trkpt>
      <trkpt lat="45.18257" lon="6.37101">
        <ele>2823.6000976562</ele>
        <time>2014-01-11T10:40:30.000Z</time>
      </trkpt>
      <trkpt lat="45.18257" lon="6.37101">
        <ele>2823.6000976562</ele>
        <time>2014-01-11T10:40:33.000Z</time>
      </trkpt>
      <trkpt lat="45.18257" lon="6.37101">
        <ele>2823.8000488281</ele>
        <time>2014-01-11T10:40:34.000Z</time>
      </trkpt>
      <trkpt lat="45.18257" lon="6.37101">
        <ele>2823.8000488281</ele>
        <time>2014-01-11T10:40:35.000Z</time>
      </trkpt>
      <trkpt lat="45.18257" lon="6.37101">
        <ele>2823.8000488281</ele>
        <time>2014-01-11T10:40:36.000Z</time>
      </trkpt>
      <trkpt lat="45.18257" lon="6.37101">
        <ele>2824</ele>
        <time>2014-01-11T10:40:37.000Z</time>
      </trkpt>
      <trkpt lat="45.18257" lon="6.37101">
        <ele>2824</ele>
        <time>2014-01-11T10:40:38.000Z</time>
      </trkpt>
      <trkpt lat="45.18257" lon="6.37101">
        <ele>2824.1999511719</ele>
        <time>2014-01-11T10:40:39.000Z</time>
      </trkpt>
      <trkpt lat="45.18257" lon="6.37101">
        <ele>2824.1999511719</ele>
        <time>2014-01-11T10:40:40.000Z</time>
      </trkpt>
      <trkpt lat="45.18257" lon="6.37101">
        <ele>2824.1999511719</ele>
        <time>2014-01-11T10:40:41.000Z</time>
      </trkpt>
      <trkpt lat="45.18257" lon="6.37101">
        <ele>2824</ele>
        <time>2014-01-11T10:40:42.000Z</time>
      </trkpt>
      <trkpt lat="45.18257" lon="6.37101">
        <ele>2824</ele>
        <time>2014-01-11T10:40:43.000Z</time>
      </trkpt>
      <trkpt lat="45.18257" lon="6.37101">
        <ele>2824</ele>
        <time>2014-01-11T10:40:44.000Z</time>
      </trkpt>
      <trkpt lat="45.18257" lon="6.37101">
        <ele>2824</ele>
        <time>2014-01-11T10:40:45.000Z</time>
      </trkpt>
      <trkpt lat="45.18257" lon="6.37101">
        <ele>2824</ele>
        <time>2014-01-11T10:40:46.000Z</time>
      </trkpt>
      <trkpt lat="45.18257" lon="6.37101">
        <ele>2824</ele>
        <time>2014-01-11T10:40:47.000Z</time>
      </trkpt>
      <trkpt lat="45.18257" lon="6.37101">
        <ele>2824</ele>
        <time>2014-01-11T10:40:48.000Z</time>
      </trkpt>
      <trkpt lat="45.18257" lon="6.37101">
        <ele>2824</ele>
        <time>2014-01-11T10:40:49.000Z</time>
      </trkpt>
      <trkpt lat="45.18257" lon="6.37101">
        <ele>2824.1999511719</ele>
        <time>2014-01-11T10:40:50.000Z</time>
      </trkpt>
      <trkpt lat="45.18257" lon="6.37101">
        <ele>2824.1999511719</ele>
        <time>2014-01-11T10:40:51.000Z</time>
      </trkpt>
      <trkpt lat="45.18257" lon="6.37101">
        <ele>2824.3999023438</ele>
        <time>2014-01-11T10:40:52.000Z</time>
      </trkpt>
      <trkpt lat="45.18257" lon="6.37101">
        <ele>2824.3999023438</ele>
        <time>2014-01-11T10:40:53.000Z</time>
      </trkpt>
      <trkpt lat="45.18257" lon="6.37101">
        <ele>2824.3999023438</ele>
        <time>2014-01-11T10:40:54.000Z</time>
      </trkpt>
      <trkpt lat="45.18257" lon="6.37101">
        <ele>2824.1999511719</ele>
        <time>2014-01-11T10:40:55.000Z</time>
      </trkpt>
      <trkpt lat="45.18257" lon="6.37101">
        <ele>2824.1999511719</ele>
        <time>2014-01-11T10:40:56.000Z</time>
      </trkpt>
      <trkpt lat="45.18257" lon="6.37101">
        <ele>2824.1999511719</ele>
        <time>2014-01-11T10:40:57.000Z</time>
      </trkpt>
      <trkpt lat="45.18257" lon="6.37101">
        <ele>2824</ele>
        <time>2014-01-11T10:40:58.000Z</time>
      </trkpt>
      <trkpt lat="45.18257" lon="6.37101">
        <ele>2824</ele>
        <time>2014-01-11T10:40:59.000Z</time>
      </trkpt>
      <trkpt lat="45.18257" lon="6.37101">
        <ele>2824</ele>
        <time>2014-01-11T10:41:00.000Z</time>
      </trkpt>
      <trkpt lat="45.18257" lon="6.37101">
        <ele>2824</ele>
        <time>2014-01-11T10:41:01.000Z</time>
      </trkpt>
      <trkpt lat="45.18257" lon="6.37101">
        <ele>2823.8000488281</ele>
        <time>2014-01-11T10:41:02.000Z</time>
      </trkpt>
      <trkpt lat="45.18257" lon="6.37101">
        <ele>2824</ele>
        <time>2014-01-11T10:41:04.000Z</time>
      </trkpt>
      <trkpt lat="45.18257" lon="6.37101">
        <ele>2824</ele>
        <time>2014-01-11T10:41:05.000Z</time>
      </trkpt>
      <trkpt lat="45.18257" lon="6.37101">
        <ele>2824</ele>
        <time>2014-01-11T10:41:06.000Z</time>
      </trkpt>
      <trkpt lat="45.18257" lon="6.37101">
        <ele>2824</ele>
        <time>2014-01-11T10:41:07.000Z</time>
      </trkpt>
      <trkpt lat="45.18257" lon="6.37101">
        <ele>2824</ele>
        <time>2014-01-11T10:41:08.000Z</time>
      </trkpt>
      <trkpt lat="45.18257" lon="6.37101">
        <ele>2824</ele>
        <time>2014-01-11T10:41:09.000Z</time>
      </trkpt>
      <trkpt lat="45.18257" lon="6.37101">
        <ele>2824</ele>
        <time>2014-01-11T10:41:10.000Z</time>
      </trkpt>
      <trkpt lat="45.18257" lon="6.37101">
        <ele>2824</ele>
        <time>2014-01-11T10:41:11.000Z</time>
      </trkpt>
      <trkpt lat="45.18257" lon="6.37101">
        <ele>2823.8000488281</ele>
        <time>2014-01-11T10:41:12.000Z</time>
      </trkpt>
      <trkpt lat="45.18257" lon="6.37101">
        <ele>2823.8000488281</ele>
        <time>2014-01-11T10:41:13.000Z</time>
      </trkpt>
      <trkpt lat="45.18257" lon="6.37101">
        <ele>2823.8000488281</ele>
        <time>2014-01-11T10:41:14.000Z</time>
      </trkpt>
      <trkpt lat="45.18257" lon="6.37101">
        <ele>2823.6000976562</ele>
        <time>2014-01-11T10:41:15.000Z</time>
      </trkpt>
      <trkpt lat="45.18257" lon="6.37101">
        <ele>2823.6000976562</ele>
        <time>2014-01-11T10:41:16.000Z</time>
      </trkpt>
      <trkpt lat="45.18257" lon="6.37101">
        <ele>2823.6000976562</ele>
        <time>2014-01-11T10:41:18.000Z</time>
      </trkpt>
      <trkpt lat="45.18257" lon="6.37101">
        <ele>2823.6000976562</ele>
        <time>2014-01-11T10:41:19.000Z</time>
      </trkpt>
      <trkpt lat="45.18257" lon="6.37101">
        <ele>2823.6000976562</ele>
        <time>2014-01-11T10:41:20.000Z</time>
      </trkpt>
      <trkpt lat="45.18257" lon="6.37101">
        <ele>2823.6000976562</ele>
        <time>2014-01-11T10:41:21.000Z</time>
      </trkpt>
      <trkpt lat="45.18257" lon="6.37101">
        <ele>2823.6000976562</ele>
        <time>2014-01-11T10:41:22.000Z</time>
      </trkpt>
      <trkpt lat="45.18257" lon="6.37101">
        <ele>2823.3999023438</ele>
        <time>2014-01-11T10:41:23.000Z</time>
      </trkpt>
      <trkpt lat="45.18257" lon="6.37101">
        <ele>2823.3999023438</ele>
        <time>2014-01-11T10:41:24.000Z</time>
      </trkpt>
      <trkpt lat="45.18257" lon="6.37101">
        <ele>2823.3999023438</ele>
        <time>2014-01-11T10:41:25.000Z</time>
      </trkpt>
      <trkpt lat="45.18257" lon="6.37101">
        <ele>2823.3999023438</ele>
        <time>2014-01-11T10:41:26.000Z</time>
      </trkpt>
      <trkpt lat="45.18257" lon="6.37101">
        <ele>2823.1999511719</ele>
        <time>2014-01-11T10:41:27.000Z</time>
      </trkpt>
      <trkpt lat="45.18257" lon="6.37101">
        <ele>2823.1999511719</ele>
        <time>2014-01-11T10:41:28.000Z</time>
      </trkpt>
      <trkpt lat="45.18257" lon="6.37101">
        <ele>2823.1999511719</ele>
        <time>2014-01-11T10:41:29.000Z</time>
      </trkpt>
      <trkpt lat="45.18257" lon="6.37101">
        <ele>2823.1999511719</ele>
        <time>2014-01-11T10:41:30.000Z</time>
      </trkpt>
      <trkpt lat="45.18257" lon="6.37101">
        <ele>2823.1999511719</ele>
        <time>2014-01-11T10:41:31.000Z</time>
      </trkpt>
      <trkpt lat="45.18257" lon="6.37101">
        <ele>2823.1999511719</ele>
        <time>2014-01-11T10:41:32.000Z</time>
      </trkpt>
      <trkpt lat="45.18257" lon="6.37101">
        <ele>2823.3999023438</ele>
        <time>2014-01-11T10:41:33.000Z</time>
      </trkpt>
      <trkpt lat="45.18257" lon="6.37101">
        <ele>2823.3999023438</ele>
        <time>2014-01-11T10:41:34.000Z</time>
      </trkpt>
      <trkpt lat="45.18257" lon="6.37101">
        <ele>2823.3999023438</ele>
        <time>2014-01-11T10:41:35.000Z</time>
      </trkpt>
      <trkpt lat="45.18257" lon="6.37101">
        <ele>2823.6000976562</ele>
        <time>2014-01-11T10:41:36.000Z</time>
      </trkpt>
      <trkpt lat="45.18257" lon="6.37101">
        <ele>2823.6000976562</ele>
        <time>2014-01-11T10:41:37.000Z</time>
      </trkpt>
      <trkpt lat="45.18257" lon="6.37101">
        <ele>2823.8000488281</ele>
        <time>2014-01-11T10:41:38.000Z</time>
      </trkpt>
      <trkpt lat="45.18257" lon="6.37101">
        <ele>2824</ele>
        <time>2014-01-11T10:41:39.000Z</time>
      </trkpt>
      <trkpt lat="45.18257" lon="6.37101">
        <ele>2824</ele>
        <time>2014-01-11T10:41:40.000Z</time>
      </trkpt>
      <trkpt lat="45.18257" lon="6.37101">
        <ele>2824.1999511719</ele>
        <time>2014-01-11T10:41:41.000Z</time>
      </trkpt>
      <trkpt lat="45.18257" lon="6.37101">
        <ele>2824.1999511719</ele>
        <time>2014-01-11T10:41:42.000Z</time>
      </trkpt>
      <trkpt lat="45.18257" lon="6.37101">
        <ele>2824.3999023438</ele>
        <time>2014-01-11T10:41:43.000Z</time>
      </trkpt>
      <trkpt lat="45.18257" lon="6.37101">
        <ele>2824.3999023438</ele>
        <time>2014-01-11T10:41:44.000Z</time>
      </trkpt>
      <trkpt lat="45.18257" lon="6.37101">
        <ele>2824.3999023438</ele>
        <time>2014-01-11T10:41:45.000Z</time>
      </trkpt>
      <trkpt lat="45.18257" lon="6.37101">
        <ele>2824.6000976562</ele>
        <time>2014-01-11T10:41:46.000Z</time>
      </trkpt>
      <trkpt lat="45.18257" lon="6.37101">
        <ele>2824.6000976562</ele>
        <time>2014-01-11T10:41:47.000Z</time>
      </trkpt>
      <trkpt lat="45.18257" lon="6.37101">
        <ele>2824.6000976562</ele>
        <time>2014-01-11T10:41:48.000Z</time>
      </trkpt>
      <trkpt lat="45.18257" lon="6.37101">
        <ele>2824.6000976562</ele>
        <time>2014-01-11T10:41:50.000Z</time>
      </trkpt>
      <trkpt lat="45.18257" lon="6.37101">
        <ele>2824.3999023438</ele>
        <time>2014-01-11T10:41:51.000Z</time>
      </trkpt>
      <trkpt lat="45.18257" lon="6.37101">
        <ele>2824.1999511719</ele>
        <time>2014-01-11T10:41:52.000Z</time>
      </trkpt>
      <trkpt lat="45.18257" lon="6.37101">
        <ele>2824.1999511719</ele>
        <time>2014-01-11T10:41:53.000Z</time>
      </trkpt>
      <trkpt lat="45.18257" lon="6.37101">
        <ele>2824.1999511719</ele>
        <time>2014-01-11T10:41:54.000Z</time>
      </trkpt>
      <trkpt lat="45.18257" lon="6.37101">
        <ele>2824.1999511719</ele>
        <time>2014-01-11T10:41:55.000Z</time>
      </trkpt>
      <trkpt lat="45.18257" lon="6.37101">
        <ele>2824.1999511719</ele>
        <time>2014-01-11T10:41:56.000Z</time>
      </trkpt>
      <trkpt lat="45.18257" lon="6.37101">
        <ele>2824.1999511719</ele>
        <time>2014-01-11T10:41:57.000Z</time>
      </trkpt>
      <trkpt lat="45.18257" lon="6.37101">
        <ele>2824.1999511719</ele>
        <time>2014-01-11T10:41:58.000Z</time>
      </trkpt>
      <trkpt lat="45.18257" lon="6.37101">
        <ele>2824.1999511719</ele>
        <time>2014-01-11T10:41:59.000Z</time>
      </trkpt>
      <trkpt lat="45.18257" lon="6.37101">
        <ele>2824.1999511719</ele>
        <time>2014-01-11T10:42:00.000Z</time>
      </trkpt>
      <trkpt lat="45.18257" lon="6.37101">
        <ele>2824.1999511719</ele>
        <time>2014-01-11T10:42:01.000Z</time>
      </trkpt>
      <trkpt lat="45.18257" lon="6.37101">
        <ele>2824.1999511719</ele>
        <time>2014-01-11T10:42:02.000Z</time>
      </trkpt>
      <trkpt lat="45.18257" lon="6.37101">
        <ele>2824.1999511719</ele>
        <time>2014-01-11T10:42:03.000Z</time>
      </trkpt>
      <trkpt lat="45.18257" lon="6.37101">
        <ele>2824.1999511719</ele>
        <time>2014-01-11T10:42:04.000Z</time>
      </trkpt>
      <trkpt lat="45.18257" lon="6.37101">
        <ele>2824.1999511719</ele>
        <time>2014-01-11T10:42:05.000Z</time>
      </trkpt>
      <trkpt lat="45.18257" lon="6.37101">
        <ele>2824.1999511719</ele>
        <time>2014-01-11T10:42:06.000Z</time>
      </trkpt>
      <trkpt lat="45.18257" lon="6.37101">
        <ele>2824.1999511719</ele>
        <time>2014-01-11T10:42:07.000Z</time>
      </trkpt>
      <trkpt lat="45.18257" lon="6.37101">
        <ele>2824</ele>
        <time>2014-01-11T10:42:08.000Z</time>
      </trkpt>
      <trkpt lat="45.18257" lon="6.37101">
        <ele>2824</ele>
        <time>2014-01-11T10:42:09.000Z</time>
      </trkpt>
      <trkpt lat="45.18257" lon="6.37101">
        <ele>2824</ele>
        <time>2014-01-11T10:42:10.000Z</time>
      </trkpt>
      <trkpt lat="45.18257" lon="6.37101">
        <ele>2824</ele>
        <time>2014-01-11T10:42:11.000Z</time>
      </trkpt>
      <trkpt lat="45.18257" lon="6.37101">
        <ele>2824</ele>
        <time>2014-01-11T10:42:12.000Z</time>
      </trkpt>
      <trkpt lat="45.18257" lon="6.37101">
        <ele>2824</ele>
        <time>2014-01-11T10:42:14.000Z</time>
      </trkpt>
      <trkpt lat="45.18257" lon="6.37101">
        <ele>2824.1999511719</ele>
        <time>2014-01-11T10:42:15.000Z</time>
      </trkpt>
      <trkpt lat="45.18257" lon="6.37101">
        <ele>2824.1999511719</ele>
        <time>2014-01-11T10:42:16.000Z</time>
      </trkpt>
      <trkpt lat="45.18257" lon="6.37101">
        <ele>2824.1999511719</ele>
        <time>2014-01-11T10:42:17.000Z</time>
      </trkpt>
      <trkpt lat="45.18257" lon="6.37101">
        <ele>2824.1999511719</ele>
        <time>2014-01-11T10:42:18.000Z</time>
      </trkpt>
      <trkpt lat="45.18257" lon="6.37101">
        <ele>2824.1999511719</ele>
        <time>2014-01-11T10:42:20.000Z</time>
      </trkpt>
      <trkpt lat="45.18257" lon="6.37101">
        <ele>2824</ele>
        <time>2014-01-11T10:42:21.000Z</time>
      </trkpt>
      <trkpt lat="45.18257" lon="6.37101">
        <ele>2823.8000488281</ele>
        <time>2014-01-11T10:42:22.000Z</time>
      </trkpt>
      <trkpt lat="45.18257" lon="6.37101">
        <ele>2823.8000488281</ele>
        <time>2014-01-11T10:42:23.000Z</time>
      </trkpt>
      <trkpt lat="45.18257" lon="6.37101">
        <ele>2823.6000976562</ele>
        <time>2014-01-11T10:42:24.000Z</time>
      </trkpt>
      <trkpt lat="45.18257" lon="6.37101">
        <ele>2823.6000976562</ele>
        <time>2014-01-11T10:42:25.000Z</time>
      </trkpt>
      <trkpt lat="45.18257" lon="6.37101">
        <ele>2823.6000976562</ele>
        <time>2014-01-11T10:42:26.000Z</time>
      </trkpt>
      <trkpt lat="45.18257" lon="6.37101">
        <ele>2823.3999023438</ele>
        <time>2014-01-11T10:42:27.000Z</time>
      </trkpt>
      <trkpt lat="45.18257" lon="6.37101">
        <ele>2823.3999023438</ele>
        <time>2014-01-11T10:42:28.000Z</time>
      </trkpt>
      <trkpt lat="45.18257" lon="6.37101">
        <ele>2823.3999023438</ele>
        <time>2014-01-11T10:42:29.000Z</time>
      </trkpt>
      <trkpt lat="45.18257" lon="6.37101">
        <ele>2823.3999023438</ele>
        <time>2014-01-11T10:42:31.000Z</time>
      </trkpt>
      <trkpt lat="45.18257" lon="6.37101">
        <ele>2823.3999023438</ele>
        <time>2014-01-11T10:42:32.000Z</time>
      </trkpt>
      <trkpt lat="45.18257" lon="6.37101">
        <ele>2823.6000976562</ele>
        <time>2014-01-11T10:42:33.000Z</time>
      </trkpt>
      <trkpt lat="45.18257" lon="6.37101">
        <ele>2823.6000976562</ele>
        <time>2014-01-11T10:42:34.000Z</time>
      </trkpt>
      <trkpt lat="45.18257" lon="6.37101">
        <ele>2823.8000488281</ele>
        <time>2014-01-11T10:42:35.000Z</time>
      </trkpt>
      <trkpt lat="45.18257" lon="6.37101">
        <ele>2823.8000488281</ele>
        <time>2014-01-11T10:42:36.000Z</time>
      </trkpt>
      <trkpt lat="45.18257" lon="6.37101">
        <ele>2823.8000488281</ele>
        <time>2014-01-11T10:42:37.000Z</time>
      </trkpt>
      <trkpt lat="45.18257" lon="6.37101">
        <ele>2823.8000488281</ele>
        <time>2014-01-11T10:42:39.000Z</time>
      </trkpt>
      <trkpt lat="45.18257" lon="6.37101">
        <ele>2823.8000488281</ele>
        <time>2014-01-11T10:42:40.000Z</time>
      </trkpt>
      <trkpt lat="45.18257" lon="6.37101">
        <ele>2823.8000488281</ele>
        <time>2014-01-11T10:42:41.000Z</time>
      </trkpt>
      <trkpt lat="45.18257" lon="6.37101">
        <ele>2823.8000488281</ele>
        <time>2014-01-11T10:42:42.000Z</time>
      </trkpt>
      <trkpt lat="45.18257" lon="6.37101">
        <ele>2824</ele>
        <time>2014-01-11T10:42:43.000Z</time>
      </trkpt>
      <trkpt lat="45.18257" lon="6.37101">
        <ele>2824</ele>
        <time>2014-01-11T10:42:44.000Z</time>
      </trkpt>
      <trkpt lat="45.18257" lon="6.37101">
        <ele>2824</ele>
        <time>2014-01-11T10:42:45.000Z</time>
      </trkpt>
      <trkpt lat="45.18257" lon="6.37101">
        <ele>2824.1999511719</ele>
        <time>2014-01-11T10:42:46.000Z</time>
      </trkpt>
      <trkpt lat="45.18257" lon="6.37101">
        <ele>2824.1999511719</ele>
        <time>2014-01-11T10:42:47.000Z</time>
      </trkpt>
      <trkpt lat="45.18257" lon="6.37101">
        <ele>2824.1999511719</ele>
        <time>2014-01-11T10:42:48.000Z</time>
      </trkpt>
      <trkpt lat="45.18256" lon="6.37102">
        <ele>2824.3999023438</ele>
        <time>2014-01-11T10:42:49.000Z</time>
      </trkpt>
      <trkpt lat="45.18256" lon="6.37102">
        <ele>2824.3999023438</ele>
        <time>2014-01-11T10:42:50.000Z</time>
      </trkpt>
      <trkpt lat="45.18256" lon="6.37102">
        <ele>2824.6000976562</ele>
        <time>2014-01-11T10:42:51.000Z</time>
      </trkpt>
      <trkpt lat="45.18255" lon="6.37102">
        <ele>2824.6000976562</ele>
        <time>2014-01-11T10:42:52.000Z</time>
      </trkpt>
      <trkpt lat="45.18253" lon="6.37104">
        <ele>2824.6000976562</ele>
        <time>2014-01-11T10:42:53.000Z</time>
      </trkpt>
      <trkpt lat="45.18252" lon="6.37105">
        <ele>2824.6000976562</ele>
        <time>2014-01-11T10:42:54.000Z</time>
      </trkpt>
      <trkpt lat="45.18251" lon="6.37106">
        <ele>2824.6000976562</ele>
        <time>2014-01-11T10:42:55.000Z</time>
      </trkpt>
      <trkpt lat="45.1825" lon="6.37108">
        <ele>2824.3999023438</ele>
        <time>2014-01-11T10:42:56.000Z</time>
      </trkpt>
      <trkpt lat="45.1825" lon="6.3711">
        <ele>2824.3999023438</ele>
        <time>2014-01-11T10:42:57.000Z</time>
      </trkpt>
      <trkpt lat="45.1825" lon="6.37112">
        <ele>2824.1999511719</ele>
        <time>2014-01-11T10:42:58.000Z</time>
      </trkpt>
      <trkpt lat="45.18249" lon="6.37113">
        <ele>2823.8000488281</ele>
        <time>2014-01-11T10:42:59.000Z</time>
      </trkpt>
      <trkpt lat="45.18249" lon="6.37114">
        <ele>2823.6000976562</ele>
        <time>2014-01-11T10:43:00.000Z</time>
      </trkpt>
      <trkpt lat="45.18248" lon="6.37116">
        <ele>2823.3999023438</ele>
        <time>2014-01-11T10:43:01.000Z</time>
      </trkpt>
      <trkpt lat="45.18248" lon="6.37119">
        <ele>2823.1999511719</ele>
        <time>2014-01-11T10:43:02.000Z</time>
      </trkpt>
      <trkpt lat="45.18247" lon="6.37122">
        <ele>2823</ele>
        <time>2014-01-11T10:43:03.000Z</time>
      </trkpt>
      <trkpt lat="45.18246" lon="6.37123">
        <ele>2823</ele>
        <time>2014-01-11T10:43:04.000Z</time>
      </trkpt>
      <trkpt lat="45.18245" lon="6.37124">
        <ele>2823</ele>
        <time>2014-01-11T10:43:05.000Z</time>
      </trkpt>
      <trkpt lat="45.18245" lon="6.37124">
        <ele>2822.8000488281</ele>
        <time>2014-01-11T10:43:06.000Z</time>
      </trkpt>
      <trkpt lat="45.18245" lon="6.37124">
        <ele>2822.8000488281</ele>
        <time>2014-01-11T10:43:07.000Z</time>
      </trkpt>
      <trkpt lat="45.18245" lon="6.37124">
        <ele>2822.6000976562</ele>
        <time>2014-01-11T10:43:08.000Z</time>
      </trkpt>
      <trkpt lat="45.18245" lon="6.37124">
        <ele>2822.6000976562</ele>
        <time>2014-01-11T10:43:09.000Z</time>
      </trkpt>
      <trkpt lat="45.18245" lon="6.37124">
        <ele>2822.6000976562</ele>
        <time>2014-01-11T10:43:10.000Z</time>
      </trkpt>
      <trkpt lat="45.18245" lon="6.37124">
        <ele>2822.3999023438</ele>
        <time>2014-01-11T10:43:11.000Z</time>
      </trkpt>
      <trkpt lat="45.18245" lon="6.37124">
        <ele>2822.3999023438</ele>
        <time>2014-01-11T10:43:12.000Z</time>
      </trkpt>
      <trkpt lat="45.18245" lon="6.37124">
        <ele>2822.3999023438</ele>
        <time>2014-01-11T10:43:15.000Z</time>
      </trkpt>
      <trkpt lat="45.18244" lon="6.37124">
        <ele>2822.3999023438</ele>
        <time>2014-01-11T10:43:18.000Z</time>
      </trkpt>
      <trkpt lat="45.18244" lon="6.37125">
        <ele>2822.3999023438</ele>
        <time>2014-01-11T10:43:19.000Z</time>
      </trkpt>
      <trkpt lat="45.18243" lon="6.37126">
        <ele>2822.3999023438</ele>
        <time>2014-01-11T10:43:20.000Z</time>
      </trkpt>
      <trkpt lat="45.18241" lon="6.37127">
        <ele>2822.3999023438</ele>
        <time>2014-01-11T10:43:21.000Z</time>
      </trkpt>
      <trkpt lat="45.18239" lon="6.37129">
        <ele>2822.3999023438</ele>
        <time>2014-01-11T10:43:22.000Z</time>
      </trkpt>
      <trkpt lat="45.18236" lon="6.37131">
        <ele>2822.3999023438</ele>
        <time>2014-01-11T10:43:23.000Z</time>
      </trkpt>
      <trkpt lat="45.18234" lon="6.37134">
        <ele>2822.1999511719</ele>
        <time>2014-01-11T10:43:24.000Z</time>
      </trkpt>
      <trkpt lat="45.18232" lon="6.37136">
        <ele>2822</ele>
        <time>2014-01-11T10:43:25.000Z</time>
      </trkpt>
      <trkpt lat="45.18231" lon="6.37136">
        <ele>2821.8000488281</ele>
        <time>2014-01-11T10:43:26.000Z</time>
      </trkpt>
      <trkpt lat="45.1823" lon="6.37135">
        <ele>2821.3999023438</ele>
        <time>2014-01-11T10:43:27.000Z</time>
      </trkpt>
      <trkpt lat="45.18229" lon="6.37134">
        <ele>2821.1999511719</ele>
        <time>2014-01-11T10:43:28.000Z</time>
      </trkpt>
      <trkpt lat="45.18229" lon="6.37133">
        <ele>2821.1999511719</ele>
        <time>2014-01-11T10:43:29.000Z</time>
      </trkpt>
      <trkpt lat="45.18228" lon="6.37133">
        <ele>2821.1999511719</ele>
        <time>2014-01-11T10:43:30.000Z</time>
      </trkpt>
      <trkpt lat="45.18228" lon="6.37134">
        <ele>2821.1999511719</ele>
        <time>2014-01-11T10:43:31.000Z</time>
      </trkpt>
      <trkpt lat="45.18227" lon="6.37134">
        <ele>2821.3999023438</ele>
        <time>2014-01-11T10:43:32.000Z</time>
      </trkpt>
      <trkpt lat="45.18227" lon="6.37134">
        <ele>2821.3999023438</ele>
        <time>2014-01-11T10:43:33.000Z</time>
      </trkpt>
      <trkpt lat="45.18227" lon="6.37134">
        <ele>2821.3999023438</ele>
        <time>2014-01-11T10:43:34.000Z</time>
      </trkpt>
      <trkpt lat="45.18227" lon="6.37134">
        <ele>2821.3999023438</ele>
        <time>2014-01-11T10:43:35.000Z</time>
      </trkpt>
      <trkpt lat="45.18227" lon="6.37134">
        <ele>2821.1999511719</ele>
        <time>2014-01-11T10:43:36.000Z</time>
      </trkpt>
      <trkpt lat="45.18227" lon="6.37134">
        <ele>2821.1999511719</ele>
        <time>2014-01-11T10:43:37.000Z</time>
      </trkpt>
      <trkpt lat="45.18227" lon="6.37134">
        <ele>2821.1999511719</ele>
        <time>2014-01-11T10:43:38.000Z</time>
      </trkpt>
      <trkpt lat="45.18227" lon="6.37134">
        <ele>2821.1999511719</ele>
        <time>2014-01-11T10:43:39.000Z</time>
      </trkpt>
      <trkpt lat="45.18227" lon="6.37134">
        <ele>2821.1999511719</ele>
        <time>2014-01-11T10:43:41.000Z</time>
      </trkpt>
      <trkpt lat="45.18227" lon="6.37134">
        <ele>2821.3999023438</ele>
        <time>2014-01-11T10:43:42.000Z</time>
      </trkpt>
      <trkpt lat="45.18227" lon="6.37134">
        <ele>2821.3999023438</ele>
        <time>2014-01-11T10:43:43.000Z</time>
      </trkpt>
      <trkpt lat="45.18227" lon="6.37134">
        <ele>2821.3999023438</ele>
        <time>2014-01-11T10:43:44.000Z</time>
      </trkpt>
      <trkpt lat="45.18227" lon="6.37134">
        <ele>2821.3999023438</ele>
        <time>2014-01-11T10:43:45.000Z</time>
      </trkpt>
      <trkpt lat="45.18227" lon="6.37134">
        <ele>2821.3999023438</ele>
        <time>2014-01-11T10:43:46.000Z</time>
      </trkpt>
      <trkpt lat="45.18227" lon="6.37134">
        <ele>2821.3999023438</ele>
        <time>2014-01-11T10:43:47.000Z</time>
      </trkpt>
      <trkpt lat="45.18227" lon="6.37134">
        <ele>2821.3999023438</ele>
        <time>2014-01-11T10:43:49.000Z</time>
      </trkpt>
      <trkpt lat="45.18227" lon="6.37134">
        <ele>2821.6000976562</ele>
        <time>2014-01-11T10:43:50.000Z</time>
      </trkpt>
      <trkpt lat="45.18227" lon="6.37134">
        <ele>2821.6000976562</ele>
        <time>2014-01-11T10:43:51.000Z</time>
      </trkpt>
      <trkpt lat="45.18227" lon="6.37134">
        <ele>2821.6000976562</ele>
        <time>2014-01-11T10:43:52.000Z</time>
      </trkpt>
      <trkpt lat="45.18227" lon="6.37134">
        <ele>2821.6000976562</ele>
        <time>2014-01-11T10:43:53.000Z</time>
      </trkpt>
      <trkpt lat="45.18227" lon="6.37134">
        <ele>2821.6000976562</ele>
        <time>2014-01-11T10:43:55.000Z</time>
      </trkpt>
      <trkpt lat="45.18227" lon="6.37134">
        <ele>2821.6000976562</ele>
        <time>2014-01-11T10:43:56.000Z</time>
      </trkpt>
      <trkpt lat="45.18227" lon="6.37134">
        <ele>2821.6000976562</ele>
        <time>2014-01-11T10:43:57.000Z</time>
      </trkpt>
      <trkpt lat="45.18227" lon="6.37134">
        <ele>2821.3999023438</ele>
        <time>2014-01-11T10:43:58.000Z</time>
      </trkpt>
      <trkpt lat="45.18227" lon="6.37134">
        <ele>2821.3999023438</ele>
        <time>2014-01-11T10:43:59.000Z</time>
      </trkpt>
      <trkpt lat="45.18228" lon="6.37133">
        <ele>2821.1999511719</ele>
        <time>2014-01-11T10:44:00.000Z</time>
      </trkpt>
      <trkpt lat="45.18228" lon="6.37131">
        <ele>2821.1999511719</ele>
        <time>2014-01-11T10:44:01.000Z</time>
      </trkpt>
      <trkpt lat="45.18229" lon="6.37128">
        <ele>2821</ele>
        <time>2014-01-11T10:44:02.000Z</time>
      </trkpt>
      <trkpt lat="45.1823" lon="6.37125">
        <ele>2821</ele>
        <time>2014-01-11T10:44:03.000Z</time>
      </trkpt>
      <trkpt lat="45.1823" lon="6.37123">
        <ele>2820.8000488281</ele>
        <time>2014-01-11T10:44:04.000Z</time>
      </trkpt>
      <trkpt lat="45.18228" lon="6.37121">
        <ele>2820.8000488281</ele>
        <time>2014-01-11T10:44:05.000Z</time>
      </trkpt>
      <trkpt lat="45.18226" lon="6.37121">
        <ele>2820.6000976562</ele>
        <time>2014-01-11T10:44:06.000Z</time>
      </trkpt>
      <trkpt lat="45.18224" lon="6.37121">
        <ele>2820.1999511719</ele>
        <time>2014-01-11T10:44:07.000Z</time>
      </trkpt>
      <trkpt lat="45.18223" lon="6.37119">
        <ele>2819.6000976562</ele>
        <time>2014-01-11T10:44:08.000Z</time>
      </trkpt>
      <trkpt lat="45.18224" lon="6.37116">
        <ele>2818.3999023438</ele>
        <time>2014-01-11T10:44:09.000Z</time>
      </trkpt>
      <trkpt lat="45.18224" lon="6.37112">
        <ele>2816.6000976562</ele>
        <time>2014-01-11T10:44:10.000Z</time>
      </trkpt>
      <trkpt lat="45.18223" lon="6.37109">
        <ele>2814.8000488281</ele>
        <time>2014-01-11T10:44:11.000Z</time>
      </trkpt>
      <trkpt lat="45.18222" lon="6.37108">
        <ele>2813.6000976562</ele>
        <time>2014-01-11T10:44:12.000Z</time>
      </trkpt>
      <trkpt lat="45.18222" lon="6.37108">
        <ele>2813</ele>
        <time>2014-01-11T10:44:13.000Z</time>
      </trkpt>
      <trkpt lat="45.18222" lon="6.37107">
        <ele>2812.1999511719</ele>
        <time>2014-01-11T10:44:14.000Z</time>
      </trkpt>
      <trkpt lat="45.18222" lon="6.37107">
        <ele>2809.3999023438</ele>
        <time>2014-01-11T10:44:15.000Z</time>
      </trkpt>
      <trkpt lat="45.18222" lon="6.37107">
        <ele>2807.8000488281</ele>
        <time>2014-01-11T10:44:16.000Z</time>
      </trkpt>
      <trkpt lat="45.1822" lon="6.37109">
        <ele>2806.6000976562</ele>
        <time>2014-01-11T10:44:17.000Z</time>
      </trkpt>
      <trkpt lat="45.1822" lon="6.3711">
        <ele>2806</ele>
        <time>2014-01-11T10:44:18.000Z</time>
      </trkpt>
      <trkpt lat="45.1822" lon="6.37111">
        <ele>2805.6000976562</ele>
        <time>2014-01-11T10:44:19.000Z</time>
      </trkpt>
      <trkpt lat="45.1822" lon="6.37111">
        <ele>2805.3999023438</ele>
        <time>2014-01-11T10:44:20.000Z</time>
      </trkpt>
      <trkpt lat="45.1822" lon="6.37111">
        <ele>2805.1999511719</ele>
        <time>2014-01-11T10:44:21.000Z</time>
      </trkpt>
      <trkpt lat="45.1822" lon="6.37111">
        <ele>2805</ele>
        <time>2014-01-11T10:44:22.000Z</time>
      </trkpt>
      <trkpt lat="45.1822" lon="6.37111">
        <ele>2804.8000488281</ele>
        <time>2014-01-11T10:44:23.000Z</time>
      </trkpt>
      <trkpt lat="45.1822" lon="6.37111">
        <ele>2804.8000488281</ele>
        <time>2014-01-11T10:44:24.000Z</time>
      </trkpt>
      <trkpt lat="45.1822" lon="6.37111">
        <ele>2804.6000976562</ele>
        <time>2014-01-11T10:44:25.000Z</time>
      </trkpt>
      <trkpt lat="45.1822" lon="6.37111">
        <ele>2804.6000976562</ele>
        <time>2014-01-11T10:44:26.000Z</time>
      </trkpt>
      <trkpt lat="45.1822" lon="6.37111">
        <ele>2804.6000976562</ele>
        <time>2014-01-11T10:44:27.000Z</time>
      </trkpt>
      <trkpt lat="45.18219" lon="6.37111">
        <ele>2804.6000976562</ele>
        <time>2014-01-11T10:44:28.000Z</time>
      </trkpt>
      <trkpt lat="45.18219" lon="6.37111">
        <ele>2804.6000976562</ele>
        <time>2014-01-11T10:44:29.000Z</time>
      </trkpt>
      <trkpt lat="45.18218" lon="6.37111">
        <ele>2804.6000976562</ele>
        <time>2014-01-11T10:44:30.000Z</time>
      </trkpt>
      <trkpt lat="45.18219" lon="6.37107">
        <ele>2804.3999023438</ele>
        <time>2014-01-11T10:44:31.000Z</time>
      </trkpt>
      <trkpt lat="45.18219" lon="6.37103">
        <ele>2804.3999023438</ele>
        <time>2014-01-11T10:44:32.000Z</time>
      </trkpt>
      <trkpt lat="45.18219" lon="6.37102">
        <ele>2804.1999511719</ele>
        <time>2014-01-11T10:44:33.000Z</time>
      </trkpt>
      <trkpt lat="45.18218" lon="6.37101">
        <ele>2804</ele>
        <time>2014-01-11T10:44:34.000Z</time>
      </trkpt>
      <trkpt lat="45.18218" lon="6.37101">
        <ele>2803.6000976562</ele>
        <time>2014-01-11T10:44:35.000Z</time>
      </trkpt>
      <trkpt lat="45.18218" lon="6.37102">
        <ele>2803.1999511719</ele>
        <time>2014-01-11T10:44:36.000Z</time>
      </trkpt>
      <trkpt lat="45.18218" lon="6.37102">
        <ele>2802.8000488281</ele>
        <time>2014-01-11T10:44:37.000Z</time>
      </trkpt>
      <trkpt lat="45.18216" lon="6.37101">
        <ele>2802.1999511719</ele>
        <time>2014-01-11T10:44:38.000Z</time>
      </trkpt>
      <trkpt lat="45.18212" lon="6.37102">
        <ele>2801.3999023438</ele>
        <time>2014-01-11T10:44:39.000Z</time>
      </trkpt>
      <trkpt lat="45.18209" lon="6.37104">
        <ele>2801</ele>
        <time>2014-01-11T10:44:40.000Z</time>
      </trkpt>
      <trkpt lat="45.18207" lon="6.37106">
        <ele>2800.6000976562</ele>
        <time>2014-01-11T10:44:41.000Z</time>
      </trkpt>
      <trkpt lat="45.18206" lon="6.37106">
        <ele>2799.6000976562</ele>
        <time>2014-01-11T10:44:42.000Z</time>
      </trkpt>
      <trkpt lat="45.18205" lon="6.37104">
        <ele>2798.1999511719</ele>
        <time>2014-01-11T10:44:43.000Z</time>
      </trkpt>
      <trkpt lat="45.18205" lon="6.37101">
        <ele>2796.8000488281</ele>
        <time>2014-01-11T10:44:44.000Z</time>
      </trkpt>
      <trkpt lat="45.18205" lon="6.371">
        <ele>2795.6000976562</ele>
        <time>2014-01-11T10:44:45.000Z</time>
      </trkpt>
      <trkpt lat="45.18205" lon="6.371">
        <ele>2794.8000488281</ele>
        <time>2014-01-11T10:44:46.000Z</time>
      </trkpt>
      <trkpt lat="45.18205" lon="6.37099">
        <ele>2794</ele>
        <time>2014-01-11T10:44:47.000Z</time>
      </trkpt>
      <trkpt lat="45.18204" lon="6.37098">
        <ele>2793.1999511719</ele>
        <time>2014-01-11T10:44:48.000Z</time>
      </trkpt>
      <trkpt lat="45.18201" lon="6.37098">
        <ele>2792.6000976562</ele>
        <time>2014-01-11T10:44:49.000Z</time>
      </trkpt>
      <trkpt lat="45.18199" lon="6.371">
        <ele>2792</ele>
        <time>2014-01-11T10:44:50.000Z</time>
      </trkpt>
      <trkpt lat="45.18197" lon="6.37102">
        <ele>2791.6000976562</ele>
        <time>2014-01-11T10:44:51.000Z</time>
      </trkpt>
      <trkpt lat="45.18196" lon="6.37103">
        <ele>2791</ele>
        <time>2014-01-11T10:44:52.000Z</time>
      </trkpt>
      <trkpt lat="45.18196" lon="6.37104">
        <ele>2790</ele>
        <time>2014-01-11T10:44:53.000Z</time>
      </trkpt>
      <trkpt lat="45.18195" lon="6.37105">
        <ele>2788.8000488281</ele>
        <time>2014-01-11T10:44:54.000Z</time>
      </trkpt>
      <trkpt lat="45.18195" lon="6.37105">
        <ele>2788</ele>
        <time>2014-01-11T10:44:55.000Z</time>
      </trkpt>
      <trkpt lat="45.18195" lon="6.37102">
        <ele>2787.1999511719</ele>
        <time>2014-01-11T10:44:56.000Z</time>
      </trkpt>
      <trkpt lat="45.18195" lon="6.371">
        <ele>2786.8000488281</ele>
        <time>2014-01-11T10:44:57.000Z</time>
      </trkpt>
      <trkpt lat="45.18195" lon="6.371">
        <ele>2786.1999511719</ele>
        <time>2014-01-11T10:44:58.000Z</time>
      </trkpt>
      <trkpt lat="45.18195" lon="6.37099">
        <ele>2785.8000488281</ele>
        <time>2014-01-11T10:44:59.000Z</time>
      </trkpt>
      <trkpt lat="45.18195" lon="6.37099">
        <ele>2785.1999511719</ele>
        <time>2014-01-11T10:45:00.000Z</time>
      </trkpt>
      <trkpt lat="45.18195" lon="6.371">
        <ele>2784.6000976562</ele>
        <time>2014-01-11T10:45:01.000Z</time>
      </trkpt>
      <trkpt lat="45.18196" lon="6.371">
        <ele>2783.8000488281</ele>
        <time>2014-01-11T10:45:02.000Z</time>
      </trkpt>
      <trkpt lat="45.18196" lon="6.371">
        <ele>2783</ele>
        <time>2014-01-11T10:45:03.000Z</time>
      </trkpt>
      <trkpt lat="45.18197" lon="6.37101">
        <ele>2782.8000488281</ele>
        <time>2014-01-11T10:45:04.000Z</time>
      </trkpt>
      <trkpt lat="45.18197" lon="6.37101">
        <ele>2782.6000976562</ele>
        <time>2014-01-11T10:45:05.000Z</time>
      </trkpt>
      <trkpt lat="45.18196" lon="6.37099">
        <ele>2782.3999023438</ele>
        <time>2014-01-11T10:45:06.000Z</time>
      </trkpt>
      <trkpt lat="45.18194" lon="6.37099">
        <ele>2782.3999023438</ele>
        <time>2014-01-11T10:45:07.000Z</time>
      </trkpt>
      <trkpt lat="45.18192" lon="6.37099">
        <ele>2782.3999023438</ele>
        <time>2014-01-11T10:45:08.000Z</time>
      </trkpt>
      <trkpt lat="45.1819" lon="6.37099">
        <ele>2782.1999511719</ele>
        <time>2014-01-11T10:45:09.000Z</time>
      </trkpt>
      <trkpt lat="45.1819" lon="6.37098">
        <ele>2781.8000488281</ele>
        <time>2014-01-11T10:45:10.000Z</time>
      </trkpt>
      <trkpt lat="45.18189" lon="6.37098">
        <ele>2781</ele>
        <time>2014-01-11T10:45:11.000Z</time>
      </trkpt>
      <trkpt lat="45.18189" lon="6.37094">
        <ele>2780</ele>
        <time>2014-01-11T10:45:12.000Z</time>
      </trkpt>
      <trkpt lat="45.18191" lon="6.3709">
        <ele>2779.1999511719</ele>
        <time>2014-01-11T10:45:13.000Z</time>
      </trkpt>
      <trkpt lat="45.18193" lon="6.37086">
        <ele>2778.3999023438</ele>
        <time>2014-01-11T10:45:14.000Z</time>
      </trkpt>
      <trkpt lat="45.18194" lon="6.37085">
        <ele>2777.6000976562</ele>
        <time>2014-01-11T10:45:15.000Z</time>
      </trkpt>
      <trkpt lat="45.18195" lon="6.37085">
        <ele>2777</ele>
        <time>2014-01-11T10:45:16.000Z</time>
      </trkpt>
      <trkpt lat="45.18195" lon="6.37085">
        <ele>2776.1999511719</ele>
        <time>2014-01-11T10:45:17.000Z</time>
      </trkpt>
      <trkpt lat="45.18196" lon="6.37085">
        <ele>2775.3999023438</ele>
        <time>2014-01-11T10:45:18.000Z</time>
      </trkpt>
      <trkpt lat="45.18195" lon="6.37084">
        <ele>2774.6000976562</ele>
        <time>2014-01-11T10:45:19.000Z</time>
      </trkpt>
      <trkpt lat="45.18192" lon="6.37083">
        <ele>2774.1999511719</ele>
        <time>2014-01-11T10:45:20.000Z</time>
      </trkpt>
      <trkpt lat="45.18189" lon="6.37084">
        <ele>2773.8000488281</ele>
        <time>2014-01-11T10:45:21.000Z</time>
      </trkpt>
      <trkpt lat="45.18187" lon="6.37084">
        <ele>2773.3999023438</ele>
        <time>2014-01-11T10:45:22.000Z</time>
      </trkpt>
      <trkpt lat="45.18187" lon="6.37084">
        <ele>2773</ele>
        <time>2014-01-11T10:45:23.000Z</time>
      </trkpt>
      <trkpt lat="45.18186" lon="6.37084">
        <ele>2772.1999511719</ele>
        <time>2014-01-11T10:45:24.000Z</time>
      </trkpt>
      <trkpt lat="45.18186" lon="6.37084">
        <ele>2771.1999511719</ele>
        <time>2014-01-11T10:45:25.000Z</time>
      </trkpt>
      <trkpt lat="45.18186" lon="6.3708">
        <ele>2770.1999511719</ele>
        <time>2014-01-11T10:45:26.000Z</time>
      </trkpt>
      <trkpt lat="45.18187" lon="6.37078">
        <ele>2769</ele>
        <time>2014-01-11T10:45:27.000Z</time>
      </trkpt>
      <trkpt lat="45.18188" lon="6.37077">
        <ele>2768.3999023438</ele>
        <time>2014-01-11T10:45:28.000Z</time>
      </trkpt>
      <trkpt lat="45.18186" lon="6.37075">
        <ele>2767.8000488281</ele>
        <time>2014-01-11T10:45:29.000Z</time>
      </trkpt>
      <trkpt lat="45.18183" lon="6.37074">
        <ele>2767.3999023438</ele>
        <time>2014-01-11T10:45:30.000Z</time>
      </trkpt>
      <trkpt lat="45.1818" lon="6.37075">
        <ele>2766.8000488281</ele>
        <time>2014-01-11T10:45:31.000Z</time>
      </trkpt>
      <trkpt lat="45.18178" lon="6.37077">
        <ele>2766.1999511719</ele>
        <time>2014-01-11T10:45:32.000Z</time>
      </trkpt>
      <trkpt lat="45.18177" lon="6.37079">
        <ele>2765.3999023438</ele>
        <time>2014-01-11T10:45:33.000Z</time>
      </trkpt>
      <trkpt lat="45.18177" lon="6.3708">
        <ele>2764.3999023438</ele>
        <time>2014-01-11T10:45:34.000Z</time>
      </trkpt>
      <trkpt lat="45.18176" lon="6.37081">
        <ele>2763.1999511719</ele>
        <time>2014-01-11T10:45:35.000Z</time>
      </trkpt>
      <trkpt lat="45.18175" lon="6.37083">
        <ele>2762.3999023438</ele>
        <time>2014-01-11T10:45:36.000Z</time>
      </trkpt>
      <trkpt lat="45.18175" lon="6.37084">
        <ele>2761.8000488281</ele>
        <time>2014-01-11T10:45:37.000Z</time>
      </trkpt>
      <trkpt lat="45.18175" lon="6.37086">
        <ele>2761.3999023438</ele>
        <time>2014-01-11T10:45:38.000Z</time>
      </trkpt>
      <trkpt lat="45.18174" lon="6.37088">
        <ele>2761.1999511719</ele>
        <time>2014-01-11T10:45:39.000Z</time>
      </trkpt>
      <trkpt lat="45.18172" lon="6.3709">
        <ele>2761</ele>
        <time>2014-01-11T10:45:40.000Z</time>
      </trkpt>
      <trkpt lat="45.1817" lon="6.37093">
        <ele>2761</ele>
        <time>2014-01-11T10:45:41.000Z</time>
      </trkpt>
      <trkpt lat="45.18168" lon="6.37095">
        <ele>2760.8000488281</ele>
        <time>2014-01-11T10:45:42.000Z</time>
      </trkpt>
      <trkpt lat="45.18166" lon="6.37096">
        <ele>2760.6000976562</ele>
        <time>2014-01-11T10:45:43.000Z</time>
      </trkpt>
      <trkpt lat="45.18164" lon="6.37095">
        <ele>2760.3999023438</ele>
        <time>2014-01-11T10:45:44.000Z</time>
      </trkpt>
      <trkpt lat="45.1816" lon="6.37095">
        <ele>2760</ele>
        <time>2014-01-11T10:45:45.000Z</time>
      </trkpt>
      <trkpt lat="45.18156" lon="6.37095">
        <ele>2759.8000488281</ele>
        <time>2014-01-11T10:45:46.000Z</time>
      </trkpt>
      <trkpt lat="45.18152" lon="6.37095">
        <ele>2759.3999023438</ele>
        <time>2014-01-11T10:45:47.000Z</time>
      </trkpt>
      <trkpt lat="45.18148" lon="6.37097">
        <ele>2758.8000488281</ele>
        <time>2014-01-11T10:45:48.000Z</time>
      </trkpt>
      <trkpt lat="45.18144" lon="6.371">
        <ele>2758.1999511719</ele>
        <time>2014-01-11T10:45:49.000Z</time>
      </trkpt>
      <trkpt lat="45.18142" lon="6.37102">
        <ele>2757.3999023438</ele>
        <time>2014-01-11T10:45:50.000Z</time>
      </trkpt>
      <trkpt lat="45.18141" lon="6.37103">
        <ele>2755.1999511719</ele>
        <time>2014-01-11T10:45:51.000Z</time>
      </trkpt>
      <trkpt lat="45.18142" lon="6.37102">
        <ele>2754.1999511719</ele>
        <time>2014-01-11T10:45:52.000Z</time>
      </trkpt>
      <trkpt lat="45.18142" lon="6.37102">
        <ele>2753.6000976562</ele>
        <time>2014-01-11T10:45:53.000Z</time>
      </trkpt>
      <trkpt lat="45.18142" lon="6.37102">
        <ele>2753.1999511719</ele>
        <time>2014-01-11T10:45:54.000Z</time>
      </trkpt>
      <trkpt lat="45.18142" lon="6.37102">
        <ele>2753</ele>
        <time>2014-01-11T10:45:55.000Z</time>
      </trkpt>
      <trkpt lat="45.18142" lon="6.37102">
        <ele>2752.8000488281</ele>
        <time>2014-01-11T10:45:56.000Z</time>
      </trkpt>
      <trkpt lat="45.18142" lon="6.37102">
        <ele>2752.8000488281</ele>
        <time>2014-01-11T10:45:57.000Z</time>
      </trkpt>
      <trkpt lat="45.18142" lon="6.37102">
        <ele>2752.6000976562</ele>
        <time>2014-01-11T10:45:58.000Z</time>
      </trkpt>
      <trkpt lat="45.18141" lon="6.37102">
        <ele>2752.6000976562</ele>
        <time>2014-01-11T10:45:59.000Z</time>
      </trkpt>
      <trkpt lat="45.1814" lon="6.37101">
        <ele>2752.6000976562</ele>
        <time>2014-01-11T10:46:00.000Z</time>
      </trkpt>
      <trkpt lat="45.18139" lon="6.37099">
        <ele>2752.3999023438</ele>
        <time>2014-01-11T10:46:01.000Z</time>
      </trkpt>
      <trkpt lat="45.1814" lon="6.37095">
        <ele>2752.3999023438</ele>
        <time>2014-01-11T10:46:02.000Z</time>
      </trkpt>
      <trkpt lat="45.18141" lon="6.37092">
        <ele>2752.1999511719</ele>
        <time>2014-01-11T10:46:03.000Z</time>
      </trkpt>
      <trkpt lat="45.18141" lon="6.37092">
        <ele>2751.6000976562</ele>
        <time>2014-01-11T10:46:04.000Z</time>
      </trkpt>
      <trkpt lat="45.18141" lon="6.37092">
        <ele>2751.1999511719</ele>
        <time>2014-01-11T10:46:05.000Z</time>
      </trkpt>
      <trkpt lat="45.18141" lon="6.37092">
        <ele>2750.6000976562</ele>
        <time>2014-01-11T10:46:06.000Z</time>
      </trkpt>
      <trkpt lat="45.18137" lon="6.37089">
        <ele>2750</ele>
        <time>2014-01-11T10:46:07.000Z</time>
      </trkpt>
      <trkpt lat="45.18133" lon="6.37089">
        <ele>2749.6000976562</ele>
        <time>2014-01-11T10:46:08.000Z</time>
      </trkpt>
      <trkpt lat="45.18132" lon="6.3709">
        <ele>2749.1999511719</ele>
        <time>2014-01-11T10:46:09.000Z</time>
      </trkpt>
      <trkpt lat="45.18131" lon="6.37091">
        <ele>2748.8000488281</ele>
        <time>2014-01-11T10:46:10.000Z</time>
      </trkpt>
      <trkpt lat="45.18131" lon="6.37091">
        <ele>2748.1999511719</ele>
        <time>2014-01-11T10:46:11.000Z</time>
      </trkpt>
      <trkpt lat="45.18131" lon="6.37091">
        <ele>2747.3999023438</ele>
        <time>2014-01-11T10:46:12.000Z</time>
      </trkpt>
      <trkpt lat="45.18131" lon="6.37091">
        <ele>2746.3999023438</ele>
        <time>2014-01-11T10:46:13.000Z</time>
      </trkpt>
      <trkpt lat="45.18131" lon="6.37091">
        <ele>2745.6000976562</ele>
        <time>2014-01-11T10:46:14.000Z</time>
      </trkpt>
      <trkpt lat="45.18131" lon="6.37091">
        <ele>2745</ele>
        <time>2014-01-11T10:46:15.000Z</time>
      </trkpt>
      <trkpt lat="45.18131" lon="6.37091">
        <ele>2745</ele>
        <time>2014-01-11T10:46:16.000Z</time>
      </trkpt>
      <trkpt lat="45.18131" lon="6.37091">
        <ele>2744.8000488281</ele>
        <time>2014-01-11T10:46:17.000Z</time>
      </trkpt>
      <trkpt lat="45.18131" lon="6.37091">
        <ele>2744.8000488281</ele>
        <time>2014-01-11T10:46:18.000Z</time>
      </trkpt>
      <trkpt lat="45.18131" lon="6.37091">
        <ele>2744.8000488281</ele>
        <time>2014-01-11T10:46:21.000Z</time>
      </trkpt>
      <trkpt lat="45.18131" lon="6.3709">
        <ele>2744.8000488281</ele>
        <time>2014-01-11T10:46:23.000Z</time>
      </trkpt>
      <trkpt lat="45.18131" lon="6.37086">
        <ele>2744.8000488281</ele>
        <time>2014-01-11T10:46:24.000Z</time>
      </trkpt>
      <trkpt lat="45.18132" lon="6.37082">
        <ele>2744.6000976562</ele>
        <time>2014-01-11T10:46:25.000Z</time>
      </trkpt>
      <trkpt lat="45.1813" lon="6.37078">
        <ele>2744.3999023438</ele>
        <time>2014-01-11T10:46:26.000Z</time>
      </trkpt>
      <trkpt lat="45.18128" lon="6.37078">
        <ele>2744</ele>
        <time>2014-01-11T10:46:27.000Z</time>
      </trkpt>
      <trkpt lat="45.18126" lon="6.37075">
        <ele>2743.3999023438</ele>
        <time>2014-01-11T10:46:28.000Z</time>
      </trkpt>
      <trkpt lat="45.18126" lon="6.37071">
        <ele>2742.8000488281</ele>
        <time>2014-01-11T10:46:29.000Z</time>
      </trkpt>
      <trkpt lat="45.18127" lon="6.37067">
        <ele>2741.6000976562</ele>
        <time>2014-01-11T10:46:30.000Z</time>
      </trkpt>
      <trkpt lat="45.18126" lon="6.37063">
        <ele>2740</ele>
        <time>2014-01-11T10:46:31.000Z</time>
      </trkpt>
      <trkpt lat="45.18123" lon="6.37063">
        <ele>2738.3999023438</ele>
        <time>2014-01-11T10:46:32.000Z</time>
      </trkpt>
      <trkpt lat="45.1812" lon="6.37062">
        <ele>2737.1999511719</ele>
        <time>2014-01-11T10:46:33.000Z</time>
      </trkpt>
      <trkpt lat="45.18119" lon="6.37059">
        <ele>2736.1999511719</ele>
        <time>2014-01-11T10:46:34.000Z</time>
      </trkpt>
      <trkpt lat="45.18118" lon="6.37056">
        <ele>2735</ele>
        <time>2014-01-11T10:46:35.000Z</time>
      </trkpt>
      <trkpt lat="45.18119" lon="6.37052">
        <ele>2733.6000976562</ele>
        <time>2014-01-11T10:46:36.000Z</time>
      </trkpt>
      <trkpt lat="45.18119" lon="6.37047">
        <ele>2732</ele>
        <time>2014-01-11T10:46:37.000Z</time>
      </trkpt>
      <trkpt lat="45.18118" lon="6.37044">
        <ele>2730.3999023438</ele>
        <time>2014-01-11T10:46:38.000Z</time>
      </trkpt>
      <trkpt lat="45.18115" lon="6.37045">
        <ele>2728.1999511719</ele>
        <time>2014-01-11T10:46:39.000Z</time>
      </trkpt>
      <trkpt lat="45.18114" lon="6.37046">
        <ele>2727.1999511719</ele>
        <time>2014-01-11T10:46:40.000Z</time>
      </trkpt>
      <trkpt lat="45.18113" lon="6.37046">
        <ele>2725.8000488281</ele>
        <time>2014-01-11T10:46:41.000Z</time>
      </trkpt>
      <trkpt lat="45.18112" lon="6.37044">
        <ele>2724.3999023438</ele>
        <time>2014-01-11T10:46:42.000Z</time>
      </trkpt>
      <trkpt lat="45.18111" lon="6.37042">
        <ele>2723</ele>
        <time>2014-01-11T10:46:43.000Z</time>
      </trkpt>
      <trkpt lat="45.18111" lon="6.37037">
        <ele>2721.8000488281</ele>
        <time>2014-01-11T10:46:44.000Z</time>
      </trkpt>
      <trkpt lat="45.1811" lon="6.37034">
        <ele>2720.8000488281</ele>
        <time>2014-01-11T10:46:45.000Z</time>
      </trkpt>
      <trkpt lat="45.18108" lon="6.37031">
        <ele>2720</ele>
        <time>2014-01-11T10:46:46.000Z</time>
      </trkpt>
      <trkpt lat="45.18106" lon="6.37031">
        <ele>2719.1999511719</ele>
        <time>2014-01-11T10:46:47.000Z</time>
      </trkpt>
      <trkpt lat="45.18105" lon="6.37032">
        <ele>2718.1999511719</ele>
        <time>2014-01-11T10:46:48.000Z</time>
      </trkpt>
      <trkpt lat="45.18106" lon="6.37033">
        <ele>2716.8000488281</ele>
        <time>2014-01-11T10:46:49.000Z</time>
      </trkpt>
      <trkpt lat="45.18107" lon="6.37034">
        <ele>2715.3999023438</ele>
        <time>2014-01-11T10:46:50.000Z</time>
      </trkpt>
      <trkpt lat="45.18107" lon="6.37036">
        <ele>2714.1999511719</ele>
        <time>2014-01-11T10:46:51.000Z</time>
      </trkpt>
      <trkpt lat="45.18107" lon="6.37037">
        <ele>2713.1999511719</ele>
        <time>2014-01-11T10:46:52.000Z</time>
      </trkpt>
      <trkpt lat="45.18106" lon="6.37039">
        <ele>2712.8000488281</ele>
        <time>2014-01-11T10:46:53.000Z</time>
      </trkpt>
      <trkpt lat="45.18105" lon="6.3704">
        <ele>2712.6000976562</ele>
        <time>2014-01-11T10:46:54.000Z</time>
      </trkpt>
      <trkpt lat="45.18104" lon="6.37042">
        <ele>2712.3999023438</ele>
        <time>2014-01-11T10:46:55.000Z</time>
      </trkpt>
      <trkpt lat="45.18104" lon="6.37044">
        <ele>2712.1999511719</ele>
        <time>2014-01-11T10:46:56.000Z</time>
      </trkpt>
      <trkpt lat="45.18103" lon="6.37045">
        <ele>2712.1999511719</ele>
        <time>2014-01-11T10:46:57.000Z</time>
      </trkpt>
      <trkpt lat="45.18102" lon="6.37047">
        <ele>2712.1999511719</ele>
        <time>2014-01-11T10:46:58.000Z</time>
      </trkpt>
      <trkpt lat="45.181" lon="6.37049">
        <ele>2712</ele>
        <time>2014-01-11T10:46:59.000Z</time>
      </trkpt>
      <trkpt lat="45.18098" lon="6.37051">
        <ele>2711.8000488281</ele>
        <time>2014-01-11T10:47:00.000Z</time>
      </trkpt>
      <trkpt lat="45.18096" lon="6.37052">
        <ele>2711.6000976562</ele>
        <time>2014-01-11T10:47:01.000Z</time>
      </trkpt>
      <trkpt lat="45.18094" lon="6.37054">
        <ele>2711.3999023438</ele>
        <time>2014-01-11T10:47:02.000Z</time>
      </trkpt>
      <trkpt lat="45.1809" lon="6.37056">
        <ele>2711</ele>
        <time>2014-01-11T10:47:03.000Z</time>
      </trkpt>
      <trkpt lat="45.18088" lon="6.37058">
        <ele>2710.8000488281</ele>
        <time>2014-01-11T10:47:04.000Z</time>
      </trkpt>
      <trkpt lat="45.18085" lon="6.37059">
        <ele>2710.6000976562</ele>
        <time>2014-01-11T10:47:05.000Z</time>
      </trkpt>
      <trkpt lat="45.18082" lon="6.3706">
        <ele>2710.3999023438</ele>
        <time>2014-01-11T10:47:06.000Z</time>
      </trkpt>
      <trkpt lat="45.1808" lon="6.37061">
        <ele>2710</ele>
        <time>2014-01-11T10:47:07.000Z</time>
      </trkpt>
      <trkpt lat="45.18078" lon="6.37062">
        <ele>2709.8000488281</ele>
        <time>2014-01-11T10:47:08.000Z</time>
      </trkpt>
      <trkpt lat="45.18077" lon="6.37063">
        <ele>2709.3999023438</ele>
        <time>2014-01-11T10:47:09.000Z</time>
      </trkpt>
      <trkpt lat="45.18076" lon="6.37064">
        <ele>2709.1999511719</ele>
        <time>2014-01-11T10:47:10.000Z</time>
      </trkpt>
      <trkpt lat="45.18075" lon="6.37065">
        <ele>2708.8000488281</ele>
        <time>2014-01-11T10:47:11.000Z</time>
      </trkpt>
      <trkpt lat="45.18074" lon="6.37065">
        <ele>2708.6000976562</ele>
        <time>2014-01-11T10:47:12.000Z</time>
      </trkpt>
      <trkpt lat="45.18071" lon="6.37066">
        <ele>2708.3999023438</ele>
        <time>2014-01-11T10:47:13.000Z</time>
      </trkpt>
      <trkpt lat="45.18069" lon="6.37066">
        <ele>2708.3999023438</ele>
        <time>2014-01-11T10:47:14.000Z</time>
      </trkpt>
      <trkpt lat="45.18067" lon="6.37067">
        <ele>2708.1999511719</ele>
        <time>2014-01-11T10:47:15.000Z</time>
      </trkpt>
      <trkpt lat="45.18065" lon="6.37067">
        <ele>2708</ele>
        <time>2014-01-11T10:47:16.000Z</time>
      </trkpt>
      <trkpt lat="45.18063" lon="6.37068">
        <ele>2708</ele>
        <time>2014-01-11T10:47:17.000Z</time>
      </trkpt>
      <trkpt lat="45.18061" lon="6.37068">
        <ele>2707.8000488281</ele>
        <time>2014-01-11T10:47:18.000Z</time>
      </trkpt>
      <trkpt lat="45.18059" lon="6.37068">
        <ele>2707.6000976562</ele>
        <time>2014-01-11T10:47:19.000Z</time>
      </trkpt>
      <trkpt lat="45.18057" lon="6.37069">
        <ele>2707.3999023438</ele>
        <time>2014-01-11T10:47:20.000Z</time>
      </trkpt>
      <trkpt lat="45.18056" lon="6.37071">
        <ele>2707.1999511719</ele>
        <time>2014-01-11T10:47:21.000Z</time>
      </trkpt>
      <trkpt lat="45.18055" lon="6.37072">
        <ele>2707</ele>
        <time>2014-01-11T10:47:22.000Z</time>
      </trkpt>
      <trkpt lat="45.18054" lon="6.37072">
        <ele>2707</ele>
        <time>2014-01-11T10:47:23.000Z</time>
      </trkpt>
      <trkpt lat="45.18053" lon="6.37072">
        <ele>2706.8000488281</ele>
        <time>2014-01-11T10:47:24.000Z</time>
      </trkpt>
      <trkpt lat="45.18051" lon="6.37071">
        <ele>2706.6000976562</ele>
        <time>2014-01-11T10:47:25.000Z</time>
      </trkpt>
      <trkpt lat="45.18048" lon="6.37071">
        <ele>2706.6000976562</ele>
        <time>2014-01-11T10:47:26.000Z</time>
      </trkpt>
      <trkpt lat="45.18045" lon="6.37072">
        <ele>2706.3999023438</ele>
        <time>2014-01-11T10:47:27.000Z</time>
      </trkpt>
      <trkpt lat="45.18042" lon="6.37072">
        <ele>2706.1999511719</ele>
        <time>2014-01-11T10:47:28.000Z</time>
      </trkpt>
      <trkpt lat="45.18039" lon="6.37073">
        <ele>2706.1999511719</ele>
        <time>2014-01-11T10:47:29.000Z</time>
      </trkpt>
      <trkpt lat="45.18036" lon="6.37073">
        <ele>2706</ele>
        <time>2014-01-11T10:47:30.000Z</time>
      </trkpt>
      <trkpt lat="45.18033" lon="6.37074">
        <ele>2705.8000488281</ele>
        <time>2014-01-11T10:47:31.000Z</time>
      </trkpt>
      <trkpt lat="45.18029" lon="6.37074">
        <ele>2705.6000976562</ele>
        <time>2014-01-11T10:47:32.000Z</time>
      </trkpt>
      <trkpt lat="45.18026" lon="6.37074">
        <ele>2705.3999023438</ele>
        <time>2014-01-11T10:47:33.000Z</time>
      </trkpt>
      <trkpt lat="45.18022" lon="6.37075">
        <ele>2705</ele>
        <time>2014-01-11T10:47:34.000Z</time>
      </trkpt>
      <trkpt lat="45.18018" lon="6.37075">
        <ele>2704.8000488281</ele>
        <time>2014-01-11T10:47:35.000Z</time>
      </trkpt>
      <trkpt lat="45.18014" lon="6.37074">
        <ele>2704.6000976562</ele>
        <time>2014-01-11T10:47:36.000Z</time>
      </trkpt>
      <trkpt lat="45.18011" lon="6.37074">
        <ele>2704.1999511719</ele>
        <time>2014-01-11T10:47:37.000Z</time>
      </trkpt>
      <trkpt lat="45.18009" lon="6.37073">
        <ele>2704</ele>
        <time>2014-01-11T10:47:38.000Z</time>
      </trkpt>
      <trkpt lat="45.18006" lon="6.37072">
        <ele>2703.6000976562</ele>
        <time>2014-01-11T10:47:39.000Z</time>
      </trkpt>
      <trkpt lat="45.18004" lon="6.37072">
        <ele>2703.3999023438</ele>
        <time>2014-01-11T10:47:40.000Z</time>
      </trkpt>
      <trkpt lat="45.18003" lon="6.37071">
        <ele>2703</ele>
        <time>2014-01-11T10:47:41.000Z</time>
      </trkpt>
      <trkpt lat="45.18002" lon="6.37071">
        <ele>2702.8000488281</ele>
        <time>2014-01-11T10:47:42.000Z</time>
      </trkpt>
      <trkpt lat="45.18002" lon="6.37071">
        <ele>2702.6000976562</ele>
        <time>2014-01-11T10:47:43.000Z</time>
      </trkpt>
      <trkpt lat="45.18002" lon="6.37071">
        <ele>2702.3999023438</ele>
        <time>2014-01-11T10:47:44.000Z</time>
      </trkpt>
      <trkpt lat="45.18002" lon="6.37071">
        <ele>2702.1999511719</ele>
        <time>2014-01-11T10:47:45.000Z</time>
      </trkpt>
      <trkpt lat="45.18002" lon="6.37071">
        <ele>2702.1999511719</ele>
        <time>2014-01-11T10:47:46.000Z</time>
      </trkpt>
      <trkpt lat="45.18002" lon="6.37071">
        <ele>2702</ele>
        <time>2014-01-11T10:47:47.000Z</time>
      </trkpt>
      <trkpt lat="45.18002" lon="6.37071">
        <ele>2702</ele>
        <time>2014-01-11T10:47:48.000Z</time>
      </trkpt>
      <trkpt lat="45.18002" lon="6.37071">
        <ele>2702</ele>
        <time>2014-01-11T10:47:49.000Z</time>
      </trkpt>
      <trkpt lat="45.18" lon="6.37071">
        <ele>2702</ele>
        <time>2014-01-11T10:47:52.000Z</time>
      </trkpt>
      <trkpt lat="45.17999" lon="6.3707">
        <ele>2702</ele>
        <time>2014-01-11T10:47:53.000Z</time>
      </trkpt>
      <trkpt lat="45.17998" lon="6.3707">
        <ele>2702</ele>
        <time>2014-01-11T10:47:54.000Z</time>
      </trkpt>
      <trkpt lat="45.17996" lon="6.37071">
        <ele>2701.8000488281</ele>
        <time>2014-01-11T10:47:55.000Z</time>
      </trkpt>
      <trkpt lat="45.17995" lon="6.37071">
        <ele>2701.8000488281</ele>
        <time>2014-01-11T10:47:56.000Z</time>
      </trkpt>
      <trkpt lat="45.17995" lon="6.37071">
        <ele>2701.6000976562</ele>
        <time>2014-01-11T10:47:57.000Z</time>
      </trkpt>
      <trkpt lat="45.17993" lon="6.37071">
        <ele>2701.3999023438</ele>
        <time>2014-01-11T10:47:58.000Z</time>
      </trkpt>
      <trkpt lat="45.17991" lon="6.37071">
        <ele>2701.1999511719</ele>
        <time>2014-01-11T10:47:59.000Z</time>
      </trkpt>
      <trkpt lat="45.17988" lon="6.37071">
        <ele>2701</ele>
        <time>2014-01-11T10:48:00.000Z</time>
      </trkpt>
      <trkpt lat="45.17985" lon="6.37071">
        <ele>2700.8000488281</ele>
        <time>2014-01-11T10:48:01.000Z</time>
      </trkpt>
      <trkpt lat="45.17982" lon="6.37071">
        <ele>2700.3999023438</ele>
        <time>2014-01-11T10:48:02.000Z</time>
      </trkpt>
      <trkpt lat="45.17977" lon="6.37071">
        <ele>2700.1999511719</ele>
        <time>2014-01-11T10:48:03.000Z</time>
      </trkpt>
      <trkpt lat="45.17973" lon="6.37071">
        <ele>2700</ele>
        <time>2014-01-11T10:48:04.000Z</time>
      </trkpt>
      <trkpt lat="45.17968" lon="6.3707">
        <ele>2699.6000976562</ele>
        <time>2014-01-11T10:48:05.000Z</time>
      </trkpt>
      <trkpt lat="45.17963" lon="6.3707">
        <ele>2699.3999023438</ele>
        <time>2014-01-11T10:48:06.000Z</time>
      </trkpt>
      <trkpt lat="45.17959" lon="6.37069">
        <ele>2699</ele>
        <time>2014-01-11T10:48:07.000Z</time>
      </trkpt>
      <trkpt lat="45.17954" lon="6.37069">
        <ele>2698.3999023438</ele>
        <time>2014-01-11T10:48:08.000Z</time>
      </trkpt>
      <trkpt lat="45.1795" lon="6.37068">
        <ele>2697.8000488281</ele>
        <time>2014-01-11T10:48:09.000Z</time>
      </trkpt>
      <trkpt lat="45.17946" lon="6.37067">
        <ele>2697.3999023438</ele>
        <time>2014-01-11T10:48:10.000Z</time>
      </trkpt>
      <trkpt lat="45.17943" lon="6.37066">
        <ele>2696.8000488281</ele>
        <time>2014-01-11T10:48:11.000Z</time>
      </trkpt>
      <trkpt lat="45.1794" lon="6.37065">
        <ele>2696.1999511719</ele>
        <time>2014-01-11T10:48:12.000Z</time>
      </trkpt>
      <trkpt lat="45.17938" lon="6.37065">
        <ele>2695.6000976562</ele>
        <time>2014-01-11T10:48:13.000Z</time>
      </trkpt>
      <trkpt lat="45.17936" lon="6.37064">
        <ele>2695.1999511719</ele>
        <time>2014-01-11T10:48:14.000Z</time>
      </trkpt>
      <trkpt lat="45.17935" lon="6.37064">
        <ele>2694.1999511719</ele>
        <time>2014-01-11T10:48:15.000Z</time>
      </trkpt>
      <trkpt lat="45.17934" lon="6.37064">
        <ele>2694</ele>
        <time>2014-01-11T10:48:16.000Z</time>
      </trkpt>
      <trkpt lat="45.17933" lon="6.37064">
        <ele>2693.6000976562</ele>
        <time>2014-01-11T10:48:17.000Z</time>
      </trkpt>
      <trkpt lat="45.17933" lon="6.37064">
        <ele>2693.1999511719</ele>
        <time>2014-01-11T10:48:18.000Z</time>
      </trkpt>
      <trkpt lat="45.17932" lon="6.37064">
        <ele>2693</ele>
        <time>2014-01-11T10:48:19.000Z</time>
      </trkpt>
      <trkpt lat="45.17931" lon="6.37064">
        <ele>2692.8000488281</ele>
        <time>2014-01-11T10:48:20.000Z</time>
      </trkpt>
      <trkpt lat="45.1793" lon="6.37064">
        <ele>2692.6000976562</ele>
        <time>2014-01-11T10:48:21.000Z</time>
      </trkpt>
      <trkpt lat="45.17929" lon="6.37063">
        <ele>2692.3999023438</ele>
        <time>2014-01-11T10:48:22.000Z</time>
      </trkpt>
      <trkpt lat="45.17928" lon="6.37062">
        <ele>2692.1999511719</ele>
        <time>2014-01-11T10:48:23.000Z</time>
      </trkpt>
      <trkpt lat="45.17927" lon="6.3706">
        <ele>2692.1999511719</ele>
        <time>2014-01-11T10:48:24.000Z</time>
      </trkpt>
      <trkpt lat="45.17927" lon="6.37056">
        <ele>2692</ele>
        <time>2014-01-11T10:48:25.000Z</time>
      </trkpt>
      <trkpt lat="45.17924" lon="6.37052">
        <ele>2691.6000976562</ele>
        <time>2014-01-11T10:48:26.000Z</time>
      </trkpt>
      <trkpt lat="45.17922" lon="6.37048">
        <ele>2691.1999511719</ele>
        <time>2014-01-11T10:48:27.000Z</time>
      </trkpt>
      <trkpt lat="45.1792" lon="6.37042">
        <ele>2690.6000976562</ele>
        <time>2014-01-11T10:48:28.000Z</time>
      </trkpt>
      <trkpt lat="45.17917" lon="6.37039">
        <ele>2689.8000488281</ele>
        <time>2014-01-11T10:48:29.000Z</time>
      </trkpt>
      <trkpt lat="45.17913" lon="6.37034">
        <ele>2688.6000976562</ele>
        <time>2014-01-11T10:48:30.000Z</time>
      </trkpt>
      <trkpt lat="45.17913" lon="6.37025">
        <ele>2687</ele>
        <time>2014-01-11T10:48:31.000Z</time>
      </trkpt>
      <trkpt lat="45.17911" lon="6.37018">
        <ele>2685.3999023438</ele>
        <time>2014-01-11T10:48:32.000Z</time>
      </trkpt>
      <trkpt lat="45.17908" lon="6.37015">
        <ele>2683.6000976562</ele>
        <time>2014-01-11T10:48:33.000Z</time>
      </trkpt>
      <trkpt lat="45.17906" lon="6.37011">
        <ele>2681.8000488281</ele>
        <time>2014-01-11T10:48:34.000Z</time>
      </trkpt>
      <trkpt lat="45.17907" lon="6.37007">
        <ele>2680</ele>
        <time>2014-01-11T10:48:35.000Z</time>
      </trkpt>
      <trkpt lat="45.17909" lon="6.37002">
        <ele>2678</ele>
        <time>2014-01-11T10:48:36.000Z</time>
      </trkpt>
      <trkpt lat="45.17912" lon="6.36999">
        <ele>2676</ele>
        <time>2014-01-11T10:48:37.000Z</time>
      </trkpt>
      <trkpt lat="45.17915" lon="6.36997">
        <ele>2674.1999511719</ele>
        <time>2014-01-11T10:48:38.000Z</time>
      </trkpt>
      <trkpt lat="45.17915" lon="6.36992">
        <ele>2672</ele>
        <time>2014-01-11T10:48:39.000Z</time>
      </trkpt>
      <trkpt lat="45.17916" lon="6.36986">
        <ele>2671.1999511719</ele>
        <time>2014-01-11T10:48:40.000Z</time>
      </trkpt>
      <trkpt lat="45.17915" lon="6.3698">
        <ele>2670.1999511719</ele>
        <time>2014-01-11T10:48:41.000Z</time>
      </trkpt>
      <trkpt lat="45.17911" lon="6.36977">
        <ele>2669</ele>
        <time>2014-01-11T10:48:42.000Z</time>
      </trkpt>
      <trkpt lat="45.17908" lon="6.36973">
        <ele>2667.6000976562</ele>
        <time>2014-01-11T10:48:43.000Z</time>
      </trkpt>
      <trkpt lat="45.17906" lon="6.3697">
        <ele>2665.8000488281</ele>
        <time>2014-01-11T10:48:44.000Z</time>
      </trkpt>
      <trkpt lat="45.17905" lon="6.36965">
        <ele>2664</ele>
        <time>2014-01-11T10:48:45.000Z</time>
      </trkpt>
      <trkpt lat="45.17903" lon="6.3696">
        <ele>2662</ele>
        <time>2014-01-11T10:48:46.000Z</time>
      </trkpt>
      <trkpt lat="45.179" lon="6.36957">
        <ele>2660.3999023438</ele>
        <time>2014-01-11T10:48:47.000Z</time>
      </trkpt>
      <trkpt lat="45.17897" lon="6.36953">
        <ele>2659</ele>
        <time>2014-01-11T10:48:48.000Z</time>
      </trkpt>
      <trkpt lat="45.17897" lon="6.36949">
        <ele>2657.3999023438</ele>
        <time>2014-01-11T10:48:49.000Z</time>
      </trkpt>
      <trkpt lat="45.17897" lon="6.36945">
        <ele>2655.6000976562</ele>
        <time>2014-01-11T10:48:50.000Z</time>
      </trkpt>
      <trkpt lat="45.17897" lon="6.36941">
        <ele>2653.6000976562</ele>
        <time>2014-01-11T10:48:51.000Z</time>
      </trkpt>
      <trkpt lat="45.17896" lon="6.36936">
        <ele>2652</ele>
        <time>2014-01-11T10:48:52.000Z</time>
      </trkpt>
      <trkpt lat="45.17896" lon="6.36931">
        <ele>2650.6000976562</ele>
        <time>2014-01-11T10:48:53.000Z</time>
      </trkpt>
      <trkpt lat="45.17895" lon="6.36926">
        <ele>2649.1999511719</ele>
        <time>2014-01-11T10:48:54.000Z</time>
      </trkpt>
      <trkpt lat="45.17895" lon="6.36921">
        <ele>2647.3999023438</ele>
        <time>2014-01-11T10:48:55.000Z</time>
      </trkpt>
      <trkpt lat="45.17894" lon="6.36915">
        <ele>2645.6000976562</ele>
        <time>2014-01-11T10:48:56.000Z</time>
      </trkpt>
      <trkpt lat="45.17892" lon="6.36912">
        <ele>2644</ele>
        <time>2014-01-11T10:48:57.000Z</time>
      </trkpt>
      <trkpt lat="45.17891" lon="6.36911">
        <ele>2642.1999511719</ele>
        <time>2014-01-11T10:48:58.000Z</time>
      </trkpt>
      <trkpt lat="45.1789" lon="6.36909">
        <ele>2640.1999511719</ele>
        <time>2014-01-11T10:48:59.000Z</time>
      </trkpt>
      <trkpt lat="45.17889" lon="6.36908">
        <ele>2638.3999023438</ele>
        <time>2014-01-11T10:49:00.000Z</time>
      </trkpt>
      <trkpt lat="45.17889" lon="6.36908">
        <ele>2636.6000976562</ele>
        <time>2014-01-11T10:49:01.000Z</time>
      </trkpt>
      <trkpt lat="45.17889" lon="6.36908">
        <ele>2635</ele>
        <time>2014-01-11T10:49:02.000Z</time>
      </trkpt>
      <trkpt lat="45.17888" lon="6.36909">
        <ele>2633</ele>
        <time>2014-01-11T10:49:03.000Z</time>
      </trkpt>
      <trkpt lat="45.17889" lon="6.36909">
        <ele>2632.6000976562</ele>
        <time>2014-01-11T10:49:04.000Z</time>
      </trkpt>
      <trkpt lat="45.17889" lon="6.36909">
        <ele>2632</ele>
        <time>2014-01-11T10:49:05.000Z</time>
      </trkpt>
      <trkpt lat="45.17889" lon="6.36909">
        <ele>2631.8000488281</ele>
        <time>2014-01-11T10:49:06.000Z</time>
      </trkpt>
      <trkpt lat="45.17889" lon="6.36909">
        <ele>2631.6000976562</ele>
        <time>2014-01-11T10:49:07.000Z</time>
      </trkpt>
      <trkpt lat="45.17889" lon="6.3691">
        <ele>2631.3999023438</ele>
        <time>2014-01-11T10:49:08.000Z</time>
      </trkpt>
      <trkpt lat="45.17889" lon="6.3691">
        <ele>2631.3999023438</ele>
        <time>2014-01-11T10:49:09.000Z</time>
      </trkpt>
      <trkpt lat="45.1789" lon="6.36911">
        <ele>2631.3999023438</ele>
        <time>2014-01-11T10:49:10.000Z</time>
      </trkpt>
      <trkpt lat="45.1789" lon="6.36911">
        <ele>2631.3999023438</ele>
        <time>2014-01-11T10:49:11.000Z</time>
      </trkpt>
      <trkpt lat="45.17891" lon="6.36912">
        <ele>2631.3999023438</ele>
        <time>2014-01-11T10:49:12.000Z</time>
      </trkpt>
      <trkpt lat="45.17892" lon="6.36913">
        <ele>2631.3999023438</ele>
        <time>2014-01-11T10:49:13.000Z</time>
      </trkpt>
      <trkpt lat="45.1789" lon="6.36912">
        <ele>2631.1999511719</ele>
        <time>2014-01-11T10:49:15.000Z</time>
      </trkpt>
      <trkpt lat="45.17889" lon="6.3691">
        <ele>2631.1999511719</ele>
        <time>2014-01-11T10:49:16.000Z</time>
      </trkpt>
      <trkpt lat="45.17889" lon="6.36907">
        <ele>2631.1999511719</ele>
        <time>2014-01-11T10:49:17.000Z</time>
      </trkpt>
      <trkpt lat="45.1789" lon="6.36901">
        <ele>2631</ele>
        <time>2014-01-11T10:49:18.000Z</time>
      </trkpt>
      <trkpt lat="45.17888" lon="6.36897">
        <ele>2630.3999023438</ele>
        <time>2014-01-11T10:49:19.000Z</time>
      </trkpt>
      <trkpt lat="45.17887" lon="6.36893">
        <ele>2629.8000488281</ele>
        <time>2014-01-11T10:49:20.000Z</time>
      </trkpt>
      <trkpt lat="45.17888" lon="6.36887">
        <ele>2629</ele>
        <time>2014-01-11T10:49:21.000Z</time>
      </trkpt>
      <trkpt lat="45.17885" lon="6.36882">
        <ele>2628</ele>
        <time>2014-01-11T10:49:22.000Z</time>
      </trkpt>
      <trkpt lat="45.17883" lon="6.36879">
        <ele>2626.8000488281</ele>
        <time>2014-01-11T10:49:23.000Z</time>
      </trkpt>
      <trkpt lat="45.17884" lon="6.36873">
        <ele>2625.1999511719</ele>
        <time>2014-01-11T10:49:24.000Z</time>
      </trkpt>
      <trkpt lat="45.17882" lon="6.36868">
        <ele>2623.8000488281</ele>
        <time>2014-01-11T10:49:25.000Z</time>
      </trkpt>
      <trkpt lat="45.17878" lon="6.36865">
        <ele>2622.1999511719</ele>
        <time>2014-01-11T10:49:26.000Z</time>
      </trkpt>
      <trkpt lat="45.17876" lon="6.3686">
        <ele>2618.8000488281</ele>
        <time>2014-01-11T10:49:27.000Z</time>
      </trkpt>
      <trkpt lat="45.17876" lon="6.36855">
        <ele>2617</ele>
        <time>2014-01-11T10:49:28.000Z</time>
      </trkpt>
      <trkpt lat="45.17876" lon="6.36849">
        <ele>2615.1999511719</ele>
        <time>2014-01-11T10:49:29.000Z</time>
      </trkpt>
      <trkpt lat="45.17875" lon="6.36844">
        <ele>2613.3999023438</ele>
        <time>2014-01-11T10:49:30.000Z</time>
      </trkpt>
      <trkpt lat="45.17873" lon="6.36839">
        <ele>2611.6000976562</ele>
        <time>2014-01-11T10:49:31.000Z</time>
      </trkpt>
      <trkpt lat="45.17872" lon="6.36833">
        <ele>2610</ele>
        <time>2014-01-11T10:49:32.000Z</time>
      </trkpt>
      <trkpt lat="45.17869" lon="6.36828">
        <ele>2608.1999511719</ele>
        <time>2014-01-11T10:49:33.000Z</time>
      </trkpt>
      <trkpt lat="45.17867" lon="6.36822">
        <ele>2606.1999511719</ele>
        <time>2014-01-11T10:49:34.000Z</time>
      </trkpt>
      <trkpt lat="45.17865" lon="6.36818">
        <ele>2604.1999511719</ele>
        <time>2014-01-11T10:49:35.000Z</time>
      </trkpt>
      <trkpt lat="45.17864" lon="6.36813">
        <ele>2602</ele>
        <time>2014-01-11T10:49:36.000Z</time>
      </trkpt>
      <trkpt lat="45.17862" lon="6.36809">
        <ele>2599.8000488281</ele>
        <time>2014-01-11T10:49:37.000Z</time>
      </trkpt>
      <trkpt lat="45.1786" lon="6.36804">
        <ele>2597.6000976562</ele>
        <time>2014-01-11T10:49:38.000Z</time>
      </trkpt>
      <trkpt lat="45.17859" lon="6.36803">
        <ele>2595.6000976562</ele>
        <time>2014-01-11T10:49:39.000Z</time>
      </trkpt>
      <trkpt lat="45.17862" lon="6.36799">
        <ele>2593.3999023438</ele>
        <time>2014-01-11T10:49:40.000Z</time>
      </trkpt>
      <trkpt lat="45.17862" lon="6.36795">
        <ele>2591.1999511719</ele>
        <time>2014-01-11T10:49:41.000Z</time>
      </trkpt>
      <trkpt lat="45.17861" lon="6.36792">
        <ele>2589.3999023438</ele>
        <time>2014-01-11T10:49:42.000Z</time>
      </trkpt>
      <trkpt lat="45.17863" lon="6.36787">
        <ele>2587.6000976562</ele>
        <time>2014-01-11T10:49:43.000Z</time>
      </trkpt>
      <trkpt lat="45.17864" lon="6.36784">
        <ele>2585.8000488281</ele>
        <time>2014-01-11T10:49:44.000Z</time>
      </trkpt>
      <trkpt lat="45.17864" lon="6.36782">
        <ele>2584</ele>
        <time>2014-01-11T10:49:45.000Z</time>
      </trkpt>
      <trkpt lat="45.17865" lon="6.36783">
        <ele>2582.1999511719</ele>
        <time>2014-01-11T10:49:46.000Z</time>
      </trkpt>
      <trkpt lat="45.17866" lon="6.36785">
        <ele>2580.8000488281</ele>
        <time>2014-01-11T10:49:47.000Z</time>
      </trkpt>
      <trkpt lat="45.17866" lon="6.36785">
        <ele>2580</ele>
        <time>2014-01-11T10:49:48.000Z</time>
      </trkpt>
      <trkpt lat="45.17866" lon="6.36785">
        <ele>2579.3999023438</ele>
        <time>2014-01-11T10:49:49.000Z</time>
      </trkpt>
      <trkpt lat="45.17866" lon="6.36785">
        <ele>2578.8000488281</ele>
        <time>2014-01-11T10:49:50.000Z</time>
      </trkpt>
      <trkpt lat="45.17868" lon="6.36787">
        <ele>2578.3999023438</ele>
        <time>2014-01-11T10:49:51.000Z</time>
      </trkpt>
      <trkpt lat="45.1787" lon="6.36789">
        <ele>2578.3999023438</ele>
        <time>2014-01-11T10:49:52.000Z</time>
      </trkpt>
      <trkpt lat="45.17872" lon="6.36791">
        <ele>2578.3999023438</ele>
        <time>2014-01-11T10:49:53.000Z</time>
      </trkpt>
      <trkpt lat="45.17872" lon="6.36791">
        <ele>2578.3999023438</ele>
        <time>2014-01-11T10:49:54.000Z</time>
      </trkpt>
      <trkpt lat="45.17872" lon="6.36791">
        <ele>2578.3999023438</ele>
        <time>2014-01-11T10:49:55.000Z</time>
      </trkpt>
      <trkpt lat="45.17872" lon="6.36791">
        <ele>2578.3999023438</ele>
        <time>2014-01-11T10:49:56.000Z</time>
      </trkpt>
      <trkpt lat="45.17872" lon="6.36791">
        <ele>2578.1999511719</ele>
        <time>2014-01-11T10:49:57.000Z</time>
      </trkpt>
      <trkpt lat="45.17872" lon="6.36791">
        <ele>2578.1999511719</ele>
        <time>2014-01-11T10:49:58.000Z</time>
      </trkpt>
      <trkpt lat="45.17872" lon="6.36791">
        <ele>2578.1999511719</ele>
        <time>2014-01-11T10:49:59.000Z</time>
      </trkpt>
      <trkpt lat="45.17872" lon="6.36791">
        <ele>2578.1999511719</ele>
        <time>2014-01-11T10:50:02.000Z</time>
      </trkpt>
      <trkpt lat="45.17872" lon="6.36791">
        <ele>2578.1999511719</ele>
        <time>2014-01-11T10:50:03.000Z</time>
      </trkpt>
      <trkpt lat="45.17872" lon="6.36791">
        <ele>2578.1999511719</ele>
        <time>2014-01-11T10:50:04.000Z</time>
      </trkpt>
      <trkpt lat="45.17872" lon="6.36791">
        <ele>2578.1999511719</ele>
        <time>2014-01-11T10:50:07.000Z</time>
      </trkpt>
      <trkpt lat="45.17872" lon="6.36791">
        <ele>2578.1999511719</ele>
        <time>2014-01-11T10:50:11.000Z</time>
      </trkpt>
      <trkpt lat="45.17872" lon="6.36791">
        <ele>2578.1999511719</ele>
        <time>2014-01-11T10:50:12.000Z</time>
      </trkpt>
      <trkpt lat="45.17872" lon="6.36791">
        <ele>2578.1999511719</ele>
        <time>2014-01-11T10:50:13.000Z</time>
      </trkpt>
      <trkpt lat="45.17872" lon="6.36791">
        <ele>2578.1999511719</ele>
        <time>2014-01-11T10:50:14.000Z</time>
      </trkpt>
      <trkpt lat="45.17872" lon="6.36791">
        <ele>2578.1999511719</ele>
        <time>2014-01-11T10:50:15.000Z</time>
      </trkpt>
      <trkpt lat="45.17872" lon="6.36791">
        <ele>2578.1999511719</ele>
        <time>2014-01-11T10:50:17.000Z</time>
      </trkpt>
      <trkpt lat="45.17872" lon="6.36791">
        <ele>2578.1999511719</ele>
        <time>2014-01-11T10:50:18.000Z</time>
      </trkpt>
      <trkpt lat="45.17872" lon="6.36791">
        <ele>2578.3999023438</ele>
        <time>2014-01-11T10:50:19.000Z</time>
      </trkpt>
      <trkpt lat="45.17872" lon="6.36791">
        <ele>2578.3999023438</ele>
        <time>2014-01-11T10:50:20.000Z</time>
      </trkpt>
      <trkpt lat="45.17872" lon="6.36791">
        <ele>2578.3999023438</ele>
        <time>2014-01-11T10:50:21.000Z</time>
      </trkpt>
      <trkpt lat="45.17872" lon="6.36791">
        <ele>2578.3999023438</ele>
        <time>2014-01-11T10:50:22.000Z</time>
      </trkpt>
      <trkpt lat="45.17872" lon="6.36791">
        <ele>2578.3999023438</ele>
        <time>2014-01-11T10:50:23.000Z</time>
      </trkpt>
      <trkpt lat="45.17872" lon="6.36791">
        <ele>2578.3999023438</ele>
        <time>2014-01-11T10:50:25.000Z</time>
      </trkpt>
      <trkpt lat="45.17872" lon="6.36791">
        <ele>2578.3999023438</ele>
        <time>2014-01-11T10:50:26.000Z</time>
      </trkpt>
      <trkpt lat="45.17872" lon="6.36791">
        <ele>2578.3999023438</ele>
        <time>2014-01-11T10:50:27.000Z</time>
      </trkpt>
      <trkpt lat="45.17872" lon="6.36791">
        <ele>2578.3999023438</ele>
        <time>2014-01-11T10:50:28.000Z</time>
      </trkpt>
      <trkpt lat="45.17872" lon="6.36791">
        <ele>2578.3999023438</ele>
        <time>2014-01-11T10:50:29.000Z</time>
      </trkpt>
      <trkpt lat="45.17872" lon="6.36791">
        <ele>2578.6000976562</ele>
        <time>2014-01-11T10:50:30.000Z</time>
      </trkpt>
      <trkpt lat="45.17872" lon="6.36791">
        <ele>2578.3999023438</ele>
        <time>2014-01-11T10:50:34.000Z</time>
      </trkpt>
      <trkpt lat="45.17872" lon="6.36791">
        <ele>2578.1999511719</ele>
        <time>2014-01-11T10:50:35.000Z</time>
      </trkpt>
      <trkpt lat="45.17872" lon="6.36791">
        <ele>2578.1999511719</ele>
        <time>2014-01-11T10:50:36.000Z</time>
      </trkpt>
      <trkpt lat="45.17872" lon="6.36791">
        <ele>2578.1999511719</ele>
        <time>2014-01-11T10:50:37.000Z</time>
      </trkpt>
      <trkpt lat="45.17872" lon="6.36791">
        <ele>2578.1999511719</ele>
        <time>2014-01-11T10:50:38.000Z</time>
      </trkpt>
      <trkpt lat="45.17872" lon="6.36791">
        <ele>2578.1999511719</ele>
        <time>2014-01-11T10:50:39.000Z</time>
      </trkpt>
      <trkpt lat="45.17872" lon="6.36791">
        <ele>2578.1999511719</ele>
        <time>2014-01-11T10:50:41.000Z</time>
      </trkpt>
      <trkpt lat="45.17872" lon="6.36791">
        <ele>2578.1999511719</ele>
        <time>2014-01-11T10:50:42.000Z</time>
      </trkpt>
      <trkpt lat="45.17872" lon="6.36791">
        <ele>2578.1999511719</ele>
        <time>2014-01-11T10:50:45.000Z</time>
      </trkpt>
      <trkpt lat="45.17872" lon="6.36791">
        <ele>2578.1999511719</ele>
        <time>2014-01-11T10:50:47.000Z</time>
      </trkpt>
      <trkpt lat="45.17872" lon="6.36791">
        <ele>2578.1999511719</ele>
        <time>2014-01-11T10:50:48.000Z</time>
      </trkpt>
      <trkpt lat="45.17872" lon="6.36791">
        <ele>2578.1999511719</ele>
        <time>2014-01-11T10:50:49.000Z</time>
      </trkpt>
      <trkpt lat="45.17872" lon="6.36791">
        <ele>2578.1999511719</ele>
        <time>2014-01-11T10:50:50.000Z</time>
      </trkpt>
      <trkpt lat="45.17872" lon="6.36791">
        <ele>2578.1999511719</ele>
        <time>2014-01-11T10:50:51.000Z</time>
      </trkpt>
      <trkpt lat="45.17872" lon="6.36791">
        <ele>2578.1999511719</ele>
        <time>2014-01-11T10:50:52.000Z</time>
      </trkpt>
      <trkpt lat="45.17872" lon="6.36791">
        <ele>2578.1999511719</ele>
        <time>2014-01-11T10:50:53.000Z</time>
      </trkpt>
      <trkpt lat="45.17872" lon="6.36791">
        <ele>2578.1999511719</ele>
        <time>2014-01-11T10:50:54.000Z</time>
      </trkpt>
      <trkpt lat="45.17872" lon="6.36791">
        <ele>2578.1999511719</ele>
        <time>2014-01-11T10:50:56.000Z</time>
      </trkpt>
      <trkpt lat="45.17872" lon="6.36791">
        <ele>2578.1999511719</ele>
        <time>2014-01-11T10:50:57.000Z</time>
      </trkpt>
      <trkpt lat="45.17872" lon="6.36791">
        <ele>2578.1999511719</ele>
        <time>2014-01-11T10:50:58.000Z</time>
      </trkpt>
      <trkpt lat="45.17872" lon="6.36791">
        <ele>2578.1999511719</ele>
        <time>2014-01-11T10:50:59.000Z</time>
      </trkpt>
      <trkpt lat="45.17873" lon="6.3679">
        <ele>2578.1999511719</ele>
        <time>2014-01-11T10:51:00.000Z</time>
      </trkpt>
      <trkpt lat="45.17875" lon="6.36791">
        <ele>2578</ele>
        <time>2014-01-11T10:51:01.000Z</time>
      </trkpt>
      <trkpt lat="45.17874" lon="6.3679">
        <ele>2578</ele>
        <time>2014-01-11T10:51:02.000Z</time>
      </trkpt>
      <trkpt lat="45.17874" lon="6.36785">
        <ele>2578</ele>
        <time>2014-01-11T10:51:03.000Z</time>
      </trkpt>
      <trkpt lat="45.17875" lon="6.3678">
        <ele>2577.6000976562</ele>
        <time>2014-01-11T10:51:04.000Z</time>
      </trkpt>
      <trkpt lat="45.17873" lon="6.36776">
        <ele>2576.8000488281</ele>
        <time>2014-01-11T10:51:05.000Z</time>
      </trkpt>
      <trkpt lat="45.17873" lon="6.3677">
        <ele>2576</ele>
        <time>2014-01-11T10:51:06.000Z</time>
      </trkpt>
      <trkpt lat="45.17873" lon="6.36764">
        <ele>2574.8000488281</ele>
        <time>2014-01-11T10:51:07.000Z</time>
      </trkpt>
      <trkpt lat="45.17872" lon="6.36758">
        <ele>2573.3999023438</ele>
        <time>2014-01-11T10:51:08.000Z</time>
      </trkpt>
      <trkpt lat="45.17873" lon="6.36752">
        <ele>2571.8000488281</ele>
        <time>2014-01-11T10:51:09.000Z</time>
      </trkpt>
      <trkpt lat="45.17872" lon="6.36745">
        <ele>2570</ele>
        <time>2014-01-11T10:51:10.000Z</time>
      </trkpt>
      <trkpt lat="45.17871" lon="6.36739">
        <ele>2568.1999511719</ele>
        <time>2014-01-11T10:51:11.000Z</time>
      </trkpt>
      <trkpt lat="45.17869" lon="6.36732">
        <ele>2566.1999511719</ele>
        <time>2014-01-11T10:51:12.000Z</time>
      </trkpt>
      <trkpt lat="45.1787" lon="6.36726">
        <ele>2564.1999511719</ele>
        <time>2014-01-11T10:51:13.000Z</time>
      </trkpt>
      <trkpt lat="45.17868" lon="6.3672">
        <ele>2562</ele>
        <time>2014-01-11T10:51:14.000Z</time>
      </trkpt>
      <trkpt lat="45.17866" lon="6.36713">
        <ele>2559.8000488281</ele>
        <time>2014-01-11T10:51:15.000Z</time>
      </trkpt>
      <trkpt lat="45.17865" lon="6.36707">
        <ele>2557.6000976562</ele>
        <time>2014-01-11T10:51:16.000Z</time>
      </trkpt>
      <trkpt lat="45.17864" lon="6.36702">
        <ele>2555.6000976562</ele>
        <time>2014-01-11T10:51:17.000Z</time>
      </trkpt>
      <trkpt lat="45.17864" lon="6.36697">
        <ele>2553.3999023438</ele>
        <time>2014-01-11T10:51:18.000Z</time>
      </trkpt>
      <trkpt lat="45.17866" lon="6.36698">
        <ele>2551</ele>
        <time>2014-01-11T10:51:19.000Z</time>
      </trkpt>
      <trkpt lat="45.17867" lon="6.36699">
        <ele>2548.8000488281</ele>
        <time>2014-01-11T10:51:20.000Z</time>
      </trkpt>
      <trkpt lat="45.17869" lon="6.367">
        <ele>2546.8000488281</ele>
        <time>2014-01-11T10:51:21.000Z</time>
      </trkpt>
      <trkpt lat="45.17869" lon="6.367">
        <ele>2545.3999023438</ele>
        <time>2014-01-11T10:51:22.000Z</time>
      </trkpt>
      <trkpt lat="45.17869" lon="6.367">
        <ele>2544.3999023438</ele>
        <time>2014-01-11T10:51:23.000Z</time>
      </trkpt>
      <trkpt lat="45.17868" lon="6.36699">
        <ele>2543.8000488281</ele>
        <time>2014-01-11T10:51:24.000Z</time>
      </trkpt>
      <trkpt lat="45.17866" lon="6.36697">
        <ele>2543.3999023438</ele>
        <time>2014-01-11T10:51:25.000Z</time>
      </trkpt>
      <trkpt lat="45.17863" lon="6.36695">
        <ele>2543.1999511719</ele>
        <time>2014-01-11T10:51:26.000Z</time>
      </trkpt>
      <trkpt lat="45.17861" lon="6.36696">
        <ele>2542.8000488281</ele>
        <time>2014-01-11T10:51:27.000Z</time>
      </trkpt>
      <trkpt lat="45.17859" lon="6.36695">
        <ele>2542.1999511719</ele>
        <time>2014-01-11T10:51:28.000Z</time>
      </trkpt>
      <trkpt lat="45.17857" lon="6.36691">
        <ele>2541.3999023438</ele>
        <time>2014-01-11T10:51:29.000Z</time>
      </trkpt>
      <trkpt lat="45.17859" lon="6.36687">
        <ele>2540.6000976562</ele>
        <time>2014-01-11T10:51:30.000Z</time>
      </trkpt>
      <trkpt lat="45.17858" lon="6.3668">
        <ele>2539.6000976562</ele>
        <time>2014-01-11T10:51:31.000Z</time>
      </trkpt>
      <trkpt lat="45.17855" lon="6.36677">
        <ele>2538.8000488281</ele>
        <time>2014-01-11T10:51:32.000Z</time>
      </trkpt>
      <trkpt lat="45.17851" lon="6.36674">
        <ele>2537.8000488281</ele>
        <time>2014-01-11T10:51:33.000Z</time>
      </trkpt>
      <trkpt lat="45.1785" lon="6.3667">
        <ele>2536.8000488281</ele>
        <time>2014-01-11T10:51:34.000Z</time>
      </trkpt>
      <trkpt lat="45.17849" lon="6.36665">
        <ele>2535.3999023438</ele>
        <time>2014-01-11T10:51:35.000Z</time>
      </trkpt>
      <trkpt lat="45.17849" lon="6.36661">
        <ele>2533.8000488281</ele>
        <time>2014-01-11T10:51:36.000Z</time>
      </trkpt>
      <trkpt lat="45.1785" lon="6.36658">
        <ele>2532</ele>
        <time>2014-01-11T10:51:37.000Z</time>
      </trkpt>
      <trkpt lat="45.17851" lon="6.36654">
        <ele>2530.6000976562</ele>
        <time>2014-01-11T10:51:38.000Z</time>
      </trkpt>
      <trkpt lat="45.17853" lon="6.36649">
        <ele>2529.1999511719</ele>
        <time>2014-01-11T10:51:39.000Z</time>
      </trkpt>
      <trkpt lat="45.17853" lon="6.36643">
        <ele>2527.8000488281</ele>
        <time>2014-01-11T10:51:40.000Z</time>
      </trkpt>
      <trkpt lat="45.17852" lon="6.36639">
        <ele>2526.3999023438</ele>
        <time>2014-01-11T10:51:41.000Z</time>
      </trkpt>
      <trkpt lat="45.17852" lon="6.36634">
        <ele>2524.8000488281</ele>
        <time>2014-01-11T10:51:42.000Z</time>
      </trkpt>
      <trkpt lat="45.17852" lon="6.36628">
        <ele>2523.1999511719</ele>
        <time>2014-01-11T10:51:43.000Z</time>
      </trkpt>
      <trkpt lat="45.17852" lon="6.36624">
        <ele>2521.6000976562</ele>
        <time>2014-01-11T10:51:44.000Z</time>
      </trkpt>
      <trkpt lat="45.1785" lon="6.36622">
        <ele>2520</ele>
        <time>2014-01-11T10:51:45.000Z</time>
      </trkpt>
      <trkpt lat="45.17852" lon="6.36619">
        <ele>2518.1999511719</ele>
        <time>2014-01-11T10:51:46.000Z</time>
      </trkpt>
      <trkpt lat="45.17853" lon="6.36615">
        <ele>2516.6000976562</ele>
        <time>2014-01-11T10:51:47.000Z</time>
      </trkpt>
      <trkpt lat="45.17854" lon="6.36611">
        <ele>2515</ele>
        <time>2014-01-11T10:51:48.000Z</time>
      </trkpt>
      <trkpt lat="45.17855" lon="6.36612">
        <ele>2513.3999023438</ele>
        <time>2014-01-11T10:51:49.000Z</time>
      </trkpt>
      <trkpt lat="45.17856" lon="6.36613">
        <ele>2511.8000488281</ele>
        <time>2014-01-11T10:51:50.000Z</time>
      </trkpt>
      <trkpt lat="45.17858" lon="6.36614">
        <ele>2509.3999023438</ele>
        <time>2014-01-11T10:51:51.000Z</time>
      </trkpt>
      <trkpt lat="45.17858" lon="6.36616">
        <ele>2508.6000976562</ele>
        <time>2014-01-11T10:51:52.000Z</time>
      </trkpt>
      <trkpt lat="45.17859" lon="6.36616">
        <ele>2508</ele>
        <time>2014-01-11T10:51:53.000Z</time>
      </trkpt>
      <trkpt lat="45.1786" lon="6.36617">
        <ele>2507.6000976562</ele>
        <time>2014-01-11T10:51:54.000Z</time>
      </trkpt>
      <trkpt lat="45.17861" lon="6.36617">
        <ele>2507.3999023438</ele>
        <time>2014-01-11T10:51:55.000Z</time>
      </trkpt>
      <trkpt lat="45.17861" lon="6.36618">
        <ele>2507.3999023438</ele>
        <time>2014-01-11T10:51:56.000Z</time>
      </trkpt>
      <trkpt lat="45.17862" lon="6.36619">
        <ele>2507.1999511719</ele>
        <time>2014-01-11T10:51:57.000Z</time>
      </trkpt>
      <trkpt lat="45.17863" lon="6.3662">
        <ele>2507.1999511719</ele>
        <time>2014-01-11T10:51:58.000Z</time>
      </trkpt>
      <trkpt lat="45.17864" lon="6.3662">
        <ele>2507.1999511719</ele>
        <time>2014-01-11T10:51:59.000Z</time>
      </trkpt>
      <trkpt lat="45.17865" lon="6.36621">
        <ele>2507.1999511719</ele>
        <time>2014-01-11T10:52:00.000Z</time>
      </trkpt>
      <trkpt lat="45.17866" lon="6.36622">
        <ele>2507.1999511719</ele>
        <time>2014-01-11T10:52:01.000Z</time>
      </trkpt>
      <trkpt lat="45.17867" lon="6.36623">
        <ele>2507.1999511719</ele>
        <time>2014-01-11T10:52:02.000Z</time>
      </trkpt>
      <trkpt lat="45.17868" lon="6.36626">
        <ele>2507.1999511719</ele>
        <time>2014-01-11T10:52:05.000Z</time>
      </trkpt>
      <trkpt lat="45.17869" lon="6.36627">
        <ele>2507.1999511719</ele>
        <time>2014-01-11T10:52:06.000Z</time>
      </trkpt>
      <trkpt lat="45.1787" lon="6.36628">
        <ele>2507.1999511719</ele>
        <time>2014-01-11T10:52:09.000Z</time>
      </trkpt>
      <trkpt lat="45.1787" lon="6.36629">
        <ele>2507.1999511719</ele>
        <time>2014-01-11T10:52:11.000Z</time>
      </trkpt>
      <trkpt lat="45.17871" lon="6.3663">
        <ele>2507.1999511719</ele>
        <time>2014-01-11T10:52:12.000Z</time>
      </trkpt>
      <trkpt lat="45.17871" lon="6.3663">
        <ele>2507.1999511719</ele>
        <time>2014-01-11T10:52:13.000Z</time>
      </trkpt>
      <trkpt lat="45.17871" lon="6.36627">
        <ele>2507.1999511719</ele>
        <time>2014-01-11T10:52:14.000Z</time>
      </trkpt>
      <trkpt lat="45.17868" lon="6.36626">
        <ele>2507</ele>
        <time>2014-01-11T10:52:15.000Z</time>
      </trkpt>
      <trkpt lat="45.17866" lon="6.36626">
        <ele>2507</ele>
        <time>2014-01-11T10:52:16.000Z</time>
      </trkpt>
      <trkpt lat="45.17865" lon="6.36622">
        <ele>2506.6000976562</ele>
        <time>2014-01-11T10:52:17.000Z</time>
      </trkpt>
      <trkpt lat="45.17865" lon="6.36617">
        <ele>2506.1999511719</ele>
        <time>2014-01-11T10:52:18.000Z</time>
      </trkpt>
      <trkpt lat="45.17863" lon="6.36614">
        <ele>2505.3999023438</ele>
        <time>2014-01-11T10:52:19.000Z</time>
      </trkpt>
      <trkpt lat="45.17862" lon="6.36609">
        <ele>2504.6000976562</ele>
        <time>2014-01-11T10:52:20.000Z</time>
      </trkpt>
      <trkpt lat="45.17861" lon="6.36602">
        <ele>2503.6000976562</ele>
        <time>2014-01-11T10:52:21.000Z</time>
      </trkpt>
      <trkpt lat="45.17858" lon="6.36598">
        <ele>2502.3999023438</ele>
        <time>2014-01-11T10:52:22.000Z</time>
      </trkpt>
      <trkpt lat="45.17858" lon="6.36593">
        <ele>2500.8000488281</ele>
        <time>2014-01-11T10:52:23.000Z</time>
      </trkpt>
      <trkpt lat="45.17856" lon="6.36588">
        <ele>2499</ele>
        <time>2014-01-11T10:52:24.000Z</time>
      </trkpt>
      <trkpt lat="45.17854" lon="6.36583">
        <ele>2497</ele>
        <time>2014-01-11T10:52:25.000Z</time>
      </trkpt>
      <trkpt lat="45.17854" lon="6.36577">
        <ele>2494.8000488281</ele>
        <time>2014-01-11T10:52:26.000Z</time>
      </trkpt>
      <trkpt lat="45.17851" lon="6.36573">
        <ele>2492.6000976562</ele>
        <time>2014-01-11T10:52:27.000Z</time>
      </trkpt>
      <trkpt lat="45.1785" lon="6.36568">
        <ele>2490.3999023438</ele>
        <time>2014-01-11T10:52:28.000Z</time>
      </trkpt>
      <trkpt lat="45.17849" lon="6.36562">
        <ele>2488.1999511719</ele>
        <time>2014-01-11T10:52:29.000Z</time>
      </trkpt>
      <trkpt lat="45.17849" lon="6.36556">
        <ele>2486.1999511719</ele>
        <time>2014-01-11T10:52:30.000Z</time>
      </trkpt>
      <trkpt lat="45.17848" lon="6.36549">
        <ele>2484.3999023438</ele>
        <time>2014-01-11T10:52:31.000Z</time>
      </trkpt>
      <trkpt lat="45.17848" lon="6.36541">
        <ele>2482.3999023438</ele>
        <time>2014-01-11T10:52:32.000Z</time>
      </trkpt>
      <trkpt lat="45.17846" lon="6.36534">
        <ele>2480.1999511719</ele>
        <time>2014-01-11T10:52:33.000Z</time>
      </trkpt>
      <trkpt lat="45.17844" lon="6.36526">
        <ele>2478</ele>
        <time>2014-01-11T10:52:34.000Z</time>
      </trkpt>
      <trkpt lat="45.17841" lon="6.36517">
        <ele>2475.8000488281</ele>
        <time>2014-01-11T10:52:35.000Z</time>
      </trkpt>
      <trkpt lat="45.17836" lon="6.3651">
        <ele>2473.3999023438</ele>
        <time>2014-01-11T10:52:36.000Z</time>
      </trkpt>
      <trkpt lat="45.17833" lon="6.36504">
        <ele>2470.8000488281</ele>
        <time>2014-01-11T10:52:37.000Z</time>
      </trkpt>
      <trkpt lat="45.17831" lon="6.365">
        <ele>2468.1999511719</ele>
        <time>2014-01-11T10:52:38.000Z</time>
      </trkpt>
      <trkpt lat="45.17832" lon="6.36494">
        <ele>2462.3999023438</ele>
        <time>2014-01-11T10:52:39.000Z</time>
      </trkpt>
      <trkpt lat="45.1783" lon="6.36489">
        <ele>2460</ele>
        <time>2014-01-11T10:52:40.000Z</time>
      </trkpt>
      <trkpt lat="45.17828" lon="6.36484">
        <ele>2458.1999511719</ele>
        <time>2014-01-11T10:52:41.000Z</time>
      </trkpt>
      <trkpt lat="45.17828" lon="6.36478">
        <ele>2456.6000976562</ele>
        <time>2014-01-11T10:52:42.000Z</time>
      </trkpt>
      <trkpt lat="45.17827" lon="6.36472">
        <ele>2455</ele>
        <time>2014-01-11T10:52:43.000Z</time>
      </trkpt>
      <trkpt lat="45.17826" lon="6.36469">
        <ele>2453.3999023438</ele>
        <time>2014-01-11T10:52:44.000Z</time>
      </trkpt>
      <trkpt lat="45.17827" lon="6.3647">
        <ele>2451.6000976562</ele>
        <time>2014-01-11T10:52:45.000Z</time>
      </trkpt>
      <trkpt lat="45.17828" lon="6.36471">
        <ele>2449.8000488281</ele>
        <time>2014-01-11T10:52:46.000Z</time>
      </trkpt>
      <trkpt lat="45.17827" lon="6.36472">
        <ele>2448</ele>
        <time>2014-01-11T10:52:47.000Z</time>
      </trkpt>
      <trkpt lat="45.17828" lon="6.36473">
        <ele>2446.3999023438</ele>
        <time>2014-01-11T10:52:48.000Z</time>
      </trkpt>
      <trkpt lat="45.17828" lon="6.36473">
        <ele>2445.1999511719</ele>
        <time>2014-01-11T10:52:49.000Z</time>
      </trkpt>
      <trkpt lat="45.17829" lon="6.36474">
        <ele>2444.3999023438</ele>
        <time>2014-01-11T10:52:50.000Z</time>
      </trkpt>
      <trkpt lat="45.17829" lon="6.36474">
        <ele>2444.1999511719</ele>
        <time>2014-01-11T10:52:51.000Z</time>
      </trkpt>
      <trkpt lat="45.17829" lon="6.36474">
        <ele>2444</ele>
        <time>2014-01-11T10:52:52.000Z</time>
      </trkpt>
      <trkpt lat="45.17829" lon="6.36474">
        <ele>2443.8000488281</ele>
        <time>2014-01-11T10:52:53.000Z</time>
      </trkpt>
      <trkpt lat="45.17829" lon="6.36474">
        <ele>2443.8000488281</ele>
        <time>2014-01-11T10:52:54.000Z</time>
      </trkpt>
      <trkpt lat="45.17829" lon="6.36474">
        <ele>2443.8000488281</ele>
        <time>2014-01-11T10:52:55.000Z</time>
      </trkpt>
      <trkpt lat="45.17829" lon="6.36474">
        <ele>2443.8000488281</ele>
        <time>2014-01-11T10:52:56.000Z</time>
      </trkpt>
      <trkpt lat="45.17829" lon="6.36475">
        <ele>2443.8000488281</ele>
        <time>2014-01-11T10:53:00.000Z</time>
      </trkpt>
      <trkpt lat="45.17829" lon="6.36475">
        <ele>2443.8000488281</ele>
        <time>2014-01-11T10:53:01.000Z</time>
      </trkpt>
      <trkpt lat="45.17829" lon="6.36475">
        <ele>2443.6000976562</ele>
        <time>2014-01-11T10:53:02.000Z</time>
      </trkpt>
      <trkpt lat="45.17829" lon="6.36475">
        <ele>2443.6000976562</ele>
        <time>2014-01-11T10:53:03.000Z</time>
      </trkpt>
      <trkpt lat="45.17831" lon="6.36476">
        <ele>2443.6000976562</ele>
        <time>2014-01-11T10:53:04.000Z</time>
      </trkpt>
      <trkpt lat="45.17831" lon="6.36476">
        <ele>2443.6000976562</ele>
        <time>2014-01-11T10:53:05.000Z</time>
      </trkpt>
      <trkpt lat="45.17831" lon="6.36479">
        <ele>2443.6000976562</ele>
        <time>2014-01-11T10:53:07.000Z</time>
      </trkpt>
      <trkpt lat="45.17831" lon="6.36481">
        <ele>2443.6000976562</ele>
        <time>2014-01-11T10:53:08.000Z</time>
      </trkpt>
      <trkpt lat="45.17829" lon="6.36483">
        <ele>2443.6000976562</ele>
        <time>2014-01-11T10:53:09.000Z</time>
      </trkpt>
      <trkpt lat="45.17827" lon="6.36484">
        <ele>2443.6000976562</ele>
        <time>2014-01-11T10:53:10.000Z</time>
      </trkpt>
      <trkpt lat="45.17824" lon="6.36486">
        <ele>2443.3999023438</ele>
        <time>2014-01-11T10:53:11.000Z</time>
      </trkpt>
      <trkpt lat="45.17822" lon="6.36487">
        <ele>2443.3999023438</ele>
        <time>2014-01-11T10:53:12.000Z</time>
      </trkpt>
      <trkpt lat="45.17821" lon="6.36487">
        <ele>2443</ele>
        <time>2014-01-11T10:53:13.000Z</time>
      </trkpt>
      <trkpt lat="45.17819" lon="6.36488">
        <ele>2442.8000488281</ele>
        <time>2014-01-11T10:53:14.000Z</time>
      </trkpt>
      <trkpt lat="45.17817" lon="6.36488">
        <ele>2442.3999023438</ele>
        <time>2014-01-11T10:53:15.000Z</time>
      </trkpt>
      <trkpt lat="45.17816" lon="6.36488">
        <ele>2442</ele>
        <time>2014-01-11T10:53:16.000Z</time>
      </trkpt>
      <trkpt lat="45.17815" lon="6.36488">
        <ele>2441.8000488281</ele>
        <time>2014-01-11T10:53:17.000Z</time>
      </trkpt>
      <trkpt lat="45.17814" lon="6.36488">
        <ele>2441.6000976562</ele>
        <time>2014-01-11T10:53:18.000Z</time>
      </trkpt>
      <trkpt lat="45.17815" lon="6.36484">
        <ele>2441.3999023438</ele>
        <time>2014-01-11T10:53:19.000Z</time>
      </trkpt>
      <trkpt lat="45.17815" lon="6.3648">
        <ele>2441.1999511719</ele>
        <time>2014-01-11T10:53:20.000Z</time>
      </trkpt>
      <trkpt lat="45.17814" lon="6.36474">
        <ele>2440.8000488281</ele>
        <time>2014-01-11T10:53:21.000Z</time>
      </trkpt>
      <trkpt lat="45.17811" lon="6.36472">
        <ele>2440.1999511719</ele>
        <time>2014-01-11T10:53:22.000Z</time>
      </trkpt>
      <trkpt lat="45.17809" lon="6.36468">
        <ele>2439.6000976562</ele>
        <time>2014-01-11T10:53:23.000Z</time>
      </trkpt>
      <trkpt lat="45.1781" lon="6.36463">
        <ele>2438.8000488281</ele>
        <time>2014-01-11T10:53:24.000Z</time>
      </trkpt>
      <trkpt lat="45.17808" lon="6.36458">
        <ele>2437.8000488281</ele>
        <time>2014-01-11T10:53:25.000Z</time>
      </trkpt>
      <trkpt lat="45.17806" lon="6.36455">
        <ele>2436.3999023438</ele>
        <time>2014-01-11T10:53:26.000Z</time>
      </trkpt>
      <trkpt lat="45.17805" lon="6.3645">
        <ele>2433.8000488281</ele>
        <time>2014-01-11T10:53:27.000Z</time>
      </trkpt>
      <trkpt lat="45.17804" lon="6.36445">
        <ele>2432.3999023438</ele>
        <time>2014-01-11T10:53:28.000Z</time>
      </trkpt>
      <trkpt lat="45.178" lon="6.36442">
        <ele>2431</ele>
        <time>2014-01-11T10:53:29.000Z</time>
      </trkpt>
      <trkpt lat="45.17798" lon="6.36438">
        <ele>2429.3999023438</ele>
        <time>2014-01-11T10:53:30.000Z</time>
      </trkpt>
      <trkpt lat="45.17797" lon="6.36434">
        <ele>2428</ele>
        <time>2014-01-11T10:53:31.000Z</time>
      </trkpt>
      <trkpt lat="45.17797" lon="6.36428">
        <ele>2426.3999023438</ele>
        <time>2014-01-11T10:53:32.000Z</time>
      </trkpt>
      <trkpt lat="45.17795" lon="6.36424">
        <ele>2424.6000976562</ele>
        <time>2014-01-11T10:53:33.000Z</time>
      </trkpt>
      <trkpt lat="45.17794" lon="6.3642">
        <ele>2423</ele>
        <time>2014-01-11T10:53:34.000Z</time>
      </trkpt>
      <trkpt lat="45.17794" lon="6.36415">
        <ele>2421.3999023438</ele>
        <time>2014-01-11T10:53:35.000Z</time>
      </trkpt>
      <trkpt lat="45.17793" lon="6.3641">
        <ele>2419.8000488281</ele>
        <time>2014-01-11T10:53:36.000Z</time>
      </trkpt>
      <trkpt lat="45.17793" lon="6.36404">
        <ele>2417.8000488281</ele>
        <time>2014-01-11T10:53:37.000Z</time>
      </trkpt>
      <trkpt lat="45.1779" lon="6.364">
        <ele>2416.1999511719</ele>
        <time>2014-01-11T10:53:38.000Z</time>
      </trkpt>
      <trkpt lat="45.17787" lon="6.36397">
        <ele>2414.8000488281</ele>
        <time>2014-01-11T10:53:39.000Z</time>
      </trkpt>
      <trkpt lat="45.17784" lon="6.36394">
        <ele>2413.3999023438</ele>
        <time>2014-01-11T10:53:40.000Z</time>
      </trkpt>
      <trkpt lat="45.17786" lon="6.36392">
        <ele>2411.8000488281</ele>
        <time>2014-01-11T10:53:41.000Z</time>
      </trkpt>
      <trkpt lat="45.17784" lon="6.36389">
        <ele>2410.1999511719</ele>
        <time>2014-01-11T10:53:42.000Z</time>
      </trkpt>
      <trkpt lat="45.17784" lon="6.36384">
        <ele>2408.8000488281</ele>
        <time>2014-01-11T10:53:43.000Z</time>
      </trkpt>
      <trkpt lat="45.17783" lon="6.36377">
        <ele>2408</ele>
        <time>2014-01-11T10:53:44.000Z</time>
      </trkpt>
      <trkpt lat="45.17782" lon="6.36373">
        <ele>2407.1999511719</ele>
        <time>2014-01-11T10:53:45.000Z</time>
      </trkpt>
      <trkpt lat="45.17782" lon="6.36373">
        <ele>2406.1999511719</ele>
        <time>2014-01-11T10:53:46.000Z</time>
      </trkpt>
      <trkpt lat="45.17782" lon="6.36373">
        <ele>2405.1999511719</ele>
        <time>2014-01-11T10:53:47.000Z</time>
      </trkpt>
      <trkpt lat="45.17783" lon="6.36372">
        <ele>2403.6000976562</ele>
        <time>2014-01-11T10:53:48.000Z</time>
      </trkpt>
      <trkpt lat="45.17784" lon="6.36373">
        <ele>2402</ele>
        <time>2014-01-11T10:53:49.000Z</time>
      </trkpt>
      <trkpt lat="45.17785" lon="6.36373">
        <ele>2400.8000488281</ele>
        <time>2014-01-11T10:53:50.000Z</time>
      </trkpt>
      <trkpt lat="45.17785" lon="6.36373">
        <ele>2399.3999023438</ele>
        <time>2014-01-11T10:53:51.000Z</time>
      </trkpt>
      <trkpt lat="45.17785" lon="6.36373">
        <ele>2399</ele>
        <time>2014-01-11T10:53:52.000Z</time>
      </trkpt>
      <trkpt lat="45.17786" lon="6.36373">
        <ele>2399</ele>
        <time>2014-01-11T10:53:53.000Z</time>
      </trkpt>
      <trkpt lat="45.17787" lon="6.36374">
        <ele>2398.8000488281</ele>
        <time>2014-01-11T10:53:54.000Z</time>
      </trkpt>
      <trkpt lat="45.17787" lon="6.36374">
        <ele>2398.8000488281</ele>
        <time>2014-01-11T10:53:55.000Z</time>
      </trkpt>
      <trkpt lat="45.17787" lon="6.36374">
        <ele>2398.8000488281</ele>
        <time>2014-01-11T10:53:56.000Z</time>
      </trkpt>
      <trkpt lat="45.17787" lon="6.36374">
        <ele>2398.8000488281</ele>
        <time>2014-01-11T10:53:57.000Z</time>
      </trkpt>
      <trkpt lat="45.17787" lon="6.36374">
        <ele>2398.8000488281</ele>
        <time>2014-01-11T10:53:58.000Z</time>
      </trkpt>
      <trkpt lat="45.17787" lon="6.36374">
        <ele>2398.8000488281</ele>
        <time>2014-01-11T10:54:00.000Z</time>
      </trkpt>
      <trkpt lat="45.17787" lon="6.36374">
        <ele>2398.8000488281</ele>
        <time>2014-01-11T10:54:02.000Z</time>
      </trkpt>
      <trkpt lat="45.17787" lon="6.36374">
        <ele>2398.8000488281</ele>
        <time>2014-01-11T10:54:03.000Z</time>
      </trkpt>
      <trkpt lat="45.17787" lon="6.36374">
        <ele>2398.8000488281</ele>
        <time>2014-01-11T10:54:04.000Z</time>
      </trkpt>
      <trkpt lat="45.17787" lon="6.36374">
        <ele>2398.8000488281</ele>
        <time>2014-01-11T10:54:05.000Z</time>
      </trkpt>
      <trkpt lat="45.17787" lon="6.36374">
        <ele>2398.8000488281</ele>
        <time>2014-01-11T10:54:09.000Z</time>
      </trkpt>
      <trkpt lat="45.17787" lon="6.36374">
        <ele>2398.8000488281</ele>
        <time>2014-01-11T10:54:10.000Z</time>
      </trkpt>
      <trkpt lat="45.17787" lon="6.36374">
        <ele>2398.8000488281</ele>
        <time>2014-01-11T10:54:11.000Z</time>
      </trkpt>
      <trkpt lat="45.17787" lon="6.36374">
        <ele>2398.8000488281</ele>
        <time>2014-01-11T10:54:12.000Z</time>
      </trkpt>
      <trkpt lat="45.17787" lon="6.36374">
        <ele>2398.8000488281</ele>
        <time>2014-01-11T10:54:15.000Z</time>
      </trkpt>
      <trkpt lat="45.17787" lon="6.36374">
        <ele>2398.6000976562</ele>
        <time>2014-01-11T10:54:16.000Z</time>
      </trkpt>
      <trkpt lat="45.17787" lon="6.36374">
        <ele>2398.6000976562</ele>
        <time>2014-01-11T10:54:17.000Z</time>
      </trkpt>
      <trkpt lat="45.17787" lon="6.36373">
        <ele>2398.6000976562</ele>
        <time>2014-01-11T10:54:18.000Z</time>
      </trkpt>
      <trkpt lat="45.17787" lon="6.36372">
        <ele>2398.6000976562</ele>
        <time>2014-01-11T10:54:19.000Z</time>
      </trkpt>
      <trkpt lat="45.17787" lon="6.36371">
        <ele>2398.3999023438</ele>
        <time>2014-01-11T10:54:20.000Z</time>
      </trkpt>
      <trkpt lat="45.17788" lon="6.36372">
        <ele>2398.1999511719</ele>
        <time>2014-01-11T10:54:21.000Z</time>
      </trkpt>
      <trkpt lat="45.17788" lon="6.36371">
        <ele>2397.8000488281</ele>
        <time>2014-01-11T10:54:22.000Z</time>
      </trkpt>
      <trkpt lat="45.17788" lon="6.3637">
        <ele>2397.3999023438</ele>
        <time>2014-01-11T10:54:23.000Z</time>
      </trkpt>
      <trkpt lat="45.17788" lon="6.3637">
        <ele>2396.8000488281</ele>
        <time>2014-01-11T10:54:24.000Z</time>
      </trkpt>
      <trkpt lat="45.17788" lon="6.36369">
        <ele>2396.3999023438</ele>
        <time>2014-01-11T10:54:25.000Z</time>
      </trkpt>
      <trkpt lat="45.17788" lon="6.36369">
        <ele>2396</ele>
        <time>2014-01-11T10:54:26.000Z</time>
      </trkpt>
      <trkpt lat="45.17787" lon="6.36368">
        <ele>2395.6000976562</ele>
        <time>2014-01-11T10:54:27.000Z</time>
      </trkpt>
      <trkpt lat="45.17787" lon="6.36368">
        <ele>2395.1999511719</ele>
        <time>2014-01-11T10:54:28.000Z</time>
      </trkpt>
      <trkpt lat="45.17786" lon="6.36368">
        <ele>2394.8000488281</ele>
        <time>2014-01-11T10:54:29.000Z</time>
      </trkpt>
      <trkpt lat="45.17786" lon="6.36369">
        <ele>2394.6000976562</ele>
        <time>2014-01-11T10:54:30.000Z</time>
      </trkpt>
      <trkpt lat="45.17786" lon="6.36369">
        <ele>2394.3999023438</ele>
        <time>2014-01-11T10:54:31.000Z</time>
      </trkpt>
      <trkpt lat="45.17786" lon="6.36369">
        <ele>2394.3999023438</ele>
        <time>2014-01-11T10:54:32.000Z</time>
      </trkpt>
      <trkpt lat="45.17786" lon="6.36369">
        <ele>2394.3999023438</ele>
        <time>2014-01-11T10:54:33.000Z</time>
      </trkpt>
      <trkpt lat="45.17786" lon="6.36369">
        <ele>2394.3999023438</ele>
        <time>2014-01-11T10:54:35.000Z</time>
      </trkpt>
      <trkpt lat="45.17786" lon="6.36369">
        <ele>2394.3999023438</ele>
        <time>2014-01-11T10:54:39.000Z</time>
      </trkpt>
      <trkpt lat="45.17786" lon="6.36369">
        <ele>2394.3999023438</ele>
        <time>2014-01-11T10:54:40.000Z</time>
      </trkpt>
      <trkpt lat="45.17786" lon="6.36369">
        <ele>2394.3999023438</ele>
        <time>2014-01-11T10:54:41.000Z</time>
      </trkpt>
      <trkpt lat="45.17786" lon="6.36369">
        <ele>2394.3999023438</ele>
        <time>2014-01-11T10:54:42.000Z</time>
      </trkpt>
      <trkpt lat="45.17786" lon="6.36369">
        <ele>2394.3999023438</ele>
        <time>2014-01-11T10:54:43.000Z</time>
      </trkpt>
      <trkpt lat="45.17786" lon="6.36369">
        <ele>2394.3999023438</ele>
        <time>2014-01-11T10:54:44.000Z</time>
      </trkpt>
      <trkpt lat="45.17786" lon="6.36369">
        <ele>2394.3999023438</ele>
        <time>2014-01-11T10:54:45.000Z</time>
      </trkpt>
      <trkpt lat="45.17786" lon="6.36369">
        <ele>2394.3999023438</ele>
        <time>2014-01-11T10:54:46.000Z</time>
      </trkpt>
      <trkpt lat="45.17786" lon="6.36369">
        <ele>2394.3999023438</ele>
        <time>2014-01-11T10:54:47.000Z</time>
      </trkpt>
      <trkpt lat="45.17786" lon="6.36369">
        <ele>2394.3999023438</ele>
        <time>2014-01-11T10:54:48.000Z</time>
      </trkpt>
      <trkpt lat="45.17786" lon="6.36369">
        <ele>2394.3999023438</ele>
        <time>2014-01-11T10:54:49.000Z</time>
      </trkpt>
      <trkpt lat="45.17786" lon="6.36369">
        <ele>2394.3999023438</ele>
        <time>2014-01-11T10:54:50.000Z</time>
      </trkpt>
      <trkpt lat="45.17786" lon="6.36369">
        <ele>2394.3999023438</ele>
        <time>2014-01-11T10:54:51.000Z</time>
      </trkpt>
      <trkpt lat="45.17786" lon="6.36369">
        <ele>2394.3999023438</ele>
        <time>2014-01-11T10:54:52.000Z</time>
      </trkpt>
      <trkpt lat="45.17786" lon="6.36369">
        <ele>2394.3999023438</ele>
        <time>2014-01-11T10:54:53.000Z</time>
      </trkpt>
      <trkpt lat="45.17786" lon="6.36369">
        <ele>2394.3999023438</ele>
        <time>2014-01-11T10:54:56.000Z</time>
      </trkpt>
      <trkpt lat="45.17786" lon="6.36369">
        <ele>2394.3999023438</ele>
        <time>2014-01-11T10:55:00.000Z</time>
      </trkpt>
      <trkpt lat="45.17786" lon="6.36369">
        <ele>2394.3999023438</ele>
        <time>2014-01-11T10:55:01.000Z</time>
      </trkpt>
      <trkpt lat="45.17786" lon="6.36369">
        <ele>2394.3999023438</ele>
        <time>2014-01-11T10:55:02.000Z</time>
      </trkpt>
      <trkpt lat="45.17786" lon="6.36369">
        <ele>2394.3999023438</ele>
        <time>2014-01-11T10:55:03.000Z</time>
      </trkpt>
      <trkpt lat="45.17786" lon="6.36369">
        <ele>2394.3999023438</ele>
        <time>2014-01-11T10:55:04.000Z</time>
      </trkpt>
      <trkpt lat="45.17786" lon="6.36369">
        <ele>2394.3999023438</ele>
        <time>2014-01-11T10:55:05.000Z</time>
      </trkpt>
      <trkpt lat="45.17786" lon="6.36369">
        <ele>2394.1999511719</ele>
        <time>2014-01-11T10:55:06.000Z</time>
      </trkpt>
      <trkpt lat="45.17786" lon="6.36369">
        <ele>2394.1999511719</ele>
        <time>2014-01-11T10:55:07.000Z</time>
      </trkpt>
      <trkpt lat="45.17786" lon="6.36369">
        <ele>2394.1999511719</ele>
        <time>2014-01-11T10:55:08.000Z</time>
      </trkpt>
      <trkpt lat="45.17786" lon="6.36369">
        <ele>2394.1999511719</ele>
        <time>2014-01-11T10:55:09.000Z</time>
      </trkpt>
      <trkpt lat="45.17786" lon="6.36369">
        <ele>2394.1999511719</ele>
        <time>2014-01-11T10:55:11.000Z</time>
      </trkpt>
      <trkpt lat="45.17786" lon="6.36369">
        <ele>2394.1999511719</ele>
        <time>2014-01-11T10:55:12.000Z</time>
      </trkpt>
      <trkpt lat="45.17786" lon="6.36369">
        <ele>2394.1999511719</ele>
        <time>2014-01-11T10:55:15.000Z</time>
      </trkpt>
      <trkpt lat="45.17787" lon="6.36369">
        <ele>2394.1999511719</ele>
        <time>2014-01-11T10:55:16.000Z</time>
      </trkpt>
      <trkpt lat="45.17787" lon="6.3637">
        <ele>2394.1999511719</ele>
        <time>2014-01-11T10:55:17.000Z</time>
      </trkpt>
      <trkpt lat="45.17787" lon="6.3637">
        <ele>2394.1999511719</ele>
        <time>2014-01-11T10:55:20.000Z</time>
      </trkpt>
      <trkpt lat="45.17787" lon="6.3637">
        <ele>2394.1999511719</ele>
        <time>2014-01-11T10:55:21.000Z</time>
      </trkpt>
      <trkpt lat="45.17787" lon="6.3637">
        <ele>2394.1999511719</ele>
        <time>2014-01-11T10:55:22.000Z</time>
      </trkpt>
      <trkpt lat="45.17787" lon="6.3637">
        <ele>2394.1999511719</ele>
        <time>2014-01-11T10:55:23.000Z</time>
      </trkpt>
      <trkpt lat="45.17787" lon="6.3637">
        <ele>2394.1999511719</ele>
        <time>2014-01-11T10:55:26.000Z</time>
      </trkpt>
      <trkpt lat="45.17787" lon="6.3637">
        <ele>2394.1999511719</ele>
        <time>2014-01-11T10:55:28.000Z</time>
      </trkpt>
      <trkpt lat="45.17787" lon="6.3637">
        <ele>2394.3999023438</ele>
        <time>2014-01-11T10:55:29.000Z</time>
      </trkpt>
      <trkpt lat="45.17787" lon="6.3637">
        <ele>2394.3999023438</ele>
        <time>2014-01-11T10:55:30.000Z</time>
      </trkpt>
      <trkpt lat="45.17787" lon="6.3637">
        <ele>2394.3999023438</ele>
        <time>2014-01-11T10:55:31.000Z</time>
      </trkpt>
      <trkpt lat="45.17787" lon="6.3637">
        <ele>2394.3999023438</ele>
        <time>2014-01-11T10:55:32.000Z</time>
      </trkpt>
      <trkpt lat="45.17787" lon="6.3637">
        <ele>2394.3999023438</ele>
        <time>2014-01-11T10:55:33.000Z</time>
      </trkpt>
      <trkpt lat="45.17787" lon="6.3637">
        <ele>2394.3999023438</ele>
        <time>2014-01-11T10:55:34.000Z</time>
      </trkpt>
      <trkpt lat="45.17787" lon="6.3637">
        <ele>2394.3999023438</ele>
        <time>2014-01-11T10:55:35.000Z</time>
      </trkpt>
      <trkpt lat="45.17787" lon="6.3637">
        <ele>2394.3999023438</ele>
        <time>2014-01-11T10:55:36.000Z</time>
      </trkpt>
      <trkpt lat="45.17787" lon="6.3637">
        <ele>2394.3999023438</ele>
        <time>2014-01-11T10:55:37.000Z</time>
      </trkpt>
      <trkpt lat="45.17787" lon="6.3637">
        <ele>2394.3999023438</ele>
        <time>2014-01-11T10:55:38.000Z</time>
      </trkpt>
      <trkpt lat="45.17787" lon="6.3637">
        <ele>2394.3999023438</ele>
        <time>2014-01-11T10:55:40.000Z</time>
      </trkpt>
      <trkpt lat="45.17787" lon="6.3637">
        <ele>2394.3999023438</ele>
        <time>2014-01-11T10:55:41.000Z</time>
      </trkpt>
      <trkpt lat="45.17787" lon="6.3637">
        <ele>2394.3999023438</ele>
        <time>2014-01-11T10:55:42.000Z</time>
      </trkpt>
      <trkpt lat="45.17787" lon="6.3637">
        <ele>2394.3999023438</ele>
        <time>2014-01-11T10:55:43.000Z</time>
      </trkpt>
      <trkpt lat="45.17787" lon="6.3637">
        <ele>2394.3999023438</ele>
        <time>2014-01-11T10:55:45.000Z</time>
      </trkpt>
      <trkpt lat="45.17787" lon="6.3637">
        <ele>2394.3999023438</ele>
        <time>2014-01-11T10:55:48.000Z</time>
      </trkpt>
      <trkpt lat="45.17787" lon="6.3637">
        <ele>2394.3999023438</ele>
        <time>2014-01-11T10:55:51.000Z</time>
      </trkpt>
      <trkpt lat="45.17787" lon="6.3637">
        <ele>2394.3999023438</ele>
        <time>2014-01-11T10:55:53.000Z</time>
      </trkpt>
      <trkpt lat="45.17787" lon="6.3637">
        <ele>2394.3999023438</ele>
        <time>2014-01-11T10:55:58.000Z</time>
      </trkpt>
      <trkpt lat="45.17787" lon="6.3637">
        <ele>2394.3999023438</ele>
        <time>2014-01-11T10:55:59.000Z</time>
      </trkpt>
      <trkpt lat="45.17787" lon="6.3637">
        <ele>2394.3999023438</ele>
        <time>2014-01-11T10:56:00.000Z</time>
      </trkpt>
      <trkpt lat="45.17787" lon="6.3637">
        <ele>2394.3999023438</ele>
        <time>2014-01-11T10:56:01.000Z</time>
      </trkpt>
      <trkpt lat="45.17787" lon="6.3637">
        <ele>2394.3999023438</ele>
        <time>2014-01-11T10:56:02.000Z</time>
      </trkpt>
      <trkpt lat="45.17788" lon="6.3637">
        <ele>2394.3999023438</ele>
        <time>2014-01-11T10:56:04.000Z</time>
      </trkpt>
      <trkpt lat="45.17788" lon="6.3637">
        <ele>2394.1999511719</ele>
        <time>2014-01-11T10:56:05.000Z</time>
      </trkpt>
      <trkpt lat="45.17788" lon="6.3637">
        <ele>2394.1999511719</ele>
        <time>2014-01-11T10:56:06.000Z</time>
      </trkpt>
      <trkpt lat="45.17789" lon="6.36369">
        <ele>2394.1999511719</ele>
        <time>2014-01-11T10:56:07.000Z</time>
      </trkpt>
      <trkpt lat="45.17793" lon="6.36373">
        <ele>2394.1999511719</ele>
        <time>2014-01-11T10:56:08.000Z</time>
      </trkpt>
      <trkpt lat="45.17795" lon="6.36374">
        <ele>2394</ele>
        <time>2014-01-11T10:56:09.000Z</time>
      </trkpt>
      <trkpt lat="45.17796" lon="6.36374">
        <ele>2393.8000488281</ele>
        <time>2014-01-11T10:56:10.000Z</time>
      </trkpt>
      <trkpt lat="45.17797" lon="6.36374">
        <ele>2393.6000976562</ele>
        <time>2014-01-11T10:56:11.000Z</time>
      </trkpt>
      <trkpt lat="45.17797" lon="6.36374">
        <ele>2393.3999023438</ele>
        <time>2014-01-11T10:56:12.000Z</time>
      </trkpt>
      <trkpt lat="45.17797" lon="6.36374">
        <ele>2393.1999511719</ele>
        <time>2014-01-11T10:56:13.000Z</time>
      </trkpt>
      <trkpt lat="45.17797" lon="6.36374">
        <ele>2393</ele>
        <time>2014-01-11T10:56:14.000Z</time>
      </trkpt>
      <trkpt lat="45.17797" lon="6.36374">
        <ele>2392.6000976562</ele>
        <time>2014-01-11T10:56:15.000Z</time>
      </trkpt>
      <trkpt lat="45.17797" lon="6.36374">
        <ele>2392.6000976562</ele>
        <time>2014-01-11T10:56:16.000Z</time>
      </trkpt>
      <trkpt lat="45.17797" lon="6.36374">
        <ele>2392.6000976562</ele>
        <time>2014-01-11T10:56:17.000Z</time>
      </trkpt>
      <trkpt lat="45.17797" lon="6.36374">
        <ele>2392.6000976562</ele>
        <time>2014-01-11T10:56:18.000Z</time>
      </trkpt>
      <trkpt lat="45.17797" lon="6.36374">
        <ele>2392.6000976562</ele>
        <time>2014-01-11T10:56:22.000Z</time>
      </trkpt>
      <trkpt lat="45.17797" lon="6.36374">
        <ele>2392.6000976562</ele>
        <time>2014-01-11T10:56:23.000Z</time>
      </trkpt>
      <trkpt lat="45.17797" lon="6.36374">
        <ele>2392.6000976562</ele>
        <time>2014-01-11T10:56:24.000Z</time>
      </trkpt>
      <trkpt lat="45.17797" lon="6.36374">
        <ele>2392.6000976562</ele>
        <time>2014-01-11T10:56:25.000Z</time>
      </trkpt>
      <trkpt lat="45.17797" lon="6.36374">
        <ele>2392.6000976562</ele>
        <time>2014-01-11T10:56:26.000Z</time>
      </trkpt>
      <trkpt lat="45.17797" lon="6.36374">
        <ele>2392.3999023438</ele>
        <time>2014-01-11T10:56:27.000Z</time>
      </trkpt>
      <trkpt lat="45.17798" lon="6.36375">
        <ele>2392.3999023438</ele>
        <time>2014-01-11T10:56:28.000Z</time>
      </trkpt>
      <trkpt lat="45.17798" lon="6.36375">
        <ele>2392.3999023438</ele>
        <time>2014-01-11T10:56:29.000Z</time>
      </trkpt>
      <trkpt lat="45.17798" lon="6.36375">
        <ele>2392.1999511719</ele>
        <time>2014-01-11T10:56:30.000Z</time>
      </trkpt>
      <trkpt lat="45.17798" lon="6.36375">
        <ele>2392.1999511719</ele>
        <time>2014-01-11T10:56:31.000Z</time>
      </trkpt>
      <trkpt lat="45.17798" lon="6.36375">
        <ele>2392.1999511719</ele>
        <time>2014-01-11T10:56:32.000Z</time>
      </trkpt>
      <trkpt lat="45.17798" lon="6.36375">
        <ele>2392</ele>
        <time>2014-01-11T10:56:33.000Z</time>
      </trkpt>
      <trkpt lat="45.17798" lon="6.36375">
        <ele>2392</ele>
        <time>2014-01-11T10:56:34.000Z</time>
      </trkpt>
      <trkpt lat="45.17798" lon="6.36375">
        <ele>2392</ele>
        <time>2014-01-11T10:56:35.000Z</time>
      </trkpt>
      <trkpt lat="45.17798" lon="6.36375">
        <ele>2392</ele>
        <time>2014-01-11T10:56:36.000Z</time>
      </trkpt>
      <trkpt lat="45.17798" lon="6.36375">
        <ele>2392</ele>
        <time>2014-01-11T10:56:37.000Z</time>
      </trkpt>
      <trkpt lat="45.17798" lon="6.36375">
        <ele>2392</ele>
        <time>2014-01-11T10:56:38.000Z</time>
      </trkpt>
      <trkpt lat="45.17798" lon="6.36375">
        <ele>2392</ele>
        <time>2014-01-11T10:56:39.000Z</time>
      </trkpt>
      <trkpt lat="45.17798" lon="6.36375">
        <ele>2392</ele>
        <time>2014-01-11T10:56:40.000Z</time>
      </trkpt>
      <trkpt lat="45.17798" lon="6.36375">
        <ele>2391.8000488281</ele>
        <time>2014-01-11T10:56:41.000Z</time>
      </trkpt>
      <trkpt lat="45.17798" lon="6.36375">
        <ele>2391.8000488281</ele>
        <time>2014-01-11T10:56:42.000Z</time>
      </trkpt>
      <trkpt lat="45.17798" lon="6.36375">
        <ele>2391.8000488281</ele>
        <time>2014-01-11T10:56:43.000Z</time>
      </trkpt>
      <trkpt lat="45.17798" lon="6.36375">
        <ele>2391.6000976562</ele>
        <time>2014-01-11T10:56:44.000Z</time>
      </trkpt>
      <trkpt lat="45.17798" lon="6.36375">
        <ele>2391.6000976562</ele>
        <time>2014-01-11T10:56:45.000Z</time>
      </trkpt>
      <trkpt lat="45.17798" lon="6.36375">
        <ele>2391.6000976562</ele>
        <time>2014-01-11T10:56:48.000Z</time>
      </trkpt>
      <trkpt lat="45.17798" lon="6.36375">
        <ele>2391.6000976562</ele>
        <time>2014-01-11T10:56:49.000Z</time>
      </trkpt>
      <trkpt lat="45.17798" lon="6.36375">
        <ele>2391.6000976562</ele>
        <time>2014-01-11T10:56:50.000Z</time>
      </trkpt>
      <trkpt lat="45.17798" lon="6.36375">
        <ele>2391.6000976562</ele>
        <time>2014-01-11T10:56:51.000Z</time>
      </trkpt>
      <trkpt lat="45.17798" lon="6.36375">
        <ele>2391.6000976562</ele>
        <time>2014-01-11T10:56:53.000Z</time>
      </trkpt>
      <trkpt lat="45.17798" lon="6.36375">
        <ele>2391.6000976562</ele>
        <time>2014-01-11T10:56:54.000Z</time>
      </trkpt>
      <trkpt lat="45.17798" lon="6.36375">
        <ele>2391.6000976562</ele>
        <time>2014-01-11T10:56:55.000Z</time>
      </trkpt>
      <trkpt lat="45.17798" lon="6.36375">
        <ele>2391.6000976562</ele>
        <time>2014-01-11T10:56:56.000Z</time>
      </trkpt>
      <trkpt lat="45.17798" lon="6.36375">
        <ele>2391.6000976562</ele>
        <time>2014-01-11T10:56:58.000Z</time>
      </trkpt>
      <trkpt lat="45.17798" lon="6.36375">
        <ele>2391.8000488281</ele>
        <time>2014-01-11T10:57:00.000Z</time>
      </trkpt>
      <trkpt lat="45.17798" lon="6.36375">
        <ele>2391.8000488281</ele>
        <time>2014-01-11T10:57:01.000Z</time>
      </trkpt>
      <trkpt lat="45.17798" lon="6.36375">
        <ele>2391.8000488281</ele>
        <time>2014-01-11T10:57:02.000Z</time>
      </trkpt>
      <trkpt lat="45.17798" lon="6.36375">
        <ele>2391.8000488281</ele>
        <time>2014-01-11T10:57:03.000Z</time>
      </trkpt>
      <trkpt lat="45.17798" lon="6.36375">
        <ele>2391.8000488281</ele>
        <time>2014-01-11T10:57:05.000Z</time>
      </trkpt>
      <trkpt lat="45.17798" lon="6.36375">
        <ele>2391.8000488281</ele>
        <time>2014-01-11T10:57:06.000Z</time>
      </trkpt>
      <trkpt lat="45.17798" lon="6.36375">
        <ele>2391.8000488281</ele>
        <time>2014-01-11T10:57:07.000Z</time>
      </trkpt>
      <trkpt lat="45.17798" lon="6.36375">
        <ele>2391.8000488281</ele>
        <time>2014-01-11T10:57:08.000Z</time>
      </trkpt>
      <trkpt lat="45.17798" lon="6.36375">
        <ele>2391.8000488281</ele>
        <time>2014-01-11T10:57:09.000Z</time>
      </trkpt>
      <trkpt lat="45.17798" lon="6.36375">
        <ele>2391.8000488281</ele>
        <time>2014-01-11T10:57:12.000Z</time>
      </trkpt>
      <trkpt lat="45.17798" lon="6.36375">
        <ele>2391.8000488281</ele>
        <time>2014-01-11T10:57:13.000Z</time>
      </trkpt>
      <trkpt lat="45.17798" lon="6.36375">
        <ele>2391.8000488281</ele>
        <time>2014-01-11T10:57:14.000Z</time>
      </trkpt>
      <trkpt lat="45.17798" lon="6.36375">
        <ele>2391.8000488281</ele>
        <time>2014-01-11T10:57:15.000Z</time>
      </trkpt>
      <trkpt lat="45.17798" lon="6.36375">
        <ele>2392</ele>
        <time>2014-01-11T10:57:16.000Z</time>
      </trkpt>
      <trkpt lat="45.17798" lon="6.36375">
        <ele>2392</ele>
        <time>2014-01-11T10:57:17.000Z</time>
      </trkpt>
      <trkpt lat="45.17798" lon="6.36375">
        <ele>2391.8000488281</ele>
        <time>2014-01-11T10:57:18.000Z</time>
      </trkpt>
      <trkpt lat="45.17798" lon="6.36375">
        <ele>2391.8000488281</ele>
        <time>2014-01-11T10:57:19.000Z</time>
      </trkpt>
      <trkpt lat="45.17798" lon="6.36375">
        <ele>2391.8000488281</ele>
        <time>2014-01-11T10:57:20.000Z</time>
      </trkpt>
      <trkpt lat="45.17798" lon="6.36375">
        <ele>2391.8000488281</ele>
        <time>2014-01-11T10:57:21.000Z</time>
      </trkpt>
      <trkpt lat="45.17798" lon="6.36375">
        <ele>2391.8000488281</ele>
        <time>2014-01-11T10:57:22.000Z</time>
      </trkpt>
      <trkpt lat="45.17798" lon="6.36375">
        <ele>2391.8000488281</ele>
        <time>2014-01-11T10:57:23.000Z</time>
      </trkpt>
      <trkpt lat="45.17798" lon="6.36375">
        <ele>2391.8000488281</ele>
        <time>2014-01-11T10:57:24.000Z</time>
      </trkpt>
      <trkpt lat="45.17798" lon="6.36375">
        <ele>2391.8000488281</ele>
        <time>2014-01-11T10:57:25.000Z</time>
      </trkpt>
      <trkpt lat="45.17798" lon="6.36375">
        <ele>2391.8000488281</ele>
        <time>2014-01-11T10:57:26.000Z</time>
      </trkpt>
      <trkpt lat="45.17798" lon="6.36375">
        <ele>2391.8000488281</ele>
        <time>2014-01-11T10:57:27.000Z</time>
      </trkpt>
      <trkpt lat="45.17798" lon="6.36375">
        <ele>2391.8000488281</ele>
        <time>2014-01-11T10:57:28.000Z</time>
      </trkpt>
      <trkpt lat="45.17798" lon="6.36375">
        <ele>2391.6000976562</ele>
        <time>2014-01-11T10:57:29.000Z</time>
      </trkpt>
      <trkpt lat="45.17798" lon="6.36375">
        <ele>2391.6000976562</ele>
        <time>2014-01-11T10:57:30.000Z</time>
      </trkpt>
      <trkpt lat="45.17798" lon="6.36375">
        <ele>2391.6000976562</ele>
        <time>2014-01-11T10:57:31.000Z</time>
      </trkpt>
      <trkpt lat="45.17798" lon="6.36375">
        <ele>2391.3999023438</ele>
        <time>2014-01-11T10:57:32.000Z</time>
      </trkpt>
      <trkpt lat="45.17798" lon="6.36375">
        <ele>2391.3999023438</ele>
        <time>2014-01-11T10:57:33.000Z</time>
      </trkpt>
      <trkpt lat="45.17798" lon="6.36375">
        <ele>2391.3999023438</ele>
        <time>2014-01-11T10:57:34.000Z</time>
      </trkpt>
      <trkpt lat="45.17798" lon="6.36375">
        <ele>2391.3999023438</ele>
        <time>2014-01-11T10:57:35.000Z</time>
      </trkpt>
      <trkpt lat="45.17798" lon="6.36375">
        <ele>2391.3999023438</ele>
        <time>2014-01-11T10:57:36.000Z</time>
      </trkpt>
      <trkpt lat="45.17798" lon="6.36375">
        <ele>2391.3999023438</ele>
        <time>2014-01-11T10:57:37.000Z</time>
      </trkpt>
      <trkpt lat="45.17798" lon="6.36375">
        <ele>2391.6000976562</ele>
        <time>2014-01-11T10:57:38.000Z</time>
      </trkpt>
      <trkpt lat="45.17798" lon="6.36375">
        <ele>2391.6000976562</ele>
        <time>2014-01-11T10:57:39.000Z</time>
      </trkpt>
      <trkpt lat="45.17798" lon="6.36375">
        <ele>2391.6000976562</ele>
        <time>2014-01-11T10:57:43.000Z</time>
      </trkpt>
      <trkpt lat="45.17798" lon="6.36375">
        <ele>2391.6000976562</ele>
        <time>2014-01-11T10:57:44.000Z</time>
      </trkpt>
      <trkpt lat="45.17798" lon="6.36375">
        <ele>2391.6000976562</ele>
        <time>2014-01-11T10:57:45.000Z</time>
      </trkpt>
      <trkpt lat="45.17798" lon="6.36375">
        <ele>2391.6000976562</ele>
        <time>2014-01-11T10:57:46.000Z</time>
      </trkpt>
      <trkpt lat="45.17798" lon="6.36376">
        <ele>2391.6000976562</ele>
        <time>2014-01-11T10:57:49.000Z</time>
      </trkpt>
      <trkpt lat="45.17798" lon="6.36376">
        <ele>2391.6000976562</ele>
        <time>2014-01-11T10:57:50.000Z</time>
      </trkpt>
      <trkpt lat="45.17798" lon="6.36376">
        <ele>2391.6000976562</ele>
        <time>2014-01-11T10:57:51.000Z</time>
      </trkpt>
      <trkpt lat="45.17798" lon="6.36376">
        <ele>2391.8000488281</ele>
        <time>2014-01-11T10:57:52.000Z</time>
      </trkpt>
      <trkpt lat="45.17798" lon="6.36376">
        <ele>2391.8000488281</ele>
        <time>2014-01-11T10:57:53.000Z</time>
      </trkpt>
      <trkpt lat="45.17798" lon="6.36376">
        <ele>2391.8000488281</ele>
        <time>2014-01-11T10:57:54.000Z</time>
      </trkpt>
      <trkpt lat="45.17798" lon="6.36376">
        <ele>2391.8000488281</ele>
        <time>2014-01-11T10:57:55.000Z</time>
      </trkpt>
      <trkpt lat="45.17798" lon="6.36376">
        <ele>2391.8000488281</ele>
        <time>2014-01-11T10:57:56.000Z</time>
      </trkpt>
      <trkpt lat="45.17798" lon="6.36376">
        <ele>2391.8000488281</ele>
        <time>2014-01-11T10:57:57.000Z</time>
      </trkpt>
      <trkpt lat="45.17798" lon="6.36376">
        <ele>2391.6000976562</ele>
        <time>2014-01-11T10:57:58.000Z</time>
      </trkpt>
      <trkpt lat="45.17798" lon="6.36376">
        <ele>2391.6000976562</ele>
        <time>2014-01-11T10:57:59.000Z</time>
      </trkpt>
      <trkpt lat="45.17798" lon="6.36376">
        <ele>2391.6000976562</ele>
        <time>2014-01-11T10:58:00.000Z</time>
      </trkpt>
      <trkpt lat="45.17798" lon="6.36376">
        <ele>2391.6000976562</ele>
        <time>2014-01-11T10:58:01.000Z</time>
      </trkpt>
      <trkpt lat="45.17798" lon="6.36376">
        <ele>2391.6000976562</ele>
        <time>2014-01-11T10:58:02.000Z</time>
      </trkpt>
      <trkpt lat="45.17798" lon="6.36376">
        <ele>2391.6000976562</ele>
        <time>2014-01-11T10:58:03.000Z</time>
      </trkpt>
      <trkpt lat="45.17798" lon="6.36376">
        <ele>2391.3999023438</ele>
        <time>2014-01-11T10:58:04.000Z</time>
      </trkpt>
      <trkpt lat="45.17798" lon="6.36376">
        <ele>2391.3999023438</ele>
        <time>2014-01-11T10:58:05.000Z</time>
      </trkpt>
      <trkpt lat="45.17798" lon="6.36376">
        <ele>2391.3999023438</ele>
        <time>2014-01-11T10:58:06.000Z</time>
      </trkpt>
      <trkpt lat="45.17798" lon="6.36376">
        <ele>2391.3999023438</ele>
        <time>2014-01-11T10:58:08.000Z</time>
      </trkpt>
      <trkpt lat="45.17798" lon="6.36376">
        <ele>2391.6000976562</ele>
        <time>2014-01-11T10:58:09.000Z</time>
      </trkpt>
      <trkpt lat="45.17798" lon="6.36376">
        <ele>2391.6000976562</ele>
        <time>2014-01-11T10:58:10.000Z</time>
      </trkpt>
      <trkpt lat="45.17799" lon="6.36376">
        <ele>2391.6000976562</ele>
        <time>2014-01-11T10:58:11.000Z</time>
      </trkpt>
      <trkpt lat="45.17799" lon="6.36375">
        <ele>2391.8000488281</ele>
        <time>2014-01-11T10:58:12.000Z</time>
      </trkpt>
      <trkpt lat="45.17799" lon="6.36375">
        <ele>2391.8000488281</ele>
        <time>2014-01-11T10:58:13.000Z</time>
      </trkpt>
      <trkpt lat="45.17799" lon="6.36374">
        <ele>2391.8000488281</ele>
        <time>2014-01-11T10:58:14.000Z</time>
      </trkpt>
      <trkpt lat="45.17799" lon="6.36374">
        <ele>2391.8000488281</ele>
        <time>2014-01-11T10:58:15.000Z</time>
      </trkpt>
      <trkpt lat="45.17799" lon="6.36373">
        <ele>2391.8000488281</ele>
        <time>2014-01-11T10:58:16.000Z</time>
      </trkpt>
      <trkpt lat="45.17799" lon="6.36373">
        <ele>2391.8000488281</ele>
        <time>2014-01-11T10:58:17.000Z</time>
      </trkpt>
      <trkpt lat="45.17799" lon="6.36373">
        <ele>2391.8000488281</ele>
        <time>2014-01-11T10:58:18.000Z</time>
      </trkpt>
      <trkpt lat="45.17799" lon="6.36373">
        <ele>2391.8000488281</ele>
        <time>2014-01-11T10:58:19.000Z</time>
      </trkpt>
      <trkpt lat="45.17799" lon="6.36373">
        <ele>2391.8000488281</ele>
        <time>2014-01-11T10:58:27.000Z</time>
      </trkpt>
      <trkpt lat="45.17799" lon="6.36373">
        <ele>2391.8000488281</ele>
        <time>2014-01-11T10:58:29.000Z</time>
      </trkpt>
      <trkpt lat="45.17799" lon="6.36373">
        <ele>2391.8000488281</ele>
        <time>2014-01-11T10:58:30.000Z</time>
      </trkpt>
      <trkpt lat="45.17799" lon="6.36373">
        <ele>2391.8000488281</ele>
        <time>2014-01-11T10:58:31.000Z</time>
      </trkpt>
      <trkpt lat="45.17799" lon="6.36373">
        <ele>2391.8000488281</ele>
        <time>2014-01-11T10:58:32.000Z</time>
      </trkpt>
      <trkpt lat="45.17799" lon="6.36373">
        <ele>2391.8000488281</ele>
        <time>2014-01-11T10:58:33.000Z</time>
      </trkpt>
      <trkpt lat="45.17799" lon="6.36373">
        <ele>2391.6000976562</ele>
        <time>2014-01-11T10:58:34.000Z</time>
      </trkpt>
      <trkpt lat="45.17799" lon="6.36373">
        <ele>2391.6000976562</ele>
        <time>2014-01-11T10:58:35.000Z</time>
      </trkpt>
      <trkpt lat="45.17799" lon="6.36373">
        <ele>2391.6000976562</ele>
        <time>2014-01-11T10:58:36.000Z</time>
      </trkpt>
      <trkpt lat="45.17799" lon="6.36373">
        <ele>2391.6000976562</ele>
        <time>2014-01-11T10:58:37.000Z</time>
      </trkpt>
      <trkpt lat="45.17799" lon="6.36373">
        <ele>2391.3999023438</ele>
        <time>2014-01-11T10:58:38.000Z</time>
      </trkpt>
      <trkpt lat="45.17799" lon="6.36373">
        <ele>2391.3999023438</ele>
        <time>2014-01-11T10:58:39.000Z</time>
      </trkpt>
      <trkpt lat="45.17799" lon="6.36373">
        <ele>2391.3999023438</ele>
        <time>2014-01-11T10:58:40.000Z</time>
      </trkpt>
      <trkpt lat="45.17799" lon="6.36373">
        <ele>2391.3999023438</ele>
        <time>2014-01-11T10:58:42.000Z</time>
      </trkpt>
      <trkpt lat="45.17799" lon="6.36373">
        <ele>2391.3999023438</ele>
        <time>2014-01-11T10:58:43.000Z</time>
      </trkpt>
      <trkpt lat="45.17799" lon="6.36373">
        <ele>2391.3999023438</ele>
        <time>2014-01-11T10:58:46.000Z</time>
      </trkpt>
      <trkpt lat="45.17799" lon="6.36373">
        <ele>2391.3999023438</ele>
        <time>2014-01-11T10:58:47.000Z</time>
      </trkpt>
      <trkpt lat="45.17799" lon="6.36373">
        <ele>2391.3999023438</ele>
        <time>2014-01-11T10:58:48.000Z</time>
      </trkpt>
      <trkpt lat="45.17799" lon="6.36373">
        <ele>2391.3999023438</ele>
        <time>2014-01-11T10:58:49.000Z</time>
      </trkpt>
      <trkpt lat="45.17799" lon="6.36373">
        <ele>2391.3999023438</ele>
        <time>2014-01-11T10:58:50.000Z</time>
      </trkpt>
      <trkpt lat="45.17799" lon="6.36373">
        <ele>2391.3999023438</ele>
        <time>2014-01-11T10:58:51.000Z</time>
      </trkpt>
      <trkpt lat="45.17799" lon="6.36373">
        <ele>2391.3999023438</ele>
        <time>2014-01-11T10:58:52.000Z</time>
      </trkpt>
      <trkpt lat="45.17799" lon="6.36373">
        <ele>2391.3999023438</ele>
        <time>2014-01-11T10:58:53.000Z</time>
      </trkpt>
      <trkpt lat="45.17799" lon="6.36373">
        <ele>2391.3999023438</ele>
        <time>2014-01-11T10:58:54.000Z</time>
      </trkpt>
      <trkpt lat="45.17799" lon="6.36373">
        <ele>2391.3999023438</ele>
        <time>2014-01-11T10:58:55.000Z</time>
      </trkpt>
      <trkpt lat="45.178" lon="6.36374">
        <ele>2391.3999023438</ele>
        <time>2014-01-11T10:58:56.000Z</time>
      </trkpt>
      <trkpt lat="45.178" lon="6.36374">
        <ele>2391.3999023438</ele>
        <time>2014-01-11T10:58:57.000Z</time>
      </trkpt>
      <trkpt lat="45.178" lon="6.36374">
        <ele>2391.3999023438</ele>
        <time>2014-01-11T10:58:59.000Z</time>
      </trkpt>
      <trkpt lat="45.178" lon="6.36374">
        <ele>2391.3999023438</ele>
        <time>2014-01-11T10:59:00.000Z</time>
      </trkpt>
      <trkpt lat="45.178" lon="6.36374">
        <ele>2391.3999023438</ele>
        <time>2014-01-11T10:59:01.000Z</time>
      </trkpt>
      <trkpt lat="45.178" lon="6.36374">
        <ele>2391.3999023438</ele>
        <time>2014-01-11T10:59:02.000Z</time>
      </trkpt>
      <trkpt lat="45.178" lon="6.36374">
        <ele>2391.3999023438</ele>
        <time>2014-01-11T10:59:03.000Z</time>
      </trkpt>
      <trkpt lat="45.178" lon="6.36374">
        <ele>2391.3999023438</ele>
        <time>2014-01-11T10:59:04.000Z</time>
      </trkpt>
      <trkpt lat="45.178" lon="6.36374">
        <ele>2391.3999023438</ele>
        <time>2014-01-11T10:59:05.000Z</time>
      </trkpt>
      <trkpt lat="45.178" lon="6.36374">
        <ele>2391.3999023438</ele>
        <time>2014-01-11T10:59:09.000Z</time>
      </trkpt>
      <trkpt lat="45.178" lon="6.36374">
        <ele>2391.3999023438</ele>
        <time>2014-01-11T10:59:10.000Z</time>
      </trkpt>
      <trkpt lat="45.178" lon="6.36374">
        <ele>2391.3999023438</ele>
        <time>2014-01-11T10:59:11.000Z</time>
      </trkpt>
      <trkpt lat="45.178" lon="6.36374">
        <ele>2391.3999023438</ele>
        <time>2014-01-11T10:59:12.000Z</time>
      </trkpt>
      <trkpt lat="45.178" lon="6.36374">
        <ele>2391.3999023438</ele>
        <time>2014-01-11T10:59:13.000Z</time>
      </trkpt>
      <trkpt lat="45.178" lon="6.36374">
        <ele>2391.3999023438</ele>
        <time>2014-01-11T10:59:14.000Z</time>
      </trkpt>
      <trkpt lat="45.178" lon="6.36374">
        <ele>2391.3999023438</ele>
        <time>2014-01-11T10:59:15.000Z</time>
      </trkpt>
      <trkpt lat="45.178" lon="6.36374">
        <ele>2391.3999023438</ele>
        <time>2014-01-11T10:59:16.000Z</time>
      </trkpt>
      <trkpt lat="45.178" lon="6.36374">
        <ele>2391.3999023438</ele>
        <time>2014-01-11T10:59:24.000Z</time>
      </trkpt>
      <trkpt lat="45.178" lon="6.36374">
        <ele>2391.3999023438</ele>
        <time>2014-01-11T10:59:25.000Z</time>
      </trkpt>
      <trkpt lat="45.178" lon="6.36374">
        <ele>2391.3999023438</ele>
        <time>2014-01-11T10:59:26.000Z</time>
      </trkpt>
      <trkpt lat="45.178" lon="6.36374">
        <ele>2391.3999023438</ele>
        <time>2014-01-11T10:59:28.000Z</time>
      </trkpt>
      <trkpt lat="45.178" lon="6.36374">
        <ele>2391.3999023438</ele>
        <time>2014-01-11T10:59:35.000Z</time>
      </trkpt>
      <trkpt lat="45.178" lon="6.36375">
        <ele>2391.3999023438</ele>
        <time>2014-01-11T10:59:36.000Z</time>
      </trkpt>
      <trkpt lat="45.178" lon="6.36375">
        <ele>2391.3999023438</ele>
        <time>2014-01-11T10:59:37.000Z</time>
      </trkpt>
      <trkpt lat="45.178" lon="6.36375">
        <ele>2391.3999023438</ele>
        <time>2014-01-11T10:59:38.000Z</time>
      </trkpt>
      <trkpt lat="45.178" lon="6.36375">
        <ele>2391.3999023438</ele>
        <time>2014-01-11T10:59:39.000Z</time>
      </trkpt>
      <trkpt lat="45.178" lon="6.36375">
        <ele>2391.3999023438</ele>
        <time>2014-01-11T10:59:40.000Z</time>
      </trkpt>
      <trkpt lat="45.178" lon="6.36375">
        <ele>2391.3999023438</ele>
        <time>2014-01-11T10:59:41.000Z</time>
      </trkpt>
      <trkpt lat="45.178" lon="6.36375">
        <ele>2391.3999023438</ele>
        <time>2014-01-11T10:59:42.000Z</time>
      </trkpt>
      <trkpt lat="45.178" lon="6.36375">
        <ele>2391.3999023438</ele>
        <time>2014-01-11T10:59:43.000Z</time>
      </trkpt>
      <trkpt lat="45.178" lon="6.36375">
        <ele>2391.3999023438</ele>
        <time>2014-01-11T10:59:44.000Z</time>
      </trkpt>
      <trkpt lat="45.178" lon="6.36375">
        <ele>2391.3999023438</ele>
        <time>2014-01-11T10:59:45.000Z</time>
      </trkpt>
      <trkpt lat="45.178" lon="6.36375">
        <ele>2391.3999023438</ele>
        <time>2014-01-11T10:59:46.000Z</time>
      </trkpt>
      <trkpt lat="45.178" lon="6.36375">
        <ele>2391.3999023438</ele>
        <time>2014-01-11T10:59:47.000Z</time>
      </trkpt>
      <trkpt lat="45.178" lon="6.36375">
        <ele>2391.3999023438</ele>
        <time>2014-01-11T10:59:50.000Z</time>
      </trkpt>
      <trkpt lat="45.178" lon="6.36375">
        <ele>2391.3999023438</ele>
        <time>2014-01-11T10:59:52.000Z</time>
      </trkpt>
      <trkpt lat="45.178" lon="6.36375">
        <ele>2391.3999023438</ele>
        <time>2014-01-11T10:59:53.000Z</time>
      </trkpt>
      <trkpt lat="45.178" lon="6.36375">
        <ele>2391.3999023438</ele>
        <time>2014-01-11T10:59:54.000Z</time>
      </trkpt>
      <trkpt lat="45.178" lon="6.36375">
        <ele>2391.3999023438</ele>
        <time>2014-01-11T10:59:56.000Z</time>
      </trkpt>
      <trkpt lat="45.178" lon="6.36375">
        <ele>2391.3999023438</ele>
        <time>2014-01-11T10:59:57.000Z</time>
      </trkpt>
      <trkpt lat="45.178" lon="6.36375">
        <ele>2391.3999023438</ele>
        <time>2014-01-11T10:59:58.000Z</time>
      </trkpt>
      <trkpt lat="45.178" lon="6.36375">
        <ele>2391.3999023438</ele>
        <time>2014-01-11T10:59:59.000Z</time>
      </trkpt>
      <trkpt lat="45.178" lon="6.36375">
        <ele>2391.3999023438</ele>
        <time>2014-01-11T11:00:00.000Z</time>
      </trkpt>
      <trkpt lat="45.178" lon="6.36375">
        <ele>2391.3999023438</ele>
        <time>2014-01-11T11:00:01.000Z</time>
      </trkpt>
      <trkpt lat="45.178" lon="6.36375">
        <ele>2391.3999023438</ele>
        <time>2014-01-11T11:00:02.000Z</time>
      </trkpt>
      <trkpt lat="45.178" lon="6.36375">
        <ele>2391.3999023438</ele>
        <time>2014-01-11T11:00:03.000Z</time>
      </trkpt>
      <trkpt lat="45.178" lon="6.36375">
        <ele>2391.3999023438</ele>
        <time>2014-01-11T11:00:04.000Z</time>
      </trkpt>
      <trkpt lat="45.178" lon="6.36375">
        <ele>2391.3999023438</ele>
        <time>2014-01-11T11:00:05.000Z</time>
      </trkpt>
      <trkpt lat="45.178" lon="6.36375">
        <ele>2391.3999023438</ele>
        <time>2014-01-11T11:00:07.000Z</time>
      </trkpt>
      <trkpt lat="45.178" lon="6.36375">
        <ele>2391.3999023438</ele>
        <time>2014-01-11T11:00:08.000Z</time>
      </trkpt>
      <trkpt lat="45.178" lon="6.36375">
        <ele>2391.3999023438</ele>
        <time>2014-01-11T11:00:09.000Z</time>
      </trkpt>
      <trkpt lat="45.178" lon="6.36375">
        <ele>2391.3999023438</ele>
        <time>2014-01-11T11:00:10.000Z</time>
      </trkpt>
      <trkpt lat="45.178" lon="6.36375">
        <ele>2391.3999023438</ele>
        <time>2014-01-11T11:00:11.000Z</time>
      </trkpt>
      <trkpt lat="45.178" lon="6.36375">
        <ele>2391.3999023438</ele>
        <time>2014-01-11T11:00:12.000Z</time>
      </trkpt>
      <trkpt lat="45.178" lon="6.36375">
        <ele>2391.3999023438</ele>
        <time>2014-01-11T11:00:13.000Z</time>
      </trkpt>
      <trkpt lat="45.178" lon="6.36375">
        <ele>2391.3999023438</ele>
        <time>2014-01-11T11:00:14.000Z</time>
      </trkpt>
      <trkpt lat="45.178" lon="6.36374">
        <ele>2391.3999023438</ele>
        <time>2014-01-11T11:00:16.000Z</time>
      </trkpt>
      <trkpt lat="45.178" lon="6.36374">
        <ele>2391.3999023438</ele>
        <time>2014-01-11T11:00:17.000Z</time>
      </trkpt>
      <trkpt lat="45.178" lon="6.36374">
        <ele>2391.6000976562</ele>
        <time>2014-01-11T11:00:18.000Z</time>
      </trkpt>
      <trkpt lat="45.178" lon="6.36374">
        <ele>2391.6000976562</ele>
        <time>2014-01-11T11:00:19.000Z</time>
      </trkpt>
      <trkpt lat="45.178" lon="6.36374">
        <ele>2391.6000976562</ele>
        <time>2014-01-11T11:00:20.000Z</time>
      </trkpt>
      <trkpt lat="45.178" lon="6.36374">
        <ele>2391.3999023438</ele>
        <time>2014-01-11T11:00:22.000Z</time>
      </trkpt>
      <trkpt lat="45.178" lon="6.36374">
        <ele>2391.3999023438</ele>
        <time>2014-01-11T11:00:23.000Z</time>
      </trkpt>
      <trkpt lat="45.178" lon="6.36374">
        <ele>2391.3999023438</ele>
        <time>2014-01-11T11:00:24.000Z</time>
      </trkpt>
      <trkpt lat="45.178" lon="6.36374">
        <ele>2391.3999023438</ele>
        <time>2014-01-11T11:00:25.000Z</time>
      </trkpt>
      <trkpt lat="45.178" lon="6.36374">
        <ele>2391.3999023438</ele>
        <time>2014-01-11T11:00:26.000Z</time>
      </trkpt>
      <trkpt lat="45.178" lon="6.36374">
        <ele>2391.3999023438</ele>
        <time>2014-01-11T11:00:35.000Z</time>
      </trkpt>
      <trkpt lat="45.178" lon="6.36374">
        <ele>2391.3999023438</ele>
        <time>2014-01-11T11:00:36.000Z</time>
      </trkpt>
      <trkpt lat="45.178" lon="6.36374">
        <ele>2391.6000976562</ele>
        <time>2014-01-11T11:00:37.000Z</time>
      </trkpt>
      <trkpt lat="45.178" lon="6.36374">
        <ele>2391.6000976562</ele>
        <time>2014-01-11T11:00:38.000Z</time>
      </trkpt>
      <trkpt lat="45.178" lon="6.36374">
        <ele>2391.6000976562</ele>
        <time>2014-01-11T11:00:39.000Z</time>
      </trkpt>
      <trkpt lat="45.178" lon="6.36374">
        <ele>2391.6000976562</ele>
        <time>2014-01-11T11:00:40.000Z</time>
      </trkpt>
      <trkpt lat="45.178" lon="6.36374">
        <ele>2391.6000976562</ele>
        <time>2014-01-11T11:00:41.000Z</time>
      </trkpt>
      <trkpt lat="45.178" lon="6.36374">
        <ele>2391.6000976562</ele>
        <time>2014-01-11T11:00:42.000Z</time>
      </trkpt>
      <trkpt lat="45.178" lon="6.36374">
        <ele>2391.6000976562</ele>
        <time>2014-01-11T11:00:43.000Z</time>
      </trkpt>
      <trkpt lat="45.178" lon="6.36374">
        <ele>2391.3999023438</ele>
        <time>2014-01-11T11:00:44.000Z</time>
      </trkpt>
      <trkpt lat="45.178" lon="6.36374">
        <ele>2391.3999023438</ele>
        <time>2014-01-11T11:00:46.000Z</time>
      </trkpt>
      <trkpt lat="45.178" lon="6.36374">
        <ele>2391.6000976562</ele>
        <time>2014-01-11T11:00:47.000Z</time>
      </trkpt>
      <trkpt lat="45.178" lon="6.36374">
        <ele>2391.6000976562</ele>
        <time>2014-01-11T11:00:48.000Z</time>
      </trkpt>
      <trkpt lat="45.178" lon="6.36374">
        <ele>2391.6000976562</ele>
        <time>2014-01-11T11:00:49.000Z</time>
      </trkpt>
      <trkpt lat="45.178" lon="6.36374">
        <ele>2391.6000976562</ele>
        <time>2014-01-11T11:00:50.000Z</time>
      </trkpt>
      <trkpt lat="45.178" lon="6.36374">
        <ele>2391.6000976562</ele>
        <time>2014-01-11T11:00:51.000Z</time>
      </trkpt>
      <trkpt lat="45.178" lon="6.36374">
        <ele>2391.6000976562</ele>
        <time>2014-01-11T11:00:52.000Z</time>
      </trkpt>
      <trkpt lat="45.178" lon="6.36374">
        <ele>2391.6000976562</ele>
        <time>2014-01-11T11:00:53.000Z</time>
      </trkpt>
      <trkpt lat="45.178" lon="6.36374">
        <ele>2391.6000976562</ele>
        <time>2014-01-11T11:00:54.000Z</time>
      </trkpt>
      <trkpt lat="45.178" lon="6.36374">
        <ele>2391.6000976562</ele>
        <time>2014-01-11T11:00:55.000Z</time>
      </trkpt>
      <trkpt lat="45.17801" lon="6.36375">
        <ele>2391.6000976562</ele>
        <time>2014-01-11T11:00:56.000Z</time>
      </trkpt>
      <trkpt lat="45.17801" lon="6.36375">
        <ele>2391.6000976562</ele>
        <time>2014-01-11T11:00:57.000Z</time>
      </trkpt>
      <trkpt lat="45.17801" lon="6.36375">
        <ele>2391.6000976562</ele>
        <time>2014-01-11T11:00:58.000Z</time>
      </trkpt>
      <trkpt lat="45.17801" lon="6.36375">
        <ele>2391.6000976562</ele>
        <time>2014-01-11T11:01:00.000Z</time>
      </trkpt>
      <trkpt lat="45.17801" lon="6.36375">
        <ele>2391.6000976562</ele>
        <time>2014-01-11T11:01:04.000Z</time>
      </trkpt>
      <trkpt lat="45.17801" lon="6.36375">
        <ele>2391.6000976562</ele>
        <time>2014-01-11T11:01:05.000Z</time>
      </trkpt>
      <trkpt lat="45.17801" lon="6.36375">
        <ele>2391.6000976562</ele>
        <time>2014-01-11T11:01:06.000Z</time>
      </trkpt>
      <trkpt lat="45.17801" lon="6.36375">
        <ele>2391.6000976562</ele>
        <time>2014-01-11T11:01:07.000Z</time>
      </trkpt>
      <trkpt lat="45.17801" lon="6.36375">
        <ele>2391.6000976562</ele>
        <time>2014-01-11T11:01:08.000Z</time>
      </trkpt>
      <trkpt lat="45.17801" lon="6.36375">
        <ele>2391.6000976562</ele>
        <time>2014-01-11T11:01:09.000Z</time>
      </trkpt>
      <trkpt lat="45.17801" lon="6.36377">
        <ele>2391.6000976562</ele>
        <time>2014-01-11T11:01:10.000Z</time>
      </trkpt>
      <trkpt lat="45.17801" lon="6.36378">
        <ele>2391.6000976562</ele>
        <time>2014-01-11T11:01:11.000Z</time>
      </trkpt>
      <trkpt lat="45.17801" lon="6.36378">
        <ele>2391.6000976562</ele>
        <time>2014-01-11T11:01:13.000Z</time>
      </trkpt>
      <trkpt lat="45.17801" lon="6.36378">
        <ele>2391.8000488281</ele>
        <time>2014-01-11T11:01:14.000Z</time>
      </trkpt>
      <trkpt lat="45.17801" lon="6.36378">
        <ele>2392</ele>
        <time>2014-01-11T11:01:15.000Z</time>
      </trkpt>
      <trkpt lat="45.17801" lon="6.36378">
        <ele>2392.1999511719</ele>
        <time>2014-01-11T11:01:16.000Z</time>
      </trkpt>
      <trkpt lat="45.17801" lon="6.36378">
        <ele>2392.1999511719</ele>
        <time>2014-01-11T11:01:17.000Z</time>
      </trkpt>
      <trkpt lat="45.17801" lon="6.36378">
        <ele>2392.1999511719</ele>
        <time>2014-01-11T11:01:18.000Z</time>
      </trkpt>
      <trkpt lat="45.17801" lon="6.36378">
        <ele>2392.3999023438</ele>
        <time>2014-01-11T11:01:19.000Z</time>
      </trkpt>
      <trkpt lat="45.17801" lon="6.36378">
        <ele>2392.3999023438</ele>
        <time>2014-01-11T11:01:20.000Z</time>
      </trkpt>
      <trkpt lat="45.17801" lon="6.36378">
        <ele>2392.3999023438</ele>
        <time>2014-01-11T11:01:21.000Z</time>
      </trkpt>
      <trkpt lat="45.17801" lon="6.36378">
        <ele>2392.3999023438</ele>
        <time>2014-01-11T11:01:22.000Z</time>
      </trkpt>
      <trkpt lat="45.17801" lon="6.36378">
        <ele>2392.3999023438</ele>
        <time>2014-01-11T11:01:23.000Z</time>
      </trkpt>
      <trkpt lat="45.17801" lon="6.36378">
        <ele>2392.3999023438</ele>
        <time>2014-01-11T11:01:24.000Z</time>
      </trkpt>
      <trkpt lat="45.17801" lon="6.36378">
        <ele>2392.3999023438</ele>
        <time>2014-01-11T11:01:25.000Z</time>
      </trkpt>
      <trkpt lat="45.17801" lon="6.36378">
        <ele>2392.3999023438</ele>
        <time>2014-01-11T11:01:27.000Z</time>
      </trkpt>
      <trkpt lat="45.17801" lon="6.36378">
        <ele>2392.3999023438</ele>
        <time>2014-01-11T11:01:28.000Z</time>
      </trkpt>
      <trkpt lat="45.17801" lon="6.36378">
        <ele>2392.3999023438</ele>
        <time>2014-01-11T11:01:29.000Z</time>
      </trkpt>
      <trkpt lat="45.17801" lon="6.36378">
        <ele>2392.3999023438</ele>
        <time>2014-01-11T11:01:31.000Z</time>
      </trkpt>
      <trkpt lat="45.17801" lon="6.36378">
        <ele>2392.3999023438</ele>
        <time>2014-01-11T11:01:33.000Z</time>
      </trkpt>
      <trkpt lat="45.17801" lon="6.36378">
        <ele>2392.3999023438</ele>
        <time>2014-01-11T11:01:37.000Z</time>
      </trkpt>
      <trkpt lat="45.17801" lon="6.36378">
        <ele>2392.3999023438</ele>
        <time>2014-01-11T11:01:38.000Z</time>
      </trkpt>
      <trkpt lat="45.17801" lon="6.36378">
        <ele>2392.1999511719</ele>
        <time>2014-01-11T11:01:39.000Z</time>
      </trkpt>
      <trkpt lat="45.17801" lon="6.36378">
        <ele>2392.1999511719</ele>
        <time>2014-01-11T11:01:40.000Z</time>
      </trkpt>
      <trkpt lat="45.17801" lon="6.36378">
        <ele>2392.1999511719</ele>
        <time>2014-01-11T11:01:41.000Z</time>
      </trkpt>
      <trkpt lat="45.17801" lon="6.36378">
        <ele>2392.1999511719</ele>
        <time>2014-01-11T11:01:42.000Z</time>
      </trkpt>
      <trkpt lat="45.17801" lon="6.36378">
        <ele>2392.1999511719</ele>
        <time>2014-01-11T11:01:43.000Z</time>
      </trkpt>
      <trkpt lat="45.17801" lon="6.36378">
        <ele>2392.1999511719</ele>
        <time>2014-01-11T11:01:44.000Z</time>
      </trkpt>
      <trkpt lat="45.17801" lon="6.36378">
        <ele>2392.1999511719</ele>
        <time>2014-01-11T11:01:46.000Z</time>
      </trkpt>
      <trkpt lat="45.17801" lon="6.36378">
        <ele>2392.1999511719</ele>
        <time>2014-01-11T11:01:47.000Z</time>
      </trkpt>
      <trkpt lat="45.17801" lon="6.36378">
        <ele>2392.1999511719</ele>
        <time>2014-01-11T11:01:48.000Z</time>
      </trkpt>
      <trkpt lat="45.17801" lon="6.36378">
        <ele>2392.1999511719</ele>
        <time>2014-01-11T11:01:49.000Z</time>
      </trkpt>
      <trkpt lat="45.17801" lon="6.36378">
        <ele>2392.1999511719</ele>
        <time>2014-01-11T11:01:50.000Z</time>
      </trkpt>
      <trkpt lat="45.17801" lon="6.36378">
        <ele>2392.1999511719</ele>
        <time>2014-01-11T11:01:52.000Z</time>
      </trkpt>
      <trkpt lat="45.17801" lon="6.36378">
        <ele>2392.1999511719</ele>
        <time>2014-01-11T11:01:53.000Z</time>
      </trkpt>
      <trkpt lat="45.17801" lon="6.36378">
        <ele>2392.3999023438</ele>
        <time>2014-01-11T11:01:54.000Z</time>
      </trkpt>
      <trkpt lat="45.17801" lon="6.36378">
        <ele>2392.3999023438</ele>
        <time>2014-01-11T11:01:55.000Z</time>
      </trkpt>
      <trkpt lat="45.17801" lon="6.36378">
        <ele>2392.3999023438</ele>
        <time>2014-01-11T11:01:56.000Z</time>
      </trkpt>
      <trkpt lat="45.17801" lon="6.36378">
        <ele>2392.3999023438</ele>
        <time>2014-01-11T11:01:57.000Z</time>
      </trkpt>
      <trkpt lat="45.17801" lon="6.36378">
        <ele>2392.3999023438</ele>
        <time>2014-01-11T11:01:58.000Z</time>
      </trkpt>
      <trkpt lat="45.17801" lon="6.36379">
        <ele>2392.3999023438</ele>
        <time>2014-01-11T11:02:01.000Z</time>
      </trkpt>
      <trkpt lat="45.17801" lon="6.36379">
        <ele>2392.6000976562</ele>
        <time>2014-01-11T11:02:02.000Z</time>
      </trkpt>
      <trkpt lat="45.17801" lon="6.36379">
        <ele>2392.6000976562</ele>
        <time>2014-01-11T11:02:03.000Z</time>
      </trkpt>
      <trkpt lat="45.17801" lon="6.36379">
        <ele>2392.6000976562</ele>
        <time>2014-01-11T11:02:04.000Z</time>
      </trkpt>
      <trkpt lat="45.17801" lon="6.36379">
        <ele>2392.6000976562</ele>
        <time>2014-01-11T11:02:05.000Z</time>
      </trkpt>
      <trkpt lat="45.17801" lon="6.36379">
        <ele>2392.3999023438</ele>
        <time>2014-01-11T11:02:07.000Z</time>
      </trkpt>
      <trkpt lat="45.17801" lon="6.36379">
        <ele>2392.3999023438</ele>
        <time>2014-01-11T11:02:08.000Z</time>
      </trkpt>
      <trkpt lat="45.17801" lon="6.36379">
        <ele>2392.1999511719</ele>
        <time>2014-01-11T11:02:09.000Z</time>
      </trkpt>
      <trkpt lat="45.17801" lon="6.36379">
        <ele>2392.1999511719</ele>
        <time>2014-01-11T11:02:10.000Z</time>
      </trkpt>
      <trkpt lat="45.17801" lon="6.36379">
        <ele>2392.1999511719</ele>
        <time>2014-01-11T11:02:11.000Z</time>
      </trkpt>
      <trkpt lat="45.17801" lon="6.36379">
        <ele>2392.1999511719</ele>
        <time>2014-01-11T11:02:12.000Z</time>
      </trkpt>
      <trkpt lat="45.17801" lon="6.36379">
        <ele>2392.3999023438</ele>
        <time>2014-01-11T11:02:13.000Z</time>
      </trkpt>
      <trkpt lat="45.17801" lon="6.36379">
        <ele>2392.3999023438</ele>
        <time>2014-01-11T11:02:14.000Z</time>
      </trkpt>
      <trkpt lat="45.17801" lon="6.36379">
        <ele>2392.3999023438</ele>
        <time>2014-01-11T11:02:15.000Z</time>
      </trkpt>
      <trkpt lat="45.17801" lon="6.36379">
        <ele>2392.6000976562</ele>
        <time>2014-01-11T11:02:16.000Z</time>
      </trkpt>
      <trkpt lat="45.17801" lon="6.36379">
        <ele>2392.6000976562</ele>
        <time>2014-01-11T11:02:18.000Z</time>
      </trkpt>
      <trkpt lat="45.17801" lon="6.36379">
        <ele>2392.3999023438</ele>
        <time>2014-01-11T11:02:19.000Z</time>
      </trkpt>
      <trkpt lat="45.17801" lon="6.36379">
        <ele>2392.3999023438</ele>
        <time>2014-01-11T11:02:20.000Z</time>
      </trkpt>
      <trkpt lat="45.17801" lon="6.36379">
        <ele>2392.3999023438</ele>
        <time>2014-01-11T11:02:21.000Z</time>
      </trkpt>
      <trkpt lat="45.17801" lon="6.36379">
        <ele>2392.3999023438</ele>
        <time>2014-01-11T11:02:22.000Z</time>
      </trkpt>
      <trkpt lat="45.17801" lon="6.36379">
        <ele>2392.1999511719</ele>
        <time>2014-01-11T11:02:23.000Z</time>
      </trkpt>
      <trkpt lat="45.17801" lon="6.36379">
        <ele>2392.3999023438</ele>
        <time>2014-01-11T11:02:27.000Z</time>
      </trkpt>
      <trkpt lat="45.17801" lon="6.36379">
        <ele>2392.3999023438</ele>
        <time>2014-01-11T11:02:28.000Z</time>
      </trkpt>
      <trkpt lat="45.17802" lon="6.36379">
        <ele>2392.3999023438</ele>
        <time>2014-01-11T11:02:29.000Z</time>
      </trkpt>
      <trkpt lat="45.17802" lon="6.36379">
        <ele>2392.3999023438</ele>
        <time>2014-01-11T11:02:30.000Z</time>
      </trkpt>
      <trkpt lat="45.17802" lon="6.36379">
        <ele>2392.6000976562</ele>
        <time>2014-01-11T11:02:31.000Z</time>
      </trkpt>
      <trkpt lat="45.17802" lon="6.36379">
        <ele>2392.6000976562</ele>
        <time>2014-01-11T11:02:32.000Z</time>
      </trkpt>
      <trkpt lat="45.17802" lon="6.36379">
        <ele>2392.6000976562</ele>
        <time>2014-01-11T11:02:33.000Z</time>
      </trkpt>
      <trkpt lat="45.17802" lon="6.36379">
        <ele>2392.6000976562</ele>
        <time>2014-01-11T11:02:34.000Z</time>
      </trkpt>
      <trkpt lat="45.17802" lon="6.36379">
        <ele>2392.6000976562</ele>
        <time>2014-01-11T11:02:35.000Z</time>
      </trkpt>
      <trkpt lat="45.17802" lon="6.36379">
        <ele>2392.3999023438</ele>
        <time>2014-01-11T11:02:36.000Z</time>
      </trkpt>
      <trkpt lat="45.17802" lon="6.36379">
        <ele>2392.3999023438</ele>
        <time>2014-01-11T11:02:37.000Z</time>
      </trkpt>
      <trkpt lat="45.17802" lon="6.36379">
        <ele>2392.3999023438</ele>
        <time>2014-01-11T11:02:38.000Z</time>
      </trkpt>
      <trkpt lat="45.17802" lon="6.36379">
        <ele>2392.3999023438</ele>
        <time>2014-01-11T11:02:39.000Z</time>
      </trkpt>
      <trkpt lat="45.17802" lon="6.36379">
        <ele>2392.1999511719</ele>
        <time>2014-01-11T11:02:40.000Z</time>
      </trkpt>
      <trkpt lat="45.17802" lon="6.36379">
        <ele>2392.1999511719</ele>
        <time>2014-01-11T11:02:42.000Z</time>
      </trkpt>
      <trkpt lat="45.17802" lon="6.36379">
        <ele>2392.3999023438</ele>
        <time>2014-01-11T11:02:43.000Z</time>
      </trkpt>
      <trkpt lat="45.17802" lon="6.36379">
        <ele>2392.3999023438</ele>
        <time>2014-01-11T11:02:44.000Z</time>
      </trkpt>
      <trkpt lat="45.17802" lon="6.36379">
        <ele>2392.6000976562</ele>
        <time>2014-01-11T11:02:45.000Z</time>
      </trkpt>
      <trkpt lat="45.17802" lon="6.36379">
        <ele>2392.6000976562</ele>
        <time>2014-01-11T11:02:46.000Z</time>
      </trkpt>
      <trkpt lat="45.17802" lon="6.36379">
        <ele>2392.8000488281</ele>
        <time>2014-01-11T11:02:47.000Z</time>
      </trkpt>
      <trkpt lat="45.17802" lon="6.36379">
        <ele>2392.8000488281</ele>
        <time>2014-01-11T11:02:48.000Z</time>
      </trkpt>
      <trkpt lat="45.17802" lon="6.36379">
        <ele>2392.8000488281</ele>
        <time>2014-01-11T11:02:49.000Z</time>
      </trkpt>
      <trkpt lat="45.17802" lon="6.36379">
        <ele>2392.8000488281</ele>
        <time>2014-01-11T11:02:50.000Z</time>
      </trkpt>
      <trkpt lat="45.17802" lon="6.36379">
        <ele>2392.8000488281</ele>
        <time>2014-01-11T11:02:51.000Z</time>
      </trkpt>
      <trkpt lat="45.17802" lon="6.36379">
        <ele>2392.8000488281</ele>
        <time>2014-01-11T11:02:54.000Z</time>
      </trkpt>
      <trkpt lat="45.17802" lon="6.36379">
        <ele>2392.8000488281</ele>
        <time>2014-01-11T11:02:55.000Z</time>
      </trkpt>
      <trkpt lat="45.17802" lon="6.36379">
        <ele>2392.8000488281</ele>
        <time>2014-01-11T11:02:57.000Z</time>
      </trkpt>
      <trkpt lat="45.17802" lon="6.36379">
        <ele>2392.8000488281</ele>
        <time>2014-01-11T11:02:59.000Z</time>
      </trkpt>
      <trkpt lat="45.17802" lon="6.36379">
        <ele>2392.8000488281</ele>
        <time>2014-01-11T11:03:00.000Z</time>
      </trkpt>
      <trkpt lat="45.17802" lon="6.36379">
        <ele>2393</ele>
        <time>2014-01-11T11:03:01.000Z</time>
      </trkpt>
      <trkpt lat="45.17802" lon="6.36379">
        <ele>2393.1999511719</ele>
        <time>2014-01-11T11:03:02.000Z</time>
      </trkpt>
      <trkpt lat="45.17802" lon="6.36379">
        <ele>2393.1999511719</ele>
        <time>2014-01-11T11:03:03.000Z</time>
      </trkpt>
      <trkpt lat="45.17802" lon="6.36379">
        <ele>2393.3999023438</ele>
        <time>2014-01-11T11:03:04.000Z</time>
      </trkpt>
      <trkpt lat="45.17802" lon="6.36379">
        <ele>2393.3999023438</ele>
        <time>2014-01-11T11:03:05.000Z</time>
      </trkpt>
      <trkpt lat="45.17802" lon="6.36379">
        <ele>2393.3999023438</ele>
        <time>2014-01-11T11:03:06.000Z</time>
      </trkpt>
      <trkpt lat="45.17803" lon="6.36382">
        <ele>2393.3999023438</ele>
        <time>2014-01-11T11:03:07.000Z</time>
      </trkpt>
      <trkpt lat="45.17804" lon="6.36383">
        <ele>2393.6000976562</ele>
        <time>2014-01-11T11:03:08.000Z</time>
      </trkpt>
      <trkpt lat="45.17804" lon="6.36383">
        <ele>2393.6000976562</ele>
        <time>2014-01-11T11:03:09.000Z</time>
      </trkpt>
      <trkpt lat="45.17804" lon="6.36383">
        <ele>2393.6000976562</ele>
        <time>2014-01-11T11:03:10.000Z</time>
      </trkpt>
      <trkpt lat="45.17804" lon="6.36385">
        <ele>2393.6000976562</ele>
        <time>2014-01-11T11:03:11.000Z</time>
      </trkpt>
      <trkpt lat="45.17805" lon="6.36385">
        <ele>2393.8000488281</ele>
        <time>2014-01-11T11:03:12.000Z</time>
      </trkpt>
      <trkpt lat="45.17805" lon="6.36385">
        <ele>2394</ele>
        <time>2014-01-11T11:03:13.000Z</time>
      </trkpt>
      <trkpt lat="45.17805" lon="6.36385">
        <ele>2394</ele>
        <time>2014-01-11T11:03:14.000Z</time>
      </trkpt>
      <trkpt lat="45.17805" lon="6.36388">
        <ele>2394</ele>
        <time>2014-01-11T11:03:15.000Z</time>
      </trkpt>
      <trkpt lat="45.17805" lon="6.36388">
        <ele>2394.1999511719</ele>
        <time>2014-01-11T11:03:16.000Z</time>
      </trkpt>
      <trkpt lat="45.17805" lon="6.3639">
        <ele>2394.1999511719</ele>
        <time>2014-01-11T11:03:17.000Z</time>
      </trkpt>
      <trkpt lat="45.17805" lon="6.36392">
        <ele>2394.3999023438</ele>
        <time>2014-01-11T11:03:18.000Z</time>
      </trkpt>
      <trkpt lat="45.17805" lon="6.36392">
        <ele>2394.3999023438</ele>
        <time>2014-01-11T11:03:19.000Z</time>
      </trkpt>
      <trkpt lat="45.17805" lon="6.36393">
        <ele>2394.3999023438</ele>
        <time>2014-01-11T11:03:21.000Z</time>
      </trkpt>
      <trkpt lat="45.17805" lon="6.36393">
        <ele>2394.3999023438</ele>
        <time>2014-01-11T11:03:22.000Z</time>
      </trkpt>
      <trkpt lat="45.17805" lon="6.36393">
        <ele>2394.6000976562</ele>
        <time>2014-01-11T11:03:23.000Z</time>
      </trkpt>
      <trkpt lat="45.17805" lon="6.36393">
        <ele>2394.6000976562</ele>
        <time>2014-01-11T11:03:24.000Z</time>
      </trkpt>
      <trkpt lat="45.17805" lon="6.36393">
        <ele>2394.8000488281</ele>
        <time>2014-01-11T11:03:25.000Z</time>
      </trkpt>
      <trkpt lat="45.17805" lon="6.36394">
        <ele>2394.8000488281</ele>
        <time>2014-01-11T11:03:26.000Z</time>
      </trkpt>
      <trkpt lat="45.17806" lon="6.36395">
        <ele>2395</ele>
        <time>2014-01-11T11:03:27.000Z</time>
      </trkpt>
      <trkpt lat="45.17806" lon="6.36395">
        <ele>2395</ele>
        <time>2014-01-11T11:03:28.000Z</time>
      </trkpt>
      <trkpt lat="45.17806" lon="6.36395">
        <ele>2395</ele>
        <time>2014-01-11T11:03:29.000Z</time>
      </trkpt>
      <trkpt lat="45.17806" lon="6.36395">
        <ele>2395</ele>
        <time>2014-01-11T11:03:30.000Z</time>
      </trkpt>
      <trkpt lat="45.17806" lon="6.36395">
        <ele>2395</ele>
        <time>2014-01-11T11:03:31.000Z</time>
      </trkpt>
      <trkpt lat="45.17806" lon="6.36395">
        <ele>2395.1999511719</ele>
        <time>2014-01-11T11:03:32.000Z</time>
      </trkpt>
      <trkpt lat="45.17806" lon="6.36395">
        <ele>2395.1999511719</ele>
        <time>2014-01-11T11:03:33.000Z</time>
      </trkpt>
      <trkpt lat="45.17806" lon="6.36395">
        <ele>2395.1999511719</ele>
        <time>2014-01-11T11:03:34.000Z</time>
      </trkpt>
      <trkpt lat="45.17806" lon="6.36395">
        <ele>2395.1999511719</ele>
        <time>2014-01-11T11:03:35.000Z</time>
      </trkpt>
      <trkpt lat="45.17806" lon="6.36395">
        <ele>2395.1999511719</ele>
        <time>2014-01-11T11:03:36.000Z</time>
      </trkpt>
      <trkpt lat="45.17806" lon="6.36395">
        <ele>2395.1999511719</ele>
        <time>2014-01-11T11:03:38.000Z</time>
      </trkpt>
      <trkpt lat="45.17806" lon="6.36395">
        <ele>2395.1999511719</ele>
        <time>2014-01-11T11:03:39.000Z</time>
      </trkpt>
      <trkpt lat="45.17806" lon="6.36395">
        <ele>2395</ele>
        <time>2014-01-11T11:03:40.000Z</time>
      </trkpt>
      <trkpt lat="45.17806" lon="6.36395">
        <ele>2395</ele>
        <time>2014-01-11T11:03:41.000Z</time>
      </trkpt>
      <trkpt lat="45.17806" lon="6.36395">
        <ele>2395</ele>
        <time>2014-01-11T11:03:42.000Z</time>
      </trkpt>
      <trkpt lat="45.17806" lon="6.36395">
        <ele>2395</ele>
        <time>2014-01-11T11:03:43.000Z</time>
      </trkpt>
      <trkpt lat="45.17806" lon="6.36395">
        <ele>2395</ele>
        <time>2014-01-11T11:03:44.000Z</time>
      </trkpt>
      <trkpt lat="45.17806" lon="6.36395">
        <ele>2395</ele>
        <time>2014-01-11T11:03:45.000Z</time>
      </trkpt>
      <trkpt lat="45.17806" lon="6.36395">
        <ele>2395</ele>
        <time>2014-01-11T11:03:46.000Z</time>
      </trkpt>
      <trkpt lat="45.17806" lon="6.36395">
        <ele>2395</ele>
        <time>2014-01-11T11:03:48.000Z</time>
      </trkpt>
      <trkpt lat="45.17806" lon="6.36395">
        <ele>2395</ele>
        <time>2014-01-11T11:03:49.000Z</time>
      </trkpt>
      <trkpt lat="45.17806" lon="6.36395">
        <ele>2395</ele>
        <time>2014-01-11T11:03:51.000Z</time>
      </trkpt>
      <trkpt lat="45.17806" lon="6.36395">
        <ele>2395</ele>
        <time>2014-01-11T11:03:52.000Z</time>
      </trkpt>
      <trkpt lat="45.17806" lon="6.36395">
        <ele>2395</ele>
        <time>2014-01-11T11:03:53.000Z</time>
      </trkpt>
      <trkpt lat="45.17806" lon="6.36395">
        <ele>2395</ele>
        <time>2014-01-11T11:03:54.000Z</time>
      </trkpt>
      <trkpt lat="45.17806" lon="6.36395">
        <ele>2395</ele>
        <time>2014-01-11T11:03:57.000Z</time>
      </trkpt>
      <trkpt lat="45.17806" lon="6.36395">
        <ele>2395</ele>
        <time>2014-01-11T11:03:58.000Z</time>
      </trkpt>
      <trkpt lat="45.17806" lon="6.36395">
        <ele>2395</ele>
        <time>2014-01-11T11:03:59.000Z</time>
      </trkpt>
      <trkpt lat="45.17806" lon="6.36395">
        <ele>2395</ele>
        <time>2014-01-11T11:04:00.000Z</time>
      </trkpt>
      <trkpt lat="45.17806" lon="6.36395">
        <ele>2394.8000488281</ele>
        <time>2014-01-11T11:04:01.000Z</time>
      </trkpt>
      <trkpt lat="45.17806" lon="6.36395">
        <ele>2394.8000488281</ele>
        <time>2014-01-11T11:04:02.000Z</time>
      </trkpt>
      <trkpt lat="45.17806" lon="6.36395">
        <ele>2394.8000488281</ele>
        <time>2014-01-11T11:04:03.000Z</time>
      </trkpt>
      <trkpt lat="45.17806" lon="6.36395">
        <ele>2394.8000488281</ele>
        <time>2014-01-11T11:04:04.000Z</time>
      </trkpt>
      <trkpt lat="45.17806" lon="6.36395">
        <ele>2395</ele>
        <time>2014-01-11T11:04:05.000Z</time>
      </trkpt>
      <trkpt lat="45.17806" lon="6.36395">
        <ele>2395</ele>
        <time>2014-01-11T11:04:06.000Z</time>
      </trkpt>
      <trkpt lat="45.17806" lon="6.36393">
        <ele>2395</ele>
        <time>2014-01-11T11:04:07.000Z</time>
      </trkpt>
      <trkpt lat="45.17806" lon="6.36393">
        <ele>2395</ele>
        <time>2014-01-11T11:04:08.000Z</time>
      </trkpt>
      <trkpt lat="45.17806" lon="6.36393">
        <ele>2395</ele>
        <time>2014-01-11T11:04:09.000Z</time>
      </trkpt>
      <trkpt lat="45.17806" lon="6.36393">
        <ele>2395</ele>
        <time>2014-01-11T11:04:12.000Z</time>
      </trkpt>
      <trkpt lat="45.17806" lon="6.36393">
        <ele>2395</ele>
        <time>2014-01-11T11:04:13.000Z</time>
      </trkpt>
      <trkpt lat="45.17806" lon="6.36393">
        <ele>2395</ele>
        <time>2014-01-11T11:04:14.000Z</time>
      </trkpt>
      <trkpt lat="45.17806" lon="6.36393">
        <ele>2395</ele>
        <time>2014-01-11T11:04:16.000Z</time>
      </trkpt>
      <trkpt lat="45.17806" lon="6.36393">
        <ele>2395</ele>
        <time>2014-01-11T11:04:17.000Z</time>
      </trkpt>
      <trkpt lat="45.17806" lon="6.36393">
        <ele>2395</ele>
        <time>2014-01-11T11:04:18.000Z</time>
      </trkpt>
      <trkpt lat="45.17806" lon="6.36393">
        <ele>2395</ele>
        <time>2014-01-11T11:04:19.000Z</time>
      </trkpt>
      <trkpt lat="45.17806" lon="6.36393">
        <ele>2395</ele>
        <time>2014-01-11T11:04:20.000Z</time>
      </trkpt>
      <trkpt lat="45.17806" lon="6.36393">
        <ele>2395</ele>
        <time>2014-01-11T11:04:21.000Z</time>
      </trkpt>
      <trkpt lat="45.17806" lon="6.36393">
        <ele>2395</ele>
        <time>2014-01-11T11:04:24.000Z</time>
      </trkpt>
      <trkpt lat="45.17806" lon="6.36393">
        <ele>2395</ele>
        <time>2014-01-11T11:04:25.000Z</time>
      </trkpt>
      <trkpt lat="45.17806" lon="6.36393">
        <ele>2395</ele>
        <time>2014-01-11T11:04:26.000Z</time>
      </trkpt>
      <trkpt lat="45.17806" lon="6.36393">
        <ele>2395</ele>
        <time>2014-01-11T11:04:29.000Z</time>
      </trkpt>
      <trkpt lat="45.17806" lon="6.36393">
        <ele>2395</ele>
        <time>2014-01-11T11:04:31.000Z</time>
      </trkpt>
      <trkpt lat="45.17806" lon="6.36393">
        <ele>2395</ele>
        <time>2014-01-11T11:04:32.000Z</time>
      </trkpt>
      <trkpt lat="45.17806" lon="6.36393">
        <ele>2395</ele>
        <time>2014-01-11T11:04:33.000Z</time>
      </trkpt>
      <trkpt lat="45.17806" lon="6.36393">
        <ele>2395</ele>
        <time>2014-01-11T11:04:34.000Z</time>
      </trkpt>
      <trkpt lat="45.17806" lon="6.36393">
        <ele>2395</ele>
        <time>2014-01-11T11:04:35.000Z</time>
      </trkpt>
      <trkpt lat="45.17806" lon="6.36393">
        <ele>2395</ele>
        <time>2014-01-11T11:04:36.000Z</time>
      </trkpt>
      <trkpt lat="45.17806" lon="6.36393">
        <ele>2395</ele>
        <time>2014-01-11T11:04:37.000Z</time>
      </trkpt>
      <trkpt lat="45.17806" lon="6.36393">
        <ele>2395</ele>
        <time>2014-01-11T11:04:39.000Z</time>
      </trkpt>
      <trkpt lat="45.17806" lon="6.36393">
        <ele>2395</ele>
        <time>2014-01-11T11:04:41.000Z</time>
      </trkpt>
      <trkpt lat="45.17806" lon="6.36393">
        <ele>2395</ele>
        <time>2014-01-11T11:04:43.000Z</time>
      </trkpt>
      <trkpt lat="45.17806" lon="6.36393">
        <ele>2395</ele>
        <time>2014-01-11T11:04:44.000Z</time>
      </trkpt>
      <trkpt lat="45.17806" lon="6.36393">
        <ele>2395</ele>
        <time>2014-01-11T11:04:45.000Z</time>
      </trkpt>
      <trkpt lat="45.17806" lon="6.36393">
        <ele>2394.8000488281</ele>
        <time>2014-01-11T11:04:46.000Z</time>
      </trkpt>
      <trkpt lat="45.17807" lon="6.36393">
        <ele>2394.8000488281</ele>
        <time>2014-01-11T11:04:47.000Z</time>
      </trkpt>
      <trkpt lat="45.17807" lon="6.36393">
        <ele>2394.8000488281</ele>
        <time>2014-01-11T11:04:48.000Z</time>
      </trkpt>
      <trkpt lat="45.17807" lon="6.36393">
        <ele>2394.6000976562</ele>
        <time>2014-01-11T11:04:49.000Z</time>
      </trkpt>
      <trkpt lat="45.17807" lon="6.36393">
        <ele>2394.6000976562</ele>
        <time>2014-01-11T11:04:50.000Z</time>
      </trkpt>
      <trkpt lat="45.17807" lon="6.36393">
        <ele>2394.6000976562</ele>
        <time>2014-01-11T11:04:51.000Z</time>
      </trkpt>
      <trkpt lat="45.17807" lon="6.36393">
        <ele>2394.6000976562</ele>
        <time>2014-01-11T11:04:52.000Z</time>
      </trkpt>
      <trkpt lat="45.17807" lon="6.36393">
        <ele>2394.6000976562</ele>
        <time>2014-01-11T11:04:53.000Z</time>
      </trkpt>
      <trkpt lat="45.17807" lon="6.36393">
        <ele>2394.6000976562</ele>
        <time>2014-01-11T11:04:54.000Z</time>
      </trkpt>
      <trkpt lat="45.17807" lon="6.36393">
        <ele>2394.6000976562</ele>
        <time>2014-01-11T11:04:56.000Z</time>
      </trkpt>
      <trkpt lat="45.17807" lon="6.36393">
        <ele>2394.6000976562</ele>
        <time>2014-01-11T11:04:57.000Z</time>
      </trkpt>
      <trkpt lat="45.17807" lon="6.36393">
        <ele>2394.6000976562</ele>
        <time>2014-01-11T11:04:58.000Z</time>
      </trkpt>
      <trkpt lat="45.17807" lon="6.36393">
        <ele>2394.6000976562</ele>
        <time>2014-01-11T11:05:00.000Z</time>
      </trkpt>
      <trkpt lat="45.17807" lon="6.36393">
        <ele>2394.6000976562</ele>
        <time>2014-01-11T11:05:01.000Z</time>
      </trkpt>
      <trkpt lat="45.17807" lon="6.36393">
        <ele>2394.6000976562</ele>
        <time>2014-01-11T11:05:02.000Z</time>
      </trkpt>
      <trkpt lat="45.17807" lon="6.36393">
        <ele>2394.6000976562</ele>
        <time>2014-01-11T11:05:04.000Z</time>
      </trkpt>
      <trkpt lat="45.17807" lon="6.36393">
        <ele>2394.6000976562</ele>
        <time>2014-01-11T11:05:05.000Z</time>
      </trkpt>
      <trkpt lat="45.17807" lon="6.36393">
        <ele>2394.6000976562</ele>
        <time>2014-01-11T11:05:06.000Z</time>
      </trkpt>
      <trkpt lat="45.17807" lon="6.36393">
        <ele>2394.6000976562</ele>
        <time>2014-01-11T11:05:07.000Z</time>
      </trkpt>
      <trkpt lat="45.17807" lon="6.36393">
        <ele>2394.6000976562</ele>
        <time>2014-01-11T11:05:08.000Z</time>
      </trkpt>
      <trkpt lat="45.17807" lon="6.36393">
        <ele>2394.6000976562</ele>
        <time>2014-01-11T11:05:15.000Z</time>
      </trkpt>
      <trkpt lat="45.17807" lon="6.36393">
        <ele>2394.6000976562</ele>
        <time>2014-01-11T11:05:16.000Z</time>
      </trkpt>
      <trkpt lat="45.17807" lon="6.36393">
        <ele>2394.6000976562</ele>
        <time>2014-01-11T11:05:22.000Z</time>
      </trkpt>
      <trkpt lat="45.17807" lon="6.36393">
        <ele>2394.6000976562</ele>
        <time>2014-01-11T11:05:23.000Z</time>
      </trkpt>
      <trkpt lat="45.17807" lon="6.36393">
        <ele>2394.6000976562</ele>
        <time>2014-01-11T11:05:24.000Z</time>
      </trkpt>
      <trkpt lat="45.17807" lon="6.36393">
        <ele>2394.6000976562</ele>
        <time>2014-01-11T11:05:25.000Z</time>
      </trkpt>
      <trkpt lat="45.17807" lon="6.36396">
        <ele>2394.6000976562</ele>
        <time>2014-01-11T11:05:26.000Z</time>
      </trkpt>
      <trkpt lat="45.17807" lon="6.36396">
        <ele>2394.6000976562</ele>
        <time>2014-01-11T11:05:27.000Z</time>
      </trkpt>
      <trkpt lat="45.17807" lon="6.36396">
        <ele>2394.6000976562</ele>
        <time>2014-01-11T11:05:28.000Z</time>
      </trkpt>
      <trkpt lat="45.17807" lon="6.36396">
        <ele>2394.8000488281</ele>
        <time>2014-01-11T11:05:29.000Z</time>
      </trkpt>
      <trkpt lat="45.17807" lon="6.36396">
        <ele>2394.8000488281</ele>
        <time>2014-01-11T11:05:30.000Z</time>
      </trkpt>
      <trkpt lat="45.17807" lon="6.36396">
        <ele>2395</ele>
        <time>2014-01-11T11:05:31.000Z</time>
      </trkpt>
      <trkpt lat="45.17807" lon="6.36396">
        <ele>2395.1999511719</ele>
        <time>2014-01-11T11:05:32.000Z</time>
      </trkpt>
      <trkpt lat="45.17807" lon="6.36396">
        <ele>2395.1999511719</ele>
        <time>2014-01-11T11:05:33.000Z</time>
      </trkpt>
      <trkpt lat="45.17807" lon="6.36396">
        <ele>2395.1999511719</ele>
        <time>2014-01-11T11:05:34.000Z</time>
      </trkpt>
      <trkpt lat="45.17807" lon="6.36396">
        <ele>2395.1999511719</ele>
        <time>2014-01-11T11:05:39.000Z</time>
      </trkpt>
      <trkpt lat="45.17807" lon="6.36396">
        <ele>2395.1999511719</ele>
        <time>2014-01-11T11:05:40.000Z</time>
      </trkpt>
      <trkpt lat="45.17807" lon="6.36396">
        <ele>2395.1999511719</ele>
        <time>2014-01-11T11:05:41.000Z</time>
      </trkpt>
      <trkpt lat="45.17807" lon="6.36396">
        <ele>2395.3999023438</ele>
        <time>2014-01-11T11:05:42.000Z</time>
      </trkpt>
      <trkpt lat="45.17807" lon="6.36396">
        <ele>2395.3999023438</ele>
        <time>2014-01-11T11:05:43.000Z</time>
      </trkpt>
      <trkpt lat="45.17807" lon="6.36396">
        <ele>2395.3999023438</ele>
        <time>2014-01-11T11:05:44.000Z</time>
      </trkpt>
      <trkpt lat="45.17807" lon="6.36396">
        <ele>2395.1999511719</ele>
        <time>2014-01-11T11:05:45.000Z</time>
      </trkpt>
      <trkpt lat="45.17806" lon="6.36397">
        <ele>2395.1999511719</ele>
        <time>2014-01-11T11:05:46.000Z</time>
      </trkpt>
      <trkpt lat="45.17806" lon="6.36397">
        <ele>2395</ele>
        <time>2014-01-11T11:05:47.000Z</time>
      </trkpt>
      <trkpt lat="45.17806" lon="6.36397">
        <ele>2395</ele>
        <time>2014-01-11T11:05:48.000Z</time>
      </trkpt>
      <trkpt lat="45.17806" lon="6.36397">
        <ele>2395</ele>
        <time>2014-01-11T11:05:49.000Z</time>
      </trkpt>
      <trkpt lat="45.17806" lon="6.36396">
        <ele>2395</ele>
        <time>2014-01-11T11:05:51.000Z</time>
      </trkpt>
      <trkpt lat="45.17805" lon="6.36396">
        <ele>2395.3999023438</ele>
        <time>2014-01-11T11:05:52.000Z</time>
      </trkpt>
      <trkpt lat="45.17805" lon="6.36396">
        <ele>2395.3999023438</ele>
        <time>2014-01-11T11:05:53.000Z</time>
      </trkpt>
      <trkpt lat="45.17804" lon="6.36396">
        <ele>2395.6000976562</ele>
        <time>2014-01-11T11:05:54.000Z</time>
      </trkpt>
      <trkpt lat="45.17804" lon="6.36397">
        <ele>2395.8000488281</ele>
        <time>2014-01-11T11:05:55.000Z</time>
      </trkpt>
      <trkpt lat="45.17804" lon="6.36397">
        <ele>2396</ele>
        <time>2014-01-11T11:05:56.000Z</time>
      </trkpt>
      <trkpt lat="45.17804" lon="6.36397">
        <ele>2396.1999511719</ele>
        <time>2014-01-11T11:05:57.000Z</time>
      </trkpt>
      <trkpt lat="45.17804" lon="6.36397">
        <ele>2396.3999023438</ele>
        <time>2014-01-11T11:05:58.000Z</time>
      </trkpt>
      <trkpt lat="45.17803" lon="6.36397">
        <ele>2396.3999023438</ele>
        <time>2014-01-11T11:05:59.000Z</time>
      </trkpt>
      <trkpt lat="45.17803" lon="6.36396">
        <ele>2396.6000976562</ele>
        <time>2014-01-11T11:06:00.000Z</time>
      </trkpt>
      <trkpt lat="45.17802" lon="6.36396">
        <ele>2396.8000488281</ele>
        <time>2014-01-11T11:06:01.000Z</time>
      </trkpt>
      <trkpt lat="45.17801" lon="6.36395">
        <ele>2396.8000488281</ele>
        <time>2014-01-11T11:06:02.000Z</time>
      </trkpt>
      <trkpt lat="45.17801" lon="6.36395">
        <ele>2396.8000488281</ele>
        <time>2014-01-11T11:06:03.000Z</time>
      </trkpt>
      <trkpt lat="45.17801" lon="6.36395">
        <ele>2396.8000488281</ele>
        <time>2014-01-11T11:06:04.000Z</time>
      </trkpt>
      <trkpt lat="45.17801" lon="6.36395">
        <ele>2397</ele>
        <time>2014-01-11T11:06:05.000Z</time>
      </trkpt>
      <trkpt lat="45.17801" lon="6.36395">
        <ele>2397</ele>
        <time>2014-01-11T11:06:06.000Z</time>
      </trkpt>
      <trkpt lat="45.17801" lon="6.36395">
        <ele>2397</ele>
        <time>2014-01-11T11:06:07.000Z</time>
      </trkpt>
      <trkpt lat="45.17801" lon="6.36395">
        <ele>2397</ele>
        <time>2014-01-11T11:06:08.000Z</time>
      </trkpt>
      <trkpt lat="45.17801" lon="6.36395">
        <ele>2397</ele>
        <time>2014-01-11T11:06:11.000Z</time>
      </trkpt>
      <trkpt lat="45.17801" lon="6.36395">
        <ele>2397</ele>
        <time>2014-01-11T11:06:12.000Z</time>
      </trkpt>
      <trkpt lat="45.17801" lon="6.36396">
        <ele>2397</ele>
        <time>2014-01-11T11:06:13.000Z</time>
      </trkpt>
      <trkpt lat="45.17801" lon="6.36396">
        <ele>2397</ele>
        <time>2014-01-11T11:06:14.000Z</time>
      </trkpt>
      <trkpt lat="45.17801" lon="6.36396">
        <ele>2397.1999511719</ele>
        <time>2014-01-11T11:06:15.000Z</time>
      </trkpt>
      <trkpt lat="45.17802" lon="6.36397">
        <ele>2397.3999023438</ele>
        <time>2014-01-11T11:06:16.000Z</time>
      </trkpt>
      <trkpt lat="45.17802" lon="6.36397">
        <ele>2397.6000976562</ele>
        <time>2014-01-11T11:06:17.000Z</time>
      </trkpt>
      <trkpt lat="45.17802" lon="6.36397">
        <ele>2397.6000976562</ele>
        <time>2014-01-11T11:06:18.000Z</time>
      </trkpt>
      <trkpt lat="45.17802" lon="6.36397">
        <ele>2397.8000488281</ele>
        <time>2014-01-11T11:06:19.000Z</time>
      </trkpt>
      <trkpt lat="45.17802" lon="6.36397">
        <ele>2397.8000488281</ele>
        <time>2014-01-11T11:06:20.000Z</time>
      </trkpt>
      <trkpt lat="45.17802" lon="6.36397">
        <ele>2398</ele>
        <time>2014-01-11T11:06:21.000Z</time>
      </trkpt>
      <trkpt lat="45.17802" lon="6.36397">
        <ele>2398</ele>
        <time>2014-01-11T11:06:22.000Z</time>
      </trkpt>
      <trkpt lat="45.17802" lon="6.36397">
        <ele>2398</ele>
        <time>2014-01-11T11:06:23.000Z</time>
      </trkpt>
      <trkpt lat="45.17802" lon="6.36397">
        <ele>2398</ele>
        <time>2014-01-11T11:06:25.000Z</time>
      </trkpt>
      <trkpt lat="45.17802" lon="6.36397">
        <ele>2398</ele>
        <time>2014-01-11T11:06:26.000Z</time>
      </trkpt>
      <trkpt lat="45.17802" lon="6.36397">
        <ele>2398</ele>
        <time>2014-01-11T11:06:27.000Z</time>
      </trkpt>
      <trkpt lat="45.17802" lon="6.36397">
        <ele>2398.1999511719</ele>
        <time>2014-01-11T11:06:28.000Z</time>
      </trkpt>
      <trkpt lat="45.17802" lon="6.36397">
        <ele>2398.1999511719</ele>
        <time>2014-01-11T11:06:29.000Z</time>
      </trkpt>
      <trkpt lat="45.17802" lon="6.36397">
        <ele>2398.1999511719</ele>
        <time>2014-01-11T11:06:30.000Z</time>
      </trkpt>
      <trkpt lat="45.17802" lon="6.36397">
        <ele>2398.1999511719</ele>
        <time>2014-01-11T11:06:32.000Z</time>
      </trkpt>
      <trkpt lat="45.17802" lon="6.36397">
        <ele>2398.1999511719</ele>
        <time>2014-01-11T11:06:37.000Z</time>
      </trkpt>
      <trkpt lat="45.17802" lon="6.36397">
        <ele>2398</ele>
        <time>2014-01-11T11:06:38.000Z</time>
      </trkpt>
      <trkpt lat="45.17802" lon="6.36397">
        <ele>2398.1999511719</ele>
        <time>2014-01-11T11:06:40.000Z</time>
      </trkpt>
      <trkpt lat="45.17802" lon="6.36397">
        <ele>2398.1999511719</ele>
        <time>2014-01-11T11:06:41.000Z</time>
      </trkpt>
      <trkpt lat="45.17802" lon="6.36397">
        <ele>2398.1999511719</ele>
        <time>2014-01-11T11:06:43.000Z</time>
      </trkpt>
      <trkpt lat="45.17802" lon="6.36397">
        <ele>2398.1999511719</ele>
        <time>2014-01-11T11:06:44.000Z</time>
      </trkpt>
      <trkpt lat="45.17802" lon="6.36398">
        <ele>2398.1999511719</ele>
        <time>2014-01-11T11:06:45.000Z</time>
      </trkpt>
      <trkpt lat="45.17802" lon="6.36399">
        <ele>2398.1999511719</ele>
        <time>2014-01-11T11:06:46.000Z</time>
      </trkpt>
      <trkpt lat="45.17802" lon="6.36399">
        <ele>2398.1999511719</ele>
        <time>2014-01-11T11:06:47.000Z</time>
      </trkpt>
      <trkpt lat="45.17802" lon="6.364">
        <ele>2398.3999023438</ele>
        <time>2014-01-11T11:06:48.000Z</time>
      </trkpt>
      <trkpt lat="45.17802" lon="6.364">
        <ele>2398.3999023438</ele>
        <time>2014-01-11T11:06:49.000Z</time>
      </trkpt>
      <trkpt lat="45.17802" lon="6.364">
        <ele>2398.6000976562</ele>
        <time>2014-01-11T11:06:50.000Z</time>
      </trkpt>
      <trkpt lat="45.17803" lon="6.36401">
        <ele>2398.6000976562</ele>
        <time>2014-01-11T11:06:51.000Z</time>
      </trkpt>
      <trkpt lat="45.17803" lon="6.36403">
        <ele>2398.6000976562</ele>
        <time>2014-01-11T11:06:52.000Z</time>
      </trkpt>
      <trkpt lat="45.17803" lon="6.36403">
        <ele>2398.8000488281</ele>
        <time>2014-01-11T11:06:53.000Z</time>
      </trkpt>
      <trkpt lat="45.17804" lon="6.36404">
        <ele>2398.8000488281</ele>
        <time>2014-01-11T11:06:54.000Z</time>
      </trkpt>
      <trkpt lat="45.17804" lon="6.36404">
        <ele>2398.8000488281</ele>
        <time>2014-01-11T11:06:55.000Z</time>
      </trkpt>
      <trkpt lat="45.17805" lon="6.36405">
        <ele>2399</ele>
        <time>2014-01-11T11:06:56.000Z</time>
      </trkpt>
      <trkpt lat="45.17805" lon="6.36406">
        <ele>2399</ele>
        <time>2014-01-11T11:06:57.000Z</time>
      </trkpt>
      <trkpt lat="45.17805" lon="6.36406">
        <ele>2399</ele>
        <time>2014-01-11T11:06:58.000Z</time>
      </trkpt>
      <trkpt lat="45.17805" lon="6.36406">
        <ele>2399.1999511719</ele>
        <time>2014-01-11T11:06:59.000Z</time>
      </trkpt>
      <trkpt lat="45.17805" lon="6.36407">
        <ele>2399.1999511719</ele>
        <time>2014-01-11T11:07:00.000Z</time>
      </trkpt>
      <trkpt lat="45.17805" lon="6.36407">
        <ele>2399.3999023438</ele>
        <time>2014-01-11T11:07:01.000Z</time>
      </trkpt>
      <trkpt lat="45.17805" lon="6.36407">
        <ele>2399.3999023438</ele>
        <time>2014-01-11T11:07:02.000Z</time>
      </trkpt>
      <trkpt lat="45.17805" lon="6.36407">
        <ele>2399.3999023438</ele>
        <time>2014-01-11T11:07:03.000Z</time>
      </trkpt>
      <trkpt lat="45.17805" lon="6.36407">
        <ele>2399.3999023438</ele>
        <time>2014-01-11T11:07:04.000Z</time>
      </trkpt>
      <trkpt lat="45.17805" lon="6.36407">
        <ele>2399.3999023438</ele>
        <time>2014-01-11T11:07:06.000Z</time>
      </trkpt>
      <trkpt lat="45.17805" lon="6.36407">
        <ele>2399.3999023438</ele>
        <time>2014-01-11T11:07:07.000Z</time>
      </trkpt>
      <trkpt lat="45.17805" lon="6.36408">
        <ele>2399.3999023438</ele>
        <time>2014-01-11T11:07:14.000Z</time>
      </trkpt>
      <trkpt lat="45.17805" lon="6.36408">
        <ele>2399.3999023438</ele>
        <time>2014-01-11T11:07:15.000Z</time>
      </trkpt>
      <trkpt lat="45.17805" lon="6.36409">
        <ele>2399.3999023438</ele>
        <time>2014-01-11T11:07:16.000Z</time>
      </trkpt>
      <trkpt lat="45.17806" lon="6.3641">
        <ele>2399.3999023438</ele>
        <time>2014-01-11T11:07:18.000Z</time>
      </trkpt>
      <trkpt lat="45.17806" lon="6.3641">
        <ele>2399.3999023438</ele>
        <time>2014-01-11T11:07:19.000Z</time>
      </trkpt>
      <trkpt lat="45.17806" lon="6.3641">
        <ele>2399.6000976562</ele>
        <time>2014-01-11T11:07:20.000Z</time>
      </trkpt>
      <trkpt lat="45.17806" lon="6.3641">
        <ele>2399.6000976562</ele>
        <time>2014-01-11T11:07:21.000Z</time>
      </trkpt>
      <trkpt lat="45.17806" lon="6.3641">
        <ele>2399.6000976562</ele>
        <time>2014-01-11T11:07:22.000Z</time>
      </trkpt>
      <trkpt lat="45.17806" lon="6.3641">
        <ele>2399.8000488281</ele>
        <time>2014-01-11T11:07:23.000Z</time>
      </trkpt>
      <trkpt lat="45.17806" lon="6.3641">
        <ele>2399.8000488281</ele>
        <time>2014-01-11T11:07:24.000Z</time>
      </trkpt>
      <trkpt lat="45.17806" lon="6.3641">
        <ele>2399.8000488281</ele>
        <time>2014-01-11T11:07:25.000Z</time>
      </trkpt>
      <trkpt lat="45.17806" lon="6.3641">
        <ele>2400.1999511719</ele>
        <time>2014-01-11T11:07:26.000Z</time>
      </trkpt>
      <trkpt lat="45.17806" lon="6.3641">
        <ele>2400.1999511719</ele>
        <time>2014-01-11T11:07:27.000Z</time>
      </trkpt>
      <trkpt lat="45.17806" lon="6.3641">
        <ele>2400.6000976562</ele>
        <time>2014-01-11T11:07:28.000Z</time>
      </trkpt>
      <trkpt lat="45.17806" lon="6.3641">
        <ele>2400.6000976562</ele>
        <time>2014-01-11T11:07:29.000Z</time>
      </trkpt>
      <trkpt lat="45.17806" lon="6.3641">
        <ele>2400.6000976562</ele>
        <time>2014-01-11T11:07:30.000Z</time>
      </trkpt>
      <trkpt lat="45.17806" lon="6.36409">
        <ele>2400.8000488281</ele>
        <time>2014-01-11T11:07:31.000Z</time>
      </trkpt>
      <trkpt lat="45.17806" lon="6.36409">
        <ele>2400.8000488281</ele>
        <time>2014-01-11T11:07:32.000Z</time>
      </trkpt>
      <trkpt lat="45.17806" lon="6.36409">
        <ele>2400.8000488281</ele>
        <time>2014-01-11T11:07:33.000Z</time>
      </trkpt>
      <trkpt lat="45.17805" lon="6.36409">
        <ele>2400.8000488281</ele>
        <time>2014-01-11T11:07:34.000Z</time>
      </trkpt>
      <trkpt lat="45.17805" lon="6.36409">
        <ele>2400.8000488281</ele>
        <time>2014-01-11T11:07:35.000Z</time>
      </trkpt>
      <trkpt lat="45.17805" lon="6.36409">
        <ele>2400.8000488281</ele>
        <time>2014-01-11T11:07:36.000Z</time>
      </trkpt>
      <trkpt lat="45.17805" lon="6.36408">
        <ele>2401</ele>
        <time>2014-01-11T11:07:37.000Z</time>
      </trkpt>
      <trkpt lat="45.17805" lon="6.36408">
        <ele>2401</ele>
        <time>2014-01-11T11:07:38.000Z</time>
      </trkpt>
      <trkpt lat="45.17805" lon="6.36407">
        <ele>2401.1999511719</ele>
        <time>2014-01-11T11:07:39.000Z</time>
      </trkpt>
      <trkpt lat="45.17805" lon="6.36407">
        <ele>2401.1999511719</ele>
        <time>2014-01-11T11:07:40.000Z</time>
      </trkpt>
      <trkpt lat="45.17805" lon="6.36407">
        <ele>2401.1999511719</ele>
        <time>2014-01-11T11:07:41.000Z</time>
      </trkpt>
      <trkpt lat="45.17805" lon="6.36407">
        <ele>2401.3999023438</ele>
        <time>2014-01-11T11:07:42.000Z</time>
      </trkpt>
      <trkpt lat="45.17805" lon="6.36407">
        <ele>2401.3999023438</ele>
        <time>2014-01-11T11:07:43.000Z</time>
      </trkpt>
      <trkpt lat="45.17805" lon="6.36407">
        <ele>2401.3999023438</ele>
        <time>2014-01-11T11:07:44.000Z</time>
      </trkpt>
      <trkpt lat="45.17805" lon="6.36408">
        <ele>2401.3999023438</ele>
        <time>2014-01-11T11:07:45.000Z</time>
      </trkpt>
      <trkpt lat="45.17805" lon="6.36409">
        <ele>2401.6000976562</ele>
        <time>2014-01-11T11:07:46.000Z</time>
      </trkpt>
      <trkpt lat="45.17805" lon="6.36409">
        <ele>2401.6000976562</ele>
        <time>2014-01-11T11:07:47.000Z</time>
      </trkpt>
      <trkpt lat="45.17805" lon="6.36409">
        <ele>2401.6000976562</ele>
        <time>2014-01-11T11:07:48.000Z</time>
      </trkpt>
      <trkpt lat="45.17805" lon="6.36409">
        <ele>2401.6000976562</ele>
        <time>2014-01-11T11:07:49.000Z</time>
      </trkpt>
      <trkpt lat="45.17806" lon="6.3641">
        <ele>2401.6000976562</ele>
        <time>2014-01-11T11:07:50.000Z</time>
      </trkpt>
      <trkpt lat="45.17806" lon="6.36411">
        <ele>2401.8000488281</ele>
        <time>2014-01-11T11:07:51.000Z</time>
      </trkpt>
      <trkpt lat="45.17807" lon="6.36411">
        <ele>2402</ele>
        <time>2014-01-11T11:07:52.000Z</time>
      </trkpt>
      <trkpt lat="45.17807" lon="6.36411">
        <ele>2402</ele>
        <time>2014-01-11T11:07:53.000Z</time>
      </trkpt>
      <trkpt lat="45.17807" lon="6.36412">
        <ele>2402</ele>
        <time>2014-01-11T11:07:54.000Z</time>
      </trkpt>
      <trkpt lat="45.17807" lon="6.36413">
        <ele>2402</ele>
        <time>2014-01-11T11:07:55.000Z</time>
      </trkpt>
      <trkpt lat="45.17807" lon="6.36414">
        <ele>2402.1999511719</ele>
        <time>2014-01-11T11:07:56.000Z</time>
      </trkpt>
      <trkpt lat="45.17807" lon="6.36414">
        <ele>2402.1999511719</ele>
        <time>2014-01-11T11:07:57.000Z</time>
      </trkpt>
      <trkpt lat="45.17808" lon="6.36415">
        <ele>2402.3999023438</ele>
        <time>2014-01-11T11:07:58.000Z</time>
      </trkpt>
      <trkpt lat="45.17808" lon="6.36415">
        <ele>2402.3999023438</ele>
        <time>2014-01-11T11:07:59.000Z</time>
      </trkpt>
      <trkpt lat="45.17809" lon="6.36416">
        <ele>2402.6000976562</ele>
        <time>2014-01-11T11:08:00.000Z</time>
      </trkpt>
      <trkpt lat="45.17809" lon="6.36417">
        <ele>2402.8000488281</ele>
        <time>2014-01-11T11:08:01.000Z</time>
      </trkpt>
      <trkpt lat="45.17809" lon="6.36419">
        <ele>2402.8000488281</ele>
        <time>2014-01-11T11:08:02.000Z</time>
      </trkpt>
      <trkpt lat="45.1781" lon="6.36419">
        <ele>2403.1999511719</ele>
        <time>2014-01-11T11:08:03.000Z</time>
      </trkpt>
      <trkpt lat="45.1781" lon="6.3642">
        <ele>2403.3999023438</ele>
        <time>2014-01-11T11:08:04.000Z</time>
      </trkpt>
      <trkpt lat="45.1781" lon="6.3642">
        <ele>2403.6000976562</ele>
        <time>2014-01-11T11:08:05.000Z</time>
      </trkpt>
      <trkpt lat="45.1781" lon="6.3642">
        <ele>2403.8000488281</ele>
        <time>2014-01-11T11:08:06.000Z</time>
      </trkpt>
      <trkpt lat="45.17811" lon="6.36422">
        <ele>2403.8000488281</ele>
        <time>2014-01-11T11:08:07.000Z</time>
      </trkpt>
      <trkpt lat="45.17811" lon="6.36422">
        <ele>2404</ele>
        <time>2014-01-11T11:08:08.000Z</time>
      </trkpt>
      <trkpt lat="45.17811" lon="6.36423">
        <ele>2404</ele>
        <time>2014-01-11T11:08:09.000Z</time>
      </trkpt>
      <trkpt lat="45.17811" lon="6.36423">
        <ele>2404.1999511719</ele>
        <time>2014-01-11T11:08:10.000Z</time>
      </trkpt>
      <trkpt lat="45.17812" lon="6.36423">
        <ele>2404.1999511719</ele>
        <time>2014-01-11T11:08:11.000Z</time>
      </trkpt>
      <trkpt lat="45.17812" lon="6.36423">
        <ele>2404.3999023438</ele>
        <time>2014-01-11T11:08:12.000Z</time>
      </trkpt>
      <trkpt lat="45.17812" lon="6.36424">
        <ele>2404.8000488281</ele>
        <time>2014-01-11T11:08:13.000Z</time>
      </trkpt>
      <trkpt lat="45.17813" lon="6.36424">
        <ele>2405</ele>
        <time>2014-01-11T11:08:14.000Z</time>
      </trkpt>
      <trkpt lat="45.17813" lon="6.36425">
        <ele>2405.1999511719</ele>
        <time>2014-01-11T11:08:15.000Z</time>
      </trkpt>
      <trkpt lat="45.17814" lon="6.36426">
        <ele>2405.3999023438</ele>
        <time>2014-01-11T11:08:16.000Z</time>
      </trkpt>
      <trkpt lat="45.17815" lon="6.36426">
        <ele>2405.3999023438</ele>
        <time>2014-01-11T11:08:17.000Z</time>
      </trkpt>
      <trkpt lat="45.17815" lon="6.36427">
        <ele>2405.6000976562</ele>
        <time>2014-01-11T11:08:18.000Z</time>
      </trkpt>
      <trkpt lat="45.17815" lon="6.36427">
        <ele>2405.8000488281</ele>
        <time>2014-01-11T11:08:19.000Z</time>
      </trkpt>
      <trkpt lat="45.17816" lon="6.36427">
        <ele>2406</ele>
        <time>2014-01-11T11:08:20.000Z</time>
      </trkpt>
      <trkpt lat="45.17817" lon="6.36428">
        <ele>2406.1999511719</ele>
        <time>2014-01-11T11:08:21.000Z</time>
      </trkpt>
      <trkpt lat="45.17817" lon="6.36428">
        <ele>2406.3999023438</ele>
        <time>2014-01-11T11:08:22.000Z</time>
      </trkpt>
      <trkpt lat="45.17817" lon="6.36428">
        <ele>2406.3999023438</ele>
        <time>2014-01-11T11:08:23.000Z</time>
      </trkpt>
      <trkpt lat="45.17817" lon="6.36428">
        <ele>2406.6000976562</ele>
        <time>2014-01-11T11:08:24.000Z</time>
      </trkpt>
      <trkpt lat="45.17817" lon="6.36428">
        <ele>2406.8000488281</ele>
        <time>2014-01-11T11:08:25.000Z</time>
      </trkpt>
      <trkpt lat="45.17817" lon="6.36428">
        <ele>2407</ele>
        <time>2014-01-11T11:08:26.000Z</time>
      </trkpt>
      <trkpt lat="45.17817" lon="6.36428">
        <ele>2407.1999511719</ele>
        <time>2014-01-11T11:08:27.000Z</time>
      </trkpt>
      <trkpt lat="45.17817" lon="6.36428">
        <ele>2407.1999511719</ele>
        <time>2014-01-11T11:08:28.000Z</time>
      </trkpt>
      <trkpt lat="45.17817" lon="6.36428">
        <ele>2407.1999511719</ele>
        <time>2014-01-11T11:08:29.000Z</time>
      </trkpt>
      <trkpt lat="45.17817" lon="6.36428">
        <ele>2407.3999023438</ele>
        <time>2014-01-11T11:08:30.000Z</time>
      </trkpt>
      <trkpt lat="45.17817" lon="6.36428">
        <ele>2407.3999023438</ele>
        <time>2014-01-11T11:08:31.000Z</time>
      </trkpt>
      <trkpt lat="45.17817" lon="6.36428">
        <ele>2407.3999023438</ele>
        <time>2014-01-11T11:08:32.000Z</time>
      </trkpt>
      <trkpt lat="45.17817" lon="6.36428">
        <ele>2407.3999023438</ele>
        <time>2014-01-11T11:08:33.000Z</time>
      </trkpt>
      <trkpt lat="45.17817" lon="6.36428">
        <ele>2407.3999023438</ele>
        <time>2014-01-11T11:08:35.000Z</time>
      </trkpt>
      <trkpt lat="45.17817" lon="6.36428">
        <ele>2407.3999023438</ele>
        <time>2014-01-11T11:08:36.000Z</time>
      </trkpt>
      <trkpt lat="45.17817" lon="6.36428">
        <ele>2407.3999023438</ele>
        <time>2014-01-11T11:08:37.000Z</time>
      </trkpt>
      <trkpt lat="45.17817" lon="6.36428">
        <ele>2407.3999023438</ele>
        <time>2014-01-11T11:08:38.000Z</time>
      </trkpt>
      <trkpt lat="45.17817" lon="6.36428">
        <ele>2407.3999023438</ele>
        <time>2014-01-11T11:08:39.000Z</time>
      </trkpt>
      <trkpt lat="45.17818" lon="6.36428">
        <ele>2407.3999023438</ele>
        <time>2014-01-11T11:08:40.000Z</time>
      </trkpt>
      <trkpt lat="45.17818" lon="6.36429">
        <ele>2407.3999023438</ele>
        <time>2014-01-11T11:08:41.000Z</time>
      </trkpt>
      <trkpt lat="45.17819" lon="6.3643">
        <ele>2407.3999023438</ele>
        <time>2014-01-11T11:08:42.000Z</time>
      </trkpt>
      <trkpt lat="45.17819" lon="6.36431">
        <ele>2407.3999023438</ele>
        <time>2014-01-11T11:08:43.000Z</time>
      </trkpt>
      <trkpt lat="45.1782" lon="6.36431">
        <ele>2407.6000976562</ele>
        <time>2014-01-11T11:08:44.000Z</time>
      </trkpt>
      <trkpt lat="45.1782" lon="6.36431">
        <ele>2407.8000488281</ele>
        <time>2014-01-11T11:08:45.000Z</time>
      </trkpt>
      <trkpt lat="45.1782" lon="6.36431">
        <ele>2407.8000488281</ele>
        <time>2014-01-11T11:08:46.000Z</time>
      </trkpt>
      <trkpt lat="45.17821" lon="6.36432">
        <ele>2407.8000488281</ele>
        <time>2014-01-11T11:08:47.000Z</time>
      </trkpt>
      <trkpt lat="45.17821" lon="6.36432">
        <ele>2408</ele>
        <time>2014-01-11T11:08:48.000Z</time>
      </trkpt>
      <trkpt lat="45.17822" lon="6.36432">
        <ele>2408</ele>
        <time>2014-01-11T11:08:49.000Z</time>
      </trkpt>
      <trkpt lat="45.17823" lon="6.36433">
        <ele>2408.1999511719</ele>
        <time>2014-01-11T11:08:50.000Z</time>
      </trkpt>
      <trkpt lat="45.17823" lon="6.36433">
        <ele>2408.3999023438</ele>
        <time>2014-01-11T11:08:51.000Z</time>
      </trkpt>
      <trkpt lat="45.17823" lon="6.36434">
        <ele>2408.6000976562</ele>
        <time>2014-01-11T11:08:52.000Z</time>
      </trkpt>
      <trkpt lat="45.17824" lon="6.36435">
        <ele>2408.8000488281</ele>
        <time>2014-01-11T11:08:53.000Z</time>
      </trkpt>
      <trkpt lat="45.17824" lon="6.36435">
        <ele>2408.8000488281</ele>
        <time>2014-01-11T11:08:54.000Z</time>
      </trkpt>
      <trkpt lat="45.17824" lon="6.36435">
        <ele>2409</ele>
        <time>2014-01-11T11:08:55.000Z</time>
      </trkpt>
      <trkpt lat="45.17824" lon="6.36435">
        <ele>2409</ele>
        <time>2014-01-11T11:08:56.000Z</time>
      </trkpt>
      <trkpt lat="45.17824" lon="6.36435">
        <ele>2409.1999511719</ele>
        <time>2014-01-11T11:08:57.000Z</time>
      </trkpt>
      <trkpt lat="45.17824" lon="6.36435">
        <ele>2409.3999023438</ele>
        <time>2014-01-11T11:08:58.000Z</time>
      </trkpt>
      <trkpt lat="45.17824" lon="6.36435">
        <ele>2409.3999023438</ele>
        <time>2014-01-11T11:08:59.000Z</time>
      </trkpt>
      <trkpt lat="45.17824" lon="6.36435">
        <ele>2409.6000976562</ele>
        <time>2014-01-11T11:09:00.000Z</time>
      </trkpt>
      <trkpt lat="45.17824" lon="6.36435">
        <ele>2409.8000488281</ele>
        <time>2014-01-11T11:09:01.000Z</time>
      </trkpt>
      <trkpt lat="45.17824" lon="6.36435">
        <ele>2410</ele>
        <time>2014-01-11T11:09:02.000Z</time>
      </trkpt>
      <trkpt lat="45.17824" lon="6.36435">
        <ele>2410</ele>
        <time>2014-01-11T11:09:03.000Z</time>
      </trkpt>
      <trkpt lat="45.17824" lon="6.36435">
        <ele>2410</ele>
        <time>2014-01-11T11:09:04.000Z</time>
      </trkpt>
      <trkpt lat="45.17824" lon="6.36435">
        <ele>2409.8000488281</ele>
        <time>2014-01-11T11:09:05.000Z</time>
      </trkpt>
      <trkpt lat="45.17824" lon="6.36435">
        <ele>2409.8000488281</ele>
        <time>2014-01-11T11:09:06.000Z</time>
      </trkpt>
      <trkpt lat="45.17824" lon="6.36435">
        <ele>2409.8000488281</ele>
        <time>2014-01-11T11:09:07.000Z</time>
      </trkpt>
      <trkpt lat="45.17824" lon="6.36435">
        <ele>2409.8000488281</ele>
        <time>2014-01-11T11:09:08.000Z</time>
      </trkpt>
      <trkpt lat="45.17824" lon="6.36435">
        <ele>2409.8000488281</ele>
        <time>2014-01-11T11:09:09.000Z</time>
      </trkpt>
      <trkpt lat="45.17824" lon="6.36435">
        <ele>2409.8000488281</ele>
        <time>2014-01-11T11:09:10.000Z</time>
      </trkpt>
      <trkpt lat="45.17824" lon="6.36435">
        <ele>2409.8000488281</ele>
        <time>2014-01-11T11:09:11.000Z</time>
      </trkpt>
      <trkpt lat="45.17824" lon="6.36437">
        <ele>2409.8000488281</ele>
        <time>2014-01-11T11:09:16.000Z</time>
      </trkpt>
      <trkpt lat="45.17823" lon="6.36437">
        <ele>2409.8000488281</ele>
        <time>2014-01-11T11:09:17.000Z</time>
      </trkpt>
      <trkpt lat="45.17823" lon="6.36437">
        <ele>2409.8000488281</ele>
        <time>2014-01-11T11:09:18.000Z</time>
      </trkpt>
      <trkpt lat="45.17823" lon="6.36437">
        <ele>2410</ele>
        <time>2014-01-11T11:09:19.000Z</time>
      </trkpt>
      <trkpt lat="45.17822" lon="6.36438">
        <ele>2410</ele>
        <time>2014-01-11T11:09:20.000Z</time>
      </trkpt>
      <trkpt lat="45.17822" lon="6.36438">
        <ele>2410.1999511719</ele>
        <time>2014-01-11T11:09:21.000Z</time>
      </trkpt>
      <trkpt lat="45.17822" lon="6.36438">
        <ele>2410.3999023438</ele>
        <time>2014-01-11T11:09:22.000Z</time>
      </trkpt>
      <trkpt lat="45.17822" lon="6.36438">
        <ele>2410.6000976562</ele>
        <time>2014-01-11T11:09:23.000Z</time>
      </trkpt>
      <trkpt lat="45.17822" lon="6.36438">
        <ele>2410.8000488281</ele>
        <time>2014-01-11T11:09:24.000Z</time>
      </trkpt>
      <trkpt lat="45.17822" lon="6.36438">
        <ele>2410.8000488281</ele>
        <time>2014-01-11T11:09:25.000Z</time>
      </trkpt>
      <trkpt lat="45.17822" lon="6.36438">
        <ele>2410.8000488281</ele>
        <time>2014-01-11T11:09:26.000Z</time>
      </trkpt>
      <trkpt lat="45.17822" lon="6.36438">
        <ele>2410.8000488281</ele>
        <time>2014-01-11T11:09:27.000Z</time>
      </trkpt>
      <trkpt lat="45.17822" lon="6.36438">
        <ele>2410.8000488281</ele>
        <time>2014-01-11T11:09:32.000Z</time>
      </trkpt>
      <trkpt lat="45.17822" lon="6.36438">
        <ele>2410.8000488281</ele>
        <time>2014-01-11T11:09:37.000Z</time>
      </trkpt>
      <trkpt lat="45.17822" lon="6.36438">
        <ele>2410.8000488281</ele>
        <time>2014-01-11T11:09:38.000Z</time>
      </trkpt>
      <trkpt lat="45.17821" lon="6.36439">
        <ele>2411</ele>
        <time>2014-01-11T11:09:39.000Z</time>
      </trkpt>
      <trkpt lat="45.1782" lon="6.36439">
        <ele>2411</ele>
        <time>2014-01-11T11:09:40.000Z</time>
      </trkpt>
      <trkpt lat="45.1782" lon="6.3644">
        <ele>2411</ele>
        <time>2014-01-11T11:09:41.000Z</time>
      </trkpt>
      <trkpt lat="45.17819" lon="6.3644">
        <ele>2411.1999511719</ele>
        <time>2014-01-11T11:09:42.000Z</time>
      </trkpt>
      <trkpt lat="45.17819" lon="6.3644">
        <ele>2411.3999023438</ele>
        <time>2014-01-11T11:09:43.000Z</time>
      </trkpt>
      <trkpt lat="45.17818" lon="6.3644">
        <ele>2411.6000976562</ele>
        <time>2014-01-11T11:09:44.000Z</time>
      </trkpt>
      <trkpt lat="45.17818" lon="6.36441">
        <ele>2411.8000488281</ele>
        <time>2014-01-11T11:09:45.000Z</time>
      </trkpt>
      <trkpt lat="45.17817" lon="6.36441">
        <ele>2411.8000488281</ele>
        <time>2014-01-11T11:09:46.000Z</time>
      </trkpt>
      <trkpt lat="45.17817" lon="6.36441">
        <ele>2412</ele>
        <time>2014-01-11T11:09:47.000Z</time>
      </trkpt>
      <trkpt lat="45.17816" lon="6.36441">
        <ele>2412</ele>
        <time>2014-01-11T11:09:48.000Z</time>
      </trkpt>
      <trkpt lat="45.17816" lon="6.36441">
        <ele>2412.1999511719</ele>
        <time>2014-01-11T11:09:49.000Z</time>
      </trkpt>
      <trkpt lat="45.17815" lon="6.36441">
        <ele>2412.3999023438</ele>
        <time>2014-01-11T11:09:50.000Z</time>
      </trkpt>
      <trkpt lat="45.17815" lon="6.36442">
        <ele>2412.6000976562</ele>
        <time>2014-01-11T11:09:51.000Z</time>
      </trkpt>
      <trkpt lat="45.17815" lon="6.36442">
        <ele>2413</ele>
        <time>2014-01-11T11:09:52.000Z</time>
      </trkpt>
      <trkpt lat="45.17814" lon="6.36442">
        <ele>2413.1999511719</ele>
        <time>2014-01-11T11:09:53.000Z</time>
      </trkpt>
      <trkpt lat="45.17814" lon="6.36442">
        <ele>2413.1999511719</ele>
        <time>2014-01-11T11:09:54.000Z</time>
      </trkpt>
      <trkpt lat="45.17813" lon="6.36442">
        <ele>2413.3999023438</ele>
        <time>2014-01-11T11:09:55.000Z</time>
      </trkpt>
      <trkpt lat="45.17813" lon="6.36442">
        <ele>2413.6000976562</ele>
        <time>2014-01-11T11:09:56.000Z</time>
      </trkpt>
      <trkpt lat="45.17812" lon="6.36442">
        <ele>2413.8000488281</ele>
        <time>2014-01-11T11:09:57.000Z</time>
      </trkpt>
      <trkpt lat="45.17811" lon="6.36443">
        <ele>2413.8000488281</ele>
        <time>2014-01-11T11:09:58.000Z</time>
      </trkpt>
      <trkpt lat="45.17811" lon="6.36443">
        <ele>2414</ele>
        <time>2014-01-11T11:09:59.000Z</time>
      </trkpt>
      <trkpt lat="45.1781" lon="6.36443">
        <ele>2414.1999511719</ele>
        <time>2014-01-11T11:10:00.000Z</time>
      </trkpt>
      <trkpt lat="45.1781" lon="6.36443">
        <ele>2414.3999023438</ele>
        <time>2014-01-11T11:10:01.000Z</time>
      </trkpt>
      <trkpt lat="45.1781" lon="6.36443">
        <ele>2414.3999023438</ele>
        <time>2014-01-11T11:10:02.000Z</time>
      </trkpt>
      <trkpt lat="45.1781" lon="6.36443">
        <ele>2414.6000976562</ele>
        <time>2014-01-11T11:10:03.000Z</time>
      </trkpt>
      <trkpt lat="45.1781" lon="6.36443">
        <ele>2414.8000488281</ele>
        <time>2014-01-11T11:10:04.000Z</time>
      </trkpt>
      <trkpt lat="45.1781" lon="6.36443">
        <ele>2414.8000488281</ele>
        <time>2014-01-11T11:10:05.000Z</time>
      </trkpt>
      <trkpt lat="45.1781" lon="6.36443">
        <ele>2414.8000488281</ele>
        <time>2014-01-11T11:10:06.000Z</time>
      </trkpt>
      <trkpt lat="45.1781" lon="6.36443">
        <ele>2414.8000488281</ele>
        <time>2014-01-11T11:10:07.000Z</time>
      </trkpt>
      <trkpt lat="45.1781" lon="6.36443">
        <ele>2414.8000488281</ele>
        <time>2014-01-11T11:10:08.000Z</time>
      </trkpt>
      <trkpt lat="45.1781" lon="6.36443">
        <ele>2414.8000488281</ele>
        <time>2014-01-11T11:10:10.000Z</time>
      </trkpt>
      <trkpt lat="45.1781" lon="6.36443">
        <ele>2414.8000488281</ele>
        <time>2014-01-11T11:10:11.000Z</time>
      </trkpt>
      <trkpt lat="45.17809" lon="6.36441">
        <ele>2415</ele>
        <time>2014-01-11T11:10:13.000Z</time>
      </trkpt>
      <trkpt lat="45.17809" lon="6.36442">
        <ele>2415.1999511719</ele>
        <time>2014-01-11T11:10:14.000Z</time>
      </trkpt>
      <trkpt lat="45.17809" lon="6.36443">
        <ele>2415.1999511719</ele>
        <time>2014-01-11T11:10:15.000Z</time>
      </trkpt>
      <trkpt lat="45.1781" lon="6.36445">
        <ele>2415.6000976562</ele>
        <time>2014-01-11T11:10:16.000Z</time>
      </trkpt>
      <trkpt lat="45.1781" lon="6.36445">
        <ele>2415.6000976562</ele>
        <time>2014-01-11T11:10:17.000Z</time>
      </trkpt>
      <trkpt lat="45.1781" lon="6.36445">
        <ele>2415.8000488281</ele>
        <time>2014-01-11T11:10:18.000Z</time>
      </trkpt>
      <trkpt lat="45.1781" lon="6.36446">
        <ele>2416</ele>
        <time>2014-01-11T11:10:19.000Z</time>
      </trkpt>
      <trkpt lat="45.17811" lon="6.36447">
        <ele>2416</ele>
        <time>2014-01-11T11:10:20.000Z</time>
      </trkpt>
      <trkpt lat="45.17811" lon="6.36448">
        <ele>2416.1999511719</ele>
        <time>2014-01-11T11:10:21.000Z</time>
      </trkpt>
      <trkpt lat="45.17811" lon="6.36448">
        <ele>2416.1999511719</ele>
        <time>2014-01-11T11:10:22.000Z</time>
      </trkpt>
      <trkpt lat="45.17811" lon="6.36449">
        <ele>2416.3999023438</ele>
        <time>2014-01-11T11:10:23.000Z</time>
      </trkpt>
      <trkpt lat="45.17811" lon="6.36449">
        <ele>2416.8000488281</ele>
        <time>2014-01-11T11:10:24.000Z</time>
      </trkpt>
      <trkpt lat="45.17812" lon="6.36449">
        <ele>2416.8000488281</ele>
        <time>2014-01-11T11:10:25.000Z</time>
      </trkpt>
      <trkpt lat="45.17813" lon="6.3645">
        <ele>2417</ele>
        <time>2014-01-11T11:10:26.000Z</time>
      </trkpt>
      <trkpt lat="45.17813" lon="6.3645">
        <ele>2417.1999511719</ele>
        <time>2014-01-11T11:10:27.000Z</time>
      </trkpt>
      <trkpt lat="45.17813" lon="6.36451">
        <ele>2417.1999511719</ele>
        <time>2014-01-11T11:10:28.000Z</time>
      </trkpt>
      <trkpt lat="45.17814" lon="6.36452">
        <ele>2417.3999023438</ele>
        <time>2014-01-11T11:10:29.000Z</time>
      </trkpt>
      <trkpt lat="45.17814" lon="6.36452">
        <ele>2417.6000976562</ele>
        <time>2014-01-11T11:10:30.000Z</time>
      </trkpt>
      <trkpt lat="45.17814" lon="6.36452">
        <ele>2417.8000488281</ele>
        <time>2014-01-11T11:10:31.000Z</time>
      </trkpt>
      <trkpt lat="45.17814" lon="6.36453">
        <ele>2418</ele>
        <time>2014-01-11T11:10:32.000Z</time>
      </trkpt>
      <trkpt lat="45.17815" lon="6.36453">
        <ele>2418.1999511719</ele>
        <time>2014-01-11T11:10:33.000Z</time>
      </trkpt>
      <trkpt lat="45.17815" lon="6.36453">
        <ele>2418.1999511719</ele>
        <time>2014-01-11T11:10:34.000Z</time>
      </trkpt>
      <trkpt lat="45.17816" lon="6.36454">
        <ele>2418.3999023438</ele>
        <time>2014-01-11T11:10:35.000Z</time>
      </trkpt>
      <trkpt lat="45.17817" lon="6.36455">
        <ele>2418.3999023438</ele>
        <time>2014-01-11T11:10:36.000Z</time>
      </trkpt>
      <trkpt lat="45.17817" lon="6.36455">
        <ele>2418.6000976562</ele>
        <time>2014-01-11T11:10:37.000Z</time>
      </trkpt>
      <trkpt lat="45.17817" lon="6.36455">
        <ele>2419</ele>
        <time>2014-01-11T11:10:38.000Z</time>
      </trkpt>
      <trkpt lat="45.17817" lon="6.36455">
        <ele>2419.1999511719</ele>
        <time>2014-01-11T11:10:39.000Z</time>
      </trkpt>
      <trkpt lat="45.17817" lon="6.36455">
        <ele>2419.3999023438</ele>
        <time>2014-01-11T11:10:40.000Z</time>
      </trkpt>
      <trkpt lat="45.17817" lon="6.36455">
        <ele>2419.3999023438</ele>
        <time>2014-01-11T11:10:41.000Z</time>
      </trkpt>
      <trkpt lat="45.17817" lon="6.36455">
        <ele>2419.6000976562</ele>
        <time>2014-01-11T11:10:42.000Z</time>
      </trkpt>
      <trkpt lat="45.17817" lon="6.36455">
        <ele>2419.6000976562</ele>
        <time>2014-01-11T11:10:43.000Z</time>
      </trkpt>
      <trkpt lat="45.17817" lon="6.36455">
        <ele>2419.6000976562</ele>
        <time>2014-01-11T11:10:44.000Z</time>
      </trkpt>
      <trkpt lat="45.17817" lon="6.36455">
        <ele>2419.6000976562</ele>
        <time>2014-01-11T11:10:45.000Z</time>
      </trkpt>
      <trkpt lat="45.17817" lon="6.36455">
        <ele>2419.8000488281</ele>
        <time>2014-01-11T11:10:46.000Z</time>
      </trkpt>
      <trkpt lat="45.17817" lon="6.36455">
        <ele>2419.8000488281</ele>
        <time>2014-01-11T11:10:47.000Z</time>
      </trkpt>
      <trkpt lat="45.17817" lon="6.36455">
        <ele>2419.8000488281</ele>
        <time>2014-01-11T11:10:48.000Z</time>
      </trkpt>
      <trkpt lat="45.17817" lon="6.36455">
        <ele>2419.8000488281</ele>
        <time>2014-01-11T11:10:49.000Z</time>
      </trkpt>
      <trkpt lat="45.17817" lon="6.36455">
        <ele>2419.8000488281</ele>
        <time>2014-01-11T11:10:50.000Z</time>
      </trkpt>
      <trkpt lat="45.17817" lon="6.36455">
        <ele>2419.8000488281</ele>
        <time>2014-01-11T11:10:51.000Z</time>
      </trkpt>
      <trkpt lat="45.17817" lon="6.36455">
        <ele>2419.8000488281</ele>
        <time>2014-01-11T11:10:52.000Z</time>
      </trkpt>
      <trkpt lat="45.17817" lon="6.36455">
        <ele>2419.8000488281</ele>
        <time>2014-01-11T11:10:59.000Z</time>
      </trkpt>
      <trkpt lat="45.17817" lon="6.36455">
        <ele>2419.8000488281</ele>
        <time>2014-01-11T11:11:00.000Z</time>
      </trkpt>
      <trkpt lat="45.17817" lon="6.36455">
        <ele>2419.8000488281</ele>
        <time>2014-01-11T11:11:01.000Z</time>
      </trkpt>
      <trkpt lat="45.17817" lon="6.36455">
        <ele>2419.8000488281</ele>
        <time>2014-01-11T11:11:02.000Z</time>
      </trkpt>
      <trkpt lat="45.17817" lon="6.36455">
        <ele>2419.8000488281</ele>
        <time>2014-01-11T11:11:03.000Z</time>
      </trkpt>
      <trkpt lat="45.17817" lon="6.36455">
        <ele>2420</ele>
        <time>2014-01-11T11:11:04.000Z</time>
      </trkpt>
      <trkpt lat="45.17817" lon="6.36455">
        <ele>2420</ele>
        <time>2014-01-11T11:11:05.000Z</time>
      </trkpt>
      <trkpt lat="45.17817" lon="6.36455">
        <ele>2420.1999511719</ele>
        <time>2014-01-11T11:11:06.000Z</time>
      </trkpt>
      <trkpt lat="45.17817" lon="6.36455">
        <ele>2420.3999023438</ele>
        <time>2014-01-11T11:11:07.000Z</time>
      </trkpt>
      <trkpt lat="45.17817" lon="6.36455">
        <ele>2420.3999023438</ele>
        <time>2014-01-11T11:11:08.000Z</time>
      </trkpt>
      <trkpt lat="45.17817" lon="6.36456">
        <ele>2420.3999023438</ele>
        <time>2014-01-11T11:11:09.000Z</time>
      </trkpt>
      <trkpt lat="45.17816" lon="6.36457">
        <ele>2420.3999023438</ele>
        <time>2014-01-11T11:11:10.000Z</time>
      </trkpt>
      <trkpt lat="45.17814" lon="6.36459">
        <ele>2420.6000976562</ele>
        <time>2014-01-11T11:11:14.000Z</time>
      </trkpt>
      <trkpt lat="45.17814" lon="6.36459">
        <ele>2420.8000488281</ele>
        <time>2014-01-11T11:11:15.000Z</time>
      </trkpt>
      <trkpt lat="45.17814" lon="6.36459">
        <ele>2421</ele>
        <time>2014-01-11T11:11:16.000Z</time>
      </trkpt>
      <trkpt lat="45.17813" lon="6.3646">
        <ele>2421.1999511719</ele>
        <time>2014-01-11T11:11:17.000Z</time>
      </trkpt>
      <trkpt lat="45.17813" lon="6.3646">
        <ele>2421.3999023438</ele>
        <time>2014-01-11T11:11:18.000Z</time>
      </trkpt>
      <trkpt lat="45.17812" lon="6.36461">
        <ele>2421.6000976562</ele>
        <time>2014-01-11T11:11:19.000Z</time>
      </trkpt>
      <trkpt lat="45.17812" lon="6.36461">
        <ele>2421.8000488281</ele>
        <time>2014-01-11T11:11:20.000Z</time>
      </trkpt>
      <trkpt lat="45.17811" lon="6.36462">
        <ele>2422</ele>
        <time>2014-01-11T11:11:21.000Z</time>
      </trkpt>
      <trkpt lat="45.17811" lon="6.36462">
        <ele>2422</ele>
        <time>2014-01-11T11:11:22.000Z</time>
      </trkpt>
      <trkpt lat="45.1781" lon="6.36462">
        <ele>2422.1999511719</ele>
        <time>2014-01-11T11:11:23.000Z</time>
      </trkpt>
      <trkpt lat="45.17809" lon="6.36463">
        <ele>2422.3999023438</ele>
        <time>2014-01-11T11:11:24.000Z</time>
      </trkpt>
      <trkpt lat="45.17808" lon="6.36463">
        <ele>2422.3999023438</ele>
        <time>2014-01-11T11:11:25.000Z</time>
      </trkpt>
      <trkpt lat="45.17807" lon="6.36463">
        <ele>2422.6000976562</ele>
        <time>2014-01-11T11:11:26.000Z</time>
      </trkpt>
      <trkpt lat="45.17807" lon="6.36463">
        <ele>2422.6000976562</ele>
        <time>2014-01-11T11:11:27.000Z</time>
      </trkpt>
      <trkpt lat="45.17806" lon="6.36462">
        <ele>2423</ele>
        <time>2014-01-11T11:11:28.000Z</time>
      </trkpt>
      <trkpt lat="45.17806" lon="6.36462">
        <ele>2423.1999511719</ele>
        <time>2014-01-11T11:11:29.000Z</time>
      </trkpt>
      <trkpt lat="45.17806" lon="6.36462">
        <ele>2423.3999023438</ele>
        <time>2014-01-11T11:11:30.000Z</time>
      </trkpt>
      <trkpt lat="45.17805" lon="6.36461">
        <ele>2423.6000976562</ele>
        <time>2014-01-11T11:11:31.000Z</time>
      </trkpt>
      <trkpt lat="45.17805" lon="6.36461">
        <ele>2423.6000976562</ele>
        <time>2014-01-11T11:11:32.000Z</time>
      </trkpt>
      <trkpt lat="45.17805" lon="6.36461">
        <ele>2423.8000488281</ele>
        <time>2014-01-11T11:11:33.000Z</time>
      </trkpt>
      <trkpt lat="45.17805" lon="6.36461">
        <ele>2423.8000488281</ele>
        <time>2014-01-11T11:11:34.000Z</time>
      </trkpt>
      <trkpt lat="45.17805" lon="6.36461">
        <ele>2424</ele>
        <time>2014-01-11T11:11:35.000Z</time>
      </trkpt>
      <trkpt lat="45.17806" lon="6.36461">
        <ele>2424</ele>
        <time>2014-01-11T11:11:36.000Z</time>
      </trkpt>
      <trkpt lat="45.17806" lon="6.36461">
        <ele>2424.1999511719</ele>
        <time>2014-01-11T11:11:37.000Z</time>
      </trkpt>
      <trkpt lat="45.17806" lon="6.3646">
        <ele>2424.1999511719</ele>
        <time>2014-01-11T11:11:38.000Z</time>
      </trkpt>
      <trkpt lat="45.17805" lon="6.36459">
        <ele>2424.1999511719</ele>
        <time>2014-01-11T11:11:39.000Z</time>
      </trkpt>
      <trkpt lat="45.17805" lon="6.36459">
        <ele>2424.3999023438</ele>
        <time>2014-01-11T11:11:40.000Z</time>
      </trkpt>
      <trkpt lat="45.17806" lon="6.3646">
        <ele>2424.3999023438</ele>
        <time>2014-01-11T11:11:41.000Z</time>
      </trkpt>
      <trkpt lat="45.17807" lon="6.36461">
        <ele>2424.6000976562</ele>
        <time>2014-01-11T11:11:42.000Z</time>
      </trkpt>
      <trkpt lat="45.17807" lon="6.36461">
        <ele>2424.8000488281</ele>
        <time>2014-01-11T11:11:43.000Z</time>
      </trkpt>
      <trkpt lat="45.17808" lon="6.36462">
        <ele>2425</ele>
        <time>2014-01-11T11:11:44.000Z</time>
      </trkpt>
      <trkpt lat="45.17809" lon="6.36463">
        <ele>2425.1999511719</ele>
        <time>2014-01-11T11:11:45.000Z</time>
      </trkpt>
      <trkpt lat="45.17809" lon="6.36463">
        <ele>2425.1999511719</ele>
        <time>2014-01-11T11:11:46.000Z</time>
      </trkpt>
      <trkpt lat="45.1781" lon="6.36464">
        <ele>2425.1999511719</ele>
        <time>2014-01-11T11:11:47.000Z</time>
      </trkpt>
      <trkpt lat="45.1781" lon="6.36464">
        <ele>2425.3999023438</ele>
        <time>2014-01-11T11:11:48.000Z</time>
      </trkpt>
      <trkpt lat="45.17811" lon="6.36465">
        <ele>2425.6000976562</ele>
        <time>2014-01-11T11:11:49.000Z</time>
      </trkpt>
      <trkpt lat="45.17811" lon="6.36466">
        <ele>2425.6000976562</ele>
        <time>2014-01-11T11:11:50.000Z</time>
      </trkpt>
      <trkpt lat="45.17811" lon="6.36467">
        <ele>2425.8000488281</ele>
        <time>2014-01-11T11:11:51.000Z</time>
      </trkpt>
      <trkpt lat="45.17812" lon="6.36467">
        <ele>2425.8000488281</ele>
        <time>2014-01-11T11:11:52.000Z</time>
      </trkpt>
      <trkpt lat="45.17812" lon="6.36467">
        <ele>2426</ele>
        <time>2014-01-11T11:11:53.000Z</time>
      </trkpt>
      <trkpt lat="45.17812" lon="6.36467">
        <ele>2426</ele>
        <time>2014-01-11T11:11:54.000Z</time>
      </trkpt>
      <trkpt lat="45.17813" lon="6.36468">
        <ele>2426.1999511719</ele>
        <time>2014-01-11T11:11:55.000Z</time>
      </trkpt>
      <trkpt lat="45.17813" lon="6.36469">
        <ele>2426.3999023438</ele>
        <time>2014-01-11T11:11:56.000Z</time>
      </trkpt>
      <trkpt lat="45.17813" lon="6.36469">
        <ele>2426.6000976562</ele>
        <time>2014-01-11T11:11:57.000Z</time>
      </trkpt>
      <trkpt lat="45.17814" lon="6.36469">
        <ele>2426.8000488281</ele>
        <time>2014-01-11T11:11:58.000Z</time>
      </trkpt>
      <trkpt lat="45.17814" lon="6.36469">
        <ele>2426.8000488281</ele>
        <time>2014-01-11T11:11:59.000Z</time>
      </trkpt>
      <trkpt lat="45.17814" lon="6.3647">
        <ele>2427</ele>
        <time>2014-01-11T11:12:00.000Z</time>
      </trkpt>
      <trkpt lat="45.17814" lon="6.3647">
        <ele>2427</ele>
        <time>2014-01-11T11:12:01.000Z</time>
      </trkpt>
      <trkpt lat="45.17815" lon="6.36471">
        <ele>2427.1999511719</ele>
        <time>2014-01-11T11:12:02.000Z</time>
      </trkpt>
      <trkpt lat="45.17815" lon="6.36472">
        <ele>2427.1999511719</ele>
        <time>2014-01-11T11:12:03.000Z</time>
      </trkpt>
      <trkpt lat="45.17815" lon="6.36472">
        <ele>2427.3999023438</ele>
        <time>2014-01-11T11:12:04.000Z</time>
      </trkpt>
      <trkpt lat="45.17815" lon="6.36472">
        <ele>2427.6000976562</ele>
        <time>2014-01-11T11:12:05.000Z</time>
      </trkpt>
      <trkpt lat="45.17815" lon="6.36472">
        <ele>2427.6000976562</ele>
        <time>2014-01-11T11:12:06.000Z</time>
      </trkpt>
      <trkpt lat="45.17816" lon="6.36472">
        <ele>2428</ele>
        <time>2014-01-11T11:12:07.000Z</time>
      </trkpt>
      <trkpt lat="45.17816" lon="6.36472">
        <ele>2428.1999511719</ele>
        <time>2014-01-11T11:12:08.000Z</time>
      </trkpt>
      <trkpt lat="45.17817" lon="6.36473">
        <ele>2428.1999511719</ele>
        <time>2014-01-11T11:12:09.000Z</time>
      </trkpt>
      <trkpt lat="45.17817" lon="6.36474">
        <ele>2428.3999023438</ele>
        <time>2014-01-11T11:12:10.000Z</time>
      </trkpt>
      <trkpt lat="45.17817" lon="6.36474">
        <ele>2428.3999023438</ele>
        <time>2014-01-11T11:12:11.000Z</time>
      </trkpt>
      <trkpt lat="45.17818" lon="6.36474">
        <ele>2428.6000976562</ele>
        <time>2014-01-11T11:12:12.000Z</time>
      </trkpt>
      <trkpt lat="45.17819" lon="6.36475">
        <ele>2428.8000488281</ele>
        <time>2014-01-11T11:12:13.000Z</time>
      </trkpt>
      <trkpt lat="45.1782" lon="6.36475">
        <ele>2429</ele>
        <time>2014-01-11T11:12:14.000Z</time>
      </trkpt>
      <trkpt lat="45.1782" lon="6.36475">
        <ele>2429.1999511719</ele>
        <time>2014-01-11T11:12:15.000Z</time>
      </trkpt>
      <trkpt lat="45.1782" lon="6.36475">
        <ele>2429.3999023438</ele>
        <time>2014-01-11T11:12:16.000Z</time>
      </trkpt>
      <trkpt lat="45.1782" lon="6.36475">
        <ele>2429.6000976562</ele>
        <time>2014-01-11T11:12:17.000Z</time>
      </trkpt>
      <trkpt lat="45.1782" lon="6.36475">
        <ele>2429.6000976562</ele>
        <time>2014-01-11T11:12:18.000Z</time>
      </trkpt>
      <trkpt lat="45.1782" lon="6.36475">
        <ele>2429.8000488281</ele>
        <time>2014-01-11T11:12:19.000Z</time>
      </trkpt>
      <trkpt lat="45.1782" lon="6.36475">
        <ele>2430</ele>
        <time>2014-01-11T11:12:20.000Z</time>
      </trkpt>
      <trkpt lat="45.1782" lon="6.36475">
        <ele>2430</ele>
        <time>2014-01-11T11:12:21.000Z</time>
      </trkpt>
      <trkpt lat="45.1782" lon="6.36475">
        <ele>2430.1999511719</ele>
        <time>2014-01-11T11:12:22.000Z</time>
      </trkpt>
      <trkpt lat="45.1782" lon="6.36475">
        <ele>2430.1999511719</ele>
        <time>2014-01-11T11:12:23.000Z</time>
      </trkpt>
      <trkpt lat="45.1782" lon="6.36475">
        <ele>2430.1999511719</ele>
        <time>2014-01-11T11:12:24.000Z</time>
      </trkpt>
      <trkpt lat="45.1782" lon="6.36475">
        <ele>2430.1999511719</ele>
        <time>2014-01-11T11:12:26.000Z</time>
      </trkpt>
      <trkpt lat="45.1782" lon="6.36475">
        <ele>2430.1999511719</ele>
        <time>2014-01-11T11:12:27.000Z</time>
      </trkpt>
      <trkpt lat="45.1782" lon="6.36475">
        <ele>2430.1999511719</ele>
        <time>2014-01-11T11:12:28.000Z</time>
      </trkpt>
      <trkpt lat="45.1782" lon="6.36475">
        <ele>2430</ele>
        <time>2014-01-11T11:12:29.000Z</time>
      </trkpt>
      <trkpt lat="45.1782" lon="6.36475">
        <ele>2430</ele>
        <time>2014-01-11T11:12:30.000Z</time>
      </trkpt>
      <trkpt lat="45.1782" lon="6.36475">
        <ele>2430</ele>
        <time>2014-01-11T11:12:31.000Z</time>
      </trkpt>
      <trkpt lat="45.1782" lon="6.36475">
        <ele>2430</ele>
        <time>2014-01-11T11:12:32.000Z</time>
      </trkpt>
      <trkpt lat="45.1782" lon="6.36475">
        <ele>2430</ele>
        <time>2014-01-11T11:12:33.000Z</time>
      </trkpt>
      <trkpt lat="45.1782" lon="6.36475">
        <ele>2430</ele>
        <time>2014-01-11T11:12:34.000Z</time>
      </trkpt>
      <trkpt lat="45.1782" lon="6.36476">
        <ele>2430</ele>
        <time>2014-01-11T11:12:35.000Z</time>
      </trkpt>
      <trkpt lat="45.1782" lon="6.36476">
        <ele>2430</ele>
        <time>2014-01-11T11:12:36.000Z</time>
      </trkpt>
      <trkpt lat="45.1782" lon="6.36476">
        <ele>2430</ele>
        <time>2014-01-11T11:12:37.000Z</time>
      </trkpt>
      <trkpt lat="45.17819" lon="6.36477">
        <ele>2430</ele>
        <time>2014-01-11T11:12:38.000Z</time>
      </trkpt>
      <trkpt lat="45.17819" lon="6.36477">
        <ele>2430</ele>
        <time>2014-01-11T11:12:39.000Z</time>
      </trkpt>
      <trkpt lat="45.17818" lon="6.36478">
        <ele>2430.1999511719</ele>
        <time>2014-01-11T11:12:40.000Z</time>
      </trkpt>
      <trkpt lat="45.17818" lon="6.36478">
        <ele>2430.3999023438</ele>
        <time>2014-01-11T11:12:41.000Z</time>
      </trkpt>
      <trkpt lat="45.17817" lon="6.36479">
        <ele>2430.6000976562</ele>
        <time>2014-01-11T11:12:42.000Z</time>
      </trkpt>
      <trkpt lat="45.17817" lon="6.36479">
        <ele>2431</ele>
        <time>2014-01-11T11:12:43.000Z</time>
      </trkpt>
      <trkpt lat="45.17817" lon="6.36479">
        <ele>2431.1999511719</ele>
        <time>2014-01-11T11:12:44.000Z</time>
      </trkpt>
      <trkpt lat="45.17817" lon="6.3648">
        <ele>2431.3999023438</ele>
        <time>2014-01-11T11:12:45.000Z</time>
      </trkpt>
      <trkpt lat="45.17817" lon="6.3648">
        <ele>2431.3999023438</ele>
        <time>2014-01-11T11:12:46.000Z</time>
      </trkpt>
      <trkpt lat="45.17816" lon="6.3648">
        <ele>2431.6000976562</ele>
        <time>2014-01-11T11:12:47.000Z</time>
      </trkpt>
      <trkpt lat="45.17816" lon="6.3648">
        <ele>2431.8000488281</ele>
        <time>2014-01-11T11:12:48.000Z</time>
      </trkpt>
      <trkpt lat="45.17815" lon="6.3648">
        <ele>2432</ele>
        <time>2014-01-11T11:12:49.000Z</time>
      </trkpt>
      <trkpt lat="45.17815" lon="6.3648">
        <ele>2432.1999511719</ele>
        <time>2014-01-11T11:12:50.000Z</time>
      </trkpt>
      <trkpt lat="45.17814" lon="6.36481">
        <ele>2432.3999023438</ele>
        <time>2014-01-11T11:12:51.000Z</time>
      </trkpt>
      <trkpt lat="45.17814" lon="6.36481">
        <ele>2432.6000976562</ele>
        <time>2014-01-11T11:12:52.000Z</time>
      </trkpt>
      <trkpt lat="45.17813" lon="6.36482">
        <ele>2432.6000976562</ele>
        <time>2014-01-11T11:12:53.000Z</time>
      </trkpt>
      <trkpt lat="45.17813" lon="6.36482">
        <ele>2432.8000488281</ele>
        <time>2014-01-11T11:12:54.000Z</time>
      </trkpt>
      <trkpt lat="45.17813" lon="6.36482">
        <ele>2433</ele>
        <time>2014-01-11T11:12:55.000Z</time>
      </trkpt>
      <trkpt lat="45.17812" lon="6.36482">
        <ele>2433.1999511719</ele>
        <time>2014-01-11T11:12:56.000Z</time>
      </trkpt>
      <trkpt lat="45.17812" lon="6.36482">
        <ele>2433.3999023438</ele>
        <time>2014-01-11T11:12:57.000Z</time>
      </trkpt>
      <trkpt lat="45.17811" lon="6.36482">
        <ele>2433.6000976562</ele>
        <time>2014-01-11T11:12:58.000Z</time>
      </trkpt>
      <trkpt lat="45.17811" lon="6.36482">
        <ele>2433.8000488281</ele>
        <time>2014-01-11T11:12:59.000Z</time>
      </trkpt>
      <trkpt lat="45.17811" lon="6.36482">
        <ele>2434</ele>
        <time>2014-01-11T11:13:00.000Z</time>
      </trkpt>
      <trkpt lat="45.17811" lon="6.36482">
        <ele>2434</ele>
        <time>2014-01-11T11:13:01.000Z</time>
      </trkpt>
      <trkpt lat="45.17812" lon="6.36483">
        <ele>2434.1999511719</ele>
        <time>2014-01-11T11:13:02.000Z</time>
      </trkpt>
      <trkpt lat="45.17812" lon="6.36484">
        <ele>2434.1999511719</ele>
        <time>2014-01-11T11:13:03.000Z</time>
      </trkpt>
      <trkpt lat="45.17813" lon="6.36485">
        <ele>2434.3999023438</ele>
        <time>2014-01-11T11:13:04.000Z</time>
      </trkpt>
      <trkpt lat="45.17813" lon="6.36486">
        <ele>2434.3999023438</ele>
        <time>2014-01-11T11:13:05.000Z</time>
      </trkpt>
      <trkpt lat="45.17814" lon="6.36487">
        <ele>2434.6000976562</ele>
        <time>2014-01-11T11:13:06.000Z</time>
      </trkpt>
      <trkpt lat="45.17814" lon="6.36487">
        <ele>2434.8000488281</ele>
        <time>2014-01-11T11:13:07.000Z</time>
      </trkpt>
      <trkpt lat="45.17814" lon="6.36487">
        <ele>2434.8000488281</ele>
        <time>2014-01-11T11:13:08.000Z</time>
      </trkpt>
      <trkpt lat="45.17813" lon="6.36487">
        <ele>2435</ele>
        <time>2014-01-11T11:13:09.000Z</time>
      </trkpt>
      <trkpt lat="45.17813" lon="6.36486">
        <ele>2435</ele>
        <time>2014-01-11T11:13:10.000Z</time>
      </trkpt>
      <trkpt lat="45.17813" lon="6.36487">
        <ele>2435.1999511719</ele>
        <time>2014-01-11T11:13:11.000Z</time>
      </trkpt>
      <trkpt lat="45.17814" lon="6.36488">
        <ele>2435.3999023438</ele>
        <time>2014-01-11T11:13:12.000Z</time>
      </trkpt>
      <trkpt lat="45.17814" lon="6.36488">
        <ele>2435.6000976562</ele>
        <time>2014-01-11T11:13:13.000Z</time>
      </trkpt>
      <trkpt lat="45.17815" lon="6.36489">
        <ele>2435.6000976562</ele>
        <time>2014-01-11T11:13:14.000Z</time>
      </trkpt>
      <trkpt lat="45.17815" lon="6.36489">
        <ele>2435.8000488281</ele>
        <time>2014-01-11T11:13:15.000Z</time>
      </trkpt>
      <trkpt lat="45.17816" lon="6.3649">
        <ele>2435.8000488281</ele>
        <time>2014-01-11T11:13:16.000Z</time>
      </trkpt>
      <trkpt lat="45.17817" lon="6.36491">
        <ele>2436</ele>
        <time>2014-01-11T11:13:17.000Z</time>
      </trkpt>
      <trkpt lat="45.17817" lon="6.36492">
        <ele>2436</ele>
        <time>2014-01-11T11:13:18.000Z</time>
      </trkpt>
      <trkpt lat="45.17817" lon="6.36492">
        <ele>2436.1999511719</ele>
        <time>2014-01-11T11:13:19.000Z</time>
      </trkpt>
      <trkpt lat="45.17817" lon="6.36492">
        <ele>2436.3999023438</ele>
        <time>2014-01-11T11:13:20.000Z</time>
      </trkpt>
      <trkpt lat="45.17818" lon="6.36492">
        <ele>2436.6000976562</ele>
        <time>2014-01-11T11:13:21.000Z</time>
      </trkpt>
      <trkpt lat="45.17818" lon="6.36493">
        <ele>2436.8000488281</ele>
        <time>2014-01-11T11:13:22.000Z</time>
      </trkpt>
      <trkpt lat="45.17818" lon="6.36493">
        <ele>2436.8000488281</ele>
        <time>2014-01-11T11:13:23.000Z</time>
      </trkpt>
      <trkpt lat="45.17818" lon="6.36493">
        <ele>2436.8000488281</ele>
        <time>2014-01-11T11:13:24.000Z</time>
      </trkpt>
      <trkpt lat="45.17819" lon="6.36494">
        <ele>2437</ele>
        <time>2014-01-11T11:13:25.000Z</time>
      </trkpt>
      <trkpt lat="45.17819" lon="6.36494">
        <ele>2437</ele>
        <time>2014-01-11T11:13:26.000Z</time>
      </trkpt>
      <trkpt lat="45.1782" lon="6.36494">
        <ele>2437.1999511719</ele>
        <time>2014-01-11T11:13:27.000Z</time>
      </trkpt>
      <trkpt lat="45.17821" lon="6.36494">
        <ele>2437.3999023438</ele>
        <time>2014-01-11T11:13:28.000Z</time>
      </trkpt>
      <trkpt lat="45.17821" lon="6.36494">
        <ele>2437.8000488281</ele>
        <time>2014-01-11T11:13:29.000Z</time>
      </trkpt>
      <trkpt lat="45.17822" lon="6.36495">
        <ele>2438</ele>
        <time>2014-01-11T11:13:30.000Z</time>
      </trkpt>
      <trkpt lat="45.17823" lon="6.36495">
        <ele>2438</ele>
        <time>2014-01-11T11:13:31.000Z</time>
      </trkpt>
      <trkpt lat="45.17823" lon="6.36495">
        <ele>2438.1999511719</ele>
        <time>2014-01-11T11:13:32.000Z</time>
      </trkpt>
      <trkpt lat="45.17823" lon="6.36495">
        <ele>2438.1999511719</ele>
        <time>2014-01-11T11:13:33.000Z</time>
      </trkpt>
      <trkpt lat="45.17823" lon="6.36495">
        <ele>2438.3999023438</ele>
        <time>2014-01-11T11:13:34.000Z</time>
      </trkpt>
      <trkpt lat="45.17823" lon="6.36495">
        <ele>2438.6000976562</ele>
        <time>2014-01-11T11:13:35.000Z</time>
      </trkpt>
      <trkpt lat="45.17823" lon="6.36495">
        <ele>2438.6000976562</ele>
        <time>2014-01-11T11:13:36.000Z</time>
      </trkpt>
      <trkpt lat="45.17823" lon="6.36495">
        <ele>2438.8000488281</ele>
        <time>2014-01-11T11:13:37.000Z</time>
      </trkpt>
      <trkpt lat="45.17823" lon="6.36495">
        <ele>2439</ele>
        <time>2014-01-11T11:13:38.000Z</time>
      </trkpt>
      <trkpt lat="45.17823" lon="6.36495">
        <ele>2439</ele>
        <time>2014-01-11T11:13:39.000Z</time>
      </trkpt>
      <trkpt lat="45.17823" lon="6.36495">
        <ele>2439</ele>
        <time>2014-01-11T11:13:40.000Z</time>
      </trkpt>
      <trkpt lat="45.17823" lon="6.36495">
        <ele>2439.1999511719</ele>
        <time>2014-01-11T11:13:41.000Z</time>
      </trkpt>
      <trkpt lat="45.17824" lon="6.36495">
        <ele>2439.1999511719</ele>
        <time>2014-01-11T11:13:42.000Z</time>
      </trkpt>
      <trkpt lat="45.17824" lon="6.36495">
        <ele>2439.3999023438</ele>
        <time>2014-01-11T11:13:43.000Z</time>
      </trkpt>
      <trkpt lat="45.17825" lon="6.36495">
        <ele>2439.3999023438</ele>
        <time>2014-01-11T11:13:44.000Z</time>
      </trkpt>
      <trkpt lat="45.17826" lon="6.36495">
        <ele>2439.3999023438</ele>
        <time>2014-01-11T11:13:45.000Z</time>
      </trkpt>
      <trkpt lat="45.17827" lon="6.36496">
        <ele>2439.6000976562</ele>
        <time>2014-01-11T11:13:46.000Z</time>
      </trkpt>
      <trkpt lat="45.17827" lon="6.36497">
        <ele>2439.6000976562</ele>
        <time>2014-01-11T11:13:47.000Z</time>
      </trkpt>
      <trkpt lat="45.17828" lon="6.36499">
        <ele>2439.8000488281</ele>
        <time>2014-01-11T11:13:48.000Z</time>
      </trkpt>
      <trkpt lat="45.17829" lon="6.365">
        <ele>2440.1999511719</ele>
        <time>2014-01-11T11:13:49.000Z</time>
      </trkpt>
      <trkpt lat="45.17829" lon="6.36501">
        <ele>2440.3999023438</ele>
        <time>2014-01-11T11:13:50.000Z</time>
      </trkpt>
      <trkpt lat="45.1783" lon="6.36501">
        <ele>2440.3999023438</ele>
        <time>2014-01-11T11:13:51.000Z</time>
      </trkpt>
      <trkpt lat="45.1783" lon="6.36501">
        <ele>2440.3999023438</ele>
        <time>2014-01-11T11:13:52.000Z</time>
      </trkpt>
      <trkpt lat="45.1783" lon="6.36501">
        <ele>2440.6000976562</ele>
        <time>2014-01-11T11:13:53.000Z</time>
      </trkpt>
      <trkpt lat="45.1783" lon="6.36501">
        <ele>2440.8000488281</ele>
        <time>2014-01-11T11:13:54.000Z</time>
      </trkpt>
      <trkpt lat="45.1783" lon="6.36501">
        <ele>2441</ele>
        <time>2014-01-11T11:13:55.000Z</time>
      </trkpt>
      <trkpt lat="45.1783" lon="6.36501">
        <ele>2441.1999511719</ele>
        <time>2014-01-11T11:13:56.000Z</time>
      </trkpt>
      <trkpt lat="45.1783" lon="6.36502">
        <ele>2441.1999511719</ele>
        <time>2014-01-11T11:13:57.000Z</time>
      </trkpt>
      <trkpt lat="45.1783" lon="6.36502">
        <ele>2441.3999023438</ele>
        <time>2014-01-11T11:13:58.000Z</time>
      </trkpt>
      <trkpt lat="45.1783" lon="6.36502">
        <ele>2441.6000976562</ele>
        <time>2014-01-11T11:13:59.000Z</time>
      </trkpt>
      <trkpt lat="45.1783" lon="6.36502">
        <ele>2441.6000976562</ele>
        <time>2014-01-11T11:14:00.000Z</time>
      </trkpt>
      <trkpt lat="45.1783" lon="6.36504">
        <ele>2441.8000488281</ele>
        <time>2014-01-11T11:14:01.000Z</time>
      </trkpt>
      <trkpt lat="45.1783" lon="6.36504">
        <ele>2442</ele>
        <time>2014-01-11T11:14:02.000Z</time>
      </trkpt>
      <trkpt lat="45.1783" lon="6.36505">
        <ele>2442.1999511719</ele>
        <time>2014-01-11T11:14:03.000Z</time>
      </trkpt>
      <trkpt lat="45.1783" lon="6.36505">
        <ele>2442.3999023438</ele>
        <time>2014-01-11T11:14:04.000Z</time>
      </trkpt>
      <trkpt lat="45.1783" lon="6.36505">
        <ele>2442.3999023438</ele>
        <time>2014-01-11T11:14:05.000Z</time>
      </trkpt>
      <trkpt lat="45.1783" lon="6.36505">
        <ele>2442.3999023438</ele>
        <time>2014-01-11T11:14:06.000Z</time>
      </trkpt>
      <trkpt lat="45.1783" lon="6.36506">
        <ele>2442.6000976562</ele>
        <time>2014-01-11T11:14:07.000Z</time>
      </trkpt>
      <trkpt lat="45.17831" lon="6.36507">
        <ele>2442.6000976562</ele>
        <time>2014-01-11T11:14:08.000Z</time>
      </trkpt>
      <trkpt lat="45.17831" lon="6.36508">
        <ele>2442.8000488281</ele>
        <time>2014-01-11T11:14:09.000Z</time>
      </trkpt>
      <trkpt lat="45.17831" lon="6.36509">
        <ele>2442.8000488281</ele>
        <time>2014-01-11T11:14:10.000Z</time>
      </trkpt>
      <trkpt lat="45.17831" lon="6.36509">
        <ele>2442.8000488281</ele>
        <time>2014-01-11T11:14:11.000Z</time>
      </trkpt>
      <trkpt lat="45.17831" lon="6.36509">
        <ele>2442.8000488281</ele>
        <time>2014-01-11T11:14:12.000Z</time>
      </trkpt>
      <trkpt lat="45.17831" lon="6.3651">
        <ele>2442.8000488281</ele>
        <time>2014-01-11T11:14:13.000Z</time>
      </trkpt>
      <trkpt lat="45.17831" lon="6.3651">
        <ele>2442.8000488281</ele>
        <time>2014-01-11T11:14:14.000Z</time>
      </trkpt>
      <trkpt lat="45.17831" lon="6.3651">
        <ele>2442.8000488281</ele>
        <time>2014-01-11T11:14:15.000Z</time>
      </trkpt>
      <trkpt lat="45.17831" lon="6.3651">
        <ele>2442.8000488281</ele>
        <time>2014-01-11T11:14:16.000Z</time>
      </trkpt>
      <trkpt lat="45.17831" lon="6.3651">
        <ele>2443</ele>
        <time>2014-01-11T11:14:17.000Z</time>
      </trkpt>
      <trkpt lat="45.17831" lon="6.3651">
        <ele>2443</ele>
        <time>2014-01-11T11:14:18.000Z</time>
      </trkpt>
      <trkpt lat="45.1783" lon="6.3651">
        <ele>2443</ele>
        <time>2014-01-11T11:14:20.000Z</time>
      </trkpt>
      <trkpt lat="45.1783" lon="6.3651">
        <ele>2443</ele>
        <time>2014-01-11T11:14:21.000Z</time>
      </trkpt>
      <trkpt lat="45.1783" lon="6.3651">
        <ele>2443</ele>
        <time>2014-01-11T11:14:22.000Z</time>
      </trkpt>
      <trkpt lat="45.17829" lon="6.36511">
        <ele>2443</ele>
        <time>2014-01-11T11:14:23.000Z</time>
      </trkpt>
      <trkpt lat="45.17829" lon="6.36511">
        <ele>2443.1999511719</ele>
        <time>2014-01-11T11:14:24.000Z</time>
      </trkpt>
      <trkpt lat="45.17829" lon="6.36511">
        <ele>2443.3999023438</ele>
        <time>2014-01-11T11:14:25.000Z</time>
      </trkpt>
      <trkpt lat="45.17828" lon="6.36511">
        <ele>2443.6000976562</ele>
        <time>2014-01-11T11:14:26.000Z</time>
      </trkpt>
      <trkpt lat="45.17827" lon="6.36512">
        <ele>2443.8000488281</ele>
        <time>2014-01-11T11:14:27.000Z</time>
      </trkpt>
      <trkpt lat="45.17827" lon="6.36512">
        <ele>2443.8000488281</ele>
        <time>2014-01-11T11:14:28.000Z</time>
      </trkpt>
      <trkpt lat="45.17826" lon="6.36512">
        <ele>2444</ele>
        <time>2014-01-11T11:14:29.000Z</time>
      </trkpt>
      <trkpt lat="45.17825" lon="6.36513">
        <ele>2444.1999511719</ele>
        <time>2014-01-11T11:14:31.000Z</time>
      </trkpt>
      <trkpt lat="45.17825" lon="6.36514">
        <ele>2444.3999023438</ele>
        <time>2014-01-11T11:14:32.000Z</time>
      </trkpt>
      <trkpt lat="45.17824" lon="6.36514">
        <ele>2444.8000488281</ele>
        <time>2014-01-11T11:14:33.000Z</time>
      </trkpt>
      <trkpt lat="45.17824" lon="6.36514">
        <ele>2445</ele>
        <time>2014-01-11T11:14:34.000Z</time>
      </trkpt>
      <trkpt lat="45.17823" lon="6.36514">
        <ele>2445.1999511719</ele>
        <time>2014-01-11T11:14:35.000Z</time>
      </trkpt>
      <trkpt lat="45.17823" lon="6.36514">
        <ele>2445.3999023438</ele>
        <time>2014-01-11T11:14:36.000Z</time>
      </trkpt>
      <trkpt lat="45.17823" lon="6.36515">
        <ele>2445.3999023438</ele>
        <time>2014-01-11T11:14:37.000Z</time>
      </trkpt>
      <trkpt lat="45.17823" lon="6.36515">
        <ele>2445.3999023438</ele>
        <time>2014-01-11T11:14:38.000Z</time>
      </trkpt>
      <trkpt lat="45.17822" lon="6.36515">
        <ele>2445.6000976562</ele>
        <time>2014-01-11T11:14:39.000Z</time>
      </trkpt>
      <trkpt lat="45.17822" lon="6.36515">
        <ele>2445.6000976562</ele>
        <time>2014-01-11T11:14:40.000Z</time>
      </trkpt>
      <trkpt lat="45.17822" lon="6.36515">
        <ele>2446</ele>
        <time>2014-01-11T11:14:41.000Z</time>
      </trkpt>
      <trkpt lat="45.17821" lon="6.36515">
        <ele>2446.1999511719</ele>
        <time>2014-01-11T11:14:42.000Z</time>
      </trkpt>
      <trkpt lat="45.17821" lon="6.36516">
        <ele>2446.3999023438</ele>
        <time>2014-01-11T11:14:43.000Z</time>
      </trkpt>
      <trkpt lat="45.17821" lon="6.36515">
        <ele>2446.6000976562</ele>
        <time>2014-01-11T11:14:44.000Z</time>
      </trkpt>
      <trkpt lat="45.17821" lon="6.36515">
        <ele>2446.6000976562</ele>
        <time>2014-01-11T11:14:45.000Z</time>
      </trkpt>
      <trkpt lat="45.17821" lon="6.36515">
        <ele>2446.8000488281</ele>
        <time>2014-01-11T11:14:46.000Z</time>
      </trkpt>
      <trkpt lat="45.17821" lon="6.36515">
        <ele>2447</ele>
        <time>2014-01-11T11:14:47.000Z</time>
      </trkpt>
      <trkpt lat="45.17821" lon="6.36515">
        <ele>2447.1999511719</ele>
        <time>2014-01-11T11:14:48.000Z</time>
      </trkpt>
      <trkpt lat="45.17821" lon="6.36515">
        <ele>2447.3999023438</ele>
        <time>2014-01-11T11:14:49.000Z</time>
      </trkpt>
      <trkpt lat="45.17821" lon="6.36516">
        <ele>2447.3999023438</ele>
        <time>2014-01-11T11:14:50.000Z</time>
      </trkpt>
      <trkpt lat="45.17821" lon="6.36516">
        <ele>2447.6000976562</ele>
        <time>2014-01-11T11:14:51.000Z</time>
      </trkpt>
      <trkpt lat="45.17822" lon="6.36516">
        <ele>2447.6000976562</ele>
        <time>2014-01-11T11:14:52.000Z</time>
      </trkpt>
      <trkpt lat="45.17822" lon="6.36516">
        <ele>2447.8000488281</ele>
        <time>2014-01-11T11:14:53.000Z</time>
      </trkpt>
      <trkpt lat="45.17822" lon="6.36517">
        <ele>2447.8000488281</ele>
        <time>2014-01-11T11:14:54.000Z</time>
      </trkpt>
      <trkpt lat="45.17822" lon="6.36517">
        <ele>2447.8000488281</ele>
        <time>2014-01-11T11:14:55.000Z</time>
      </trkpt>
      <trkpt lat="45.17823" lon="6.36517">
        <ele>2448</ele>
        <time>2014-01-11T11:14:56.000Z</time>
      </trkpt>
      <trkpt lat="45.17824" lon="6.36518">
        <ele>2448.3999023438</ele>
        <time>2014-01-11T11:14:57.000Z</time>
      </trkpt>
      <trkpt lat="45.17824" lon="6.36518">
        <ele>2448.6000976562</ele>
        <time>2014-01-11T11:14:58.000Z</time>
      </trkpt>
      <trkpt lat="45.17825" lon="6.36518">
        <ele>2448.8000488281</ele>
        <time>2014-01-11T11:14:59.000Z</time>
      </trkpt>
      <trkpt lat="45.17825" lon="6.36519">
        <ele>2449</ele>
        <time>2014-01-11T11:15:00.000Z</time>
      </trkpt>
      <trkpt lat="45.17825" lon="6.36519">
        <ele>2449</ele>
        <time>2014-01-11T11:15:01.000Z</time>
      </trkpt>
      <trkpt lat="45.17826" lon="6.3652">
        <ele>2449</ele>
        <time>2014-01-11T11:15:02.000Z</time>
      </trkpt>
      <trkpt lat="45.17826" lon="6.36521">
        <ele>2449.1999511719</ele>
        <time>2014-01-11T11:15:03.000Z</time>
      </trkpt>
      <trkpt lat="45.17827" lon="6.36521">
        <ele>2449.1999511719</ele>
        <time>2014-01-11T11:15:04.000Z</time>
      </trkpt>
      <trkpt lat="45.17827" lon="6.36522">
        <ele>2449.6000976562</ele>
        <time>2014-01-11T11:15:05.000Z</time>
      </trkpt>
      <trkpt lat="45.17828" lon="6.36523">
        <ele>2449.8000488281</ele>
        <time>2014-01-11T11:15:06.000Z</time>
      </trkpt>
      <trkpt lat="45.17828" lon="6.36524">
        <ele>2450</ele>
        <time>2014-01-11T11:15:07.000Z</time>
      </trkpt>
      <trkpt lat="45.17828" lon="6.36525">
        <ele>2450</ele>
        <time>2014-01-11T11:15:08.000Z</time>
      </trkpt>
      <trkpt lat="45.17829" lon="6.36525">
        <ele>2450.1999511719</ele>
        <time>2014-01-11T11:15:09.000Z</time>
      </trkpt>
      <trkpt lat="45.17829" lon="6.36525">
        <ele>2450.1999511719</ele>
        <time>2014-01-11T11:15:10.000Z</time>
      </trkpt>
      <trkpt lat="45.17829" lon="6.36526">
        <ele>2450.1999511719</ele>
        <time>2014-01-11T11:15:11.000Z</time>
      </trkpt>
      <trkpt lat="45.17829" lon="6.36526">
        <ele>2450.3999023438</ele>
        <time>2014-01-11T11:15:12.000Z</time>
      </trkpt>
      <trkpt lat="45.17829" lon="6.36526">
        <ele>2450.6000976562</ele>
        <time>2014-01-11T11:15:13.000Z</time>
      </trkpt>
      <trkpt lat="45.17829" lon="6.36526">
        <ele>2450.8000488281</ele>
        <time>2014-01-11T11:15:14.000Z</time>
      </trkpt>
      <trkpt lat="45.17829" lon="6.36526">
        <ele>2450.8000488281</ele>
        <time>2014-01-11T11:15:15.000Z</time>
      </trkpt>
      <trkpt lat="45.17829" lon="6.36526">
        <ele>2451</ele>
        <time>2014-01-11T11:15:16.000Z</time>
      </trkpt>
      <trkpt lat="45.17829" lon="6.36526">
        <ele>2451.1999511719</ele>
        <time>2014-01-11T11:15:17.000Z</time>
      </trkpt>
      <trkpt lat="45.17829" lon="6.36526">
        <ele>2451.3999023438</ele>
        <time>2014-01-11T11:15:18.000Z</time>
      </trkpt>
      <trkpt lat="45.17829" lon="6.36526">
        <ele>2451.6000976562</ele>
        <time>2014-01-11T11:15:19.000Z</time>
      </trkpt>
      <trkpt lat="45.17829" lon="6.36526">
        <ele>2451.6000976562</ele>
        <time>2014-01-11T11:15:20.000Z</time>
      </trkpt>
      <trkpt lat="45.17829" lon="6.36526">
        <ele>2451.6000976562</ele>
        <time>2014-01-11T11:15:21.000Z</time>
      </trkpt>
      <trkpt lat="45.17828" lon="6.36527">
        <ele>2451.8000488281</ele>
        <time>2014-01-11T11:15:22.000Z</time>
      </trkpt>
      <trkpt lat="45.17828" lon="6.36527">
        <ele>2451.8000488281</ele>
        <time>2014-01-11T11:15:23.000Z</time>
      </trkpt>
      <trkpt lat="45.17827" lon="6.36528">
        <ele>2451.8000488281</ele>
        <time>2014-01-11T11:15:24.000Z</time>
      </trkpt>
      <trkpt lat="45.17827" lon="6.36528">
        <ele>2452</ele>
        <time>2014-01-11T11:15:25.000Z</time>
      </trkpt>
      <trkpt lat="45.17827" lon="6.36529">
        <ele>2452</ele>
        <time>2014-01-11T11:15:26.000Z</time>
      </trkpt>
      <trkpt lat="45.17827" lon="6.36529">
        <ele>2452</ele>
        <time>2014-01-11T11:15:27.000Z</time>
      </trkpt>
      <trkpt lat="45.17826" lon="6.3653">
        <ele>2452.1999511719</ele>
        <time>2014-01-11T11:15:28.000Z</time>
      </trkpt>
      <trkpt lat="45.17826" lon="6.3653">
        <ele>2452.3999023438</ele>
        <time>2014-01-11T11:15:29.000Z</time>
      </trkpt>
      <trkpt lat="45.17826" lon="6.3653">
        <ele>2452.6000976562</ele>
        <time>2014-01-11T11:15:30.000Z</time>
      </trkpt>
      <trkpt lat="45.17825" lon="6.36531">
        <ele>2452.8000488281</ele>
        <time>2014-01-11T11:15:31.000Z</time>
      </trkpt>
      <trkpt lat="45.17825" lon="6.36531">
        <ele>2453</ele>
        <time>2014-01-11T11:15:32.000Z</time>
      </trkpt>
      <trkpt lat="45.17825" lon="6.36531">
        <ele>2453.1999511719</ele>
        <time>2014-01-11T11:15:33.000Z</time>
      </trkpt>
      <trkpt lat="45.17825" lon="6.36531">
        <ele>2453.3999023438</ele>
        <time>2014-01-11T11:15:34.000Z</time>
      </trkpt>
      <trkpt lat="45.17824" lon="6.36532">
        <ele>2453.3999023438</ele>
        <time>2014-01-11T11:15:35.000Z</time>
      </trkpt>
      <trkpt lat="45.17824" lon="6.36533">
        <ele>2453.6000976562</ele>
        <time>2014-01-11T11:15:36.000Z</time>
      </trkpt>
      <trkpt lat="45.17824" lon="6.36533">
        <ele>2453.8000488281</ele>
        <time>2014-01-11T11:15:37.000Z</time>
      </trkpt>
      <trkpt lat="45.17824" lon="6.36533">
        <ele>2454</ele>
        <time>2014-01-11T11:15:38.000Z</time>
      </trkpt>
      <trkpt lat="45.17823" lon="6.36533">
        <ele>2454.1999511719</ele>
        <time>2014-01-11T11:15:39.000Z</time>
      </trkpt>
      <trkpt lat="45.17823" lon="6.36534">
        <ele>2454.1999511719</ele>
        <time>2014-01-11T11:15:40.000Z</time>
      </trkpt>
      <trkpt lat="45.17822" lon="6.36534">
        <ele>2454.3999023438</ele>
        <time>2014-01-11T11:15:41.000Z</time>
      </trkpt>
      <trkpt lat="45.17822" lon="6.36534">
        <ele>2454.6000976562</ele>
        <time>2014-01-11T11:15:42.000Z</time>
      </trkpt>
      <trkpt lat="45.17822" lon="6.36534">
        <ele>2454.8000488281</ele>
        <time>2014-01-11T11:15:43.000Z</time>
      </trkpt>
      <trkpt lat="45.17821" lon="6.36534">
        <ele>2455</ele>
        <time>2014-01-11T11:15:44.000Z</time>
      </trkpt>
      <trkpt lat="45.17821" lon="6.36534">
        <ele>2455.1999511719</ele>
        <time>2014-01-11T11:15:45.000Z</time>
      </trkpt>
      <trkpt lat="45.1782" lon="6.36534">
        <ele>2455.1999511719</ele>
        <time>2014-01-11T11:15:46.000Z</time>
      </trkpt>
      <trkpt lat="45.1782" lon="6.36535">
        <ele>2455.3999023438</ele>
        <time>2014-01-11T11:15:47.000Z</time>
      </trkpt>
      <trkpt lat="45.1782" lon="6.36535">
        <ele>2455.6000976562</ele>
        <time>2014-01-11T11:15:48.000Z</time>
      </trkpt>
      <trkpt lat="45.17819" lon="6.36535">
        <ele>2455.8000488281</ele>
        <time>2014-01-11T11:15:49.000Z</time>
      </trkpt>
      <trkpt lat="45.17819" lon="6.36535">
        <ele>2456</ele>
        <time>2014-01-11T11:15:50.000Z</time>
      </trkpt>
      <trkpt lat="45.17818" lon="6.36536">
        <ele>2456.1999511719</ele>
        <time>2014-01-11T11:15:51.000Z</time>
      </trkpt>
      <trkpt lat="45.17818" lon="6.36536">
        <ele>2456.1999511719</ele>
        <time>2014-01-11T11:15:52.000Z</time>
      </trkpt>
      <trkpt lat="45.17818" lon="6.36536">
        <ele>2456.6000976562</ele>
        <time>2014-01-11T11:15:53.000Z</time>
      </trkpt>
      <trkpt lat="45.17817" lon="6.36537">
        <ele>2456.8000488281</ele>
        <time>2014-01-11T11:15:54.000Z</time>
      </trkpt>
      <trkpt lat="45.17816" lon="6.36537">
        <ele>2457</ele>
        <time>2014-01-11T11:15:55.000Z</time>
      </trkpt>
      <trkpt lat="45.17816" lon="6.36537">
        <ele>2457.1999511719</ele>
        <time>2014-01-11T11:15:56.000Z</time>
      </trkpt>
      <trkpt lat="45.17816" lon="6.36537">
        <ele>2457.1999511719</ele>
        <time>2014-01-11T11:15:57.000Z</time>
      </trkpt>
      <trkpt lat="45.17816" lon="6.36537">
        <ele>2457.3999023438</ele>
        <time>2014-01-11T11:15:58.000Z</time>
      </trkpt>
      <trkpt lat="45.17816" lon="6.36537">
        <ele>2457.6000976562</ele>
        <time>2014-01-11T11:15:59.000Z</time>
      </trkpt>
      <trkpt lat="45.17816" lon="6.36537">
        <ele>2457.6000976562</ele>
        <time>2014-01-11T11:16:00.000Z</time>
      </trkpt>
      <trkpt lat="45.17816" lon="6.36537">
        <ele>2457.6000976562</ele>
        <time>2014-01-11T11:16:01.000Z</time>
      </trkpt>
      <trkpt lat="45.17816" lon="6.36537">
        <ele>2457.8000488281</ele>
        <time>2014-01-11T11:16:02.000Z</time>
      </trkpt>
      <trkpt lat="45.17816" lon="6.36537">
        <ele>2457.8000488281</ele>
        <time>2014-01-11T11:16:05.000Z</time>
      </trkpt>
      <trkpt lat="45.17816" lon="6.36537">
        <ele>2457.8000488281</ele>
        <time>2014-01-11T11:16:06.000Z</time>
      </trkpt>
      <trkpt lat="45.17817" lon="6.36538">
        <ele>2457.8000488281</ele>
        <time>2014-01-11T11:16:07.000Z</time>
      </trkpt>
      <trkpt lat="45.17817" lon="6.36538">
        <ele>2458</ele>
        <time>2014-01-11T11:16:08.000Z</time>
      </trkpt>
      <trkpt lat="45.17817" lon="6.36539">
        <ele>2458.1999511719</ele>
        <time>2014-01-11T11:16:09.000Z</time>
      </trkpt>
      <trkpt lat="45.17818" lon="6.36539">
        <ele>2458.3999023438</ele>
        <time>2014-01-11T11:16:10.000Z</time>
      </trkpt>
      <trkpt lat="45.17818" lon="6.3654">
        <ele>2458.6000976562</ele>
        <time>2014-01-11T11:16:11.000Z</time>
      </trkpt>
      <trkpt lat="45.17819" lon="6.36541">
        <ele>2458.6000976562</ele>
        <time>2014-01-11T11:16:12.000Z</time>
      </trkpt>
      <trkpt lat="45.17819" lon="6.36541">
        <ele>2458.8000488281</ele>
        <time>2014-01-11T11:16:13.000Z</time>
      </trkpt>
      <trkpt lat="45.1782" lon="6.36541">
        <ele>2458.8000488281</ele>
        <time>2014-01-11T11:16:14.000Z</time>
      </trkpt>
      <trkpt lat="45.1782" lon="6.36541">
        <ele>2458.8000488281</ele>
        <time>2014-01-11T11:16:15.000Z</time>
      </trkpt>
      <trkpt lat="45.17821" lon="6.36541">
        <ele>2459</ele>
        <time>2014-01-11T11:16:16.000Z</time>
      </trkpt>
      <trkpt lat="45.17822" lon="6.36541">
        <ele>2459.3999023438</ele>
        <time>2014-01-11T11:16:17.000Z</time>
      </trkpt>
      <trkpt lat="45.17822" lon="6.36541">
        <ele>2459.6000976562</ele>
        <time>2014-01-11T11:16:18.000Z</time>
      </trkpt>
      <trkpt lat="45.17822" lon="6.36541">
        <ele>2459.8000488281</ele>
        <time>2014-01-11T11:16:19.000Z</time>
      </trkpt>
      <trkpt lat="45.17823" lon="6.36542">
        <ele>2460</ele>
        <time>2014-01-11T11:16:20.000Z</time>
      </trkpt>
      <trkpt lat="45.17823" lon="6.36543">
        <ele>2460</ele>
        <time>2014-01-11T11:16:21.000Z</time>
      </trkpt>
      <trkpt lat="45.17823" lon="6.36543">
        <ele>2460</ele>
        <time>2014-01-11T11:16:22.000Z</time>
      </trkpt>
      <trkpt lat="45.17824" lon="6.36543">
        <ele>2460.1999511719</ele>
        <time>2014-01-11T11:16:23.000Z</time>
      </trkpt>
      <trkpt lat="45.17824" lon="6.36544">
        <ele>2460.1999511719</ele>
        <time>2014-01-11T11:16:24.000Z</time>
      </trkpt>
      <trkpt lat="45.17824" lon="6.36546">
        <ele>2460.3999023438</ele>
        <time>2014-01-11T11:16:25.000Z</time>
      </trkpt>
      <trkpt lat="45.17824" lon="6.36546">
        <ele>2460.3999023438</ele>
        <time>2014-01-11T11:16:26.000Z</time>
      </trkpt>
      <trkpt lat="45.17824" lon="6.36546">
        <ele>2460.6000976562</ele>
        <time>2014-01-11T11:16:27.000Z</time>
      </trkpt>
      <trkpt lat="45.17824" lon="6.36546">
        <ele>2460.8000488281</ele>
        <time>2014-01-11T11:16:28.000Z</time>
      </trkpt>
      <trkpt lat="45.17824" lon="6.36546">
        <ele>2460.8000488281</ele>
        <time>2014-01-11T11:16:29.000Z</time>
      </trkpt>
      <trkpt lat="45.17824" lon="6.36546">
        <ele>2461</ele>
        <time>2014-01-11T11:16:30.000Z</time>
      </trkpt>
      <trkpt lat="45.17825" lon="6.36548">
        <ele>2461</ele>
        <time>2014-01-11T11:16:31.000Z</time>
      </trkpt>
      <trkpt lat="45.17826" lon="6.36548">
        <ele>2461.1999511719</ele>
        <time>2014-01-11T11:16:32.000Z</time>
      </trkpt>
      <trkpt lat="45.17826" lon="6.36549">
        <ele>2461.1999511719</ele>
        <time>2014-01-11T11:16:33.000Z</time>
      </trkpt>
      <trkpt lat="45.17826" lon="6.36549">
        <ele>2461.3999023438</ele>
        <time>2014-01-11T11:16:34.000Z</time>
      </trkpt>
      <trkpt lat="45.17826" lon="6.3655">
        <ele>2461.6000976562</ele>
        <time>2014-01-11T11:16:35.000Z</time>
      </trkpt>
      <trkpt lat="45.17827" lon="6.36551">
        <ele>2461.8000488281</ele>
        <time>2014-01-11T11:16:36.000Z</time>
      </trkpt>
      <trkpt lat="45.17827" lon="6.36552">
        <ele>2462</ele>
        <time>2014-01-11T11:16:37.000Z</time>
      </trkpt>
      <trkpt lat="45.17827" lon="6.36552">
        <ele>2462</ele>
        <time>2014-01-11T11:16:38.000Z</time>
      </trkpt>
      <trkpt lat="45.17827" lon="6.36553">
        <ele>2462.1999511719</ele>
        <time>2014-01-11T11:16:39.000Z</time>
      </trkpt>
      <trkpt lat="45.17827" lon="6.36554">
        <ele>2462.1999511719</ele>
        <time>2014-01-11T11:16:40.000Z</time>
      </trkpt>
      <trkpt lat="45.17828" lon="6.36554">
        <ele>2462.3999023438</ele>
        <time>2014-01-11T11:16:41.000Z</time>
      </trkpt>
      <trkpt lat="45.17828" lon="6.36554">
        <ele>2462.8000488281</ele>
        <time>2014-01-11T11:16:42.000Z</time>
      </trkpt>
      <trkpt lat="45.17828" lon="6.36554">
        <ele>2463</ele>
        <time>2014-01-11T11:16:43.000Z</time>
      </trkpt>
      <trkpt lat="45.17828" lon="6.36554">
        <ele>2463.1999511719</ele>
        <time>2014-01-11T11:16:44.000Z</time>
      </trkpt>
      <trkpt lat="45.17828" lon="6.36554">
        <ele>2463.1999511719</ele>
        <time>2014-01-11T11:16:45.000Z</time>
      </trkpt>
      <trkpt lat="45.17828" lon="6.36554">
        <ele>2463.3999023438</ele>
        <time>2014-01-11T11:16:46.000Z</time>
      </trkpt>
      <trkpt lat="45.17828" lon="6.36554">
        <ele>2463.6000976562</ele>
        <time>2014-01-11T11:16:47.000Z</time>
      </trkpt>
      <trkpt lat="45.17827" lon="6.36554">
        <ele>2463.6000976562</ele>
        <time>2014-01-11T11:16:48.000Z</time>
      </trkpt>
      <trkpt lat="45.17827" lon="6.36555">
        <ele>2463.8000488281</ele>
        <time>2014-01-11T11:16:49.000Z</time>
      </trkpt>
      <trkpt lat="45.17827" lon="6.36555">
        <ele>2463.8000488281</ele>
        <time>2014-01-11T11:16:50.000Z</time>
      </trkpt>
      <trkpt lat="45.17826" lon="6.36556">
        <ele>2464</ele>
        <time>2014-01-11T11:16:51.000Z</time>
      </trkpt>
      <trkpt lat="45.17826" lon="6.36556">
        <ele>2464</ele>
        <time>2014-01-11T11:16:52.000Z</time>
      </trkpt>
      <trkpt lat="45.17826" lon="6.36556">
        <ele>2464</ele>
        <time>2014-01-11T11:16:53.000Z</time>
      </trkpt>
      <trkpt lat="45.17826" lon="6.36556">
        <ele>2464.1999511719</ele>
        <time>2014-01-11T11:16:54.000Z</time>
      </trkpt>
      <trkpt lat="45.17825" lon="6.36557">
        <ele>2464.1999511719</ele>
        <time>2014-01-11T11:16:55.000Z</time>
      </trkpt>
      <trkpt lat="45.17825" lon="6.36557">
        <ele>2464.3999023438</ele>
        <time>2014-01-11T11:16:56.000Z</time>
      </trkpt>
      <trkpt lat="45.17825" lon="6.36557">
        <ele>2464.6000976562</ele>
        <time>2014-01-11T11:16:57.000Z</time>
      </trkpt>
      <trkpt lat="45.17825" lon="6.36557">
        <ele>2464.8000488281</ele>
        <time>2014-01-11T11:16:58.000Z</time>
      </trkpt>
      <trkpt lat="45.17825" lon="6.36557">
        <ele>2465</ele>
        <time>2014-01-11T11:16:59.000Z</time>
      </trkpt>
      <trkpt lat="45.17825" lon="6.36557">
        <ele>2465.1999511719</ele>
        <time>2014-01-11T11:17:00.000Z</time>
      </trkpt>
      <trkpt lat="45.17824" lon="6.36558">
        <ele>2465.3999023438</ele>
        <time>2014-01-11T11:17:01.000Z</time>
      </trkpt>
      <trkpt lat="45.17824" lon="6.36558">
        <ele>2465.3999023438</ele>
        <time>2014-01-11T11:17:02.000Z</time>
      </trkpt>
      <trkpt lat="45.17824" lon="6.36558">
        <ele>2465.3999023438</ele>
        <time>2014-01-11T11:17:03.000Z</time>
      </trkpt>
      <trkpt lat="45.17824" lon="6.36558">
        <ele>2465.6000976562</ele>
        <time>2014-01-11T11:17:04.000Z</time>
      </trkpt>
      <trkpt lat="45.17824" lon="6.36558">
        <ele>2465.6000976562</ele>
        <time>2014-01-11T11:17:05.000Z</time>
      </trkpt>
      <trkpt lat="45.17824" lon="6.36558">
        <ele>2465.6000976562</ele>
        <time>2014-01-11T11:17:06.000Z</time>
      </trkpt>
      <trkpt lat="45.17824" lon="6.36558">
        <ele>2465.8000488281</ele>
        <time>2014-01-11T11:17:07.000Z</time>
      </trkpt>
      <trkpt lat="45.17824" lon="6.36558">
        <ele>2465.8000488281</ele>
        <time>2014-01-11T11:17:08.000Z</time>
      </trkpt>
      <trkpt lat="45.17824" lon="6.36558">
        <ele>2466</ele>
        <time>2014-01-11T11:17:09.000Z</time>
      </trkpt>
      <trkpt lat="45.17825" lon="6.36558">
        <ele>2466</ele>
        <time>2014-01-11T11:17:10.000Z</time>
      </trkpt>
      <trkpt lat="45.17825" lon="6.36558">
        <ele>2466</ele>
        <time>2014-01-11T11:17:11.000Z</time>
      </trkpt>
      <trkpt lat="45.17825" lon="6.36558">
        <ele>2466.1999511719</ele>
        <time>2014-01-11T11:17:12.000Z</time>
      </trkpt>
      <trkpt lat="45.17825" lon="6.36559">
        <ele>2466.1999511719</ele>
        <time>2014-01-11T11:17:13.000Z</time>
      </trkpt>
      <trkpt lat="45.17826" lon="6.36559">
        <ele>2466.3999023438</ele>
        <time>2014-01-11T11:17:14.000Z</time>
      </trkpt>
      <trkpt lat="45.17827" lon="6.3656">
        <ele>2466.6000976562</ele>
        <time>2014-01-11T11:17:15.000Z</time>
      </trkpt>
      <trkpt lat="45.17827" lon="6.3656">
        <ele>2466.8000488281</ele>
        <time>2014-01-11T11:17:16.000Z</time>
      </trkpt>
      <trkpt lat="45.17828" lon="6.36561">
        <ele>2467</ele>
        <time>2014-01-11T11:17:17.000Z</time>
      </trkpt>
      <trkpt lat="45.17828" lon="6.36561">
        <ele>2467.1999511719</ele>
        <time>2014-01-11T11:17:18.000Z</time>
      </trkpt>
      <trkpt lat="45.17828" lon="6.36562">
        <ele>2467.3999023438</ele>
        <time>2014-01-11T11:17:19.000Z</time>
      </trkpt>
      <trkpt lat="45.17828" lon="6.36562">
        <ele>2467.3999023438</ele>
        <time>2014-01-11T11:17:20.000Z</time>
      </trkpt>
      <trkpt lat="45.17828" lon="6.36562">
        <ele>2467.6000976562</ele>
        <time>2014-01-11T11:17:21.000Z</time>
      </trkpt>
      <trkpt lat="45.17828" lon="6.36562">
        <ele>2467.6000976562</ele>
        <time>2014-01-11T11:17:22.000Z</time>
      </trkpt>
      <trkpt lat="45.17828" lon="6.36562">
        <ele>2467.8000488281</ele>
        <time>2014-01-11T11:17:23.000Z</time>
      </trkpt>
      <trkpt lat="45.17828" lon="6.36562">
        <ele>2467.8000488281</ele>
        <time>2014-01-11T11:17:24.000Z</time>
      </trkpt>
      <trkpt lat="45.17828" lon="6.36562">
        <ele>2468</ele>
        <time>2014-01-11T11:17:25.000Z</time>
      </trkpt>
      <trkpt lat="45.17828" lon="6.36562">
        <ele>2468.3999023438</ele>
        <time>2014-01-11T11:17:26.000Z</time>
      </trkpt>
      <trkpt lat="45.17828" lon="6.36562">
        <ele>2468.6000976562</ele>
        <time>2014-01-11T11:17:27.000Z</time>
      </trkpt>
      <trkpt lat="45.17828" lon="6.36562">
        <ele>2468.8000488281</ele>
        <time>2014-01-11T11:17:28.000Z</time>
      </trkpt>
      <trkpt lat="45.17828" lon="6.36563">
        <ele>2468.8000488281</ele>
        <time>2014-01-11T11:17:29.000Z</time>
      </trkpt>
      <trkpt lat="45.17828" lon="6.36563">
        <ele>2468.8000488281</ele>
        <time>2014-01-11T11:17:30.000Z</time>
      </trkpt>
      <trkpt lat="45.17827" lon="6.36564">
        <ele>2468.8000488281</ele>
        <time>2014-01-11T11:17:31.000Z</time>
      </trkpt>
      <trkpt lat="45.17827" lon="6.36564">
        <ele>2469</ele>
        <time>2014-01-11T11:17:32.000Z</time>
      </trkpt>
      <trkpt lat="45.17827" lon="6.36565">
        <ele>2469</ele>
        <time>2014-01-11T11:17:33.000Z</time>
      </trkpt>
      <trkpt lat="45.17826" lon="6.36566">
        <ele>2469.1999511719</ele>
        <time>2014-01-11T11:17:34.000Z</time>
      </trkpt>
      <trkpt lat="45.17826" lon="6.36566">
        <ele>2469.1999511719</ele>
        <time>2014-01-11T11:17:35.000Z</time>
      </trkpt>
      <trkpt lat="45.17825" lon="6.36566">
        <ele>2469.3999023438</ele>
        <time>2014-01-11T11:17:36.000Z</time>
      </trkpt>
      <trkpt lat="45.17825" lon="6.36566">
        <ele>2469.3999023438</ele>
        <time>2014-01-11T11:17:37.000Z</time>
      </trkpt>
      <trkpt lat="45.17825" lon="6.36566">
        <ele>2469.6000976562</ele>
        <time>2014-01-11T11:17:38.000Z</time>
      </trkpt>
      <trkpt lat="45.17825" lon="6.36566">
        <ele>2470</ele>
        <time>2014-01-11T11:17:39.000Z</time>
      </trkpt>
      <trkpt lat="45.17824" lon="6.36566">
        <ele>2470.1999511719</ele>
        <time>2014-01-11T11:17:40.000Z</time>
      </trkpt>
      <trkpt lat="45.17823" lon="6.36566">
        <ele>2470.1999511719</ele>
        <time>2014-01-11T11:17:41.000Z</time>
      </trkpt>
      <trkpt lat="45.17823" lon="6.36566">
        <ele>2470.3999023438</ele>
        <time>2014-01-11T11:17:42.000Z</time>
      </trkpt>
      <trkpt lat="45.17822" lon="6.36567">
        <ele>2470.6000976562</ele>
        <time>2014-01-11T11:17:43.000Z</time>
      </trkpt>
      <trkpt lat="45.17822" lon="6.36567">
        <ele>2470.8000488281</ele>
        <time>2014-01-11T11:17:44.000Z</time>
      </trkpt>
      <trkpt lat="45.17821" lon="6.36567">
        <ele>2471</ele>
        <time>2014-01-11T11:17:45.000Z</time>
      </trkpt>
      <trkpt lat="45.1782" lon="6.36568">
        <ele>2471.1999511719</ele>
        <time>2014-01-11T11:17:46.000Z</time>
      </trkpt>
      <trkpt lat="45.1782" lon="6.36568">
        <ele>2471.3999023438</ele>
        <time>2014-01-11T11:17:47.000Z</time>
      </trkpt>
      <trkpt lat="45.1782" lon="6.36569">
        <ele>2471.3999023438</ele>
        <time>2014-01-11T11:17:48.000Z</time>
      </trkpt>
      <trkpt lat="45.17819" lon="6.36569">
        <ele>2471.6000976562</ele>
        <time>2014-01-11T11:17:49.000Z</time>
      </trkpt>
      <trkpt lat="45.17819" lon="6.36569">
        <ele>2471.8000488281</ele>
        <time>2014-01-11T11:17:50.000Z</time>
      </trkpt>
      <trkpt lat="45.17819" lon="6.3657">
        <ele>2472</ele>
        <time>2014-01-11T11:17:51.000Z</time>
      </trkpt>
      <trkpt lat="45.17818" lon="6.3657">
        <ele>2472.1999511719</ele>
        <time>2014-01-11T11:17:52.000Z</time>
      </trkpt>
      <trkpt lat="45.17817" lon="6.3657">
        <ele>2472.3999023438</ele>
        <time>2014-01-11T11:17:53.000Z</time>
      </trkpt>
      <trkpt lat="45.17816" lon="6.36571">
        <ele>2472.6000976562</ele>
        <time>2014-01-11T11:17:54.000Z</time>
      </trkpt>
      <trkpt lat="45.17816" lon="6.36571">
        <ele>2472.8000488281</ele>
        <time>2014-01-11T11:17:55.000Z</time>
      </trkpt>
      <trkpt lat="45.17816" lon="6.36571">
        <ele>2473</ele>
        <time>2014-01-11T11:17:56.000Z</time>
      </trkpt>
      <trkpt lat="45.17815" lon="6.36572">
        <ele>2473.1999511719</ele>
        <time>2014-01-11T11:17:57.000Z</time>
      </trkpt>
      <trkpt lat="45.17815" lon="6.36572">
        <ele>2473.3999023438</ele>
        <time>2014-01-11T11:17:58.000Z</time>
      </trkpt>
      <trkpt lat="45.17815" lon="6.36572">
        <ele>2473.6000976562</ele>
        <time>2014-01-11T11:17:59.000Z</time>
      </trkpt>
      <trkpt lat="45.17815" lon="6.36572">
        <ele>2473.6000976562</ele>
        <time>2014-01-11T11:18:00.000Z</time>
      </trkpt>
      <trkpt lat="45.17815" lon="6.36572">
        <ele>2473.8000488281</ele>
        <time>2014-01-11T11:18:01.000Z</time>
      </trkpt>
      <trkpt lat="45.17815" lon="6.36572">
        <ele>2473.8000488281</ele>
        <time>2014-01-11T11:18:02.000Z</time>
      </trkpt>
      <trkpt lat="45.17815" lon="6.36572">
        <ele>2473.8000488281</ele>
        <time>2014-01-11T11:18:03.000Z</time>
      </trkpt>
      <trkpt lat="45.17815" lon="6.36572">
        <ele>2474</ele>
        <time>2014-01-11T11:18:04.000Z</time>
      </trkpt>
      <trkpt lat="45.17815" lon="6.36572">
        <ele>2474</ele>
        <time>2014-01-11T11:18:05.000Z</time>
      </trkpt>
      <trkpt lat="45.17815" lon="6.36572">
        <ele>2474</ele>
        <time>2014-01-11T11:18:06.000Z</time>
      </trkpt>
      <trkpt lat="45.17815" lon="6.36572">
        <ele>2474</ele>
        <time>2014-01-11T11:18:07.000Z</time>
      </trkpt>
      <trkpt lat="45.17814" lon="6.36572">
        <ele>2474</ele>
        <time>2014-01-11T11:18:12.000Z</time>
      </trkpt>
      <trkpt lat="45.17813" lon="6.36572">
        <ele>2474</ele>
        <time>2014-01-11T11:18:13.000Z</time>
      </trkpt>
      <trkpt lat="45.17813" lon="6.36572">
        <ele>2474</ele>
        <time>2014-01-11T11:18:14.000Z</time>
      </trkpt>
      <trkpt lat="45.17813" lon="6.36572">
        <ele>2474.1999511719</ele>
        <time>2014-01-11T11:18:15.000Z</time>
      </trkpt>
      <trkpt lat="45.17813" lon="6.36572">
        <ele>2474.3999023438</ele>
        <time>2014-01-11T11:18:16.000Z</time>
      </trkpt>
      <trkpt lat="45.17813" lon="6.36572">
        <ele>2474.6000976562</ele>
        <time>2014-01-11T11:18:17.000Z</time>
      </trkpt>
      <trkpt lat="45.17813" lon="6.36573">
        <ele>2474.8000488281</ele>
        <time>2014-01-11T11:18:18.000Z</time>
      </trkpt>
      <trkpt lat="45.17813" lon="6.36573">
        <ele>2474.8000488281</ele>
        <time>2014-01-11T11:18:19.000Z</time>
      </trkpt>
      <trkpt lat="45.17813" lon="6.36574">
        <ele>2474.8000488281</ele>
        <time>2014-01-11T11:18:20.000Z</time>
      </trkpt>
      <trkpt lat="45.17814" lon="6.36575">
        <ele>2475</ele>
        <time>2014-01-11T11:18:21.000Z</time>
      </trkpt>
      <trkpt lat="45.17814" lon="6.36575">
        <ele>2475</ele>
        <time>2014-01-11T11:18:22.000Z</time>
      </trkpt>
      <trkpt lat="45.17815" lon="6.36576">
        <ele>2475.1999511719</ele>
        <time>2014-01-11T11:18:23.000Z</time>
      </trkpt>
      <trkpt lat="45.17815" lon="6.36576">
        <ele>2475.3999023438</ele>
        <time>2014-01-11T11:18:24.000Z</time>
      </trkpt>
      <trkpt lat="45.17815" lon="6.36577">
        <ele>2475.6000976562</ele>
        <time>2014-01-11T11:18:25.000Z</time>
      </trkpt>
      <trkpt lat="45.17816" lon="6.36577">
        <ele>2475.8000488281</ele>
        <time>2014-01-11T11:18:26.000Z</time>
      </trkpt>
      <trkpt lat="45.17816" lon="6.36577">
        <ele>2476</ele>
        <time>2014-01-11T11:18:27.000Z</time>
      </trkpt>
      <trkpt lat="45.17816" lon="6.36578">
        <ele>2476.1999511719</ele>
        <time>2014-01-11T11:18:28.000Z</time>
      </trkpt>
      <trkpt lat="45.17816" lon="6.36578">
        <ele>2476.1999511719</ele>
        <time>2014-01-11T11:18:29.000Z</time>
      </trkpt>
      <trkpt lat="45.17817" lon="6.36578">
        <ele>2476.3999023438</ele>
        <time>2014-01-11T11:18:30.000Z</time>
      </trkpt>
      <trkpt lat="45.17817" lon="6.36579">
        <ele>2476.3999023438</ele>
        <time>2014-01-11T11:18:31.000Z</time>
      </trkpt>
      <trkpt lat="45.17817" lon="6.3658">
        <ele>2476.6000976562</ele>
        <time>2014-01-11T11:18:32.000Z</time>
      </trkpt>
      <trkpt lat="45.17817" lon="6.3658">
        <ele>2476.8000488281</ele>
        <time>2014-01-11T11:18:33.000Z</time>
      </trkpt>
      <trkpt lat="45.17818" lon="6.36581">
        <ele>2477</ele>
        <time>2014-01-11T11:18:34.000Z</time>
      </trkpt>
      <trkpt lat="45.17819" lon="6.36582">
        <ele>2477.1999511719</ele>
        <time>2014-01-11T11:18:35.000Z</time>
      </trkpt>
      <trkpt lat="45.1782" lon="6.36582">
        <ele>2477.3999023438</ele>
        <time>2014-01-11T11:18:36.000Z</time>
      </trkpt>
      <trkpt lat="45.17821" lon="6.36583">
        <ele>2477.3999023438</ele>
        <time>2014-01-11T11:18:37.000Z</time>
      </trkpt>
      <trkpt lat="45.17822" lon="6.36584">
        <ele>2477.6000976562</ele>
        <time>2014-01-11T11:18:38.000Z</time>
      </trkpt>
      <trkpt lat="45.17823" lon="6.36585">
        <ele>2477.6000976562</ele>
        <time>2014-01-11T11:18:39.000Z</time>
      </trkpt>
      <trkpt lat="45.17823" lon="6.36586">
        <ele>2477.6000976562</ele>
        <time>2014-01-11T11:18:40.000Z</time>
      </trkpt>
      <trkpt lat="45.17823" lon="6.36586">
        <ele>2478</ele>
        <time>2014-01-11T11:18:41.000Z</time>
      </trkpt>
      <trkpt lat="45.17823" lon="6.36586">
        <ele>2478</ele>
        <time>2014-01-11T11:18:42.000Z</time>
      </trkpt>
      <trkpt lat="45.17823" lon="6.36586">
        <ele>2478.1999511719</ele>
        <time>2014-01-11T11:18:43.000Z</time>
      </trkpt>
      <trkpt lat="45.17823" lon="6.36586">
        <ele>2478.1999511719</ele>
        <time>2014-01-11T11:18:44.000Z</time>
      </trkpt>
      <trkpt lat="45.17823" lon="6.36586">
        <ele>2478.3999023438</ele>
        <time>2014-01-11T11:18:45.000Z</time>
      </trkpt>
      <trkpt lat="45.17824" lon="6.36586">
        <ele>2478.6000976562</ele>
        <time>2014-01-11T11:18:46.000Z</time>
      </trkpt>
      <trkpt lat="45.17824" lon="6.36586">
        <ele>2478.6000976562</ele>
        <time>2014-01-11T11:18:47.000Z</time>
      </trkpt>
      <trkpt lat="45.17825" lon="6.36587">
        <ele>2478.8000488281</ele>
        <time>2014-01-11T11:18:48.000Z</time>
      </trkpt>
      <trkpt lat="45.17826" lon="6.36588">
        <ele>2479</ele>
        <time>2014-01-11T11:18:49.000Z</time>
      </trkpt>
      <trkpt lat="45.17826" lon="6.36588">
        <ele>2479.1999511719</ele>
        <time>2014-01-11T11:18:50.000Z</time>
      </trkpt>
      <trkpt lat="45.17826" lon="6.36588">
        <ele>2479.3999023438</ele>
        <time>2014-01-11T11:18:51.000Z</time>
      </trkpt>
      <trkpt lat="45.17826" lon="6.36588">
        <ele>2479.6000976562</ele>
        <time>2014-01-11T11:18:52.000Z</time>
      </trkpt>
      <trkpt lat="45.17827" lon="6.36588">
        <ele>2479.6000976562</ele>
        <time>2014-01-11T11:18:53.000Z</time>
      </trkpt>
      <trkpt lat="45.17827" lon="6.36588">
        <ele>2479.8000488281</ele>
        <time>2014-01-11T11:18:54.000Z</time>
      </trkpt>
      <trkpt lat="45.17827" lon="6.36588">
        <ele>2479.8000488281</ele>
        <time>2014-01-11T11:18:55.000Z</time>
      </trkpt>
      <trkpt lat="45.17827" lon="6.36588">
        <ele>2480</ele>
        <time>2014-01-11T11:18:56.000Z</time>
      </trkpt>
      <trkpt lat="45.17827" lon="6.36588">
        <ele>2480.1999511719</ele>
        <time>2014-01-11T11:18:57.000Z</time>
      </trkpt>
      <trkpt lat="45.17827" lon="6.36588">
        <ele>2480.1999511719</ele>
        <time>2014-01-11T11:18:58.000Z</time>
      </trkpt>
      <trkpt lat="45.17827" lon="6.36588">
        <ele>2480.3999023438</ele>
        <time>2014-01-11T11:18:59.000Z</time>
      </trkpt>
      <trkpt lat="45.17827" lon="6.36588">
        <ele>2480.6000976562</ele>
        <time>2014-01-11T11:19:00.000Z</time>
      </trkpt>
      <trkpt lat="45.17827" lon="6.36588">
        <ele>2480.8000488281</ele>
        <time>2014-01-11T11:19:01.000Z</time>
      </trkpt>
      <trkpt lat="45.17827" lon="6.36588">
        <ele>2481</ele>
        <time>2014-01-11T11:19:02.000Z</time>
      </trkpt>
      <trkpt lat="45.17827" lon="6.36588">
        <ele>2481</ele>
        <time>2014-01-11T11:19:03.000Z</time>
      </trkpt>
      <trkpt lat="45.17827" lon="6.36588">
        <ele>2481</ele>
        <time>2014-01-11T11:19:04.000Z</time>
      </trkpt>
      <trkpt lat="45.17827" lon="6.36589">
        <ele>2481</ele>
        <time>2014-01-11T11:19:05.000Z</time>
      </trkpt>
      <trkpt lat="45.17826" lon="6.3659">
        <ele>2481</ele>
        <time>2014-01-11T11:19:06.000Z</time>
      </trkpt>
      <trkpt lat="45.17826" lon="6.3659">
        <ele>2481</ele>
        <time>2014-01-11T11:19:07.000Z</time>
      </trkpt>
      <trkpt lat="45.17826" lon="6.3659">
        <ele>2481</ele>
        <time>2014-01-11T11:19:08.000Z</time>
      </trkpt>
      <trkpt lat="45.17826" lon="6.36591">
        <ele>2481</ele>
        <time>2014-01-11T11:19:09.000Z</time>
      </trkpt>
      <trkpt lat="45.17825" lon="6.36591">
        <ele>2481.1999511719</ele>
        <time>2014-01-11T11:19:10.000Z</time>
      </trkpt>
      <trkpt lat="45.17825" lon="6.36591">
        <ele>2481.1999511719</ele>
        <time>2014-01-11T11:19:11.000Z</time>
      </trkpt>
      <trkpt lat="45.17825" lon="6.36592">
        <ele>2481.3999023438</ele>
        <time>2014-01-11T11:19:12.000Z</time>
      </trkpt>
      <trkpt lat="45.17825" lon="6.36592">
        <ele>2481.6000976562</ele>
        <time>2014-01-11T11:19:13.000Z</time>
      </trkpt>
      <trkpt lat="45.17824" lon="6.36593">
        <ele>2481.8000488281</ele>
        <time>2014-01-11T11:19:14.000Z</time>
      </trkpt>
      <trkpt lat="45.17824" lon="6.36593">
        <ele>2482</ele>
        <time>2014-01-11T11:19:15.000Z</time>
      </trkpt>
      <trkpt lat="45.17824" lon="6.36593">
        <ele>2482.1999511719</ele>
        <time>2014-01-11T11:19:16.000Z</time>
      </trkpt>
      <trkpt lat="45.17824" lon="6.36594">
        <ele>2482.1999511719</ele>
        <time>2014-01-11T11:19:17.000Z</time>
      </trkpt>
      <trkpt lat="45.17824" lon="6.36594">
        <ele>2482.3999023438</ele>
        <time>2014-01-11T11:19:18.000Z</time>
      </trkpt>
      <trkpt lat="45.17823" lon="6.36595">
        <ele>2482.6000976562</ele>
        <time>2014-01-11T11:19:19.000Z</time>
      </trkpt>
      <trkpt lat="45.17823" lon="6.36596">
        <ele>2482.8000488281</ele>
        <time>2014-01-11T11:19:20.000Z</time>
      </trkpt>
      <trkpt lat="45.17822" lon="6.36597">
        <ele>2483</ele>
        <time>2014-01-11T11:19:21.000Z</time>
      </trkpt>
      <trkpt lat="45.17821" lon="6.36598">
        <ele>2483</ele>
        <time>2014-01-11T11:19:22.000Z</time>
      </trkpt>
      <trkpt lat="45.17821" lon="6.36598">
        <ele>2483.1999511719</ele>
        <time>2014-01-11T11:19:23.000Z</time>
      </trkpt>
      <trkpt lat="45.17821" lon="6.36598">
        <ele>2483.1999511719</ele>
        <time>2014-01-11T11:19:24.000Z</time>
      </trkpt>
      <trkpt lat="45.1782" lon="6.36599">
        <ele>2483.3999023438</ele>
        <time>2014-01-11T11:19:25.000Z</time>
      </trkpt>
      <trkpt lat="45.17819" lon="6.366">
        <ele>2483.6000976562</ele>
        <time>2014-01-11T11:19:26.000Z</time>
      </trkpt>
      <trkpt lat="45.17819" lon="6.36601">
        <ele>2483.8000488281</ele>
        <time>2014-01-11T11:19:27.000Z</time>
      </trkpt>
      <trkpt lat="45.17818" lon="6.36601">
        <ele>2484</ele>
        <time>2014-01-11T11:19:28.000Z</time>
      </trkpt>
      <trkpt lat="45.17817" lon="6.36602">
        <ele>2484.3999023438</ele>
        <time>2014-01-11T11:19:29.000Z</time>
      </trkpt>
      <trkpt lat="45.17817" lon="6.36603">
        <ele>2484.3999023438</ele>
        <time>2014-01-11T11:19:30.000Z</time>
      </trkpt>
      <trkpt lat="45.17816" lon="6.36603">
        <ele>2484.6000976562</ele>
        <time>2014-01-11T11:19:31.000Z</time>
      </trkpt>
      <trkpt lat="45.17815" lon="6.36603">
        <ele>2484.8000488281</ele>
        <time>2014-01-11T11:19:32.000Z</time>
      </trkpt>
      <trkpt lat="45.17815" lon="6.36603">
        <ele>2485</ele>
        <time>2014-01-11T11:19:33.000Z</time>
      </trkpt>
      <trkpt lat="45.17815" lon="6.36604">
        <ele>2485</ele>
        <time>2014-01-11T11:19:34.000Z</time>
      </trkpt>
      <trkpt lat="45.17814" lon="6.36604">
        <ele>2485.1999511719</ele>
        <time>2014-01-11T11:19:35.000Z</time>
      </trkpt>
      <trkpt lat="45.17813" lon="6.36605">
        <ele>2485.3999023438</ele>
        <time>2014-01-11T11:19:36.000Z</time>
      </trkpt>
      <trkpt lat="45.17813" lon="6.36606">
        <ele>2485.3999023438</ele>
        <time>2014-01-11T11:19:37.000Z</time>
      </trkpt>
      <trkpt lat="45.17813" lon="6.36606">
        <ele>2485.6000976562</ele>
        <time>2014-01-11T11:19:38.000Z</time>
      </trkpt>
      <trkpt lat="45.17812" lon="6.36606">
        <ele>2485.6000976562</ele>
        <time>2014-01-11T11:19:39.000Z</time>
      </trkpt>
      <trkpt lat="45.17812" lon="6.36606">
        <ele>2485.8000488281</ele>
        <time>2014-01-11T11:19:40.000Z</time>
      </trkpt>
      <trkpt lat="45.17812" lon="6.36606">
        <ele>2486</ele>
        <time>2014-01-11T11:19:41.000Z</time>
      </trkpt>
      <trkpt lat="45.17812" lon="6.36606">
        <ele>2486</ele>
        <time>2014-01-11T11:19:42.000Z</time>
      </trkpt>
      <trkpt lat="45.17812" lon="6.36606">
        <ele>2486.1999511719</ele>
        <time>2014-01-11T11:19:43.000Z</time>
      </trkpt>
      <trkpt lat="45.17812" lon="6.36606">
        <ele>2486.1999511719</ele>
        <time>2014-01-11T11:19:44.000Z</time>
      </trkpt>
      <trkpt lat="45.17811" lon="6.36605">
        <ele>2486.3999023438</ele>
        <time>2014-01-11T11:19:45.000Z</time>
      </trkpt>
      <trkpt lat="45.17811" lon="6.36605">
        <ele>2486.3999023438</ele>
        <time>2014-01-11T11:19:46.000Z</time>
      </trkpt>
      <trkpt lat="45.17811" lon="6.36605">
        <ele>2486.6000976562</ele>
        <time>2014-01-11T11:19:47.000Z</time>
      </trkpt>
      <trkpt lat="45.17811" lon="6.36605">
        <ele>2486.6000976562</ele>
        <time>2014-01-11T11:19:48.000Z</time>
      </trkpt>
      <trkpt lat="45.17811" lon="6.36605">
        <ele>2486.8000488281</ele>
        <time>2014-01-11T11:19:49.000Z</time>
      </trkpt>
      <trkpt lat="45.17811" lon="6.36604">
        <ele>2486.8000488281</ele>
        <time>2014-01-11T11:19:50.000Z</time>
      </trkpt>
      <trkpt lat="45.17811" lon="6.36604">
        <ele>2486.8000488281</ele>
        <time>2014-01-11T11:19:51.000Z</time>
      </trkpt>
      <trkpt lat="45.17811" lon="6.36604">
        <ele>2486.8000488281</ele>
        <time>2014-01-11T11:19:52.000Z</time>
      </trkpt>
      <trkpt lat="45.17811" lon="6.36603">
        <ele>2487</ele>
        <time>2014-01-11T11:19:53.000Z</time>
      </trkpt>
      <trkpt lat="45.17811" lon="6.36603">
        <ele>2487</ele>
        <time>2014-01-11T11:19:54.000Z</time>
      </trkpt>
      <trkpt lat="45.17811" lon="6.36603">
        <ele>2487</ele>
        <time>2014-01-11T11:19:55.000Z</time>
      </trkpt>
      <trkpt lat="45.17812" lon="6.36603">
        <ele>2487.1999511719</ele>
        <time>2014-01-11T11:19:56.000Z</time>
      </trkpt>
      <trkpt lat="45.17812" lon="6.36603">
        <ele>2487.3999023438</ele>
        <time>2014-01-11T11:19:57.000Z</time>
      </trkpt>
      <trkpt lat="45.17812" lon="6.36603">
        <ele>2487.6000976562</ele>
        <time>2014-01-11T11:19:58.000Z</time>
      </trkpt>
      <trkpt lat="45.17812" lon="6.36603">
        <ele>2487.6000976562</ele>
        <time>2014-01-11T11:19:59.000Z</time>
      </trkpt>
      <trkpt lat="45.17812" lon="6.36604">
        <ele>2487.6000976562</ele>
        <time>2014-01-11T11:20:00.000Z</time>
      </trkpt>
      <trkpt lat="45.17812" lon="6.36604">
        <ele>2487.8000488281</ele>
        <time>2014-01-11T11:20:01.000Z</time>
      </trkpt>
      <trkpt lat="45.17812" lon="6.36604">
        <ele>2488</ele>
        <time>2014-01-11T11:20:02.000Z</time>
      </trkpt>
      <trkpt lat="45.17812" lon="6.36604">
        <ele>2488.1999511719</ele>
        <time>2014-01-11T11:20:03.000Z</time>
      </trkpt>
      <trkpt lat="45.17813" lon="6.36604">
        <ele>2488.1999511719</ele>
        <time>2014-01-11T11:20:04.000Z</time>
      </trkpt>
      <trkpt lat="45.17813" lon="6.36605">
        <ele>2488.3999023438</ele>
        <time>2014-01-11T11:20:05.000Z</time>
      </trkpt>
      <trkpt lat="45.17814" lon="6.36605">
        <ele>2488.6000976562</ele>
        <time>2014-01-11T11:20:06.000Z</time>
      </trkpt>
      <trkpt lat="45.17814" lon="6.36605">
        <ele>2488.6000976562</ele>
        <time>2014-01-11T11:20:07.000Z</time>
      </trkpt>
      <trkpt lat="45.17815" lon="6.36606">
        <ele>2488.8000488281</ele>
        <time>2014-01-11T11:20:08.000Z</time>
      </trkpt>
      <trkpt lat="45.17815" lon="6.36606">
        <ele>2488.8000488281</ele>
        <time>2014-01-11T11:20:09.000Z</time>
      </trkpt>
      <trkpt lat="45.17815" lon="6.36607">
        <ele>2489</ele>
        <time>2014-01-11T11:20:10.000Z</time>
      </trkpt>
      <trkpt lat="45.17816" lon="6.36607">
        <ele>2489.1999511719</ele>
        <time>2014-01-11T11:20:11.000Z</time>
      </trkpt>
      <trkpt lat="45.17816" lon="6.36608">
        <ele>2489.3999023438</ele>
        <time>2014-01-11T11:20:12.000Z</time>
      </trkpt>
      <trkpt lat="45.17817" lon="6.36608">
        <ele>2489.6000976562</ele>
        <time>2014-01-11T11:20:13.000Z</time>
      </trkpt>
      <trkpt lat="45.17817" lon="6.36608">
        <ele>2489.8000488281</ele>
        <time>2014-01-11T11:20:14.000Z</time>
      </trkpt>
      <trkpt lat="45.17817" lon="6.36608">
        <ele>2490</ele>
        <time>2014-01-11T11:20:15.000Z</time>
      </trkpt>
      <trkpt lat="45.17818" lon="6.36609">
        <ele>2490.1999511719</ele>
        <time>2014-01-11T11:20:16.000Z</time>
      </trkpt>
      <trkpt lat="45.17818" lon="6.36609">
        <ele>2490.1999511719</ele>
        <time>2014-01-11T11:20:17.000Z</time>
      </trkpt>
      <trkpt lat="45.17818" lon="6.36609">
        <ele>2490.3999023438</ele>
        <time>2014-01-11T11:20:18.000Z</time>
      </trkpt>
      <trkpt lat="45.17818" lon="6.36609">
        <ele>2490.3999023438</ele>
        <time>2014-01-11T11:20:19.000Z</time>
      </trkpt>
      <trkpt lat="45.17818" lon="6.36609">
        <ele>2490.6000976562</ele>
        <time>2014-01-11T11:20:20.000Z</time>
      </trkpt>
      <trkpt lat="45.17818" lon="6.3661">
        <ele>2490.8000488281</ele>
        <time>2014-01-11T11:20:21.000Z</time>
      </trkpt>
      <trkpt lat="45.17819" lon="6.3661">
        <ele>2491</ele>
        <time>2014-01-11T11:20:22.000Z</time>
      </trkpt>
      <trkpt lat="45.17819" lon="6.36611">
        <ele>2491.1999511719</ele>
        <time>2014-01-11T11:20:23.000Z</time>
      </trkpt>
      <trkpt lat="45.17819" lon="6.36611">
        <ele>2491.3999023438</ele>
        <time>2014-01-11T11:20:24.000Z</time>
      </trkpt>
      <trkpt lat="45.1782" lon="6.36611">
        <ele>2491.3999023438</ele>
        <time>2014-01-11T11:20:25.000Z</time>
      </trkpt>
      <trkpt lat="45.1782" lon="6.36612">
        <ele>2491.6000976562</ele>
        <time>2014-01-11T11:20:26.000Z</time>
      </trkpt>
      <trkpt lat="45.1782" lon="6.36612">
        <ele>2491.8000488281</ele>
        <time>2014-01-11T11:20:27.000Z</time>
      </trkpt>
      <trkpt lat="45.17821" lon="6.36613">
        <ele>2491.8000488281</ele>
        <time>2014-01-11T11:20:28.000Z</time>
      </trkpt>
      <trkpt lat="45.17821" lon="6.36613">
        <ele>2492</ele>
        <time>2014-01-11T11:20:29.000Z</time>
      </trkpt>
      <trkpt lat="45.17821" lon="6.36613">
        <ele>2492.1999511719</ele>
        <time>2014-01-11T11:20:30.000Z</time>
      </trkpt>
      <trkpt lat="45.17822" lon="6.36613">
        <ele>2492.1999511719</ele>
        <time>2014-01-11T11:20:31.000Z</time>
      </trkpt>
      <trkpt lat="45.17822" lon="6.36614">
        <ele>2492.3999023438</ele>
        <time>2014-01-11T11:20:32.000Z</time>
      </trkpt>
      <trkpt lat="45.17823" lon="6.36614">
        <ele>2492.6000976562</ele>
        <time>2014-01-11T11:20:33.000Z</time>
      </trkpt>
      <trkpt lat="45.17823" lon="6.36614">
        <ele>2492.8000488281</ele>
        <time>2014-01-11T11:20:34.000Z</time>
      </trkpt>
      <trkpt lat="45.17823" lon="6.36614">
        <ele>2493</ele>
        <time>2014-01-11T11:20:35.000Z</time>
      </trkpt>
      <trkpt lat="45.17823" lon="6.36614">
        <ele>2493.1999511719</ele>
        <time>2014-01-11T11:20:36.000Z</time>
      </trkpt>
      <trkpt lat="45.17823" lon="6.36614">
        <ele>2493.3999023438</ele>
        <time>2014-01-11T11:20:37.000Z</time>
      </trkpt>
      <trkpt lat="45.17823" lon="6.36614">
        <ele>2493.3999023438</ele>
        <time>2014-01-11T11:20:38.000Z</time>
      </trkpt>
      <trkpt lat="45.17823" lon="6.36614">
        <ele>2493.6000976562</ele>
        <time>2014-01-11T11:20:39.000Z</time>
      </trkpt>
      <trkpt lat="45.17823" lon="6.36614">
        <ele>2493.8000488281</ele>
        <time>2014-01-11T11:20:40.000Z</time>
      </trkpt>
      <trkpt lat="45.17823" lon="6.36614">
        <ele>2494.1999511719</ele>
        <time>2014-01-11T11:20:41.000Z</time>
      </trkpt>
      <trkpt lat="45.17823" lon="6.36614">
        <ele>2494.1999511719</ele>
        <time>2014-01-11T11:20:42.000Z</time>
      </trkpt>
      <trkpt lat="45.17823" lon="6.36614">
        <ele>2494.3999023438</ele>
        <time>2014-01-11T11:20:43.000Z</time>
      </trkpt>
      <trkpt lat="45.17823" lon="6.36614">
        <ele>2494.1999511719</ele>
        <time>2014-01-11T11:20:44.000Z</time>
      </trkpt>
      <trkpt lat="45.17823" lon="6.36614">
        <ele>2494.1999511719</ele>
        <time>2014-01-11T11:20:45.000Z</time>
      </trkpt>
      <trkpt lat="45.17823" lon="6.36614">
        <ele>2494.1999511719</ele>
        <time>2014-01-11T11:20:46.000Z</time>
      </trkpt>
      <trkpt lat="45.17823" lon="6.36614">
        <ele>2494</ele>
        <time>2014-01-11T11:20:47.000Z</time>
      </trkpt>
      <trkpt lat="45.17823" lon="6.36614">
        <ele>2494</ele>
        <time>2014-01-11T11:20:48.000Z</time>
      </trkpt>
      <trkpt lat="45.17823" lon="6.36614">
        <ele>2494</ele>
        <time>2014-01-11T11:20:49.000Z</time>
      </trkpt>
      <trkpt lat="45.17822" lon="6.36615">
        <ele>2494</ele>
        <time>2014-01-11T11:20:53.000Z</time>
      </trkpt>
      <trkpt lat="45.17822" lon="6.36615">
        <ele>2494.1999511719</ele>
        <time>2014-01-11T11:20:54.000Z</time>
      </trkpt>
      <trkpt lat="45.17821" lon="6.36616">
        <ele>2494.1999511719</ele>
        <time>2014-01-11T11:20:55.000Z</time>
      </trkpt>
      <trkpt lat="45.17821" lon="6.36616">
        <ele>2494.3999023438</ele>
        <time>2014-01-11T11:20:56.000Z</time>
      </trkpt>
      <trkpt lat="45.17821" lon="6.36616">
        <ele>2494.6000976562</ele>
        <time>2014-01-11T11:20:57.000Z</time>
      </trkpt>
      <trkpt lat="45.1782" lon="6.36617">
        <ele>2494.8000488281</ele>
        <time>2014-01-11T11:20:58.000Z</time>
      </trkpt>
      <trkpt lat="45.1782" lon="6.36617">
        <ele>2494.8000488281</ele>
        <time>2014-01-11T11:20:59.000Z</time>
      </trkpt>
      <trkpt lat="45.1782" lon="6.36618">
        <ele>2495</ele>
        <time>2014-01-11T11:21:00.000Z</time>
      </trkpt>
      <trkpt lat="45.1782" lon="6.36618">
        <ele>2495.1999511719</ele>
        <time>2014-01-11T11:21:01.000Z</time>
      </trkpt>
      <trkpt lat="45.17819" lon="6.36618">
        <ele>2495.1999511719</ele>
        <time>2014-01-11T11:21:02.000Z</time>
      </trkpt>
      <trkpt lat="45.17818" lon="6.36619">
        <ele>2495.3999023438</ele>
        <time>2014-01-11T11:21:03.000Z</time>
      </trkpt>
      <trkpt lat="45.17818" lon="6.3662">
        <ele>2495.6000976562</ele>
        <time>2014-01-11T11:21:04.000Z</time>
      </trkpt>
      <trkpt lat="45.17817" lon="6.3662">
        <ele>2496</ele>
        <time>2014-01-11T11:21:05.000Z</time>
      </trkpt>
      <trkpt lat="45.17817" lon="6.36621">
        <ele>2496.1999511719</ele>
        <time>2014-01-11T11:21:06.000Z</time>
      </trkpt>
      <trkpt lat="45.17817" lon="6.36622">
        <ele>2496.3999023438</ele>
        <time>2014-01-11T11:21:07.000Z</time>
      </trkpt>
      <trkpt lat="45.17817" lon="6.36622">
        <ele>2496.6000976562</ele>
        <time>2014-01-11T11:21:08.000Z</time>
      </trkpt>
      <trkpt lat="45.17816" lon="6.36622">
        <ele>2496.6000976562</ele>
        <time>2014-01-11T11:21:09.000Z</time>
      </trkpt>
      <trkpt lat="45.17816" lon="6.36622">
        <ele>2496.8000488281</ele>
        <time>2014-01-11T11:21:10.000Z</time>
      </trkpt>
      <trkpt lat="45.17815" lon="6.36623">
        <ele>2496.8000488281</ele>
        <time>2014-01-11T11:21:11.000Z</time>
      </trkpt>
      <trkpt lat="45.17815" lon="6.36623">
        <ele>2497</ele>
        <time>2014-01-11T11:21:12.000Z</time>
      </trkpt>
      <trkpt lat="45.17814" lon="6.36624">
        <ele>2497.1999511719</ele>
        <time>2014-01-11T11:21:13.000Z</time>
      </trkpt>
      <trkpt lat="45.17814" lon="6.36624">
        <ele>2497.6000976562</ele>
        <time>2014-01-11T11:21:14.000Z</time>
      </trkpt>
      <trkpt lat="45.17813" lon="6.36625">
        <ele>2497.6000976562</ele>
        <time>2014-01-11T11:21:15.000Z</time>
      </trkpt>
      <trkpt lat="45.17813" lon="6.36625">
        <ele>2497.8000488281</ele>
        <time>2014-01-11T11:21:16.000Z</time>
      </trkpt>
      <trkpt lat="45.17812" lon="6.36626">
        <ele>2498</ele>
        <time>2014-01-11T11:21:17.000Z</time>
      </trkpt>
      <trkpt lat="45.17812" lon="6.36627">
        <ele>2498</ele>
        <time>2014-01-11T11:21:18.000Z</time>
      </trkpt>
      <trkpt lat="45.17811" lon="6.36627">
        <ele>2498.1999511719</ele>
        <time>2014-01-11T11:21:19.000Z</time>
      </trkpt>
      <trkpt lat="45.17811" lon="6.36627">
        <ele>2498.3999023438</ele>
        <time>2014-01-11T11:21:20.000Z</time>
      </trkpt>
      <trkpt lat="45.1781" lon="6.36627">
        <ele>2498.6000976562</ele>
        <time>2014-01-11T11:21:21.000Z</time>
      </trkpt>
      <trkpt lat="45.1781" lon="6.36627">
        <ele>2498.8000488281</ele>
        <time>2014-01-11T11:21:22.000Z</time>
      </trkpt>
      <trkpt lat="45.17808" lon="6.36627">
        <ele>2499</ele>
        <time>2014-01-11T11:21:23.000Z</time>
      </trkpt>
      <trkpt lat="45.17808" lon="6.36627">
        <ele>2499.1999511719</ele>
        <time>2014-01-11T11:21:24.000Z</time>
      </trkpt>
      <trkpt lat="45.17808" lon="6.36627">
        <ele>2499.1999511719</ele>
        <time>2014-01-11T11:21:25.000Z</time>
      </trkpt>
      <trkpt lat="45.17808" lon="6.36628">
        <ele>2499.3999023438</ele>
        <time>2014-01-11T11:21:26.000Z</time>
      </trkpt>
      <trkpt lat="45.17808" lon="6.36628">
        <ele>2499.6000976562</ele>
        <time>2014-01-11T11:21:27.000Z</time>
      </trkpt>
      <trkpt lat="45.17808" lon="6.36628">
        <ele>2499.8000488281</ele>
        <time>2014-01-11T11:21:28.000Z</time>
      </trkpt>
      <trkpt lat="45.17808" lon="6.36628">
        <ele>2500.1999511719</ele>
        <time>2014-01-11T11:21:29.000Z</time>
      </trkpt>
      <trkpt lat="45.17808" lon="6.36628">
        <ele>2500.3999023438</ele>
        <time>2014-01-11T11:21:30.000Z</time>
      </trkpt>
      <trkpt lat="45.17808" lon="6.36628">
        <ele>2500.6000976562</ele>
        <time>2014-01-11T11:21:31.000Z</time>
      </trkpt>
      <trkpt lat="45.17808" lon="6.36628">
        <ele>2500.6000976562</ele>
        <time>2014-01-11T11:21:32.000Z</time>
      </trkpt>
      <trkpt lat="45.17808" lon="6.36627">
        <ele>2500.6000976562</ele>
        <time>2014-01-11T11:21:33.000Z</time>
      </trkpt>
      <trkpt lat="45.17808" lon="6.36627">
        <ele>2500.8000488281</ele>
        <time>2014-01-11T11:21:34.000Z</time>
      </trkpt>
      <trkpt lat="45.17808" lon="6.36627">
        <ele>2500.8000488281</ele>
        <time>2014-01-11T11:21:35.000Z</time>
      </trkpt>
      <trkpt lat="45.17808" lon="6.36627">
        <ele>2500.8000488281</ele>
        <time>2014-01-11T11:21:36.000Z</time>
      </trkpt>
      <trkpt lat="45.17808" lon="6.36628">
        <ele>2500.8000488281</ele>
        <time>2014-01-11T11:21:37.000Z</time>
      </trkpt>
      <trkpt lat="45.17808" lon="6.36628">
        <ele>2501</ele>
        <time>2014-01-11T11:21:38.000Z</time>
      </trkpt>
      <trkpt lat="45.17808" lon="6.36629">
        <ele>2501.1999511719</ele>
        <time>2014-01-11T11:21:39.000Z</time>
      </trkpt>
      <trkpt lat="45.17808" lon="6.36629">
        <ele>2501.3999023438</ele>
        <time>2014-01-11T11:21:40.000Z</time>
      </trkpt>
      <trkpt lat="45.17808" lon="6.3663">
        <ele>2501.3999023438</ele>
        <time>2014-01-11T11:21:41.000Z</time>
      </trkpt>
      <trkpt lat="45.17808" lon="6.3663">
        <ele>2501.6000976562</ele>
        <time>2014-01-11T11:21:42.000Z</time>
      </trkpt>
      <trkpt lat="45.17809" lon="6.36631">
        <ele>2501.8000488281</ele>
        <time>2014-01-11T11:21:43.000Z</time>
      </trkpt>
      <trkpt lat="45.17809" lon="6.36632">
        <ele>2501.8000488281</ele>
        <time>2014-01-11T11:21:44.000Z</time>
      </trkpt>
      <trkpt lat="45.17809" lon="6.36633">
        <ele>2501.8000488281</ele>
        <time>2014-01-11T11:21:45.000Z</time>
      </trkpt>
      <trkpt lat="45.17809" lon="6.36633">
        <ele>2502</ele>
        <time>2014-01-11T11:21:46.000Z</time>
      </trkpt>
      <trkpt lat="45.17809" lon="6.36633">
        <ele>2502</ele>
        <time>2014-01-11T11:21:47.000Z</time>
      </trkpt>
      <trkpt lat="45.1781" lon="6.36633">
        <ele>2502.1999511719</ele>
        <time>2014-01-11T11:21:48.000Z</time>
      </trkpt>
      <trkpt lat="45.1781" lon="6.36634">
        <ele>2502.3999023438</ele>
        <time>2014-01-11T11:21:49.000Z</time>
      </trkpt>
      <trkpt lat="45.1781" lon="6.36634">
        <ele>2502.8000488281</ele>
        <time>2014-01-11T11:21:50.000Z</time>
      </trkpt>
      <trkpt lat="45.1781" lon="6.36635">
        <ele>2503</ele>
        <time>2014-01-11T11:21:51.000Z</time>
      </trkpt>
      <trkpt lat="45.17811" lon="6.36635">
        <ele>2503.1999511719</ele>
        <time>2014-01-11T11:21:52.000Z</time>
      </trkpt>
      <trkpt lat="45.17811" lon="6.36636">
        <ele>2503.3999023438</ele>
        <time>2014-01-11T11:21:53.000Z</time>
      </trkpt>
      <trkpt lat="45.17811" lon="6.36636">
        <ele>2503.6000976562</ele>
        <time>2014-01-11T11:21:54.000Z</time>
      </trkpt>
      <trkpt lat="45.17812" lon="6.36637">
        <ele>2503.8000488281</ele>
        <time>2014-01-11T11:21:55.000Z</time>
      </trkpt>
      <trkpt lat="45.17812" lon="6.36638">
        <ele>2504</ele>
        <time>2014-01-11T11:21:56.000Z</time>
      </trkpt>
      <trkpt lat="45.17812" lon="6.36638">
        <ele>2504.1999511719</ele>
        <time>2014-01-11T11:21:57.000Z</time>
      </trkpt>
      <trkpt lat="45.17812" lon="6.36638">
        <ele>2504.3999023438</ele>
        <time>2014-01-11T11:21:58.000Z</time>
      </trkpt>
      <trkpt lat="45.17812" lon="6.36639">
        <ele>2504.6000976562</ele>
        <time>2014-01-11T11:21:59.000Z</time>
      </trkpt>
      <trkpt lat="45.17813" lon="6.36639">
        <ele>2504.6000976562</ele>
        <time>2014-01-11T11:22:00.000Z</time>
      </trkpt>
      <trkpt lat="45.17813" lon="6.3664">
        <ele>2504.8000488281</ele>
        <time>2014-01-11T11:22:01.000Z</time>
      </trkpt>
      <trkpt lat="45.17813" lon="6.3664">
        <ele>2505</ele>
        <time>2014-01-11T11:22:02.000Z</time>
      </trkpt>
      <trkpt lat="45.17813" lon="6.3664">
        <ele>2505.1999511719</ele>
        <time>2014-01-11T11:22:03.000Z</time>
      </trkpt>
      <trkpt lat="45.17813" lon="6.36641">
        <ele>2505.3999023438</ele>
        <time>2014-01-11T11:22:04.000Z</time>
      </trkpt>
      <trkpt lat="45.17813" lon="6.36641">
        <ele>2505.8000488281</ele>
        <time>2014-01-11T11:22:05.000Z</time>
      </trkpt>
      <trkpt lat="45.17813" lon="6.36642">
        <ele>2505.8000488281</ele>
        <time>2014-01-11T11:22:06.000Z</time>
      </trkpt>
      <trkpt lat="45.17813" lon="6.36642">
        <ele>2506</ele>
        <time>2014-01-11T11:22:07.000Z</time>
      </trkpt>
      <trkpt lat="45.17813" lon="6.36642">
        <ele>2506.1999511719</ele>
        <time>2014-01-11T11:22:08.000Z</time>
      </trkpt>
      <trkpt lat="45.17814" lon="6.36643">
        <ele>2506.1999511719</ele>
        <time>2014-01-11T11:22:09.000Z</time>
      </trkpt>
      <trkpt lat="45.17814" lon="6.36643">
        <ele>2506.3999023438</ele>
        <time>2014-01-11T11:22:10.000Z</time>
      </trkpt>
      <trkpt lat="45.17814" lon="6.36644">
        <ele>2506.6000976562</ele>
        <time>2014-01-11T11:22:11.000Z</time>
      </trkpt>
      <trkpt lat="45.17815" lon="6.36644">
        <ele>2506.8000488281</ele>
        <time>2014-01-11T11:22:12.000Z</time>
      </trkpt>
      <trkpt lat="45.17815" lon="6.36645">
        <ele>2507</ele>
        <time>2014-01-11T11:22:13.000Z</time>
      </trkpt>
      <trkpt lat="45.17815" lon="6.36645">
        <ele>2507.1999511719</ele>
        <time>2014-01-11T11:22:14.000Z</time>
      </trkpt>
      <trkpt lat="45.17815" lon="6.36645">
        <ele>2507.1999511719</ele>
        <time>2014-01-11T11:22:15.000Z</time>
      </trkpt>
      <trkpt lat="45.17815" lon="6.36645">
        <ele>2507.3999023438</ele>
        <time>2014-01-11T11:22:16.000Z</time>
      </trkpt>
      <trkpt lat="45.17815" lon="6.36645">
        <ele>2507.6000976562</ele>
        <time>2014-01-11T11:22:17.000Z</time>
      </trkpt>
      <trkpt lat="45.17815" lon="6.36645">
        <ele>2507.8000488281</ele>
        <time>2014-01-11T11:22:18.000Z</time>
      </trkpt>
      <trkpt lat="45.17815" lon="6.36645">
        <ele>2508</ele>
        <time>2014-01-11T11:22:19.000Z</time>
      </trkpt>
      <trkpt lat="45.17815" lon="6.36645">
        <ele>2508</ele>
        <time>2014-01-11T11:22:20.000Z</time>
      </trkpt>
      <trkpt lat="45.17815" lon="6.36645">
        <ele>2508</ele>
        <time>2014-01-11T11:22:21.000Z</time>
      </trkpt>
      <trkpt lat="45.17815" lon="6.36645">
        <ele>2508</ele>
        <time>2014-01-11T11:22:22.000Z</time>
      </trkpt>
      <trkpt lat="45.17815" lon="6.36645">
        <ele>2508.1999511719</ele>
        <time>2014-01-11T11:22:23.000Z</time>
      </trkpt>
      <trkpt lat="45.17815" lon="6.36645">
        <ele>2508.1999511719</ele>
        <time>2014-01-11T11:22:24.000Z</time>
      </trkpt>
      <trkpt lat="45.17815" lon="6.36645">
        <ele>2508.1999511719</ele>
        <time>2014-01-11T11:22:25.000Z</time>
      </trkpt>
      <trkpt lat="45.17815" lon="6.36645">
        <ele>2508.1999511719</ele>
        <time>2014-01-11T11:22:26.000Z</time>
      </trkpt>
      <trkpt lat="45.17815" lon="6.36645">
        <ele>2508.3999023438</ele>
        <time>2014-01-11T11:22:27.000Z</time>
      </trkpt>
      <trkpt lat="45.17815" lon="6.36646">
        <ele>2508.3999023438</ele>
        <time>2014-01-11T11:22:28.000Z</time>
      </trkpt>
      <trkpt lat="45.17814" lon="6.36646">
        <ele>2508.3999023438</ele>
        <time>2014-01-11T11:22:29.000Z</time>
      </trkpt>
      <trkpt lat="45.17814" lon="6.36646">
        <ele>2508.3999023438</ele>
        <time>2014-01-11T11:22:30.000Z</time>
      </trkpt>
      <trkpt lat="45.17813" lon="6.36647">
        <ele>2508.6000976562</ele>
        <time>2014-01-11T11:22:31.000Z</time>
      </trkpt>
      <trkpt lat="45.17813" lon="6.36648">
        <ele>2508.8000488281</ele>
        <time>2014-01-11T11:22:32.000Z</time>
      </trkpt>
      <trkpt lat="45.17812" lon="6.36648">
        <ele>2508.8000488281</ele>
        <time>2014-01-11T11:22:33.000Z</time>
      </trkpt>
      <trkpt lat="45.17812" lon="6.36649">
        <ele>2509</ele>
        <time>2014-01-11T11:22:34.000Z</time>
      </trkpt>
      <trkpt lat="45.17811" lon="6.3665">
        <ele>2509.1999511719</ele>
        <time>2014-01-11T11:22:35.000Z</time>
      </trkpt>
      <trkpt lat="45.17811" lon="6.3665">
        <ele>2509.3999023438</ele>
        <time>2014-01-11T11:22:37.000Z</time>
      </trkpt>
      <trkpt lat="45.17811" lon="6.36651">
        <ele>2509.6000976562</ele>
        <time>2014-01-11T11:22:38.000Z</time>
      </trkpt>
      <trkpt lat="45.17811" lon="6.36652">
        <ele>2510</ele>
        <time>2014-01-11T11:22:39.000Z</time>
      </trkpt>
      <trkpt lat="45.1781" lon="6.36652">
        <ele>2510.1999511719</ele>
        <time>2014-01-11T11:22:40.000Z</time>
      </trkpt>
      <trkpt lat="45.1781" lon="6.36652">
        <ele>2510.6000976562</ele>
        <time>2014-01-11T11:22:41.000Z</time>
      </trkpt>
      <trkpt lat="45.1781" lon="6.36652">
        <ele>2510.6000976562</ele>
        <time>2014-01-11T11:22:42.000Z</time>
      </trkpt>
      <trkpt lat="45.17809" lon="6.36653">
        <ele>2510.8000488281</ele>
        <time>2014-01-11T11:22:43.000Z</time>
      </trkpt>
      <trkpt lat="45.17808" lon="6.36654">
        <ele>2511</ele>
        <time>2014-01-11T11:22:44.000Z</time>
      </trkpt>
      <trkpt lat="45.17808" lon="6.36654">
        <ele>2511</ele>
        <time>2014-01-11T11:22:45.000Z</time>
      </trkpt>
      <trkpt lat="45.17808" lon="6.36654">
        <ele>2511.1999511719</ele>
        <time>2014-01-11T11:22:46.000Z</time>
      </trkpt>
      <trkpt lat="45.17808" lon="6.36654">
        <ele>2511.3999023438</ele>
        <time>2014-01-11T11:22:47.000Z</time>
      </trkpt>
      <trkpt lat="45.17808" lon="6.36654">
        <ele>2511.8000488281</ele>
        <time>2014-01-11T11:22:48.000Z</time>
      </trkpt>
      <trkpt lat="45.17807" lon="6.36654">
        <ele>2512</ele>
        <time>2014-01-11T11:22:49.000Z</time>
      </trkpt>
      <trkpt lat="45.17807" lon="6.36654">
        <ele>2512</ele>
        <time>2014-01-11T11:22:50.000Z</time>
      </trkpt>
      <trkpt lat="45.17806" lon="6.36655">
        <ele>2512.1999511719</ele>
        <time>2014-01-11T11:22:51.000Z</time>
      </trkpt>
      <trkpt lat="45.17806" lon="6.36655">
        <ele>2512.1999511719</ele>
        <time>2014-01-11T11:22:52.000Z</time>
      </trkpt>
      <trkpt lat="45.17805" lon="6.36656">
        <ele>2512.3999023438</ele>
        <time>2014-01-11T11:22:53.000Z</time>
      </trkpt>
      <trkpt lat="45.17804" lon="6.36656">
        <ele>2512.6000976562</ele>
        <time>2014-01-11T11:22:54.000Z</time>
      </trkpt>
      <trkpt lat="45.17804" lon="6.36656">
        <ele>2512.8000488281</ele>
        <time>2014-01-11T11:22:55.000Z</time>
      </trkpt>
      <trkpt lat="45.17804" lon="6.36656">
        <ele>2513</ele>
        <time>2014-01-11T11:22:56.000Z</time>
      </trkpt>
      <trkpt lat="45.17804" lon="6.36656">
        <ele>2513.1999511719</ele>
        <time>2014-01-11T11:22:57.000Z</time>
      </trkpt>
      <trkpt lat="45.17804" lon="6.36656">
        <ele>2513.1999511719</ele>
        <time>2014-01-11T11:22:58.000Z</time>
      </trkpt>
      <trkpt lat="45.17804" lon="6.36656">
        <ele>2513.1999511719</ele>
        <time>2014-01-11T11:22:59.000Z</time>
      </trkpt>
      <trkpt lat="45.17804" lon="6.36655">
        <ele>2513.3999023438</ele>
        <time>2014-01-11T11:23:00.000Z</time>
      </trkpt>
      <trkpt lat="45.17804" lon="6.36655">
        <ele>2513.3999023438</ele>
        <time>2014-01-11T11:23:01.000Z</time>
      </trkpt>
      <trkpt lat="45.17804" lon="6.36655">
        <ele>2513.3999023438</ele>
        <time>2014-01-11T11:23:02.000Z</time>
      </trkpt>
      <trkpt lat="45.17804" lon="6.36655">
        <ele>2513.3999023438</ele>
        <time>2014-01-11T11:23:03.000Z</time>
      </trkpt>
      <trkpt lat="45.17804" lon="6.36655">
        <ele>2513.6000976562</ele>
        <time>2014-01-11T11:23:04.000Z</time>
      </trkpt>
      <trkpt lat="45.17804" lon="6.36655">
        <ele>2513.8000488281</ele>
        <time>2014-01-11T11:23:05.000Z</time>
      </trkpt>
      <trkpt lat="45.17804" lon="6.36655">
        <ele>2514</ele>
        <time>2014-01-11T11:23:06.000Z</time>
      </trkpt>
      <trkpt lat="45.17804" lon="6.36655">
        <ele>2514</ele>
        <time>2014-01-11T11:23:07.000Z</time>
      </trkpt>
      <trkpt lat="45.17804" lon="6.36655">
        <ele>2514.1999511719</ele>
        <time>2014-01-11T11:23:08.000Z</time>
      </trkpt>
      <trkpt lat="45.17805" lon="6.36656">
        <ele>2514.1999511719</ele>
        <time>2014-01-11T11:23:09.000Z</time>
      </trkpt>
      <trkpt lat="45.17805" lon="6.36656">
        <ele>2514.1999511719</ele>
        <time>2014-01-11T11:23:10.000Z</time>
      </trkpt>
      <trkpt lat="45.17805" lon="6.36656">
        <ele>2514.1999511719</ele>
        <time>2014-01-11T11:23:11.000Z</time>
      </trkpt>
      <trkpt lat="45.17805" lon="6.36657">
        <ele>2514.1999511719</ele>
        <time>2014-01-11T11:23:12.000Z</time>
      </trkpt>
      <trkpt lat="45.17806" lon="6.36657">
        <ele>2514.3999023438</ele>
        <time>2014-01-11T11:23:13.000Z</time>
      </trkpt>
      <trkpt lat="45.17807" lon="6.36657">
        <ele>2514.3999023438</ele>
        <time>2014-01-11T11:23:14.000Z</time>
      </trkpt>
      <trkpt lat="45.17807" lon="6.36657">
        <ele>2514.6000976562</ele>
        <time>2014-01-11T11:23:15.000Z</time>
      </trkpt>
      <trkpt lat="45.17808" lon="6.36658">
        <ele>2514.8000488281</ele>
        <time>2014-01-11T11:23:16.000Z</time>
      </trkpt>
      <trkpt lat="45.17809" lon="6.36658">
        <ele>2515</ele>
        <time>2014-01-11T11:23:17.000Z</time>
      </trkpt>
      <trkpt lat="45.1781" lon="6.36659">
        <ele>2515.1999511719</ele>
        <time>2014-01-11T11:23:18.000Z</time>
      </trkpt>
      <trkpt lat="45.1781" lon="6.36659">
        <ele>2515.1999511719</ele>
        <time>2014-01-11T11:23:19.000Z</time>
      </trkpt>
      <trkpt lat="45.17811" lon="6.3666">
        <ele>2515.3999023438</ele>
        <time>2014-01-11T11:23:20.000Z</time>
      </trkpt>
      <trkpt lat="45.17812" lon="6.3666">
        <ele>2515.3999023438</ele>
        <time>2014-01-11T11:23:21.000Z</time>
      </trkpt>
      <trkpt lat="45.17812" lon="6.3666">
        <ele>2515.6000976562</ele>
        <time>2014-01-11T11:23:22.000Z</time>
      </trkpt>
      <trkpt lat="45.17812" lon="6.3666">
        <ele>2515.6000976562</ele>
        <time>2014-01-11T11:23:23.000Z</time>
      </trkpt>
      <trkpt lat="45.17813" lon="6.36661">
        <ele>2515.8000488281</ele>
        <time>2014-01-11T11:23:24.000Z</time>
      </trkpt>
      <trkpt lat="45.17813" lon="6.36661">
        <ele>2516</ele>
        <time>2014-01-11T11:23:25.000Z</time>
      </trkpt>
      <trkpt lat="45.17813" lon="6.36662">
        <ele>2516.1999511719</ele>
        <time>2014-01-11T11:23:26.000Z</time>
      </trkpt>
      <trkpt lat="45.17814" lon="6.36663">
        <ele>2516.3999023438</ele>
        <time>2014-01-11T11:23:27.000Z</time>
      </trkpt>
      <trkpt lat="45.17814" lon="6.36663">
        <ele>2516.6000976562</ele>
        <time>2014-01-11T11:23:28.000Z</time>
      </trkpt>
      <trkpt lat="45.17814" lon="6.36663">
        <ele>2516.8000488281</ele>
        <time>2014-01-11T11:23:29.000Z</time>
      </trkpt>
      <trkpt lat="45.17814" lon="6.36664">
        <ele>2517</ele>
        <time>2014-01-11T11:23:30.000Z</time>
      </trkpt>
      <trkpt lat="45.17814" lon="6.36664">
        <ele>2517</ele>
        <time>2014-01-11T11:23:31.000Z</time>
      </trkpt>
      <trkpt lat="45.17814" lon="6.36665">
        <ele>2517</ele>
        <time>2014-01-11T11:23:32.000Z</time>
      </trkpt>
      <trkpt lat="45.17815" lon="6.36665">
        <ele>2517.1999511719</ele>
        <time>2014-01-11T11:23:33.000Z</time>
      </trkpt>
      <trkpt lat="45.17815" lon="6.36666">
        <ele>2517.3999023438</ele>
        <time>2014-01-11T11:23:34.000Z</time>
      </trkpt>
      <trkpt lat="45.17815" lon="6.36666">
        <ele>2517.6000976562</ele>
        <time>2014-01-11T11:23:35.000Z</time>
      </trkpt>
      <trkpt lat="45.17815" lon="6.36667">
        <ele>2517.8000488281</ele>
        <time>2014-01-11T11:23:36.000Z</time>
      </trkpt>
      <trkpt lat="45.17815" lon="6.36667">
        <ele>2518.1999511719</ele>
        <time>2014-01-11T11:23:37.000Z</time>
      </trkpt>
      <trkpt lat="45.17815" lon="6.36667">
        <ele>2518.3999023438</ele>
        <time>2014-01-11T11:23:38.000Z</time>
      </trkpt>
      <trkpt lat="45.17815" lon="6.36667">
        <ele>2518.3999023438</ele>
        <time>2014-01-11T11:23:39.000Z</time>
      </trkpt>
      <trkpt lat="45.17815" lon="6.36667">
        <ele>2518.6000976562</ele>
        <time>2014-01-11T11:23:40.000Z</time>
      </trkpt>
      <trkpt lat="45.17815" lon="6.36667">
        <ele>2518.6000976562</ele>
        <time>2014-01-11T11:23:41.000Z</time>
      </trkpt>
      <trkpt lat="45.17815" lon="6.36668">
        <ele>2518.8000488281</ele>
        <time>2014-01-11T11:23:42.000Z</time>
      </trkpt>
      <trkpt lat="45.17815" lon="6.36668">
        <ele>2519</ele>
        <time>2014-01-11T11:23:43.000Z</time>
      </trkpt>
      <trkpt lat="45.17814" lon="6.36668">
        <ele>2519.1999511719</ele>
        <time>2014-01-11T11:23:44.000Z</time>
      </trkpt>
      <trkpt lat="45.17814" lon="6.36668">
        <ele>2519.1999511719</ele>
        <time>2014-01-11T11:23:45.000Z</time>
      </trkpt>
      <trkpt lat="45.17814" lon="6.36669">
        <ele>2519.3999023438</ele>
        <time>2014-01-11T11:23:46.000Z</time>
      </trkpt>
      <trkpt lat="45.17814" lon="6.36669">
        <ele>2519.3999023438</ele>
        <time>2014-01-11T11:23:47.000Z</time>
      </trkpt>
      <trkpt lat="45.17813" lon="6.3667">
        <ele>2519.3999023438</ele>
        <time>2014-01-11T11:23:48.000Z</time>
      </trkpt>
      <trkpt lat="45.17812" lon="6.36671">
        <ele>2519.3999023438</ele>
        <time>2014-01-11T11:23:50.000Z</time>
      </trkpt>
      <trkpt lat="45.17812" lon="6.36672">
        <ele>2519.6000976562</ele>
        <time>2014-01-11T11:23:51.000Z</time>
      </trkpt>
      <trkpt lat="45.17811" lon="6.36672">
        <ele>2519.6000976562</ele>
        <time>2014-01-11T11:23:52.000Z</time>
      </trkpt>
      <trkpt lat="45.1781" lon="6.36673">
        <ele>2520</ele>
        <time>2014-01-11T11:23:53.000Z</time>
      </trkpt>
      <trkpt lat="45.1781" lon="6.36673">
        <ele>2520.1999511719</ele>
        <time>2014-01-11T11:23:54.000Z</time>
      </trkpt>
      <trkpt lat="45.1781" lon="6.36673">
        <ele>2520.1999511719</ele>
        <time>2014-01-11T11:23:55.000Z</time>
      </trkpt>
      <trkpt lat="45.17809" lon="6.36673">
        <ele>2520.1999511719</ele>
        <time>2014-01-11T11:23:56.000Z</time>
      </trkpt>
      <trkpt lat="45.17808" lon="6.36674">
        <ele>2520.3999023438</ele>
        <time>2014-01-11T11:23:57.000Z</time>
      </trkpt>
      <trkpt lat="45.17808" lon="6.36674">
        <ele>2520.6000976562</ele>
        <time>2014-01-11T11:23:58.000Z</time>
      </trkpt>
      <trkpt lat="45.17807" lon="6.36674">
        <ele>2520.8000488281</ele>
        <time>2014-01-11T11:23:59.000Z</time>
      </trkpt>
      <trkpt lat="45.17807" lon="6.36675">
        <ele>2521</ele>
        <time>2014-01-11T11:24:00.000Z</time>
      </trkpt>
      <trkpt lat="45.17806" lon="6.36675">
        <ele>2521.1999511719</ele>
        <time>2014-01-11T11:24:01.000Z</time>
      </trkpt>
      <trkpt lat="45.17806" lon="6.36675">
        <ele>2521.3999023438</ele>
        <time>2014-01-11T11:24:02.000Z</time>
      </trkpt>
      <trkpt lat="45.17805" lon="6.36676">
        <ele>2521.3999023438</ele>
        <time>2014-01-11T11:24:03.000Z</time>
      </trkpt>
      <trkpt lat="45.17805" lon="6.36676">
        <ele>2521.6000976562</ele>
        <time>2014-01-11T11:24:04.000Z</time>
      </trkpt>
      <trkpt lat="45.17805" lon="6.36676">
        <ele>2521.8000488281</ele>
        <time>2014-01-11T11:24:05.000Z</time>
      </trkpt>
      <trkpt lat="45.17805" lon="6.36677">
        <ele>2521.8000488281</ele>
        <time>2014-01-11T11:24:06.000Z</time>
      </trkpt>
      <trkpt lat="45.17805" lon="6.36677">
        <ele>2522</ele>
        <time>2014-01-11T11:24:07.000Z</time>
      </trkpt>
      <trkpt lat="45.17804" lon="6.36678">
        <ele>2522.1999511719</ele>
        <time>2014-01-11T11:24:08.000Z</time>
      </trkpt>
      <trkpt lat="45.17804" lon="6.36678">
        <ele>2522.3999023438</ele>
        <time>2014-01-11T11:24:09.000Z</time>
      </trkpt>
      <trkpt lat="45.17804" lon="6.36678">
        <ele>2522.3999023438</ele>
        <time>2014-01-11T11:24:10.000Z</time>
      </trkpt>
      <trkpt lat="45.17803" lon="6.36678">
        <ele>2522.6000976562</ele>
        <time>2014-01-11T11:24:11.000Z</time>
      </trkpt>
      <trkpt lat="45.17803" lon="6.36678">
        <ele>2522.8000488281</ele>
        <time>2014-01-11T11:24:12.000Z</time>
      </trkpt>
      <trkpt lat="45.17803" lon="6.36678">
        <ele>2523</ele>
        <time>2014-01-11T11:24:13.000Z</time>
      </trkpt>
      <trkpt lat="45.17803" lon="6.36678">
        <ele>2523</ele>
        <time>2014-01-11T11:24:14.000Z</time>
      </trkpt>
      <trkpt lat="45.17803" lon="6.36678">
        <ele>2523.1999511719</ele>
        <time>2014-01-11T11:24:15.000Z</time>
      </trkpt>
      <trkpt lat="45.17803" lon="6.36678">
        <ele>2523.1999511719</ele>
        <time>2014-01-11T11:24:16.000Z</time>
      </trkpt>
      <trkpt lat="45.17803" lon="6.36678">
        <ele>2523.3999023438</ele>
        <time>2014-01-11T11:24:17.000Z</time>
      </trkpt>
      <trkpt lat="45.17803" lon="6.36678">
        <ele>2523.3999023438</ele>
        <time>2014-01-11T11:24:18.000Z</time>
      </trkpt>
      <trkpt lat="45.17803" lon="6.36678">
        <ele>2523.1999511719</ele>
        <time>2014-01-11T11:24:19.000Z</time>
      </trkpt>
      <trkpt lat="45.17803" lon="6.36678">
        <ele>2523.1999511719</ele>
        <time>2014-01-11T11:24:20.000Z</time>
      </trkpt>
      <trkpt lat="45.17803" lon="6.36678">
        <ele>2523.1999511719</ele>
        <time>2014-01-11T11:24:21.000Z</time>
      </trkpt>
      <trkpt lat="45.17803" lon="6.36678">
        <ele>2523.1999511719</ele>
        <time>2014-01-11T11:24:22.000Z</time>
      </trkpt>
      <trkpt lat="45.17803" lon="6.36678">
        <ele>2523.1999511719</ele>
        <time>2014-01-11T11:24:23.000Z</time>
      </trkpt>
      <trkpt lat="45.17803" lon="6.36678">
        <ele>2523.1999511719</ele>
        <time>2014-01-11T11:24:24.000Z</time>
      </trkpt>
      <trkpt lat="45.17803" lon="6.36678">
        <ele>2523.3999023438</ele>
        <time>2014-01-11T11:24:25.000Z</time>
      </trkpt>
      <trkpt lat="45.17803" lon="6.36678">
        <ele>2523.3999023438</ele>
        <time>2014-01-11T11:24:26.000Z</time>
      </trkpt>
      <trkpt lat="45.17804" lon="6.36678">
        <ele>2523.6000976562</ele>
        <time>2014-01-11T11:24:27.000Z</time>
      </trkpt>
      <trkpt lat="45.17804" lon="6.36678">
        <ele>2523.8000488281</ele>
        <time>2014-01-11T11:24:28.000Z</time>
      </trkpt>
      <trkpt lat="45.17805" lon="6.36679">
        <ele>2524</ele>
        <time>2014-01-11T11:24:29.000Z</time>
      </trkpt>
      <trkpt lat="45.17805" lon="6.36679">
        <ele>2524</ele>
        <time>2014-01-11T11:24:30.000Z</time>
      </trkpt>
      <trkpt lat="45.17806" lon="6.36679">
        <ele>2524.1999511719</ele>
        <time>2014-01-11T11:24:31.000Z</time>
      </trkpt>
      <trkpt lat="45.17807" lon="6.3668">
        <ele>2524.1999511719</ele>
        <time>2014-01-11T11:24:32.000Z</time>
      </trkpt>
      <trkpt lat="45.17807" lon="6.3668">
        <ele>2524.3999023438</ele>
        <time>2014-01-11T11:24:33.000Z</time>
      </trkpt>
      <trkpt lat="45.17807" lon="6.36681">
        <ele>2524.3999023438</ele>
        <time>2014-01-11T11:24:34.000Z</time>
      </trkpt>
      <trkpt lat="45.17807" lon="6.36681">
        <ele>2524.6000976562</ele>
        <time>2014-01-11T11:24:35.000Z</time>
      </trkpt>
      <trkpt lat="45.17808" lon="6.36681">
        <ele>2524.6000976562</ele>
        <time>2014-01-11T11:24:36.000Z</time>
      </trkpt>
      <trkpt lat="45.17809" lon="6.36682">
        <ele>2524.8000488281</ele>
        <time>2014-01-11T11:24:37.000Z</time>
      </trkpt>
      <trkpt lat="45.17809" lon="6.36682">
        <ele>2525</ele>
        <time>2014-01-11T11:24:38.000Z</time>
      </trkpt>
      <trkpt lat="45.1781" lon="6.36682">
        <ele>2525.1999511719</ele>
        <time>2014-01-11T11:24:39.000Z</time>
      </trkpt>
      <trkpt lat="45.1781" lon="6.36682">
        <ele>2525.3999023438</ele>
        <time>2014-01-11T11:24:40.000Z</time>
      </trkpt>
      <trkpt lat="45.1781" lon="6.36682">
        <ele>2525.6000976562</ele>
        <time>2014-01-11T11:24:41.000Z</time>
      </trkpt>
      <trkpt lat="45.1781" lon="6.36683">
        <ele>2525.8000488281</ele>
        <time>2014-01-11T11:24:42.000Z</time>
      </trkpt>
      <trkpt lat="45.1781" lon="6.36683">
        <ele>2525.8000488281</ele>
        <time>2014-01-11T11:24:43.000Z</time>
      </trkpt>
      <trkpt lat="45.1781" lon="6.36683">
        <ele>2526</ele>
        <time>2014-01-11T11:24:44.000Z</time>
      </trkpt>
      <trkpt lat="45.1781" lon="6.36683">
        <ele>2526.1999511719</ele>
        <time>2014-01-11T11:24:45.000Z</time>
      </trkpt>
      <trkpt lat="45.1781" lon="6.36683">
        <ele>2526.1999511719</ele>
        <time>2014-01-11T11:24:46.000Z</time>
      </trkpt>
      <trkpt lat="45.1781" lon="6.36683">
        <ele>2526.3999023438</ele>
        <time>2014-01-11T11:24:47.000Z</time>
      </trkpt>
      <trkpt lat="45.17811" lon="6.36683">
        <ele>2526.6000976562</ele>
        <time>2014-01-11T11:24:48.000Z</time>
      </trkpt>
      <trkpt lat="45.17811" lon="6.36684">
        <ele>2526.6000976562</ele>
        <time>2014-01-11T11:24:49.000Z</time>
      </trkpt>
      <trkpt lat="45.17811" lon="6.36684">
        <ele>2526.8000488281</ele>
        <time>2014-01-11T11:24:50.000Z</time>
      </trkpt>
      <trkpt lat="45.17811" lon="6.36684">
        <ele>2526.8000488281</ele>
        <time>2014-01-11T11:24:51.000Z</time>
      </trkpt>
      <trkpt lat="45.17812" lon="6.36685">
        <ele>2527</ele>
        <time>2014-01-11T11:24:52.000Z</time>
      </trkpt>
      <trkpt lat="45.17812" lon="6.36685">
        <ele>2527.1999511719</ele>
        <time>2014-01-11T11:24:53.000Z</time>
      </trkpt>
      <trkpt lat="45.17812" lon="6.36685">
        <ele>2527.1999511719</ele>
        <time>2014-01-11T11:24:54.000Z</time>
      </trkpt>
      <trkpt lat="45.17813" lon="6.36686">
        <ele>2527.3999023438</ele>
        <time>2014-01-11T11:24:55.000Z</time>
      </trkpt>
      <trkpt lat="45.17814" lon="6.36687">
        <ele>2527.6000976562</ele>
        <time>2014-01-11T11:24:56.000Z</time>
      </trkpt>
      <trkpt lat="45.17814" lon="6.36687">
        <ele>2527.6000976562</ele>
        <time>2014-01-11T11:24:57.000Z</time>
      </trkpt>
      <trkpt lat="45.17814" lon="6.36687">
        <ele>2527.8000488281</ele>
        <time>2014-01-11T11:24:58.000Z</time>
      </trkpt>
      <trkpt lat="45.17814" lon="6.36687">
        <ele>2528</ele>
        <time>2014-01-11T11:24:59.000Z</time>
      </trkpt>
      <trkpt lat="45.17814" lon="6.36687">
        <ele>2528.1999511719</ele>
        <time>2014-01-11T11:25:00.000Z</time>
      </trkpt>
      <trkpt lat="45.17814" lon="6.36687">
        <ele>2528.3999023438</ele>
        <time>2014-01-11T11:25:01.000Z</time>
      </trkpt>
      <trkpt lat="45.17814" lon="6.36687">
        <ele>2528.3999023438</ele>
        <time>2014-01-11T11:25:02.000Z</time>
      </trkpt>
      <trkpt lat="45.17814" lon="6.36687">
        <ele>2528.6000976562</ele>
        <time>2014-01-11T11:25:03.000Z</time>
      </trkpt>
      <trkpt lat="45.17814" lon="6.36687">
        <ele>2528.6000976562</ele>
        <time>2014-01-11T11:25:04.000Z</time>
      </trkpt>
      <trkpt lat="45.17814" lon="6.36687">
        <ele>2528.8000488281</ele>
        <time>2014-01-11T11:25:05.000Z</time>
      </trkpt>
      <trkpt lat="45.17814" lon="6.36687">
        <ele>2529.1999511719</ele>
        <time>2014-01-11T11:25:06.000Z</time>
      </trkpt>
      <trkpt lat="45.17814" lon="6.36687">
        <ele>2529.1999511719</ele>
        <time>2014-01-11T11:25:07.000Z</time>
      </trkpt>
      <trkpt lat="45.17814" lon="6.36688">
        <ele>2529.1999511719</ele>
        <time>2014-01-11T11:25:08.000Z</time>
      </trkpt>
      <trkpt lat="45.17814" lon="6.36688">
        <ele>2529.1999511719</ele>
        <time>2014-01-11T11:25:09.000Z</time>
      </trkpt>
      <trkpt lat="45.17814" lon="6.36689">
        <ele>2529.1999511719</ele>
        <time>2014-01-11T11:25:10.000Z</time>
      </trkpt>
      <trkpt lat="45.17814" lon="6.3669">
        <ele>2529.1999511719</ele>
        <time>2014-01-11T11:25:11.000Z</time>
      </trkpt>
      <trkpt lat="45.17813" lon="6.36691">
        <ele>2529.3999023438</ele>
        <time>2014-01-11T11:25:12.000Z</time>
      </trkpt>
      <trkpt lat="45.17813" lon="6.36691">
        <ele>2529.3999023438</ele>
        <time>2014-01-11T11:25:13.000Z</time>
      </trkpt>
      <trkpt lat="45.17812" lon="6.36692">
        <ele>2529.6000976562</ele>
        <time>2014-01-11T11:25:14.000Z</time>
      </trkpt>
      <trkpt lat="45.17811" lon="6.36692">
        <ele>2529.8000488281</ele>
        <time>2014-01-11T11:25:15.000Z</time>
      </trkpt>
      <trkpt lat="45.17811" lon="6.36693">
        <ele>2529.8000488281</ele>
        <time>2014-01-11T11:25:16.000Z</time>
      </trkpt>
      <trkpt lat="45.17811" lon="6.36694">
        <ele>2530</ele>
        <time>2014-01-11T11:25:17.000Z</time>
      </trkpt>
      <trkpt lat="45.1781" lon="6.36695">
        <ele>2530.1999511719</ele>
        <time>2014-01-11T11:25:18.000Z</time>
      </trkpt>
      <trkpt lat="45.1781" lon="6.36696">
        <ele>2530.1999511719</ele>
        <time>2014-01-11T11:25:19.000Z</time>
      </trkpt>
      <trkpt lat="45.17809" lon="6.36697">
        <ele>2530.3999023438</ele>
        <time>2014-01-11T11:25:20.000Z</time>
      </trkpt>
      <trkpt lat="45.17809" lon="6.36697">
        <ele>2530.3999023438</ele>
        <time>2014-01-11T11:25:21.000Z</time>
      </trkpt>
      <trkpt lat="45.17809" lon="6.36698">
        <ele>2530.6000976562</ele>
        <time>2014-01-11T11:25:22.000Z</time>
      </trkpt>
      <trkpt lat="45.17808" lon="6.36699">
        <ele>2530.8000488281</ele>
        <time>2014-01-11T11:25:23.000Z</time>
      </trkpt>
      <trkpt lat="45.17808" lon="6.36699">
        <ele>2531</ele>
        <time>2014-01-11T11:25:24.000Z</time>
      </trkpt>
      <trkpt lat="45.17808" lon="6.367">
        <ele>2531.1999511719</ele>
        <time>2014-01-11T11:25:25.000Z</time>
      </trkpt>
      <trkpt lat="45.17806" lon="6.36701">
        <ele>2531.3999023438</ele>
        <time>2014-01-11T11:25:26.000Z</time>
      </trkpt>
      <trkpt lat="45.17806" lon="6.36702">
        <ele>2531.3999023438</ele>
        <time>2014-01-11T11:25:27.000Z</time>
      </trkpt>
      <trkpt lat="45.17805" lon="6.36703">
        <ele>2531.6000976562</ele>
        <time>2014-01-11T11:25:28.000Z</time>
      </trkpt>
      <trkpt lat="45.17805" lon="6.36704">
        <ele>2531.6000976562</ele>
        <time>2014-01-11T11:25:29.000Z</time>
      </trkpt>
      <trkpt lat="45.17804" lon="6.36705">
        <ele>2532</ele>
        <time>2014-01-11T11:25:30.000Z</time>
      </trkpt>
      <trkpt lat="45.17804" lon="6.36705">
        <ele>2532</ele>
        <time>2014-01-11T11:25:31.000Z</time>
      </trkpt>
      <trkpt lat="45.17803" lon="6.36706">
        <ele>2532.1999511719</ele>
        <time>2014-01-11T11:25:32.000Z</time>
      </trkpt>
      <trkpt lat="45.17803" lon="6.36707">
        <ele>2532.3999023438</ele>
        <time>2014-01-11T11:25:33.000Z</time>
      </trkpt>
      <trkpt lat="45.17802" lon="6.36707">
        <ele>2532.6000976562</ele>
        <time>2014-01-11T11:25:34.000Z</time>
      </trkpt>
      <trkpt lat="45.17802" lon="6.36707">
        <ele>2532.6000976562</ele>
        <time>2014-01-11T11:25:35.000Z</time>
      </trkpt>
      <trkpt lat="45.17801" lon="6.36707">
        <ele>2532.8000488281</ele>
        <time>2014-01-11T11:25:36.000Z</time>
      </trkpt>
      <trkpt lat="45.17801" lon="6.36707">
        <ele>2532.8000488281</ele>
        <time>2014-01-11T11:25:37.000Z</time>
      </trkpt>
      <trkpt lat="45.178" lon="6.36707">
        <ele>2533</ele>
        <time>2014-01-11T11:25:38.000Z</time>
      </trkpt>
      <trkpt lat="45.178" lon="6.36707">
        <ele>2533.1999511719</ele>
        <time>2014-01-11T11:25:39.000Z</time>
      </trkpt>
      <trkpt lat="45.178" lon="6.36706">
        <ele>2533.3999023438</ele>
        <time>2014-01-11T11:25:40.000Z</time>
      </trkpt>
      <trkpt lat="45.178" lon="6.36706">
        <ele>2533.6000976562</ele>
        <time>2014-01-11T11:25:41.000Z</time>
      </trkpt>
      <trkpt lat="45.178" lon="6.36706">
        <ele>2533.8000488281</ele>
        <time>2014-01-11T11:25:42.000Z</time>
      </trkpt>
      <trkpt lat="45.178" lon="6.36706">
        <ele>2533.8000488281</ele>
        <time>2014-01-11T11:25:43.000Z</time>
      </trkpt>
      <trkpt lat="45.178" lon="6.36706">
        <ele>2534</ele>
        <time>2014-01-11T11:25:44.000Z</time>
      </trkpt>
      <trkpt lat="45.178" lon="6.36706">
        <ele>2534.1999511719</ele>
        <time>2014-01-11T11:25:45.000Z</time>
      </trkpt>
      <trkpt lat="45.178" lon="6.36706">
        <ele>2534.1999511719</ele>
        <time>2014-01-11T11:25:46.000Z</time>
      </trkpt>
      <trkpt lat="45.178" lon="6.36706">
        <ele>2534.1999511719</ele>
        <time>2014-01-11T11:25:47.000Z</time>
      </trkpt>
      <trkpt lat="45.178" lon="6.36706">
        <ele>2534.3999023438</ele>
        <time>2014-01-11T11:25:48.000Z</time>
      </trkpt>
      <trkpt lat="45.178" lon="6.36706">
        <ele>2534.3999023438</ele>
        <time>2014-01-11T11:25:49.000Z</time>
      </trkpt>
      <trkpt lat="45.178" lon="6.36706">
        <ele>2534.1999511719</ele>
        <time>2014-01-11T11:25:51.000Z</time>
      </trkpt>
      <trkpt lat="45.178" lon="6.36706">
        <ele>2534.1999511719</ele>
        <time>2014-01-11T11:25:52.000Z</time>
      </trkpt>
      <trkpt lat="45.178" lon="6.36706">
        <ele>2534.1999511719</ele>
        <time>2014-01-11T11:25:53.000Z</time>
      </trkpt>
      <trkpt lat="45.178" lon="6.36706">
        <ele>2534.1999511719</ele>
        <time>2014-01-11T11:25:54.000Z</time>
      </trkpt>
      <trkpt lat="45.178" lon="6.36706">
        <ele>2534</ele>
        <time>2014-01-11T11:25:55.000Z</time>
      </trkpt>
      <trkpt lat="45.178" lon="6.36706">
        <ele>2534</ele>
        <time>2014-01-11T11:25:56.000Z</time>
      </trkpt>
      <trkpt lat="45.178" lon="6.36706">
        <ele>2534</ele>
        <time>2014-01-11T11:25:57.000Z</time>
      </trkpt>
      <trkpt lat="45.178" lon="6.36706">
        <ele>2534</ele>
        <time>2014-01-11T11:25:59.000Z</time>
      </trkpt>
      <trkpt lat="45.178" lon="6.36706">
        <ele>2534.1999511719</ele>
        <time>2014-01-11T11:26:00.000Z</time>
      </trkpt>
      <trkpt lat="45.178" lon="6.36706">
        <ele>2534.1999511719</ele>
        <time>2014-01-11T11:26:01.000Z</time>
      </trkpt>
      <trkpt lat="45.178" lon="6.36706">
        <ele>2534.1999511719</ele>
        <time>2014-01-11T11:26:02.000Z</time>
      </trkpt>
      <trkpt lat="45.178" lon="6.36706">
        <ele>2534.1999511719</ele>
        <time>2014-01-11T11:26:03.000Z</time>
      </trkpt>
      <trkpt lat="45.178" lon="6.36706">
        <ele>2534.3999023438</ele>
        <time>2014-01-11T11:26:04.000Z</time>
      </trkpt>
      <trkpt lat="45.178" lon="6.36706">
        <ele>2534.3999023438</ele>
        <time>2014-01-11T11:26:05.000Z</time>
      </trkpt>
      <trkpt lat="45.178" lon="6.36706">
        <ele>2534.6000976562</ele>
        <time>2014-01-11T11:26:06.000Z</time>
      </trkpt>
      <trkpt lat="45.178" lon="6.36706">
        <ele>2534.8000488281</ele>
        <time>2014-01-11T11:26:07.000Z</time>
      </trkpt>
      <trkpt lat="45.17801" lon="6.36706">
        <ele>2534.8000488281</ele>
        <time>2014-01-11T11:26:08.000Z</time>
      </trkpt>
      <trkpt lat="45.17802" lon="6.36706">
        <ele>2534.8000488281</ele>
        <time>2014-01-11T11:26:09.000Z</time>
      </trkpt>
      <trkpt lat="45.17802" lon="6.36705">
        <ele>2535</ele>
        <time>2014-01-11T11:26:10.000Z</time>
      </trkpt>
      <trkpt lat="45.17803" lon="6.36705">
        <ele>2535</ele>
        <time>2014-01-11T11:26:11.000Z</time>
      </trkpt>
      <trkpt lat="45.17803" lon="6.36705">
        <ele>2535</ele>
        <time>2014-01-11T11:26:12.000Z</time>
      </trkpt>
      <trkpt lat="45.17804" lon="6.36706">
        <ele>2535.1999511719</ele>
        <time>2014-01-11T11:26:13.000Z</time>
      </trkpt>
      <trkpt lat="45.17804" lon="6.36705">
        <ele>2535.3999023438</ele>
        <time>2014-01-11T11:26:14.000Z</time>
      </trkpt>
      <trkpt lat="45.17804" lon="6.36706">
        <ele>2535.6000976562</ele>
        <time>2014-01-11T11:26:15.000Z</time>
      </trkpt>
      <trkpt lat="45.17805" lon="6.36705">
        <ele>2535.8000488281</ele>
        <time>2014-01-11T11:26:16.000Z</time>
      </trkpt>
      <trkpt lat="45.17805" lon="6.36705">
        <ele>2536</ele>
        <time>2014-01-11T11:26:17.000Z</time>
      </trkpt>
      <trkpt lat="45.17806" lon="6.36706">
        <ele>2536.1999511719</ele>
        <time>2014-01-11T11:26:18.000Z</time>
      </trkpt>
      <trkpt lat="45.17806" lon="6.36706">
        <ele>2536.3999023438</ele>
        <time>2014-01-11T11:26:19.000Z</time>
      </trkpt>
      <trkpt lat="45.17807" lon="6.36706">
        <ele>2536.6000976562</ele>
        <time>2014-01-11T11:26:20.000Z</time>
      </trkpt>
      <trkpt lat="45.17807" lon="6.36706">
        <ele>2536.6000976562</ele>
        <time>2014-01-11T11:26:21.000Z</time>
      </trkpt>
      <trkpt lat="45.17808" lon="6.36707">
        <ele>2536.8000488281</ele>
        <time>2014-01-11T11:26:22.000Z</time>
      </trkpt>
      <trkpt lat="45.17808" lon="6.36707">
        <ele>2537</ele>
        <time>2014-01-11T11:26:23.000Z</time>
      </trkpt>
      <trkpt lat="45.17808" lon="6.36708">
        <ele>2537.1999511719</ele>
        <time>2014-01-11T11:26:24.000Z</time>
      </trkpt>
      <trkpt lat="45.17809" lon="6.36708">
        <ele>2537.1999511719</ele>
        <time>2014-01-11T11:26:25.000Z</time>
      </trkpt>
      <trkpt lat="45.17809" lon="6.36708">
        <ele>2537.3999023438</ele>
        <time>2014-01-11T11:26:26.000Z</time>
      </trkpt>
      <trkpt lat="45.17809" lon="6.3671">
        <ele>2537.6000976562</ele>
        <time>2014-01-11T11:26:27.000Z</time>
      </trkpt>
      <trkpt lat="45.1781" lon="6.3671">
        <ele>2537.6000976562</ele>
        <time>2014-01-11T11:26:28.000Z</time>
      </trkpt>
      <trkpt lat="45.1781" lon="6.36711">
        <ele>2537.8000488281</ele>
        <time>2014-01-11T11:26:29.000Z</time>
      </trkpt>
      <trkpt lat="45.17811" lon="6.36711">
        <ele>2538</ele>
        <time>2014-01-11T11:26:30.000Z</time>
      </trkpt>
      <trkpt lat="45.17811" lon="6.36711">
        <ele>2538.1999511719</ele>
        <time>2014-01-11T11:26:31.000Z</time>
      </trkpt>
      <trkpt lat="45.17812" lon="6.36711">
        <ele>2538.3999023438</ele>
        <time>2014-01-11T11:26:32.000Z</time>
      </trkpt>
      <trkpt lat="45.17812" lon="6.36711">
        <ele>2538.3999023438</ele>
        <time>2014-01-11T11:26:33.000Z</time>
      </trkpt>
      <trkpt lat="45.17812" lon="6.36711">
        <ele>2538.6000976562</ele>
        <time>2014-01-11T11:26:34.000Z</time>
      </trkpt>
      <trkpt lat="45.17812" lon="6.36711">
        <ele>2538.6000976562</ele>
        <time>2014-01-11T11:26:35.000Z</time>
      </trkpt>
      <trkpt lat="45.17812" lon="6.36711">
        <ele>2538.8000488281</ele>
        <time>2014-01-11T11:26:36.000Z</time>
      </trkpt>
      <trkpt lat="45.17812" lon="6.36711">
        <ele>2539</ele>
        <time>2014-01-11T11:26:37.000Z</time>
      </trkpt>
      <trkpt lat="45.17812" lon="6.36711">
        <ele>2539.3999023438</ele>
        <time>2014-01-11T11:26:38.000Z</time>
      </trkpt>
      <trkpt lat="45.17811" lon="6.36711">
        <ele>2539.6000976562</ele>
        <time>2014-01-11T11:26:40.000Z</time>
      </trkpt>
      <trkpt lat="45.1781" lon="6.36712">
        <ele>2539.6000976562</ele>
        <time>2014-01-11T11:26:41.000Z</time>
      </trkpt>
      <trkpt lat="45.1781" lon="6.36713">
        <ele>2539.6000976562</ele>
        <time>2014-01-11T11:26:42.000Z</time>
      </trkpt>
      <trkpt lat="45.17809" lon="6.36714">
        <ele>2539.6000976562</ele>
        <time>2014-01-11T11:26:43.000Z</time>
      </trkpt>
      <trkpt lat="45.17809" lon="6.36714">
        <ele>2539.8000488281</ele>
        <time>2014-01-11T11:26:44.000Z</time>
      </trkpt>
      <trkpt lat="45.17808" lon="6.36714">
        <ele>2539.8000488281</ele>
        <time>2014-01-11T11:26:45.000Z</time>
      </trkpt>
      <trkpt lat="45.17808" lon="6.36714">
        <ele>2540</ele>
        <time>2014-01-11T11:26:46.000Z</time>
      </trkpt>
      <trkpt lat="45.17807" lon="6.36715">
        <ele>2540.1999511719</ele>
        <time>2014-01-11T11:26:47.000Z</time>
      </trkpt>
      <trkpt lat="45.17806" lon="6.36715">
        <ele>2540.1999511719</ele>
        <time>2014-01-11T11:26:48.000Z</time>
      </trkpt>
      <trkpt lat="45.17806" lon="6.36715">
        <ele>2540.1999511719</ele>
        <time>2014-01-11T11:26:49.000Z</time>
      </trkpt>
      <trkpt lat="45.17806" lon="6.36715">
        <ele>2540.3999023438</ele>
        <time>2014-01-11T11:26:50.000Z</time>
      </trkpt>
      <trkpt lat="45.17806" lon="6.36715">
        <ele>2540.6000976562</ele>
        <time>2014-01-11T11:26:51.000Z</time>
      </trkpt>
      <trkpt lat="45.17805" lon="6.36715">
        <ele>2540.6000976562</ele>
        <time>2014-01-11T11:26:52.000Z</time>
      </trkpt>
      <trkpt lat="45.17805" lon="6.36715">
        <ele>2540.8000488281</ele>
        <time>2014-01-11T11:26:53.000Z</time>
      </trkpt>
      <trkpt lat="45.17805" lon="6.36715">
        <ele>2540.8000488281</ele>
        <time>2014-01-11T11:26:54.000Z</time>
      </trkpt>
      <trkpt lat="45.17804" lon="6.36716">
        <ele>2541</ele>
        <time>2014-01-11T11:26:55.000Z</time>
      </trkpt>
      <trkpt lat="45.17804" lon="6.36716">
        <ele>2541</ele>
        <time>2014-01-11T11:26:56.000Z</time>
      </trkpt>
      <trkpt lat="45.17804" lon="6.36716">
        <ele>2541.1999511719</ele>
        <time>2014-01-11T11:26:57.000Z</time>
      </trkpt>
      <trkpt lat="45.17803" lon="6.36716">
        <ele>2541.1999511719</ele>
        <time>2014-01-11T11:26:58.000Z</time>
      </trkpt>
      <trkpt lat="45.17802" lon="6.36716">
        <ele>2541.3999023438</ele>
        <time>2014-01-11T11:26:59.000Z</time>
      </trkpt>
      <trkpt lat="45.17802" lon="6.36716">
        <ele>2541.6000976562</ele>
        <time>2014-01-11T11:27:00.000Z</time>
      </trkpt>
      <trkpt lat="45.17801" lon="6.36716">
        <ele>2541.8000488281</ele>
        <time>2014-01-11T11:27:01.000Z</time>
      </trkpt>
      <trkpt lat="45.178" lon="6.36715">
        <ele>2541.8000488281</ele>
        <time>2014-01-11T11:27:02.000Z</time>
      </trkpt>
      <trkpt lat="45.178" lon="6.36715">
        <ele>2542</ele>
        <time>2014-01-11T11:27:03.000Z</time>
      </trkpt>
      <trkpt lat="45.178" lon="6.36715">
        <ele>2542</ele>
        <time>2014-01-11T11:27:04.000Z</time>
      </trkpt>
      <trkpt lat="45.17799" lon="6.36715">
        <ele>2542.1999511719</ele>
        <time>2014-01-11T11:27:05.000Z</time>
      </trkpt>
      <trkpt lat="45.17799" lon="6.36715">
        <ele>2542.3999023438</ele>
        <time>2014-01-11T11:27:06.000Z</time>
      </trkpt>
      <trkpt lat="45.17799" lon="6.36716">
        <ele>2542.3999023438</ele>
        <time>2014-01-11T11:27:07.000Z</time>
      </trkpt>
      <trkpt lat="45.17798" lon="6.36716">
        <ele>2542.6000976562</ele>
        <time>2014-01-11T11:27:08.000Z</time>
      </trkpt>
      <trkpt lat="45.17798" lon="6.36716">
        <ele>2542.8000488281</ele>
        <time>2014-01-11T11:27:09.000Z</time>
      </trkpt>
      <trkpt lat="45.17797" lon="6.36716">
        <ele>2543</ele>
        <time>2014-01-11T11:27:10.000Z</time>
      </trkpt>
      <trkpt lat="45.17797" lon="6.36716">
        <ele>2543.1999511719</ele>
        <time>2014-01-11T11:27:11.000Z</time>
      </trkpt>
      <trkpt lat="45.17796" lon="6.36716">
        <ele>2543.3999023438</ele>
        <time>2014-01-11T11:27:12.000Z</time>
      </trkpt>
      <trkpt lat="45.17796" lon="6.36716">
        <ele>2543.3999023438</ele>
        <time>2014-01-11T11:27:13.000Z</time>
      </trkpt>
      <trkpt lat="45.17795" lon="6.36716">
        <ele>2543.6000976562</ele>
        <time>2014-01-11T11:27:14.000Z</time>
      </trkpt>
      <trkpt lat="45.17795" lon="6.36716">
        <ele>2543.6000976562</ele>
        <time>2014-01-11T11:27:15.000Z</time>
      </trkpt>
      <trkpt lat="45.17795" lon="6.36716">
        <ele>2543.8000488281</ele>
        <time>2014-01-11T11:27:16.000Z</time>
      </trkpt>
      <trkpt lat="45.17794" lon="6.36716">
        <ele>2544</ele>
        <time>2014-01-11T11:27:17.000Z</time>
      </trkpt>
      <trkpt lat="45.17794" lon="6.36716">
        <ele>2544</ele>
        <time>2014-01-11T11:27:18.000Z</time>
      </trkpt>
      <trkpt lat="45.17794" lon="6.36716">
        <ele>2544.1999511719</ele>
        <time>2014-01-11T11:27:19.000Z</time>
      </trkpt>
      <trkpt lat="45.17794" lon="6.36716">
        <ele>2544.3999023438</ele>
        <time>2014-01-11T11:27:20.000Z</time>
      </trkpt>
      <trkpt lat="45.17794" lon="6.36716">
        <ele>2544.3999023438</ele>
        <time>2014-01-11T11:27:21.000Z</time>
      </trkpt>
      <trkpt lat="45.17794" lon="6.36716">
        <ele>2544.3999023438</ele>
        <time>2014-01-11T11:27:22.000Z</time>
      </trkpt>
      <trkpt lat="45.17794" lon="6.36716">
        <ele>2544.6000976562</ele>
        <time>2014-01-11T11:27:23.000Z</time>
      </trkpt>
      <trkpt lat="45.17794" lon="6.36716">
        <ele>2544.6000976562</ele>
        <time>2014-01-11T11:27:24.000Z</time>
      </trkpt>
      <trkpt lat="45.17794" lon="6.36716">
        <ele>2544.6000976562</ele>
        <time>2014-01-11T11:27:25.000Z</time>
      </trkpt>
      <trkpt lat="45.17794" lon="6.36716">
        <ele>2544.6000976562</ele>
        <time>2014-01-11T11:27:26.000Z</time>
      </trkpt>
      <trkpt lat="45.17794" lon="6.36716">
        <ele>2544.6000976562</ele>
        <time>2014-01-11T11:27:28.000Z</time>
      </trkpt>
      <trkpt lat="45.17794" lon="6.36716">
        <ele>2544.6000976562</ele>
        <time>2014-01-11T11:27:30.000Z</time>
      </trkpt>
      <trkpt lat="45.17794" lon="6.36716">
        <ele>2544.6000976562</ele>
        <time>2014-01-11T11:27:31.000Z</time>
      </trkpt>
      <trkpt lat="45.17794" lon="6.36716">
        <ele>2544.6000976562</ele>
        <time>2014-01-11T11:27:32.000Z</time>
      </trkpt>
      <trkpt lat="45.17794" lon="6.36716">
        <ele>2544.6000976562</ele>
        <time>2014-01-11T11:27:33.000Z</time>
      </trkpt>
      <trkpt lat="45.17794" lon="6.36716">
        <ele>2544.6000976562</ele>
        <time>2014-01-11T11:27:34.000Z</time>
      </trkpt>
      <trkpt lat="45.17793" lon="6.36717">
        <ele>2544.6000976562</ele>
        <time>2014-01-11T11:27:39.000Z</time>
      </trkpt>
      <trkpt lat="45.17793" lon="6.36717">
        <ele>2544.6000976562</ele>
        <time>2014-01-11T11:27:40.000Z</time>
      </trkpt>
      <trkpt lat="45.17792" lon="6.36717">
        <ele>2544.8000488281</ele>
        <time>2014-01-11T11:27:41.000Z</time>
      </trkpt>
      <trkpt lat="45.17792" lon="6.36717">
        <ele>2545</ele>
        <time>2014-01-11T11:27:42.000Z</time>
      </trkpt>
      <trkpt lat="45.17792" lon="6.36717">
        <ele>2545.1999511719</ele>
        <time>2014-01-11T11:27:43.000Z</time>
      </trkpt>
      <trkpt lat="45.17792" lon="6.36717">
        <ele>2545.3999023438</ele>
        <time>2014-01-11T11:27:44.000Z</time>
      </trkpt>
      <trkpt lat="45.17792" lon="6.36717">
        <ele>2545.6000976562</ele>
        <time>2014-01-11T11:27:45.000Z</time>
      </trkpt>
      <trkpt lat="45.17792" lon="6.36717">
        <ele>2545.8000488281</ele>
        <time>2014-01-11T11:27:46.000Z</time>
      </trkpt>
      <trkpt lat="45.17792" lon="6.36717">
        <ele>2545.8000488281</ele>
        <time>2014-01-11T11:27:47.000Z</time>
      </trkpt>
      <trkpt lat="45.17792" lon="6.36717">
        <ele>2546</ele>
        <time>2014-01-11T11:27:48.000Z</time>
      </trkpt>
      <trkpt lat="45.17792" lon="6.36717">
        <ele>2546</ele>
        <time>2014-01-11T11:27:49.000Z</time>
      </trkpt>
      <trkpt lat="45.17792" lon="6.36717">
        <ele>2546</ele>
        <time>2014-01-11T11:27:50.000Z</time>
      </trkpt>
      <trkpt lat="45.17792" lon="6.36718">
        <ele>2546</ele>
        <time>2014-01-11T11:27:51.000Z</time>
      </trkpt>
      <trkpt lat="45.17792" lon="6.36718">
        <ele>2546</ele>
        <time>2014-01-11T11:27:52.000Z</time>
      </trkpt>
      <trkpt lat="45.17792" lon="6.36719">
        <ele>2546.1999511719</ele>
        <time>2014-01-11T11:27:53.000Z</time>
      </trkpt>
      <trkpt lat="45.17792" lon="6.36719">
        <ele>2546.3999023438</ele>
        <time>2014-01-11T11:27:54.000Z</time>
      </trkpt>
      <trkpt lat="45.17792" lon="6.36719">
        <ele>2546.6000976562</ele>
        <time>2014-01-11T11:27:55.000Z</time>
      </trkpt>
      <trkpt lat="45.17792" lon="6.36719">
        <ele>2546.6000976562</ele>
        <time>2014-01-11T11:27:56.000Z</time>
      </trkpt>
      <trkpt lat="45.17793" lon="6.3672">
        <ele>2546.8000488281</ele>
        <time>2014-01-11T11:27:57.000Z</time>
      </trkpt>
      <trkpt lat="45.17793" lon="6.36721">
        <ele>2547</ele>
        <time>2014-01-11T11:27:58.000Z</time>
      </trkpt>
      <trkpt lat="45.17793" lon="6.36722">
        <ele>2547.1999511719</ele>
        <time>2014-01-11T11:27:59.000Z</time>
      </trkpt>
      <trkpt lat="45.17793" lon="6.36722">
        <ele>2547.1999511719</ele>
        <time>2014-01-11T11:28:00.000Z</time>
      </trkpt>
      <trkpt lat="45.17793" lon="6.36722">
        <ele>2547.3999023438</ele>
        <time>2014-01-11T11:28:01.000Z</time>
      </trkpt>
      <trkpt lat="45.17793" lon="6.36722">
        <ele>2547.3999023438</ele>
        <time>2014-01-11T11:28:02.000Z</time>
      </trkpt>
      <trkpt lat="45.17794" lon="6.36723">
        <ele>2547.6000976562</ele>
        <time>2014-01-11T11:28:03.000Z</time>
      </trkpt>
      <trkpt lat="45.17794" lon="6.36723">
        <ele>2547.8000488281</ele>
        <time>2014-01-11T11:28:04.000Z</time>
      </trkpt>
      <trkpt lat="45.17795" lon="6.36724">
        <ele>2548</ele>
        <time>2014-01-11T11:28:05.000Z</time>
      </trkpt>
      <trkpt lat="45.17795" lon="6.36724">
        <ele>2548.1999511719</ele>
        <time>2014-01-11T11:28:06.000Z</time>
      </trkpt>
      <trkpt lat="45.17795" lon="6.36725">
        <ele>2548.1999511719</ele>
        <time>2014-01-11T11:28:07.000Z</time>
      </trkpt>
      <trkpt lat="45.17795" lon="6.36725">
        <ele>2548.3999023438</ele>
        <time>2014-01-11T11:28:08.000Z</time>
      </trkpt>
      <trkpt lat="45.17796" lon="6.36725">
        <ele>2548.3999023438</ele>
        <time>2014-01-11T11:28:09.000Z</time>
      </trkpt>
      <trkpt lat="45.17796" lon="6.36725">
        <ele>2548.6000976562</ele>
        <time>2014-01-11T11:28:10.000Z</time>
      </trkpt>
      <trkpt lat="45.17796" lon="6.36725">
        <ele>2548.8000488281</ele>
        <time>2014-01-11T11:28:11.000Z</time>
      </trkpt>
      <trkpt lat="45.17796" lon="6.36726">
        <ele>2549</ele>
        <time>2014-01-11T11:28:13.000Z</time>
      </trkpt>
      <trkpt lat="45.17796" lon="6.36726">
        <ele>2549</ele>
        <time>2014-01-11T11:28:14.000Z</time>
      </trkpt>
      <trkpt lat="45.17796" lon="6.36726">
        <ele>2549.1999511719</ele>
        <time>2014-01-11T11:28:15.000Z</time>
      </trkpt>
      <trkpt lat="45.17797" lon="6.36726">
        <ele>2549.3999023438</ele>
        <time>2014-01-11T11:28:16.000Z</time>
      </trkpt>
      <trkpt lat="45.17797" lon="6.36727">
        <ele>2549.6000976562</ele>
        <time>2014-01-11T11:28:17.000Z</time>
      </trkpt>
      <trkpt lat="45.17797" lon="6.36727">
        <ele>2549.8000488281</ele>
        <time>2014-01-11T11:28:18.000Z</time>
      </trkpt>
      <trkpt lat="45.17798" lon="6.36728">
        <ele>2550</ele>
        <time>2014-01-11T11:28:19.000Z</time>
      </trkpt>
      <trkpt lat="45.17798" lon="6.36728">
        <ele>2550</ele>
        <time>2014-01-11T11:28:20.000Z</time>
      </trkpt>
      <trkpt lat="45.17799" lon="6.36729">
        <ele>2550.1999511719</ele>
        <time>2014-01-11T11:28:21.000Z</time>
      </trkpt>
      <trkpt lat="45.17799" lon="6.36729">
        <ele>2550.3999023438</ele>
        <time>2014-01-11T11:28:22.000Z</time>
      </trkpt>
      <trkpt lat="45.17799" lon="6.36729">
        <ele>2550.6000976562</ele>
        <time>2014-01-11T11:28:23.000Z</time>
      </trkpt>
      <trkpt lat="45.178" lon="6.36729">
        <ele>2550.8000488281</ele>
        <time>2014-01-11T11:28:24.000Z</time>
      </trkpt>
      <trkpt lat="45.178" lon="6.36729">
        <ele>2550.8000488281</ele>
        <time>2014-01-11T11:28:25.000Z</time>
      </trkpt>
      <trkpt lat="45.17801" lon="6.3673">
        <ele>2550.8000488281</ele>
        <time>2014-01-11T11:28:26.000Z</time>
      </trkpt>
      <trkpt lat="45.17801" lon="6.36731">
        <ele>2551</ele>
        <time>2014-01-11T11:28:27.000Z</time>
      </trkpt>
      <trkpt lat="45.17802" lon="6.36731">
        <ele>2551.1999511719</ele>
        <time>2014-01-11T11:28:28.000Z</time>
      </trkpt>
      <trkpt lat="45.17802" lon="6.36732">
        <ele>2551.3999023438</ele>
        <time>2014-01-11T11:28:29.000Z</time>
      </trkpt>
      <trkpt lat="45.17802" lon="6.36732">
        <ele>2551.6000976562</ele>
        <time>2014-01-11T11:28:30.000Z</time>
      </trkpt>
      <trkpt lat="45.17802" lon="6.36732">
        <ele>2551.6000976562</ele>
        <time>2014-01-11T11:28:31.000Z</time>
      </trkpt>
      <trkpt lat="45.17802" lon="6.36732">
        <ele>2551.8000488281</ele>
        <time>2014-01-11T11:28:32.000Z</time>
      </trkpt>
      <trkpt lat="45.17802" lon="6.36732">
        <ele>2551.8000488281</ele>
        <time>2014-01-11T11:28:33.000Z</time>
      </trkpt>
      <trkpt lat="45.17802" lon="6.36732">
        <ele>2552</ele>
        <time>2014-01-11T11:28:34.000Z</time>
      </trkpt>
      <trkpt lat="45.17802" lon="6.36732">
        <ele>2552.1999511719</ele>
        <time>2014-01-11T11:28:35.000Z</time>
      </trkpt>
      <trkpt lat="45.17802" lon="6.36732">
        <ele>2552.1999511719</ele>
        <time>2014-01-11T11:28:36.000Z</time>
      </trkpt>
      <trkpt lat="45.17802" lon="6.36732">
        <ele>2552.3999023438</ele>
        <time>2014-01-11T11:28:37.000Z</time>
      </trkpt>
      <trkpt lat="45.17802" lon="6.36732">
        <ele>2552.3999023438</ele>
        <time>2014-01-11T11:28:38.000Z</time>
      </trkpt>
      <trkpt lat="45.17802" lon="6.36732">
        <ele>2552.6000976562</ele>
        <time>2014-01-11T11:28:39.000Z</time>
      </trkpt>
      <trkpt lat="45.17802" lon="6.36732">
        <ele>2552.6000976562</ele>
        <time>2014-01-11T11:28:40.000Z</time>
      </trkpt>
      <trkpt lat="45.17802" lon="6.36732">
        <ele>2552.8000488281</ele>
        <time>2014-01-11T11:28:41.000Z</time>
      </trkpt>
      <trkpt lat="45.17802" lon="6.36732">
        <ele>2553</ele>
        <time>2014-01-11T11:28:42.000Z</time>
      </trkpt>
      <trkpt lat="45.17801" lon="6.36733">
        <ele>2553</ele>
        <time>2014-01-11T11:28:43.000Z</time>
      </trkpt>
      <trkpt lat="45.17801" lon="6.36733">
        <ele>2553.1999511719</ele>
        <time>2014-01-11T11:28:44.000Z</time>
      </trkpt>
      <trkpt lat="45.178" lon="6.36734">
        <ele>2553.1999511719</ele>
        <time>2014-01-11T11:28:45.000Z</time>
      </trkpt>
      <trkpt lat="45.178" lon="6.36734">
        <ele>2553.1999511719</ele>
        <time>2014-01-11T11:28:46.000Z</time>
      </trkpt>
      <trkpt lat="45.178" lon="6.36734">
        <ele>2553.3999023438</ele>
        <time>2014-01-11T11:28:47.000Z</time>
      </trkpt>
      <trkpt lat="45.178" lon="6.36734">
        <ele>2553.3999023438</ele>
        <time>2014-01-11T11:28:48.000Z</time>
      </trkpt>
      <trkpt lat="45.178" lon="6.36734">
        <ele>2553.6000976562</ele>
        <time>2014-01-11T11:28:49.000Z</time>
      </trkpt>
      <trkpt lat="45.178" lon="6.36734">
        <ele>2553.8000488281</ele>
        <time>2014-01-11T11:28:50.000Z</time>
      </trkpt>
      <trkpt lat="45.17799" lon="6.36735">
        <ele>2553.8000488281</ele>
        <time>2014-01-11T11:28:51.000Z</time>
      </trkpt>
      <trkpt lat="45.17799" lon="6.36735">
        <ele>2554</ele>
        <time>2014-01-11T11:28:52.000Z</time>
      </trkpt>
      <trkpt lat="45.17798" lon="6.36735">
        <ele>2554</ele>
        <time>2014-01-11T11:28:53.000Z</time>
      </trkpt>
      <trkpt lat="45.17798" lon="6.36735">
        <ele>2554.1999511719</ele>
        <time>2014-01-11T11:28:54.000Z</time>
      </trkpt>
      <trkpt lat="45.17798" lon="6.36735">
        <ele>2554.3999023438</ele>
        <time>2014-01-11T11:28:55.000Z</time>
      </trkpt>
      <trkpt lat="45.17797" lon="6.36736">
        <ele>2554.3999023438</ele>
        <time>2014-01-11T11:28:56.000Z</time>
      </trkpt>
      <trkpt lat="45.17797" lon="6.36736">
        <ele>2554.6000976562</ele>
        <time>2014-01-11T11:28:57.000Z</time>
      </trkpt>
      <trkpt lat="45.17797" lon="6.36736">
        <ele>2554.8000488281</ele>
        <time>2014-01-11T11:28:58.000Z</time>
      </trkpt>
      <trkpt lat="45.17796" lon="6.36737">
        <ele>2554.8000488281</ele>
        <time>2014-01-11T11:28:59.000Z</time>
      </trkpt>
      <trkpt lat="45.17796" lon="6.36737">
        <ele>2555</ele>
        <time>2014-01-11T11:29:00.000Z</time>
      </trkpt>
      <trkpt lat="45.17796" lon="6.36737">
        <ele>2555.1999511719</ele>
        <time>2014-01-11T11:29:01.000Z</time>
      </trkpt>
      <trkpt lat="45.17795" lon="6.36737">
        <ele>2555.3999023438</ele>
        <time>2014-01-11T11:29:02.000Z</time>
      </trkpt>
      <trkpt lat="45.17795" lon="6.36737">
        <ele>2555.6000976562</ele>
        <time>2014-01-11T11:29:03.000Z</time>
      </trkpt>
      <trkpt lat="45.17795" lon="6.36737">
        <ele>2555.6000976562</ele>
        <time>2014-01-11T11:29:04.000Z</time>
      </trkpt>
      <trkpt lat="45.17794" lon="6.36737">
        <ele>2555.8000488281</ele>
        <time>2014-01-11T11:29:05.000Z</time>
      </trkpt>
      <trkpt lat="45.17794" lon="6.36737">
        <ele>2556</ele>
        <time>2014-01-11T11:29:06.000Z</time>
      </trkpt>
      <trkpt lat="45.17794" lon="6.36738">
        <ele>2556.1999511719</ele>
        <time>2014-01-11T11:29:07.000Z</time>
      </trkpt>
      <trkpt lat="45.17793" lon="6.36738">
        <ele>2556.3999023438</ele>
        <time>2014-01-11T11:29:08.000Z</time>
      </trkpt>
      <trkpt lat="45.17793" lon="6.36738">
        <ele>2556.6000976562</ele>
        <time>2014-01-11T11:29:09.000Z</time>
      </trkpt>
      <trkpt lat="45.17792" lon="6.36738">
        <ele>2556.6000976562</ele>
        <time>2014-01-11T11:29:10.000Z</time>
      </trkpt>
      <trkpt lat="45.17792" lon="6.36738">
        <ele>2556.8000488281</ele>
        <time>2014-01-11T11:29:11.000Z</time>
      </trkpt>
      <trkpt lat="45.17792" lon="6.36738">
        <ele>2557</ele>
        <time>2014-01-11T11:29:12.000Z</time>
      </trkpt>
      <trkpt lat="45.17792" lon="6.36738">
        <ele>2557</ele>
        <time>2014-01-11T11:29:13.000Z</time>
      </trkpt>
      <trkpt lat="45.17792" lon="6.36738">
        <ele>2557.1999511719</ele>
        <time>2014-01-11T11:29:14.000Z</time>
      </trkpt>
      <trkpt lat="45.17791" lon="6.36738">
        <ele>2557.1999511719</ele>
        <time>2014-01-11T11:29:15.000Z</time>
      </trkpt>
      <trkpt lat="45.17791" lon="6.36739">
        <ele>2557.3999023438</ele>
        <time>2014-01-11T11:29:16.000Z</time>
      </trkpt>
      <trkpt lat="45.17791" lon="6.36739">
        <ele>2557.3999023438</ele>
        <time>2014-01-11T11:29:17.000Z</time>
      </trkpt>
      <trkpt lat="45.17791" lon="6.36739">
        <ele>2557.6000976562</ele>
        <time>2014-01-11T11:29:18.000Z</time>
      </trkpt>
      <trkpt lat="45.17791" lon="6.36739">
        <ele>2557.8000488281</ele>
        <time>2014-01-11T11:29:19.000Z</time>
      </trkpt>
      <trkpt lat="45.17791" lon="6.36739">
        <ele>2557.8000488281</ele>
        <time>2014-01-11T11:29:20.000Z</time>
      </trkpt>
      <trkpt lat="45.17791" lon="6.36739">
        <ele>2558</ele>
        <time>2014-01-11T11:29:21.000Z</time>
      </trkpt>
      <trkpt lat="45.17791" lon="6.36739">
        <ele>2558</ele>
        <time>2014-01-11T11:29:22.000Z</time>
      </trkpt>
      <trkpt lat="45.17791" lon="6.36739">
        <ele>2558</ele>
        <time>2014-01-11T11:29:23.000Z</time>
      </trkpt>
      <trkpt lat="45.17791" lon="6.36739">
        <ele>2558</ele>
        <time>2014-01-11T11:29:24.000Z</time>
      </trkpt>
      <trkpt lat="45.17791" lon="6.36739">
        <ele>2558</ele>
        <time>2014-01-11T11:29:25.000Z</time>
      </trkpt>
      <trkpt lat="45.17791" lon="6.36739">
        <ele>2558</ele>
        <time>2014-01-11T11:29:26.000Z</time>
      </trkpt>
      <trkpt lat="45.17791" lon="6.36739">
        <ele>2558</ele>
        <time>2014-01-11T11:29:27.000Z</time>
      </trkpt>
      <trkpt lat="45.17791" lon="6.36739">
        <ele>2558</ele>
        <time>2014-01-11T11:29:28.000Z</time>
      </trkpt>
      <trkpt lat="45.1779" lon="6.36739">
        <ele>2558</ele>
        <time>2014-01-11T11:29:29.000Z</time>
      </trkpt>
      <trkpt lat="45.1779" lon="6.36739">
        <ele>2558</ele>
        <time>2014-01-11T11:29:31.000Z</time>
      </trkpt>
      <trkpt lat="45.17789" lon="6.36739">
        <ele>2558.1999511719</ele>
        <time>2014-01-11T11:29:32.000Z</time>
      </trkpt>
      <trkpt lat="45.17789" lon="6.36739">
        <ele>2558.3999023438</ele>
        <time>2014-01-11T11:29:33.000Z</time>
      </trkpt>
      <trkpt lat="45.17789" lon="6.36739">
        <ele>2558.6000976562</ele>
        <time>2014-01-11T11:29:34.000Z</time>
      </trkpt>
      <trkpt lat="45.17789" lon="6.36739">
        <ele>2558.6000976562</ele>
        <time>2014-01-11T11:29:35.000Z</time>
      </trkpt>
      <trkpt lat="45.17789" lon="6.36739">
        <ele>2558.8000488281</ele>
        <time>2014-01-11T11:29:36.000Z</time>
      </trkpt>
      <trkpt lat="45.17789" lon="6.36739">
        <ele>2558.8000488281</ele>
        <time>2014-01-11T11:29:37.000Z</time>
      </trkpt>
      <trkpt lat="45.17789" lon="6.36739">
        <ele>2558.8000488281</ele>
        <time>2014-01-11T11:29:38.000Z</time>
      </trkpt>
      <trkpt lat="45.17789" lon="6.36739">
        <ele>2558.8000488281</ele>
        <time>2014-01-11T11:29:39.000Z</time>
      </trkpt>
      <trkpt lat="45.17789" lon="6.36739">
        <ele>2559</ele>
        <time>2014-01-11T11:29:40.000Z</time>
      </trkpt>
      <trkpt lat="45.17789" lon="6.3674">
        <ele>2559</ele>
        <time>2014-01-11T11:29:41.000Z</time>
      </trkpt>
      <trkpt lat="45.17789" lon="6.3674">
        <ele>2559</ele>
        <time>2014-01-11T11:29:42.000Z</time>
      </trkpt>
      <trkpt lat="45.17789" lon="6.3674">
        <ele>2559</ele>
        <time>2014-01-11T11:29:43.000Z</time>
      </trkpt>
      <trkpt lat="45.17789" lon="6.3674">
        <ele>2559.1999511719</ele>
        <time>2014-01-11T11:29:44.000Z</time>
      </trkpt>
      <trkpt lat="45.17789" lon="6.3674">
        <ele>2559.3999023438</ele>
        <time>2014-01-11T11:29:45.000Z</time>
      </trkpt>
      <trkpt lat="45.17789" lon="6.3674">
        <ele>2559.6000976562</ele>
        <time>2014-01-11T11:29:46.000Z</time>
      </trkpt>
      <trkpt lat="45.1779" lon="6.36741">
        <ele>2559.6000976562</ele>
        <time>2014-01-11T11:29:47.000Z</time>
      </trkpt>
      <trkpt lat="45.1779" lon="6.36741">
        <ele>2559.6000976562</ele>
        <time>2014-01-11T11:29:48.000Z</time>
      </trkpt>
      <trkpt lat="45.1779" lon="6.36741">
        <ele>2559.8000488281</ele>
        <time>2014-01-11T11:29:49.000Z</time>
      </trkpt>
      <trkpt lat="45.1779" lon="6.36741">
        <ele>2560</ele>
        <time>2014-01-11T11:29:50.000Z</time>
      </trkpt>
      <trkpt lat="45.1779" lon="6.36742">
        <ele>2560.1999511719</ele>
        <time>2014-01-11T11:29:51.000Z</time>
      </trkpt>
      <trkpt lat="45.17791" lon="6.36743">
        <ele>2560.3999023438</ele>
        <time>2014-01-11T11:29:52.000Z</time>
      </trkpt>
      <trkpt lat="45.17791" lon="6.36743">
        <ele>2560.3999023438</ele>
        <time>2014-01-11T11:29:53.000Z</time>
      </trkpt>
      <trkpt lat="45.17791" lon="6.36743">
        <ele>2560.6000976562</ele>
        <time>2014-01-11T11:29:54.000Z</time>
      </trkpt>
      <trkpt lat="45.17792" lon="6.36744">
        <ele>2560.8000488281</ele>
        <time>2014-01-11T11:29:55.000Z</time>
      </trkpt>
      <trkpt lat="45.17792" lon="6.36744">
        <ele>2560.8000488281</ele>
        <time>2014-01-11T11:29:56.000Z</time>
      </trkpt>
      <trkpt lat="45.17792" lon="6.36744">
        <ele>2561</ele>
        <time>2014-01-11T11:29:57.000Z</time>
      </trkpt>
      <trkpt lat="45.17792" lon="6.36744">
        <ele>2561.1999511719</ele>
        <time>2014-01-11T11:29:58.000Z</time>
      </trkpt>
      <trkpt lat="45.17792" lon="6.36744">
        <ele>2561.1999511719</ele>
        <time>2014-01-11T11:29:59.000Z</time>
      </trkpt>
      <trkpt lat="45.17792" lon="6.36745">
        <ele>2561.3999023438</ele>
        <time>2014-01-11T11:30:00.000Z</time>
      </trkpt>
      <trkpt lat="45.17793" lon="6.36745">
        <ele>2561.3999023438</ele>
        <time>2014-01-11T11:30:01.000Z</time>
      </trkpt>
      <trkpt lat="45.17793" lon="6.36746">
        <ele>2561.6000976562</ele>
        <time>2014-01-11T11:30:02.000Z</time>
      </trkpt>
      <trkpt lat="45.17793" lon="6.36746">
        <ele>2561.8000488281</ele>
        <time>2014-01-11T11:30:03.000Z</time>
      </trkpt>
      <trkpt lat="45.17794" lon="6.36747">
        <ele>2561.8000488281</ele>
        <time>2014-01-11T11:30:04.000Z</time>
      </trkpt>
      <trkpt lat="45.17794" lon="6.36747">
        <ele>2562</ele>
        <time>2014-01-11T11:30:05.000Z</time>
      </trkpt>
      <trkpt lat="45.17794" lon="6.36747">
        <ele>2562</ele>
        <time>2014-01-11T11:30:06.000Z</time>
      </trkpt>
      <trkpt lat="45.17795" lon="6.36748">
        <ele>2562.1999511719</ele>
        <time>2014-01-11T11:30:07.000Z</time>
      </trkpt>
      <trkpt lat="45.17795" lon="6.36748">
        <ele>2562.3999023438</ele>
        <time>2014-01-11T11:30:08.000Z</time>
      </trkpt>
      <trkpt lat="45.17795" lon="6.36748">
        <ele>2562.3999023438</ele>
        <time>2014-01-11T11:30:09.000Z</time>
      </trkpt>
      <trkpt lat="45.17795" lon="6.36749">
        <ele>2562.6000976562</ele>
        <time>2014-01-11T11:30:10.000Z</time>
      </trkpt>
      <trkpt lat="45.17795" lon="6.36749">
        <ele>2562.6000976562</ele>
        <time>2014-01-11T11:30:11.000Z</time>
      </trkpt>
      <trkpt lat="45.17796" lon="6.3675">
        <ele>2562.8000488281</ele>
        <time>2014-01-11T11:30:12.000Z</time>
      </trkpt>
      <trkpt lat="45.17796" lon="6.36751">
        <ele>2562.8000488281</ele>
        <time>2014-01-11T11:30:13.000Z</time>
      </trkpt>
      <trkpt lat="45.17796" lon="6.36751">
        <ele>2563</ele>
        <time>2014-01-11T11:30:14.000Z</time>
      </trkpt>
      <trkpt lat="45.17796" lon="6.36752">
        <ele>2563</ele>
        <time>2014-01-11T11:30:15.000Z</time>
      </trkpt>
      <trkpt lat="45.17796" lon="6.36752">
        <ele>2563.1999511719</ele>
        <time>2014-01-11T11:30:16.000Z</time>
      </trkpt>
      <trkpt lat="45.17797" lon="6.36753">
        <ele>2563.1999511719</ele>
        <time>2014-01-11T11:30:17.000Z</time>
      </trkpt>
      <trkpt lat="45.17797" lon="6.36754">
        <ele>2563.3999023438</ele>
        <time>2014-01-11T11:30:18.000Z</time>
      </trkpt>
      <trkpt lat="45.17797" lon="6.36754">
        <ele>2563.6000976562</ele>
        <time>2014-01-11T11:30:19.000Z</time>
      </trkpt>
      <trkpt lat="45.17798" lon="6.36754">
        <ele>2563.8000488281</ele>
        <time>2014-01-11T11:30:20.000Z</time>
      </trkpt>
      <trkpt lat="45.17798" lon="6.36754">
        <ele>2564</ele>
        <time>2014-01-11T11:30:21.000Z</time>
      </trkpt>
      <trkpt lat="45.17798" lon="6.36755">
        <ele>2564</ele>
        <time>2014-01-11T11:30:22.000Z</time>
      </trkpt>
      <trkpt lat="45.17799" lon="6.36755">
        <ele>2564.1999511719</ele>
        <time>2014-01-11T11:30:23.000Z</time>
      </trkpt>
      <trkpt lat="45.17799" lon="6.36755">
        <ele>2564.1999511719</ele>
        <time>2014-01-11T11:30:24.000Z</time>
      </trkpt>
      <trkpt lat="45.17799" lon="6.36755">
        <ele>2564.3999023438</ele>
        <time>2014-01-11T11:30:25.000Z</time>
      </trkpt>
      <trkpt lat="45.17799" lon="6.36755">
        <ele>2564.6000976562</ele>
        <time>2014-01-11T11:30:26.000Z</time>
      </trkpt>
      <trkpt lat="45.17799" lon="6.36755">
        <ele>2564.8000488281</ele>
        <time>2014-01-11T11:30:27.000Z</time>
      </trkpt>
      <trkpt lat="45.178" lon="6.36756">
        <ele>2564.8000488281</ele>
        <time>2014-01-11T11:30:28.000Z</time>
      </trkpt>
      <trkpt lat="45.178" lon="6.36756">
        <ele>2565</ele>
        <time>2014-01-11T11:30:29.000Z</time>
      </trkpt>
      <trkpt lat="45.178" lon="6.36756">
        <ele>2565</ele>
        <time>2014-01-11T11:30:30.000Z</time>
      </trkpt>
      <trkpt lat="45.178" lon="6.36756">
        <ele>2565</ele>
        <time>2014-01-11T11:30:31.000Z</time>
      </trkpt>
      <trkpt lat="45.178" lon="6.36756">
        <ele>2565.1999511719</ele>
        <time>2014-01-11T11:30:32.000Z</time>
      </trkpt>
      <trkpt lat="45.178" lon="6.36756">
        <ele>2565.3999023438</ele>
        <time>2014-01-11T11:30:33.000Z</time>
      </trkpt>
      <trkpt lat="45.178" lon="6.36756">
        <ele>2565.6000976562</ele>
        <time>2014-01-11T11:30:34.000Z</time>
      </trkpt>
      <trkpt lat="45.178" lon="6.36756">
        <ele>2565.6000976562</ele>
        <time>2014-01-11T11:30:35.000Z</time>
      </trkpt>
      <trkpt lat="45.17801" lon="6.36755">
        <ele>2565.8000488281</ele>
        <time>2014-01-11T11:30:36.000Z</time>
      </trkpt>
      <trkpt lat="45.17801" lon="6.36755">
        <ele>2565.8000488281</ele>
        <time>2014-01-11T11:30:37.000Z</time>
      </trkpt>
      <trkpt lat="45.178" lon="6.36756">
        <ele>2565.8000488281</ele>
        <time>2014-01-11T11:30:38.000Z</time>
      </trkpt>
      <trkpt lat="45.178" lon="6.36756">
        <ele>2565.8000488281</ele>
        <time>2014-01-11T11:30:40.000Z</time>
      </trkpt>
      <trkpt lat="45.178" lon="6.36756">
        <ele>2565.8000488281</ele>
        <time>2014-01-11T11:30:41.000Z</time>
      </trkpt>
      <trkpt lat="45.178" lon="6.36756">
        <ele>2565.8000488281</ele>
        <time>2014-01-11T11:30:42.000Z</time>
      </trkpt>
      <trkpt lat="45.17799" lon="6.36756">
        <ele>2566</ele>
        <time>2014-01-11T11:30:43.000Z</time>
      </trkpt>
      <trkpt lat="45.17799" lon="6.36756">
        <ele>2566</ele>
        <time>2014-01-11T11:30:44.000Z</time>
      </trkpt>
      <trkpt lat="45.17798" lon="6.36757">
        <ele>2566.1999511719</ele>
        <time>2014-01-11T11:30:45.000Z</time>
      </trkpt>
      <trkpt lat="45.17798" lon="6.36757">
        <ele>2566.1999511719</ele>
        <time>2014-01-11T11:30:46.000Z</time>
      </trkpt>
      <trkpt lat="45.17797" lon="6.36757">
        <ele>2566.3999023438</ele>
        <time>2014-01-11T11:30:47.000Z</time>
      </trkpt>
      <trkpt lat="45.17797" lon="6.36757">
        <ele>2566.6000976562</ele>
        <time>2014-01-11T11:30:48.000Z</time>
      </trkpt>
      <trkpt lat="45.17797" lon="6.36757">
        <ele>2566.8000488281</ele>
        <time>2014-01-11T11:30:49.000Z</time>
      </trkpt>
      <trkpt lat="45.17796" lon="6.36758">
        <ele>2567</ele>
        <time>2014-01-11T11:30:50.000Z</time>
      </trkpt>
      <trkpt lat="45.17796" lon="6.36758">
        <ele>2567.1999511719</ele>
        <time>2014-01-11T11:30:51.000Z</time>
      </trkpt>
      <trkpt lat="45.17796" lon="6.36758">
        <ele>2567.3999023438</ele>
        <time>2014-01-11T11:30:52.000Z</time>
      </trkpt>
      <trkpt lat="45.17796" lon="6.36759">
        <ele>2567.3999023438</ele>
        <time>2014-01-11T11:30:53.000Z</time>
      </trkpt>
      <trkpt lat="45.17796" lon="6.36759">
        <ele>2567.6000976562</ele>
        <time>2014-01-11T11:30:54.000Z</time>
      </trkpt>
      <trkpt lat="45.17796" lon="6.36759">
        <ele>2567.8000488281</ele>
        <time>2014-01-11T11:30:55.000Z</time>
      </trkpt>
      <trkpt lat="45.17795" lon="6.36759">
        <ele>2567.8000488281</ele>
        <time>2014-01-11T11:30:56.000Z</time>
      </trkpt>
      <trkpt lat="45.17795" lon="6.36759">
        <ele>2568</ele>
        <time>2014-01-11T11:30:57.000Z</time>
      </trkpt>
      <trkpt lat="45.17795" lon="6.36759">
        <ele>2568</ele>
        <time>2014-01-11T11:30:58.000Z</time>
      </trkpt>
      <trkpt lat="45.17795" lon="6.36759">
        <ele>2568.1999511719</ele>
        <time>2014-01-11T11:30:59.000Z</time>
      </trkpt>
      <trkpt lat="45.17795" lon="6.36759">
        <ele>2568.3999023438</ele>
        <time>2014-01-11T11:31:00.000Z</time>
      </trkpt>
      <trkpt lat="45.17794" lon="6.3676">
        <ele>2568.6000976562</ele>
        <time>2014-01-11T11:31:01.000Z</time>
      </trkpt>
      <trkpt lat="45.17793" lon="6.36761">
        <ele>2568.8000488281</ele>
        <time>2014-01-11T11:31:02.000Z</time>
      </trkpt>
      <trkpt lat="45.17792" lon="6.36761">
        <ele>2569</ele>
        <time>2014-01-11T11:31:03.000Z</time>
      </trkpt>
      <trkpt lat="45.17792" lon="6.36761">
        <ele>2569</ele>
        <time>2014-01-11T11:31:04.000Z</time>
      </trkpt>
      <trkpt lat="45.17791" lon="6.36762">
        <ele>2569.1999511719</ele>
        <time>2014-01-11T11:31:05.000Z</time>
      </trkpt>
      <trkpt lat="45.1779" lon="6.36762">
        <ele>2569.3999023438</ele>
        <time>2014-01-11T11:31:06.000Z</time>
      </trkpt>
      <trkpt lat="45.1779" lon="6.36763">
        <ele>2569.6000976562</ele>
        <time>2014-01-11T11:31:07.000Z</time>
      </trkpt>
      <trkpt lat="45.1779" lon="6.36763">
        <ele>2569.8000488281</ele>
        <time>2014-01-11T11:31:08.000Z</time>
      </trkpt>
      <trkpt lat="45.1779" lon="6.36763">
        <ele>2569.8000488281</ele>
        <time>2014-01-11T11:31:09.000Z</time>
      </trkpt>
      <trkpt lat="45.1779" lon="6.36763">
        <ele>2570</ele>
        <time>2014-01-11T11:31:10.000Z</time>
      </trkpt>
      <trkpt lat="45.1779" lon="6.36763">
        <ele>2570</ele>
        <time>2014-01-11T11:31:11.000Z</time>
      </trkpt>
      <trkpt lat="45.1779" lon="6.36763">
        <ele>2570</ele>
        <time>2014-01-11T11:31:12.000Z</time>
      </trkpt>
      <trkpt lat="45.1779" lon="6.36763">
        <ele>2570</ele>
        <time>2014-01-11T11:31:14.000Z</time>
      </trkpt>
      <trkpt lat="45.1779" lon="6.36763">
        <ele>2570</ele>
        <time>2014-01-11T11:31:15.000Z</time>
      </trkpt>
      <trkpt lat="45.1779" lon="6.36763">
        <ele>2570</ele>
        <time>2014-01-11T11:31:16.000Z</time>
      </trkpt>
      <trkpt lat="45.1779" lon="6.36763">
        <ele>2570</ele>
        <time>2014-01-11T11:31:17.000Z</time>
      </trkpt>
      <trkpt lat="45.1779" lon="6.36763">
        <ele>2570</ele>
        <time>2014-01-11T11:31:19.000Z</time>
      </trkpt>
      <trkpt lat="45.1779" lon="6.36763">
        <ele>2570</ele>
        <time>2014-01-11T11:31:23.000Z</time>
      </trkpt>
      <trkpt lat="45.1779" lon="6.36763">
        <ele>2570</ele>
        <time>2014-01-11T11:31:24.000Z</time>
      </trkpt>
      <trkpt lat="45.1779" lon="6.36763">
        <ele>2570</ele>
        <time>2014-01-11T11:31:25.000Z</time>
      </trkpt>
      <trkpt lat="45.1779" lon="6.36763">
        <ele>2570</ele>
        <time>2014-01-11T11:31:28.000Z</time>
      </trkpt>
      <trkpt lat="45.1779" lon="6.36763">
        <ele>2570.1999511719</ele>
        <time>2014-01-11T11:31:29.000Z</time>
      </trkpt>
      <trkpt lat="45.1779" lon="6.36763">
        <ele>2570.3999023438</ele>
        <time>2014-01-11T11:31:30.000Z</time>
      </trkpt>
      <trkpt lat="45.1779" lon="6.36764">
        <ele>2570.6000976562</ele>
        <time>2014-01-11T11:31:31.000Z</time>
      </trkpt>
      <trkpt lat="45.17791" lon="6.36764">
        <ele>2570.6000976562</ele>
        <time>2014-01-11T11:31:32.000Z</time>
      </trkpt>
      <trkpt lat="45.17791" lon="6.36765">
        <ele>2570.6000976562</ele>
        <time>2014-01-11T11:31:33.000Z</time>
      </trkpt>
      <trkpt lat="45.17791" lon="6.36765">
        <ele>2570.8000488281</ele>
        <time>2014-01-11T11:31:34.000Z</time>
      </trkpt>
      <trkpt lat="45.17792" lon="6.36765">
        <ele>2570.8000488281</ele>
        <time>2014-01-11T11:31:35.000Z</time>
      </trkpt>
      <trkpt lat="45.17792" lon="6.36765">
        <ele>2571</ele>
        <time>2014-01-11T11:31:36.000Z</time>
      </trkpt>
      <trkpt lat="45.17792" lon="6.36765">
        <ele>2571.1999511719</ele>
        <time>2014-01-11T11:31:37.000Z</time>
      </trkpt>
      <trkpt lat="45.17793" lon="6.36765">
        <ele>2571.3999023438</ele>
        <time>2014-01-11T11:31:38.000Z</time>
      </trkpt>
      <trkpt lat="45.17793" lon="6.36766">
        <ele>2571.6000976562</ele>
        <time>2014-01-11T11:31:39.000Z</time>
      </trkpt>
      <trkpt lat="45.17793" lon="6.36766">
        <ele>2571.6000976562</ele>
        <time>2014-01-11T11:31:40.000Z</time>
      </trkpt>
      <trkpt lat="45.17793" lon="6.36766">
        <ele>2571.8000488281</ele>
        <time>2014-01-11T11:31:41.000Z</time>
      </trkpt>
      <trkpt lat="45.17794" lon="6.36767">
        <ele>2571.8000488281</ele>
        <time>2014-01-11T11:31:42.000Z</time>
      </trkpt>
      <trkpt lat="45.17793" lon="6.36767">
        <ele>2571.8000488281</ele>
        <time>2014-01-11T11:31:43.000Z</time>
      </trkpt>
      <trkpt lat="45.17794" lon="6.36768">
        <ele>2572</ele>
        <time>2014-01-11T11:31:44.000Z</time>
      </trkpt>
      <trkpt lat="45.17794" lon="6.36768">
        <ele>2572.1999511719</ele>
        <time>2014-01-11T11:31:45.000Z</time>
      </trkpt>
      <trkpt lat="45.17794" lon="6.36769">
        <ele>2572.1999511719</ele>
        <time>2014-01-11T11:31:46.000Z</time>
      </trkpt>
      <trkpt lat="45.17795" lon="6.3677">
        <ele>2572.3999023438</ele>
        <time>2014-01-11T11:31:47.000Z</time>
      </trkpt>
      <trkpt lat="45.17795" lon="6.3677">
        <ele>2572.6000976562</ele>
        <time>2014-01-11T11:31:48.000Z</time>
      </trkpt>
      <trkpt lat="45.17795" lon="6.3677">
        <ele>2572.6000976562</ele>
        <time>2014-01-11T11:31:49.000Z</time>
      </trkpt>
      <trkpt lat="45.17796" lon="6.36771">
        <ele>2572.6000976562</ele>
        <time>2014-01-11T11:31:50.000Z</time>
      </trkpt>
      <trkpt lat="45.17796" lon="6.36771">
        <ele>2572.8000488281</ele>
        <time>2014-01-11T11:31:51.000Z</time>
      </trkpt>
      <trkpt lat="45.17796" lon="6.36772">
        <ele>2573</ele>
        <time>2014-01-11T11:31:52.000Z</time>
      </trkpt>
      <trkpt lat="45.17797" lon="6.36773">
        <ele>2573.1999511719</ele>
        <time>2014-01-11T11:31:53.000Z</time>
      </trkpt>
      <trkpt lat="45.17797" lon="6.36773">
        <ele>2573.1999511719</ele>
        <time>2014-01-11T11:31:54.000Z</time>
      </trkpt>
      <trkpt lat="45.17797" lon="6.36773">
        <ele>2573.3999023438</ele>
        <time>2014-01-11T11:31:55.000Z</time>
      </trkpt>
      <trkpt lat="45.17797" lon="6.36773">
        <ele>2573.3999023438</ele>
        <time>2014-01-11T11:31:56.000Z</time>
      </trkpt>
      <trkpt lat="45.17797" lon="6.36773">
        <ele>2573.6000976562</ele>
        <time>2014-01-11T11:31:57.000Z</time>
      </trkpt>
      <trkpt lat="45.17797" lon="6.36773">
        <ele>2573.8000488281</ele>
        <time>2014-01-11T11:31:58.000Z</time>
      </trkpt>
      <trkpt lat="45.17797" lon="6.36773">
        <ele>2574</ele>
        <time>2014-01-11T11:31:59.000Z</time>
      </trkpt>
      <trkpt lat="45.17797" lon="6.36773">
        <ele>2574.1999511719</ele>
        <time>2014-01-11T11:32:00.000Z</time>
      </trkpt>
      <trkpt lat="45.17798" lon="6.36774">
        <ele>2574.1999511719</ele>
        <time>2014-01-11T11:32:01.000Z</time>
      </trkpt>
      <trkpt lat="45.17798" lon="6.36775">
        <ele>2574.3999023438</ele>
        <time>2014-01-11T11:32:02.000Z</time>
      </trkpt>
      <trkpt lat="45.17799" lon="6.36775">
        <ele>2574.3999023438</ele>
        <time>2014-01-11T11:32:03.000Z</time>
      </trkpt>
      <trkpt lat="45.17799" lon="6.36775">
        <ele>2574.3999023438</ele>
        <time>2014-01-11T11:32:04.000Z</time>
      </trkpt>
      <trkpt lat="45.17799" lon="6.36775">
        <ele>2574.6000976562</ele>
        <time>2014-01-11T11:32:07.000Z</time>
      </trkpt>
      <trkpt lat="45.17799" lon="6.36775">
        <ele>2574.6000976562</ele>
        <time>2014-01-11T11:32:08.000Z</time>
      </trkpt>
      <trkpt lat="45.17799" lon="6.36775">
        <ele>2574.8000488281</ele>
        <time>2014-01-11T11:32:09.000Z</time>
      </trkpt>
      <trkpt lat="45.17799" lon="6.36775">
        <ele>2574.8000488281</ele>
        <time>2014-01-11T11:32:10.000Z</time>
      </trkpt>
      <trkpt lat="45.17799" lon="6.36775">
        <ele>2575</ele>
        <time>2014-01-11T11:32:11.000Z</time>
      </trkpt>
      <trkpt lat="45.17799" lon="6.36775">
        <ele>2575</ele>
        <time>2014-01-11T11:32:12.000Z</time>
      </trkpt>
      <trkpt lat="45.17799" lon="6.36775">
        <ele>2575</ele>
        <time>2014-01-11T11:32:13.000Z</time>
      </trkpt>
      <trkpt lat="45.17799" lon="6.36775">
        <ele>2575</ele>
        <time>2014-01-11T11:32:14.000Z</time>
      </trkpt>
      <trkpt lat="45.17799" lon="6.36775">
        <ele>2575</ele>
        <time>2014-01-11T11:32:15.000Z</time>
      </trkpt>
      <trkpt lat="45.17799" lon="6.36775">
        <ele>2574.8000488281</ele>
        <time>2014-01-11T11:32:16.000Z</time>
      </trkpt>
      <trkpt lat="45.17799" lon="6.36775">
        <ele>2574.8000488281</ele>
        <time>2014-01-11T11:32:17.000Z</time>
      </trkpt>
      <trkpt lat="45.17799" lon="6.36775">
        <ele>2574.8000488281</ele>
        <time>2014-01-11T11:32:18.000Z</time>
      </trkpt>
      <trkpt lat="45.17798" lon="6.36775">
        <ele>2574.8000488281</ele>
        <time>2014-01-11T11:32:19.000Z</time>
      </trkpt>
      <trkpt lat="45.17798" lon="6.36776">
        <ele>2574.8000488281</ele>
        <time>2014-01-11T11:32:20.000Z</time>
      </trkpt>
      <trkpt lat="45.17798" lon="6.36777">
        <ele>2575</ele>
        <time>2014-01-11T11:32:21.000Z</time>
      </trkpt>
      <trkpt lat="45.17798" lon="6.36777">
        <ele>2575</ele>
        <time>2014-01-11T11:32:22.000Z</time>
      </trkpt>
      <trkpt lat="45.17798" lon="6.36777">
        <ele>2575.1999511719</ele>
        <time>2014-01-11T11:32:23.000Z</time>
      </trkpt>
      <trkpt lat="45.17798" lon="6.36778">
        <ele>2575.3999023438</ele>
        <time>2014-01-11T11:32:24.000Z</time>
      </trkpt>
      <trkpt lat="45.17798" lon="6.36778">
        <ele>2575.6000976562</ele>
        <time>2014-01-11T11:32:25.000Z</time>
      </trkpt>
      <trkpt lat="45.17797" lon="6.36778">
        <ele>2575.8000488281</ele>
        <time>2014-01-11T11:32:26.000Z</time>
      </trkpt>
      <trkpt lat="45.17797" lon="6.36778">
        <ele>2576</ele>
        <time>2014-01-11T11:32:27.000Z</time>
      </trkpt>
      <trkpt lat="45.17797" lon="6.36778">
        <ele>2576</ele>
        <time>2014-01-11T11:32:28.000Z</time>
      </trkpt>
      <trkpt lat="45.17797" lon="6.36778">
        <ele>2576.1999511719</ele>
        <time>2014-01-11T11:32:29.000Z</time>
      </trkpt>
      <trkpt lat="45.17797" lon="6.36778">
        <ele>2576.3999023438</ele>
        <time>2014-01-11T11:32:30.000Z</time>
      </trkpt>
      <trkpt lat="45.17797" lon="6.36778">
        <ele>2576.6000976562</ele>
        <time>2014-01-11T11:32:31.000Z</time>
      </trkpt>
      <trkpt lat="45.17797" lon="6.36778">
        <ele>2576.8000488281</ele>
        <time>2014-01-11T11:32:32.000Z</time>
      </trkpt>
      <trkpt lat="45.17797" lon="6.36778">
        <ele>2576.8000488281</ele>
        <time>2014-01-11T11:32:33.000Z</time>
      </trkpt>
      <trkpt lat="45.17797" lon="6.36778">
        <ele>2577</ele>
        <time>2014-01-11T11:32:34.000Z</time>
      </trkpt>
      <trkpt lat="45.17797" lon="6.36778">
        <ele>2577</ele>
        <time>2014-01-11T11:32:35.000Z</time>
      </trkpt>
      <trkpt lat="45.17797" lon="6.36778">
        <ele>2577</ele>
        <time>2014-01-11T11:32:36.000Z</time>
      </trkpt>
      <trkpt lat="45.17797" lon="6.36778">
        <ele>2577</ele>
        <time>2014-01-11T11:32:37.000Z</time>
      </trkpt>
      <trkpt lat="45.17797" lon="6.36779">
        <ele>2576.8000488281</ele>
        <time>2014-01-11T11:32:38.000Z</time>
      </trkpt>
      <trkpt lat="45.17797" lon="6.36779">
        <ele>2576.8000488281</ele>
        <time>2014-01-11T11:32:39.000Z</time>
      </trkpt>
      <trkpt lat="45.17797" lon="6.36779">
        <ele>2576.8000488281</ele>
        <time>2014-01-11T11:32:40.000Z</time>
      </trkpt>
      <trkpt lat="45.17797" lon="6.3678">
        <ele>2576.8000488281</ele>
        <time>2014-01-11T11:32:41.000Z</time>
      </trkpt>
      <trkpt lat="45.17797" lon="6.3678">
        <ele>2577</ele>
        <time>2014-01-11T11:32:42.000Z</time>
      </trkpt>
      <trkpt lat="45.17797" lon="6.36781">
        <ele>2577.1999511719</ele>
        <time>2014-01-11T11:32:43.000Z</time>
      </trkpt>
      <trkpt lat="45.17798" lon="6.36782">
        <ele>2577.1999511719</ele>
        <time>2014-01-11T11:32:44.000Z</time>
      </trkpt>
      <trkpt lat="45.17798" lon="6.36783">
        <ele>2577.3999023438</ele>
        <time>2014-01-11T11:32:45.000Z</time>
      </trkpt>
      <trkpt lat="45.17798" lon="6.36784">
        <ele>2577.3999023438</ele>
        <time>2014-01-11T11:32:46.000Z</time>
      </trkpt>
      <trkpt lat="45.17798" lon="6.36784">
        <ele>2577.6000976562</ele>
        <time>2014-01-11T11:32:47.000Z</time>
      </trkpt>
      <trkpt lat="45.17798" lon="6.36784">
        <ele>2577.8000488281</ele>
        <time>2014-01-11T11:32:48.000Z</time>
      </trkpt>
      <trkpt lat="45.17798" lon="6.36784">
        <ele>2578</ele>
        <time>2014-01-11T11:32:49.000Z</time>
      </trkpt>
      <trkpt lat="45.17798" lon="6.36784">
        <ele>2578</ele>
        <time>2014-01-11T11:32:50.000Z</time>
      </trkpt>
      <trkpt lat="45.17798" lon="6.36784">
        <ele>2578</ele>
        <time>2014-01-11T11:32:51.000Z</time>
      </trkpt>
      <trkpt lat="45.17798" lon="6.36784">
        <ele>2578</ele>
        <time>2014-01-11T11:32:53.000Z</time>
      </trkpt>
      <trkpt lat="45.17798" lon="6.36784">
        <ele>2578</ele>
        <time>2014-01-11T11:32:54.000Z</time>
      </trkpt>
      <trkpt lat="45.17798" lon="6.36784">
        <ele>2578.1999511719</ele>
        <time>2014-01-11T11:32:55.000Z</time>
      </trkpt>
      <trkpt lat="45.17798" lon="6.36784">
        <ele>2578.3999023438</ele>
        <time>2014-01-11T11:32:56.000Z</time>
      </trkpt>
      <trkpt lat="45.17798" lon="6.36784">
        <ele>2578.6000976562</ele>
        <time>2014-01-11T11:32:57.000Z</time>
      </trkpt>
      <trkpt lat="45.17797" lon="6.36784">
        <ele>2578.6000976562</ele>
        <time>2014-01-11T11:32:58.000Z</time>
      </trkpt>
      <trkpt lat="45.17797" lon="6.36784">
        <ele>2578.8000488281</ele>
        <time>2014-01-11T11:32:59.000Z</time>
      </trkpt>
      <trkpt lat="45.17797" lon="6.36785">
        <ele>2578.8000488281</ele>
        <time>2014-01-11T11:33:00.000Z</time>
      </trkpt>
      <trkpt lat="45.17797" lon="6.36785">
        <ele>2578.8000488281</ele>
        <time>2014-01-11T11:33:01.000Z</time>
      </trkpt>
      <trkpt lat="45.17796" lon="6.36785">
        <ele>2578.8000488281</ele>
        <time>2014-01-11T11:33:02.000Z</time>
      </trkpt>
      <trkpt lat="45.17795" lon="6.36785">
        <ele>2578.8000488281</ele>
        <time>2014-01-11T11:33:03.000Z</time>
      </trkpt>
      <trkpt lat="45.17795" lon="6.36786">
        <ele>2579</ele>
        <time>2014-01-11T11:33:04.000Z</time>
      </trkpt>
      <trkpt lat="45.17794" lon="6.36786">
        <ele>2579</ele>
        <time>2014-01-11T11:33:05.000Z</time>
      </trkpt>
      <trkpt lat="45.17794" lon="6.36786">
        <ele>2579.1999511719</ele>
        <time>2014-01-11T11:33:06.000Z</time>
      </trkpt>
      <trkpt lat="45.17794" lon="6.36786">
        <ele>2579.6000976562</ele>
        <time>2014-01-11T11:33:07.000Z</time>
      </trkpt>
      <trkpt lat="45.17793" lon="6.36786">
        <ele>2579.8000488281</ele>
        <time>2014-01-11T11:33:08.000Z</time>
      </trkpt>
      <trkpt lat="45.17793" lon="6.36787">
        <ele>2580</ele>
        <time>2014-01-11T11:33:09.000Z</time>
      </trkpt>
      <trkpt lat="45.17792" lon="6.36787">
        <ele>2580</ele>
        <time>2014-01-11T11:33:10.000Z</time>
      </trkpt>
      <trkpt lat="45.17792" lon="6.36787">
        <ele>2580.1999511719</ele>
        <time>2014-01-11T11:33:11.000Z</time>
      </trkpt>
      <trkpt lat="45.17792" lon="6.36787">
        <ele>2580.3999023438</ele>
        <time>2014-01-11T11:33:12.000Z</time>
      </trkpt>
      <trkpt lat="45.17792" lon="6.36787">
        <ele>2580.6000976562</ele>
        <time>2014-01-11T11:33:13.000Z</time>
      </trkpt>
      <trkpt lat="45.17792" lon="6.36787">
        <ele>2580.6000976562</ele>
        <time>2014-01-11T11:33:14.000Z</time>
      </trkpt>
      <trkpt lat="45.17792" lon="6.36787">
        <ele>2580.6000976562</ele>
        <time>2014-01-11T11:33:15.000Z</time>
      </trkpt>
      <trkpt lat="45.17792" lon="6.36787">
        <ele>2580.6000976562</ele>
        <time>2014-01-11T11:33:16.000Z</time>
      </trkpt>
      <trkpt lat="45.17792" lon="6.36787">
        <ele>2580.6000976562</ele>
        <time>2014-01-11T11:33:17.000Z</time>
      </trkpt>
      <trkpt lat="45.17792" lon="6.36787">
        <ele>2580.6000976562</ele>
        <time>2014-01-11T11:33:18.000Z</time>
      </trkpt>
      <trkpt lat="45.17792" lon="6.36787">
        <ele>2580.6000976562</ele>
        <time>2014-01-11T11:33:19.000Z</time>
      </trkpt>
      <trkpt lat="45.17792" lon="6.36787">
        <ele>2580.6000976562</ele>
        <time>2014-01-11T11:33:20.000Z</time>
      </trkpt>
      <trkpt lat="45.17792" lon="6.36787">
        <ele>2580.6000976562</ele>
        <time>2014-01-11T11:33:21.000Z</time>
      </trkpt>
      <trkpt lat="45.17792" lon="6.36787">
        <ele>2580.6000976562</ele>
        <time>2014-01-11T11:33:22.000Z</time>
      </trkpt>
      <trkpt lat="45.17792" lon="6.36787">
        <ele>2580.6000976562</ele>
        <time>2014-01-11T11:33:23.000Z</time>
      </trkpt>
      <trkpt lat="45.17792" lon="6.36787">
        <ele>2580.6000976562</ele>
        <time>2014-01-11T11:33:24.000Z</time>
      </trkpt>
      <trkpt lat="45.17792" lon="6.36786">
        <ele>2580.6000976562</ele>
        <time>2014-01-11T11:33:27.000Z</time>
      </trkpt>
      <trkpt lat="45.17792" lon="6.36786">
        <ele>2580.8000488281</ele>
        <time>2014-01-11T11:33:28.000Z</time>
      </trkpt>
      <trkpt lat="45.17792" lon="6.36786">
        <ele>2581</ele>
        <time>2014-01-11T11:33:29.000Z</time>
      </trkpt>
      <trkpt lat="45.17792" lon="6.36786">
        <ele>2581</ele>
        <time>2014-01-11T11:33:30.000Z</time>
      </trkpt>
      <trkpt lat="45.17792" lon="6.36786">
        <ele>2581.1999511719</ele>
        <time>2014-01-11T11:33:31.000Z</time>
      </trkpt>
      <trkpt lat="45.17792" lon="6.36786">
        <ele>2581.1999511719</ele>
        <time>2014-01-11T11:33:32.000Z</time>
      </trkpt>
      <trkpt lat="45.17792" lon="6.36786">
        <ele>2581.1999511719</ele>
        <time>2014-01-11T11:33:33.000Z</time>
      </trkpt>
      <trkpt lat="45.17792" lon="6.36786">
        <ele>2581.1999511719</ele>
        <time>2014-01-11T11:33:34.000Z</time>
      </trkpt>
      <trkpt lat="45.17792" lon="6.36786">
        <ele>2581</ele>
        <time>2014-01-11T11:33:35.000Z</time>
      </trkpt>
      <trkpt lat="45.17792" lon="6.36786">
        <ele>2580.8000488281</ele>
        <time>2014-01-11T11:33:36.000Z</time>
      </trkpt>
      <trkpt lat="45.17792" lon="6.36786">
        <ele>2580.6000976562</ele>
        <time>2014-01-11T11:33:37.000Z</time>
      </trkpt>
      <trkpt lat="45.17792" lon="6.36786">
        <ele>2580.3999023438</ele>
        <time>2014-01-11T11:33:38.000Z</time>
      </trkpt>
      <trkpt lat="45.17792" lon="6.36786">
        <ele>2580.1999511719</ele>
        <time>2014-01-11T11:33:39.000Z</time>
      </trkpt>
      <trkpt lat="45.17792" lon="6.36786">
        <ele>2580.1999511719</ele>
        <time>2014-01-11T11:33:40.000Z</time>
      </trkpt>
      <trkpt lat="45.17792" lon="6.36786">
        <ele>2580.1999511719</ele>
        <time>2014-01-11T11:33:41.000Z</time>
      </trkpt>
      <trkpt lat="45.17792" lon="6.36786">
        <ele>2580.3999023438</ele>
        <time>2014-01-11T11:33:42.000Z</time>
      </trkpt>
      <trkpt lat="45.17792" lon="6.36786">
        <ele>2580.3999023438</ele>
        <time>2014-01-11T11:33:43.000Z</time>
      </trkpt>
      <trkpt lat="45.17792" lon="6.36786">
        <ele>2580.6000976562</ele>
        <time>2014-01-11T11:33:44.000Z</time>
      </trkpt>
      <trkpt lat="45.17792" lon="6.36786">
        <ele>2580.6000976562</ele>
        <time>2014-01-11T11:33:45.000Z</time>
      </trkpt>
      <trkpt lat="45.17792" lon="6.36786">
        <ele>2580.6000976562</ele>
        <time>2014-01-11T11:33:48.000Z</time>
      </trkpt>
      <trkpt lat="45.17792" lon="6.36786">
        <ele>2580.6000976562</ele>
        <time>2014-01-11T11:33:49.000Z</time>
      </trkpt>
      <trkpt lat="45.17792" lon="6.36786">
        <ele>2580.6000976562</ele>
        <time>2014-01-11T11:33:50.000Z</time>
      </trkpt>
      <trkpt lat="45.17792" lon="6.36786">
        <ele>2580.6000976562</ele>
        <time>2014-01-11T11:33:51.000Z</time>
      </trkpt>
      <trkpt lat="45.17792" lon="6.36786">
        <ele>2580.6000976562</ele>
        <time>2014-01-11T11:33:52.000Z</time>
      </trkpt>
      <trkpt lat="45.17792" lon="6.36786">
        <ele>2580.6000976562</ele>
        <time>2014-01-11T11:33:53.000Z</time>
      </trkpt>
      <trkpt lat="45.17792" lon="6.36786">
        <ele>2580.3999023438</ele>
        <time>2014-01-11T11:33:54.000Z</time>
      </trkpt>
      <trkpt lat="45.17792" lon="6.36786">
        <ele>2580.3999023438</ele>
        <time>2014-01-11T11:33:55.000Z</time>
      </trkpt>
      <trkpt lat="45.17792" lon="6.36786">
        <ele>2580.3999023438</ele>
        <time>2014-01-11T11:33:56.000Z</time>
      </trkpt>
      <trkpt lat="45.17792" lon="6.36786">
        <ele>2580.3999023438</ele>
        <time>2014-01-11T11:33:57.000Z</time>
      </trkpt>
      <trkpt lat="45.17792" lon="6.36786">
        <ele>2580.3999023438</ele>
        <time>2014-01-11T11:33:58.000Z</time>
      </trkpt>
      <trkpt lat="45.17792" lon="6.36786">
        <ele>2580.3999023438</ele>
        <time>2014-01-11T11:33:59.000Z</time>
      </trkpt>
      <trkpt lat="45.17792" lon="6.36786">
        <ele>2580.3999023438</ele>
        <time>2014-01-11T11:34:00.000Z</time>
      </trkpt>
      <trkpt lat="45.17792" lon="6.36786">
        <ele>2580.3999023438</ele>
        <time>2014-01-11T11:34:01.000Z</time>
      </trkpt>
      <trkpt lat="45.17792" lon="6.36786">
        <ele>2580.3999023438</ele>
        <time>2014-01-11T11:34:02.000Z</time>
      </trkpt>
      <trkpt lat="45.17792" lon="6.36786">
        <ele>2580.3999023438</ele>
        <time>2014-01-11T11:34:03.000Z</time>
      </trkpt>
      <trkpt lat="45.17792" lon="6.36786">
        <ele>2580.3999023438</ele>
        <time>2014-01-11T11:34:04.000Z</time>
      </trkpt>
      <trkpt lat="45.17792" lon="6.36786">
        <ele>2580.3999023438</ele>
        <time>2014-01-11T11:34:06.000Z</time>
      </trkpt>
      <trkpt lat="45.17792" lon="6.36786">
        <ele>2580.3999023438</ele>
        <time>2014-01-11T11:34:10.000Z</time>
      </trkpt>
      <trkpt lat="45.17792" lon="6.36786">
        <ele>2580.3999023438</ele>
        <time>2014-01-11T11:34:11.000Z</time>
      </trkpt>
      <trkpt lat="45.17792" lon="6.36786">
        <ele>2580.3999023438</ele>
        <time>2014-01-11T11:34:15.000Z</time>
      </trkpt>
      <trkpt lat="45.17792" lon="6.36786">
        <ele>2580.3999023438</ele>
        <time>2014-01-11T11:34:16.000Z</time>
      </trkpt>
      <trkpt lat="45.17792" lon="6.36786">
        <ele>2580.6000976562</ele>
        <time>2014-01-11T11:34:17.000Z</time>
      </trkpt>
      <trkpt lat="45.17792" lon="6.36786">
        <ele>2580.6000976562</ele>
        <time>2014-01-11T11:34:18.000Z</time>
      </trkpt>
      <trkpt lat="45.17792" lon="6.36786">
        <ele>2580.6000976562</ele>
        <time>2014-01-11T11:34:20.000Z</time>
      </trkpt>
      <trkpt lat="45.17792" lon="6.36786">
        <ele>2580.3999023438</ele>
        <time>2014-01-11T11:34:21.000Z</time>
      </trkpt>
      <trkpt lat="45.17792" lon="6.36786">
        <ele>2580.3999023438</ele>
        <time>2014-01-11T11:34:22.000Z</time>
      </trkpt>
      <trkpt lat="45.17792" lon="6.36786">
        <ele>2580.3999023438</ele>
        <time>2014-01-11T11:34:23.000Z</time>
      </trkpt>
      <trkpt lat="45.17792" lon="6.36786">
        <ele>2580.3999023438</ele>
        <time>2014-01-11T11:34:24.000Z</time>
      </trkpt>
      <trkpt lat="45.17792" lon="6.36786">
        <ele>2580.3999023438</ele>
        <time>2014-01-11T11:34:25.000Z</time>
      </trkpt>
      <trkpt lat="45.17792" lon="6.36786">
        <ele>2580.3999023438</ele>
        <time>2014-01-11T11:34:26.000Z</time>
      </trkpt>
      <trkpt lat="45.17792" lon="6.36786">
        <ele>2580.3999023438</ele>
        <time>2014-01-11T11:34:27.000Z</time>
      </trkpt>
      <trkpt lat="45.17792" lon="6.36786">
        <ele>2580.3999023438</ele>
        <time>2014-01-11T11:34:28.000Z</time>
      </trkpt>
      <trkpt lat="45.17792" lon="6.36786">
        <ele>2580.3999023438</ele>
        <time>2014-01-11T11:34:39.000Z</time>
      </trkpt>
      <trkpt lat="45.17792" lon="6.36786">
        <ele>2580.3999023438</ele>
        <time>2014-01-11T11:34:40.000Z</time>
      </trkpt>
      <trkpt lat="45.17792" lon="6.36786">
        <ele>2580.3999023438</ele>
        <time>2014-01-11T11:34:42.000Z</time>
      </trkpt>
      <trkpt lat="45.17792" lon="6.36786">
        <ele>2580.3999023438</ele>
        <time>2014-01-11T11:34:44.000Z</time>
      </trkpt>
      <trkpt lat="45.17792" lon="6.36786">
        <ele>2580.3999023438</ele>
        <time>2014-01-11T11:34:49.000Z</time>
      </trkpt>
      <trkpt lat="45.17792" lon="6.36786">
        <ele>2580.3999023438</ele>
        <time>2014-01-11T11:34:55.000Z</time>
      </trkpt>
      <trkpt lat="45.17792" lon="6.36786">
        <ele>2580.3999023438</ele>
        <time>2014-01-11T11:34:56.000Z</time>
      </trkpt>
      <trkpt lat="45.17792" lon="6.36786">
        <ele>2580.3999023438</ele>
        <time>2014-01-11T11:35:00.000Z</time>
      </trkpt>
      <trkpt lat="45.17792" lon="6.36786">
        <ele>2580.3999023438</ele>
        <time>2014-01-11T11:35:01.000Z</time>
      </trkpt>
      <trkpt lat="45.17792" lon="6.36786">
        <ele>2580.3999023438</ele>
        <time>2014-01-11T11:35:05.000Z</time>
      </trkpt>
      <trkpt lat="45.17792" lon="6.36786">
        <ele>2580.3999023438</ele>
        <time>2014-01-11T11:35:06.000Z</time>
      </trkpt>
      <trkpt lat="45.17792" lon="6.36786">
        <ele>2580.3999023438</ele>
        <time>2014-01-11T11:35:09.000Z</time>
      </trkpt>
      <trkpt lat="45.17792" lon="6.36786">
        <ele>2580.3999023438</ele>
        <time>2014-01-11T11:35:12.000Z</time>
      </trkpt>
      <trkpt lat="45.17792" lon="6.36786">
        <ele>2580.3999023438</ele>
        <time>2014-01-11T11:35:15.000Z</time>
      </trkpt>
      <trkpt lat="45.17792" lon="6.36786">
        <ele>2580.3999023438</ele>
        <time>2014-01-11T11:35:19.000Z</time>
      </trkpt>
      <trkpt lat="45.17792" lon="6.36786">
        <ele>2580.3999023438</ele>
        <time>2014-01-11T11:35:22.000Z</time>
      </trkpt>
      <trkpt lat="45.17792" lon="6.36786">
        <ele>2580.3999023438</ele>
        <time>2014-01-11T11:35:23.000Z</time>
      </trkpt>
      <trkpt lat="45.17792" lon="6.36786">
        <ele>2580.3999023438</ele>
        <time>2014-01-11T11:35:24.000Z</time>
      </trkpt>
      <trkpt lat="45.17792" lon="6.36786">
        <ele>2580.3999023438</ele>
        <time>2014-01-11T11:35:27.000Z</time>
      </trkpt>
      <trkpt lat="45.17792" lon="6.36786">
        <ele>2580.3999023438</ele>
        <time>2014-01-11T11:35:28.000Z</time>
      </trkpt>
      <trkpt lat="45.17792" lon="6.36786">
        <ele>2580.3999023438</ele>
        <time>2014-01-11T11:35:29.000Z</time>
      </trkpt>
      <trkpt lat="45.17792" lon="6.36786">
        <ele>2580.3999023438</ele>
        <time>2014-01-11T11:35:30.000Z</time>
      </trkpt>
      <trkpt lat="45.17792" lon="6.36786">
        <ele>2580.1999511719</ele>
        <time>2014-01-11T11:35:31.000Z</time>
      </trkpt>
      <trkpt lat="45.17792" lon="6.36786">
        <ele>2580.1999511719</ele>
        <time>2014-01-11T11:35:32.000Z</time>
      </trkpt>
      <trkpt lat="45.17792" lon="6.36786">
        <ele>2580.1999511719</ele>
        <time>2014-01-11T11:35:33.000Z</time>
      </trkpt>
      <trkpt lat="45.17792" lon="6.36786">
        <ele>2580.1999511719</ele>
        <time>2014-01-11T11:35:34.000Z</time>
      </trkpt>
      <trkpt lat="45.17792" lon="6.36786">
        <ele>2580.1999511719</ele>
        <time>2014-01-11T11:35:35.000Z</time>
      </trkpt>
      <trkpt lat="45.17792" lon="6.36786">
        <ele>2580.3999023438</ele>
        <time>2014-01-11T11:35:36.000Z</time>
      </trkpt>
      <trkpt lat="45.17792" lon="6.36786">
        <ele>2580.3999023438</ele>
        <time>2014-01-11T11:35:37.000Z</time>
      </trkpt>
      <trkpt lat="45.17792" lon="6.36786">
        <ele>2580.3999023438</ele>
        <time>2014-01-11T11:35:38.000Z</time>
      </trkpt>
      <trkpt lat="45.17792" lon="6.36786">
        <ele>2580.3999023438</ele>
        <time>2014-01-11T11:35:39.000Z</time>
      </trkpt>
      <trkpt lat="45.17792" lon="6.36786">
        <ele>2580.6000976562</ele>
        <time>2014-01-11T11:35:40.000Z</time>
      </trkpt>
      <trkpt lat="45.17792" lon="6.36786">
        <ele>2580.8000488281</ele>
        <time>2014-01-11T11:35:41.000Z</time>
      </trkpt>
      <trkpt lat="45.17792" lon="6.36786">
        <ele>2580.8000488281</ele>
        <time>2014-01-11T11:35:42.000Z</time>
      </trkpt>
      <trkpt lat="45.17792" lon="6.36786">
        <ele>2580.8000488281</ele>
        <time>2014-01-11T11:35:43.000Z</time>
      </trkpt>
      <trkpt lat="45.17792" lon="6.36786">
        <ele>2581</ele>
        <time>2014-01-11T11:35:44.000Z</time>
      </trkpt>
      <trkpt lat="45.17792" lon="6.36786">
        <ele>2581</ele>
        <time>2014-01-11T11:35:45.000Z</time>
      </trkpt>
      <trkpt lat="45.17792" lon="6.36786">
        <ele>2581</ele>
        <time>2014-01-11T11:35:46.000Z</time>
      </trkpt>
      <trkpt lat="45.17792" lon="6.36786">
        <ele>2581</ele>
        <time>2014-01-11T11:35:54.000Z</time>
      </trkpt>
      <trkpt lat="45.17792" lon="6.36786">
        <ele>2581</ele>
        <time>2014-01-11T11:35:55.000Z</time>
      </trkpt>
      <trkpt lat="45.17792" lon="6.36786">
        <ele>2581</ele>
        <time>2014-01-11T11:35:56.000Z</time>
      </trkpt>
      <trkpt lat="45.17793" lon="6.36787">
        <ele>2581</ele>
        <time>2014-01-11T11:35:59.000Z</time>
      </trkpt>
      <trkpt lat="45.17793" lon="6.36787">
        <ele>2581</ele>
        <time>2014-01-11T11:36:01.000Z</time>
      </trkpt>
      <trkpt lat="45.17793" lon="6.36787">
        <ele>2581</ele>
        <time>2014-01-11T11:36:02.000Z</time>
      </trkpt>
      <trkpt lat="45.17793" lon="6.36788">
        <ele>2581</ele>
        <time>2014-01-11T11:36:03.000Z</time>
      </trkpt>
      <trkpt lat="45.17793" lon="6.36788">
        <ele>2581</ele>
        <time>2014-01-11T11:36:04.000Z</time>
      </trkpt>
      <trkpt lat="45.17793" lon="6.36788">
        <ele>2581</ele>
        <time>2014-01-11T11:36:05.000Z</time>
      </trkpt>
      <trkpt lat="45.17793" lon="6.36788">
        <ele>2581.1999511719</ele>
        <time>2014-01-11T11:36:06.000Z</time>
      </trkpt>
      <trkpt lat="45.17793" lon="6.36788">
        <ele>2581.1999511719</ele>
        <time>2014-01-11T11:36:07.000Z</time>
      </trkpt>
      <trkpt lat="45.17793" lon="6.36788">
        <ele>2581.1999511719</ele>
        <time>2014-01-11T11:36:08.000Z</time>
      </trkpt>
      <trkpt lat="45.17793" lon="6.36788">
        <ele>2581.1999511719</ele>
        <time>2014-01-11T11:36:09.000Z</time>
      </trkpt>
      <trkpt lat="45.17793" lon="6.36788">
        <ele>2581.3999023438</ele>
        <time>2014-01-11T11:36:10.000Z</time>
      </trkpt>
      <trkpt lat="45.17793" lon="6.36788">
        <ele>2581.3999023438</ele>
        <time>2014-01-11T11:36:11.000Z</time>
      </trkpt>
      <trkpt lat="45.17793" lon="6.36788">
        <ele>2581.1999511719</ele>
        <time>2014-01-11T11:36:12.000Z</time>
      </trkpt>
      <trkpt lat="45.17793" lon="6.36788">
        <ele>2581.1999511719</ele>
        <time>2014-01-11T11:36:13.000Z</time>
      </trkpt>
      <trkpt lat="45.17793" lon="6.36788">
        <ele>2581.1999511719</ele>
        <time>2014-01-11T11:36:14.000Z</time>
      </trkpt>
      <trkpt lat="45.17793" lon="6.36788">
        <ele>2581.1999511719</ele>
        <time>2014-01-11T11:36:15.000Z</time>
      </trkpt>
      <trkpt lat="45.17793" lon="6.36788">
        <ele>2581.1999511719</ele>
        <time>2014-01-11T11:36:16.000Z</time>
      </trkpt>
      <trkpt lat="45.17793" lon="6.36788">
        <ele>2581.1999511719</ele>
        <time>2014-01-11T11:36:17.000Z</time>
      </trkpt>
      <trkpt lat="45.17793" lon="6.36788">
        <ele>2581.1999511719</ele>
        <time>2014-01-11T11:36:18.000Z</time>
      </trkpt>
      <trkpt lat="45.17793" lon="6.36788">
        <ele>2581.1999511719</ele>
        <time>2014-01-11T11:36:19.000Z</time>
      </trkpt>
      <trkpt lat="45.17793" lon="6.36788">
        <ele>2581.1999511719</ele>
        <time>2014-01-11T11:36:21.000Z</time>
      </trkpt>
      <trkpt lat="45.17793" lon="6.36788">
        <ele>2581.1999511719</ele>
        <time>2014-01-11T11:36:24.000Z</time>
      </trkpt>
      <trkpt lat="45.17793" lon="6.36788">
        <ele>2581.1999511719</ele>
        <time>2014-01-11T11:36:25.000Z</time>
      </trkpt>
      <trkpt lat="45.17793" lon="6.36788">
        <ele>2581.1999511719</ele>
        <time>2014-01-11T11:36:27.000Z</time>
      </trkpt>
      <trkpt lat="45.17793" lon="6.36788">
        <ele>2581.1999511719</ele>
        <time>2014-01-11T11:36:28.000Z</time>
      </trkpt>
      <trkpt lat="45.17793" lon="6.36788">
        <ele>2581.1999511719</ele>
        <time>2014-01-11T11:36:29.000Z</time>
      </trkpt>
      <trkpt lat="45.17793" lon="6.36788">
        <ele>2581.1999511719</ele>
        <time>2014-01-11T11:36:30.000Z</time>
      </trkpt>
      <trkpt lat="45.17793" lon="6.36788">
        <ele>2581.3999023438</ele>
        <time>2014-01-11T11:36:31.000Z</time>
      </trkpt>
      <trkpt lat="45.17793" lon="6.36788">
        <ele>2581.3999023438</ele>
        <time>2014-01-11T11:36:32.000Z</time>
      </trkpt>
      <trkpt lat="45.17794" lon="6.36788">
        <ele>2581.3999023438</ele>
        <time>2014-01-11T11:36:33.000Z</time>
      </trkpt>
      <trkpt lat="45.17794" lon="6.36789">
        <ele>2581.3999023438</ele>
        <time>2014-01-11T11:36:34.000Z</time>
      </trkpt>
      <trkpt lat="45.17794" lon="6.3679">
        <ele>2581.6000976562</ele>
        <time>2014-01-11T11:36:35.000Z</time>
      </trkpt>
      <trkpt lat="45.17794" lon="6.3679">
        <ele>2581.6000976562</ele>
        <time>2014-01-11T11:36:36.000Z</time>
      </trkpt>
      <trkpt lat="45.17794" lon="6.3679">
        <ele>2581.6000976562</ele>
        <time>2014-01-11T11:36:37.000Z</time>
      </trkpt>
      <trkpt lat="45.17794" lon="6.3679">
        <ele>2581.8000488281</ele>
        <time>2014-01-11T11:36:38.000Z</time>
      </trkpt>
      <trkpt lat="45.17794" lon="6.3679">
        <ele>2582</ele>
        <time>2014-01-11T11:36:39.000Z</time>
      </trkpt>
      <trkpt lat="45.17794" lon="6.3679">
        <ele>2582.1999511719</ele>
        <time>2014-01-11T11:36:40.000Z</time>
      </trkpt>
      <trkpt lat="45.17794" lon="6.3679">
        <ele>2582.3999023438</ele>
        <time>2014-01-11T11:36:41.000Z</time>
      </trkpt>
      <trkpt lat="45.17794" lon="6.3679">
        <ele>2582.3999023438</ele>
        <time>2014-01-11T11:36:42.000Z</time>
      </trkpt>
      <trkpt lat="45.17794" lon="6.3679">
        <ele>2582.3999023438</ele>
        <time>2014-01-11T11:36:43.000Z</time>
      </trkpt>
      <trkpt lat="45.17794" lon="6.3679">
        <ele>2582.3999023438</ele>
        <time>2014-01-11T11:36:44.000Z</time>
      </trkpt>
      <trkpt lat="45.17794" lon="6.3679">
        <ele>2582.3999023438</ele>
        <time>2014-01-11T11:36:45.000Z</time>
      </trkpt>
      <trkpt lat="45.17794" lon="6.3679">
        <ele>2582.3999023438</ele>
        <time>2014-01-11T11:36:47.000Z</time>
      </trkpt>
      <trkpt lat="45.17794" lon="6.3679">
        <ele>2582.3999023438</ele>
        <time>2014-01-11T11:36:48.000Z</time>
      </trkpt>
      <trkpt lat="45.17794" lon="6.3679">
        <ele>2582.3999023438</ele>
        <time>2014-01-11T11:36:49.000Z</time>
      </trkpt>
      <trkpt lat="45.17794" lon="6.3679">
        <ele>2582.6000976562</ele>
        <time>2014-01-11T11:36:50.000Z</time>
      </trkpt>
      <trkpt lat="45.17794" lon="6.3679">
        <ele>2582.6000976562</ele>
        <time>2014-01-11T11:36:51.000Z</time>
      </trkpt>
      <trkpt lat="45.17794" lon="6.3679">
        <ele>2582.6000976562</ele>
        <time>2014-01-11T11:36:52.000Z</time>
      </trkpt>
      <trkpt lat="45.17794" lon="6.3679">
        <ele>2582.6000976562</ele>
        <time>2014-01-11T11:36:56.000Z</time>
      </trkpt>
      <trkpt lat="45.17794" lon="6.3679">
        <ele>2582.6000976562</ele>
        <time>2014-01-11T11:36:57.000Z</time>
      </trkpt>
      <trkpt lat="45.17794" lon="6.3679">
        <ele>2582.6000976562</ele>
        <time>2014-01-11T11:36:58.000Z</time>
      </trkpt>
      <trkpt lat="45.17794" lon="6.3679">
        <ele>2582.6000976562</ele>
        <time>2014-01-11T11:37:00.000Z</time>
      </trkpt>
      <trkpt lat="45.17794" lon="6.3679">
        <ele>2582.6000976562</ele>
        <time>2014-01-11T11:37:05.000Z</time>
      </trkpt>
      <trkpt lat="45.17794" lon="6.3679">
        <ele>2582.6000976562</ele>
        <time>2014-01-11T11:37:06.000Z</time>
      </trkpt>
      <trkpt lat="45.17794" lon="6.3679">
        <ele>2582.6000976562</ele>
        <time>2014-01-11T11:37:07.000Z</time>
      </trkpt>
      <trkpt lat="45.17794" lon="6.3679">
        <ele>2582.6000976562</ele>
        <time>2014-01-11T11:37:08.000Z</time>
      </trkpt>
      <trkpt lat="45.17794" lon="6.3679">
        <ele>2582.6000976562</ele>
        <time>2014-01-11T11:37:09.000Z</time>
      </trkpt>
      <trkpt lat="45.17794" lon="6.3679">
        <ele>2582.6000976562</ele>
        <time>2014-01-11T11:37:10.000Z</time>
      </trkpt>
      <trkpt lat="45.17794" lon="6.3679">
        <ele>2582.6000976562</ele>
        <time>2014-01-11T11:37:11.000Z</time>
      </trkpt>
      <trkpt lat="45.17793" lon="6.3679">
        <ele>2582.6000976562</ele>
        <time>2014-01-11T11:37:12.000Z</time>
      </trkpt>
      <trkpt lat="45.17793" lon="6.3679">
        <ele>2582.6000976562</ele>
        <time>2014-01-11T11:37:13.000Z</time>
      </trkpt>
      <trkpt lat="45.17793" lon="6.36791">
        <ele>2582.6000976562</ele>
        <time>2014-01-11T11:37:14.000Z</time>
      </trkpt>
      <trkpt lat="45.17793" lon="6.36791">
        <ele>2582.6000976562</ele>
        <time>2014-01-11T11:37:15.000Z</time>
      </trkpt>
      <trkpt lat="45.17793" lon="6.36791">
        <ele>2582.8000488281</ele>
        <time>2014-01-11T11:37:16.000Z</time>
      </trkpt>
      <trkpt lat="45.17793" lon="6.36791">
        <ele>2583</ele>
        <time>2014-01-11T11:37:17.000Z</time>
      </trkpt>
      <trkpt lat="45.17792" lon="6.3679">
        <ele>2583.1999511719</ele>
        <time>2014-01-11T11:37:18.000Z</time>
      </trkpt>
      <trkpt lat="45.17792" lon="6.3679">
        <ele>2583.3999023438</ele>
        <time>2014-01-11T11:37:19.000Z</time>
      </trkpt>
      <trkpt lat="45.17791" lon="6.36791">
        <ele>2583.6000976562</ele>
        <time>2014-01-11T11:37:20.000Z</time>
      </trkpt>
      <trkpt lat="45.17791" lon="6.36791">
        <ele>2583.6000976562</ele>
        <time>2014-01-11T11:37:21.000Z</time>
      </trkpt>
      <trkpt lat="45.1779" lon="6.3679">
        <ele>2583.6000976562</ele>
        <time>2014-01-11T11:37:22.000Z</time>
      </trkpt>
      <trkpt lat="45.1779" lon="6.36791">
        <ele>2583.8000488281</ele>
        <time>2014-01-11T11:37:23.000Z</time>
      </trkpt>
      <trkpt lat="45.1779" lon="6.36791">
        <ele>2584</ele>
        <time>2014-01-11T11:37:24.000Z</time>
      </trkpt>
      <trkpt lat="45.1779" lon="6.36791">
        <ele>2584.1999511719</ele>
        <time>2014-01-11T11:37:25.000Z</time>
      </trkpt>
      <trkpt lat="45.1779" lon="6.36791">
        <ele>2584.3999023438</ele>
        <time>2014-01-11T11:37:26.000Z</time>
      </trkpt>
      <trkpt lat="45.17789" lon="6.36791">
        <ele>2584.6000976562</ele>
        <time>2014-01-11T11:37:27.000Z</time>
      </trkpt>
      <trkpt lat="45.17789" lon="6.36791">
        <ele>2584.8000488281</ele>
        <time>2014-01-11T11:37:28.000Z</time>
      </trkpt>
      <trkpt lat="45.17788" lon="6.36791">
        <ele>2585</ele>
        <time>2014-01-11T11:37:29.000Z</time>
      </trkpt>
      <trkpt lat="45.17788" lon="6.36791">
        <ele>2585.1999511719</ele>
        <time>2014-01-11T11:37:30.000Z</time>
      </trkpt>
      <trkpt lat="45.17787" lon="6.36791">
        <ele>2585.3999023438</ele>
        <time>2014-01-11T11:37:31.000Z</time>
      </trkpt>
      <trkpt lat="45.17787" lon="6.36791">
        <ele>2585.6000976562</ele>
        <time>2014-01-11T11:37:32.000Z</time>
      </trkpt>
      <trkpt lat="45.17787" lon="6.36791">
        <ele>2585.8000488281</ele>
        <time>2014-01-11T11:37:33.000Z</time>
      </trkpt>
      <trkpt lat="45.17786" lon="6.36791">
        <ele>2585.8000488281</ele>
        <time>2014-01-11T11:37:34.000Z</time>
      </trkpt>
      <trkpt lat="45.17786" lon="6.36791">
        <ele>2586</ele>
        <time>2014-01-11T11:37:35.000Z</time>
      </trkpt>
      <trkpt lat="45.17785" lon="6.36791">
        <ele>2586</ele>
        <time>2014-01-11T11:37:36.000Z</time>
      </trkpt>
      <trkpt lat="45.17784" lon="6.36791">
        <ele>2586.1999511719</ele>
        <time>2014-01-11T11:37:37.000Z</time>
      </trkpt>
      <trkpt lat="45.17784" lon="6.36791">
        <ele>2586.6000976562</ele>
        <time>2014-01-11T11:37:38.000Z</time>
      </trkpt>
      <trkpt lat="45.17784" lon="6.36792">
        <ele>2586.8000488281</ele>
        <time>2014-01-11T11:37:39.000Z</time>
      </trkpt>
      <trkpt lat="45.17784" lon="6.36792">
        <ele>2586.8000488281</ele>
        <time>2014-01-11T11:37:40.000Z</time>
      </trkpt>
      <trkpt lat="45.17783" lon="6.36792">
        <ele>2587</ele>
        <time>2014-01-11T11:37:41.000Z</time>
      </trkpt>
      <trkpt lat="45.17783" lon="6.36791">
        <ele>2587.1999511719</ele>
        <time>2014-01-11T11:37:42.000Z</time>
      </trkpt>
      <trkpt lat="45.17783" lon="6.3679">
        <ele>2587.3999023438</ele>
        <time>2014-01-11T11:37:43.000Z</time>
      </trkpt>
      <trkpt lat="45.17783" lon="6.3679">
        <ele>2587.6000976562</ele>
        <time>2014-01-11T11:37:44.000Z</time>
      </trkpt>
      <trkpt lat="45.17783" lon="6.3679">
        <ele>2587.6000976562</ele>
        <time>2014-01-11T11:37:45.000Z</time>
      </trkpt>
      <trkpt lat="45.17783" lon="6.3679">
        <ele>2587.8000488281</ele>
        <time>2014-01-11T11:37:46.000Z</time>
      </trkpt>
      <trkpt lat="45.17783" lon="6.3679">
        <ele>2587.8000488281</ele>
        <time>2014-01-11T11:37:47.000Z</time>
      </trkpt>
      <trkpt lat="45.17783" lon="6.3679">
        <ele>2587.8000488281</ele>
        <time>2014-01-11T11:37:48.000Z</time>
      </trkpt>
      <trkpt lat="45.17783" lon="6.3679">
        <ele>2587.6000976562</ele>
        <time>2014-01-11T11:37:49.000Z</time>
      </trkpt>
      <trkpt lat="45.17783" lon="6.36791">
        <ele>2587.6000976562</ele>
        <time>2014-01-11T11:37:50.000Z</time>
      </trkpt>
      <trkpt lat="45.17783" lon="6.36792">
        <ele>2587.6000976562</ele>
        <time>2014-01-11T11:37:51.000Z</time>
      </trkpt>
      <trkpt lat="45.17783" lon="6.36792">
        <ele>2587.6000976562</ele>
        <time>2014-01-11T11:37:52.000Z</time>
      </trkpt>
      <trkpt lat="45.17783" lon="6.36793">
        <ele>2587.6000976562</ele>
        <time>2014-01-11T11:37:53.000Z</time>
      </trkpt>
      <trkpt lat="45.17783" lon="6.36793">
        <ele>2587.8000488281</ele>
        <time>2014-01-11T11:37:54.000Z</time>
      </trkpt>
      <trkpt lat="45.17783" lon="6.36793">
        <ele>2588</ele>
        <time>2014-01-11T11:37:55.000Z</time>
      </trkpt>
      <trkpt lat="45.17783" lon="6.36793">
        <ele>2588</ele>
        <time>2014-01-11T11:37:56.000Z</time>
      </trkpt>
      <trkpt lat="45.17784" lon="6.36793">
        <ele>2588.1999511719</ele>
        <time>2014-01-11T11:37:57.000Z</time>
      </trkpt>
      <trkpt lat="45.17784" lon="6.36794">
        <ele>2588.3999023438</ele>
        <time>2014-01-11T11:37:58.000Z</time>
      </trkpt>
      <trkpt lat="45.17785" lon="6.36795">
        <ele>2588.6000976562</ele>
        <time>2014-01-11T11:37:59.000Z</time>
      </trkpt>
      <trkpt lat="45.17785" lon="6.36795">
        <ele>2588.6000976562</ele>
        <time>2014-01-11T11:38:00.000Z</time>
      </trkpt>
      <trkpt lat="45.17785" lon="6.36796">
        <ele>2588.8000488281</ele>
        <time>2014-01-11T11:38:01.000Z</time>
      </trkpt>
      <trkpt lat="45.17786" lon="6.36797">
        <ele>2588.8000488281</ele>
        <time>2014-01-11T11:38:02.000Z</time>
      </trkpt>
      <trkpt lat="45.17786" lon="6.36798">
        <ele>2588.8000488281</ele>
        <time>2014-01-11T11:38:03.000Z</time>
      </trkpt>
      <trkpt lat="45.17786" lon="6.36798">
        <ele>2589</ele>
        <time>2014-01-11T11:38:04.000Z</time>
      </trkpt>
      <trkpt lat="45.17786" lon="6.36799">
        <ele>2589</ele>
        <time>2014-01-11T11:38:05.000Z</time>
      </trkpt>
      <trkpt lat="45.17786" lon="6.368">
        <ele>2589.1999511719</ele>
        <time>2014-01-11T11:38:06.000Z</time>
      </trkpt>
      <trkpt lat="45.17786" lon="6.36801">
        <ele>2589.1999511719</ele>
        <time>2014-01-11T11:38:07.000Z</time>
      </trkpt>
      <trkpt lat="45.17787" lon="6.36802">
        <ele>2589.3999023438</ele>
        <time>2014-01-11T11:38:08.000Z</time>
      </trkpt>
      <trkpt lat="45.17787" lon="6.36803">
        <ele>2589.3999023438</ele>
        <time>2014-01-11T11:38:09.000Z</time>
      </trkpt>
      <trkpt lat="45.17787" lon="6.36803">
        <ele>2589.6000976562</ele>
        <time>2014-01-11T11:38:10.000Z</time>
      </trkpt>
      <trkpt lat="45.17787" lon="6.36804">
        <ele>2589.6000976562</ele>
        <time>2014-01-11T11:38:11.000Z</time>
      </trkpt>
      <trkpt lat="45.17788" lon="6.36804">
        <ele>2589.8000488281</ele>
        <time>2014-01-11T11:38:12.000Z</time>
      </trkpt>
      <trkpt lat="45.17788" lon="6.36805">
        <ele>2589.8000488281</ele>
        <time>2014-01-11T11:38:13.000Z</time>
      </trkpt>
      <trkpt lat="45.17788" lon="6.36805">
        <ele>2590</ele>
        <time>2014-01-11T11:38:14.000Z</time>
      </trkpt>
      <trkpt lat="45.17788" lon="6.36805">
        <ele>2590</ele>
        <time>2014-01-11T11:38:15.000Z</time>
      </trkpt>
      <trkpt lat="45.17789" lon="6.36806">
        <ele>2590.1999511719</ele>
        <time>2014-01-11T11:38:16.000Z</time>
      </trkpt>
      <trkpt lat="45.17789" lon="6.36807">
        <ele>2590.3999023438</ele>
        <time>2014-01-11T11:38:17.000Z</time>
      </trkpt>
      <trkpt lat="45.1779" lon="6.36807">
        <ele>2590.6000976562</ele>
        <time>2014-01-11T11:38:18.000Z</time>
      </trkpt>
      <trkpt lat="45.1779" lon="6.36808">
        <ele>2590.8000488281</ele>
        <time>2014-01-11T11:38:19.000Z</time>
      </trkpt>
      <trkpt lat="45.17791" lon="6.36808">
        <ele>2591</ele>
        <time>2014-01-11T11:38:20.000Z</time>
      </trkpt>
      <trkpt lat="45.17791" lon="6.36808">
        <ele>2591</ele>
        <time>2014-01-11T11:38:21.000Z</time>
      </trkpt>
      <trkpt lat="45.17791" lon="6.36809">
        <ele>2591</ele>
        <time>2014-01-11T11:38:22.000Z</time>
      </trkpt>
      <trkpt lat="45.17792" lon="6.36809">
        <ele>2591</ele>
        <time>2014-01-11T11:38:23.000Z</time>
      </trkpt>
      <trkpt lat="45.17792" lon="6.36809">
        <ele>2591.1999511719</ele>
        <time>2014-01-11T11:38:24.000Z</time>
      </trkpt>
      <trkpt lat="45.17793" lon="6.3681">
        <ele>2591.1999511719</ele>
        <time>2014-01-11T11:38:25.000Z</time>
      </trkpt>
      <trkpt lat="45.17793" lon="6.3681">
        <ele>2591.3999023438</ele>
        <time>2014-01-11T11:38:26.000Z</time>
      </trkpt>
      <trkpt lat="45.17794" lon="6.36811">
        <ele>2591.6000976562</ele>
        <time>2014-01-11T11:38:27.000Z</time>
      </trkpt>
      <trkpt lat="45.17794" lon="6.36812">
        <ele>2591.6000976562</ele>
        <time>2014-01-11T11:38:28.000Z</time>
      </trkpt>
      <trkpt lat="45.17794" lon="6.36812">
        <ele>2591.8000488281</ele>
        <time>2014-01-11T11:38:29.000Z</time>
      </trkpt>
      <trkpt lat="45.17794" lon="6.36812">
        <ele>2591.8000488281</ele>
        <time>2014-01-11T11:38:30.000Z</time>
      </trkpt>
      <trkpt lat="45.17794" lon="6.36812">
        <ele>2592</ele>
        <time>2014-01-11T11:38:31.000Z</time>
      </trkpt>
      <trkpt lat="45.17794" lon="6.36812">
        <ele>2592.1999511719</ele>
        <time>2014-01-11T11:38:32.000Z</time>
      </trkpt>
      <trkpt lat="45.17794" lon="6.36812">
        <ele>2592.3999023438</ele>
        <time>2014-01-11T11:38:33.000Z</time>
      </trkpt>
      <trkpt lat="45.17794" lon="6.36812">
        <ele>2592.3999023438</ele>
        <time>2014-01-11T11:38:34.000Z</time>
      </trkpt>
      <trkpt lat="45.17794" lon="6.36812">
        <ele>2592.3999023438</ele>
        <time>2014-01-11T11:38:35.000Z</time>
      </trkpt>
      <trkpt lat="45.17794" lon="6.36812">
        <ele>2592.6000976562</ele>
        <time>2014-01-11T11:38:36.000Z</time>
      </trkpt>
      <trkpt lat="45.17794" lon="6.36812">
        <ele>2592.6000976562</ele>
        <time>2014-01-11T11:38:37.000Z</time>
      </trkpt>
      <trkpt lat="45.17794" lon="6.36812">
        <ele>2592.6000976562</ele>
        <time>2014-01-11T11:38:38.000Z</time>
      </trkpt>
      <trkpt lat="45.17794" lon="6.36812">
        <ele>2592.6000976562</ele>
        <time>2014-01-11T11:38:39.000Z</time>
      </trkpt>
      <trkpt lat="45.17794" lon="6.36812">
        <ele>2592.6000976562</ele>
        <time>2014-01-11T11:38:40.000Z</time>
      </trkpt>
      <trkpt lat="45.17794" lon="6.36812">
        <ele>2592.6000976562</ele>
        <time>2014-01-11T11:38:41.000Z</time>
      </trkpt>
      <trkpt lat="45.17794" lon="6.36812">
        <ele>2592.6000976562</ele>
        <time>2014-01-11T11:38:42.000Z</time>
      </trkpt>
      <trkpt lat="45.17794" lon="6.36812">
        <ele>2592.6000976562</ele>
        <time>2014-01-11T11:38:43.000Z</time>
      </trkpt>
      <trkpt lat="45.17794" lon="6.36812">
        <ele>2592.6000976562</ele>
        <time>2014-01-11T11:38:46.000Z</time>
      </trkpt>
      <trkpt lat="45.17794" lon="6.36812">
        <ele>2592.6000976562</ele>
        <time>2014-01-11T11:38:47.000Z</time>
      </trkpt>
      <trkpt lat="45.17794" lon="6.36812">
        <ele>2592.6000976562</ele>
        <time>2014-01-11T11:38:48.000Z</time>
      </trkpt>
      <trkpt lat="45.17794" lon="6.36812">
        <ele>2592.6000976562</ele>
        <time>2014-01-11T11:38:49.000Z</time>
      </trkpt>
      <trkpt lat="45.17794" lon="6.36812">
        <ele>2592.6000976562</ele>
        <time>2014-01-11T11:38:52.000Z</time>
      </trkpt>
      <trkpt lat="45.17794" lon="6.36812">
        <ele>2592.6000976562</ele>
        <time>2014-01-11T11:38:53.000Z</time>
      </trkpt>
      <trkpt lat="45.17794" lon="6.36812">
        <ele>2592.6000976562</ele>
        <time>2014-01-11T11:38:54.000Z</time>
      </trkpt>
      <trkpt lat="45.17794" lon="6.36812">
        <ele>2592.6000976562</ele>
        <time>2014-01-11T11:38:55.000Z</time>
      </trkpt>
      <trkpt lat="45.17794" lon="6.36812">
        <ele>2592.6000976562</ele>
        <time>2014-01-11T11:38:57.000Z</time>
      </trkpt>
      <trkpt lat="45.17794" lon="6.36812">
        <ele>2592.6000976562</ele>
        <time>2014-01-11T11:38:58.000Z</time>
      </trkpt>
      <trkpt lat="45.17794" lon="6.36812">
        <ele>2592.6000976562</ele>
        <time>2014-01-11T11:38:59.000Z</time>
      </trkpt>
      <trkpt lat="45.17794" lon="6.36812">
        <ele>2592.6000976562</ele>
        <time>2014-01-11T11:39:00.000Z</time>
      </trkpt>
      <trkpt lat="45.17794" lon="6.36812">
        <ele>2592.6000976562</ele>
        <time>2014-01-11T11:39:01.000Z</time>
      </trkpt>
      <trkpt lat="45.17794" lon="6.36812">
        <ele>2592.6000976562</ele>
        <time>2014-01-11T11:39:02.000Z</time>
      </trkpt>
      <trkpt lat="45.17794" lon="6.36812">
        <ele>2592.6000976562</ele>
        <time>2014-01-11T11:39:03.000Z</time>
      </trkpt>
      <trkpt lat="45.17794" lon="6.36812">
        <ele>2592.6000976562</ele>
        <time>2014-01-11T11:39:06.000Z</time>
      </trkpt>
      <trkpt lat="45.17794" lon="6.36812">
        <ele>2592.6000976562</ele>
        <time>2014-01-11T11:39:07.000Z</time>
      </trkpt>
      <trkpt lat="45.17794" lon="6.36812">
        <ele>2592.6000976562</ele>
        <time>2014-01-11T11:39:08.000Z</time>
      </trkpt>
      <trkpt lat="45.17794" lon="6.36812">
        <ele>2592.6000976562</ele>
        <time>2014-01-11T11:39:11.000Z</time>
      </trkpt>
      <trkpt lat="45.17794" lon="6.36812">
        <ele>2592.6000976562</ele>
        <time>2014-01-11T11:39:12.000Z</time>
      </trkpt>
      <trkpt lat="45.17794" lon="6.36812">
        <ele>2592.8000488281</ele>
        <time>2014-01-11T11:39:13.000Z</time>
      </trkpt>
      <trkpt lat="45.17794" lon="6.36812">
        <ele>2592.8000488281</ele>
        <time>2014-01-11T11:39:14.000Z</time>
      </trkpt>
      <trkpt lat="45.17794" lon="6.36812">
        <ele>2592.8000488281</ele>
        <time>2014-01-11T11:39:15.000Z</time>
      </trkpt>
      <trkpt lat="45.17794" lon="6.36812">
        <ele>2592.8000488281</ele>
        <time>2014-01-11T11:39:16.000Z</time>
      </trkpt>
      <trkpt lat="45.17794" lon="6.36812">
        <ele>2592.8000488281</ele>
        <time>2014-01-11T11:39:17.000Z</time>
      </trkpt>
      <trkpt lat="45.17794" lon="6.36812">
        <ele>2592.8000488281</ele>
        <time>2014-01-11T11:39:18.000Z</time>
      </trkpt>
      <trkpt lat="45.17794" lon="6.36812">
        <ele>2592.8000488281</ele>
        <time>2014-01-11T11:39:19.000Z</time>
      </trkpt>
      <trkpt lat="45.17794" lon="6.36812">
        <ele>2592.6000976562</ele>
        <time>2014-01-11T11:39:20.000Z</time>
      </trkpt>
      <trkpt lat="45.17794" lon="6.36812">
        <ele>2592.6000976562</ele>
        <time>2014-01-11T11:39:21.000Z</time>
      </trkpt>
      <trkpt lat="45.17794" lon="6.36812">
        <ele>2592.6000976562</ele>
        <time>2014-01-11T11:39:22.000Z</time>
      </trkpt>
      <trkpt lat="45.17794" lon="6.36812">
        <ele>2592.6000976562</ele>
        <time>2014-01-11T11:39:25.000Z</time>
      </trkpt>
      <trkpt lat="45.17794" lon="6.36812">
        <ele>2592.6000976562</ele>
        <time>2014-01-11T11:39:26.000Z</time>
      </trkpt>
      <trkpt lat="45.17794" lon="6.36812">
        <ele>2592.6000976562</ele>
        <time>2014-01-11T11:39:27.000Z</time>
      </trkpt>
      <trkpt lat="45.17794" lon="6.36812">
        <ele>2592.6000976562</ele>
        <time>2014-01-11T11:39:28.000Z</time>
      </trkpt>
      <trkpt lat="45.17794" lon="6.36812">
        <ele>2592.6000976562</ele>
        <time>2014-01-11T11:39:29.000Z</time>
      </trkpt>
      <trkpt lat="45.17794" lon="6.36812">
        <ele>2592.8000488281</ele>
        <time>2014-01-11T11:39:30.000Z</time>
      </trkpt>
      <trkpt lat="45.17794" lon="6.36812">
        <ele>2592.8000488281</ele>
        <time>2014-01-11T11:39:31.000Z</time>
      </trkpt>
      <trkpt lat="45.17794" lon="6.36812">
        <ele>2592.8000488281</ele>
        <time>2014-01-11T11:39:32.000Z</time>
      </trkpt>
      <trkpt lat="45.17794" lon="6.36811">
        <ele>2592.8000488281</ele>
        <time>2014-01-11T11:39:33.000Z</time>
      </trkpt>
      <trkpt lat="45.17794" lon="6.3681">
        <ele>2592.8000488281</ele>
        <time>2014-01-11T11:39:34.000Z</time>
      </trkpt>
      <trkpt lat="45.17795" lon="6.3681">
        <ele>2592.8000488281</ele>
        <time>2014-01-11T11:39:35.000Z</time>
      </trkpt>
      <trkpt lat="45.17795" lon="6.3681">
        <ele>2592.8000488281</ele>
        <time>2014-01-11T11:39:36.000Z</time>
      </trkpt>
      <trkpt lat="45.17796" lon="6.36811">
        <ele>2593</ele>
        <time>2014-01-11T11:39:37.000Z</time>
      </trkpt>
      <trkpt lat="45.17797" lon="6.36811">
        <ele>2593.1999511719</ele>
        <time>2014-01-11T11:39:38.000Z</time>
      </trkpt>
      <trkpt lat="45.17798" lon="6.36812">
        <ele>2593.1999511719</ele>
        <time>2014-01-11T11:39:39.000Z</time>
      </trkpt>
      <trkpt lat="45.17798" lon="6.36812">
        <ele>2593.3999023438</ele>
        <time>2014-01-11T11:39:40.000Z</time>
      </trkpt>
      <trkpt lat="45.17799" lon="6.36812">
        <ele>2593.6000976562</ele>
        <time>2014-01-11T11:39:41.000Z</time>
      </trkpt>
      <trkpt lat="45.17799" lon="6.36813">
        <ele>2593.6000976562</ele>
        <time>2014-01-11T11:39:42.000Z</time>
      </trkpt>
      <trkpt lat="45.178" lon="6.36814">
        <ele>2593.8000488281</ele>
        <time>2014-01-11T11:39:43.000Z</time>
      </trkpt>
      <trkpt lat="45.178" lon="6.36814">
        <ele>2593.8000488281</ele>
        <time>2014-01-11T11:39:44.000Z</time>
      </trkpt>
      <trkpt lat="45.178" lon="6.36816">
        <ele>2594</ele>
        <time>2014-01-11T11:39:45.000Z</time>
      </trkpt>
      <trkpt lat="45.17801" lon="6.36816">
        <ele>2594.1999511719</ele>
        <time>2014-01-11T11:39:46.000Z</time>
      </trkpt>
      <trkpt lat="45.17801" lon="6.36817">
        <ele>2594.3999023438</ele>
        <time>2014-01-11T11:39:47.000Z</time>
      </trkpt>
      <trkpt lat="45.17801" lon="6.36818">
        <ele>2594.6000976562</ele>
        <time>2014-01-11T11:39:48.000Z</time>
      </trkpt>
      <trkpt lat="45.17802" lon="6.36819">
        <ele>2594.8000488281</ele>
        <time>2014-01-11T11:39:49.000Z</time>
      </trkpt>
      <trkpt lat="45.17803" lon="6.36818">
        <ele>2594.8000488281</ele>
        <time>2014-01-11T11:39:50.000Z</time>
      </trkpt>
      <trkpt lat="45.17803" lon="6.36819">
        <ele>2595</ele>
        <time>2014-01-11T11:39:51.000Z</time>
      </trkpt>
      <trkpt lat="45.17804" lon="6.36819">
        <ele>2595.1999511719</ele>
        <time>2014-01-11T11:39:52.000Z</time>
      </trkpt>
      <trkpt lat="45.17804" lon="6.3682">
        <ele>2595.3999023438</ele>
        <time>2014-01-11T11:39:53.000Z</time>
      </trkpt>
      <trkpt lat="45.17805" lon="6.3682">
        <ele>2595.6000976562</ele>
        <time>2014-01-11T11:39:54.000Z</time>
      </trkpt>
      <trkpt lat="45.17805" lon="6.3682">
        <ele>2595.8000488281</ele>
        <time>2014-01-11T11:39:55.000Z</time>
      </trkpt>
      <trkpt lat="45.17805" lon="6.3682">
        <ele>2596.1999511719</ele>
        <time>2014-01-11T11:39:56.000Z</time>
      </trkpt>
      <trkpt lat="45.17806" lon="6.3682">
        <ele>2596.3999023438</ele>
        <time>2014-01-11T11:39:57.000Z</time>
      </trkpt>
      <trkpt lat="45.17807" lon="6.36821">
        <ele>2596.3999023438</ele>
        <time>2014-01-11T11:39:58.000Z</time>
      </trkpt>
      <trkpt lat="45.17807" lon="6.36821">
        <ele>2596.6000976562</ele>
        <time>2014-01-11T11:39:59.000Z</time>
      </trkpt>
      <trkpt lat="45.17807" lon="6.36822">
        <ele>2596.8000488281</ele>
        <time>2014-01-11T11:40:00.000Z</time>
      </trkpt>
      <trkpt lat="45.17807" lon="6.36823">
        <ele>2597</ele>
        <time>2014-01-11T11:40:01.000Z</time>
      </trkpt>
      <trkpt lat="45.17808" lon="6.36824">
        <ele>2597</ele>
        <time>2014-01-11T11:40:02.000Z</time>
      </trkpt>
      <trkpt lat="45.17808" lon="6.36824">
        <ele>2597.1999511719</ele>
        <time>2014-01-11T11:40:03.000Z</time>
      </trkpt>
      <trkpt lat="45.17808" lon="6.36825">
        <ele>2597.3999023438</ele>
        <time>2014-01-11T11:40:04.000Z</time>
      </trkpt>
      <trkpt lat="45.17809" lon="6.36825">
        <ele>2597.6000976562</ele>
        <time>2014-01-11T11:40:05.000Z</time>
      </trkpt>
      <trkpt lat="45.17809" lon="6.36825">
        <ele>2597.6000976562</ele>
        <time>2014-01-11T11:40:06.000Z</time>
      </trkpt>
      <trkpt lat="45.17809" lon="6.36825">
        <ele>2597.8000488281</ele>
        <time>2014-01-11T11:40:07.000Z</time>
      </trkpt>
      <trkpt lat="45.17809" lon="6.36825">
        <ele>2598</ele>
        <time>2014-01-11T11:40:08.000Z</time>
      </trkpt>
      <trkpt lat="45.1781" lon="6.36826">
        <ele>2598</ele>
        <time>2014-01-11T11:40:09.000Z</time>
      </trkpt>
      <trkpt lat="45.1781" lon="6.36826">
        <ele>2598.1999511719</ele>
        <time>2014-01-11T11:40:10.000Z</time>
      </trkpt>
      <trkpt lat="45.1781" lon="6.36827">
        <ele>2598.3999023438</ele>
        <time>2014-01-11T11:40:11.000Z</time>
      </trkpt>
      <trkpt lat="45.1781" lon="6.36827">
        <ele>2598.3999023438</ele>
        <time>2014-01-11T11:40:12.000Z</time>
      </trkpt>
      <trkpt lat="45.1781" lon="6.36828">
        <ele>2598.6000976562</ele>
        <time>2014-01-11T11:40:13.000Z</time>
      </trkpt>
      <trkpt lat="45.17811" lon="6.3683">
        <ele>2598.8000488281</ele>
        <time>2014-01-11T11:40:14.000Z</time>
      </trkpt>
      <trkpt lat="45.17811" lon="6.3683">
        <ele>2598.8000488281</ele>
        <time>2014-01-11T11:40:15.000Z</time>
      </trkpt>
      <trkpt lat="45.17812" lon="6.36831">
        <ele>2598.8000488281</ele>
        <time>2014-01-11T11:40:16.000Z</time>
      </trkpt>
      <trkpt lat="45.17812" lon="6.36831">
        <ele>2599</ele>
        <time>2014-01-11T11:40:17.000Z</time>
      </trkpt>
      <trkpt lat="45.17812" lon="6.36831">
        <ele>2599.1999511719</ele>
        <time>2014-01-11T11:40:18.000Z</time>
      </trkpt>
      <trkpt lat="45.17813" lon="6.36832">
        <ele>2599.3999023438</ele>
        <time>2014-01-11T11:40:19.000Z</time>
      </trkpt>
      <trkpt lat="45.17813" lon="6.36832">
        <ele>2599.8000488281</ele>
        <time>2014-01-11T11:40:20.000Z</time>
      </trkpt>
      <trkpt lat="45.17813" lon="6.36832">
        <ele>2599.8000488281</ele>
        <time>2014-01-11T11:40:21.000Z</time>
      </trkpt>
      <trkpt lat="45.17814" lon="6.36833">
        <ele>2600</ele>
        <time>2014-01-11T11:40:22.000Z</time>
      </trkpt>
      <trkpt lat="45.17814" lon="6.36834">
        <ele>2600</ele>
        <time>2014-01-11T11:40:23.000Z</time>
      </trkpt>
      <trkpt lat="45.17814" lon="6.36834">
        <ele>2600.1999511719</ele>
        <time>2014-01-11T11:40:24.000Z</time>
      </trkpt>
      <trkpt lat="45.17815" lon="6.36835">
        <ele>2600.1999511719</ele>
        <time>2014-01-11T11:40:25.000Z</time>
      </trkpt>
      <trkpt lat="45.17816" lon="6.36835">
        <ele>2600.1999511719</ele>
        <time>2014-01-11T11:40:26.000Z</time>
      </trkpt>
      <trkpt lat="45.17816" lon="6.36835">
        <ele>2600.3999023438</ele>
        <time>2014-01-11T11:40:27.000Z</time>
      </trkpt>
      <trkpt lat="45.17817" lon="6.36836">
        <ele>2600.3999023438</ele>
        <time>2014-01-11T11:40:28.000Z</time>
      </trkpt>
      <trkpt lat="45.17818" lon="6.36836">
        <ele>2600.6000976562</ele>
        <time>2014-01-11T11:40:29.000Z</time>
      </trkpt>
      <trkpt lat="45.17819" lon="6.36837">
        <ele>2600.6000976562</ele>
        <time>2014-01-11T11:40:30.000Z</time>
      </trkpt>
      <trkpt lat="45.17819" lon="6.36838">
        <ele>2600.6000976562</ele>
        <time>2014-01-11T11:40:31.000Z</time>
      </trkpt>
      <trkpt lat="45.1782" lon="6.36838">
        <ele>2600.8000488281</ele>
        <time>2014-01-11T11:40:32.000Z</time>
      </trkpt>
      <trkpt lat="45.1782" lon="6.36839">
        <ele>2600.8000488281</ele>
        <time>2014-01-11T11:40:33.000Z</time>
      </trkpt>
      <trkpt lat="45.17821" lon="6.36839">
        <ele>2600.8000488281</ele>
        <time>2014-01-11T11:40:34.000Z</time>
      </trkpt>
      <trkpt lat="45.17821" lon="6.3684">
        <ele>2601</ele>
        <time>2014-01-11T11:40:35.000Z</time>
      </trkpt>
      <trkpt lat="45.17821" lon="6.3684">
        <ele>2601</ele>
        <time>2014-01-11T11:40:36.000Z</time>
      </trkpt>
      <trkpt lat="45.17821" lon="6.3684">
        <ele>2601</ele>
        <time>2014-01-11T11:40:37.000Z</time>
      </trkpt>
      <trkpt lat="45.17821" lon="6.3684">
        <ele>2601</ele>
        <time>2014-01-11T11:40:38.000Z</time>
      </trkpt>
      <trkpt lat="45.17821" lon="6.3684">
        <ele>2601.1999511719</ele>
        <time>2014-01-11T11:40:39.000Z</time>
      </trkpt>
      <trkpt lat="45.17821" lon="6.3684">
        <ele>2601.3999023438</ele>
        <time>2014-01-11T11:40:40.000Z</time>
      </trkpt>
      <trkpt lat="45.17822" lon="6.36841">
        <ele>2601.3999023438</ele>
        <time>2014-01-11T11:40:41.000Z</time>
      </trkpt>
      <trkpt lat="45.17822" lon="6.36841">
        <ele>2601.6000976562</ele>
        <time>2014-01-11T11:40:42.000Z</time>
      </trkpt>
      <trkpt lat="45.17823" lon="6.36842">
        <ele>2601.8000488281</ele>
        <time>2014-01-11T11:40:43.000Z</time>
      </trkpt>
      <trkpt lat="45.17823" lon="6.36843">
        <ele>2602</ele>
        <time>2014-01-11T11:40:44.000Z</time>
      </trkpt>
      <trkpt lat="45.17824" lon="6.36844">
        <ele>2602</ele>
        <time>2014-01-11T11:40:45.000Z</time>
      </trkpt>
      <trkpt lat="45.17825" lon="6.36844">
        <ele>2602</ele>
        <time>2014-01-11T11:40:46.000Z</time>
      </trkpt>
      <trkpt lat="45.17825" lon="6.36845">
        <ele>2602.1999511719</ele>
        <time>2014-01-11T11:40:47.000Z</time>
      </trkpt>
      <trkpt lat="45.17825" lon="6.36845">
        <ele>2602.3999023438</ele>
        <time>2014-01-11T11:40:48.000Z</time>
      </trkpt>
      <trkpt lat="45.17826" lon="6.36846">
        <ele>2602.6000976562</ele>
        <time>2014-01-11T11:40:49.000Z</time>
      </trkpt>
      <trkpt lat="45.17826" lon="6.36846">
        <ele>2602.6000976562</ele>
        <time>2014-01-11T11:40:50.000Z</time>
      </trkpt>
      <trkpt lat="45.17827" lon="6.36847">
        <ele>2602.8000488281</ele>
        <time>2014-01-11T11:40:51.000Z</time>
      </trkpt>
      <trkpt lat="45.17827" lon="6.36847">
        <ele>2602.8000488281</ele>
        <time>2014-01-11T11:40:52.000Z</time>
      </trkpt>
      <trkpt lat="45.17827" lon="6.36847">
        <ele>2602.8000488281</ele>
        <time>2014-01-11T11:40:53.000Z</time>
      </trkpt>
      <trkpt lat="45.17827" lon="6.36848">
        <ele>2603</ele>
        <time>2014-01-11T11:40:54.000Z</time>
      </trkpt>
      <trkpt lat="45.17828" lon="6.36848">
        <ele>2603.1999511719</ele>
        <time>2014-01-11T11:40:55.000Z</time>
      </trkpt>
      <trkpt lat="45.17828" lon="6.36849">
        <ele>2603.3999023438</ele>
        <time>2014-01-11T11:40:56.000Z</time>
      </trkpt>
      <trkpt lat="45.17829" lon="6.3685">
        <ele>2603.3999023438</ele>
        <time>2014-01-11T11:40:57.000Z</time>
      </trkpt>
      <trkpt lat="45.17829" lon="6.3685">
        <ele>2603.6000976562</ele>
        <time>2014-01-11T11:40:58.000Z</time>
      </trkpt>
      <trkpt lat="45.17829" lon="6.3685">
        <ele>2603.6000976562</ele>
        <time>2014-01-11T11:40:59.000Z</time>
      </trkpt>
      <trkpt lat="45.17829" lon="6.3685">
        <ele>2603.8000488281</ele>
        <time>2014-01-11T11:41:00.000Z</time>
      </trkpt>
      <trkpt lat="45.1783" lon="6.36851">
        <ele>2604</ele>
        <time>2014-01-11T11:41:01.000Z</time>
      </trkpt>
      <trkpt lat="45.1783" lon="6.36852">
        <ele>2604.1999511719</ele>
        <time>2014-01-11T11:41:02.000Z</time>
      </trkpt>
      <trkpt lat="45.17831" lon="6.36852">
        <ele>2604.1999511719</ele>
        <time>2014-01-11T11:41:03.000Z</time>
      </trkpt>
      <trkpt lat="45.17831" lon="6.36853">
        <ele>2604.3999023438</ele>
        <time>2014-01-11T11:41:04.000Z</time>
      </trkpt>
      <trkpt lat="45.17832" lon="6.36853">
        <ele>2604.3999023438</ele>
        <time>2014-01-11T11:41:05.000Z</time>
      </trkpt>
      <trkpt lat="45.17832" lon="6.36853">
        <ele>2604.6000976562</ele>
        <time>2014-01-11T11:41:06.000Z</time>
      </trkpt>
      <trkpt lat="45.17833" lon="6.36855">
        <ele>2604.8000488281</ele>
        <time>2014-01-11T11:41:07.000Z</time>
      </trkpt>
      <trkpt lat="45.17833" lon="6.36855">
        <ele>2605.1999511719</ele>
        <time>2014-01-11T11:41:08.000Z</time>
      </trkpt>
      <trkpt lat="45.17833" lon="6.36856">
        <ele>2605.3999023438</ele>
        <time>2014-01-11T11:41:09.000Z</time>
      </trkpt>
      <trkpt lat="45.17834" lon="6.36857">
        <ele>2605.6000976562</ele>
        <time>2014-01-11T11:41:10.000Z</time>
      </trkpt>
      <trkpt lat="45.17834" lon="6.36857">
        <ele>2605.6000976562</ele>
        <time>2014-01-11T11:41:11.000Z</time>
      </trkpt>
      <trkpt lat="45.17834" lon="6.36857">
        <ele>2605.8000488281</ele>
        <time>2014-01-11T11:41:12.000Z</time>
      </trkpt>
      <trkpt lat="45.17835" lon="6.36857">
        <ele>2606</ele>
        <time>2014-01-11T11:41:13.000Z</time>
      </trkpt>
      <trkpt lat="45.17835" lon="6.36857">
        <ele>2606.1999511719</ele>
        <time>2014-01-11T11:41:14.000Z</time>
      </trkpt>
      <trkpt lat="45.17835" lon="6.36858">
        <ele>2606.3999023438</ele>
        <time>2014-01-11T11:41:15.000Z</time>
      </trkpt>
      <trkpt lat="45.17835" lon="6.36858">
        <ele>2606.3999023438</ele>
        <time>2014-01-11T11:41:16.000Z</time>
      </trkpt>
      <trkpt lat="45.17836" lon="6.36859">
        <ele>2606.6000976562</ele>
        <time>2014-01-11T11:41:17.000Z</time>
      </trkpt>
      <trkpt lat="45.17836" lon="6.36859">
        <ele>2606.6000976562</ele>
        <time>2014-01-11T11:41:18.000Z</time>
      </trkpt>
      <trkpt lat="45.17836" lon="6.3686">
        <ele>2606.8000488281</ele>
        <time>2014-01-11T11:41:19.000Z</time>
      </trkpt>
      <trkpt lat="45.17836" lon="6.3686">
        <ele>2607</ele>
        <time>2014-01-11T11:41:20.000Z</time>
      </trkpt>
      <trkpt lat="45.17837" lon="6.3686">
        <ele>2607.1999511719</ele>
        <time>2014-01-11T11:41:21.000Z</time>
      </trkpt>
      <trkpt lat="45.17837" lon="6.36861">
        <ele>2607.3999023438</ele>
        <time>2014-01-11T11:41:22.000Z</time>
      </trkpt>
      <trkpt lat="45.17838" lon="6.36861">
        <ele>2607.3999023438</ele>
        <time>2014-01-11T11:41:23.000Z</time>
      </trkpt>
      <trkpt lat="45.17839" lon="6.36862">
        <ele>2607.6000976562</ele>
        <time>2014-01-11T11:41:24.000Z</time>
      </trkpt>
      <trkpt lat="45.17839" lon="6.36862">
        <ele>2607.6000976562</ele>
        <time>2014-01-11T11:41:25.000Z</time>
      </trkpt>
      <trkpt lat="45.17839" lon="6.36863">
        <ele>2607.8000488281</ele>
        <time>2014-01-11T11:41:26.000Z</time>
      </trkpt>
      <trkpt lat="45.17839" lon="6.36863">
        <ele>2607.8000488281</ele>
        <time>2014-01-11T11:41:27.000Z</time>
      </trkpt>
      <trkpt lat="45.1784" lon="6.36863">
        <ele>2608</ele>
        <time>2014-01-11T11:41:28.000Z</time>
      </trkpt>
      <trkpt lat="45.1784" lon="6.36863">
        <ele>2608.1999511719</ele>
        <time>2014-01-11T11:41:29.000Z</time>
      </trkpt>
      <trkpt lat="45.1784" lon="6.36864">
        <ele>2608.3999023438</ele>
        <time>2014-01-11T11:41:30.000Z</time>
      </trkpt>
      <trkpt lat="45.17841" lon="6.36865">
        <ele>2608.6000976562</ele>
        <time>2014-01-11T11:41:31.000Z</time>
      </trkpt>
      <trkpt lat="45.17842" lon="6.36865">
        <ele>2608.8000488281</ele>
        <time>2014-01-11T11:41:32.000Z</time>
      </trkpt>
      <trkpt lat="45.17842" lon="6.36866">
        <ele>2608.8000488281</ele>
        <time>2014-01-11T11:41:33.000Z</time>
      </trkpt>
      <trkpt lat="45.17843" lon="6.36866">
        <ele>2609</ele>
        <time>2014-01-11T11:41:34.000Z</time>
      </trkpt>
      <trkpt lat="45.17843" lon="6.36867">
        <ele>2609.1999511719</ele>
        <time>2014-01-11T11:41:35.000Z</time>
      </trkpt>
      <trkpt lat="45.17844" lon="6.36867">
        <ele>2609.3999023438</ele>
        <time>2014-01-11T11:41:36.000Z</time>
      </trkpt>
      <trkpt lat="45.17845" lon="6.36868">
        <ele>2609.6000976562</ele>
        <time>2014-01-11T11:41:37.000Z</time>
      </trkpt>
      <trkpt lat="45.17845" lon="6.36868">
        <ele>2609.6000976562</ele>
        <time>2014-01-11T11:41:38.000Z</time>
      </trkpt>
      <trkpt lat="45.17845" lon="6.36868">
        <ele>2609.8000488281</ele>
        <time>2014-01-11T11:41:39.000Z</time>
      </trkpt>
      <trkpt lat="45.17845" lon="6.36868">
        <ele>2609.8000488281</ele>
        <time>2014-01-11T11:41:40.000Z</time>
      </trkpt>
      <trkpt lat="45.17845" lon="6.36868">
        <ele>2609.8000488281</ele>
        <time>2014-01-11T11:41:41.000Z</time>
      </trkpt>
      <trkpt lat="45.17845" lon="6.36868">
        <ele>2609.8000488281</ele>
        <time>2014-01-11T11:41:42.000Z</time>
      </trkpt>
      <trkpt lat="45.17845" lon="6.36868">
        <ele>2610</ele>
        <time>2014-01-11T11:41:43.000Z</time>
      </trkpt>
      <trkpt lat="45.17845" lon="6.36868">
        <ele>2610.1999511719</ele>
        <time>2014-01-11T11:41:44.000Z</time>
      </trkpt>
      <trkpt lat="45.17845" lon="6.36868">
        <ele>2610.1999511719</ele>
        <time>2014-01-11T11:41:45.000Z</time>
      </trkpt>
      <trkpt lat="45.17845" lon="6.36868">
        <ele>2610.3999023438</ele>
        <time>2014-01-11T11:41:46.000Z</time>
      </trkpt>
      <trkpt lat="45.17845" lon="6.36868">
        <ele>2610.3999023438</ele>
        <time>2014-01-11T11:41:47.000Z</time>
      </trkpt>
      <trkpt lat="45.17845" lon="6.36869">
        <ele>2610.3999023438</ele>
        <time>2014-01-11T11:41:48.000Z</time>
      </trkpt>
      <trkpt lat="45.17845" lon="6.36869">
        <ele>2610.3999023438</ele>
        <time>2014-01-11T11:41:49.000Z</time>
      </trkpt>
      <trkpt lat="45.17846" lon="6.3687">
        <ele>2610.3999023438</ele>
        <time>2014-01-11T11:41:50.000Z</time>
      </trkpt>
      <trkpt lat="45.17846" lon="6.36871">
        <ele>2610.3999023438</ele>
        <time>2014-01-11T11:41:52.000Z</time>
      </trkpt>
      <trkpt lat="45.17846" lon="6.36871">
        <ele>2610.6000976562</ele>
        <time>2014-01-11T11:41:53.000Z</time>
      </trkpt>
      <trkpt lat="45.17847" lon="6.36871">
        <ele>2610.8000488281</ele>
        <time>2014-01-11T11:41:54.000Z</time>
      </trkpt>
      <trkpt lat="45.17847" lon="6.36873">
        <ele>2610.8000488281</ele>
        <time>2014-01-11T11:41:55.000Z</time>
      </trkpt>
      <trkpt lat="45.17848" lon="6.36873">
        <ele>2611.1999511719</ele>
        <time>2014-01-11T11:41:56.000Z</time>
      </trkpt>
      <trkpt lat="45.17848" lon="6.36874">
        <ele>2611.1999511719</ele>
        <time>2014-01-11T11:41:57.000Z</time>
      </trkpt>
      <trkpt lat="45.17849" lon="6.36875">
        <ele>2611.1999511719</ele>
        <time>2014-01-11T11:41:58.000Z</time>
      </trkpt>
      <trkpt lat="45.1785" lon="6.36876">
        <ele>2611.3999023438</ele>
        <time>2014-01-11T11:41:59.000Z</time>
      </trkpt>
      <trkpt lat="45.1785" lon="6.36876">
        <ele>2611.6000976562</ele>
        <time>2014-01-11T11:42:00.000Z</time>
      </trkpt>
      <trkpt lat="45.17851" lon="6.36877">
        <ele>2611.8000488281</ele>
        <time>2014-01-11T11:42:01.000Z</time>
      </trkpt>
      <trkpt lat="45.17851" lon="6.36877">
        <ele>2612.1999511719</ele>
        <time>2014-01-11T11:42:02.000Z</time>
      </trkpt>
      <trkpt lat="45.17851" lon="6.36877">
        <ele>2612.3999023438</ele>
        <time>2014-01-11T11:42:03.000Z</time>
      </trkpt>
      <trkpt lat="45.17851" lon="6.36878">
        <ele>2612.6000976562</ele>
        <time>2014-01-11T11:42:04.000Z</time>
      </trkpt>
      <trkpt lat="45.17851" lon="6.36878">
        <ele>2612.8000488281</ele>
        <time>2014-01-11T11:42:05.000Z</time>
      </trkpt>
      <trkpt lat="45.17851" lon="6.36878">
        <ele>2612.8000488281</ele>
        <time>2014-01-11T11:42:06.000Z</time>
      </trkpt>
      <trkpt lat="45.17852" lon="6.36879">
        <ele>2613</ele>
        <time>2014-01-11T11:42:07.000Z</time>
      </trkpt>
      <trkpt lat="45.17852" lon="6.3688">
        <ele>2613</ele>
        <time>2014-01-11T11:42:08.000Z</time>
      </trkpt>
      <trkpt lat="45.17853" lon="6.3688">
        <ele>2613.3999023438</ele>
        <time>2014-01-11T11:42:09.000Z</time>
      </trkpt>
      <trkpt lat="45.17853" lon="6.36881">
        <ele>2613.6000976562</ele>
        <time>2014-01-11T11:42:10.000Z</time>
      </trkpt>
      <trkpt lat="45.17853" lon="6.36881">
        <ele>2613.8000488281</ele>
        <time>2014-01-11T11:42:11.000Z</time>
      </trkpt>
      <trkpt lat="45.17853" lon="6.36881">
        <ele>2613.8000488281</ele>
        <time>2014-01-11T11:42:12.000Z</time>
      </trkpt>
      <trkpt lat="45.17854" lon="6.36882">
        <ele>2614</ele>
        <time>2014-01-11T11:42:13.000Z</time>
      </trkpt>
      <trkpt lat="45.17854" lon="6.36882">
        <ele>2614.1999511719</ele>
        <time>2014-01-11T11:42:14.000Z</time>
      </trkpt>
      <trkpt lat="45.17854" lon="6.36882">
        <ele>2614.1999511719</ele>
        <time>2014-01-11T11:42:15.000Z</time>
      </trkpt>
      <trkpt lat="45.17854" lon="6.36883">
        <ele>2614.3999023438</ele>
        <time>2014-01-11T11:42:16.000Z</time>
      </trkpt>
      <trkpt lat="45.17854" lon="6.36884">
        <ele>2614.6000976562</ele>
        <time>2014-01-11T11:42:17.000Z</time>
      </trkpt>
      <trkpt lat="45.17855" lon="6.36885">
        <ele>2614.8000488281</ele>
        <time>2014-01-11T11:42:18.000Z</time>
      </trkpt>
      <trkpt lat="45.17855" lon="6.36886">
        <ele>2614.8000488281</ele>
        <time>2014-01-11T11:42:19.000Z</time>
      </trkpt>
      <trkpt lat="45.17855" lon="6.36887">
        <ele>2615.1999511719</ele>
        <time>2014-01-11T11:42:20.000Z</time>
      </trkpt>
      <trkpt lat="45.17855" lon="6.36887">
        <ele>2615.6000976562</ele>
        <time>2014-01-11T11:42:21.000Z</time>
      </trkpt>
      <trkpt lat="45.17856" lon="6.36888">
        <ele>2615.8000488281</ele>
        <time>2014-01-11T11:42:22.000Z</time>
      </trkpt>
      <trkpt lat="45.17856" lon="6.36888">
        <ele>2616</ele>
        <time>2014-01-11T11:42:23.000Z</time>
      </trkpt>
      <trkpt lat="45.17856" lon="6.36888">
        <ele>2616</ele>
        <time>2014-01-11T11:42:24.000Z</time>
      </trkpt>
      <trkpt lat="45.17857" lon="6.36889">
        <ele>2616.1999511719</ele>
        <time>2014-01-11T11:42:25.000Z</time>
      </trkpt>
      <trkpt lat="45.17857" lon="6.36889">
        <ele>2616.1999511719</ele>
        <time>2014-01-11T11:42:26.000Z</time>
      </trkpt>
      <trkpt lat="45.17857" lon="6.36889">
        <ele>2616.3999023438</ele>
        <time>2014-01-11T11:42:27.000Z</time>
      </trkpt>
      <trkpt lat="45.17858" lon="6.3689">
        <ele>2616.6000976562</ele>
        <time>2014-01-11T11:42:28.000Z</time>
      </trkpt>
      <trkpt lat="45.17858" lon="6.3689">
        <ele>2616.8000488281</ele>
        <time>2014-01-11T11:42:29.000Z</time>
      </trkpt>
      <trkpt lat="45.17858" lon="6.3689">
        <ele>2617</ele>
        <time>2014-01-11T11:42:30.000Z</time>
      </trkpt>
      <trkpt lat="45.17858" lon="6.3689">
        <ele>2617</ele>
        <time>2014-01-11T11:42:31.000Z</time>
      </trkpt>
      <trkpt lat="45.17859" lon="6.36891">
        <ele>2617.1999511719</ele>
        <time>2014-01-11T11:42:32.000Z</time>
      </trkpt>
      <trkpt lat="45.17859" lon="6.36892">
        <ele>2617.3999023438</ele>
        <time>2014-01-11T11:42:33.000Z</time>
      </trkpt>
      <trkpt lat="45.17859" lon="6.36892">
        <ele>2617.6000976562</ele>
        <time>2014-01-11T11:42:34.000Z</time>
      </trkpt>
      <trkpt lat="45.17859" lon="6.36893">
        <ele>2617.8000488281</ele>
        <time>2014-01-11T11:42:35.000Z</time>
      </trkpt>
      <trkpt lat="45.17859" lon="6.36893">
        <ele>2618</ele>
        <time>2014-01-11T11:42:36.000Z</time>
      </trkpt>
      <trkpt lat="45.17859" lon="6.36893">
        <ele>2618</ele>
        <time>2014-01-11T11:42:37.000Z</time>
      </trkpt>
      <trkpt lat="45.17859" lon="6.36893">
        <ele>2618</ele>
        <time>2014-01-11T11:42:38.000Z</time>
      </trkpt>
      <trkpt lat="45.17859" lon="6.36893">
        <ele>2618.1999511719</ele>
        <time>2014-01-11T11:42:39.000Z</time>
      </trkpt>
      <trkpt lat="45.17859" lon="6.36893">
        <ele>2618.1999511719</ele>
        <time>2014-01-11T11:42:40.000Z</time>
      </trkpt>
      <trkpt lat="45.17859" lon="6.36893">
        <ele>2618.3999023438</ele>
        <time>2014-01-11T11:42:41.000Z</time>
      </trkpt>
      <trkpt lat="45.17859" lon="6.36893">
        <ele>2618.6000976562</ele>
        <time>2014-01-11T11:42:42.000Z</time>
      </trkpt>
      <trkpt lat="45.17859" lon="6.36893">
        <ele>2618.8000488281</ele>
        <time>2014-01-11T11:42:43.000Z</time>
      </trkpt>
      <trkpt lat="45.17859" lon="6.36893">
        <ele>2618.8000488281</ele>
        <time>2014-01-11T11:42:44.000Z</time>
      </trkpt>
      <trkpt lat="45.17858" lon="6.36894">
        <ele>2618.8000488281</ele>
        <time>2014-01-11T11:42:45.000Z</time>
      </trkpt>
      <trkpt lat="45.17858" lon="6.36893">
        <ele>2618.8000488281</ele>
        <time>2014-01-11T11:42:46.000Z</time>
      </trkpt>
      <trkpt lat="45.17857" lon="6.36893">
        <ele>2619</ele>
        <time>2014-01-11T11:42:47.000Z</time>
      </trkpt>
      <trkpt lat="45.17857" lon="6.36893">
        <ele>2619</ele>
        <time>2014-01-11T11:42:48.000Z</time>
      </trkpt>
      <trkpt lat="45.17856" lon="6.36893">
        <ele>2619.1999511719</ele>
        <time>2014-01-11T11:42:49.000Z</time>
      </trkpt>
      <trkpt lat="45.17856" lon="6.36894">
        <ele>2619.3999023438</ele>
        <time>2014-01-11T11:42:50.000Z</time>
      </trkpt>
      <trkpt lat="45.17856" lon="6.36894">
        <ele>2619.6000976562</ele>
        <time>2014-01-11T11:42:51.000Z</time>
      </trkpt>
      <trkpt lat="45.17856" lon="6.36894">
        <ele>2619.8000488281</ele>
        <time>2014-01-11T11:42:52.000Z</time>
      </trkpt>
      <trkpt lat="45.17855" lon="6.36895">
        <ele>2620</ele>
        <time>2014-01-11T11:42:53.000Z</time>
      </trkpt>
      <trkpt lat="45.17854" lon="6.36895">
        <ele>2620.1999511719</ele>
        <time>2014-01-11T11:42:54.000Z</time>
      </trkpt>
      <trkpt lat="45.17854" lon="6.36896">
        <ele>2620.3999023438</ele>
        <time>2014-01-11T11:42:55.000Z</time>
      </trkpt>
      <trkpt lat="45.17854" lon="6.36896">
        <ele>2620.3999023438</ele>
        <time>2014-01-11T11:42:56.000Z</time>
      </trkpt>
      <trkpt lat="45.17854" lon="6.36896">
        <ele>2620.6000976562</ele>
        <time>2014-01-11T11:42:57.000Z</time>
      </trkpt>
      <trkpt lat="45.17853" lon="6.36896">
        <ele>2620.6000976562</ele>
        <time>2014-01-11T11:42:58.000Z</time>
      </trkpt>
      <trkpt lat="45.17852" lon="6.36896">
        <ele>2620.8000488281</ele>
        <time>2014-01-11T11:42:59.000Z</time>
      </trkpt>
      <trkpt lat="45.17852" lon="6.36896">
        <ele>2621</ele>
        <time>2014-01-11T11:43:00.000Z</time>
      </trkpt>
      <trkpt lat="45.17852" lon="6.36896">
        <ele>2621.1999511719</ele>
        <time>2014-01-11T11:43:01.000Z</time>
      </trkpt>
      <trkpt lat="45.17852" lon="6.36897">
        <ele>2621.3999023438</ele>
        <time>2014-01-11T11:43:02.000Z</time>
      </trkpt>
      <trkpt lat="45.17852" lon="6.36897">
        <ele>2621.6000976562</ele>
        <time>2014-01-11T11:43:03.000Z</time>
      </trkpt>
      <trkpt lat="45.17852" lon="6.36897">
        <ele>2621.8000488281</ele>
        <time>2014-01-11T11:43:04.000Z</time>
      </trkpt>
      <trkpt lat="45.17851" lon="6.36897">
        <ele>2622</ele>
        <time>2014-01-11T11:43:05.000Z</time>
      </trkpt>
      <trkpt lat="45.17851" lon="6.36897">
        <ele>2622</ele>
        <time>2014-01-11T11:43:06.000Z</time>
      </trkpt>
      <trkpt lat="45.1785" lon="6.36898">
        <ele>2622.1999511719</ele>
        <time>2014-01-11T11:43:07.000Z</time>
      </trkpt>
      <trkpt lat="45.1785" lon="6.36899">
        <ele>2622.3999023438</ele>
        <time>2014-01-11T11:43:08.000Z</time>
      </trkpt>
      <trkpt lat="45.17849" lon="6.36899">
        <ele>2622.6000976562</ele>
        <time>2014-01-11T11:43:09.000Z</time>
      </trkpt>
      <trkpt lat="45.17849" lon="6.36899">
        <ele>2622.8000488281</ele>
        <time>2014-01-11T11:43:10.000Z</time>
      </trkpt>
      <trkpt lat="45.17849" lon="6.36899">
        <ele>2623</ele>
        <time>2014-01-11T11:43:11.000Z</time>
      </trkpt>
      <trkpt lat="45.17849" lon="6.36899">
        <ele>2623</ele>
        <time>2014-01-11T11:43:12.000Z</time>
      </trkpt>
      <trkpt lat="45.17848" lon="6.369">
        <ele>2623.1999511719</ele>
        <time>2014-01-11T11:43:13.000Z</time>
      </trkpt>
      <trkpt lat="45.17848" lon="6.369">
        <ele>2623.1999511719</ele>
        <time>2014-01-11T11:43:14.000Z</time>
      </trkpt>
      <trkpt lat="45.17847" lon="6.369">
        <ele>2623.3999023438</ele>
        <time>2014-01-11T11:43:15.000Z</time>
      </trkpt>
      <trkpt lat="45.17846" lon="6.36901">
        <ele>2623.6000976562</ele>
        <time>2014-01-11T11:43:16.000Z</time>
      </trkpt>
      <trkpt lat="45.17846" lon="6.36901">
        <ele>2623.6000976562</ele>
        <time>2014-01-11T11:43:17.000Z</time>
      </trkpt>
      <trkpt lat="45.17845" lon="6.36901">
        <ele>2623.8000488281</ele>
        <time>2014-01-11T11:43:18.000Z</time>
      </trkpt>
      <trkpt lat="45.17845" lon="6.36901">
        <ele>2624</ele>
        <time>2014-01-11T11:43:19.000Z</time>
      </trkpt>
      <trkpt lat="45.17845" lon="6.36901">
        <ele>2624.1999511719</ele>
        <time>2014-01-11T11:43:20.000Z</time>
      </trkpt>
      <trkpt lat="45.17844" lon="6.36901">
        <ele>2624.1999511719</ele>
        <time>2014-01-11T11:43:21.000Z</time>
      </trkpt>
      <trkpt lat="45.17844" lon="6.36901">
        <ele>2624.3999023438</ele>
        <time>2014-01-11T11:43:22.000Z</time>
      </trkpt>
      <trkpt lat="45.17843" lon="6.36901">
        <ele>2624.6000976562</ele>
        <time>2014-01-11T11:43:23.000Z</time>
      </trkpt>
      <trkpt lat="45.17843" lon="6.36901">
        <ele>2624.6000976562</ele>
        <time>2014-01-11T11:43:24.000Z</time>
      </trkpt>
      <trkpt lat="45.17843" lon="6.36901">
        <ele>2624.8000488281</ele>
        <time>2014-01-11T11:43:25.000Z</time>
      </trkpt>
      <trkpt lat="45.17843" lon="6.36902">
        <ele>2625</ele>
        <time>2014-01-11T11:43:26.000Z</time>
      </trkpt>
      <trkpt lat="45.17843" lon="6.36902">
        <ele>2625</ele>
        <time>2014-01-11T11:43:27.000Z</time>
      </trkpt>
      <trkpt lat="45.17843" lon="6.36902">
        <ele>2625.1999511719</ele>
        <time>2014-01-11T11:43:28.000Z</time>
      </trkpt>
      <trkpt lat="45.17843" lon="6.36902">
        <ele>2625.3999023438</ele>
        <time>2014-01-11T11:43:29.000Z</time>
      </trkpt>
      <trkpt lat="45.17843" lon="6.36902">
        <ele>2625.3999023438</ele>
        <time>2014-01-11T11:43:30.000Z</time>
      </trkpt>
      <trkpt lat="45.17842" lon="6.36901">
        <ele>2625.6000976562</ele>
        <time>2014-01-11T11:43:31.000Z</time>
      </trkpt>
      <trkpt lat="45.17842" lon="6.36902">
        <ele>2625.6000976562</ele>
        <time>2014-01-11T11:43:32.000Z</time>
      </trkpt>
      <trkpt lat="45.17842" lon="6.36902">
        <ele>2625.6000976562</ele>
        <time>2014-01-11T11:43:33.000Z</time>
      </trkpt>
      <trkpt lat="45.17841" lon="6.36902">
        <ele>2625.6000976562</ele>
        <time>2014-01-11T11:43:34.000Z</time>
      </trkpt>
      <trkpt lat="45.1784" lon="6.36902">
        <ele>2625.8000488281</ele>
        <time>2014-01-11T11:43:35.000Z</time>
      </trkpt>
      <trkpt lat="45.1784" lon="6.36902">
        <ele>2626</ele>
        <time>2014-01-11T11:43:36.000Z</time>
      </trkpt>
      <trkpt lat="45.1784" lon="6.36902">
        <ele>2626.1999511719</ele>
        <time>2014-01-11T11:43:37.000Z</time>
      </trkpt>
      <trkpt lat="45.1784" lon="6.36902">
        <ele>2626.3999023438</ele>
        <time>2014-01-11T11:43:38.000Z</time>
      </trkpt>
      <trkpt lat="45.17839" lon="6.36903">
        <ele>2626.3999023438</ele>
        <time>2014-01-11T11:43:39.000Z</time>
      </trkpt>
      <trkpt lat="45.17839" lon="6.36903">
        <ele>2626.6000976562</ele>
        <time>2014-01-11T11:43:40.000Z</time>
      </trkpt>
      <trkpt lat="45.17839" lon="6.36903">
        <ele>2626.8000488281</ele>
        <time>2014-01-11T11:43:41.000Z</time>
      </trkpt>
      <trkpt lat="45.17838" lon="6.36903">
        <ele>2627</ele>
        <time>2014-01-11T11:43:42.000Z</time>
      </trkpt>
      <trkpt lat="45.17838" lon="6.36903">
        <ele>2627.1999511719</ele>
        <time>2014-01-11T11:43:43.000Z</time>
      </trkpt>
      <trkpt lat="45.17838" lon="6.36903">
        <ele>2627.3999023438</ele>
        <time>2014-01-11T11:43:44.000Z</time>
      </trkpt>
      <trkpt lat="45.17838" lon="6.36903">
        <ele>2627.6000976562</ele>
        <time>2014-01-11T11:43:45.000Z</time>
      </trkpt>
      <trkpt lat="45.17838" lon="6.36903">
        <ele>2627.6000976562</ele>
        <time>2014-01-11T11:43:46.000Z</time>
      </trkpt>
      <trkpt lat="45.17838" lon="6.36903">
        <ele>2627.6000976562</ele>
        <time>2014-01-11T11:43:47.000Z</time>
      </trkpt>
      <trkpt lat="45.17838" lon="6.36903">
        <ele>2627.6000976562</ele>
        <time>2014-01-11T11:43:48.000Z</time>
      </trkpt>
      <trkpt lat="45.17838" lon="6.36903">
        <ele>2627.6000976562</ele>
        <time>2014-01-11T11:43:49.000Z</time>
      </trkpt>
      <trkpt lat="45.17838" lon="6.36903">
        <ele>2627.6000976562</ele>
        <time>2014-01-11T11:43:50.000Z</time>
      </trkpt>
      <trkpt lat="45.17838" lon="6.36903">
        <ele>2627.6000976562</ele>
        <time>2014-01-11T11:43:51.000Z</time>
      </trkpt>
      <trkpt lat="45.17838" lon="6.36903">
        <ele>2627.6000976562</ele>
        <time>2014-01-11T11:43:52.000Z</time>
      </trkpt>
      <trkpt lat="45.17838" lon="6.36903">
        <ele>2627.6000976562</ele>
        <time>2014-01-11T11:43:53.000Z</time>
      </trkpt>
      <trkpt lat="45.17838" lon="6.36903">
        <ele>2627.8000488281</ele>
        <time>2014-01-11T11:43:54.000Z</time>
      </trkpt>
      <trkpt lat="45.17838" lon="6.36903">
        <ele>2627.8000488281</ele>
        <time>2014-01-11T11:43:55.000Z</time>
      </trkpt>
      <trkpt lat="45.17838" lon="6.36903">
        <ele>2628.1999511719</ele>
        <time>2014-01-11T11:43:56.000Z</time>
      </trkpt>
      <trkpt lat="45.17838" lon="6.36903">
        <ele>2628.3999023438</ele>
        <time>2014-01-11T11:43:57.000Z</time>
      </trkpt>
      <trkpt lat="45.17838" lon="6.36903">
        <ele>2628.3999023438</ele>
        <time>2014-01-11T11:43:58.000Z</time>
      </trkpt>
      <trkpt lat="45.17838" lon="6.36904">
        <ele>2628.3999023438</ele>
        <time>2014-01-11T11:43:59.000Z</time>
      </trkpt>
      <trkpt lat="45.17838" lon="6.36904">
        <ele>2628.3999023438</ele>
        <time>2014-01-11T11:44:00.000Z</time>
      </trkpt>
      <trkpt lat="45.17838" lon="6.36904">
        <ele>2628.3999023438</ele>
        <time>2014-01-11T11:44:01.000Z</time>
      </trkpt>
      <trkpt lat="45.17838" lon="6.36904">
        <ele>2628.6000976562</ele>
        <time>2014-01-11T11:44:02.000Z</time>
      </trkpt>
      <trkpt lat="45.17838" lon="6.36904">
        <ele>2628.6000976562</ele>
        <time>2014-01-11T11:44:03.000Z</time>
      </trkpt>
      <trkpt lat="45.17838" lon="6.36905">
        <ele>2628.6000976562</ele>
        <time>2014-01-11T11:44:04.000Z</time>
      </trkpt>
      <trkpt lat="45.17839" lon="6.36906">
        <ele>2628.8000488281</ele>
        <time>2014-01-11T11:44:05.000Z</time>
      </trkpt>
      <trkpt lat="45.17839" lon="6.36906">
        <ele>2629</ele>
        <time>2014-01-11T11:44:06.000Z</time>
      </trkpt>
      <trkpt lat="45.1784" lon="6.36907">
        <ele>2629</ele>
        <time>2014-01-11T11:44:07.000Z</time>
      </trkpt>
      <trkpt lat="45.1784" lon="6.36907">
        <ele>2629</ele>
        <time>2014-01-11T11:44:08.000Z</time>
      </trkpt>
      <trkpt lat="45.1784" lon="6.36907">
        <ele>2629.1999511719</ele>
        <time>2014-01-11T11:44:09.000Z</time>
      </trkpt>
      <trkpt lat="45.1784" lon="6.36908">
        <ele>2629.3999023438</ele>
        <time>2014-01-11T11:44:10.000Z</time>
      </trkpt>
      <trkpt lat="45.1784" lon="6.36909">
        <ele>2629.6000976562</ele>
        <time>2014-01-11T11:44:11.000Z</time>
      </trkpt>
      <trkpt lat="45.17841" lon="6.3691">
        <ele>2629.8000488281</ele>
        <time>2014-01-11T11:44:12.000Z</time>
      </trkpt>
      <trkpt lat="45.1784" lon="6.3691">
        <ele>2630</ele>
        <time>2014-01-11T11:44:13.000Z</time>
      </trkpt>
      <trkpt lat="45.17841" lon="6.36911">
        <ele>2630</ele>
        <time>2014-01-11T11:44:14.000Z</time>
      </trkpt>
      <trkpt lat="45.1784" lon="6.36911">
        <ele>2630.1999511719</ele>
        <time>2014-01-11T11:44:15.000Z</time>
      </trkpt>
      <trkpt lat="45.17841" lon="6.36913">
        <ele>2630.3999023438</ele>
        <time>2014-01-11T11:44:16.000Z</time>
      </trkpt>
      <trkpt lat="45.17841" lon="6.36913">
        <ele>2630.6000976562</ele>
        <time>2014-01-11T11:44:17.000Z</time>
      </trkpt>
      <trkpt lat="45.17841" lon="6.36914">
        <ele>2630.8000488281</ele>
        <time>2014-01-11T11:44:18.000Z</time>
      </trkpt>
      <trkpt lat="45.17841" lon="6.36915">
        <ele>2630.8000488281</ele>
        <time>2014-01-11T11:44:19.000Z</time>
      </trkpt>
      <trkpt lat="45.17841" lon="6.36916">
        <ele>2631</ele>
        <time>2014-01-11T11:44:20.000Z</time>
      </trkpt>
      <trkpt lat="45.17841" lon="6.36916">
        <ele>2631.1999511719</ele>
        <time>2014-01-11T11:44:21.000Z</time>
      </trkpt>
      <trkpt lat="45.17842" lon="6.36916">
        <ele>2631.3999023438</ele>
        <time>2014-01-11T11:44:22.000Z</time>
      </trkpt>
      <trkpt lat="45.17842" lon="6.36916">
        <ele>2631.6000976562</ele>
        <time>2014-01-11T11:44:23.000Z</time>
      </trkpt>
      <trkpt lat="45.17843" lon="6.36916">
        <ele>2631.6000976562</ele>
        <time>2014-01-11T11:44:24.000Z</time>
      </trkpt>
      <trkpt lat="45.17843" lon="6.36916">
        <ele>2631.8000488281</ele>
        <time>2014-01-11T11:44:25.000Z</time>
      </trkpt>
      <trkpt lat="45.17844" lon="6.36917">
        <ele>2632</ele>
        <time>2014-01-11T11:44:26.000Z</time>
      </trkpt>
      <trkpt lat="45.17844" lon="6.36916">
        <ele>2632.1999511719</ele>
        <time>2014-01-11T11:44:27.000Z</time>
      </trkpt>
      <trkpt lat="45.17845" lon="6.36917">
        <ele>2632.1999511719</ele>
        <time>2014-01-11T11:44:28.000Z</time>
      </trkpt>
      <trkpt lat="45.17845" lon="6.36917">
        <ele>2632.3999023438</ele>
        <time>2014-01-11T11:44:29.000Z</time>
      </trkpt>
      <trkpt lat="45.17845" lon="6.36918">
        <ele>2632.3999023438</ele>
        <time>2014-01-11T11:44:30.000Z</time>
      </trkpt>
      <trkpt lat="45.17845" lon="6.36918">
        <ele>2632.6000976562</ele>
        <time>2014-01-11T11:44:31.000Z</time>
      </trkpt>
      <trkpt lat="45.17846" lon="6.36918">
        <ele>2632.8000488281</ele>
        <time>2014-01-11T11:44:32.000Z</time>
      </trkpt>
      <trkpt lat="45.17846" lon="6.36918">
        <ele>2632.8000488281</ele>
        <time>2014-01-11T11:44:33.000Z</time>
      </trkpt>
      <trkpt lat="45.17847" lon="6.36919">
        <ele>2633</ele>
        <time>2014-01-11T11:44:34.000Z</time>
      </trkpt>
      <trkpt lat="45.17847" lon="6.36919">
        <ele>2633</ele>
        <time>2014-01-11T11:44:35.000Z</time>
      </trkpt>
      <trkpt lat="45.17847" lon="6.3692">
        <ele>2633.1999511719</ele>
        <time>2014-01-11T11:44:36.000Z</time>
      </trkpt>
      <trkpt lat="45.17848" lon="6.3692">
        <ele>2633.1999511719</ele>
        <time>2014-01-11T11:44:37.000Z</time>
      </trkpt>
      <trkpt lat="45.17848" lon="6.36921">
        <ele>2633.3999023438</ele>
        <time>2014-01-11T11:44:38.000Z</time>
      </trkpt>
      <trkpt lat="45.17849" lon="6.36922">
        <ele>2633.3999023438</ele>
        <time>2014-01-11T11:44:39.000Z</time>
      </trkpt>
      <trkpt lat="45.17849" lon="6.36922">
        <ele>2633.6000976562</ele>
        <time>2014-01-11T11:44:40.000Z</time>
      </trkpt>
      <trkpt lat="45.17849" lon="6.36923">
        <ele>2633.6000976562</ele>
        <time>2014-01-11T11:44:41.000Z</time>
      </trkpt>
      <trkpt lat="45.17849" lon="6.36924">
        <ele>2633.8000488281</ele>
        <time>2014-01-11T11:44:42.000Z</time>
      </trkpt>
      <trkpt lat="45.17849" lon="6.36925">
        <ele>2633.8000488281</ele>
        <time>2014-01-11T11:44:43.000Z</time>
      </trkpt>
      <trkpt lat="45.17849" lon="6.36926">
        <ele>2634</ele>
        <time>2014-01-11T11:44:44.000Z</time>
      </trkpt>
      <trkpt lat="45.17849" lon="6.36926">
        <ele>2634.1999511719</ele>
        <time>2014-01-11T11:44:45.000Z</time>
      </trkpt>
      <trkpt lat="45.17849" lon="6.36926">
        <ele>2634.3999023438</ele>
        <time>2014-01-11T11:44:46.000Z</time>
      </trkpt>
      <trkpt lat="45.17849" lon="6.36926">
        <ele>2634.3999023438</ele>
        <time>2014-01-11T11:44:47.000Z</time>
      </trkpt>
      <trkpt lat="45.17849" lon="6.36926">
        <ele>2634.6000976562</ele>
        <time>2014-01-11T11:44:48.000Z</time>
      </trkpt>
      <trkpt lat="45.1785" lon="6.36927">
        <ele>2634.6000976562</ele>
        <time>2014-01-11T11:44:49.000Z</time>
      </trkpt>
      <trkpt lat="45.1785" lon="6.36927">
        <ele>2634.8000488281</ele>
        <time>2014-01-11T11:44:50.000Z</time>
      </trkpt>
      <trkpt lat="45.17851" lon="6.36927">
        <ele>2634.8000488281</ele>
        <time>2014-01-11T11:44:51.000Z</time>
      </trkpt>
      <trkpt lat="45.17851" lon="6.36928">
        <ele>2634.8000488281</ele>
        <time>2014-01-11T11:44:52.000Z</time>
      </trkpt>
      <trkpt lat="45.17851" lon="6.36928">
        <ele>2635</ele>
        <time>2014-01-11T11:44:53.000Z</time>
      </trkpt>
      <trkpt lat="45.17851" lon="6.36928">
        <ele>2635.1999511719</ele>
        <time>2014-01-11T11:44:54.000Z</time>
      </trkpt>
      <trkpt lat="45.17851" lon="6.36928">
        <ele>2635.3999023438</ele>
        <time>2014-01-11T11:44:55.000Z</time>
      </trkpt>
      <trkpt lat="45.17852" lon="6.36928">
        <ele>2635.3999023438</ele>
        <time>2014-01-11T11:44:56.000Z</time>
      </trkpt>
      <trkpt lat="45.17853" lon="6.36929">
        <ele>2635.6000976562</ele>
        <time>2014-01-11T11:44:57.000Z</time>
      </trkpt>
      <trkpt lat="45.17853" lon="6.36929">
        <ele>2635.6000976562</ele>
        <time>2014-01-11T11:44:58.000Z</time>
      </trkpt>
      <trkpt lat="45.17854" lon="6.3693">
        <ele>2635.8000488281</ele>
        <time>2014-01-11T11:44:59.000Z</time>
      </trkpt>
      <trkpt lat="45.17854" lon="6.3693">
        <ele>2636</ele>
        <time>2014-01-11T11:45:00.000Z</time>
      </trkpt>
      <trkpt lat="45.17854" lon="6.3693">
        <ele>2636</ele>
        <time>2014-01-11T11:45:01.000Z</time>
      </trkpt>
      <trkpt lat="45.17855" lon="6.36931">
        <ele>2636</ele>
        <time>2014-01-11T11:45:02.000Z</time>
      </trkpt>
      <trkpt lat="45.17855" lon="6.36932">
        <ele>2636.1999511719</ele>
        <time>2014-01-11T11:45:03.000Z</time>
      </trkpt>
      <trkpt lat="45.17856" lon="6.36932">
        <ele>2636.3999023438</ele>
        <time>2014-01-11T11:45:04.000Z</time>
      </trkpt>
      <trkpt lat="45.17856" lon="6.36933">
        <ele>2636.6000976562</ele>
        <time>2014-01-11T11:45:05.000Z</time>
      </trkpt>
      <trkpt lat="45.17856" lon="6.36933">
        <ele>2636.6000976562</ele>
        <time>2014-01-11T11:45:06.000Z</time>
      </trkpt>
      <trkpt lat="45.17856" lon="6.36933">
        <ele>2636.8000488281</ele>
        <time>2014-01-11T11:45:07.000Z</time>
      </trkpt>
      <trkpt lat="45.17856" lon="6.36933">
        <ele>2637</ele>
        <time>2014-01-11T11:45:08.000Z</time>
      </trkpt>
      <trkpt lat="45.17856" lon="6.36933">
        <ele>2637</ele>
        <time>2014-01-11T11:45:09.000Z</time>
      </trkpt>
      <trkpt lat="45.17856" lon="6.36933">
        <ele>2637.1999511719</ele>
        <time>2014-01-11T11:45:10.000Z</time>
      </trkpt>
      <trkpt lat="45.17856" lon="6.36933">
        <ele>2637.1999511719</ele>
        <time>2014-01-11T11:45:11.000Z</time>
      </trkpt>
      <trkpt lat="45.17856" lon="6.36933">
        <ele>2637.1999511719</ele>
        <time>2014-01-11T11:45:12.000Z</time>
      </trkpt>
      <trkpt lat="45.17856" lon="6.36933">
        <ele>2637.1999511719</ele>
        <time>2014-01-11T11:45:13.000Z</time>
      </trkpt>
      <trkpt lat="45.17856" lon="6.36933">
        <ele>2637.1999511719</ele>
        <time>2014-01-11T11:45:14.000Z</time>
      </trkpt>
      <trkpt lat="45.17856" lon="6.36933">
        <ele>2637.3999023438</ele>
        <time>2014-01-11T11:45:15.000Z</time>
      </trkpt>
      <trkpt lat="45.17856" lon="6.36933">
        <ele>2637.3999023438</ele>
        <time>2014-01-11T11:45:16.000Z</time>
      </trkpt>
      <trkpt lat="45.17856" lon="6.36933">
        <ele>2637.3999023438</ele>
        <time>2014-01-11T11:45:17.000Z</time>
      </trkpt>
      <trkpt lat="45.17856" lon="6.36933">
        <ele>2637.3999023438</ele>
        <time>2014-01-11T11:45:18.000Z</time>
      </trkpt>
      <trkpt lat="45.17856" lon="6.36933">
        <ele>2637.3999023438</ele>
        <time>2014-01-11T11:45:19.000Z</time>
      </trkpt>
      <trkpt lat="45.17856" lon="6.36933">
        <ele>2637.3999023438</ele>
        <time>2014-01-11T11:45:20.000Z</time>
      </trkpt>
      <trkpt lat="45.17856" lon="6.36933">
        <ele>2637.3999023438</ele>
        <time>2014-01-11T11:45:21.000Z</time>
      </trkpt>
      <trkpt lat="45.17856" lon="6.36933">
        <ele>2637.3999023438</ele>
        <time>2014-01-11T11:45:25.000Z</time>
      </trkpt>
      <trkpt lat="45.17856" lon="6.36933">
        <ele>2637.3999023438</ele>
        <time>2014-01-11T11:45:26.000Z</time>
      </trkpt>
      <trkpt lat="45.17856" lon="6.36933">
        <ele>2637.3999023438</ele>
        <time>2014-01-11T11:45:27.000Z</time>
      </trkpt>
      <trkpt lat="45.17856" lon="6.36933">
        <ele>2637.3999023438</ele>
        <time>2014-01-11T11:45:28.000Z</time>
      </trkpt>
      <trkpt lat="45.17856" lon="6.36933">
        <ele>2637.3999023438</ele>
        <time>2014-01-11T11:45:29.000Z</time>
      </trkpt>
      <trkpt lat="45.17856" lon="6.36933">
        <ele>2637.3999023438</ele>
        <time>2014-01-11T11:45:31.000Z</time>
      </trkpt>
      <trkpt lat="45.17856" lon="6.36933">
        <ele>2637.3999023438</ele>
        <time>2014-01-11T11:45:32.000Z</time>
      </trkpt>
      <trkpt lat="45.17856" lon="6.36933">
        <ele>2637.3999023438</ele>
        <time>2014-01-11T11:45:33.000Z</time>
      </trkpt>
      <trkpt lat="45.17856" lon="6.36933">
        <ele>2637.3999023438</ele>
        <time>2014-01-11T11:45:34.000Z</time>
      </trkpt>
      <trkpt lat="45.17856" lon="6.36933">
        <ele>2637.3999023438</ele>
        <time>2014-01-11T11:45:35.000Z</time>
      </trkpt>
      <trkpt lat="45.17856" lon="6.36933">
        <ele>2637.3999023438</ele>
        <time>2014-01-11T11:45:36.000Z</time>
      </trkpt>
      <trkpt lat="45.17856" lon="6.36933">
        <ele>2637.3999023438</ele>
        <time>2014-01-11T11:45:37.000Z</time>
      </trkpt>
      <trkpt lat="45.17857" lon="6.36934">
        <ele>2637.3999023438</ele>
        <time>2014-01-11T11:45:38.000Z</time>
      </trkpt>
      <trkpt lat="45.17857" lon="6.36935">
        <ele>2637.6000976562</ele>
        <time>2014-01-11T11:45:39.000Z</time>
      </trkpt>
      <trkpt lat="45.17857" lon="6.36935">
        <ele>2637.6000976562</ele>
        <time>2014-01-11T11:45:40.000Z</time>
      </trkpt>
      <trkpt lat="45.17858" lon="6.36936">
        <ele>2637.8000488281</ele>
        <time>2014-01-11T11:45:41.000Z</time>
      </trkpt>
      <trkpt lat="45.17858" lon="6.36936">
        <ele>2638</ele>
        <time>2014-01-11T11:45:42.000Z</time>
      </trkpt>
      <trkpt lat="45.17858" lon="6.36937">
        <ele>2638.1999511719</ele>
        <time>2014-01-11T11:45:43.000Z</time>
      </trkpt>
      <trkpt lat="45.17858" lon="6.36937">
        <ele>2638.1999511719</ele>
        <time>2014-01-11T11:45:44.000Z</time>
      </trkpt>
      <trkpt lat="45.17859" lon="6.36937">
        <ele>2638.3999023438</ele>
        <time>2014-01-11T11:45:45.000Z</time>
      </trkpt>
      <trkpt lat="45.17859" lon="6.36938">
        <ele>2638.3999023438</ele>
        <time>2014-01-11T11:45:46.000Z</time>
      </trkpt>
      <trkpt lat="45.17859" lon="6.36938">
        <ele>2638.6000976562</ele>
        <time>2014-01-11T11:45:47.000Z</time>
      </trkpt>
      <trkpt lat="45.1786" lon="6.36938">
        <ele>2638.6000976562</ele>
        <time>2014-01-11T11:45:48.000Z</time>
      </trkpt>
      <trkpt lat="45.1786" lon="6.36939">
        <ele>2638.8000488281</ele>
        <time>2014-01-11T11:45:49.000Z</time>
      </trkpt>
      <trkpt lat="45.1786" lon="6.36939">
        <ele>2639</ele>
        <time>2014-01-11T11:45:50.000Z</time>
      </trkpt>
      <trkpt lat="45.17861" lon="6.3694">
        <ele>2639</ele>
        <time>2014-01-11T11:45:51.000Z</time>
      </trkpt>
      <trkpt lat="45.17862" lon="6.3694">
        <ele>2639.1999511719</ele>
        <time>2014-01-11T11:45:52.000Z</time>
      </trkpt>
      <trkpt lat="45.17862" lon="6.36941">
        <ele>2639.3999023438</ele>
        <time>2014-01-11T11:45:53.000Z</time>
      </trkpt>
      <trkpt lat="45.17863" lon="6.36941">
        <ele>2639.6000976562</ele>
        <time>2014-01-11T11:45:54.000Z</time>
      </trkpt>
      <trkpt lat="45.17863" lon="6.36942">
        <ele>2639.8000488281</ele>
        <time>2014-01-11T11:45:55.000Z</time>
      </trkpt>
      <trkpt lat="45.17863" lon="6.36942">
        <ele>2640</ele>
        <time>2014-01-11T11:45:56.000Z</time>
      </trkpt>
      <trkpt lat="45.17864" lon="6.36943">
        <ele>2640.1999511719</ele>
        <time>2014-01-11T11:45:57.000Z</time>
      </trkpt>
      <trkpt lat="45.17864" lon="6.36944">
        <ele>2640.3999023438</ele>
        <time>2014-01-11T11:45:58.000Z</time>
      </trkpt>
      <trkpt lat="45.17864" lon="6.36944">
        <ele>2640.6000976562</ele>
        <time>2014-01-11T11:45:59.000Z</time>
      </trkpt>
      <trkpt lat="45.17864" lon="6.36945">
        <ele>2640.6000976562</ele>
        <time>2014-01-11T11:46:00.000Z</time>
      </trkpt>
      <trkpt lat="45.17865" lon="6.36946">
        <ele>2640.8000488281</ele>
        <time>2014-01-11T11:46:01.000Z</time>
      </trkpt>
      <trkpt lat="45.17865" lon="6.36947">
        <ele>2641</ele>
        <time>2014-01-11T11:46:02.000Z</time>
      </trkpt>
      <trkpt lat="45.17865" lon="6.36947">
        <ele>2641.1999511719</ele>
        <time>2014-01-11T11:46:03.000Z</time>
      </trkpt>
      <trkpt lat="45.17866" lon="6.36948">
        <ele>2641.3999023438</ele>
        <time>2014-01-11T11:46:04.000Z</time>
      </trkpt>
      <trkpt lat="45.17866" lon="6.36949">
        <ele>2641.6000976562</ele>
        <time>2014-01-11T11:46:05.000Z</time>
      </trkpt>
      <trkpt lat="45.17867" lon="6.36949">
        <ele>2641.6000976562</ele>
        <time>2014-01-11T11:46:06.000Z</time>
      </trkpt>
      <trkpt lat="45.17867" lon="6.36949">
        <ele>2641.8000488281</ele>
        <time>2014-01-11T11:46:07.000Z</time>
      </trkpt>
      <trkpt lat="45.17867" lon="6.3695">
        <ele>2642</ele>
        <time>2014-01-11T11:46:08.000Z</time>
      </trkpt>
      <trkpt lat="45.17867" lon="6.3695">
        <ele>2642.1999511719</ele>
        <time>2014-01-11T11:46:09.000Z</time>
      </trkpt>
      <trkpt lat="45.17867" lon="6.3695">
        <ele>2642.3999023438</ele>
        <time>2014-01-11T11:46:10.000Z</time>
      </trkpt>
      <trkpt lat="45.17868" lon="6.3695">
        <ele>2642.6000976562</ele>
        <time>2014-01-11T11:46:11.000Z</time>
      </trkpt>
      <trkpt lat="45.17868" lon="6.3695">
        <ele>2642.8000488281</ele>
        <time>2014-01-11T11:46:12.000Z</time>
      </trkpt>
      <trkpt lat="45.17869" lon="6.3695">
        <ele>2642.8000488281</ele>
        <time>2014-01-11T11:46:13.000Z</time>
      </trkpt>
      <trkpt lat="45.17869" lon="6.36951">
        <ele>2643</ele>
        <time>2014-01-11T11:46:14.000Z</time>
      </trkpt>
      <trkpt lat="45.1787" lon="6.36951">
        <ele>2643.1999511719</ele>
        <time>2014-01-11T11:46:15.000Z</time>
      </trkpt>
      <trkpt lat="45.1787" lon="6.36952">
        <ele>2643.3999023438</ele>
        <time>2014-01-11T11:46:16.000Z</time>
      </trkpt>
      <trkpt lat="45.1787" lon="6.36952">
        <ele>2643.3999023438</ele>
        <time>2014-01-11T11:46:17.000Z</time>
      </trkpt>
      <trkpt lat="45.17871" lon="6.36952">
        <ele>2643.6000976562</ele>
        <time>2014-01-11T11:46:18.000Z</time>
      </trkpt>
      <trkpt lat="45.17871" lon="6.36953">
        <ele>2643.8000488281</ele>
        <time>2014-01-11T11:46:19.000Z</time>
      </trkpt>
      <trkpt lat="45.17871" lon="6.36953">
        <ele>2644</ele>
        <time>2014-01-11T11:46:20.000Z</time>
      </trkpt>
      <trkpt lat="45.17871" lon="6.36953">
        <ele>2644.1999511719</ele>
        <time>2014-01-11T11:46:21.000Z</time>
      </trkpt>
      <trkpt lat="45.17871" lon="6.36953">
        <ele>2644.3999023438</ele>
        <time>2014-01-11T11:46:22.000Z</time>
      </trkpt>
      <trkpt lat="45.17872" lon="6.36954">
        <ele>2644.6000976562</ele>
        <time>2014-01-11T11:46:23.000Z</time>
      </trkpt>
      <trkpt lat="45.17872" lon="6.36954">
        <ele>2644.8000488281</ele>
        <time>2014-01-11T11:46:24.000Z</time>
      </trkpt>
      <trkpt lat="45.17872" lon="6.36954">
        <ele>2645</ele>
        <time>2014-01-11T11:46:25.000Z</time>
      </trkpt>
      <trkpt lat="45.17873" lon="6.36955">
        <ele>2645</ele>
        <time>2014-01-11T11:46:26.000Z</time>
      </trkpt>
      <trkpt lat="45.17873" lon="6.36955">
        <ele>2645.1999511719</ele>
        <time>2014-01-11T11:46:27.000Z</time>
      </trkpt>
      <trkpt lat="45.17873" lon="6.36955">
        <ele>2645.3999023438</ele>
        <time>2014-01-11T11:46:28.000Z</time>
      </trkpt>
      <trkpt lat="45.17874" lon="6.36956">
        <ele>2645.6000976562</ele>
        <time>2014-01-11T11:46:29.000Z</time>
      </trkpt>
      <trkpt lat="45.17874" lon="6.36957">
        <ele>2645.8000488281</ele>
        <time>2014-01-11T11:46:30.000Z</time>
      </trkpt>
      <trkpt lat="45.17874" lon="6.36957">
        <ele>2646</ele>
        <time>2014-01-11T11:46:31.000Z</time>
      </trkpt>
      <trkpt lat="45.17874" lon="6.36957">
        <ele>2646</ele>
        <time>2014-01-11T11:46:32.000Z</time>
      </trkpt>
      <trkpt lat="45.17875" lon="6.36958">
        <ele>2646.1999511719</ele>
        <time>2014-01-11T11:46:33.000Z</time>
      </trkpt>
      <trkpt lat="45.17876" lon="6.36958">
        <ele>2646.1999511719</ele>
        <time>2014-01-11T11:46:34.000Z</time>
      </trkpt>
      <trkpt lat="45.17876" lon="6.36959">
        <ele>2646.3999023438</ele>
        <time>2014-01-11T11:46:35.000Z</time>
      </trkpt>
      <trkpt lat="45.17876" lon="6.36959">
        <ele>2646.6000976562</ele>
        <time>2014-01-11T11:46:36.000Z</time>
      </trkpt>
      <trkpt lat="45.17877" lon="6.3696">
        <ele>2646.8000488281</ele>
        <time>2014-01-11T11:46:37.000Z</time>
      </trkpt>
      <trkpt lat="45.17877" lon="6.3696">
        <ele>2647</ele>
        <time>2014-01-11T11:46:38.000Z</time>
      </trkpt>
      <trkpt lat="45.17877" lon="6.3696">
        <ele>2647</ele>
        <time>2014-01-11T11:46:39.000Z</time>
      </trkpt>
      <trkpt lat="45.17878" lon="6.36961">
        <ele>2647.1999511719</ele>
        <time>2014-01-11T11:46:40.000Z</time>
      </trkpt>
      <trkpt lat="45.17878" lon="6.36961">
        <ele>2647.3999023438</ele>
        <time>2014-01-11T11:46:41.000Z</time>
      </trkpt>
      <trkpt lat="45.17879" lon="6.36962">
        <ele>2647.6000976562</ele>
        <time>2014-01-11T11:46:42.000Z</time>
      </trkpt>
      <trkpt lat="45.17879" lon="6.36962">
        <ele>2647.8000488281</ele>
        <time>2014-01-11T11:46:43.000Z</time>
      </trkpt>
      <trkpt lat="45.1788" lon="6.36963">
        <ele>2648</ele>
        <time>2014-01-11T11:46:44.000Z</time>
      </trkpt>
      <trkpt lat="45.1788" lon="6.36964">
        <ele>2648</ele>
        <time>2014-01-11T11:46:45.000Z</time>
      </trkpt>
      <trkpt lat="45.17881" lon="6.36964">
        <ele>2648.3999023438</ele>
        <time>2014-01-11T11:46:46.000Z</time>
      </trkpt>
      <trkpt lat="45.17881" lon="6.36965">
        <ele>2648.6000976562</ele>
        <time>2014-01-11T11:46:47.000Z</time>
      </trkpt>
      <trkpt lat="45.17882" lon="6.36965">
        <ele>2648.8000488281</ele>
        <time>2014-01-11T11:46:48.000Z</time>
      </trkpt>
      <trkpt lat="45.17883" lon="6.36966">
        <ele>2648.8000488281</ele>
        <time>2014-01-11T11:46:49.000Z</time>
      </trkpt>
      <trkpt lat="45.17883" lon="6.36966">
        <ele>2648.8000488281</ele>
        <time>2014-01-11T11:46:50.000Z</time>
      </trkpt>
      <trkpt lat="45.17883" lon="6.36966">
        <ele>2649</ele>
        <time>2014-01-11T11:46:51.000Z</time>
      </trkpt>
      <trkpt lat="45.17883" lon="6.36966">
        <ele>2649</ele>
        <time>2014-01-11T11:46:52.000Z</time>
      </trkpt>
      <trkpt lat="45.17883" lon="6.36966">
        <ele>2649.1999511719</ele>
        <time>2014-01-11T11:46:53.000Z</time>
      </trkpt>
      <trkpt lat="45.17883" lon="6.36966">
        <ele>2649.3999023438</ele>
        <time>2014-01-11T11:46:54.000Z</time>
      </trkpt>
      <trkpt lat="45.17883" lon="6.36966">
        <ele>2649.6000976562</ele>
        <time>2014-01-11T11:46:55.000Z</time>
      </trkpt>
      <trkpt lat="45.17883" lon="6.36966">
        <ele>2649.6000976562</ele>
        <time>2014-01-11T11:46:56.000Z</time>
      </trkpt>
      <trkpt lat="45.17883" lon="6.36966">
        <ele>2649.8000488281</ele>
        <time>2014-01-11T11:46:57.000Z</time>
      </trkpt>
      <trkpt lat="45.17883" lon="6.36966">
        <ele>2649.8000488281</ele>
        <time>2014-01-11T11:46:58.000Z</time>
      </trkpt>
      <trkpt lat="45.17883" lon="6.36966">
        <ele>2649.8000488281</ele>
        <time>2014-01-11T11:46:59.000Z</time>
      </trkpt>
      <trkpt lat="45.17883" lon="6.36966">
        <ele>2649.8000488281</ele>
        <time>2014-01-11T11:47:00.000Z</time>
      </trkpt>
      <trkpt lat="45.17883" lon="6.36966">
        <ele>2649.8000488281</ele>
        <time>2014-01-11T11:47:01.000Z</time>
      </trkpt>
      <trkpt lat="45.17883" lon="6.36966">
        <ele>2649.8000488281</ele>
        <time>2014-01-11T11:47:03.000Z</time>
      </trkpt>
      <trkpt lat="45.17884" lon="6.36966">
        <ele>2649.8000488281</ele>
        <time>2014-01-11T11:47:04.000Z</time>
      </trkpt>
      <trkpt lat="45.17885" lon="6.36968">
        <ele>2649.8000488281</ele>
        <time>2014-01-11T11:47:05.000Z</time>
      </trkpt>
      <trkpt lat="45.17885" lon="6.36967">
        <ele>2650</ele>
        <time>2014-01-11T11:47:06.000Z</time>
      </trkpt>
      <trkpt lat="45.17886" lon="6.36968">
        <ele>2650</ele>
        <time>2014-01-11T11:47:07.000Z</time>
      </trkpt>
      <trkpt lat="45.17886" lon="6.36968">
        <ele>2650.1999511719</ele>
        <time>2014-01-11T11:47:08.000Z</time>
      </trkpt>
      <trkpt lat="45.17887" lon="6.36968">
        <ele>2650.3999023438</ele>
        <time>2014-01-11T11:47:09.000Z</time>
      </trkpt>
      <trkpt lat="45.17887" lon="6.36969">
        <ele>2650.3999023438</ele>
        <time>2014-01-11T11:47:10.000Z</time>
      </trkpt>
      <trkpt lat="45.17888" lon="6.3697">
        <ele>2650.6000976562</ele>
        <time>2014-01-11T11:47:11.000Z</time>
      </trkpt>
      <trkpt lat="45.17889" lon="6.3697">
        <ele>2650.8000488281</ele>
        <time>2014-01-11T11:47:12.000Z</time>
      </trkpt>
      <trkpt lat="45.17889" lon="6.36971">
        <ele>2650.8000488281</ele>
        <time>2014-01-11T11:47:13.000Z</time>
      </trkpt>
      <trkpt lat="45.1789" lon="6.36971">
        <ele>2651</ele>
        <time>2014-01-11T11:47:14.000Z</time>
      </trkpt>
      <trkpt lat="45.1789" lon="6.36971">
        <ele>2651.1999511719</ele>
        <time>2014-01-11T11:47:15.000Z</time>
      </trkpt>
      <trkpt lat="45.1789" lon="6.36972">
        <ele>2651.3999023438</ele>
        <time>2014-01-11T11:47:16.000Z</time>
      </trkpt>
      <trkpt lat="45.17891" lon="6.36972">
        <ele>2651.6000976562</ele>
        <time>2014-01-11T11:47:17.000Z</time>
      </trkpt>
      <trkpt lat="45.17891" lon="6.36972">
        <ele>2651.8000488281</ele>
        <time>2014-01-11T11:47:18.000Z</time>
      </trkpt>
      <trkpt lat="45.17891" lon="6.36972">
        <ele>2651.8000488281</ele>
        <time>2014-01-11T11:47:19.000Z</time>
      </trkpt>
      <trkpt lat="45.17891" lon="6.36972">
        <ele>2652</ele>
        <time>2014-01-11T11:47:20.000Z</time>
      </trkpt>
      <trkpt lat="45.17891" lon="6.36972">
        <ele>2652.1999511719</ele>
        <time>2014-01-11T11:47:21.000Z</time>
      </trkpt>
      <trkpt lat="45.17891" lon="6.36972">
        <ele>2652.3999023438</ele>
        <time>2014-01-11T11:47:22.000Z</time>
      </trkpt>
      <trkpt lat="45.17891" lon="6.36972">
        <ele>2652.6000976562</ele>
        <time>2014-01-11T11:47:23.000Z</time>
      </trkpt>
      <trkpt lat="45.17891" lon="6.36972">
        <ele>2652.6000976562</ele>
        <time>2014-01-11T11:47:24.000Z</time>
      </trkpt>
      <trkpt lat="45.17891" lon="6.36972">
        <ele>2652.6000976562</ele>
        <time>2014-01-11T11:47:25.000Z</time>
      </trkpt>
      <trkpt lat="45.17891" lon="6.36973">
        <ele>2652.8000488281</ele>
        <time>2014-01-11T11:47:26.000Z</time>
      </trkpt>
      <trkpt lat="45.17891" lon="6.36973">
        <ele>2652.8000488281</ele>
        <time>2014-01-11T11:47:27.000Z</time>
      </trkpt>
      <trkpt lat="45.17891" lon="6.36974">
        <ele>2653</ele>
        <time>2014-01-11T11:47:28.000Z</time>
      </trkpt>
      <trkpt lat="45.17892" lon="6.36974">
        <ele>2653.1999511719</ele>
        <time>2014-01-11T11:47:29.000Z</time>
      </trkpt>
      <trkpt lat="45.17893" lon="6.36975">
        <ele>2653.3999023438</ele>
        <time>2014-01-11T11:47:30.000Z</time>
      </trkpt>
      <trkpt lat="45.17893" lon="6.36976">
        <ele>2653.6000976562</ele>
        <time>2014-01-11T11:47:31.000Z</time>
      </trkpt>
      <trkpt lat="45.17893" lon="6.36976">
        <ele>2654</ele>
        <time>2014-01-11T11:47:32.000Z</time>
      </trkpt>
      <trkpt lat="45.17894" lon="6.36977">
        <ele>2654</ele>
        <time>2014-01-11T11:47:33.000Z</time>
      </trkpt>
      <trkpt lat="45.17894" lon="6.36977">
        <ele>2654.1999511719</ele>
        <time>2014-01-11T11:47:34.000Z</time>
      </trkpt>
      <trkpt lat="45.17894" lon="6.36978">
        <ele>2654.1999511719</ele>
        <time>2014-01-11T11:47:35.000Z</time>
      </trkpt>
      <trkpt lat="45.17895" lon="6.36978">
        <ele>2654.3999023438</ele>
        <time>2014-01-11T11:47:36.000Z</time>
      </trkpt>
      <trkpt lat="45.17896" lon="6.3698">
        <ele>2654.6000976562</ele>
        <time>2014-01-11T11:47:37.000Z</time>
      </trkpt>
      <trkpt lat="45.17896" lon="6.3698">
        <ele>2654.8000488281</ele>
        <time>2014-01-11T11:47:38.000Z</time>
      </trkpt>
      <trkpt lat="45.17897" lon="6.36982">
        <ele>2655</ele>
        <time>2014-01-11T11:47:39.000Z</time>
      </trkpt>
      <trkpt lat="45.17897" lon="6.36982">
        <ele>2655</ele>
        <time>2014-01-11T11:47:40.000Z</time>
      </trkpt>
      <trkpt lat="45.17897" lon="6.36982">
        <ele>2655.1999511719</ele>
        <time>2014-01-11T11:47:41.000Z</time>
      </trkpt>
      <trkpt lat="45.17898" lon="6.36983">
        <ele>2655.3999023438</ele>
        <time>2014-01-11T11:47:42.000Z</time>
      </trkpt>
      <trkpt lat="45.17898" lon="6.36983">
        <ele>2655.6000976562</ele>
        <time>2014-01-11T11:47:43.000Z</time>
      </trkpt>
      <trkpt lat="45.17898" lon="6.36984">
        <ele>2655.8000488281</ele>
        <time>2014-01-11T11:47:44.000Z</time>
      </trkpt>
      <trkpt lat="45.17899" lon="6.36984">
        <ele>2656</ele>
        <time>2014-01-11T11:47:45.000Z</time>
      </trkpt>
      <trkpt lat="45.17899" lon="6.36984">
        <ele>2656</ele>
        <time>2014-01-11T11:47:46.000Z</time>
      </trkpt>
      <trkpt lat="45.17899" lon="6.36984">
        <ele>2656.1999511719</ele>
        <time>2014-01-11T11:47:47.000Z</time>
      </trkpt>
      <trkpt lat="45.17899" lon="6.36984">
        <ele>2656.1999511719</ele>
        <time>2014-01-11T11:47:48.000Z</time>
      </trkpt>
      <trkpt lat="45.17899" lon="6.36984">
        <ele>2656.3999023438</ele>
        <time>2014-01-11T11:47:49.000Z</time>
      </trkpt>
      <trkpt lat="45.17899" lon="6.36984">
        <ele>2656.6000976562</ele>
        <time>2014-01-11T11:47:50.000Z</time>
      </trkpt>
      <trkpt lat="45.17899" lon="6.36984">
        <ele>2656.8000488281</ele>
        <time>2014-01-11T11:47:51.000Z</time>
      </trkpt>
      <trkpt lat="45.17899" lon="6.36984">
        <ele>2657</ele>
        <time>2014-01-11T11:47:52.000Z</time>
      </trkpt>
      <trkpt lat="45.17899" lon="6.36984">
        <ele>2657.1999511719</ele>
        <time>2014-01-11T11:47:53.000Z</time>
      </trkpt>
      <trkpt lat="45.17899" lon="6.36984">
        <ele>2657.1999511719</ele>
        <time>2014-01-11T11:47:54.000Z</time>
      </trkpt>
      <trkpt lat="45.17899" lon="6.36984">
        <ele>2657.3999023438</ele>
        <time>2014-01-11T11:47:55.000Z</time>
      </trkpt>
      <trkpt lat="45.17899" lon="6.36984">
        <ele>2657.8000488281</ele>
        <time>2014-01-11T11:47:56.000Z</time>
      </trkpt>
      <trkpt lat="45.17899" lon="6.36984">
        <ele>2657.8000488281</ele>
        <time>2014-01-11T11:47:57.000Z</time>
      </trkpt>
      <trkpt lat="45.17899" lon="6.36984">
        <ele>2658</ele>
        <time>2014-01-11T11:47:58.000Z</time>
      </trkpt>
      <trkpt lat="45.17898" lon="6.36984">
        <ele>2658</ele>
        <time>2014-01-11T11:47:59.000Z</time>
      </trkpt>
      <trkpt lat="45.17898" lon="6.36985">
        <ele>2658</ele>
        <time>2014-01-11T11:48:00.000Z</time>
      </trkpt>
      <trkpt lat="45.17897" lon="6.36985">
        <ele>2658</ele>
        <time>2014-01-11T11:48:01.000Z</time>
      </trkpt>
      <trkpt lat="45.17898" lon="6.36985">
        <ele>2658.1999511719</ele>
        <time>2014-01-11T11:48:02.000Z</time>
      </trkpt>
      <trkpt lat="45.17898" lon="6.36985">
        <ele>2658.1999511719</ele>
        <time>2014-01-11T11:48:03.000Z</time>
      </trkpt>
      <trkpt lat="45.17898" lon="6.36985">
        <ele>2658.1999511719</ele>
        <time>2014-01-11T11:48:04.000Z</time>
      </trkpt>
      <trkpt lat="45.17898" lon="6.36985">
        <ele>2658.3999023438</ele>
        <time>2014-01-11T11:48:05.000Z</time>
      </trkpt>
      <trkpt lat="45.17897" lon="6.36985">
        <ele>2658.6000976562</ele>
        <time>2014-01-11T11:48:06.000Z</time>
      </trkpt>
      <trkpt lat="45.17897" lon="6.36986">
        <ele>2658.6000976562</ele>
        <time>2014-01-11T11:48:07.000Z</time>
      </trkpt>
      <trkpt lat="45.17896" lon="6.36986">
        <ele>2658.8000488281</ele>
        <time>2014-01-11T11:48:08.000Z</time>
      </trkpt>
      <trkpt lat="45.17896" lon="6.36987">
        <ele>2659</ele>
        <time>2014-01-11T11:48:09.000Z</time>
      </trkpt>
      <trkpt lat="45.17895" lon="6.36987">
        <ele>2659.1999511719</ele>
        <time>2014-01-11T11:48:10.000Z</time>
      </trkpt>
      <trkpt lat="45.17895" lon="6.36988">
        <ele>2659.1999511719</ele>
        <time>2014-01-11T11:48:11.000Z</time>
      </trkpt>
      <trkpt lat="45.17894" lon="6.36988">
        <ele>2659.3999023438</ele>
        <time>2014-01-11T11:48:12.000Z</time>
      </trkpt>
      <trkpt lat="45.17892" lon="6.36989">
        <ele>2659.6000976562</ele>
        <time>2014-01-11T11:48:13.000Z</time>
      </trkpt>
      <trkpt lat="45.17892" lon="6.36989">
        <ele>2659.8000488281</ele>
        <time>2014-01-11T11:48:14.000Z</time>
      </trkpt>
      <trkpt lat="45.17892" lon="6.36989">
        <ele>2660</ele>
        <time>2014-01-11T11:48:15.000Z</time>
      </trkpt>
      <trkpt lat="45.17892" lon="6.36989">
        <ele>2660</ele>
        <time>2014-01-11T11:48:16.000Z</time>
      </trkpt>
      <trkpt lat="45.17891" lon="6.36989">
        <ele>2660.1999511719</ele>
        <time>2014-01-11T11:48:17.000Z</time>
      </trkpt>
      <trkpt lat="45.17891" lon="6.3699">
        <ele>2660.3999023438</ele>
        <time>2014-01-11T11:48:18.000Z</time>
      </trkpt>
      <trkpt lat="45.1789" lon="6.3699">
        <ele>2660.6000976562</ele>
        <time>2014-01-11T11:48:19.000Z</time>
      </trkpt>
      <trkpt lat="45.1789" lon="6.3699">
        <ele>2661</ele>
        <time>2014-01-11T11:48:20.000Z</time>
      </trkpt>
      <trkpt lat="45.17889" lon="6.3699">
        <ele>2661.1999511719</ele>
        <time>2014-01-11T11:48:21.000Z</time>
      </trkpt>
      <trkpt lat="45.17888" lon="6.36991">
        <ele>2661.1999511719</ele>
        <time>2014-01-11T11:48:22.000Z</time>
      </trkpt>
      <trkpt lat="45.17887" lon="6.36991">
        <ele>2661.3999023438</ele>
        <time>2014-01-11T11:48:23.000Z</time>
      </trkpt>
      <trkpt lat="45.17886" lon="6.36991">
        <ele>2661.3999023438</ele>
        <time>2014-01-11T11:48:24.000Z</time>
      </trkpt>
      <trkpt lat="45.17886" lon="6.36992">
        <ele>2661.6000976562</ele>
        <time>2014-01-11T11:48:25.000Z</time>
      </trkpt>
      <trkpt lat="45.17885" lon="6.36992">
        <ele>2661.6000976562</ele>
        <time>2014-01-11T11:48:26.000Z</time>
      </trkpt>
      <trkpt lat="45.17885" lon="6.36993">
        <ele>2661.8000488281</ele>
        <time>2014-01-11T11:48:27.000Z</time>
      </trkpt>
      <trkpt lat="45.17884" lon="6.36993">
        <ele>2662</ele>
        <time>2014-01-11T11:48:28.000Z</time>
      </trkpt>
      <trkpt lat="45.17884" lon="6.36993">
        <ele>2662.1999511719</ele>
        <time>2014-01-11T11:48:29.000Z</time>
      </trkpt>
      <trkpt lat="45.17883" lon="6.36993">
        <ele>2662.3999023438</ele>
        <time>2014-01-11T11:48:30.000Z</time>
      </trkpt>
      <trkpt lat="45.17883" lon="6.36993">
        <ele>2662.6000976562</ele>
        <time>2014-01-11T11:48:31.000Z</time>
      </trkpt>
      <trkpt lat="45.17882" lon="6.36994">
        <ele>2662.6000976562</ele>
        <time>2014-01-11T11:48:32.000Z</time>
      </trkpt>
      <trkpt lat="45.17882" lon="6.36994">
        <ele>2662.8000488281</ele>
        <time>2014-01-11T11:48:33.000Z</time>
      </trkpt>
      <trkpt lat="45.17881" lon="6.36994">
        <ele>2662.8000488281</ele>
        <time>2014-01-11T11:48:34.000Z</time>
      </trkpt>
      <trkpt lat="45.17881" lon="6.36994">
        <ele>2663</ele>
        <time>2014-01-11T11:48:35.000Z</time>
      </trkpt>
      <trkpt lat="45.17881" lon="6.36994">
        <ele>2663.1999511719</ele>
        <time>2014-01-11T11:48:36.000Z</time>
      </trkpt>
      <trkpt lat="45.17881" lon="6.36994">
        <ele>2663.1999511719</ele>
        <time>2014-01-11T11:48:37.000Z</time>
      </trkpt>
      <trkpt lat="45.17879" lon="6.36996">
        <ele>2663.3999023438</ele>
        <time>2014-01-11T11:48:38.000Z</time>
      </trkpt>
      <trkpt lat="45.17879" lon="6.36996">
        <ele>2663.6000976562</ele>
        <time>2014-01-11T11:48:39.000Z</time>
      </trkpt>
      <trkpt lat="45.17879" lon="6.36995">
        <ele>2663.8000488281</ele>
        <time>2014-01-11T11:48:40.000Z</time>
      </trkpt>
      <trkpt lat="45.17879" lon="6.36995">
        <ele>2664</ele>
        <time>2014-01-11T11:48:41.000Z</time>
      </trkpt>
      <trkpt lat="45.17879" lon="6.36995">
        <ele>2664.1999511719</ele>
        <time>2014-01-11T11:48:42.000Z</time>
      </trkpt>
      <trkpt lat="45.17879" lon="6.36995">
        <ele>2664.3999023438</ele>
        <time>2014-01-11T11:48:43.000Z</time>
      </trkpt>
      <trkpt lat="45.17879" lon="6.36995">
        <ele>2664.6000976562</ele>
        <time>2014-01-11T11:48:44.000Z</time>
      </trkpt>
      <trkpt lat="45.17879" lon="6.36995">
        <ele>2664.6000976562</ele>
        <time>2014-01-11T11:48:45.000Z</time>
      </trkpt>
      <trkpt lat="45.17879" lon="6.36995">
        <ele>2664.8000488281</ele>
        <time>2014-01-11T11:48:46.000Z</time>
      </trkpt>
      <trkpt lat="45.17879" lon="6.36995">
        <ele>2664.8000488281</ele>
        <time>2014-01-11T11:48:47.000Z</time>
      </trkpt>
      <trkpt lat="45.17879" lon="6.36995">
        <ele>2664.8000488281</ele>
        <time>2014-01-11T11:48:48.000Z</time>
      </trkpt>
      <trkpt lat="45.17879" lon="6.36995">
        <ele>2664.8000488281</ele>
        <time>2014-01-11T11:48:50.000Z</time>
      </trkpt>
      <trkpt lat="45.17879" lon="6.36995">
        <ele>2664.8000488281</ele>
        <time>2014-01-11T11:48:54.000Z</time>
      </trkpt>
      <trkpt lat="45.17879" lon="6.36995">
        <ele>2664.8000488281</ele>
        <time>2014-01-11T11:48:55.000Z</time>
      </trkpt>
      <trkpt lat="45.17879" lon="6.36996">
        <ele>2665</ele>
        <time>2014-01-11T11:48:56.000Z</time>
      </trkpt>
      <trkpt lat="45.1788" lon="6.36996">
        <ele>2665</ele>
        <time>2014-01-11T11:48:57.000Z</time>
      </trkpt>
      <trkpt lat="45.1788" lon="6.36996">
        <ele>2665</ele>
        <time>2014-01-11T11:48:58.000Z</time>
      </trkpt>
      <trkpt lat="45.1788" lon="6.36996">
        <ele>2665</ele>
        <time>2014-01-11T11:48:59.000Z</time>
      </trkpt>
      <trkpt lat="45.1788" lon="6.36996">
        <ele>2665.1999511719</ele>
        <time>2014-01-11T11:49:00.000Z</time>
      </trkpt>
      <trkpt lat="45.1788" lon="6.36996">
        <ele>2665.1999511719</ele>
        <time>2014-01-11T11:49:01.000Z</time>
      </trkpt>
      <trkpt lat="45.1788" lon="6.36996">
        <ele>2665.3999023438</ele>
        <time>2014-01-11T11:49:02.000Z</time>
      </trkpt>
      <trkpt lat="45.1788" lon="6.36996">
        <ele>2665.6000976562</ele>
        <time>2014-01-11T11:49:03.000Z</time>
      </trkpt>
      <trkpt lat="45.1788" lon="6.36996">
        <ele>2665.6000976562</ele>
        <time>2014-01-11T11:49:04.000Z</time>
      </trkpt>
      <trkpt lat="45.1788" lon="6.36996">
        <ele>2665.6000976562</ele>
        <time>2014-01-11T11:49:05.000Z</time>
      </trkpt>
      <trkpt lat="45.1788" lon="6.36996">
        <ele>2665.6000976562</ele>
        <time>2014-01-11T11:49:06.000Z</time>
      </trkpt>
      <trkpt lat="45.1788" lon="6.36996">
        <ele>2665.6000976562</ele>
        <time>2014-01-11T11:49:07.000Z</time>
      </trkpt>
      <trkpt lat="45.1788" lon="6.36996">
        <ele>2665.6000976562</ele>
        <time>2014-01-11T11:49:08.000Z</time>
      </trkpt>
      <trkpt lat="45.1788" lon="6.36996">
        <ele>2665.6000976562</ele>
        <time>2014-01-11T11:49:09.000Z</time>
      </trkpt>
      <trkpt lat="45.1788" lon="6.36996">
        <ele>2665.6000976562</ele>
        <time>2014-01-11T11:49:10.000Z</time>
      </trkpt>
      <trkpt lat="45.1788" lon="6.36996">
        <ele>2665.6000976562</ele>
        <time>2014-01-11T11:49:11.000Z</time>
      </trkpt>
      <trkpt lat="45.1788" lon="6.36996">
        <ele>2665.6000976562</ele>
        <time>2014-01-11T11:49:12.000Z</time>
      </trkpt>
      <trkpt lat="45.1788" lon="6.36996">
        <ele>2665.6000976562</ele>
        <time>2014-01-11T11:49:15.000Z</time>
      </trkpt>
      <trkpt lat="45.1788" lon="6.36996">
        <ele>2665.6000976562</ele>
        <time>2014-01-11T11:49:18.000Z</time>
      </trkpt>
      <trkpt lat="45.1788" lon="6.36996">
        <ele>2665.6000976562</ele>
        <time>2014-01-11T11:49:19.000Z</time>
      </trkpt>
      <trkpt lat="45.1788" lon="6.36996">
        <ele>2665.6000976562</ele>
        <time>2014-01-11T11:49:20.000Z</time>
      </trkpt>
      <trkpt lat="45.1788" lon="6.36996">
        <ele>2665.6000976562</ele>
        <time>2014-01-11T11:49:21.000Z</time>
      </trkpt>
      <trkpt lat="45.1788" lon="6.36996">
        <ele>2665.6000976562</ele>
        <time>2014-01-11T11:49:22.000Z</time>
      </trkpt>
      <trkpt lat="45.1788" lon="6.36996">
        <ele>2665.6000976562</ele>
        <time>2014-01-11T11:49:26.000Z</time>
      </trkpt>
      <trkpt lat="45.1788" lon="6.36996">
        <ele>2665.6000976562</ele>
        <time>2014-01-11T11:49:27.000Z</time>
      </trkpt>
      <trkpt lat="45.1788" lon="6.36996">
        <ele>2665.6000976562</ele>
        <time>2014-01-11T11:49:28.000Z</time>
      </trkpt>
      <trkpt lat="45.1788" lon="6.36996">
        <ele>2665.6000976562</ele>
        <time>2014-01-11T11:49:29.000Z</time>
      </trkpt>
      <trkpt lat="45.1788" lon="6.36996">
        <ele>2665.6000976562</ele>
        <time>2014-01-11T11:49:31.000Z</time>
      </trkpt>
      <trkpt lat="45.1788" lon="6.36997">
        <ele>2665.6000976562</ele>
        <time>2014-01-11T11:49:33.000Z</time>
      </trkpt>
      <trkpt lat="45.1788" lon="6.36997">
        <ele>2665.6000976562</ele>
        <time>2014-01-11T11:49:34.000Z</time>
      </trkpt>
      <trkpt lat="45.1788" lon="6.36997">
        <ele>2665.6000976562</ele>
        <time>2014-01-11T11:49:35.000Z</time>
      </trkpt>
      <trkpt lat="45.1788" lon="6.36997">
        <ele>2665.8000488281</ele>
        <time>2014-01-11T11:49:36.000Z</time>
      </trkpt>
      <trkpt lat="45.17881" lon="6.36998">
        <ele>2665.8000488281</ele>
        <time>2014-01-11T11:49:37.000Z</time>
      </trkpt>
      <trkpt lat="45.17882" lon="6.36999">
        <ele>2665.8000488281</ele>
        <time>2014-01-11T11:49:38.000Z</time>
      </trkpt>
      <trkpt lat="45.17882" lon="6.36999">
        <ele>2666</ele>
        <time>2014-01-11T11:49:39.000Z</time>
      </trkpt>
      <trkpt lat="45.17883" lon="6.36999">
        <ele>2666</ele>
        <time>2014-01-11T11:49:40.000Z</time>
      </trkpt>
      <trkpt lat="45.17883" lon="6.37">
        <ele>2666.1999511719</ele>
        <time>2014-01-11T11:49:41.000Z</time>
      </trkpt>
      <trkpt lat="45.17883" lon="6.37">
        <ele>2666.3999023438</ele>
        <time>2014-01-11T11:49:42.000Z</time>
      </trkpt>
      <trkpt lat="45.17884" lon="6.37">
        <ele>2666.6000976562</ele>
        <time>2014-01-11T11:49:43.000Z</time>
      </trkpt>
      <trkpt lat="45.17885" lon="6.37001">
        <ele>2666.8000488281</ele>
        <time>2014-01-11T11:49:44.000Z</time>
      </trkpt>
      <trkpt lat="45.17884" lon="6.37001">
        <ele>2666.8000488281</ele>
        <time>2014-01-11T11:49:45.000Z</time>
      </trkpt>
      <trkpt lat="45.17886" lon="6.37002">
        <ele>2667</ele>
        <time>2014-01-11T11:49:46.000Z</time>
      </trkpt>
      <trkpt lat="45.17885" lon="6.37002">
        <ele>2667</ele>
        <time>2014-01-11T11:49:47.000Z</time>
      </trkpt>
      <trkpt lat="45.17887" lon="6.37004">
        <ele>2667.1999511719</ele>
        <time>2014-01-11T11:49:48.000Z</time>
      </trkpt>
      <trkpt lat="45.17887" lon="6.37004">
        <ele>2667.3999023438</ele>
        <time>2014-01-11T11:49:49.000Z</time>
      </trkpt>
      <trkpt lat="45.17888" lon="6.37005">
        <ele>2667.6000976562</ele>
        <time>2014-01-11T11:49:50.000Z</time>
      </trkpt>
      <trkpt lat="45.17888" lon="6.37005">
        <ele>2667.8000488281</ele>
        <time>2014-01-11T11:49:51.000Z</time>
      </trkpt>
      <trkpt lat="45.17889" lon="6.37006">
        <ele>2668</ele>
        <time>2014-01-11T11:49:52.000Z</time>
      </trkpt>
      <trkpt lat="45.17889" lon="6.37005">
        <ele>2668.1999511719</ele>
        <time>2014-01-11T11:49:53.000Z</time>
      </trkpt>
      <trkpt lat="45.1789" lon="6.37006">
        <ele>2668.1999511719</ele>
        <time>2014-01-11T11:49:54.000Z</time>
      </trkpt>
      <trkpt lat="45.17891" lon="6.37007">
        <ele>2668.3999023438</ele>
        <time>2014-01-11T11:49:55.000Z</time>
      </trkpt>
      <trkpt lat="45.17891" lon="6.37008">
        <ele>2668.6000976562</ele>
        <time>2014-01-11T11:49:56.000Z</time>
      </trkpt>
      <trkpt lat="45.17891" lon="6.37007">
        <ele>2668.6000976562</ele>
        <time>2014-01-11T11:49:57.000Z</time>
      </trkpt>
      <trkpt lat="45.17891" lon="6.37008">
        <ele>2668.8000488281</ele>
        <time>2014-01-11T11:49:58.000Z</time>
      </trkpt>
      <trkpt lat="45.17892" lon="6.37009">
        <ele>2668.8000488281</ele>
        <time>2014-01-11T11:49:59.000Z</time>
      </trkpt>
      <trkpt lat="45.17892" lon="6.3701">
        <ele>2669</ele>
        <time>2014-01-11T11:50:00.000Z</time>
      </trkpt>
      <trkpt lat="45.17892" lon="6.3701">
        <ele>2669.1999511719</ele>
        <time>2014-01-11T11:50:01.000Z</time>
      </trkpt>
      <trkpt lat="45.17892" lon="6.37011">
        <ele>2669.1999511719</ele>
        <time>2014-01-11T11:50:02.000Z</time>
      </trkpt>
      <trkpt lat="45.17893" lon="6.37011">
        <ele>2669.3999023438</ele>
        <time>2014-01-11T11:50:03.000Z</time>
      </trkpt>
      <trkpt lat="45.17893" lon="6.37011">
        <ele>2669.8000488281</ele>
        <time>2014-01-11T11:50:04.000Z</time>
      </trkpt>
      <trkpt lat="45.17893" lon="6.37011">
        <ele>2670</ele>
        <time>2014-01-11T11:50:05.000Z</time>
      </trkpt>
      <trkpt lat="45.17893" lon="6.37012">
        <ele>2670.1999511719</ele>
        <time>2014-01-11T11:50:06.000Z</time>
      </trkpt>
      <trkpt lat="45.17893" lon="6.37012">
        <ele>2670.1999511719</ele>
        <time>2014-01-11T11:50:07.000Z</time>
      </trkpt>
      <trkpt lat="45.17894" lon="6.37012">
        <ele>2670.3999023438</ele>
        <time>2014-01-11T11:50:08.000Z</time>
      </trkpt>
      <trkpt lat="45.17894" lon="6.37013">
        <ele>2670.3999023438</ele>
        <time>2014-01-11T11:50:09.000Z</time>
      </trkpt>
      <trkpt lat="45.17894" lon="6.37014">
        <ele>2670.6000976562</ele>
        <time>2014-01-11T11:50:10.000Z</time>
      </trkpt>
      <trkpt lat="45.17895" lon="6.37014">
        <ele>2670.6000976562</ele>
        <time>2014-01-11T11:50:11.000Z</time>
      </trkpt>
      <trkpt lat="45.17895" lon="6.37015">
        <ele>2670.8000488281</ele>
        <time>2014-01-11T11:50:12.000Z</time>
      </trkpt>
      <trkpt lat="45.17896" lon="6.37015">
        <ele>2671</ele>
        <time>2014-01-11T11:50:13.000Z</time>
      </trkpt>
      <trkpt lat="45.17896" lon="6.37015">
        <ele>2671.1999511719</ele>
        <time>2014-01-11T11:50:14.000Z</time>
      </trkpt>
      <trkpt lat="45.17897" lon="6.37015">
        <ele>2671.3999023438</ele>
        <time>2014-01-11T11:50:15.000Z</time>
      </trkpt>
      <trkpt lat="45.17897" lon="6.37016">
        <ele>2671.3999023438</ele>
        <time>2014-01-11T11:50:16.000Z</time>
      </trkpt>
      <trkpt lat="45.17898" lon="6.37016">
        <ele>2671.6000976562</ele>
        <time>2014-01-11T11:50:17.000Z</time>
      </trkpt>
      <trkpt lat="45.17898" lon="6.37017">
        <ele>2671.6000976562</ele>
        <time>2014-01-11T11:50:18.000Z</time>
      </trkpt>
      <trkpt lat="45.17898" lon="6.37017">
        <ele>2671.8000488281</ele>
        <time>2014-01-11T11:50:19.000Z</time>
      </trkpt>
      <trkpt lat="45.17898" lon="6.37017">
        <ele>2672.1999511719</ele>
        <time>2014-01-11T11:50:20.000Z</time>
      </trkpt>
      <trkpt lat="45.17899" lon="6.37018">
        <ele>2672.3999023438</ele>
        <time>2014-01-11T11:50:21.000Z</time>
      </trkpt>
      <trkpt lat="45.17899" lon="6.37018">
        <ele>2672.3999023438</ele>
        <time>2014-01-11T11:50:22.000Z</time>
      </trkpt>
      <trkpt lat="45.17899" lon="6.37019">
        <ele>2672.6000976562</ele>
        <time>2014-01-11T11:50:23.000Z</time>
      </trkpt>
      <trkpt lat="45.179" lon="6.37019">
        <ele>2672.6000976562</ele>
        <time>2014-01-11T11:50:24.000Z</time>
      </trkpt>
      <trkpt lat="45.179" lon="6.37019">
        <ele>2672.8000488281</ele>
        <time>2014-01-11T11:50:25.000Z</time>
      </trkpt>
      <trkpt lat="45.179" lon="6.3702">
        <ele>2672.8000488281</ele>
        <time>2014-01-11T11:50:26.000Z</time>
      </trkpt>
      <trkpt lat="45.17901" lon="6.37021">
        <ele>2673</ele>
        <time>2014-01-11T11:50:27.000Z</time>
      </trkpt>
      <trkpt lat="45.179" lon="6.37021">
        <ele>2673.1999511719</ele>
        <time>2014-01-11T11:50:28.000Z</time>
      </trkpt>
      <trkpt lat="45.17901" lon="6.37021">
        <ele>2673.1999511719</ele>
        <time>2014-01-11T11:50:29.000Z</time>
      </trkpt>
      <trkpt lat="45.17901" lon="6.37022">
        <ele>2673.3999023438</ele>
        <time>2014-01-11T11:50:30.000Z</time>
      </trkpt>
      <trkpt lat="45.17902" lon="6.37023">
        <ele>2673.3999023438</ele>
        <time>2014-01-11T11:50:31.000Z</time>
      </trkpt>
      <trkpt lat="45.17902" lon="6.37024">
        <ele>2673.6000976562</ele>
        <time>2014-01-11T11:50:32.000Z</time>
      </trkpt>
      <trkpt lat="45.17903" lon="6.37024">
        <ele>2673.8000488281</ele>
        <time>2014-01-11T11:50:33.000Z</time>
      </trkpt>
      <trkpt lat="45.17903" lon="6.37024">
        <ele>2674</ele>
        <time>2014-01-11T11:50:34.000Z</time>
      </trkpt>
      <trkpt lat="45.17903" lon="6.37024">
        <ele>2674</ele>
        <time>2014-01-11T11:50:35.000Z</time>
      </trkpt>
      <trkpt lat="45.17903" lon="6.37025">
        <ele>2674.1999511719</ele>
        <time>2014-01-11T11:50:36.000Z</time>
      </trkpt>
      <trkpt lat="45.17903" lon="6.37024">
        <ele>2674.1999511719</ele>
        <time>2014-01-11T11:50:37.000Z</time>
      </trkpt>
      <trkpt lat="45.17903" lon="6.37024">
        <ele>2674.3999023438</ele>
        <time>2014-01-11T11:50:38.000Z</time>
      </trkpt>
      <trkpt lat="45.17904" lon="6.37025">
        <ele>2674.3999023438</ele>
        <time>2014-01-11T11:50:39.000Z</time>
      </trkpt>
      <trkpt lat="45.17904" lon="6.37025">
        <ele>2674.6000976562</ele>
        <time>2014-01-11T11:50:40.000Z</time>
      </trkpt>
      <trkpt lat="45.17904" lon="6.37025">
        <ele>2674.8000488281</ele>
        <time>2014-01-11T11:50:41.000Z</time>
      </trkpt>
      <trkpt lat="45.17905" lon="6.37026">
        <ele>2675</ele>
        <time>2014-01-11T11:50:42.000Z</time>
      </trkpt>
      <trkpt lat="45.17906" lon="6.37026">
        <ele>2675</ele>
        <time>2014-01-11T11:50:43.000Z</time>
      </trkpt>
      <trkpt lat="45.17906" lon="6.37026">
        <ele>2675.3999023438</ele>
        <time>2014-01-11T11:50:44.000Z</time>
      </trkpt>
      <trkpt lat="45.17906" lon="6.37026">
        <ele>2675.3999023438</ele>
        <time>2014-01-11T11:50:45.000Z</time>
      </trkpt>
      <trkpt lat="45.17907" lon="6.37026">
        <ele>2675.6000976562</ele>
        <time>2014-01-11T11:50:46.000Z</time>
      </trkpt>
      <trkpt lat="45.17907" lon="6.37027">
        <ele>2675.6000976562</ele>
        <time>2014-01-11T11:50:47.000Z</time>
      </trkpt>
      <trkpt lat="45.17908" lon="6.37027">
        <ele>2675.8000488281</ele>
        <time>2014-01-11T11:50:48.000Z</time>
      </trkpt>
      <trkpt lat="45.17909" lon="6.37028">
        <ele>2676</ele>
        <time>2014-01-11T11:50:49.000Z</time>
      </trkpt>
      <trkpt lat="45.17909" lon="6.37027">
        <ele>2676</ele>
        <time>2014-01-11T11:50:50.000Z</time>
      </trkpt>
      <trkpt lat="45.17909" lon="6.37028">
        <ele>2676.1999511719</ele>
        <time>2014-01-11T11:50:51.000Z</time>
      </trkpt>
      <trkpt lat="45.1791" lon="6.37028">
        <ele>2676.3999023438</ele>
        <time>2014-01-11T11:50:52.000Z</time>
      </trkpt>
      <trkpt lat="45.1791" lon="6.37029">
        <ele>2676.3999023438</ele>
        <time>2014-01-11T11:50:53.000Z</time>
      </trkpt>
      <trkpt lat="45.1791" lon="6.37029">
        <ele>2676.6000976562</ele>
        <time>2014-01-11T11:50:54.000Z</time>
      </trkpt>
      <trkpt lat="45.1791" lon="6.37029">
        <ele>2677</ele>
        <time>2014-01-11T11:50:55.000Z</time>
      </trkpt>
      <trkpt lat="45.1791" lon="6.3703">
        <ele>2677.1999511719</ele>
        <time>2014-01-11T11:50:56.000Z</time>
      </trkpt>
      <trkpt lat="45.17911" lon="6.37029">
        <ele>2677.1999511719</ele>
        <time>2014-01-11T11:50:57.000Z</time>
      </trkpt>
      <trkpt lat="45.17912" lon="6.37031">
        <ele>2677.3999023438</ele>
        <time>2014-01-11T11:50:58.000Z</time>
      </trkpt>
      <trkpt lat="45.17912" lon="6.3703">
        <ele>2677.3999023438</ele>
        <time>2014-01-11T11:50:59.000Z</time>
      </trkpt>
      <trkpt lat="45.17912" lon="6.37031">
        <ele>2677.6000976562</ele>
        <time>2014-01-11T11:51:00.000Z</time>
      </trkpt>
      <trkpt lat="45.17912" lon="6.37031">
        <ele>2677.8000488281</ele>
        <time>2014-01-11T11:51:01.000Z</time>
      </trkpt>
      <trkpt lat="45.17912" lon="6.37031">
        <ele>2678</ele>
        <time>2014-01-11T11:51:02.000Z</time>
      </trkpt>
      <trkpt lat="45.17913" lon="6.37032">
        <ele>2678.1999511719</ele>
        <time>2014-01-11T11:51:03.000Z</time>
      </trkpt>
      <trkpt lat="45.17913" lon="6.37032">
        <ele>2678.3999023438</ele>
        <time>2014-01-11T11:51:04.000Z</time>
      </trkpt>
      <trkpt lat="45.17914" lon="6.37033">
        <ele>2678.6000976562</ele>
        <time>2014-01-11T11:51:05.000Z</time>
      </trkpt>
      <trkpt lat="45.17914" lon="6.37033">
        <ele>2678.6000976562</ele>
        <time>2014-01-11T11:51:06.000Z</time>
      </trkpt>
      <trkpt lat="45.17915" lon="6.37033">
        <ele>2678.8000488281</ele>
        <time>2014-01-11T11:51:07.000Z</time>
      </trkpt>
      <trkpt lat="45.17915" lon="6.37033">
        <ele>2678.8000488281</ele>
        <time>2014-01-11T11:51:08.000Z</time>
      </trkpt>
      <trkpt lat="45.17916" lon="6.37034">
        <ele>2679</ele>
        <time>2014-01-11T11:51:09.000Z</time>
      </trkpt>
      <trkpt lat="45.17915" lon="6.37034">
        <ele>2679.1999511719</ele>
        <time>2014-01-11T11:51:10.000Z</time>
      </trkpt>
      <trkpt lat="45.17915" lon="6.37034">
        <ele>2679.3999023438</ele>
        <time>2014-01-11T11:51:11.000Z</time>
      </trkpt>
      <trkpt lat="45.17915" lon="6.37034">
        <ele>2679.6000976562</ele>
        <time>2014-01-11T11:51:12.000Z</time>
      </trkpt>
      <trkpt lat="45.17915" lon="6.37034">
        <ele>2679.6000976562</ele>
        <time>2014-01-11T11:51:13.000Z</time>
      </trkpt>
      <trkpt lat="45.17915" lon="6.37034">
        <ele>2679.8000488281</ele>
        <time>2014-01-11T11:51:14.000Z</time>
      </trkpt>
      <trkpt lat="45.17915" lon="6.37034">
        <ele>2680</ele>
        <time>2014-01-11T11:51:15.000Z</time>
      </trkpt>
      <trkpt lat="45.17915" lon="6.37034">
        <ele>2680</ele>
        <time>2014-01-11T11:51:16.000Z</time>
      </trkpt>
      <trkpt lat="45.17915" lon="6.37034">
        <ele>2680.1999511719</ele>
        <time>2014-01-11T11:51:17.000Z</time>
      </trkpt>
      <trkpt lat="45.17915" lon="6.37034">
        <ele>2680.1999511719</ele>
        <time>2014-01-11T11:51:18.000Z</time>
      </trkpt>
      <trkpt lat="45.17915" lon="6.37034">
        <ele>2680.1999511719</ele>
        <time>2014-01-11T11:51:19.000Z</time>
      </trkpt>
      <trkpt lat="45.17915" lon="6.37034">
        <ele>2680.1999511719</ele>
        <time>2014-01-11T11:51:20.000Z</time>
      </trkpt>
      <trkpt lat="45.17915" lon="6.37034">
        <ele>2680.1999511719</ele>
        <time>2014-01-11T11:51:21.000Z</time>
      </trkpt>
      <trkpt lat="45.17915" lon="6.37034">
        <ele>2680.1999511719</ele>
        <time>2014-01-11T11:51:23.000Z</time>
      </trkpt>
      <trkpt lat="45.17915" lon="6.37034">
        <ele>2680.3999023438</ele>
        <time>2014-01-11T11:51:24.000Z</time>
      </trkpt>
      <trkpt lat="45.17916" lon="6.37035">
        <ele>2680.3999023438</ele>
        <time>2014-01-11T11:51:25.000Z</time>
      </trkpt>
      <trkpt lat="45.17916" lon="6.37036">
        <ele>2680.6000976562</ele>
        <time>2014-01-11T11:51:26.000Z</time>
      </trkpt>
      <trkpt lat="45.17917" lon="6.37037">
        <ele>2680.8000488281</ele>
        <time>2014-01-11T11:51:27.000Z</time>
      </trkpt>
      <trkpt lat="45.17917" lon="6.37037">
        <ele>2681</ele>
        <time>2014-01-11T11:51:28.000Z</time>
      </trkpt>
      <trkpt lat="45.17918" lon="6.37038">
        <ele>2681.1999511719</ele>
        <time>2014-01-11T11:51:29.000Z</time>
      </trkpt>
      <trkpt lat="45.17919" lon="6.37039">
        <ele>2681.3999023438</ele>
        <time>2014-01-11T11:51:30.000Z</time>
      </trkpt>
      <trkpt lat="45.17919" lon="6.37039">
        <ele>2681.3999023438</ele>
        <time>2014-01-11T11:51:31.000Z</time>
      </trkpt>
      <trkpt lat="45.1792" lon="6.3704">
        <ele>2681.3999023438</ele>
        <time>2014-01-11T11:51:32.000Z</time>
      </trkpt>
      <trkpt lat="45.1792" lon="6.3704">
        <ele>2681.8000488281</ele>
        <time>2014-01-11T11:51:33.000Z</time>
      </trkpt>
      <trkpt lat="45.17921" lon="6.37041">
        <ele>2682</ele>
        <time>2014-01-11T11:51:34.000Z</time>
      </trkpt>
      <trkpt lat="45.17921" lon="6.37042">
        <ele>2682.1999511719</ele>
        <time>2014-01-11T11:51:35.000Z</time>
      </trkpt>
      <trkpt lat="45.17921" lon="6.37042">
        <ele>2682.3999023438</ele>
        <time>2014-01-11T11:51:36.000Z</time>
      </trkpt>
      <trkpt lat="45.17922" lon="6.37043">
        <ele>2682.6000976562</ele>
        <time>2014-01-11T11:51:37.000Z</time>
      </trkpt>
      <trkpt lat="45.17922" lon="6.37043">
        <ele>2682.6000976562</ele>
        <time>2014-01-11T11:51:38.000Z</time>
      </trkpt>
      <trkpt lat="45.17922" lon="6.37043">
        <ele>2683</ele>
        <time>2014-01-11T11:51:39.000Z</time>
      </trkpt>
      <trkpt lat="45.17922" lon="6.37043">
        <ele>2683.1999511719</ele>
        <time>2014-01-11T11:51:40.000Z</time>
      </trkpt>
      <trkpt lat="45.17923" lon="6.37043">
        <ele>2683.1999511719</ele>
        <time>2014-01-11T11:51:41.000Z</time>
      </trkpt>
      <trkpt lat="45.17924" lon="6.37043">
        <ele>2683.3999023438</ele>
        <time>2014-01-11T11:51:42.000Z</time>
      </trkpt>
      <trkpt lat="45.17924" lon="6.37043">
        <ele>2683.3999023438</ele>
        <time>2014-01-11T11:51:43.000Z</time>
      </trkpt>
      <trkpt lat="45.17924" lon="6.37043">
        <ele>2683.3999023438</ele>
        <time>2014-01-11T11:51:44.000Z</time>
      </trkpt>
      <trkpt lat="45.17924" lon="6.37043">
        <ele>2683.6000976562</ele>
        <time>2014-01-11T11:51:45.000Z</time>
      </trkpt>
      <trkpt lat="45.17924" lon="6.37043">
        <ele>2683.8000488281</ele>
        <time>2014-01-11T11:51:46.000Z</time>
      </trkpt>
      <trkpt lat="45.17924" lon="6.37043">
        <ele>2684</ele>
        <time>2014-01-11T11:51:47.000Z</time>
      </trkpt>
      <trkpt lat="45.17924" lon="6.37043">
        <ele>2684.1999511719</ele>
        <time>2014-01-11T11:51:48.000Z</time>
      </trkpt>
      <trkpt lat="45.17924" lon="6.37043">
        <ele>2684.1999511719</ele>
        <time>2014-01-11T11:51:49.000Z</time>
      </trkpt>
      <trkpt lat="45.17923" lon="6.37043">
        <ele>2684.1999511719</ele>
        <time>2014-01-11T11:51:50.000Z</time>
      </trkpt>
      <trkpt lat="45.17923" lon="6.37043">
        <ele>2684.1999511719</ele>
        <time>2014-01-11T11:51:51.000Z</time>
      </trkpt>
      <trkpt lat="45.17923" lon="6.37043">
        <ele>2684.1999511719</ele>
        <time>2014-01-11T11:51:52.000Z</time>
      </trkpt>
      <trkpt lat="45.17923" lon="6.37043">
        <ele>2684.1999511719</ele>
        <time>2014-01-11T11:51:54.000Z</time>
      </trkpt>
      <trkpt lat="45.17923" lon="6.37043">
        <ele>2684.1999511719</ele>
        <time>2014-01-11T11:51:55.000Z</time>
      </trkpt>
      <trkpt lat="45.17923" lon="6.37043">
        <ele>2684.1999511719</ele>
        <time>2014-01-11T11:51:56.000Z</time>
      </trkpt>
      <trkpt lat="45.17923" lon="6.37043">
        <ele>2684.1999511719</ele>
        <time>2014-01-11T11:51:57.000Z</time>
      </trkpt>
      <trkpt lat="45.17922" lon="6.37043">
        <ele>2684.3999023438</ele>
        <time>2014-01-11T11:52:00.000Z</time>
      </trkpt>
      <trkpt lat="45.17922" lon="6.37044">
        <ele>2684.3999023438</ele>
        <time>2014-01-11T11:52:01.000Z</time>
      </trkpt>
      <trkpt lat="45.17922" lon="6.37044">
        <ele>2684.6000976562</ele>
        <time>2014-01-11T11:52:02.000Z</time>
      </trkpt>
      <trkpt lat="45.17921" lon="6.37044">
        <ele>2684.6000976562</ele>
        <time>2014-01-11T11:52:03.000Z</time>
      </trkpt>
      <trkpt lat="45.17921" lon="6.37044">
        <ele>2684.8000488281</ele>
        <time>2014-01-11T11:52:04.000Z</time>
      </trkpt>
      <trkpt lat="45.17919" lon="6.37045">
        <ele>2684.8000488281</ele>
        <time>2014-01-11T11:52:05.000Z</time>
      </trkpt>
      <trkpt lat="45.17919" lon="6.37045">
        <ele>2685</ele>
        <time>2014-01-11T11:52:06.000Z</time>
      </trkpt>
      <trkpt lat="45.17918" lon="6.37045">
        <ele>2685.1999511719</ele>
        <time>2014-01-11T11:52:07.000Z</time>
      </trkpt>
      <trkpt lat="45.17919" lon="6.37046">
        <ele>2685.3999023438</ele>
        <time>2014-01-11T11:52:08.000Z</time>
      </trkpt>
      <trkpt lat="45.17917" lon="6.37046">
        <ele>2685.6000976562</ele>
        <time>2014-01-11T11:52:09.000Z</time>
      </trkpt>
      <trkpt lat="45.17918" lon="6.37046">
        <ele>2685.6000976562</ele>
        <time>2014-01-11T11:52:10.000Z</time>
      </trkpt>
      <trkpt lat="45.17918" lon="6.37046">
        <ele>2685.8000488281</ele>
        <time>2014-01-11T11:52:11.000Z</time>
      </trkpt>
      <trkpt lat="45.17917" lon="6.37046">
        <ele>2686</ele>
        <time>2014-01-11T11:52:12.000Z</time>
      </trkpt>
      <trkpt lat="45.17917" lon="6.37046">
        <ele>2686.1999511719</ele>
        <time>2014-01-11T11:52:13.000Z</time>
      </trkpt>
      <trkpt lat="45.17917" lon="6.37046">
        <ele>2686.1999511719</ele>
        <time>2014-01-11T11:52:14.000Z</time>
      </trkpt>
      <trkpt lat="45.17916" lon="6.37047">
        <ele>2686.3999023438</ele>
        <time>2014-01-11T11:52:15.000Z</time>
      </trkpt>
      <trkpt lat="45.17916" lon="6.37047">
        <ele>2686.6000976562</ele>
        <time>2014-01-11T11:52:16.000Z</time>
      </trkpt>
      <trkpt lat="45.17915" lon="6.37048">
        <ele>2686.6000976562</ele>
        <time>2014-01-11T11:52:17.000Z</time>
      </trkpt>
      <trkpt lat="45.17915" lon="6.37048">
        <ele>2686.8000488281</ele>
        <time>2014-01-11T11:52:18.000Z</time>
      </trkpt>
      <trkpt lat="45.17914" lon="6.37048">
        <ele>2686.8000488281</ele>
        <time>2014-01-11T11:52:19.000Z</time>
      </trkpt>
      <trkpt lat="45.17914" lon="6.37048">
        <ele>2687</ele>
        <time>2014-01-11T11:52:20.000Z</time>
      </trkpt>
      <trkpt lat="45.17914" lon="6.37049">
        <ele>2687.1999511719</ele>
        <time>2014-01-11T11:52:21.000Z</time>
      </trkpt>
      <trkpt lat="45.17913" lon="6.37049">
        <ele>2687.3999023438</ele>
        <time>2014-01-11T11:52:22.000Z</time>
      </trkpt>
      <trkpt lat="45.17912" lon="6.3705">
        <ele>2687.6000976562</ele>
        <time>2014-01-11T11:52:23.000Z</time>
      </trkpt>
      <trkpt lat="45.17912" lon="6.3705">
        <ele>2687.6000976562</ele>
        <time>2014-01-11T11:52:24.000Z</time>
      </trkpt>
      <trkpt lat="45.17911" lon="6.3705">
        <ele>2687.6000976562</ele>
        <time>2014-01-11T11:52:25.000Z</time>
      </trkpt>
      <trkpt lat="45.17911" lon="6.3705">
        <ele>2687.8000488281</ele>
        <time>2014-01-11T11:52:26.000Z</time>
      </trkpt>
      <trkpt lat="45.1791" lon="6.37051">
        <ele>2688</ele>
        <time>2014-01-11T11:52:27.000Z</time>
      </trkpt>
      <trkpt lat="45.1791" lon="6.37051">
        <ele>2688.1999511719</ele>
        <time>2014-01-11T11:52:28.000Z</time>
      </trkpt>
      <trkpt lat="45.1791" lon="6.37051">
        <ele>2688.3999023438</ele>
        <time>2014-01-11T11:52:29.000Z</time>
      </trkpt>
      <trkpt lat="45.1791" lon="6.37051">
        <ele>2688.6000976562</ele>
        <time>2014-01-11T11:52:30.000Z</time>
      </trkpt>
      <trkpt lat="45.17909" lon="6.37051">
        <ele>2688.8000488281</ele>
        <time>2014-01-11T11:52:31.000Z</time>
      </trkpt>
      <trkpt lat="45.17909" lon="6.37051">
        <ele>2688.8000488281</ele>
        <time>2014-01-11T11:52:32.000Z</time>
      </trkpt>
      <trkpt lat="45.17909" lon="6.37051">
        <ele>2689</ele>
        <time>2014-01-11T11:52:33.000Z</time>
      </trkpt>
      <trkpt lat="45.17909" lon="6.37051">
        <ele>2689.1999511719</ele>
        <time>2014-01-11T11:52:34.000Z</time>
      </trkpt>
      <trkpt lat="45.17909" lon="6.37051">
        <ele>2689.1999511719</ele>
        <time>2014-01-11T11:52:35.000Z</time>
      </trkpt>
      <trkpt lat="45.17909" lon="6.37051">
        <ele>2689.1999511719</ele>
        <time>2014-01-11T11:52:36.000Z</time>
      </trkpt>
      <trkpt lat="45.17909" lon="6.37051">
        <ele>2689.3999023438</ele>
        <time>2014-01-11T11:52:37.000Z</time>
      </trkpt>
      <trkpt lat="45.17909" lon="6.37051">
        <ele>2689.3999023438</ele>
        <time>2014-01-11T11:52:38.000Z</time>
      </trkpt>
      <trkpt lat="45.17909" lon="6.37051">
        <ele>2689.3999023438</ele>
        <time>2014-01-11T11:52:39.000Z</time>
      </trkpt>
      <trkpt lat="45.17909" lon="6.37051">
        <ele>2689.3999023438</ele>
        <time>2014-01-11T11:52:40.000Z</time>
      </trkpt>
      <trkpt lat="45.17909" lon="6.37051">
        <ele>2689.3999023438</ele>
        <time>2014-01-11T11:52:41.000Z</time>
      </trkpt>
      <trkpt lat="45.17909" lon="6.37051">
        <ele>2689.6000976562</ele>
        <time>2014-01-11T11:52:42.000Z</time>
      </trkpt>
      <trkpt lat="45.17909" lon="6.37051">
        <ele>2689.6000976562</ele>
        <time>2014-01-11T11:52:43.000Z</time>
      </trkpt>
      <trkpt lat="45.17909" lon="6.37051">
        <ele>2689.6000976562</ele>
        <time>2014-01-11T11:52:44.000Z</time>
      </trkpt>
      <trkpt lat="45.17909" lon="6.37051">
        <ele>2689.8000488281</ele>
        <time>2014-01-11T11:52:45.000Z</time>
      </trkpt>
      <trkpt lat="45.17909" lon="6.37051">
        <ele>2689.8000488281</ele>
        <time>2014-01-11T11:52:46.000Z</time>
      </trkpt>
      <trkpt lat="45.17909" lon="6.37051">
        <ele>2690</ele>
        <time>2014-01-11T11:52:47.000Z</time>
      </trkpt>
      <trkpt lat="45.17909" lon="6.37052">
        <ele>2690</ele>
        <time>2014-01-11T11:52:48.000Z</time>
      </trkpt>
      <trkpt lat="45.1791" lon="6.37052">
        <ele>2690</ele>
        <time>2014-01-11T11:52:49.000Z</time>
      </trkpt>
      <trkpt lat="45.1791" lon="6.37053">
        <ele>2690.1999511719</ele>
        <time>2014-01-11T11:52:50.000Z</time>
      </trkpt>
      <trkpt lat="45.17911" lon="6.37054">
        <ele>2690.3999023438</ele>
        <time>2014-01-11T11:52:51.000Z</time>
      </trkpt>
      <trkpt lat="45.17911" lon="6.37055">
        <ele>2690.6000976562</ele>
        <time>2014-01-11T11:52:52.000Z</time>
      </trkpt>
      <trkpt lat="45.17911" lon="6.37056">
        <ele>2690.8000488281</ele>
        <time>2014-01-11T11:52:53.000Z</time>
      </trkpt>
      <trkpt lat="45.17912" lon="6.37057">
        <ele>2691</ele>
        <time>2014-01-11T11:52:54.000Z</time>
      </trkpt>
      <trkpt lat="45.17912" lon="6.37058">
        <ele>2691</ele>
        <time>2014-01-11T11:52:55.000Z</time>
      </trkpt>
      <trkpt lat="45.17912" lon="6.37059">
        <ele>2691</ele>
        <time>2014-01-11T11:52:56.000Z</time>
      </trkpt>
      <trkpt lat="45.17913" lon="6.37059">
        <ele>2691.1999511719</ele>
        <time>2014-01-11T11:52:57.000Z</time>
      </trkpt>
      <trkpt lat="45.17914" lon="6.37061">
        <ele>2691.3999023438</ele>
        <time>2014-01-11T11:52:58.000Z</time>
      </trkpt>
      <trkpt lat="45.17914" lon="6.37062">
        <ele>2691.6000976562</ele>
        <time>2014-01-11T11:53:00.000Z</time>
      </trkpt>
      <trkpt lat="45.17915" lon="6.37062">
        <ele>2691.8000488281</ele>
        <time>2014-01-11T11:53:01.000Z</time>
      </trkpt>
      <trkpt lat="45.17915" lon="6.37063">
        <ele>2692</ele>
        <time>2014-01-11T11:53:02.000Z</time>
      </trkpt>
      <trkpt lat="45.17915" lon="6.37064">
        <ele>2692</ele>
        <time>2014-01-11T11:53:03.000Z</time>
      </trkpt>
      <trkpt lat="45.17916" lon="6.37064">
        <ele>2692.1999511719</ele>
        <time>2014-01-11T11:53:04.000Z</time>
      </trkpt>
      <trkpt lat="45.17916" lon="6.37064">
        <ele>2692.1999511719</ele>
        <time>2014-01-11T11:53:05.000Z</time>
      </trkpt>
      <trkpt lat="45.17918" lon="6.37065">
        <ele>2692.3999023438</ele>
        <time>2014-01-11T11:53:06.000Z</time>
      </trkpt>
      <trkpt lat="45.17918" lon="6.37065">
        <ele>2692.6000976562</ele>
        <time>2014-01-11T11:53:07.000Z</time>
      </trkpt>
      <trkpt lat="45.17918" lon="6.37065">
        <ele>2692.8000488281</ele>
        <time>2014-01-11T11:53:08.000Z</time>
      </trkpt>
      <trkpt lat="45.17919" lon="6.37066">
        <ele>2693.1999511719</ele>
        <time>2014-01-11T11:53:09.000Z</time>
      </trkpt>
      <trkpt lat="45.17919" lon="6.37066">
        <ele>2693.3999023438</ele>
        <time>2014-01-11T11:53:10.000Z</time>
      </trkpt>
      <trkpt lat="45.1792" lon="6.37066">
        <ele>2693.6000976562</ele>
        <time>2014-01-11T11:53:11.000Z</time>
      </trkpt>
      <trkpt lat="45.1792" lon="6.37067">
        <ele>2693.6000976562</ele>
        <time>2014-01-11T11:53:12.000Z</time>
      </trkpt>
      <trkpt lat="45.17921" lon="6.37067">
        <ele>2693.8000488281</ele>
        <time>2014-01-11T11:53:13.000Z</time>
      </trkpt>
      <trkpt lat="45.17921" lon="6.37067">
        <ele>2694</ele>
        <time>2014-01-11T11:53:14.000Z</time>
      </trkpt>
      <trkpt lat="45.17921" lon="6.37067">
        <ele>2694.1999511719</ele>
        <time>2014-01-11T11:53:15.000Z</time>
      </trkpt>
      <trkpt lat="45.17922" lon="6.37068">
        <ele>2694.3999023438</ele>
        <time>2014-01-11T11:53:16.000Z</time>
      </trkpt>
      <trkpt lat="45.17922" lon="6.37068">
        <ele>2694.6000976562</ele>
        <time>2014-01-11T11:53:17.000Z</time>
      </trkpt>
      <trkpt lat="45.17923" lon="6.37068">
        <ele>2694.8000488281</ele>
        <time>2014-01-11T11:53:18.000Z</time>
      </trkpt>
      <trkpt lat="45.17923" lon="6.37068">
        <ele>2695</ele>
        <time>2014-01-11T11:53:19.000Z</time>
      </trkpt>
      <trkpt lat="45.17924" lon="6.37069">
        <ele>2695.1999511719</ele>
        <time>2014-01-11T11:53:20.000Z</time>
      </trkpt>
      <trkpt lat="45.17924" lon="6.3707">
        <ele>2695.1999511719</ele>
        <time>2014-01-11T11:53:21.000Z</time>
      </trkpt>
      <trkpt lat="45.17924" lon="6.3707">
        <ele>2695.3999023438</ele>
        <time>2014-01-11T11:53:22.000Z</time>
      </trkpt>
      <trkpt lat="45.17924" lon="6.3707">
        <ele>2695.6000976562</ele>
        <time>2014-01-11T11:53:23.000Z</time>
      </trkpt>
      <trkpt lat="45.17925" lon="6.3707">
        <ele>2695.6000976562</ele>
        <time>2014-01-11T11:53:24.000Z</time>
      </trkpt>
      <trkpt lat="45.17925" lon="6.3707">
        <ele>2695.8000488281</ele>
        <time>2014-01-11T11:53:25.000Z</time>
      </trkpt>
      <trkpt lat="45.17925" lon="6.3707">
        <ele>2696</ele>
        <time>2014-01-11T11:53:26.000Z</time>
      </trkpt>
      <trkpt lat="45.17925" lon="6.3707">
        <ele>2696.1999511719</ele>
        <time>2014-01-11T11:53:27.000Z</time>
      </trkpt>
      <trkpt lat="45.17925" lon="6.3707">
        <ele>2696.3999023438</ele>
        <time>2014-01-11T11:53:28.000Z</time>
      </trkpt>
      <trkpt lat="45.17925" lon="6.3707">
        <ele>2696.3999023438</ele>
        <time>2014-01-11T11:53:29.000Z</time>
      </trkpt>
      <trkpt lat="45.17925" lon="6.3707">
        <ele>2696.6000976562</ele>
        <time>2014-01-11T11:53:30.000Z</time>
      </trkpt>
      <trkpt lat="45.17925" lon="6.3707">
        <ele>2696.6000976562</ele>
        <time>2014-01-11T11:53:31.000Z</time>
      </trkpt>
      <trkpt lat="45.17925" lon="6.3707">
        <ele>2696.8000488281</ele>
        <time>2014-01-11T11:53:32.000Z</time>
      </trkpt>
      <trkpt lat="45.17925" lon="6.3707">
        <ele>2696.8000488281</ele>
        <time>2014-01-11T11:53:33.000Z</time>
      </trkpt>
      <trkpt lat="45.17925" lon="6.3707">
        <ele>2696.8000488281</ele>
        <time>2014-01-11T11:53:35.000Z</time>
      </trkpt>
      <trkpt lat="45.17925" lon="6.3707">
        <ele>2696.8000488281</ele>
        <time>2014-01-11T11:53:36.000Z</time>
      </trkpt>
      <trkpt lat="45.17925" lon="6.3707">
        <ele>2696.6000976562</ele>
        <time>2014-01-11T11:53:37.000Z</time>
      </trkpt>
      <trkpt lat="45.17925" lon="6.3707">
        <ele>2696.6000976562</ele>
        <time>2014-01-11T11:53:38.000Z</time>
      </trkpt>
      <trkpt lat="45.17925" lon="6.3707">
        <ele>2696.6000976562</ele>
        <time>2014-01-11T11:53:39.000Z</time>
      </trkpt>
      <trkpt lat="45.17925" lon="6.3707">
        <ele>2696.6000976562</ele>
        <time>2014-01-11T11:53:40.000Z</time>
      </trkpt>
      <trkpt lat="45.17925" lon="6.3707">
        <ele>2696.8000488281</ele>
        <time>2014-01-11T11:53:41.000Z</time>
      </trkpt>
      <trkpt lat="45.17925" lon="6.3707">
        <ele>2696.8000488281</ele>
        <time>2014-01-11T11:53:42.000Z</time>
      </trkpt>
      <trkpt lat="45.17925" lon="6.3707">
        <ele>2696.8000488281</ele>
        <time>2014-01-11T11:53:43.000Z</time>
      </trkpt>
      <trkpt lat="45.17925" lon="6.3707">
        <ele>2697</ele>
        <time>2014-01-11T11:53:44.000Z</time>
      </trkpt>
      <trkpt lat="45.17925" lon="6.37071">
        <ele>2697</ele>
        <time>2014-01-11T11:53:45.000Z</time>
      </trkpt>
      <trkpt lat="45.17925" lon="6.37071">
        <ele>2697</ele>
        <time>2014-01-11T11:53:46.000Z</time>
      </trkpt>
      <trkpt lat="45.17927" lon="6.37072">
        <ele>2697.1999511719</ele>
        <time>2014-01-11T11:53:47.000Z</time>
      </trkpt>
      <trkpt lat="45.17927" lon="6.37072">
        <ele>2697.3999023438</ele>
        <time>2014-01-11T11:53:48.000Z</time>
      </trkpt>
      <trkpt lat="45.17927" lon="6.37072">
        <ele>2697.6000976562</ele>
        <time>2014-01-11T11:53:49.000Z</time>
      </trkpt>
      <trkpt lat="45.17927" lon="6.37072">
        <ele>2697.6000976562</ele>
        <time>2014-01-11T11:53:50.000Z</time>
      </trkpt>
      <trkpt lat="45.17928" lon="6.37072">
        <ele>2697.8000488281</ele>
        <time>2014-01-11T11:53:51.000Z</time>
      </trkpt>
      <trkpt lat="45.17928" lon="6.37073">
        <ele>2698</ele>
        <time>2014-01-11T11:53:52.000Z</time>
      </trkpt>
      <trkpt lat="45.17929" lon="6.37074">
        <ele>2698</ele>
        <time>2014-01-11T11:53:53.000Z</time>
      </trkpt>
      <trkpt lat="45.1793" lon="6.37075">
        <ele>2698.1999511719</ele>
        <time>2014-01-11T11:53:54.000Z</time>
      </trkpt>
      <trkpt lat="45.17931" lon="6.37075">
        <ele>2698.3999023438</ele>
        <time>2014-01-11T11:53:55.000Z</time>
      </trkpt>
      <trkpt lat="45.17931" lon="6.37076">
        <ele>2698.6000976562</ele>
        <time>2014-01-11T11:53:56.000Z</time>
      </trkpt>
      <trkpt lat="45.17931" lon="6.37076">
        <ele>2698.8000488281</ele>
        <time>2014-01-11T11:53:57.000Z</time>
      </trkpt>
      <trkpt lat="45.17932" lon="6.37077">
        <ele>2699</ele>
        <time>2014-01-11T11:53:58.000Z</time>
      </trkpt>
      <trkpt lat="45.17932" lon="6.37077">
        <ele>2699</ele>
        <time>2014-01-11T11:53:59.000Z</time>
      </trkpt>
      <trkpt lat="45.17933" lon="6.37077">
        <ele>2699.1999511719</ele>
        <time>2014-01-11T11:54:00.000Z</time>
      </trkpt>
      <trkpt lat="45.17933" lon="6.37077">
        <ele>2699.3999023438</ele>
        <time>2014-01-11T11:54:01.000Z</time>
      </trkpt>
      <trkpt lat="45.17934" lon="6.37077">
        <ele>2699.6000976562</ele>
        <time>2014-01-11T11:54:02.000Z</time>
      </trkpt>
      <trkpt lat="45.17934" lon="6.37077">
        <ele>2699.8000488281</ele>
        <time>2014-01-11T11:54:03.000Z</time>
      </trkpt>
      <trkpt lat="45.17934" lon="6.37077">
        <ele>2699.8000488281</ele>
        <time>2014-01-11T11:54:04.000Z</time>
      </trkpt>
      <trkpt lat="45.17934" lon="6.37077">
        <ele>2700</ele>
        <time>2014-01-11T11:54:05.000Z</time>
      </trkpt>
      <trkpt lat="45.17934" lon="6.37077">
        <ele>2700.1999511719</ele>
        <time>2014-01-11T11:54:06.000Z</time>
      </trkpt>
      <trkpt lat="45.17935" lon="6.37078">
        <ele>2700.3999023438</ele>
        <time>2014-01-11T11:54:07.000Z</time>
      </trkpt>
      <trkpt lat="45.17936" lon="6.37078">
        <ele>2700.6000976562</ele>
        <time>2014-01-11T11:54:08.000Z</time>
      </trkpt>
      <trkpt lat="45.17936" lon="6.37078">
        <ele>2700.6000976562</ele>
        <time>2014-01-11T11:54:09.000Z</time>
      </trkpt>
      <trkpt lat="45.17936" lon="6.37078">
        <ele>2700.8000488281</ele>
        <time>2014-01-11T11:54:10.000Z</time>
      </trkpt>
      <trkpt lat="45.17937" lon="6.37079">
        <ele>2701</ele>
        <time>2014-01-11T11:54:11.000Z</time>
      </trkpt>
      <trkpt lat="45.17937" lon="6.37079">
        <ele>2701.1999511719</ele>
        <time>2014-01-11T11:54:12.000Z</time>
      </trkpt>
      <trkpt lat="45.17937" lon="6.37079">
        <ele>2701.3999023438</ele>
        <time>2014-01-11T11:54:13.000Z</time>
      </trkpt>
      <trkpt lat="45.17938" lon="6.3708">
        <ele>2701.3999023438</ele>
        <time>2014-01-11T11:54:14.000Z</time>
      </trkpt>
      <trkpt lat="45.17938" lon="6.3708">
        <ele>2701.6000976562</ele>
        <time>2014-01-11T11:54:15.000Z</time>
      </trkpt>
      <trkpt lat="45.17938" lon="6.3708">
        <ele>2701.6000976562</ele>
        <time>2014-01-11T11:54:16.000Z</time>
      </trkpt>
      <trkpt lat="45.17938" lon="6.3708">
        <ele>2701.8000488281</ele>
        <time>2014-01-11T11:54:17.000Z</time>
      </trkpt>
      <trkpt lat="45.17938" lon="6.3708">
        <ele>2702</ele>
        <time>2014-01-11T11:54:18.000Z</time>
      </trkpt>
      <trkpt lat="45.17938" lon="6.3708">
        <ele>2702</ele>
        <time>2014-01-11T11:54:19.000Z</time>
      </trkpt>
      <trkpt lat="45.17938" lon="6.3708">
        <ele>2702.1999511719</ele>
        <time>2014-01-11T11:54:20.000Z</time>
      </trkpt>
      <trkpt lat="45.17938" lon="6.3708">
        <ele>2702.6000976562</ele>
        <time>2014-01-11T11:54:21.000Z</time>
      </trkpt>
      <trkpt lat="45.17938" lon="6.3708">
        <ele>2702.6000976562</ele>
        <time>2014-01-11T11:54:22.000Z</time>
      </trkpt>
      <trkpt lat="45.17938" lon="6.3708">
        <ele>2702.6000976562</ele>
        <time>2014-01-11T11:54:23.000Z</time>
      </trkpt>
      <trkpt lat="45.17938" lon="6.3708">
        <ele>2702.6000976562</ele>
        <time>2014-01-11T11:54:24.000Z</time>
      </trkpt>
      <trkpt lat="45.17938" lon="6.3708">
        <ele>2702.6000976562</ele>
        <time>2014-01-11T11:54:25.000Z</time>
      </trkpt>
      <trkpt lat="45.17938" lon="6.3708">
        <ele>2702.8000488281</ele>
        <time>2014-01-11T11:54:26.000Z</time>
      </trkpt>
      <trkpt lat="45.17938" lon="6.3708">
        <ele>2702.8000488281</ele>
        <time>2014-01-11T11:54:27.000Z</time>
      </trkpt>
      <trkpt lat="45.17938" lon="6.3708">
        <ele>2702.8000488281</ele>
        <time>2014-01-11T11:54:28.000Z</time>
      </trkpt>
      <trkpt lat="45.17939" lon="6.37081">
        <ele>2703</ele>
        <time>2014-01-11T11:54:29.000Z</time>
      </trkpt>
      <trkpt lat="45.17939" lon="6.37081">
        <ele>2703</ele>
        <time>2014-01-11T11:54:30.000Z</time>
      </trkpt>
      <trkpt lat="45.17939" lon="6.37081">
        <ele>2703</ele>
        <time>2014-01-11T11:54:31.000Z</time>
      </trkpt>
      <trkpt lat="45.1794" lon="6.37081">
        <ele>2703.1999511719</ele>
        <time>2014-01-11T11:54:32.000Z</time>
      </trkpt>
      <trkpt lat="45.1794" lon="6.37081">
        <ele>2703.3999023438</ele>
        <time>2014-01-11T11:54:33.000Z</time>
      </trkpt>
      <trkpt lat="45.17941" lon="6.37081">
        <ele>2703.3999023438</ele>
        <time>2014-01-11T11:54:34.000Z</time>
      </trkpt>
      <trkpt lat="45.17942" lon="6.37082">
        <ele>2703.6000976562</ele>
        <time>2014-01-11T11:54:35.000Z</time>
      </trkpt>
      <trkpt lat="45.17943" lon="6.37083">
        <ele>2703.8000488281</ele>
        <time>2014-01-11T11:54:36.000Z</time>
      </trkpt>
      <trkpt lat="45.17943" lon="6.37083">
        <ele>2704</ele>
        <time>2014-01-11T11:54:37.000Z</time>
      </trkpt>
      <trkpt lat="45.17943" lon="6.37084">
        <ele>2704.1999511719</ele>
        <time>2014-01-11T11:54:38.000Z</time>
      </trkpt>
      <trkpt lat="45.17944" lon="6.37084">
        <ele>2704.3999023438</ele>
        <time>2014-01-11T11:54:39.000Z</time>
      </trkpt>
      <trkpt lat="45.17944" lon="6.37084">
        <ele>2704.6000976562</ele>
        <time>2014-01-11T11:54:40.000Z</time>
      </trkpt>
      <trkpt lat="45.17944" lon="6.37084">
        <ele>2704.8000488281</ele>
        <time>2014-01-11T11:54:41.000Z</time>
      </trkpt>
      <trkpt lat="45.17944" lon="6.37084">
        <ele>2704.8000488281</ele>
        <time>2014-01-11T11:54:42.000Z</time>
      </trkpt>
      <trkpt lat="45.17944" lon="6.37084">
        <ele>2705</ele>
        <time>2014-01-11T11:54:43.000Z</time>
      </trkpt>
      <trkpt lat="45.17944" lon="6.37084">
        <ele>2705.1999511719</ele>
        <time>2014-01-11T11:54:44.000Z</time>
      </trkpt>
      <trkpt lat="45.17944" lon="6.37084">
        <ele>2705.6000976562</ele>
        <time>2014-01-11T11:54:45.000Z</time>
      </trkpt>
      <trkpt lat="45.17944" lon="6.37084">
        <ele>2705.6000976562</ele>
        <time>2014-01-11T11:54:46.000Z</time>
      </trkpt>
      <trkpt lat="45.17944" lon="6.37084">
        <ele>2705.8000488281</ele>
        <time>2014-01-11T11:54:47.000Z</time>
      </trkpt>
      <trkpt lat="45.17944" lon="6.37084">
        <ele>2705.8000488281</ele>
        <time>2014-01-11T11:54:48.000Z</time>
      </trkpt>
      <trkpt lat="45.17944" lon="6.37084">
        <ele>2705.8000488281</ele>
        <time>2014-01-11T11:54:49.000Z</time>
      </trkpt>
      <trkpt lat="45.17944" lon="6.37084">
        <ele>2705.8000488281</ele>
        <time>2014-01-11T11:54:50.000Z</time>
      </trkpt>
      <trkpt lat="45.17944" lon="6.37084">
        <ele>2705.8000488281</ele>
        <time>2014-01-11T11:54:53.000Z</time>
      </trkpt>
      <trkpt lat="45.17944" lon="6.37084">
        <ele>2705.8000488281</ele>
        <time>2014-01-11T11:54:54.000Z</time>
      </trkpt>
      <trkpt lat="45.17944" lon="6.37084">
        <ele>2705.8000488281</ele>
        <time>2014-01-11T11:54:55.000Z</time>
      </trkpt>
      <trkpt lat="45.17944" lon="6.37084">
        <ele>2705.8000488281</ele>
        <time>2014-01-11T11:54:56.000Z</time>
      </trkpt>
      <trkpt lat="45.17944" lon="6.37084">
        <ele>2705.8000488281</ele>
        <time>2014-01-11T11:54:57.000Z</time>
      </trkpt>
      <trkpt lat="45.17944" lon="6.37084">
        <ele>2706</ele>
        <time>2014-01-11T11:54:58.000Z</time>
      </trkpt>
      <trkpt lat="45.17944" lon="6.37084">
        <ele>2706</ele>
        <time>2014-01-11T11:54:59.000Z</time>
      </trkpt>
      <trkpt lat="45.17944" lon="6.37084">
        <ele>2706</ele>
        <time>2014-01-11T11:55:00.000Z</time>
      </trkpt>
      <trkpt lat="45.17944" lon="6.37084">
        <ele>2706</ele>
        <time>2014-01-11T11:55:01.000Z</time>
      </trkpt>
      <trkpt lat="45.17944" lon="6.37085">
        <ele>2706</ele>
        <time>2014-01-11T11:55:02.000Z</time>
      </trkpt>
      <trkpt lat="45.17944" lon="6.37085">
        <ele>2706</ele>
        <time>2014-01-11T11:55:03.000Z</time>
      </trkpt>
      <trkpt lat="45.17944" lon="6.37085">
        <ele>2706</ele>
        <time>2014-01-11T11:55:04.000Z</time>
      </trkpt>
      <trkpt lat="45.17944" lon="6.37085">
        <ele>2706</ele>
        <time>2014-01-11T11:55:05.000Z</time>
      </trkpt>
      <trkpt lat="45.17944" lon="6.37085">
        <ele>2706</ele>
        <time>2014-01-11T11:55:06.000Z</time>
      </trkpt>
      <trkpt lat="45.17944" lon="6.37085">
        <ele>2706.1999511719</ele>
        <time>2014-01-11T11:55:07.000Z</time>
      </trkpt>
      <trkpt lat="45.17945" lon="6.37086">
        <ele>2706.1999511719</ele>
        <time>2014-01-11T11:55:08.000Z</time>
      </trkpt>
      <trkpt lat="45.17946" lon="6.37087">
        <ele>2706.3999023438</ele>
        <time>2014-01-11T11:55:09.000Z</time>
      </trkpt>
      <trkpt lat="45.17946" lon="6.37089">
        <ele>2706.6000976562</ele>
        <time>2014-01-11T11:55:10.000Z</time>
      </trkpt>
      <trkpt lat="45.17946" lon="6.37089">
        <ele>2706.8000488281</ele>
        <time>2014-01-11T11:55:11.000Z</time>
      </trkpt>
      <trkpt lat="45.17947" lon="6.3709">
        <ele>2706.8000488281</ele>
        <time>2014-01-11T11:55:12.000Z</time>
      </trkpt>
      <trkpt lat="45.17947" lon="6.37091">
        <ele>2707</ele>
        <time>2014-01-11T11:55:13.000Z</time>
      </trkpt>
      <trkpt lat="45.17947" lon="6.37091">
        <ele>2707.1999511719</ele>
        <time>2014-01-11T11:55:14.000Z</time>
      </trkpt>
      <trkpt lat="45.17947" lon="6.37091">
        <ele>2707.1999511719</ele>
        <time>2014-01-11T11:55:15.000Z</time>
      </trkpt>
      <trkpt lat="45.17947" lon="6.37092">
        <ele>2707.3999023438</ele>
        <time>2014-01-11T11:55:16.000Z</time>
      </trkpt>
      <trkpt lat="45.17947" lon="6.37092">
        <ele>2707.6000976562</ele>
        <time>2014-01-11T11:55:17.000Z</time>
      </trkpt>
      <trkpt lat="45.17947" lon="6.37092">
        <ele>2707.8000488281</ele>
        <time>2014-01-11T11:55:18.000Z</time>
      </trkpt>
      <trkpt lat="45.17947" lon="6.37092">
        <ele>2707.8000488281</ele>
        <time>2014-01-11T11:55:19.000Z</time>
      </trkpt>
      <trkpt lat="45.17947" lon="6.37092">
        <ele>2708</ele>
        <time>2014-01-11T11:55:20.000Z</time>
      </trkpt>
      <trkpt lat="45.17947" lon="6.37092">
        <ele>2708</ele>
        <time>2014-01-11T11:55:21.000Z</time>
      </trkpt>
      <trkpt lat="45.17946" lon="6.37091">
        <ele>2708.1999511719</ele>
        <time>2014-01-11T11:55:22.000Z</time>
      </trkpt>
      <trkpt lat="45.17946" lon="6.3709">
        <ele>2708.1999511719</ele>
        <time>2014-01-11T11:55:23.000Z</time>
      </trkpt>
      <trkpt lat="45.17946" lon="6.3709">
        <ele>2708.3999023438</ele>
        <time>2014-01-11T11:55:24.000Z</time>
      </trkpt>
      <trkpt lat="45.17946" lon="6.3709">
        <ele>2708.3999023438</ele>
        <time>2014-01-11T11:55:25.000Z</time>
      </trkpt>
      <trkpt lat="45.17946" lon="6.3709">
        <ele>2708.3999023438</ele>
        <time>2014-01-11T11:55:26.000Z</time>
      </trkpt>
      <trkpt lat="45.17946" lon="6.3709">
        <ele>2708.6000976562</ele>
        <time>2014-01-11T11:55:27.000Z</time>
      </trkpt>
      <trkpt lat="45.17945" lon="6.3709">
        <ele>2708.6000976562</ele>
        <time>2014-01-11T11:55:28.000Z</time>
      </trkpt>
      <trkpt lat="45.17945" lon="6.3709">
        <ele>2708.8000488281</ele>
        <time>2014-01-11T11:55:29.000Z</time>
      </trkpt>
      <trkpt lat="45.17945" lon="6.3709">
        <ele>2708.8000488281</ele>
        <time>2014-01-11T11:55:30.000Z</time>
      </trkpt>
      <trkpt lat="45.17945" lon="6.3709">
        <ele>2709</ele>
        <time>2014-01-11T11:55:31.000Z</time>
      </trkpt>
      <trkpt lat="45.17946" lon="6.37091">
        <ele>2709</ele>
        <time>2014-01-11T11:55:32.000Z</time>
      </trkpt>
      <trkpt lat="45.17948" lon="6.37091">
        <ele>2709.1999511719</ele>
        <time>2014-01-11T11:55:33.000Z</time>
      </trkpt>
      <trkpt lat="45.17948" lon="6.37091">
        <ele>2709.3999023438</ele>
        <time>2014-01-11T11:55:34.000Z</time>
      </trkpt>
      <trkpt lat="45.17949" lon="6.37091">
        <ele>2709.6000976562</ele>
        <time>2014-01-11T11:55:35.000Z</time>
      </trkpt>
      <trkpt lat="45.17949" lon="6.37091">
        <ele>2709.8000488281</ele>
        <time>2014-01-11T11:55:36.000Z</time>
      </trkpt>
      <trkpt lat="45.17949" lon="6.37091">
        <ele>2709.8000488281</ele>
        <time>2014-01-11T11:55:37.000Z</time>
      </trkpt>
      <trkpt lat="45.17949" lon="6.37091">
        <ele>2710</ele>
        <time>2014-01-11T11:55:38.000Z</time>
      </trkpt>
      <trkpt lat="45.17949" lon="6.37091">
        <ele>2710</ele>
        <time>2014-01-11T11:55:39.000Z</time>
      </trkpt>
      <trkpt lat="45.17949" lon="6.37091">
        <ele>2710</ele>
        <time>2014-01-11T11:55:40.000Z</time>
      </trkpt>
      <trkpt lat="45.17949" lon="6.37091">
        <ele>2710</ele>
        <time>2014-01-11T11:55:43.000Z</time>
      </trkpt>
      <trkpt lat="45.17949" lon="6.37091">
        <ele>2710</ele>
        <time>2014-01-11T11:55:44.000Z</time>
      </trkpt>
      <trkpt lat="45.17949" lon="6.37091">
        <ele>2709.8000488281</ele>
        <time>2014-01-11T11:55:45.000Z</time>
      </trkpt>
      <trkpt lat="45.17949" lon="6.37091">
        <ele>2709.8000488281</ele>
        <time>2014-01-11T11:55:46.000Z</time>
      </trkpt>
      <trkpt lat="45.17949" lon="6.37091">
        <ele>2709.8000488281</ele>
        <time>2014-01-11T11:55:47.000Z</time>
      </trkpt>
      <trkpt lat="45.17949" lon="6.37091">
        <ele>2709.8000488281</ele>
        <time>2014-01-11T11:55:49.000Z</time>
      </trkpt>
      <trkpt lat="45.17949" lon="6.37091">
        <ele>2709.8000488281</ele>
        <time>2014-01-11T11:55:50.000Z</time>
      </trkpt>
      <trkpt lat="45.17949" lon="6.37091">
        <ele>2709.8000488281</ele>
        <time>2014-01-11T11:55:51.000Z</time>
      </trkpt>
      <trkpt lat="45.17949" lon="6.37091">
        <ele>2709.8000488281</ele>
        <time>2014-01-11T11:55:54.000Z</time>
      </trkpt>
      <trkpt lat="45.17949" lon="6.37091">
        <ele>2709.6000976562</ele>
        <time>2014-01-11T11:55:55.000Z</time>
      </trkpt>
      <trkpt lat="45.17949" lon="6.37091">
        <ele>2709.6000976562</ele>
        <time>2014-01-11T11:55:56.000Z</time>
      </trkpt>
      <trkpt lat="45.17949" lon="6.37091">
        <ele>2709.6000976562</ele>
        <time>2014-01-11T11:55:57.000Z</time>
      </trkpt>
      <trkpt lat="45.17949" lon="6.37091">
        <ele>2709.6000976562</ele>
        <time>2014-01-11T11:55:58.000Z</time>
      </trkpt>
      <trkpt lat="45.17949" lon="6.37091">
        <ele>2709.6000976562</ele>
        <time>2014-01-11T11:55:59.000Z</time>
      </trkpt>
      <trkpt lat="45.17949" lon="6.37091">
        <ele>2709.6000976562</ele>
        <time>2014-01-11T11:56:00.000Z</time>
      </trkpt>
      <trkpt lat="45.17949" lon="6.37091">
        <ele>2709.6000976562</ele>
        <time>2014-01-11T11:56:01.000Z</time>
      </trkpt>
      <trkpt lat="45.17949" lon="6.37091">
        <ele>2709.6000976562</ele>
        <time>2014-01-11T11:56:02.000Z</time>
      </trkpt>
      <trkpt lat="45.17948" lon="6.3709">
        <ele>2709.6000976562</ele>
        <time>2014-01-11T11:56:07.000Z</time>
      </trkpt>
      <trkpt lat="45.17948" lon="6.3709">
        <ele>2709.6000976562</ele>
        <time>2014-01-11T11:56:08.000Z</time>
      </trkpt>
      <trkpt lat="45.17948" lon="6.3709">
        <ele>2709.6000976562</ele>
        <time>2014-01-11T11:56:09.000Z</time>
      </trkpt>
      <trkpt lat="45.17948" lon="6.3709">
        <ele>2709.6000976562</ele>
        <time>2014-01-11T11:56:10.000Z</time>
      </trkpt>
      <trkpt lat="45.17948" lon="6.3709">
        <ele>2709.6000976562</ele>
        <time>2014-01-11T11:56:11.000Z</time>
      </trkpt>
      <trkpt lat="45.17948" lon="6.3709">
        <ele>2709.6000976562</ele>
        <time>2014-01-11T11:56:12.000Z</time>
      </trkpt>
      <trkpt lat="45.17947" lon="6.37089">
        <ele>2709.6000976562</ele>
        <time>2014-01-11T11:56:13.000Z</time>
      </trkpt>
      <trkpt lat="45.17947" lon="6.37089">
        <ele>2709.6000976562</ele>
        <time>2014-01-11T11:56:14.000Z</time>
      </trkpt>
      <trkpt lat="45.17947" lon="6.37089">
        <ele>2709.6000976562</ele>
        <time>2014-01-11T11:56:15.000Z</time>
      </trkpt>
      <trkpt lat="45.17947" lon="6.37089">
        <ele>2709.8000488281</ele>
        <time>2014-01-11T11:56:16.000Z</time>
      </trkpt>
      <trkpt lat="45.17947" lon="6.37089">
        <ele>2709.8000488281</ele>
        <time>2014-01-11T11:56:17.000Z</time>
      </trkpt>
      <trkpt lat="45.17947" lon="6.37089">
        <ele>2710</ele>
        <time>2014-01-11T11:56:18.000Z</time>
      </trkpt>
      <trkpt lat="45.17947" lon="6.37089">
        <ele>2710</ele>
        <time>2014-01-11T11:56:19.000Z</time>
      </trkpt>
      <trkpt lat="45.17947" lon="6.37089">
        <ele>2710</ele>
        <time>2014-01-11T11:56:20.000Z</time>
      </trkpt>
      <trkpt lat="45.17947" lon="6.37089">
        <ele>2710.1999511719</ele>
        <time>2014-01-11T11:56:21.000Z</time>
      </trkpt>
      <trkpt lat="45.17947" lon="6.37089">
        <ele>2710</ele>
        <time>2014-01-11T11:56:22.000Z</time>
      </trkpt>
      <trkpt lat="45.17947" lon="6.37089">
        <ele>2710</ele>
        <time>2014-01-11T11:56:23.000Z</time>
      </trkpt>
      <trkpt lat="45.17947" lon="6.37089">
        <ele>2709.8000488281</ele>
        <time>2014-01-11T11:56:24.000Z</time>
      </trkpt>
      <trkpt lat="45.17947" lon="6.37089">
        <ele>2709.8000488281</ele>
        <time>2014-01-11T11:56:25.000Z</time>
      </trkpt>
      <trkpt lat="45.17947" lon="6.37089">
        <ele>2709.6000976562</ele>
        <time>2014-01-11T11:56:26.000Z</time>
      </trkpt>
      <trkpt lat="45.17947" lon="6.37089">
        <ele>2709.6000976562</ele>
        <time>2014-01-11T11:56:27.000Z</time>
      </trkpt>
      <trkpt lat="45.17947" lon="6.37089">
        <ele>2709.6000976562</ele>
        <time>2014-01-11T11:56:28.000Z</time>
      </trkpt>
      <trkpt lat="45.17947" lon="6.37089">
        <ele>2709.6000976562</ele>
        <time>2014-01-11T11:56:29.000Z</time>
      </trkpt>
      <trkpt lat="45.17947" lon="6.37089">
        <ele>2709.6000976562</ele>
        <time>2014-01-11T11:56:30.000Z</time>
      </trkpt>
      <trkpt lat="45.17947" lon="6.37089">
        <ele>2709.6000976562</ele>
        <time>2014-01-11T11:56:31.000Z</time>
      </trkpt>
      <trkpt lat="45.17947" lon="6.37089">
        <ele>2709.6000976562</ele>
        <time>2014-01-11T11:56:32.000Z</time>
      </trkpt>
      <trkpt lat="45.17947" lon="6.37089">
        <ele>2709.3999023438</ele>
        <time>2014-01-11T11:56:33.000Z</time>
      </trkpt>
      <trkpt lat="45.17947" lon="6.37089">
        <ele>2709.3999023438</ele>
        <time>2014-01-11T11:56:34.000Z</time>
      </trkpt>
      <trkpt lat="45.17947" lon="6.37089">
        <ele>2709.6000976562</ele>
        <time>2014-01-11T11:56:37.000Z</time>
      </trkpt>
      <trkpt lat="45.17947" lon="6.37089">
        <ele>2709.6000976562</ele>
        <time>2014-01-11T11:56:38.000Z</time>
      </trkpt>
      <trkpt lat="45.17947" lon="6.37089">
        <ele>2709.6000976562</ele>
        <time>2014-01-11T11:56:39.000Z</time>
      </trkpt>
      <trkpt lat="45.17947" lon="6.37089">
        <ele>2709.6000976562</ele>
        <time>2014-01-11T11:56:40.000Z</time>
      </trkpt>
      <trkpt lat="45.17947" lon="6.37089">
        <ele>2709.6000976562</ele>
        <time>2014-01-11T11:56:41.000Z</time>
      </trkpt>
      <trkpt lat="45.17947" lon="6.37089">
        <ele>2709.6000976562</ele>
        <time>2014-01-11T11:56:43.000Z</time>
      </trkpt>
      <trkpt lat="45.17947" lon="6.37089">
        <ele>2709.6000976562</ele>
        <time>2014-01-11T11:56:45.000Z</time>
      </trkpt>
      <trkpt lat="45.17946" lon="6.37089">
        <ele>2709.6000976562</ele>
        <time>2014-01-11T11:56:46.000Z</time>
      </trkpt>
      <trkpt lat="45.17946" lon="6.37089">
        <ele>2709.3999023438</ele>
        <time>2014-01-11T11:56:47.000Z</time>
      </trkpt>
      <trkpt lat="45.17946" lon="6.37089">
        <ele>2709.3999023438</ele>
        <time>2014-01-11T11:56:48.000Z</time>
      </trkpt>
      <trkpt lat="45.17946" lon="6.37089">
        <ele>2709.3999023438</ele>
        <time>2014-01-11T11:56:49.000Z</time>
      </trkpt>
      <trkpt lat="45.17946" lon="6.37089">
        <ele>2709.6000976562</ele>
        <time>2014-01-11T11:56:51.000Z</time>
      </trkpt>
      <trkpt lat="45.17946" lon="6.37089">
        <ele>2709.8000488281</ele>
        <time>2014-01-11T11:56:52.000Z</time>
      </trkpt>
      <trkpt lat="45.17946" lon="6.37089">
        <ele>2710</ele>
        <time>2014-01-11T11:56:53.000Z</time>
      </trkpt>
      <trkpt lat="45.17946" lon="6.37089">
        <ele>2710.1999511719</ele>
        <time>2014-01-11T11:56:54.000Z</time>
      </trkpt>
      <trkpt lat="45.17946" lon="6.37089">
        <ele>2710.1999511719</ele>
        <time>2014-01-11T11:56:55.000Z</time>
      </trkpt>
      <trkpt lat="45.17946" lon="6.37089">
        <ele>2710.1999511719</ele>
        <time>2014-01-11T11:56:56.000Z</time>
      </trkpt>
      <trkpt lat="45.17946" lon="6.37089">
        <ele>2710</ele>
        <time>2014-01-11T11:56:57.000Z</time>
      </trkpt>
      <trkpt lat="45.17946" lon="6.37089">
        <ele>2709.8000488281</ele>
        <time>2014-01-11T11:56:58.000Z</time>
      </trkpt>
      <trkpt lat="45.17946" lon="6.37089">
        <ele>2709.6000976562</ele>
        <time>2014-01-11T11:56:59.000Z</time>
      </trkpt>
      <trkpt lat="45.17946" lon="6.37089">
        <ele>2709.3999023438</ele>
        <time>2014-01-11T11:57:00.000Z</time>
      </trkpt>
      <trkpt lat="45.17946" lon="6.37089">
        <ele>2709.3999023438</ele>
        <time>2014-01-11T11:57:01.000Z</time>
      </trkpt>
      <trkpt lat="45.17946" lon="6.37089">
        <ele>2709.3999023438</ele>
        <time>2014-01-11T11:57:02.000Z</time>
      </trkpt>
      <trkpt lat="45.17946" lon="6.37089">
        <ele>2709.3999023438</ele>
        <time>2014-01-11T11:57:04.000Z</time>
      </trkpt>
      <trkpt lat="45.17946" lon="6.37089">
        <ele>2709.3999023438</ele>
        <time>2014-01-11T11:57:05.000Z</time>
      </trkpt>
      <trkpt lat="45.17946" lon="6.37089">
        <ele>2709.3999023438</ele>
        <time>2014-01-11T11:57:06.000Z</time>
      </trkpt>
      <trkpt lat="45.17946" lon="6.37089">
        <ele>2709.3999023438</ele>
        <time>2014-01-11T11:57:07.000Z</time>
      </trkpt>
      <trkpt lat="45.17946" lon="6.37089">
        <ele>2709.3999023438</ele>
        <time>2014-01-11T11:57:08.000Z</time>
      </trkpt>
      <trkpt lat="45.17946" lon="6.37089">
        <ele>2709.3999023438</ele>
        <time>2014-01-11T11:57:10.000Z</time>
      </trkpt>
      <trkpt lat="45.17946" lon="6.37089">
        <ele>2709.3999023438</ele>
        <time>2014-01-11T11:57:11.000Z</time>
      </trkpt>
      <trkpt lat="45.17946" lon="6.37089">
        <ele>2709.3999023438</ele>
        <time>2014-01-11T11:57:14.000Z</time>
      </trkpt>
      <trkpt lat="45.17946" lon="6.37089">
        <ele>2709.3999023438</ele>
        <time>2014-01-11T11:57:15.000Z</time>
      </trkpt>
      <trkpt lat="45.17946" lon="6.37089">
        <ele>2709.3999023438</ele>
        <time>2014-01-11T11:57:16.000Z</time>
      </trkpt>
      <trkpt lat="45.17946" lon="6.37089">
        <ele>2709.3999023438</ele>
        <time>2014-01-11T11:57:17.000Z</time>
      </trkpt>
      <trkpt lat="45.17946" lon="6.37089">
        <ele>2709.3999023438</ele>
        <time>2014-01-11T11:57:20.000Z</time>
      </trkpt>
      <trkpt lat="45.17946" lon="6.37089">
        <ele>2709.3999023438</ele>
        <time>2014-01-11T11:57:21.000Z</time>
      </trkpt>
      <trkpt lat="45.17946" lon="6.37089">
        <ele>2709.3999023438</ele>
        <time>2014-01-11T11:57:22.000Z</time>
      </trkpt>
      <trkpt lat="45.17946" lon="6.37089">
        <ele>2709.3999023438</ele>
        <time>2014-01-11T11:57:23.000Z</time>
      </trkpt>
      <trkpt lat="45.17946" lon="6.37089">
        <ele>2709.3999023438</ele>
        <time>2014-01-11T11:57:24.000Z</time>
      </trkpt>
      <trkpt lat="45.17947" lon="6.37089">
        <ele>2709.3999023438</ele>
        <time>2014-01-11T11:57:26.000Z</time>
      </trkpt>
      <trkpt lat="45.17947" lon="6.37089">
        <ele>2709.3999023438</ele>
        <time>2014-01-11T11:57:29.000Z</time>
      </trkpt>
      <trkpt lat="45.17947" lon="6.37089">
        <ele>2709.3999023438</ele>
        <time>2014-01-11T11:57:33.000Z</time>
      </trkpt>
      <trkpt lat="45.17947" lon="6.37089">
        <ele>2709.3999023438</ele>
        <time>2014-01-11T11:57:41.000Z</time>
      </trkpt>
      <trkpt lat="45.17947" lon="6.37089">
        <ele>2709.3999023438</ele>
        <time>2014-01-11T11:57:42.000Z</time>
      </trkpt>
      <trkpt lat="45.17947" lon="6.37089">
        <ele>2709.3999023438</ele>
        <time>2014-01-11T11:57:43.000Z</time>
      </trkpt>
      <trkpt lat="45.17947" lon="6.37089">
        <ele>2709.1999511719</ele>
        <time>2014-01-11T11:57:44.000Z</time>
      </trkpt>
      <trkpt lat="45.17947" lon="6.37089">
        <ele>2709.1999511719</ele>
        <time>2014-01-11T11:57:45.000Z</time>
      </trkpt>
      <trkpt lat="45.17947" lon="6.37089">
        <ele>2709.1999511719</ele>
        <time>2014-01-11T11:57:47.000Z</time>
      </trkpt>
      <trkpt lat="45.17947" lon="6.37089">
        <ele>2709.1999511719</ele>
        <time>2014-01-11T11:57:50.000Z</time>
      </trkpt>
      <trkpt lat="45.17947" lon="6.37089">
        <ele>2709.3999023438</ele>
        <time>2014-01-11T11:57:51.000Z</time>
      </trkpt>
      <trkpt lat="45.17947" lon="6.37089">
        <ele>2709.3999023438</ele>
        <time>2014-01-11T11:57:52.000Z</time>
      </trkpt>
      <trkpt lat="45.17947" lon="6.37089">
        <ele>2709.3999023438</ele>
        <time>2014-01-11T11:57:53.000Z</time>
      </trkpt>
      <trkpt lat="45.17947" lon="6.37089">
        <ele>2709.3999023438</ele>
        <time>2014-01-11T11:57:54.000Z</time>
      </trkpt>
      <trkpt lat="45.17947" lon="6.37089">
        <ele>2709.3999023438</ele>
        <time>2014-01-11T11:57:55.000Z</time>
      </trkpt>
      <trkpt lat="45.17947" lon="6.37089">
        <ele>2709.3999023438</ele>
        <time>2014-01-11T11:57:56.000Z</time>
      </trkpt>
      <trkpt lat="45.17947" lon="6.37089">
        <ele>2709.3999023438</ele>
        <time>2014-01-11T11:57:57.000Z</time>
      </trkpt>
      <trkpt lat="45.17947" lon="6.37089">
        <ele>2709.3999023438</ele>
        <time>2014-01-11T11:58:00.000Z</time>
      </trkpt>
      <trkpt lat="45.17947" lon="6.37089">
        <ele>2709.3999023438</ele>
        <time>2014-01-11T11:58:01.000Z</time>
      </trkpt>
      <trkpt lat="45.17947" lon="6.37089">
        <ele>2709.3999023438</ele>
        <time>2014-01-11T11:58:02.000Z</time>
      </trkpt>
      <trkpt lat="45.17947" lon="6.37089">
        <ele>2709.3999023438</ele>
        <time>2014-01-11T11:58:03.000Z</time>
      </trkpt>
      <trkpt lat="45.17947" lon="6.37089">
        <ele>2709.3999023438</ele>
        <time>2014-01-11T11:58:04.000Z</time>
      </trkpt>
      <trkpt lat="45.17947" lon="6.37089">
        <ele>2709.3999023438</ele>
        <time>2014-01-11T11:58:07.000Z</time>
      </trkpt>
      <trkpt lat="45.17947" lon="6.37089">
        <ele>2709.3999023438</ele>
        <time>2014-01-11T11:58:08.000Z</time>
      </trkpt>
      <trkpt lat="45.17947" lon="6.37089">
        <ele>2709.3999023438</ele>
        <time>2014-01-11T11:58:09.000Z</time>
      </trkpt>
      <trkpt lat="45.17947" lon="6.37089">
        <ele>2709.3999023438</ele>
        <time>2014-01-11T11:58:11.000Z</time>
      </trkpt>
      <trkpt lat="45.17947" lon="6.37089">
        <ele>2709.3999023438</ele>
        <time>2014-01-11T11:58:12.000Z</time>
      </trkpt>
      <trkpt lat="45.17947" lon="6.37089">
        <ele>2709.3999023438</ele>
        <time>2014-01-11T11:58:13.000Z</time>
      </trkpt>
      <trkpt lat="45.17947" lon="6.37089">
        <ele>2709.3999023438</ele>
        <time>2014-01-11T11:58:14.000Z</time>
      </trkpt>
      <trkpt lat="45.17947" lon="6.37089">
        <ele>2709.3999023438</ele>
        <time>2014-01-11T11:58:15.000Z</time>
      </trkpt>
      <trkpt lat="45.17947" lon="6.37089">
        <ele>2709.6000976562</ele>
        <time>2014-01-11T11:58:16.000Z</time>
      </trkpt>
      <trkpt lat="45.17947" lon="6.37089">
        <ele>2709.6000976562</ele>
        <time>2014-01-11T11:58:17.000Z</time>
      </trkpt>
      <trkpt lat="45.17947" lon="6.37089">
        <ele>2709.6000976562</ele>
        <time>2014-01-11T11:58:18.000Z</time>
      </trkpt>
      <trkpt lat="45.17947" lon="6.37089">
        <ele>2709.6000976562</ele>
        <time>2014-01-11T11:58:19.000Z</time>
      </trkpt>
      <trkpt lat="45.17947" lon="6.37089">
        <ele>2709.6000976562</ele>
        <time>2014-01-11T11:58:20.000Z</time>
      </trkpt>
      <trkpt lat="45.17947" lon="6.37089">
        <ele>2709.6000976562</ele>
        <time>2014-01-11T11:58:21.000Z</time>
      </trkpt>
      <trkpt lat="45.17947" lon="6.37089">
        <ele>2709.6000976562</ele>
        <time>2014-01-11T11:58:22.000Z</time>
      </trkpt>
      <trkpt lat="45.17947" lon="6.37089">
        <ele>2709.3999023438</ele>
        <time>2014-01-11T11:58:23.000Z</time>
      </trkpt>
      <trkpt lat="45.17947" lon="6.37089">
        <ele>2709.3999023438</ele>
        <time>2014-01-11T11:58:24.000Z</time>
      </trkpt>
      <trkpt lat="45.17947" lon="6.37089">
        <ele>2709.6000976562</ele>
        <time>2014-01-11T11:58:26.000Z</time>
      </trkpt>
      <trkpt lat="45.17947" lon="6.37089">
        <ele>2709.6000976562</ele>
        <time>2014-01-11T11:58:27.000Z</time>
      </trkpt>
      <trkpt lat="45.17947" lon="6.37089">
        <ele>2709.8000488281</ele>
        <time>2014-01-11T11:58:28.000Z</time>
      </trkpt>
      <trkpt lat="45.17947" lon="6.37089">
        <ele>2709.8000488281</ele>
        <time>2014-01-11T11:58:29.000Z</time>
      </trkpt>
      <trkpt lat="45.17947" lon="6.37089">
        <ele>2710</ele>
        <time>2014-01-11T11:58:30.000Z</time>
      </trkpt>
      <trkpt lat="45.17947" lon="6.37089">
        <ele>2710</ele>
        <time>2014-01-11T11:58:31.000Z</time>
      </trkpt>
      <trkpt lat="45.17947" lon="6.37089">
        <ele>2710</ele>
        <time>2014-01-11T11:58:34.000Z</time>
      </trkpt>
      <trkpt lat="45.17947" lon="6.37089">
        <ele>2709.8000488281</ele>
        <time>2014-01-11T11:58:35.000Z</time>
      </trkpt>
      <trkpt lat="45.17947" lon="6.37089">
        <ele>2709.8000488281</ele>
        <time>2014-01-11T11:58:36.000Z</time>
      </trkpt>
      <trkpt lat="45.17947" lon="6.37089">
        <ele>2709.8000488281</ele>
        <time>2014-01-11T11:58:38.000Z</time>
      </trkpt>
      <trkpt lat="45.17947" lon="6.37089">
        <ele>2710</ele>
        <time>2014-01-11T11:58:39.000Z</time>
      </trkpt>
      <trkpt lat="45.17947" lon="6.37089">
        <ele>2709.8000488281</ele>
        <time>2014-01-11T11:58:40.000Z</time>
      </trkpt>
      <trkpt lat="45.17947" lon="6.37089">
        <ele>2709.8000488281</ele>
        <time>2014-01-11T11:58:41.000Z</time>
      </trkpt>
      <trkpt lat="45.17947" lon="6.37089">
        <ele>2709.8000488281</ele>
        <time>2014-01-11T11:58:42.000Z</time>
      </trkpt>
      <trkpt lat="45.17947" lon="6.37089">
        <ele>2709.8000488281</ele>
        <time>2014-01-11T11:58:44.000Z</time>
      </trkpt>
      <trkpt lat="45.17947" lon="6.37089">
        <ele>2709.8000488281</ele>
        <time>2014-01-11T11:58:45.000Z</time>
      </trkpt>
      <trkpt lat="45.17947" lon="6.37089">
        <ele>2709.6000976562</ele>
        <time>2014-01-11T11:58:46.000Z</time>
      </trkpt>
      <trkpt lat="45.17947" lon="6.37089">
        <ele>2709.6000976562</ele>
        <time>2014-01-11T11:58:47.000Z</time>
      </trkpt>
      <trkpt lat="45.17947" lon="6.37089">
        <ele>2709.6000976562</ele>
        <time>2014-01-11T11:58:48.000Z</time>
      </trkpt>
      <trkpt lat="45.17947" lon="6.37089">
        <ele>2709.6000976562</ele>
        <time>2014-01-11T11:58:49.000Z</time>
      </trkpt>
      <trkpt lat="45.17947" lon="6.37089">
        <ele>2709.6000976562</ele>
        <time>2014-01-11T11:58:50.000Z</time>
      </trkpt>
      <trkpt lat="45.17947" lon="6.37089">
        <ele>2709.6000976562</ele>
        <time>2014-01-11T11:58:51.000Z</time>
      </trkpt>
      <trkpt lat="45.17947" lon="6.37089">
        <ele>2709.6000976562</ele>
        <time>2014-01-11T11:58:54.000Z</time>
      </trkpt>
      <trkpt lat="45.17947" lon="6.37089">
        <ele>2709.6000976562</ele>
        <time>2014-01-11T11:58:55.000Z</time>
      </trkpt>
      <trkpt lat="45.17947" lon="6.37089">
        <ele>2709.6000976562</ele>
        <time>2014-01-11T11:58:56.000Z</time>
      </trkpt>
      <trkpt lat="45.17947" lon="6.37089">
        <ele>2709.6000976562</ele>
        <time>2014-01-11T11:58:57.000Z</time>
      </trkpt>
      <trkpt lat="45.17947" lon="6.37089">
        <ele>2709.6000976562</ele>
        <time>2014-01-11T11:58:58.000Z</time>
      </trkpt>
      <trkpt lat="45.17947" lon="6.37089">
        <ele>2709.6000976562</ele>
        <time>2014-01-11T11:59:00.000Z</time>
      </trkpt>
      <trkpt lat="45.17947" lon="6.37089">
        <ele>2709.6000976562</ele>
        <time>2014-01-11T11:59:01.000Z</time>
      </trkpt>
      <trkpt lat="45.17947" lon="6.37089">
        <ele>2709.6000976562</ele>
        <time>2014-01-11T11:59:02.000Z</time>
      </trkpt>
      <trkpt lat="45.17947" lon="6.37089">
        <ele>2709.6000976562</ele>
        <time>2014-01-11T11:59:03.000Z</time>
      </trkpt>
      <trkpt lat="45.17947" lon="6.37089">
        <ele>2709.6000976562</ele>
        <time>2014-01-11T11:59:04.000Z</time>
      </trkpt>
      <trkpt lat="45.17947" lon="6.37089">
        <ele>2709.6000976562</ele>
        <time>2014-01-11T11:59:05.000Z</time>
      </trkpt>
      <trkpt lat="45.17947" lon="6.37089">
        <ele>2709.6000976562</ele>
        <time>2014-01-11T11:59:06.000Z</time>
      </trkpt>
      <trkpt lat="45.17947" lon="6.37089">
        <ele>2709.6000976562</ele>
        <time>2014-01-11T11:59:08.000Z</time>
      </trkpt>
      <trkpt lat="45.17947" lon="6.37089">
        <ele>2709.6000976562</ele>
        <time>2014-01-11T11:59:09.000Z</time>
      </trkpt>
      <trkpt lat="45.17947" lon="6.37089">
        <ele>2709.6000976562</ele>
        <time>2014-01-11T11:59:10.000Z</time>
      </trkpt>
      <trkpt lat="45.17947" lon="6.37089">
        <ele>2709.6000976562</ele>
        <time>2014-01-11T11:59:11.000Z</time>
      </trkpt>
      <trkpt lat="45.17947" lon="6.37089">
        <ele>2709.6000976562</ele>
        <time>2014-01-11T11:59:18.000Z</time>
      </trkpt>
      <trkpt lat="45.17947" lon="6.37089">
        <ele>2709.8000488281</ele>
        <time>2014-01-11T11:59:19.000Z</time>
      </trkpt>
      <trkpt lat="45.17947" lon="6.37089">
        <ele>2709.8000488281</ele>
        <time>2014-01-11T11:59:20.000Z</time>
      </trkpt>
      <trkpt lat="45.17947" lon="6.37089">
        <ele>2709.8000488281</ele>
        <time>2014-01-11T11:59:21.000Z</time>
      </trkpt>
      <trkpt lat="45.17947" lon="6.37089">
        <ele>2709.8000488281</ele>
        <time>2014-01-11T11:59:22.000Z</time>
      </trkpt>
      <trkpt lat="45.17947" lon="6.37089">
        <ele>2709.8000488281</ele>
        <time>2014-01-11T11:59:23.000Z</time>
      </trkpt>
      <trkpt lat="45.17947" lon="6.37089">
        <ele>2709.8000488281</ele>
        <time>2014-01-11T11:59:24.000Z</time>
      </trkpt>
      <trkpt lat="45.17947" lon="6.37089">
        <ele>2709.6000976562</ele>
        <time>2014-01-11T11:59:25.000Z</time>
      </trkpt>
      <trkpt lat="45.17948" lon="6.37089">
        <ele>2709.6000976562</ele>
        <time>2014-01-11T11:59:26.000Z</time>
      </trkpt>
      <trkpt lat="45.17948" lon="6.37089">
        <ele>2709.6000976562</ele>
        <time>2014-01-11T11:59:27.000Z</time>
      </trkpt>
      <trkpt lat="45.17948" lon="6.37089">
        <ele>2709.6000976562</ele>
        <time>2014-01-11T11:59:28.000Z</time>
      </trkpt>
      <trkpt lat="45.17948" lon="6.37089">
        <ele>2709.8000488281</ele>
        <time>2014-01-11T11:59:29.000Z</time>
      </trkpt>
      <trkpt lat="45.17948" lon="6.37089">
        <ele>2709.8000488281</ele>
        <time>2014-01-11T11:59:30.000Z</time>
      </trkpt>
      <trkpt lat="45.17948" lon="6.37089">
        <ele>2709.8000488281</ele>
        <time>2014-01-11T11:59:31.000Z</time>
      </trkpt>
      <trkpt lat="45.17948" lon="6.37089">
        <ele>2709.8000488281</ele>
        <time>2014-01-11T11:59:32.000Z</time>
      </trkpt>
      <trkpt lat="45.17948" lon="6.37089">
        <ele>2709.8000488281</ele>
        <time>2014-01-11T11:59:33.000Z</time>
      </trkpt>
      <trkpt lat="45.17948" lon="6.37089">
        <ele>2709.6000976562</ele>
        <time>2014-01-11T11:59:34.000Z</time>
      </trkpt>
      <trkpt lat="45.17948" lon="6.37089">
        <ele>2709.6000976562</ele>
        <time>2014-01-11T11:59:35.000Z</time>
      </trkpt>
      <trkpt lat="45.17948" lon="6.37089">
        <ele>2709.8000488281</ele>
        <time>2014-01-11T11:59:36.000Z</time>
      </trkpt>
      <trkpt lat="45.17948" lon="6.37089">
        <ele>2709.8000488281</ele>
        <time>2014-01-11T11:59:37.000Z</time>
      </trkpt>
      <trkpt lat="45.17948" lon="6.37089">
        <ele>2709.8000488281</ele>
        <time>2014-01-11T11:59:38.000Z</time>
      </trkpt>
      <trkpt lat="45.17948" lon="6.37089">
        <ele>2709.8000488281</ele>
        <time>2014-01-11T11:59:39.000Z</time>
      </trkpt>
      <trkpt lat="45.17948" lon="6.37089">
        <ele>2709.8000488281</ele>
        <time>2014-01-11T11:59:40.000Z</time>
      </trkpt>
      <trkpt lat="45.17948" lon="6.37089">
        <ele>2709.8000488281</ele>
        <time>2014-01-11T11:59:41.000Z</time>
      </trkpt>
      <trkpt lat="45.17948" lon="6.37089">
        <ele>2709.8000488281</ele>
        <time>2014-01-11T11:59:42.000Z</time>
      </trkpt>
      <trkpt lat="45.17948" lon="6.37089">
        <ele>2709.8000488281</ele>
        <time>2014-01-11T11:59:43.000Z</time>
      </trkpt>
      <trkpt lat="45.17948" lon="6.37089">
        <ele>2709.8000488281</ele>
        <time>2014-01-11T11:59:44.000Z</time>
      </trkpt>
      <trkpt lat="45.17948" lon="6.37089">
        <ele>2709.8000488281</ele>
        <time>2014-01-11T11:59:47.000Z</time>
      </trkpt>
      <trkpt lat="45.17948" lon="6.37089">
        <ele>2709.8000488281</ele>
        <time>2014-01-11T11:59:50.000Z</time>
      </trkpt>
      <trkpt lat="45.17948" lon="6.37089">
        <ele>2709.6000976562</ele>
        <time>2014-01-11T11:59:51.000Z</time>
      </trkpt>
      <trkpt lat="45.17948" lon="6.37089">
        <ele>2709.8000488281</ele>
        <time>2014-01-11T11:59:55.000Z</time>
      </trkpt>
      <trkpt lat="45.17948" lon="6.37089">
        <ele>2709.8000488281</ele>
        <time>2014-01-11T11:59:56.000Z</time>
      </trkpt>
      <trkpt lat="45.17948" lon="6.37089">
        <ele>2710</ele>
        <time>2014-01-11T11:59:57.000Z</time>
      </trkpt>
      <trkpt lat="45.17948" lon="6.37089">
        <ele>2710</ele>
        <time>2014-01-11T11:59:58.000Z</time>
      </trkpt>
      <trkpt lat="45.17948" lon="6.37089">
        <ele>2710</ele>
        <time>2014-01-11T11:59:59.000Z</time>
      </trkpt>
      <trkpt lat="45.17948" lon="6.37089">
        <ele>2710.1999511719</ele>
        <time>2014-01-11T12:00:00.000Z</time>
      </trkpt>
      <trkpt lat="45.17948" lon="6.37089">
        <ele>2710.3999023438</ele>
        <time>2014-01-11T12:00:01.000Z</time>
      </trkpt>
      <trkpt lat="45.17948" lon="6.37089">
        <ele>2710.3999023438</ele>
        <time>2014-01-11T12:00:02.000Z</time>
      </trkpt>
      <trkpt lat="45.17948" lon="6.37089">
        <ele>2710.3999023438</ele>
        <time>2014-01-11T12:00:03.000Z</time>
      </trkpt>
      <trkpt lat="45.17948" lon="6.37089">
        <ele>2710.3999023438</ele>
        <time>2014-01-11T12:00:04.000Z</time>
      </trkpt>
      <trkpt lat="45.17948" lon="6.37089">
        <ele>2710.3999023438</ele>
        <time>2014-01-11T12:00:05.000Z</time>
      </trkpt>
      <trkpt lat="45.17948" lon="6.37089">
        <ele>2710.3999023438</ele>
        <time>2014-01-11T12:00:06.000Z</time>
      </trkpt>
      <trkpt lat="45.17948" lon="6.37089">
        <ele>2710.3999023438</ele>
        <time>2014-01-11T12:00:07.000Z</time>
      </trkpt>
      <trkpt lat="45.17948" lon="6.37089">
        <ele>2710.3999023438</ele>
        <time>2014-01-11T12:00:08.000Z</time>
      </trkpt>
      <trkpt lat="45.17948" lon="6.37089">
        <ele>2710.3999023438</ele>
        <time>2014-01-11T12:00:09.000Z</time>
      </trkpt>
      <trkpt lat="45.17948" lon="6.37089">
        <ele>2710.3999023438</ele>
        <time>2014-01-11T12:00:10.000Z</time>
      </trkpt>
      <trkpt lat="45.17948" lon="6.37089">
        <ele>2710.3999023438</ele>
        <time>2014-01-11T12:00:11.000Z</time>
      </trkpt>
      <trkpt lat="45.17948" lon="6.37089">
        <ele>2710.3999023438</ele>
        <time>2014-01-11T12:00:12.000Z</time>
      </trkpt>
      <trkpt lat="45.17948" lon="6.37089">
        <ele>2710.1999511719</ele>
        <time>2014-01-11T12:00:13.000Z</time>
      </trkpt>
      <trkpt lat="45.17948" lon="6.37089">
        <ele>2710.3999023438</ele>
        <time>2014-01-11T12:00:15.000Z</time>
      </trkpt>
      <trkpt lat="45.17948" lon="6.37089">
        <ele>2710.3999023438</ele>
        <time>2014-01-11T12:00:16.000Z</time>
      </trkpt>
      <trkpt lat="45.17948" lon="6.37089">
        <ele>2710.3999023438</ele>
        <time>2014-01-11T12:00:17.000Z</time>
      </trkpt>
      <trkpt lat="45.17948" lon="6.37089">
        <ele>2710.3999023438</ele>
        <time>2014-01-11T12:00:18.000Z</time>
      </trkpt>
      <trkpt lat="45.17948" lon="6.37089">
        <ele>2710.3999023438</ele>
        <time>2014-01-11T12:00:19.000Z</time>
      </trkpt>
      <trkpt lat="45.17948" lon="6.37089">
        <ele>2710.3999023438</ele>
        <time>2014-01-11T12:00:20.000Z</time>
      </trkpt>
      <trkpt lat="45.17948" lon="6.37089">
        <ele>2710.3999023438</ele>
        <time>2014-01-11T12:00:21.000Z</time>
      </trkpt>
      <trkpt lat="45.17948" lon="6.37089">
        <ele>2710.3999023438</ele>
        <time>2014-01-11T12:00:23.000Z</time>
      </trkpt>
      <trkpt lat="45.17948" lon="6.37089">
        <ele>2710.3999023438</ele>
        <time>2014-01-11T12:00:26.000Z</time>
      </trkpt>
      <trkpt lat="45.17948" lon="6.37089">
        <ele>2710.6000976562</ele>
        <time>2014-01-11T12:00:27.000Z</time>
      </trkpt>
      <trkpt lat="45.17948" lon="6.37089">
        <ele>2710.6000976562</ele>
        <time>2014-01-11T12:00:28.000Z</time>
      </trkpt>
      <trkpt lat="45.17948" lon="6.37089">
        <ele>2710.6000976562</ele>
        <time>2014-01-11T12:00:29.000Z</time>
      </trkpt>
      <trkpt lat="45.17948" lon="6.37089">
        <ele>2710.6000976562</ele>
        <time>2014-01-11T12:00:30.000Z</time>
      </trkpt>
      <trkpt lat="45.17948" lon="6.37089">
        <ele>2710.6000976562</ele>
        <time>2014-01-11T12:00:31.000Z</time>
      </trkpt>
      <trkpt lat="45.17948" lon="6.37089">
        <ele>2710.6000976562</ele>
        <time>2014-01-11T12:00:32.000Z</time>
      </trkpt>
      <trkpt lat="45.17948" lon="6.37089">
        <ele>2710.6000976562</ele>
        <time>2014-01-11T12:00:33.000Z</time>
      </trkpt>
      <trkpt lat="45.17948" lon="6.37089">
        <ele>2710.6000976562</ele>
        <time>2014-01-11T12:00:34.000Z</time>
      </trkpt>
      <trkpt lat="45.17948" lon="6.37089">
        <ele>2710.6000976562</ele>
        <time>2014-01-11T12:00:35.000Z</time>
      </trkpt>
      <trkpt lat="45.17948" lon="6.37089">
        <ele>2710.6000976562</ele>
        <time>2014-01-11T12:00:36.000Z</time>
      </trkpt>
      <trkpt lat="45.17948" lon="6.37089">
        <ele>2710.6000976562</ele>
        <time>2014-01-11T12:00:37.000Z</time>
      </trkpt>
      <trkpt lat="45.17948" lon="6.37089">
        <ele>2710.6000976562</ele>
        <time>2014-01-11T12:00:41.000Z</time>
      </trkpt>
      <trkpt lat="45.17948" lon="6.37089">
        <ele>2710.6000976562</ele>
        <time>2014-01-11T12:00:44.000Z</time>
      </trkpt>
      <trkpt lat="45.17948" lon="6.37089">
        <ele>2710.6000976562</ele>
        <time>2014-01-11T12:00:45.000Z</time>
      </trkpt>
      <trkpt lat="45.17948" lon="6.37089">
        <ele>2710.8000488281</ele>
        <time>2014-01-11T12:00:46.000Z</time>
      </trkpt>
      <trkpt lat="45.17948" lon="6.37089">
        <ele>2710.8000488281</ele>
        <time>2014-01-11T12:00:47.000Z</time>
      </trkpt>
      <trkpt lat="45.17948" lon="6.37089">
        <ele>2710.8000488281</ele>
        <time>2014-01-11T12:00:48.000Z</time>
      </trkpt>
      <trkpt lat="45.17948" lon="6.37089">
        <ele>2710.8000488281</ele>
        <time>2014-01-11T12:00:49.000Z</time>
      </trkpt>
      <trkpt lat="45.17948" lon="6.37089">
        <ele>2710.8000488281</ele>
        <time>2014-01-11T12:00:50.000Z</time>
      </trkpt>
      <trkpt lat="45.17948" lon="6.37089">
        <ele>2710.8000488281</ele>
        <time>2014-01-11T12:00:51.000Z</time>
      </trkpt>
      <trkpt lat="45.17948" lon="6.37089">
        <ele>2710.8000488281</ele>
        <time>2014-01-11T12:00:52.000Z</time>
      </trkpt>
      <trkpt lat="45.17948" lon="6.37089">
        <ele>2710.8000488281</ele>
        <time>2014-01-11T12:00:53.000Z</time>
      </trkpt>
      <trkpt lat="45.17948" lon="6.37089">
        <ele>2710.8000488281</ele>
        <time>2014-01-11T12:00:54.000Z</time>
      </trkpt>
      <trkpt lat="45.17948" lon="6.37089">
        <ele>2710.6000976562</ele>
        <time>2014-01-11T12:00:55.000Z</time>
      </trkpt>
      <trkpt lat="45.17948" lon="6.37089">
        <ele>2710.6000976562</ele>
        <time>2014-01-11T12:00:56.000Z</time>
      </trkpt>
      <trkpt lat="45.17948" lon="6.37089">
        <ele>2710.6000976562</ele>
        <time>2014-01-11T12:00:58.000Z</time>
      </trkpt>
      <trkpt lat="45.17948" lon="6.37089">
        <ele>2710.8000488281</ele>
        <time>2014-01-11T12:00:59.000Z</time>
      </trkpt>
      <trkpt lat="45.17948" lon="6.37089">
        <ele>2710.6000976562</ele>
        <time>2014-01-11T12:01:03.000Z</time>
      </trkpt>
      <trkpt lat="45.17948" lon="6.37089">
        <ele>2710.6000976562</ele>
        <time>2014-01-11T12:01:04.000Z</time>
      </trkpt>
      <trkpt lat="45.17948" lon="6.37089">
        <ele>2710.6000976562</ele>
        <time>2014-01-11T12:01:05.000Z</time>
      </trkpt>
      <trkpt lat="45.17948" lon="6.37089">
        <ele>2710.6000976562</ele>
        <time>2014-01-11T12:01:06.000Z</time>
      </trkpt>
      <trkpt lat="45.17948" lon="6.37089">
        <ele>2710.6000976562</ele>
        <time>2014-01-11T12:01:07.000Z</time>
      </trkpt>
      <trkpt lat="45.17948" lon="6.37089">
        <ele>2710.6000976562</ele>
        <time>2014-01-11T12:01:08.000Z</time>
      </trkpt>
      <trkpt lat="45.17948" lon="6.37089">
        <ele>2710.6000976562</ele>
        <time>2014-01-11T12:01:10.000Z</time>
      </trkpt>
      <trkpt lat="45.17948" lon="6.37089">
        <ele>2710.6000976562</ele>
        <time>2014-01-11T12:01:11.000Z</time>
      </trkpt>
      <trkpt lat="45.17948" lon="6.37089">
        <ele>2710.6000976562</ele>
        <time>2014-01-11T12:01:12.000Z</time>
      </trkpt>
      <trkpt lat="45.17948" lon="6.37089">
        <ele>2710.6000976562</ele>
        <time>2014-01-11T12:01:13.000Z</time>
      </trkpt>
      <trkpt lat="45.17948" lon="6.37089">
        <ele>2710.8000488281</ele>
        <time>2014-01-11T12:01:14.000Z</time>
      </trkpt>
      <trkpt lat="45.17948" lon="6.37089">
        <ele>2710.8000488281</ele>
        <time>2014-01-11T12:01:16.000Z</time>
      </trkpt>
      <trkpt lat="45.17948" lon="6.37089">
        <ele>2710.8000488281</ele>
        <time>2014-01-11T12:01:17.000Z</time>
      </trkpt>
      <trkpt lat="45.17948" lon="6.37089">
        <ele>2710.8000488281</ele>
        <time>2014-01-11T12:01:18.000Z</time>
      </trkpt>
      <trkpt lat="45.17948" lon="6.37089">
        <ele>2710.6000976562</ele>
        <time>2014-01-11T12:01:19.000Z</time>
      </trkpt>
      <trkpt lat="45.17948" lon="6.37089">
        <ele>2710.6000976562</ele>
        <time>2014-01-11T12:01:20.000Z</time>
      </trkpt>
      <trkpt lat="45.17948" lon="6.37089">
        <ele>2710.6000976562</ele>
        <time>2014-01-11T12:01:22.000Z</time>
      </trkpt>
      <trkpt lat="45.17948" lon="6.37089">
        <ele>2710.6000976562</ele>
        <time>2014-01-11T12:01:23.000Z</time>
      </trkpt>
      <trkpt lat="45.17948" lon="6.37089">
        <ele>2710.6000976562</ele>
        <time>2014-01-11T12:01:24.000Z</time>
      </trkpt>
      <trkpt lat="45.17948" lon="6.37089">
        <ele>2710.6000976562</ele>
        <time>2014-01-11T12:01:25.000Z</time>
      </trkpt>
      <trkpt lat="45.17948" lon="6.37089">
        <ele>2710.6000976562</ele>
        <time>2014-01-11T12:01:26.000Z</time>
      </trkpt>
      <trkpt lat="45.17948" lon="6.37089">
        <ele>2710.6000976562</ele>
        <time>2014-01-11T12:01:27.000Z</time>
      </trkpt>
      <trkpt lat="45.17948" lon="6.37089">
        <ele>2710.6000976562</ele>
        <time>2014-01-11T12:01:29.000Z</time>
      </trkpt>
      <trkpt lat="45.17948" lon="6.37089">
        <ele>2710.6000976562</ele>
        <time>2014-01-11T12:01:30.000Z</time>
      </trkpt>
      <trkpt lat="45.17948" lon="6.37089">
        <ele>2710.6000976562</ele>
        <time>2014-01-11T12:01:31.000Z</time>
      </trkpt>
      <trkpt lat="45.17948" lon="6.37089">
        <ele>2710.6000976562</ele>
        <time>2014-01-11T12:01:34.000Z</time>
      </trkpt>
      <trkpt lat="45.17948" lon="6.37089">
        <ele>2710.6000976562</ele>
        <time>2014-01-11T12:01:37.000Z</time>
      </trkpt>
      <trkpt lat="45.17948" lon="6.37089">
        <ele>2710.6000976562</ele>
        <time>2014-01-11T12:01:38.000Z</time>
      </trkpt>
      <trkpt lat="45.17948" lon="6.37089">
        <ele>2710.6000976562</ele>
        <time>2014-01-11T12:01:39.000Z</time>
      </trkpt>
      <trkpt lat="45.17948" lon="6.37089">
        <ele>2710.6000976562</ele>
        <time>2014-01-11T12:01:40.000Z</time>
      </trkpt>
      <trkpt lat="45.17948" lon="6.37089">
        <ele>2710.3999023438</ele>
        <time>2014-01-11T12:01:41.000Z</time>
      </trkpt>
      <trkpt lat="45.17948" lon="6.37089">
        <ele>2710.3999023438</ele>
        <time>2014-01-11T12:01:42.000Z</time>
      </trkpt>
      <trkpt lat="45.17948" lon="6.37089">
        <ele>2710.3999023438</ele>
        <time>2014-01-11T12:01:43.000Z</time>
      </trkpt>
      <trkpt lat="45.17948" lon="6.37089">
        <ele>2710.3999023438</ele>
        <time>2014-01-11T12:01:44.000Z</time>
      </trkpt>
      <trkpt lat="45.17948" lon="6.37089">
        <ele>2710.3999023438</ele>
        <time>2014-01-11T12:01:47.000Z</time>
      </trkpt>
      <trkpt lat="45.17948" lon="6.37089">
        <ele>2710.6000976562</ele>
        <time>2014-01-11T12:01:48.000Z</time>
      </trkpt>
      <trkpt lat="45.17948" lon="6.37089">
        <ele>2710.6000976562</ele>
        <time>2014-01-11T12:01:49.000Z</time>
      </trkpt>
      <trkpt lat="45.17948" lon="6.37089">
        <ele>2710.6000976562</ele>
        <time>2014-01-11T12:01:50.000Z</time>
      </trkpt>
      <trkpt lat="45.17948" lon="6.37089">
        <ele>2710.6000976562</ele>
        <time>2014-01-11T12:01:51.000Z</time>
      </trkpt>
      <trkpt lat="45.17948" lon="6.37089">
        <ele>2710.6000976562</ele>
        <time>2014-01-11T12:01:52.000Z</time>
      </trkpt>
      <trkpt lat="45.17948" lon="6.37089">
        <ele>2710.6000976562</ele>
        <time>2014-01-11T12:01:54.000Z</time>
      </trkpt>
      <trkpt lat="45.17948" lon="6.37089">
        <ele>2710.6000976562</ele>
        <time>2014-01-11T12:01:55.000Z</time>
      </trkpt>
      <trkpt lat="45.17948" lon="6.37089">
        <ele>2710.6000976562</ele>
        <time>2014-01-11T12:01:56.000Z</time>
      </trkpt>
      <trkpt lat="45.17948" lon="6.37089">
        <ele>2710.6000976562</ele>
        <time>2014-01-11T12:01:57.000Z</time>
      </trkpt>
      <trkpt lat="45.17948" lon="6.37089">
        <ele>2710.3999023438</ele>
        <time>2014-01-11T12:01:58.000Z</time>
      </trkpt>
      <trkpt lat="45.17948" lon="6.37089">
        <ele>2710</ele>
        <time>2014-01-11T12:01:59.000Z</time>
      </trkpt>
      <trkpt lat="45.17948" lon="6.37089">
        <ele>2710</ele>
        <time>2014-01-11T12:02:00.000Z</time>
      </trkpt>
      <trkpt lat="45.17948" lon="6.37089">
        <ele>2709.8000488281</ele>
        <time>2014-01-11T12:02:01.000Z</time>
      </trkpt>
      <trkpt lat="45.17948" lon="6.37089">
        <ele>2709.8000488281</ele>
        <time>2014-01-11T12:02:02.000Z</time>
      </trkpt>
      <trkpt lat="45.17948" lon="6.37089">
        <ele>2709.8000488281</ele>
        <time>2014-01-11T12:02:03.000Z</time>
      </trkpt>
      <trkpt lat="45.17948" lon="6.37089">
        <ele>2709.8000488281</ele>
        <time>2014-01-11T12:02:04.000Z</time>
      </trkpt>
      <trkpt lat="45.17948" lon="6.37089">
        <ele>2709.8000488281</ele>
        <time>2014-01-11T12:02:05.000Z</time>
      </trkpt>
      <trkpt lat="45.17948" lon="6.37089">
        <ele>2709.8000488281</ele>
        <time>2014-01-11T12:02:06.000Z</time>
      </trkpt>
      <trkpt lat="45.17948" lon="6.37089">
        <ele>2709.8000488281</ele>
        <time>2014-01-11T12:02:07.000Z</time>
      </trkpt>
      <trkpt lat="45.17948" lon="6.37089">
        <ele>2709.8000488281</ele>
        <time>2014-01-11T12:02:08.000Z</time>
      </trkpt>
      <trkpt lat="45.17948" lon="6.37089">
        <ele>2709.8000488281</ele>
        <time>2014-01-11T12:02:09.000Z</time>
      </trkpt>
      <trkpt lat="45.17948" lon="6.37089">
        <ele>2709.8000488281</ele>
        <time>2014-01-11T12:02:10.000Z</time>
      </trkpt>
      <trkpt lat="45.17948" lon="6.37089">
        <ele>2709.8000488281</ele>
        <time>2014-01-11T12:02:11.000Z</time>
      </trkpt>
      <trkpt lat="45.17948" lon="6.37089">
        <ele>2709.8000488281</ele>
        <time>2014-01-11T12:02:12.000Z</time>
      </trkpt>
      <trkpt lat="45.17948" lon="6.37089">
        <ele>2709.8000488281</ele>
        <time>2014-01-11T12:02:13.000Z</time>
      </trkpt>
      <trkpt lat="45.17948" lon="6.37089">
        <ele>2709.6000976562</ele>
        <time>2014-01-11T12:02:14.000Z</time>
      </trkpt>
      <trkpt lat="45.17948" lon="6.37089">
        <ele>2709.6000976562</ele>
        <time>2014-01-11T12:02:15.000Z</time>
      </trkpt>
      <trkpt lat="45.17948" lon="6.37089">
        <ele>2709.6000976562</ele>
        <time>2014-01-11T12:02:16.000Z</time>
      </trkpt>
      <trkpt lat="45.17948" lon="6.37089">
        <ele>2709.6000976562</ele>
        <time>2014-01-11T12:02:18.000Z</time>
      </trkpt>
      <trkpt lat="45.17948" lon="6.37089">
        <ele>2709.6000976562</ele>
        <time>2014-01-11T12:02:19.000Z</time>
      </trkpt>
      <trkpt lat="45.17948" lon="6.37089">
        <ele>2709.6000976562</ele>
        <time>2014-01-11T12:02:20.000Z</time>
      </trkpt>
      <trkpt lat="45.17948" lon="6.37089">
        <ele>2709.6000976562</ele>
        <time>2014-01-11T12:02:21.000Z</time>
      </trkpt>
      <trkpt lat="45.17948" lon="6.37089">
        <ele>2709.6000976562</ele>
        <time>2014-01-11T12:02:22.000Z</time>
      </trkpt>
      <trkpt lat="45.17948" lon="6.37089">
        <ele>2709.3999023438</ele>
        <time>2014-01-11T12:02:23.000Z</time>
      </trkpt>
      <trkpt lat="45.17948" lon="6.37089">
        <ele>2709.3999023438</ele>
        <time>2014-01-11T12:02:24.000Z</time>
      </trkpt>
      <trkpt lat="45.17948" lon="6.37089">
        <ele>2709.3999023438</ele>
        <time>2014-01-11T12:02:25.000Z</time>
      </trkpt>
      <trkpt lat="45.17948" lon="6.37089">
        <ele>2709.3999023438</ele>
        <time>2014-01-11T12:02:26.000Z</time>
      </trkpt>
      <trkpt lat="45.17948" lon="6.37089">
        <ele>2709.3999023438</ele>
        <time>2014-01-11T12:02:27.000Z</time>
      </trkpt>
      <trkpt lat="45.17948" lon="6.37089">
        <ele>2709.3999023438</ele>
        <time>2014-01-11T12:02:28.000Z</time>
      </trkpt>
      <trkpt lat="45.17948" lon="6.37089">
        <ele>2709.6000976562</ele>
        <time>2014-01-11T12:02:29.000Z</time>
      </trkpt>
      <trkpt lat="45.17948" lon="6.37089">
        <ele>2709.6000976562</ele>
        <time>2014-01-11T12:02:30.000Z</time>
      </trkpt>
      <trkpt lat="45.17948" lon="6.37089">
        <ele>2709.6000976562</ele>
        <time>2014-01-11T12:02:34.000Z</time>
      </trkpt>
      <trkpt lat="45.17948" lon="6.37089">
        <ele>2709.6000976562</ele>
        <time>2014-01-11T12:02:35.000Z</time>
      </trkpt>
      <trkpt lat="45.17948" lon="6.37089">
        <ele>2709.6000976562</ele>
        <time>2014-01-11T12:02:36.000Z</time>
      </trkpt>
      <trkpt lat="45.17948" lon="6.37089">
        <ele>2709.6000976562</ele>
        <time>2014-01-11T12:02:37.000Z</time>
      </trkpt>
      <trkpt lat="45.17948" lon="6.37089">
        <ele>2709.6000976562</ele>
        <time>2014-01-11T12:02:38.000Z</time>
      </trkpt>
      <trkpt lat="45.17948" lon="6.37089">
        <ele>2709.6000976562</ele>
        <time>2014-01-11T12:02:39.000Z</time>
      </trkpt>
      <trkpt lat="45.17948" lon="6.37089">
        <ele>2709.6000976562</ele>
        <time>2014-01-11T12:02:40.000Z</time>
      </trkpt>
      <trkpt lat="45.17948" lon="6.37089">
        <ele>2709.6000976562</ele>
        <time>2014-01-11T12:02:41.000Z</time>
      </trkpt>
      <trkpt lat="45.17948" lon="6.37089">
        <ele>2709.6000976562</ele>
        <time>2014-01-11T12:02:42.000Z</time>
      </trkpt>
      <trkpt lat="45.17948" lon="6.37089">
        <ele>2709.6000976562</ele>
        <time>2014-01-11T12:02:43.000Z</time>
      </trkpt>
      <trkpt lat="45.17948" lon="6.37089">
        <ele>2709.3999023438</ele>
        <time>2014-01-11T12:02:47.000Z</time>
      </trkpt>
      <trkpt lat="45.17948" lon="6.37089">
        <ele>2709.3999023438</ele>
        <time>2014-01-11T12:02:48.000Z</time>
      </trkpt>
      <trkpt lat="45.17948" lon="6.37089">
        <ele>2709.3999023438</ele>
        <time>2014-01-11T12:02:49.000Z</time>
      </trkpt>
      <trkpt lat="45.17948" lon="6.37089">
        <ele>2709.3999023438</ele>
        <time>2014-01-11T12:02:50.000Z</time>
      </trkpt>
      <trkpt lat="45.17948" lon="6.37089">
        <ele>2709.3999023438</ele>
        <time>2014-01-11T12:02:51.000Z</time>
      </trkpt>
      <trkpt lat="45.17948" lon="6.37089">
        <ele>2709.6000976562</ele>
        <time>2014-01-11T12:02:52.000Z</time>
      </trkpt>
      <trkpt lat="45.17948" lon="6.37089">
        <ele>2709.6000976562</ele>
        <time>2014-01-11T12:02:53.000Z</time>
      </trkpt>
      <trkpt lat="45.17948" lon="6.37089">
        <ele>2709.6000976562</ele>
        <time>2014-01-11T12:02:54.000Z</time>
      </trkpt>
      <trkpt lat="45.17948" lon="6.37089">
        <ele>2709.8000488281</ele>
        <time>2014-01-11T12:02:55.000Z</time>
      </trkpt>
      <trkpt lat="45.17948" lon="6.37089">
        <ele>2709.8000488281</ele>
        <time>2014-01-11T12:02:56.000Z</time>
      </trkpt>
      <trkpt lat="45.17948" lon="6.37089">
        <ele>2709.8000488281</ele>
        <time>2014-01-11T12:02:57.000Z</time>
      </trkpt>
      <trkpt lat="45.17948" lon="6.37089">
        <ele>2709.8000488281</ele>
        <time>2014-01-11T12:02:58.000Z</time>
      </trkpt>
      <trkpt lat="45.17948" lon="6.37089">
        <ele>2709.8000488281</ele>
        <time>2014-01-11T12:02:59.000Z</time>
      </trkpt>
      <trkpt lat="45.17948" lon="6.37089">
        <ele>2709.6000976562</ele>
        <time>2014-01-11T12:03:00.000Z</time>
      </trkpt>
      <trkpt lat="45.17948" lon="6.37089">
        <ele>2709.6000976562</ele>
        <time>2014-01-11T12:03:01.000Z</time>
      </trkpt>
      <trkpt lat="45.17948" lon="6.37089">
        <ele>2709.3999023438</ele>
        <time>2014-01-11T12:03:02.000Z</time>
      </trkpt>
      <trkpt lat="45.17948" lon="6.37089">
        <ele>2709.3999023438</ele>
        <time>2014-01-11T12:03:03.000Z</time>
      </trkpt>
      <trkpt lat="45.17947" lon="6.37088">
        <ele>2709.3999023438</ele>
        <time>2014-01-11T12:03:04.000Z</time>
      </trkpt>
      <trkpt lat="45.17947" lon="6.37088">
        <ele>2709.3999023438</ele>
        <time>2014-01-11T12:03:06.000Z</time>
      </trkpt>
      <trkpt lat="45.17947" lon="6.37088">
        <ele>2709.6000976562</ele>
        <time>2014-01-11T12:03:07.000Z</time>
      </trkpt>
      <trkpt lat="45.17946" lon="6.37088">
        <ele>2709.6000976562</ele>
        <time>2014-01-11T12:03:08.000Z</time>
      </trkpt>
      <trkpt lat="45.17945" lon="6.37088">
        <ele>2709.6000976562</ele>
        <time>2014-01-11T12:03:09.000Z</time>
      </trkpt>
      <trkpt lat="45.17944" lon="6.37088">
        <ele>2709.6000976562</ele>
        <time>2014-01-11T12:03:10.000Z</time>
      </trkpt>
      <trkpt lat="45.17943" lon="6.37088">
        <ele>2709.6000976562</ele>
        <time>2014-01-11T12:03:11.000Z</time>
      </trkpt>
      <trkpt lat="45.17942" lon="6.37088">
        <ele>2709.6000976562</ele>
        <time>2014-01-11T12:03:12.000Z</time>
      </trkpt>
      <trkpt lat="45.17941" lon="6.37088">
        <ele>2709.6000976562</ele>
        <time>2014-01-11T12:03:13.000Z</time>
      </trkpt>
      <trkpt lat="45.1794" lon="6.37086">
        <ele>2709.6000976562</ele>
        <time>2014-01-11T12:03:16.000Z</time>
      </trkpt>
      <trkpt lat="45.1794" lon="6.37086">
        <ele>2709.6000976562</ele>
        <time>2014-01-11T12:03:17.000Z</time>
      </trkpt>
      <trkpt lat="45.1794" lon="6.37086">
        <ele>2709.6000976562</ele>
        <time>2014-01-11T12:03:18.000Z</time>
      </trkpt>
      <trkpt lat="45.1794" lon="6.37086">
        <ele>2709.8000488281</ele>
        <time>2014-01-11T12:03:19.000Z</time>
      </trkpt>
      <trkpt lat="45.1794" lon="6.37086">
        <ele>2709.8000488281</ele>
        <time>2014-01-11T12:03:20.000Z</time>
      </trkpt>
      <trkpt lat="45.1794" lon="6.37086">
        <ele>2709.8000488281</ele>
        <time>2014-01-11T12:03:21.000Z</time>
      </trkpt>
      <trkpt lat="45.1794" lon="6.37086">
        <ele>2709.8000488281</ele>
        <time>2014-01-11T12:03:22.000Z</time>
      </trkpt>
      <trkpt lat="45.1794" lon="6.37086">
        <ele>2709.8000488281</ele>
        <time>2014-01-11T12:03:23.000Z</time>
      </trkpt>
      <trkpt lat="45.1794" lon="6.37086">
        <ele>2709.6000976562</ele>
        <time>2014-01-11T12:03:24.000Z</time>
      </trkpt>
      <trkpt lat="45.1794" lon="6.37086">
        <ele>2709.6000976562</ele>
        <time>2014-01-11T12:03:25.000Z</time>
      </trkpt>
      <trkpt lat="45.1794" lon="6.37086">
        <ele>2709.6000976562</ele>
        <time>2014-01-11T12:03:26.000Z</time>
      </trkpt>
      <trkpt lat="45.1794" lon="6.37086">
        <ele>2709.6000976562</ele>
        <time>2014-01-11T12:03:27.000Z</time>
      </trkpt>
      <trkpt lat="45.1794" lon="6.37086">
        <ele>2709.6000976562</ele>
        <time>2014-01-11T12:03:28.000Z</time>
      </trkpt>
      <trkpt lat="45.1794" lon="6.37086">
        <ele>2709.6000976562</ele>
        <time>2014-01-11T12:03:29.000Z</time>
      </trkpt>
      <trkpt lat="45.1794" lon="6.37086">
        <ele>2709.6000976562</ele>
        <time>2014-01-11T12:03:30.000Z</time>
      </trkpt>
      <trkpt lat="45.1794" lon="6.37086">
        <ele>2709.3999023438</ele>
        <time>2014-01-11T12:03:31.000Z</time>
      </trkpt>
      <trkpt lat="45.1794" lon="6.37086">
        <ele>2709.3999023438</ele>
        <time>2014-01-11T12:03:32.000Z</time>
      </trkpt>
      <trkpt lat="45.1794" lon="6.37086">
        <ele>2709.3999023438</ele>
        <time>2014-01-11T12:03:33.000Z</time>
      </trkpt>
      <trkpt lat="45.1794" lon="6.37086">
        <ele>2709.3999023438</ele>
        <time>2014-01-11T12:03:34.000Z</time>
      </trkpt>
      <trkpt lat="45.1794" lon="6.37086">
        <ele>2709.3999023438</ele>
        <time>2014-01-11T12:03:35.000Z</time>
      </trkpt>
      <trkpt lat="45.1794" lon="6.37086">
        <ele>2709.6000976562</ele>
        <time>2014-01-11T12:03:36.000Z</time>
      </trkpt>
      <trkpt lat="45.1794" lon="6.37086">
        <ele>2709.6000976562</ele>
        <time>2014-01-11T12:03:37.000Z</time>
      </trkpt>
      <trkpt lat="45.1794" lon="6.37086">
        <ele>2709.6000976562</ele>
        <time>2014-01-11T12:03:38.000Z</time>
      </trkpt>
      <trkpt lat="45.1794" lon="6.37085">
        <ele>2709.6000976562</ele>
        <time>2014-01-11T12:03:39.000Z</time>
      </trkpt>
      <trkpt lat="45.1794" lon="6.37085">
        <ele>2709.6000976562</ele>
        <time>2014-01-11T12:03:40.000Z</time>
      </trkpt>
      <trkpt lat="45.1794" lon="6.37085">
        <ele>2709.8000488281</ele>
        <time>2014-01-11T12:03:41.000Z</time>
      </trkpt>
      <trkpt lat="45.1794" lon="6.37084">
        <ele>2709.8000488281</ele>
        <time>2014-01-11T12:03:45.000Z</time>
      </trkpt>
      <trkpt lat="45.1794" lon="6.37084">
        <ele>2709.8000488281</ele>
        <time>2014-01-11T12:03:46.000Z</time>
      </trkpt>
      <trkpt lat="45.1794" lon="6.37084">
        <ele>2709.8000488281</ele>
        <time>2014-01-11T12:03:47.000Z</time>
      </trkpt>
      <trkpt lat="45.1794" lon="6.37084">
        <ele>2709.8000488281</ele>
        <time>2014-01-11T12:03:49.000Z</time>
      </trkpt>
      <trkpt lat="45.1794" lon="6.37084">
        <ele>2709.8000488281</ele>
        <time>2014-01-11T12:03:50.000Z</time>
      </trkpt>
      <trkpt lat="45.1794" lon="6.37084">
        <ele>2709.8000488281</ele>
        <time>2014-01-11T12:03:51.000Z</time>
      </trkpt>
      <trkpt lat="45.1794" lon="6.37084">
        <ele>2709.8000488281</ele>
        <time>2014-01-11T12:03:52.000Z</time>
      </trkpt>
      <trkpt lat="45.1794" lon="6.37084">
        <ele>2710</ele>
        <time>2014-01-11T12:03:53.000Z</time>
      </trkpt>
      <trkpt lat="45.1794" lon="6.37084">
        <ele>2710</ele>
        <time>2014-01-11T12:03:54.000Z</time>
      </trkpt>
      <trkpt lat="45.1794" lon="6.37084">
        <ele>2710</ele>
        <time>2014-01-11T12:03:56.000Z</time>
      </trkpt>
      <trkpt lat="45.1794" lon="6.37084">
        <ele>2710</ele>
        <time>2014-01-11T12:03:57.000Z</time>
      </trkpt>
      <trkpt lat="45.1794" lon="6.37084">
        <ele>2710</ele>
        <time>2014-01-11T12:03:58.000Z</time>
      </trkpt>
      <trkpt lat="45.1794" lon="6.37084">
        <ele>2709.8000488281</ele>
        <time>2014-01-11T12:03:59.000Z</time>
      </trkpt>
      <trkpt lat="45.1794" lon="6.37084">
        <ele>2709.8000488281</ele>
        <time>2014-01-11T12:04:00.000Z</time>
      </trkpt>
      <trkpt lat="45.1794" lon="6.37084">
        <ele>2709.6000976562</ele>
        <time>2014-01-11T12:04:01.000Z</time>
      </trkpt>
      <trkpt lat="45.1794" lon="6.37084">
        <ele>2709.6000976562</ele>
        <time>2014-01-11T12:04:02.000Z</time>
      </trkpt>
      <trkpt lat="45.1794" lon="6.37084">
        <ele>2709.8000488281</ele>
        <time>2014-01-11T12:04:03.000Z</time>
      </trkpt>
      <trkpt lat="45.1794" lon="6.37084">
        <ele>2709.8000488281</ele>
        <time>2014-01-11T12:04:04.000Z</time>
      </trkpt>
      <trkpt lat="45.1794" lon="6.37084">
        <ele>2710</ele>
        <time>2014-01-11T12:04:05.000Z</time>
      </trkpt>
      <trkpt lat="45.1794" lon="6.37084">
        <ele>2710</ele>
        <time>2014-01-11T12:04:06.000Z</time>
      </trkpt>
      <trkpt lat="45.1794" lon="6.37084">
        <ele>2710</ele>
        <time>2014-01-11T12:04:07.000Z</time>
      </trkpt>
      <trkpt lat="45.1794" lon="6.37084">
        <ele>2710</ele>
        <time>2014-01-11T12:04:08.000Z</time>
      </trkpt>
      <trkpt lat="45.1794" lon="6.37084">
        <ele>2710</ele>
        <time>2014-01-11T12:04:09.000Z</time>
      </trkpt>
      <trkpt lat="45.1794" lon="6.37084">
        <ele>2710</ele>
        <time>2014-01-11T12:04:10.000Z</time>
      </trkpt>
      <trkpt lat="45.1794" lon="6.37084">
        <ele>2710</ele>
        <time>2014-01-11T12:04:11.000Z</time>
      </trkpt>
      <trkpt lat="45.1794" lon="6.37084">
        <ele>2710</ele>
        <time>2014-01-11T12:04:12.000Z</time>
      </trkpt>
      <trkpt lat="45.1794" lon="6.37084">
        <ele>2710</ele>
        <time>2014-01-11T12:04:13.000Z</time>
      </trkpt>
      <trkpt lat="45.1794" lon="6.37084">
        <ele>2710</ele>
        <time>2014-01-11T12:04:14.000Z</time>
      </trkpt>
      <trkpt lat="45.1794" lon="6.37084">
        <ele>2710</ele>
        <time>2014-01-11T12:04:16.000Z</time>
      </trkpt>
      <trkpt lat="45.1794" lon="6.37084">
        <ele>2710</ele>
        <time>2014-01-11T12:04:17.000Z</time>
      </trkpt>
      <trkpt lat="45.1794" lon="6.37084">
        <ele>2710</ele>
        <time>2014-01-11T12:04:18.000Z</time>
      </trkpt>
      <trkpt lat="45.1794" lon="6.37084">
        <ele>2710</ele>
        <time>2014-01-11T12:04:19.000Z</time>
      </trkpt>
      <trkpt lat="45.1794" lon="6.37084">
        <ele>2710.1999511719</ele>
        <time>2014-01-11T12:04:20.000Z</time>
      </trkpt>
      <trkpt lat="45.1794" lon="6.37084">
        <ele>2710.1999511719</ele>
        <time>2014-01-11T12:04:21.000Z</time>
      </trkpt>
      <trkpt lat="45.1794" lon="6.37084">
        <ele>2710.1999511719</ele>
        <time>2014-01-11T12:04:22.000Z</time>
      </trkpt>
      <trkpt lat="45.1794" lon="6.37084">
        <ele>2710.1999511719</ele>
        <time>2014-01-11T12:04:24.000Z</time>
      </trkpt>
      <trkpt lat="45.1794" lon="6.37084">
        <ele>2710.1999511719</ele>
        <time>2014-01-11T12:04:27.000Z</time>
      </trkpt>
      <trkpt lat="45.1794" lon="6.37084">
        <ele>2710.1999511719</ele>
        <time>2014-01-11T12:04:28.000Z</time>
      </trkpt>
      <trkpt lat="45.1794" lon="6.37084">
        <ele>2710</ele>
        <time>2014-01-11T12:04:29.000Z</time>
      </trkpt>
      <trkpt lat="45.1794" lon="6.37084">
        <ele>2710</ele>
        <time>2014-01-11T12:04:31.000Z</time>
      </trkpt>
      <trkpt lat="45.1794" lon="6.37084">
        <ele>2710</ele>
        <time>2014-01-11T12:04:32.000Z</time>
      </trkpt>
      <trkpt lat="45.1794" lon="6.37084">
        <ele>2710</ele>
        <time>2014-01-11T12:04:33.000Z</time>
      </trkpt>
      <trkpt lat="45.1794" lon="6.37084">
        <ele>2710</ele>
        <time>2014-01-11T12:04:34.000Z</time>
      </trkpt>
      <trkpt lat="45.1794" lon="6.37084">
        <ele>2710</ele>
        <time>2014-01-11T12:04:37.000Z</time>
      </trkpt>
      <trkpt lat="45.1794" lon="6.37084">
        <ele>2710</ele>
        <time>2014-01-11T12:04:47.000Z</time>
      </trkpt>
      <trkpt lat="45.1794" lon="6.37084">
        <ele>2710</ele>
        <time>2014-01-11T12:04:48.000Z</time>
      </trkpt>
      <trkpt lat="45.1794" lon="6.37084">
        <ele>2710</ele>
        <time>2014-01-11T12:04:49.000Z</time>
      </trkpt>
      <trkpt lat="45.1794" lon="6.37084">
        <ele>2710</ele>
        <time>2014-01-11T12:04:50.000Z</time>
      </trkpt>
      <trkpt lat="45.1794" lon="6.37084">
        <ele>2710</ele>
        <time>2014-01-11T12:04:52.000Z</time>
      </trkpt>
      <trkpt lat="45.1794" lon="6.37084">
        <ele>2710</ele>
        <time>2014-01-11T12:04:53.000Z</time>
      </trkpt>
      <trkpt lat="45.1794" lon="6.37084">
        <ele>2710</ele>
        <time>2014-01-11T12:04:54.000Z</time>
      </trkpt>
      <trkpt lat="45.1794" lon="6.37084">
        <ele>2710.1999511719</ele>
        <time>2014-01-11T12:04:55.000Z</time>
      </trkpt>
      <trkpt lat="45.1794" lon="6.37084">
        <ele>2710</ele>
        <time>2014-01-11T12:04:59.000Z</time>
      </trkpt>
      <trkpt lat="45.1794" lon="6.37084">
        <ele>2710</ele>
        <time>2014-01-11T12:05:00.000Z</time>
      </trkpt>
      <trkpt lat="45.1794" lon="6.37084">
        <ele>2710</ele>
        <time>2014-01-11T12:05:01.000Z</time>
      </trkpt>
      <trkpt lat="45.1794" lon="6.37084">
        <ele>2710</ele>
        <time>2014-01-11T12:05:03.000Z</time>
      </trkpt>
      <trkpt lat="45.1794" lon="6.37084">
        <ele>2710</ele>
        <time>2014-01-11T12:05:05.000Z</time>
      </trkpt>
      <trkpt lat="45.1794" lon="6.37084">
        <ele>2710</ele>
        <time>2014-01-11T12:05:07.000Z</time>
      </trkpt>
      <trkpt lat="45.1794" lon="6.37084">
        <ele>2710</ele>
        <time>2014-01-11T12:05:08.000Z</time>
      </trkpt>
      <trkpt lat="45.1794" lon="6.37084">
        <ele>2710.1999511719</ele>
        <time>2014-01-11T12:05:09.000Z</time>
      </trkpt>
      <trkpt lat="45.1794" lon="6.37084">
        <ele>2710.1999511719</ele>
        <time>2014-01-11T12:05:10.000Z</time>
      </trkpt>
      <trkpt lat="45.1794" lon="6.37084">
        <ele>2710.1999511719</ele>
        <time>2014-01-11T12:05:11.000Z</time>
      </trkpt>
      <trkpt lat="45.1794" lon="6.37084">
        <ele>2710.1999511719</ele>
        <time>2014-01-11T12:05:12.000Z</time>
      </trkpt>
      <trkpt lat="45.1794" lon="6.37084">
        <ele>2710.1999511719</ele>
        <time>2014-01-11T12:05:13.000Z</time>
      </trkpt>
      <trkpt lat="45.1794" lon="6.37084">
        <ele>2710.1999511719</ele>
        <time>2014-01-11T12:05:14.000Z</time>
      </trkpt>
      <trkpt lat="45.1794" lon="6.37084">
        <ele>2710</ele>
        <time>2014-01-11T12:05:15.000Z</time>
      </trkpt>
      <trkpt lat="45.1794" lon="6.37084">
        <ele>2710</ele>
        <time>2014-01-11T12:05:16.000Z</time>
      </trkpt>
      <trkpt lat="45.1794" lon="6.37084">
        <ele>2710</ele>
        <time>2014-01-11T12:05:17.000Z</time>
      </trkpt>
      <trkpt lat="45.1794" lon="6.37084">
        <ele>2710</ele>
        <time>2014-01-11T12:05:18.000Z</time>
      </trkpt>
      <trkpt lat="45.1794" lon="6.37084">
        <ele>2710</ele>
        <time>2014-01-11T12:05:19.000Z</time>
      </trkpt>
      <trkpt lat="45.1794" lon="6.37084">
        <ele>2710</ele>
        <time>2014-01-11T12:05:20.000Z</time>
      </trkpt>
      <trkpt lat="45.1794" lon="6.37084">
        <ele>2710</ele>
        <time>2014-01-11T12:05:21.000Z</time>
      </trkpt>
      <trkpt lat="45.1794" lon="6.37084">
        <ele>2710</ele>
        <time>2014-01-11T12:05:22.000Z</time>
      </trkpt>
      <trkpt lat="45.1794" lon="6.37084">
        <ele>2710.1999511719</ele>
        <time>2014-01-11T12:05:23.000Z</time>
      </trkpt>
      <trkpt lat="45.1794" lon="6.37084">
        <ele>2710.1999511719</ele>
        <time>2014-01-11T12:05:24.000Z</time>
      </trkpt>
      <trkpt lat="45.1794" lon="6.37084">
        <ele>2710.1999511719</ele>
        <time>2014-01-11T12:05:25.000Z</time>
      </trkpt>
      <trkpt lat="45.1794" lon="6.37084">
        <ele>2710.1999511719</ele>
        <time>2014-01-11T12:05:26.000Z</time>
      </trkpt>
      <trkpt lat="45.1794" lon="6.37084">
        <ele>2710.1999511719</ele>
        <time>2014-01-11T12:05:27.000Z</time>
      </trkpt>
      <trkpt lat="45.1794" lon="6.37084">
        <ele>2710.1999511719</ele>
        <time>2014-01-11T12:05:28.000Z</time>
      </trkpt>
      <trkpt lat="45.1794" lon="6.37084">
        <ele>2710.3999023438</ele>
        <time>2014-01-11T12:05:29.000Z</time>
      </trkpt>
      <trkpt lat="45.1794" lon="6.37084">
        <ele>2710.3999023438</ele>
        <time>2014-01-11T12:05:30.000Z</time>
      </trkpt>
      <trkpt lat="45.1794" lon="6.37084">
        <ele>2710.3999023438</ele>
        <time>2014-01-11T12:05:31.000Z</time>
      </trkpt>
      <trkpt lat="45.1794" lon="6.37084">
        <ele>2710.3999023438</ele>
        <time>2014-01-11T12:05:32.000Z</time>
      </trkpt>
      <trkpt lat="45.1794" lon="6.37084">
        <ele>2710.3999023438</ele>
        <time>2014-01-11T12:05:33.000Z</time>
      </trkpt>
      <trkpt lat="45.1794" lon="6.37084">
        <ele>2710.6000976562</ele>
        <time>2014-01-11T12:05:34.000Z</time>
      </trkpt>
      <trkpt lat="45.1794" lon="6.37084">
        <ele>2710.6000976562</ele>
        <time>2014-01-11T12:05:35.000Z</time>
      </trkpt>
      <trkpt lat="45.1794" lon="6.37084">
        <ele>2710.8000488281</ele>
        <time>2014-01-11T12:05:36.000Z</time>
      </trkpt>
      <trkpt lat="45.1794" lon="6.37084">
        <ele>2710.8000488281</ele>
        <time>2014-01-11T12:05:37.000Z</time>
      </trkpt>
      <trkpt lat="45.1794" lon="6.37084">
        <ele>2711</ele>
        <time>2014-01-11T12:05:38.000Z</time>
      </trkpt>
      <trkpt lat="45.1794" lon="6.37084">
        <ele>2711</ele>
        <time>2014-01-11T12:05:39.000Z</time>
      </trkpt>
      <trkpt lat="45.1794" lon="6.37084">
        <ele>2711</ele>
        <time>2014-01-11T12:05:42.000Z</time>
      </trkpt>
      <trkpt lat="45.1794" lon="6.37084">
        <ele>2711</ele>
        <time>2014-01-11T12:05:43.000Z</time>
      </trkpt>
      <trkpt lat="45.1794" lon="6.37084">
        <ele>2711</ele>
        <time>2014-01-11T12:05:44.000Z</time>
      </trkpt>
      <trkpt lat="45.1794" lon="6.37084">
        <ele>2710.8000488281</ele>
        <time>2014-01-11T12:05:45.000Z</time>
      </trkpt>
      <trkpt lat="45.1794" lon="6.37084">
        <ele>2710.8000488281</ele>
        <time>2014-01-11T12:05:46.000Z</time>
      </trkpt>
      <trkpt lat="45.1794" lon="6.37084">
        <ele>2710.8000488281</ele>
        <time>2014-01-11T12:05:47.000Z</time>
      </trkpt>
      <trkpt lat="45.17941" lon="6.37085">
        <ele>2710.8000488281</ele>
        <time>2014-01-11T12:05:48.000Z</time>
      </trkpt>
      <trkpt lat="45.17941" lon="6.37085">
        <ele>2710.6000976562</ele>
        <time>2014-01-11T12:05:49.000Z</time>
      </trkpt>
      <trkpt lat="45.17941" lon="6.37085">
        <ele>2710.6000976562</ele>
        <time>2014-01-11T12:05:50.000Z</time>
      </trkpt>
      <trkpt lat="45.17941" lon="6.37085">
        <ele>2710.6000976562</ele>
        <time>2014-01-11T12:05:51.000Z</time>
      </trkpt>
      <trkpt lat="45.17941" lon="6.37085">
        <ele>2710.6000976562</ele>
        <time>2014-01-11T12:05:52.000Z</time>
      </trkpt>
      <trkpt lat="45.17941" lon="6.37085">
        <ele>2710.8000488281</ele>
        <time>2014-01-11T12:05:53.000Z</time>
      </trkpt>
      <trkpt lat="45.17941" lon="6.37085">
        <ele>2710.8000488281</ele>
        <time>2014-01-11T12:05:54.000Z</time>
      </trkpt>
      <trkpt lat="45.17941" lon="6.37085">
        <ele>2710.8000488281</ele>
        <time>2014-01-11T12:05:55.000Z</time>
      </trkpt>
      <trkpt lat="45.17941" lon="6.37085">
        <ele>2710.8000488281</ele>
        <time>2014-01-11T12:05:56.000Z</time>
      </trkpt>
      <trkpt lat="45.17941" lon="6.37085">
        <ele>2710.6000976562</ele>
        <time>2014-01-11T12:05:58.000Z</time>
      </trkpt>
      <trkpt lat="45.17941" lon="6.37085">
        <ele>2710.6000976562</ele>
        <time>2014-01-11T12:05:59.000Z</time>
      </trkpt>
      <trkpt lat="45.17941" lon="6.37085">
        <ele>2710.6000976562</ele>
        <time>2014-01-11T12:06:01.000Z</time>
      </trkpt>
      <trkpt lat="45.17941" lon="6.37085">
        <ele>2710.6000976562</ele>
        <time>2014-01-11T12:06:02.000Z</time>
      </trkpt>
      <trkpt lat="45.17941" lon="6.37085">
        <ele>2710.6000976562</ele>
        <time>2014-01-11T12:06:03.000Z</time>
      </trkpt>
      <trkpt lat="45.17941" lon="6.37085">
        <ele>2710.6000976562</ele>
        <time>2014-01-11T12:06:04.000Z</time>
      </trkpt>
      <trkpt lat="45.17944" lon="6.37084">
        <ele>2710.6000976562</ele>
        <time>2014-01-11T12:06:05.000Z</time>
      </trkpt>
      <trkpt lat="45.17944" lon="6.37084">
        <ele>2710.6000976562</ele>
        <time>2014-01-11T12:06:06.000Z</time>
      </trkpt>
      <trkpt lat="45.17944" lon="6.37084">
        <ele>2710.6000976562</ele>
        <time>2014-01-11T12:06:07.000Z</time>
      </trkpt>
      <trkpt lat="45.17944" lon="6.37084">
        <ele>2710.3999023438</ele>
        <time>2014-01-11T12:06:08.000Z</time>
      </trkpt>
      <trkpt lat="45.17944" lon="6.37084">
        <ele>2710.3999023438</ele>
        <time>2014-01-11T12:06:09.000Z</time>
      </trkpt>
      <trkpt lat="45.17944" lon="6.37084">
        <ele>2710.1999511719</ele>
        <time>2014-01-11T12:06:10.000Z</time>
      </trkpt>
      <trkpt lat="45.17944" lon="6.37084">
        <ele>2710</ele>
        <time>2014-01-11T12:06:11.000Z</time>
      </trkpt>
      <trkpt lat="45.17944" lon="6.37084">
        <ele>2710</ele>
        <time>2014-01-11T12:06:12.000Z</time>
      </trkpt>
      <trkpt lat="45.17944" lon="6.37084">
        <ele>2709.8000488281</ele>
        <time>2014-01-11T12:06:13.000Z</time>
      </trkpt>
      <trkpt lat="45.17944" lon="6.37084">
        <ele>2709.6000976562</ele>
        <time>2014-01-11T12:06:14.000Z</time>
      </trkpt>
      <trkpt lat="45.17944" lon="6.37084">
        <ele>2709.6000976562</ele>
        <time>2014-01-11T12:06:15.000Z</time>
      </trkpt>
      <trkpt lat="45.17944" lon="6.37084">
        <ele>2709.6000976562</ele>
        <time>2014-01-11T12:06:16.000Z</time>
      </trkpt>
      <trkpt lat="45.17944" lon="6.37084">
        <ele>2709.6000976562</ele>
        <time>2014-01-11T12:06:17.000Z</time>
      </trkpt>
      <trkpt lat="45.17944" lon="6.37084">
        <ele>2709.6000976562</ele>
        <time>2014-01-11T12:06:18.000Z</time>
      </trkpt>
      <trkpt lat="45.17944" lon="6.37084">
        <ele>2709.6000976562</ele>
        <time>2014-01-11T12:06:19.000Z</time>
      </trkpt>
      <trkpt lat="45.17944" lon="6.37084">
        <ele>2709.6000976562</ele>
        <time>2014-01-11T12:06:20.000Z</time>
      </trkpt>
      <trkpt lat="45.17944" lon="6.37084">
        <ele>2709.6000976562</ele>
        <time>2014-01-11T12:06:21.000Z</time>
      </trkpt>
      <trkpt lat="45.17944" lon="6.37084">
        <ele>2709.6000976562</ele>
        <time>2014-01-11T12:06:22.000Z</time>
      </trkpt>
      <trkpt lat="45.17944" lon="6.37084">
        <ele>2709.6000976562</ele>
        <time>2014-01-11T12:06:23.000Z</time>
      </trkpt>
      <trkpt lat="45.17944" lon="6.37084">
        <ele>2709.3999023438</ele>
        <time>2014-01-11T12:06:24.000Z</time>
      </trkpt>
      <trkpt lat="45.17944" lon="6.37084">
        <ele>2709.3999023438</ele>
        <time>2014-01-11T12:06:25.000Z</time>
      </trkpt>
      <trkpt lat="45.17944" lon="6.37084">
        <ele>2709.1999511719</ele>
        <time>2014-01-11T12:06:26.000Z</time>
      </trkpt>
      <trkpt lat="45.17944" lon="6.37084">
        <ele>2709.1999511719</ele>
        <time>2014-01-11T12:06:27.000Z</time>
      </trkpt>
      <trkpt lat="45.17944" lon="6.37084">
        <ele>2709.1999511719</ele>
        <time>2014-01-11T12:06:28.000Z</time>
      </trkpt>
      <trkpt lat="45.17944" lon="6.37084">
        <ele>2709.3999023438</ele>
        <time>2014-01-11T12:06:29.000Z</time>
      </trkpt>
      <trkpt lat="45.17944" lon="6.37084">
        <ele>2709.3999023438</ele>
        <time>2014-01-11T12:06:30.000Z</time>
      </trkpt>
      <trkpt lat="45.17944" lon="6.37084">
        <ele>2709.3999023438</ele>
        <time>2014-01-11T12:06:31.000Z</time>
      </trkpt>
      <trkpt lat="45.17944" lon="6.37084">
        <ele>2709.3999023438</ele>
        <time>2014-01-11T12:06:32.000Z</time>
      </trkpt>
      <trkpt lat="45.17944" lon="6.37084">
        <ele>2709.3999023438</ele>
        <time>2014-01-11T12:06:33.000Z</time>
      </trkpt>
      <trkpt lat="45.17944" lon="6.37084">
        <ele>2709.3999023438</ele>
        <time>2014-01-11T12:06:34.000Z</time>
      </trkpt>
      <trkpt lat="45.17944" lon="6.37084">
        <ele>2709.3999023438</ele>
        <time>2014-01-11T12:06:36.000Z</time>
      </trkpt>
      <trkpt lat="45.17944" lon="6.37084">
        <ele>2709.3999023438</ele>
        <time>2014-01-11T12:06:39.000Z</time>
      </trkpt>
      <trkpt lat="45.17944" lon="6.37084">
        <ele>2709.3999023438</ele>
        <time>2014-01-11T12:06:40.000Z</time>
      </trkpt>
      <trkpt lat="45.17944" lon="6.37084">
        <ele>2709.3999023438</ele>
        <time>2014-01-11T12:06:41.000Z</time>
      </trkpt>
      <trkpt lat="45.17944" lon="6.37084">
        <ele>2709.3999023438</ele>
        <time>2014-01-11T12:06:42.000Z</time>
      </trkpt>
      <trkpt lat="45.17944" lon="6.37084">
        <ele>2709.3999023438</ele>
        <time>2014-01-11T12:06:43.000Z</time>
      </trkpt>
      <trkpt lat="45.17944" lon="6.37084">
        <ele>2709.1999511719</ele>
        <time>2014-01-11T12:06:44.000Z</time>
      </trkpt>
      <trkpt lat="45.17945" lon="6.37085">
        <ele>2709.1999511719</ele>
        <time>2014-01-11T12:06:45.000Z</time>
      </trkpt>
      <trkpt lat="45.17945" lon="6.37085">
        <ele>2709.1999511719</ele>
        <time>2014-01-11T12:06:46.000Z</time>
      </trkpt>
      <trkpt lat="45.17945" lon="6.37085">
        <ele>2709.1999511719</ele>
        <time>2014-01-11T12:06:47.000Z</time>
      </trkpt>
      <trkpt lat="45.17945" lon="6.37085">
        <ele>2709.1999511719</ele>
        <time>2014-01-11T12:06:48.000Z</time>
      </trkpt>
      <trkpt lat="45.17945" lon="6.37085">
        <ele>2709.1999511719</ele>
        <time>2014-01-11T12:06:49.000Z</time>
      </trkpt>
      <trkpt lat="45.17945" lon="6.37085">
        <ele>2709.1999511719</ele>
        <time>2014-01-11T12:06:50.000Z</time>
      </trkpt>
      <trkpt lat="45.17945" lon="6.37085">
        <ele>2709.1999511719</ele>
        <time>2014-01-11T12:06:51.000Z</time>
      </trkpt>
      <trkpt lat="45.17945" lon="6.37085">
        <ele>2709.1999511719</ele>
        <time>2014-01-11T12:06:52.000Z</time>
      </trkpt>
      <trkpt lat="45.17945" lon="6.37085">
        <ele>2709.1999511719</ele>
        <time>2014-01-11T12:06:53.000Z</time>
      </trkpt>
      <trkpt lat="45.17945" lon="6.37085">
        <ele>2709.1999511719</ele>
        <time>2014-01-11T12:06:58.000Z</time>
      </trkpt>
      <trkpt lat="45.17945" lon="6.37085">
        <ele>2709.1999511719</ele>
        <time>2014-01-11T12:06:59.000Z</time>
      </trkpt>
      <trkpt lat="45.17945" lon="6.37085">
        <ele>2709.1999511719</ele>
        <time>2014-01-11T12:07:00.000Z</time>
      </trkpt>
      <trkpt lat="45.17945" lon="6.37085">
        <ele>2709.1999511719</ele>
        <time>2014-01-11T12:07:01.000Z</time>
      </trkpt>
      <trkpt lat="45.17945" lon="6.37085">
        <ele>2709.1999511719</ele>
        <time>2014-01-11T12:07:02.000Z</time>
      </trkpt>
      <trkpt lat="45.17945" lon="6.37085">
        <ele>2709.1999511719</ele>
        <time>2014-01-11T12:07:04.000Z</time>
      </trkpt>
      <trkpt lat="45.17945" lon="6.37085">
        <ele>2709.1999511719</ele>
        <time>2014-01-11T12:07:05.000Z</time>
      </trkpt>
      <trkpt lat="45.17945" lon="6.37085">
        <ele>2709</ele>
        <time>2014-01-11T12:07:06.000Z</time>
      </trkpt>
      <trkpt lat="45.17945" lon="6.37085">
        <ele>2709</ele>
        <time>2014-01-11T12:07:07.000Z</time>
      </trkpt>
      <trkpt lat="45.17945" lon="6.37085">
        <ele>2709</ele>
        <time>2014-01-11T12:07:08.000Z</time>
      </trkpt>
      <trkpt lat="45.17945" lon="6.37085">
        <ele>2709</ele>
        <time>2014-01-11T12:07:09.000Z</time>
      </trkpt>
      <trkpt lat="45.17945" lon="6.37085">
        <ele>2709</ele>
        <time>2014-01-11T12:07:10.000Z</time>
      </trkpt>
      <trkpt lat="45.17945" lon="6.37085">
        <ele>2709.1999511719</ele>
        <time>2014-01-11T12:07:11.000Z</time>
      </trkpt>
      <trkpt lat="45.17945" lon="6.37085">
        <ele>2709.3999023438</ele>
        <time>2014-01-11T12:07:12.000Z</time>
      </trkpt>
      <trkpt lat="45.17945" lon="6.37085">
        <ele>2709.3999023438</ele>
        <time>2014-01-11T12:07:13.000Z</time>
      </trkpt>
      <trkpt lat="45.17945" lon="6.37085">
        <ele>2709.3999023438</ele>
        <time>2014-01-11T12:07:14.000Z</time>
      </trkpt>
      <trkpt lat="45.17945" lon="6.37085">
        <ele>2709.6000976562</ele>
        <time>2014-01-11T12:07:15.000Z</time>
      </trkpt>
      <trkpt lat="45.17945" lon="6.37085">
        <ele>2709.3999023438</ele>
        <time>2014-01-11T12:07:16.000Z</time>
      </trkpt>
      <trkpt lat="45.17945" lon="6.37085">
        <ele>2709.3999023438</ele>
        <time>2014-01-11T12:07:17.000Z</time>
      </trkpt>
      <trkpt lat="45.17945" lon="6.37085">
        <ele>2709.3999023438</ele>
        <time>2014-01-11T12:07:18.000Z</time>
      </trkpt>
      <trkpt lat="45.17945" lon="6.37085">
        <ele>2709.3999023438</ele>
        <time>2014-01-11T12:07:19.000Z</time>
      </trkpt>
      <trkpt lat="45.17945" lon="6.37085">
        <ele>2709.3999023438</ele>
        <time>2014-01-11T12:07:21.000Z</time>
      </trkpt>
      <trkpt lat="45.17945" lon="6.37085">
        <ele>2709.3999023438</ele>
        <time>2014-01-11T12:07:22.000Z</time>
      </trkpt>
      <trkpt lat="45.17945" lon="6.37085">
        <ele>2709.3999023438</ele>
        <time>2014-01-11T12:07:29.000Z</time>
      </trkpt>
      <trkpt lat="45.17945" lon="6.37085">
        <ele>2709.3999023438</ele>
        <time>2014-01-11T12:07:30.000Z</time>
      </trkpt>
      <trkpt lat="45.17945" lon="6.37085">
        <ele>2709.3999023438</ele>
        <time>2014-01-11T12:07:31.000Z</time>
      </trkpt>
      <trkpt lat="45.17945" lon="6.37085">
        <ele>2709.3999023438</ele>
        <time>2014-01-11T12:07:32.000Z</time>
      </trkpt>
      <trkpt lat="45.17945" lon="6.37085">
        <ele>2709.3999023438</ele>
        <time>2014-01-11T12:07:33.000Z</time>
      </trkpt>
      <trkpt lat="45.17945" lon="6.37085">
        <ele>2709.3999023438</ele>
        <time>2014-01-11T12:07:34.000Z</time>
      </trkpt>
      <trkpt lat="45.17945" lon="6.37085">
        <ele>2709.3999023438</ele>
        <time>2014-01-11T12:07:35.000Z</time>
      </trkpt>
      <trkpt lat="45.17945" lon="6.37085">
        <ele>2709.3999023438</ele>
        <time>2014-01-11T12:07:36.000Z</time>
      </trkpt>
      <trkpt lat="45.17945" lon="6.37085">
        <ele>2709.6000976562</ele>
        <time>2014-01-11T12:07:37.000Z</time>
      </trkpt>
      <trkpt lat="45.17945" lon="6.37085">
        <ele>2709.6000976562</ele>
        <time>2014-01-11T12:07:38.000Z</time>
      </trkpt>
      <trkpt lat="45.17945" lon="6.37085">
        <ele>2709.6000976562</ele>
        <time>2014-01-11T12:07:39.000Z</time>
      </trkpt>
      <trkpt lat="45.17945" lon="6.37085">
        <ele>2709.6000976562</ele>
        <time>2014-01-11T12:07:40.000Z</time>
      </trkpt>
      <trkpt lat="45.17945" lon="6.37085">
        <ele>2709.6000976562</ele>
        <time>2014-01-11T12:07:41.000Z</time>
      </trkpt>
      <trkpt lat="45.17945" lon="6.37085">
        <ele>2709.6000976562</ele>
        <time>2014-01-11T12:07:42.000Z</time>
      </trkpt>
      <trkpt lat="45.17945" lon="6.37085">
        <ele>2709.6000976562</ele>
        <time>2014-01-11T12:07:43.000Z</time>
      </trkpt>
      <trkpt lat="45.17945" lon="6.37085">
        <ele>2709.6000976562</ele>
        <time>2014-01-11T12:07:47.000Z</time>
      </trkpt>
      <trkpt lat="45.17945" lon="6.37085">
        <ele>2709.6000976562</ele>
        <time>2014-01-11T12:07:48.000Z</time>
      </trkpt>
      <trkpt lat="45.17945" lon="6.37085">
        <ele>2709.6000976562</ele>
        <time>2014-01-11T12:07:49.000Z</time>
      </trkpt>
      <trkpt lat="45.17945" lon="6.37085">
        <ele>2709.3999023438</ele>
        <time>2014-01-11T12:07:50.000Z</time>
      </trkpt>
      <trkpt lat="45.17945" lon="6.37085">
        <ele>2709.3999023438</ele>
        <time>2014-01-11T12:07:51.000Z</time>
      </trkpt>
      <trkpt lat="45.17945" lon="6.37085">
        <ele>2709.3999023438</ele>
        <time>2014-01-11T12:07:52.000Z</time>
      </trkpt>
      <trkpt lat="45.17945" lon="6.37085">
        <ele>2709.3999023438</ele>
        <time>2014-01-11T12:07:53.000Z</time>
      </trkpt>
      <trkpt lat="45.17945" lon="6.37085">
        <ele>2709.3999023438</ele>
        <time>2014-01-11T12:07:54.000Z</time>
      </trkpt>
      <trkpt lat="45.17945" lon="6.37085">
        <ele>2709.3999023438</ele>
        <time>2014-01-11T12:07:55.000Z</time>
      </trkpt>
      <trkpt lat="45.17945" lon="6.37085">
        <ele>2709.3999023438</ele>
        <time>2014-01-11T12:07:56.000Z</time>
      </trkpt>
      <trkpt lat="45.17945" lon="6.37085">
        <ele>2709.3999023438</ele>
        <time>2014-01-11T12:07:57.000Z</time>
      </trkpt>
      <trkpt lat="45.17945" lon="6.37085">
        <ele>2709.3999023438</ele>
        <time>2014-01-11T12:07:58.000Z</time>
      </trkpt>
      <trkpt lat="45.17945" lon="6.37085">
        <ele>2709.3999023438</ele>
        <time>2014-01-11T12:07:59.000Z</time>
      </trkpt>
      <trkpt lat="45.17945" lon="6.37085">
        <ele>2709.3999023438</ele>
        <time>2014-01-11T12:08:00.000Z</time>
      </trkpt>
      <trkpt lat="45.17945" lon="6.37085">
        <ele>2709.3999023438</ele>
        <time>2014-01-11T12:08:01.000Z</time>
      </trkpt>
      <trkpt lat="45.17945" lon="6.37085">
        <ele>2709.3999023438</ele>
        <time>2014-01-11T12:08:03.000Z</time>
      </trkpt>
      <trkpt lat="45.17945" lon="6.37085">
        <ele>2709.3999023438</ele>
        <time>2014-01-11T12:08:04.000Z</time>
      </trkpt>
      <trkpt lat="45.17944" lon="6.37085">
        <ele>2709.3999023438</ele>
        <time>2014-01-11T12:08:05.000Z</time>
      </trkpt>
      <trkpt lat="45.17944" lon="6.37085">
        <ele>2709.3999023438</ele>
        <time>2014-01-11T12:08:06.000Z</time>
      </trkpt>
      <trkpt lat="45.17944" lon="6.37085">
        <ele>2709.3999023438</ele>
        <time>2014-01-11T12:08:07.000Z</time>
      </trkpt>
      <trkpt lat="45.17944" lon="6.37085">
        <ele>2709.3999023438</ele>
        <time>2014-01-11T12:08:08.000Z</time>
      </trkpt>
      <trkpt lat="45.17944" lon="6.37085">
        <ele>2709.3999023438</ele>
        <time>2014-01-11T12:08:09.000Z</time>
      </trkpt>
      <trkpt lat="45.17944" lon="6.37085">
        <ele>2709.3999023438</ele>
        <time>2014-01-11T12:08:10.000Z</time>
      </trkpt>
      <trkpt lat="45.17944" lon="6.37085">
        <ele>2709.3999023438</ele>
        <time>2014-01-11T12:08:11.000Z</time>
      </trkpt>
      <trkpt lat="45.17944" lon="6.37085">
        <ele>2709.6000976562</ele>
        <time>2014-01-11T12:08:12.000Z</time>
      </trkpt>
      <trkpt lat="45.17944" lon="6.37085">
        <ele>2709.8000488281</ele>
        <time>2014-01-11T12:08:13.000Z</time>
      </trkpt>
      <trkpt lat="45.17944" lon="6.37085">
        <ele>2709.8000488281</ele>
        <time>2014-01-11T12:08:14.000Z</time>
      </trkpt>
      <trkpt lat="45.17944" lon="6.37085">
        <ele>2709.8000488281</ele>
        <time>2014-01-11T12:08:15.000Z</time>
      </trkpt>
      <trkpt lat="45.17944" lon="6.37085">
        <ele>2710</ele>
        <time>2014-01-11T12:08:16.000Z</time>
      </trkpt>
      <trkpt lat="45.17944" lon="6.37085">
        <ele>2710</ele>
        <time>2014-01-11T12:08:17.000Z</time>
      </trkpt>
      <trkpt lat="45.17944" lon="6.37085">
        <ele>2710</ele>
        <time>2014-01-11T12:08:18.000Z</time>
      </trkpt>
      <trkpt lat="45.17944" lon="6.37085">
        <ele>2710</ele>
        <time>2014-01-11T12:08:19.000Z</time>
      </trkpt>
      <trkpt lat="45.17944" lon="6.37085">
        <ele>2710</ele>
        <time>2014-01-11T12:08:20.000Z</time>
      </trkpt>
      <trkpt lat="45.17944" lon="6.37085">
        <ele>2710</ele>
        <time>2014-01-11T12:08:21.000Z</time>
      </trkpt>
      <trkpt lat="45.17944" lon="6.37085">
        <ele>2710</ele>
        <time>2014-01-11T12:08:22.000Z</time>
      </trkpt>
      <trkpt lat="45.17944" lon="6.37085">
        <ele>2710</ele>
        <time>2014-01-11T12:08:23.000Z</time>
      </trkpt>
      <trkpt lat="45.17944" lon="6.37085">
        <ele>2710</ele>
        <time>2014-01-11T12:08:24.000Z</time>
      </trkpt>
      <trkpt lat="45.17944" lon="6.37085">
        <ele>2710</ele>
        <time>2014-01-11T12:08:25.000Z</time>
      </trkpt>
      <trkpt lat="45.17944" lon="6.37085">
        <ele>2710</ele>
        <time>2014-01-11T12:08:26.000Z</time>
      </trkpt>
      <trkpt lat="45.17944" lon="6.37085">
        <ele>2710.1999511719</ele>
        <time>2014-01-11T12:08:27.000Z</time>
      </trkpt>
      <trkpt lat="45.17944" lon="6.37085">
        <ele>2710.1999511719</ele>
        <time>2014-01-11T12:08:28.000Z</time>
      </trkpt>
      <trkpt lat="45.17944" lon="6.37085">
        <ele>2710.1999511719</ele>
        <time>2014-01-11T12:08:29.000Z</time>
      </trkpt>
      <trkpt lat="45.17944" lon="6.37085">
        <ele>2710</ele>
        <time>2014-01-11T12:08:32.000Z</time>
      </trkpt>
      <trkpt lat="45.17944" lon="6.37085">
        <ele>2710</ele>
        <time>2014-01-11T12:08:33.000Z</time>
      </trkpt>
      <trkpt lat="45.17944" lon="6.37085">
        <ele>2710</ele>
        <time>2014-01-11T12:08:34.000Z</time>
      </trkpt>
      <trkpt lat="45.17944" lon="6.37085">
        <ele>2710</ele>
        <time>2014-01-11T12:08:35.000Z</time>
      </trkpt>
      <trkpt lat="45.17944" lon="6.37085">
        <ele>2710.1999511719</ele>
        <time>2014-01-11T12:08:36.000Z</time>
      </trkpt>
      <trkpt lat="45.17944" lon="6.37085">
        <ele>2710.1999511719</ele>
        <time>2014-01-11T12:08:37.000Z</time>
      </trkpt>
      <trkpt lat="45.17944" lon="6.37085">
        <ele>2710.1999511719</ele>
        <time>2014-01-11T12:08:38.000Z</time>
      </trkpt>
      <trkpt lat="45.17944" lon="6.37085">
        <ele>2710.1999511719</ele>
        <time>2014-01-11T12:08:39.000Z</time>
      </trkpt>
      <trkpt lat="45.17944" lon="6.37085">
        <ele>2710.1999511719</ele>
        <time>2014-01-11T12:08:40.000Z</time>
      </trkpt>
      <trkpt lat="45.17944" lon="6.37085">
        <ele>2710.1999511719</ele>
        <time>2014-01-11T12:08:41.000Z</time>
      </trkpt>
      <trkpt lat="45.17944" lon="6.37085">
        <ele>2710.1999511719</ele>
        <time>2014-01-11T12:08:42.000Z</time>
      </trkpt>
      <trkpt lat="45.17944" lon="6.37085">
        <ele>2710.1999511719</ele>
        <time>2014-01-11T12:08:43.000Z</time>
      </trkpt>
      <trkpt lat="45.17944" lon="6.37085">
        <ele>2710.3999023438</ele>
        <time>2014-01-11T12:08:44.000Z</time>
      </trkpt>
      <trkpt lat="45.17945" lon="6.37085">
        <ele>2710.3999023438</ele>
        <time>2014-01-11T12:08:45.000Z</time>
      </trkpt>
      <trkpt lat="45.17945" lon="6.37085">
        <ele>2710.3999023438</ele>
        <time>2014-01-11T12:08:46.000Z</time>
      </trkpt>
      <trkpt lat="45.17945" lon="6.37085">
        <ele>2710.3999023438</ele>
        <time>2014-01-11T12:08:49.000Z</time>
      </trkpt>
      <trkpt lat="45.17945" lon="6.37085">
        <ele>2710.3999023438</ele>
        <time>2014-01-11T12:08:50.000Z</time>
      </trkpt>
      <trkpt lat="45.17945" lon="6.37085">
        <ele>2710.3999023438</ele>
        <time>2014-01-11T12:08:51.000Z</time>
      </trkpt>
      <trkpt lat="45.17945" lon="6.37085">
        <ele>2710.3999023438</ele>
        <time>2014-01-11T12:08:58.000Z</time>
      </trkpt>
      <trkpt lat="45.17945" lon="6.37085">
        <ele>2710.3999023438</ele>
        <time>2014-01-11T12:08:59.000Z</time>
      </trkpt>
      <trkpt lat="45.17945" lon="6.37085">
        <ele>2710.3999023438</ele>
        <time>2014-01-11T12:09:01.000Z</time>
      </trkpt>
      <trkpt lat="45.17945" lon="6.37085">
        <ele>2710.3999023438</ele>
        <time>2014-01-11T12:09:02.000Z</time>
      </trkpt>
      <trkpt lat="45.17945" lon="6.37085">
        <ele>2710.3999023438</ele>
        <time>2014-01-11T12:09:03.000Z</time>
      </trkpt>
      <trkpt lat="45.17945" lon="6.37085">
        <ele>2710.1999511719</ele>
        <time>2014-01-11T12:09:04.000Z</time>
      </trkpt>
      <trkpt lat="45.17945" lon="6.37085">
        <ele>2710.1999511719</ele>
        <time>2014-01-11T12:09:05.000Z</time>
      </trkpt>
      <trkpt lat="45.17945" lon="6.37085">
        <ele>2710.1999511719</ele>
        <time>2014-01-11T12:09:06.000Z</time>
      </trkpt>
      <trkpt lat="45.17945" lon="6.37085">
        <ele>2710.1999511719</ele>
        <time>2014-01-11T12:09:07.000Z</time>
      </trkpt>
      <trkpt lat="45.17945" lon="6.37085">
        <ele>2710.1999511719</ele>
        <time>2014-01-11T12:09:08.000Z</time>
      </trkpt>
      <trkpt lat="45.17945" lon="6.37085">
        <ele>2710.1999511719</ele>
        <time>2014-01-11T12:09:09.000Z</time>
      </trkpt>
      <trkpt lat="45.17945" lon="6.37085">
        <ele>2710.1999511719</ele>
        <time>2014-01-11T12:09:10.000Z</time>
      </trkpt>
      <trkpt lat="45.17945" lon="6.37085">
        <ele>2710.1999511719</ele>
        <time>2014-01-11T12:09:11.000Z</time>
      </trkpt>
      <trkpt lat="45.17945" lon="6.37085">
        <ele>2710.1999511719</ele>
        <time>2014-01-11T12:09:12.000Z</time>
      </trkpt>
      <trkpt lat="45.17945" lon="6.37085">
        <ele>2710.1999511719</ele>
        <time>2014-01-11T12:09:13.000Z</time>
      </trkpt>
      <trkpt lat="45.17945" lon="6.37085">
        <ele>2710.1999511719</ele>
        <time>2014-01-11T12:09:14.000Z</time>
      </trkpt>
      <trkpt lat="45.17945" lon="6.37085">
        <ele>2710.1999511719</ele>
        <time>2014-01-11T12:09:16.000Z</time>
      </trkpt>
      <trkpt lat="45.17945" lon="6.37085">
        <ele>2710.1999511719</ele>
        <time>2014-01-11T12:09:18.000Z</time>
      </trkpt>
      <trkpt lat="45.17945" lon="6.37085">
        <ele>2710.1999511719</ele>
        <time>2014-01-11T12:09:19.000Z</time>
      </trkpt>
      <trkpt lat="45.17945" lon="6.37085">
        <ele>2710.1999511719</ele>
        <time>2014-01-11T12:09:20.000Z</time>
      </trkpt>
      <trkpt lat="45.17945" lon="6.37085">
        <ele>2710.1999511719</ele>
        <time>2014-01-11T12:09:21.000Z</time>
      </trkpt>
      <trkpt lat="45.17945" lon="6.37085">
        <ele>2710</ele>
        <time>2014-01-11T12:09:22.000Z</time>
      </trkpt>
      <trkpt lat="45.17945" lon="6.37085">
        <ele>2710</ele>
        <time>2014-01-11T12:09:23.000Z</time>
      </trkpt>
      <trkpt lat="45.17945" lon="6.37085">
        <ele>2710</ele>
        <time>2014-01-11T12:09:24.000Z</time>
      </trkpt>
      <trkpt lat="45.17946" lon="6.37086">
        <ele>2710</ele>
        <time>2014-01-11T12:09:25.000Z</time>
      </trkpt>
      <trkpt lat="45.17946" lon="6.37086">
        <ele>2710</ele>
        <time>2014-01-11T12:09:26.000Z</time>
      </trkpt>
      <trkpt lat="45.17946" lon="6.37086">
        <ele>2710</ele>
        <time>2014-01-11T12:09:27.000Z</time>
      </trkpt>
      <trkpt lat="45.17946" lon="6.37086">
        <ele>2710</ele>
        <time>2014-01-11T12:09:28.000Z</time>
      </trkpt>
      <trkpt lat="45.17946" lon="6.37086">
        <ele>2710</ele>
        <time>2014-01-11T12:09:31.000Z</time>
      </trkpt>
      <trkpt lat="45.17946" lon="6.37086">
        <ele>2709.8000488281</ele>
        <time>2014-01-11T12:09:32.000Z</time>
      </trkpt>
      <trkpt lat="45.17946" lon="6.37086">
        <ele>2709.8000488281</ele>
        <time>2014-01-11T12:09:33.000Z</time>
      </trkpt>
      <trkpt lat="45.17946" lon="6.37086">
        <ele>2710</ele>
        <time>2014-01-11T12:09:35.000Z</time>
      </trkpt>
      <trkpt lat="45.17946" lon="6.37086">
        <ele>2709.8000488281</ele>
        <time>2014-01-11T12:09:37.000Z</time>
      </trkpt>
      <trkpt lat="45.17946" lon="6.37086">
        <ele>2710</ele>
        <time>2014-01-11T12:09:40.000Z</time>
      </trkpt>
      <trkpt lat="45.17946" lon="6.37086">
        <ele>2709.8000488281</ele>
        <time>2014-01-11T12:09:41.000Z</time>
      </trkpt>
      <trkpt lat="45.17946" lon="6.37086">
        <ele>2709.8000488281</ele>
        <time>2014-01-11T12:09:42.000Z</time>
      </trkpt>
      <trkpt lat="45.17946" lon="6.37086">
        <ele>2709.8000488281</ele>
        <time>2014-01-11T12:09:43.000Z</time>
      </trkpt>
      <trkpt lat="45.17946" lon="6.37086">
        <ele>2709.8000488281</ele>
        <time>2014-01-11T12:09:44.000Z</time>
      </trkpt>
      <trkpt lat="45.17946" lon="6.37086">
        <ele>2709.8000488281</ele>
        <time>2014-01-11T12:09:46.000Z</time>
      </trkpt>
      <trkpt lat="45.17946" lon="6.37086">
        <ele>2709.8000488281</ele>
        <time>2014-01-11T12:09:47.000Z</time>
      </trkpt>
      <trkpt lat="45.17946" lon="6.37086">
        <ele>2709.8000488281</ele>
        <time>2014-01-11T12:09:48.000Z</time>
      </trkpt>
      <trkpt lat="45.17946" lon="6.37086">
        <ele>2709.8000488281</ele>
        <time>2014-01-11T12:09:49.000Z</time>
      </trkpt>
      <trkpt lat="45.17946" lon="6.37086">
        <ele>2709.8000488281</ele>
        <time>2014-01-11T12:09:52.000Z</time>
      </trkpt>
      <trkpt lat="45.17946" lon="6.37086">
        <ele>2709.8000488281</ele>
        <time>2014-01-11T12:09:53.000Z</time>
      </trkpt>
      <trkpt lat="45.17946" lon="6.37086">
        <ele>2710</ele>
        <time>2014-01-11T12:09:54.000Z</time>
      </trkpt>
      <trkpt lat="45.17946" lon="6.37086">
        <ele>2710</ele>
        <time>2014-01-11T12:09:55.000Z</time>
      </trkpt>
      <trkpt lat="45.17946" lon="6.37086">
        <ele>2710</ele>
        <time>2014-01-11T12:09:56.000Z</time>
      </trkpt>
      <trkpt lat="45.17946" lon="6.37086">
        <ele>2710</ele>
        <time>2014-01-11T12:09:57.000Z</time>
      </trkpt>
      <trkpt lat="45.17946" lon="6.37086">
        <ele>2710</ele>
        <time>2014-01-11T12:09:58.000Z</time>
      </trkpt>
      <trkpt lat="45.17946" lon="6.37086">
        <ele>2710</ele>
        <time>2014-01-11T12:09:59.000Z</time>
      </trkpt>
      <trkpt lat="45.17946" lon="6.37086">
        <ele>2710</ele>
        <time>2014-01-11T12:10:00.000Z</time>
      </trkpt>
      <trkpt lat="45.17946" lon="6.37086">
        <ele>2710</ele>
        <time>2014-01-11T12:10:02.000Z</time>
      </trkpt>
      <trkpt lat="45.17946" lon="6.37086">
        <ele>2710</ele>
        <time>2014-01-11T12:10:03.000Z</time>
      </trkpt>
      <trkpt lat="45.17946" lon="6.37086">
        <ele>2710</ele>
        <time>2014-01-11T12:10:04.000Z</time>
      </trkpt>
      <trkpt lat="45.17946" lon="6.37086">
        <ele>2710</ele>
        <time>2014-01-11T12:10:05.000Z</time>
      </trkpt>
      <trkpt lat="45.17946" lon="6.37086">
        <ele>2710</ele>
        <time>2014-01-11T12:10:06.000Z</time>
      </trkpt>
      <trkpt lat="45.17946" lon="6.37086">
        <ele>2710</ele>
        <time>2014-01-11T12:10:07.000Z</time>
      </trkpt>
      <trkpt lat="45.17946" lon="6.37086">
        <ele>2710</ele>
        <time>2014-01-11T12:10:08.000Z</time>
      </trkpt>
      <trkpt lat="45.17946" lon="6.37086">
        <ele>2710</ele>
        <time>2014-01-11T12:10:09.000Z</time>
      </trkpt>
      <trkpt lat="45.17946" lon="6.37086">
        <ele>2710.1999511719</ele>
        <time>2014-01-11T12:10:10.000Z</time>
      </trkpt>
      <trkpt lat="45.17946" lon="6.37086">
        <ele>2710</ele>
        <time>2014-01-11T12:10:11.000Z</time>
      </trkpt>
      <trkpt lat="45.17946" lon="6.37086">
        <ele>2710</ele>
        <time>2014-01-11T12:10:12.000Z</time>
      </trkpt>
      <trkpt lat="45.17946" lon="6.37086">
        <ele>2710</ele>
        <time>2014-01-11T12:10:13.000Z</time>
      </trkpt>
      <trkpt lat="45.17946" lon="6.37086">
        <ele>2710</ele>
        <time>2014-01-11T12:10:14.000Z</time>
      </trkpt>
      <trkpt lat="45.17946" lon="6.37086">
        <ele>2709.8000488281</ele>
        <time>2014-01-11T12:10:15.000Z</time>
      </trkpt>
      <trkpt lat="45.17946" lon="6.37086">
        <ele>2709.8000488281</ele>
        <time>2014-01-11T12:10:16.000Z</time>
      </trkpt>
      <trkpt lat="45.17946" lon="6.37086">
        <ele>2709.8000488281</ele>
        <time>2014-01-11T12:10:17.000Z</time>
      </trkpt>
      <trkpt lat="45.17946" lon="6.37086">
        <ele>2709.8000488281</ele>
        <time>2014-01-11T12:10:18.000Z</time>
      </trkpt>
      <trkpt lat="45.17946" lon="6.37086">
        <ele>2709.8000488281</ele>
        <time>2014-01-11T12:10:19.000Z</time>
      </trkpt>
      <trkpt lat="45.17946" lon="6.37086">
        <ele>2709.8000488281</ele>
        <time>2014-01-11T12:10:20.000Z</time>
      </trkpt>
      <trkpt lat="45.17946" lon="6.37086">
        <ele>2709.8000488281</ele>
        <time>2014-01-11T12:10:21.000Z</time>
      </trkpt>
      <trkpt lat="45.17946" lon="6.37086">
        <ele>2709.8000488281</ele>
        <time>2014-01-11T12:10:22.000Z</time>
      </trkpt>
      <trkpt lat="45.17946" lon="6.37086">
        <ele>2709.6000976562</ele>
        <time>2014-01-11T12:10:23.000Z</time>
      </trkpt>
      <trkpt lat="45.17946" lon="6.37086">
        <ele>2709.6000976562</ele>
        <time>2014-01-11T12:10:25.000Z</time>
      </trkpt>
      <trkpt lat="45.17946" lon="6.37086">
        <ele>2709.8000488281</ele>
        <time>2014-01-11T12:10:26.000Z</time>
      </trkpt>
      <trkpt lat="45.17946" lon="6.37086">
        <ele>2709.8000488281</ele>
        <time>2014-01-11T12:10:27.000Z</time>
      </trkpt>
      <trkpt lat="45.17946" lon="6.37086">
        <ele>2709.8000488281</ele>
        <time>2014-01-11T12:10:28.000Z</time>
      </trkpt>
      <trkpt lat="45.17946" lon="6.37086">
        <ele>2709.8000488281</ele>
        <time>2014-01-11T12:10:29.000Z</time>
      </trkpt>
      <trkpt lat="45.17946" lon="6.37086">
        <ele>2709.8000488281</ele>
        <time>2014-01-11T12:10:30.000Z</time>
      </trkpt>
      <trkpt lat="45.17946" lon="6.37086">
        <ele>2710</ele>
        <time>2014-01-11T12:10:31.000Z</time>
      </trkpt>
      <trkpt lat="45.17946" lon="6.37086">
        <ele>2710</ele>
        <time>2014-01-11T12:10:32.000Z</time>
      </trkpt>
      <trkpt lat="45.17946" lon="6.37086">
        <ele>2710</ele>
        <time>2014-01-11T12:10:34.000Z</time>
      </trkpt>
      <trkpt lat="45.17946" lon="6.37086">
        <ele>2709.8000488281</ele>
        <time>2014-01-11T12:10:35.000Z</time>
      </trkpt>
      <trkpt lat="45.17946" lon="6.37086">
        <ele>2709.8000488281</ele>
        <time>2014-01-11T12:10:36.000Z</time>
      </trkpt>
      <trkpt lat="45.17946" lon="6.37086">
        <ele>2709.8000488281</ele>
        <time>2014-01-11T12:10:37.000Z</time>
      </trkpt>
      <trkpt lat="45.17946" lon="6.37086">
        <ele>2709.8000488281</ele>
        <time>2014-01-11T12:10:38.000Z</time>
      </trkpt>
      <trkpt lat="45.17946" lon="6.37086">
        <ele>2709.8000488281</ele>
        <time>2014-01-11T12:10:39.000Z</time>
      </trkpt>
      <trkpt lat="45.17946" lon="6.37086">
        <ele>2709.8000488281</ele>
        <time>2014-01-11T12:10:40.000Z</time>
      </trkpt>
      <trkpt lat="45.17946" lon="6.37086">
        <ele>2709.8000488281</ele>
        <time>2014-01-11T12:10:41.000Z</time>
      </trkpt>
      <trkpt lat="45.17946" lon="6.37086">
        <ele>2709.8000488281</ele>
        <time>2014-01-11T12:10:42.000Z</time>
      </trkpt>
      <trkpt lat="45.17946" lon="6.37086">
        <ele>2709.6000976562</ele>
        <time>2014-01-11T12:10:43.000Z</time>
      </trkpt>
      <trkpt lat="45.17946" lon="6.37086">
        <ele>2709.6000976562</ele>
        <time>2014-01-11T12:10:44.000Z</time>
      </trkpt>
      <trkpt lat="45.17946" lon="6.37087">
        <ele>2709.6000976562</ele>
        <time>2014-01-11T12:10:45.000Z</time>
      </trkpt>
      <trkpt lat="45.17946" lon="6.37087">
        <ele>2709.3999023438</ele>
        <time>2014-01-11T12:10:46.000Z</time>
      </trkpt>
      <trkpt lat="45.17946" lon="6.37087">
        <ele>2709.1999511719</ele>
        <time>2014-01-11T12:10:47.000Z</time>
      </trkpt>
      <trkpt lat="45.17946" lon="6.37087">
        <ele>2709.1999511719</ele>
        <time>2014-01-11T12:10:48.000Z</time>
      </trkpt>
      <trkpt lat="45.17946" lon="6.37087">
        <ele>2709</ele>
        <time>2014-01-11T12:10:49.000Z</time>
      </trkpt>
      <trkpt lat="45.17946" lon="6.37087">
        <ele>2709</ele>
        <time>2014-01-11T12:10:50.000Z</time>
      </trkpt>
      <trkpt lat="45.17946" lon="6.37087">
        <ele>2709</ele>
        <time>2014-01-11T12:10:51.000Z</time>
      </trkpt>
      <trkpt lat="45.17946" lon="6.37087">
        <ele>2709</ele>
        <time>2014-01-11T12:10:52.000Z</time>
      </trkpt>
      <trkpt lat="45.17945" lon="6.37085">
        <ele>2709</ele>
        <time>2014-01-11T12:10:53.000Z</time>
      </trkpt>
      <trkpt lat="45.17945" lon="6.37085">
        <ele>2709</ele>
        <time>2014-01-11T12:10:54.000Z</time>
      </trkpt>
      <trkpt lat="45.17945" lon="6.37085">
        <ele>2708.8000488281</ele>
        <time>2014-01-11T12:10:55.000Z</time>
      </trkpt>
      <trkpt lat="45.17945" lon="6.37085">
        <ele>2708.8000488281</ele>
        <time>2014-01-11T12:10:56.000Z</time>
      </trkpt>
      <trkpt lat="45.17945" lon="6.37085">
        <ele>2708.8000488281</ele>
        <time>2014-01-11T12:10:57.000Z</time>
      </trkpt>
      <trkpt lat="45.17945" lon="6.37085">
        <ele>2708.8000488281</ele>
        <time>2014-01-11T12:10:58.000Z</time>
      </trkpt>
      <trkpt lat="45.17945" lon="6.37085">
        <ele>2708.8000488281</ele>
        <time>2014-01-11T12:10:59.000Z</time>
      </trkpt>
      <trkpt lat="45.17945" lon="6.37085">
        <ele>2708.8000488281</ele>
        <time>2014-01-11T12:11:01.000Z</time>
      </trkpt>
      <trkpt lat="45.17945" lon="6.37085">
        <ele>2708.8000488281</ele>
        <time>2014-01-11T12:11:02.000Z</time>
      </trkpt>
      <trkpt lat="45.17945" lon="6.37085">
        <ele>2708.8000488281</ele>
        <time>2014-01-11T12:11:03.000Z</time>
      </trkpt>
      <trkpt lat="45.17945" lon="6.37085">
        <ele>2708.8000488281</ele>
        <time>2014-01-11T12:11:04.000Z</time>
      </trkpt>
      <trkpt lat="45.17945" lon="6.37085">
        <ele>2708.8000488281</ele>
        <time>2014-01-11T12:11:05.000Z</time>
      </trkpt>
      <trkpt lat="45.17945" lon="6.37085">
        <ele>2708.8000488281</ele>
        <time>2014-01-11T12:11:06.000Z</time>
      </trkpt>
      <trkpt lat="45.17945" lon="6.37085">
        <ele>2709</ele>
        <time>2014-01-11T12:11:07.000Z</time>
      </trkpt>
      <trkpt lat="45.17945" lon="6.37086">
        <ele>2709</ele>
        <time>2014-01-11T12:11:08.000Z</time>
      </trkpt>
      <trkpt lat="45.17945" lon="6.37086">
        <ele>2709</ele>
        <time>2014-01-11T12:11:09.000Z</time>
      </trkpt>
      <trkpt lat="45.17945" lon="6.37086">
        <ele>2709</ele>
        <time>2014-01-11T12:11:10.000Z</time>
      </trkpt>
      <trkpt lat="45.17945" lon="6.37086">
        <ele>2709</ele>
        <time>2014-01-11T12:11:11.000Z</time>
      </trkpt>
      <trkpt lat="45.17945" lon="6.37086">
        <ele>2709</ele>
        <time>2014-01-11T12:11:12.000Z</time>
      </trkpt>
      <trkpt lat="45.17945" lon="6.37086">
        <ele>2709</ele>
        <time>2014-01-11T12:11:13.000Z</time>
      </trkpt>
      <trkpt lat="45.17945" lon="6.37086">
        <ele>2709</ele>
        <time>2014-01-11T12:11:17.000Z</time>
      </trkpt>
      <trkpt lat="45.17945" lon="6.37086">
        <ele>2709</ele>
        <time>2014-01-11T12:11:20.000Z</time>
      </trkpt>
      <trkpt lat="45.17945" lon="6.37086">
        <ele>2709</ele>
        <time>2014-01-11T12:11:21.000Z</time>
      </trkpt>
      <trkpt lat="45.17945" lon="6.37086">
        <ele>2709</ele>
        <time>2014-01-11T12:11:22.000Z</time>
      </trkpt>
      <trkpt lat="45.17945" lon="6.37086">
        <ele>2709</ele>
        <time>2014-01-11T12:11:23.000Z</time>
      </trkpt>
      <trkpt lat="45.17945" lon="6.37086">
        <ele>2709</ele>
        <time>2014-01-11T12:11:24.000Z</time>
      </trkpt>
      <trkpt lat="45.17945" lon="6.37086">
        <ele>2709</ele>
        <time>2014-01-11T12:11:25.000Z</time>
      </trkpt>
      <trkpt lat="45.17945" lon="6.37086">
        <ele>2709</ele>
        <time>2014-01-11T12:11:27.000Z</time>
      </trkpt>
      <trkpt lat="45.17945" lon="6.37086">
        <ele>2709</ele>
        <time>2014-01-11T12:11:31.000Z</time>
      </trkpt>
      <trkpt lat="45.17945" lon="6.37086">
        <ele>2709</ele>
        <time>2014-01-11T12:11:32.000Z</time>
      </trkpt>
      <trkpt lat="45.17944" lon="6.37085">
        <ele>2709</ele>
        <time>2014-01-11T12:11:33.000Z</time>
      </trkpt>
      <trkpt lat="45.17944" lon="6.37085">
        <ele>2709</ele>
        <time>2014-01-11T12:11:34.000Z</time>
      </trkpt>
      <trkpt lat="45.17944" lon="6.37085">
        <ele>2709.1999511719</ele>
        <time>2014-01-11T12:11:35.000Z</time>
      </trkpt>
      <trkpt lat="45.17944" lon="6.37085">
        <ele>2709.1999511719</ele>
        <time>2014-01-11T12:11:36.000Z</time>
      </trkpt>
      <trkpt lat="45.17944" lon="6.37084">
        <ele>2709.1999511719</ele>
        <time>2014-01-11T12:11:39.000Z</time>
      </trkpt>
      <trkpt lat="45.17944" lon="6.37084">
        <ele>2709</ele>
        <time>2014-01-11T12:11:40.000Z</time>
      </trkpt>
      <trkpt lat="45.17944" lon="6.37084">
        <ele>2709.1999511719</ele>
        <time>2014-01-11T12:11:43.000Z</time>
      </trkpt>
      <trkpt lat="45.17944" lon="6.37084">
        <ele>2709.1999511719</ele>
        <time>2014-01-11T12:11:44.000Z</time>
      </trkpt>
      <trkpt lat="45.17944" lon="6.37084">
        <ele>2709.1999511719</ele>
        <time>2014-01-11T12:11:45.000Z</time>
      </trkpt>
      <trkpt lat="45.17944" lon="6.37084">
        <ele>2709.1999511719</ele>
        <time>2014-01-11T12:11:46.000Z</time>
      </trkpt>
      <trkpt lat="45.17944" lon="6.37084">
        <ele>2709.1999511719</ele>
        <time>2014-01-11T12:11:47.000Z</time>
      </trkpt>
      <trkpt lat="45.17944" lon="6.37084">
        <ele>2709.1999511719</ele>
        <time>2014-01-11T12:11:48.000Z</time>
      </trkpt>
      <trkpt lat="45.17944" lon="6.37084">
        <ele>2709.1999511719</ele>
        <time>2014-01-11T12:11:49.000Z</time>
      </trkpt>
      <trkpt lat="45.17944" lon="6.37084">
        <ele>2709.1999511719</ele>
        <time>2014-01-11T12:11:50.000Z</time>
      </trkpt>
      <trkpt lat="45.17944" lon="6.37084">
        <ele>2709.1999511719</ele>
        <time>2014-01-11T12:11:51.000Z</time>
      </trkpt>
      <trkpt lat="45.17944" lon="6.37084">
        <ele>2709.1999511719</ele>
        <time>2014-01-11T12:11:53.000Z</time>
      </trkpt>
      <trkpt lat="45.17944" lon="6.37084">
        <ele>2709.1999511719</ele>
        <time>2014-01-11T12:11:54.000Z</time>
      </trkpt>
      <trkpt lat="45.17944" lon="6.37084">
        <ele>2709.1999511719</ele>
        <time>2014-01-11T12:11:55.000Z</time>
      </trkpt>
      <trkpt lat="45.17944" lon="6.37083">
        <ele>2709.1999511719</ele>
        <time>2014-01-11T12:11:56.000Z</time>
      </trkpt>
      <trkpt lat="45.17944" lon="6.37083">
        <ele>2709.1999511719</ele>
        <time>2014-01-11T12:11:59.000Z</time>
      </trkpt>
      <trkpt lat="45.17944" lon="6.37083">
        <ele>2709.1999511719</ele>
        <time>2014-01-11T12:12:00.000Z</time>
      </trkpt>
      <trkpt lat="45.17944" lon="6.37083">
        <ele>2709.1999511719</ele>
        <time>2014-01-11T12:12:01.000Z</time>
      </trkpt>
      <trkpt lat="45.17944" lon="6.37083">
        <ele>2709.1999511719</ele>
        <time>2014-01-11T12:12:02.000Z</time>
      </trkpt>
      <trkpt lat="45.17944" lon="6.37083">
        <ele>2709.1999511719</ele>
        <time>2014-01-11T12:12:03.000Z</time>
      </trkpt>
      <trkpt lat="45.17944" lon="6.37083">
        <ele>2709.1999511719</ele>
        <time>2014-01-11T12:12:04.000Z</time>
      </trkpt>
      <trkpt lat="45.17944" lon="6.37083">
        <ele>2709.1999511719</ele>
        <time>2014-01-11T12:12:05.000Z</time>
      </trkpt>
      <trkpt lat="45.17944" lon="6.37083">
        <ele>2709.1999511719</ele>
        <time>2014-01-11T12:12:06.000Z</time>
      </trkpt>
      <trkpt lat="45.17944" lon="6.37083">
        <ele>2709.1999511719</ele>
        <time>2014-01-11T12:12:07.000Z</time>
      </trkpt>
      <trkpt lat="45.17944" lon="6.37083">
        <ele>2709.1999511719</ele>
        <time>2014-01-11T12:12:08.000Z</time>
      </trkpt>
      <trkpt lat="45.17944" lon="6.37083">
        <ele>2709.1999511719</ele>
        <time>2014-01-11T12:12:10.000Z</time>
      </trkpt>
      <trkpt lat="45.17944" lon="6.37083">
        <ele>2709.1999511719</ele>
        <time>2014-01-11T12:12:11.000Z</time>
      </trkpt>
      <trkpt lat="45.17944" lon="6.37082">
        <ele>2709.1999511719</ele>
        <time>2014-01-11T12:12:12.000Z</time>
      </trkpt>
      <trkpt lat="45.17944" lon="6.37082">
        <ele>2709</ele>
        <time>2014-01-11T12:12:13.000Z</time>
      </trkpt>
      <trkpt lat="45.17944" lon="6.37082">
        <ele>2709</ele>
        <time>2014-01-11T12:12:14.000Z</time>
      </trkpt>
      <trkpt lat="45.17944" lon="6.37082">
        <ele>2709</ele>
        <time>2014-01-11T12:12:15.000Z</time>
      </trkpt>
      <trkpt lat="45.17944" lon="6.37082">
        <ele>2709</ele>
        <time>2014-01-11T12:12:16.000Z</time>
      </trkpt>
      <trkpt lat="45.17944" lon="6.37082">
        <ele>2709</ele>
        <time>2014-01-11T12:12:21.000Z</time>
      </trkpt>
      <trkpt lat="45.17944" lon="6.37082">
        <ele>2709</ele>
        <time>2014-01-11T12:12:24.000Z</time>
      </trkpt>
      <trkpt lat="45.17944" lon="6.37082">
        <ele>2709</ele>
        <time>2014-01-11T12:12:25.000Z</time>
      </trkpt>
      <trkpt lat="45.17944" lon="6.37082">
        <ele>2709</ele>
        <time>2014-01-11T12:12:26.000Z</time>
      </trkpt>
      <trkpt lat="45.17944" lon="6.37082">
        <ele>2709</ele>
        <time>2014-01-11T12:12:27.000Z</time>
      </trkpt>
      <trkpt lat="45.17944" lon="6.37082">
        <ele>2709</ele>
        <time>2014-01-11T12:12:30.000Z</time>
      </trkpt>
      <trkpt lat="45.17944" lon="6.37082">
        <ele>2709</ele>
        <time>2014-01-11T12:12:32.000Z</time>
      </trkpt>
      <trkpt lat="45.17944" lon="6.37082">
        <ele>2709</ele>
        <time>2014-01-11T12:12:33.000Z</time>
      </trkpt>
      <trkpt lat="45.17944" lon="6.37082">
        <ele>2709</ele>
        <time>2014-01-11T12:12:34.000Z</time>
      </trkpt>
      <trkpt lat="45.17944" lon="6.37082">
        <ele>2709</ele>
        <time>2014-01-11T12:12:35.000Z</time>
      </trkpt>
      <trkpt lat="45.17944" lon="6.37082">
        <ele>2709</ele>
        <time>2014-01-11T12:12:36.000Z</time>
      </trkpt>
      <trkpt lat="45.17944" lon="6.37082">
        <ele>2709</ele>
        <time>2014-01-11T12:12:37.000Z</time>
      </trkpt>
      <trkpt lat="45.17944" lon="6.37082">
        <ele>2709</ele>
        <time>2014-01-11T12:12:40.000Z</time>
      </trkpt>
      <trkpt lat="45.17944" lon="6.37082">
        <ele>2709</ele>
        <time>2014-01-11T12:12:41.000Z</time>
      </trkpt>
      <trkpt lat="45.17944" lon="6.37082">
        <ele>2709</ele>
        <time>2014-01-11T12:12:42.000Z</time>
      </trkpt>
      <trkpt lat="45.17944" lon="6.37082">
        <ele>2709</ele>
        <time>2014-01-11T12:12:43.000Z</time>
      </trkpt>
      <trkpt lat="45.17944" lon="6.37082">
        <ele>2709</ele>
        <time>2014-01-11T12:12:46.000Z</time>
      </trkpt>
      <trkpt lat="45.17944" lon="6.37082">
        <ele>2709</ele>
        <time>2014-01-11T12:12:48.000Z</time>
      </trkpt>
      <trkpt lat="45.17944" lon="6.37085">
        <ele>2709</ele>
        <time>2014-01-11T12:12:49.000Z</time>
      </trkpt>
      <trkpt lat="45.17944" lon="6.37085">
        <ele>2709</ele>
        <time>2014-01-11T12:12:50.000Z</time>
      </trkpt>
      <trkpt lat="45.17944" lon="6.37085">
        <ele>2709</ele>
        <time>2014-01-11T12:12:51.000Z</time>
      </trkpt>
      <trkpt lat="45.17944" lon="6.37085">
        <ele>2709</ele>
        <time>2014-01-11T12:12:52.000Z</time>
      </trkpt>
      <trkpt lat="45.17944" lon="6.37085">
        <ele>2709</ele>
        <time>2014-01-11T12:12:53.000Z</time>
      </trkpt>
      <trkpt lat="45.17944" lon="6.37085">
        <ele>2708.8000488281</ele>
        <time>2014-01-11T12:12:54.000Z</time>
      </trkpt>
      <trkpt lat="45.17944" lon="6.37085">
        <ele>2708.8000488281</ele>
        <time>2014-01-11T12:12:55.000Z</time>
      </trkpt>
      <trkpt lat="45.17944" lon="6.37085">
        <ele>2708.8000488281</ele>
        <time>2014-01-11T12:12:56.000Z</time>
      </trkpt>
      <trkpt lat="45.17944" lon="6.37085">
        <ele>2708.8000488281</ele>
        <time>2014-01-11T12:12:57.000Z</time>
      </trkpt>
      <trkpt lat="45.17944" lon="6.37085">
        <ele>2708.8000488281</ele>
        <time>2014-01-11T12:12:58.000Z</time>
      </trkpt>
      <trkpt lat="45.17941" lon="6.37083">
        <ele>2708.8000488281</ele>
        <time>2014-01-11T12:13:02.000Z</time>
      </trkpt>
      <trkpt lat="45.17938" lon="6.37081">
        <ele>2708.8000488281</ele>
        <time>2014-01-11T12:13:03.000Z</time>
      </trkpt>
      <trkpt lat="45.17934" lon="6.37079">
        <ele>2708.8000488281</ele>
        <time>2014-01-11T12:13:04.000Z</time>
      </trkpt>
      <trkpt lat="45.1793" lon="6.37077">
        <ele>2708.8000488281</ele>
        <time>2014-01-11T12:13:05.000Z</time>
      </trkpt>
      <trkpt lat="45.17928" lon="6.37076">
        <ele>2708.6000976562</ele>
        <time>2014-01-11T12:13:06.000Z</time>
      </trkpt>
      <trkpt lat="45.17925" lon="6.37074">
        <ele>2708.1999511719</ele>
        <time>2014-01-11T12:13:07.000Z</time>
      </trkpt>
      <trkpt lat="45.17925" lon="6.3707">
        <ele>2707.8000488281</ele>
        <time>2014-01-11T12:13:08.000Z</time>
      </trkpt>
      <trkpt lat="45.17927" lon="6.37068">
        <ele>2707</ele>
        <time>2014-01-11T12:13:09.000Z</time>
      </trkpt>
      <trkpt lat="45.1793" lon="6.37064">
        <ele>2706</ele>
        <time>2014-01-11T12:13:10.000Z</time>
      </trkpt>
      <trkpt lat="45.1793" lon="6.3706">
        <ele>2704</ele>
        <time>2014-01-11T12:13:11.000Z</time>
      </trkpt>
      <trkpt lat="45.1793" lon="6.37056">
        <ele>2703</ele>
        <time>2014-01-11T12:13:12.000Z</time>
      </trkpt>
      <trkpt lat="45.1793" lon="6.37051">
        <ele>2702</ele>
        <time>2014-01-11T12:13:13.000Z</time>
      </trkpt>
      <trkpt lat="45.1793" lon="6.37046">
        <ele>2700.8000488281</ele>
        <time>2014-01-11T12:13:14.000Z</time>
      </trkpt>
      <trkpt lat="45.1793" lon="6.37042">
        <ele>2699.1999511719</ele>
        <time>2014-01-11T12:13:15.000Z</time>
      </trkpt>
      <trkpt lat="45.1793" lon="6.37037">
        <ele>2697.3999023438</ele>
        <time>2014-01-11T12:13:16.000Z</time>
      </trkpt>
      <trkpt lat="45.1793" lon="6.37031">
        <ele>2695.8000488281</ele>
        <time>2014-01-11T12:13:17.000Z</time>
      </trkpt>
      <trkpt lat="45.1793" lon="6.37026">
        <ele>2694</ele>
        <time>2014-01-11T12:13:18.000Z</time>
      </trkpt>
      <trkpt lat="45.17932" lon="6.37021">
        <ele>2692.1999511719</ele>
        <time>2014-01-11T12:13:19.000Z</time>
      </trkpt>
      <trkpt lat="45.17932" lon="6.37016">
        <ele>2690.1999511719</ele>
        <time>2014-01-11T12:13:20.000Z</time>
      </trkpt>
      <trkpt lat="45.17933" lon="6.37011">
        <ele>2688.1999511719</ele>
        <time>2014-01-11T12:13:21.000Z</time>
      </trkpt>
      <trkpt lat="45.17935" lon="6.37005">
        <ele>2686.1999511719</ele>
        <time>2014-01-11T12:13:22.000Z</time>
      </trkpt>
      <trkpt lat="45.17935" lon="6.36999">
        <ele>2684</ele>
        <time>2014-01-11T12:13:23.000Z</time>
      </trkpt>
      <trkpt lat="45.17934" lon="6.36994">
        <ele>2682</ele>
        <time>2014-01-11T12:13:24.000Z</time>
      </trkpt>
      <trkpt lat="45.17933" lon="6.36989">
        <ele>2679.8000488281</ele>
        <time>2014-01-11T12:13:25.000Z</time>
      </trkpt>
      <trkpt lat="45.1793" lon="6.36984">
        <ele>2677.8000488281</ele>
        <time>2014-01-11T12:13:26.000Z</time>
      </trkpt>
      <trkpt lat="45.17928" lon="6.36979">
        <ele>2675.6000976562</ele>
        <time>2014-01-11T12:13:27.000Z</time>
      </trkpt>
      <trkpt lat="45.17926" lon="6.36974">
        <ele>2673.3999023438</ele>
        <time>2014-01-11T12:13:28.000Z</time>
      </trkpt>
      <trkpt lat="45.17924" lon="6.36969">
        <ele>2671.1999511719</ele>
        <time>2014-01-11T12:13:29.000Z</time>
      </trkpt>
      <trkpt lat="45.17923" lon="6.36965">
        <ele>2669.1999511719</ele>
        <time>2014-01-11T12:13:30.000Z</time>
      </trkpt>
      <trkpt lat="45.17923" lon="6.3696">
        <ele>2667.1999511719</ele>
        <time>2014-01-11T12:13:31.000Z</time>
      </trkpt>
      <trkpt lat="45.17923" lon="6.36955">
        <ele>2665.1999511719</ele>
        <time>2014-01-11T12:13:32.000Z</time>
      </trkpt>
      <trkpt lat="45.17922" lon="6.3695">
        <ele>2663.1999511719</ele>
        <time>2014-01-11T12:13:33.000Z</time>
      </trkpt>
      <trkpt lat="45.17923" lon="6.36945">
        <ele>2661.1999511719</ele>
        <time>2014-01-11T12:13:34.000Z</time>
      </trkpt>
      <trkpt lat="45.17922" lon="6.3694">
        <ele>2657.1999511719</ele>
        <time>2014-01-11T12:13:35.000Z</time>
      </trkpt>
      <trkpt lat="45.17921" lon="6.36935">
        <ele>2655.1999511719</ele>
        <time>2014-01-11T12:13:36.000Z</time>
      </trkpt>
      <trkpt lat="45.1792" lon="6.3693">
        <ele>2653.1999511719</ele>
        <time>2014-01-11T12:13:37.000Z</time>
      </trkpt>
      <trkpt lat="45.1792" lon="6.36925">
        <ele>2651.1999511719</ele>
        <time>2014-01-11T12:13:38.000Z</time>
      </trkpt>
      <trkpt lat="45.1792" lon="6.36919">
        <ele>2649.1999511719</ele>
        <time>2014-01-11T12:13:39.000Z</time>
      </trkpt>
      <trkpt lat="45.17919" lon="6.36913">
        <ele>2647</ele>
        <time>2014-01-11T12:13:40.000Z</time>
      </trkpt>
      <trkpt lat="45.17917" lon="6.36909">
        <ele>2645</ele>
        <time>2014-01-11T12:13:41.000Z</time>
      </trkpt>
      <trkpt lat="45.17916" lon="6.36904">
        <ele>2642.8000488281</ele>
        <time>2014-01-11T12:13:42.000Z</time>
      </trkpt>
      <trkpt lat="45.17914" lon="6.36899">
        <ele>2640.6000976562</ele>
        <time>2014-01-11T12:13:43.000Z</time>
      </trkpt>
      <trkpt lat="45.17913" lon="6.36894">
        <ele>2638.6000976562</ele>
        <time>2014-01-11T12:13:44.000Z</time>
      </trkpt>
      <trkpt lat="45.17912" lon="6.36889">
        <ele>2636.6000976562</ele>
        <time>2014-01-11T12:13:45.000Z</time>
      </trkpt>
      <trkpt lat="45.1791" lon="6.36884">
        <ele>2634.6000976562</ele>
        <time>2014-01-11T12:13:46.000Z</time>
      </trkpt>
      <trkpt lat="45.1791" lon="6.36879">
        <ele>2632.6000976562</ele>
        <time>2014-01-11T12:13:47.000Z</time>
      </trkpt>
      <trkpt lat="45.1791" lon="6.36874">
        <ele>2630.6000976562</ele>
        <time>2014-01-11T12:13:48.000Z</time>
      </trkpt>
      <trkpt lat="45.17911" lon="6.36868">
        <ele>2628.6000976562</ele>
        <time>2014-01-11T12:13:49.000Z</time>
      </trkpt>
      <trkpt lat="45.17909" lon="6.36863">
        <ele>2626.6000976562</ele>
        <time>2014-01-11T12:13:50.000Z</time>
      </trkpt>
      <trkpt lat="45.17908" lon="6.36859">
        <ele>2624.6000976562</ele>
        <time>2014-01-11T12:13:51.000Z</time>
      </trkpt>
      <trkpt lat="45.17907" lon="6.36854">
        <ele>2622.8000488281</ele>
        <time>2014-01-11T12:13:52.000Z</time>
      </trkpt>
      <trkpt lat="45.17906" lon="6.3685">
        <ele>2620.6000976562</ele>
        <time>2014-01-11T12:13:53.000Z</time>
      </trkpt>
      <trkpt lat="45.17906" lon="6.36845">
        <ele>2618.6000976562</ele>
        <time>2014-01-11T12:13:54.000Z</time>
      </trkpt>
      <trkpt lat="45.17905" lon="6.3684">
        <ele>2616.6000976562</ele>
        <time>2014-01-11T12:13:55.000Z</time>
      </trkpt>
      <trkpt lat="45.17904" lon="6.36835">
        <ele>2614.8000488281</ele>
        <time>2014-01-11T12:13:56.000Z</time>
      </trkpt>
      <trkpt lat="45.17903" lon="6.3683">
        <ele>2612.8000488281</ele>
        <time>2014-01-11T12:13:57.000Z</time>
      </trkpt>
      <trkpt lat="45.17903" lon="6.36825">
        <ele>2611</ele>
        <time>2014-01-11T12:13:58.000Z</time>
      </trkpt>
      <trkpt lat="45.17903" lon="6.36819">
        <ele>2607.1999511719</ele>
        <time>2014-01-11T12:13:59.000Z</time>
      </trkpt>
      <trkpt lat="45.17901" lon="6.36815">
        <ele>2605.1999511719</ele>
        <time>2014-01-11T12:14:00.000Z</time>
      </trkpt>
      <trkpt lat="45.17898" lon="6.36811">
        <ele>2603.1999511719</ele>
        <time>2014-01-11T12:14:01.000Z</time>
      </trkpt>
      <trkpt lat="45.17897" lon="6.36806">
        <ele>2601</ele>
        <time>2014-01-11T12:14:02.000Z</time>
      </trkpt>
      <trkpt lat="45.17896" lon="6.36802">
        <ele>2599</ele>
        <time>2014-01-11T12:14:03.000Z</time>
      </trkpt>
      <trkpt lat="45.17895" lon="6.36798">
        <ele>2597</ele>
        <time>2014-01-11T12:14:04.000Z</time>
      </trkpt>
      <trkpt lat="45.17893" lon="6.36794">
        <ele>2594.8000488281</ele>
        <time>2014-01-11T12:14:05.000Z</time>
      </trkpt>
      <trkpt lat="45.17892" lon="6.3679">
        <ele>2592.8000488281</ele>
        <time>2014-01-11T12:14:06.000Z</time>
      </trkpt>
      <trkpt lat="45.17894" lon="6.36785">
        <ele>2591</ele>
        <time>2014-01-11T12:14:07.000Z</time>
      </trkpt>
      <trkpt lat="45.17894" lon="6.3678">
        <ele>2589</ele>
        <time>2014-01-11T12:14:08.000Z</time>
      </trkpt>
      <trkpt lat="45.17894" lon="6.36775">
        <ele>2587.1999511719</ele>
        <time>2014-01-11T12:14:09.000Z</time>
      </trkpt>
      <trkpt lat="45.17895" lon="6.36769">
        <ele>2585.1999511719</ele>
        <time>2014-01-11T12:14:10.000Z</time>
      </trkpt>
      <trkpt lat="45.17895" lon="6.36763">
        <ele>2583.3999023438</ele>
        <time>2014-01-11T12:14:11.000Z</time>
      </trkpt>
      <trkpt lat="45.17895" lon="6.36758">
        <ele>2581.3999023438</ele>
        <time>2014-01-11T12:14:12.000Z</time>
      </trkpt>
      <trkpt lat="45.17895" lon="6.36752">
        <ele>2579.1999511719</ele>
        <time>2014-01-11T12:14:13.000Z</time>
      </trkpt>
      <trkpt lat="45.17896" lon="6.36746">
        <ele>2577.1999511719</ele>
        <time>2014-01-11T12:14:14.000Z</time>
      </trkpt>
      <trkpt lat="45.17896" lon="6.36741">
        <ele>2575</ele>
        <time>2014-01-11T12:14:15.000Z</time>
      </trkpt>
      <trkpt lat="45.17896" lon="6.36738">
        <ele>2572.8000488281</ele>
        <time>2014-01-11T12:14:16.000Z</time>
      </trkpt>
      <trkpt lat="45.17897" lon="6.36736">
        <ele>2570.6000976562</ele>
        <time>2014-01-11T12:14:17.000Z</time>
      </trkpt>
      <trkpt lat="45.17897" lon="6.36736">
        <ele>2568.6000976562</ele>
        <time>2014-01-11T12:14:18.000Z</time>
      </trkpt>
      <trkpt lat="45.17896" lon="6.36737">
        <ele>2566.6000976562</ele>
        <time>2014-01-11T12:14:19.000Z</time>
      </trkpt>
      <trkpt lat="45.17896" lon="6.36737">
        <ele>2564.6000976562</ele>
        <time>2014-01-11T12:14:20.000Z</time>
      </trkpt>
      <trkpt lat="45.17896" lon="6.36737">
        <ele>2563.1999511719</ele>
        <time>2014-01-11T12:14:21.000Z</time>
      </trkpt>
      <trkpt lat="45.17896" lon="6.36737">
        <ele>2562.1999511719</ele>
        <time>2014-01-11T12:14:22.000Z</time>
      </trkpt>
      <trkpt lat="45.17896" lon="6.36737">
        <ele>2561.1999511719</ele>
        <time>2014-01-11T12:14:23.000Z</time>
      </trkpt>
      <trkpt lat="45.17896" lon="6.36737">
        <ele>2561</ele>
        <time>2014-01-11T12:14:24.000Z</time>
      </trkpt>
      <trkpt lat="45.17896" lon="6.36737">
        <ele>2561</ele>
        <time>2014-01-11T12:14:25.000Z</time>
      </trkpt>
      <trkpt lat="45.17896" lon="6.36737">
        <ele>2560.8000488281</ele>
        <time>2014-01-11T12:14:26.000Z</time>
      </trkpt>
      <trkpt lat="45.17896" lon="6.36737">
        <ele>2560.8000488281</ele>
        <time>2014-01-11T12:14:27.000Z</time>
      </trkpt>
      <trkpt lat="45.17896" lon="6.36737">
        <ele>2560.8000488281</ele>
        <time>2014-01-11T12:14:28.000Z</time>
      </trkpt>
      <trkpt lat="45.17896" lon="6.36737">
        <ele>2560.8000488281</ele>
        <time>2014-01-11T12:14:29.000Z</time>
      </trkpt>
      <trkpt lat="45.17896" lon="6.36737">
        <ele>2560.8000488281</ele>
        <time>2014-01-11T12:14:30.000Z</time>
      </trkpt>
      <trkpt lat="45.17896" lon="6.36737">
        <ele>2560.8000488281</ele>
        <time>2014-01-11T12:14:33.000Z</time>
      </trkpt>
      <trkpt lat="45.17896" lon="6.36737">
        <ele>2560.8000488281</ele>
        <time>2014-01-11T12:14:34.000Z</time>
      </trkpt>
      <trkpt lat="45.17896" lon="6.36737">
        <ele>2560.6000976562</ele>
        <time>2014-01-11T12:14:35.000Z</time>
      </trkpt>
      <trkpt lat="45.17896" lon="6.36737">
        <ele>2560.6000976562</ele>
        <time>2014-01-11T12:14:39.000Z</time>
      </trkpt>
      <trkpt lat="45.17896" lon="6.36737">
        <ele>2560.6000976562</ele>
        <time>2014-01-11T12:14:40.000Z</time>
      </trkpt>
      <trkpt lat="45.17896" lon="6.36737">
        <ele>2560.6000976562</ele>
        <time>2014-01-11T12:14:41.000Z</time>
      </trkpt>
      <trkpt lat="45.17896" lon="6.36737">
        <ele>2560.6000976562</ele>
        <time>2014-01-11T12:14:42.000Z</time>
      </trkpt>
      <trkpt lat="45.17896" lon="6.36737">
        <ele>2560.6000976562</ele>
        <time>2014-01-11T12:14:43.000Z</time>
      </trkpt>
      <trkpt lat="45.17896" lon="6.36737">
        <ele>2560.6000976562</ele>
        <time>2014-01-11T12:14:44.000Z</time>
      </trkpt>
      <trkpt lat="45.17896" lon="6.36737">
        <ele>2560.6000976562</ele>
        <time>2014-01-11T12:14:45.000Z</time>
      </trkpt>
      <trkpt lat="45.17896" lon="6.36737">
        <ele>2560.6000976562</ele>
        <time>2014-01-11T12:14:48.000Z</time>
      </trkpt>
      <trkpt lat="45.17896" lon="6.36737">
        <ele>2560.6000976562</ele>
        <time>2014-01-11T12:14:49.000Z</time>
      </trkpt>
      <trkpt lat="45.17896" lon="6.36737">
        <ele>2560.6000976562</ele>
        <time>2014-01-11T12:14:50.000Z</time>
      </trkpt>
      <trkpt lat="45.17896" lon="6.36737">
        <ele>2560.6000976562</ele>
        <time>2014-01-11T12:14:51.000Z</time>
      </trkpt>
      <trkpt lat="45.17896" lon="6.36737">
        <ele>2560.6000976562</ele>
        <time>2014-01-11T12:14:52.000Z</time>
      </trkpt>
      <trkpt lat="45.17896" lon="6.36737">
        <ele>2560.6000976562</ele>
        <time>2014-01-11T12:14:54.000Z</time>
      </trkpt>
      <trkpt lat="45.17896" lon="6.36737">
        <ele>2560.6000976562</ele>
        <time>2014-01-11T12:14:55.000Z</time>
      </trkpt>
      <trkpt lat="45.17896" lon="6.36737">
        <ele>2560.6000976562</ele>
        <time>2014-01-11T12:14:56.000Z</time>
      </trkpt>
      <trkpt lat="45.17896" lon="6.36737">
        <ele>2560.6000976562</ele>
        <time>2014-01-11T12:14:57.000Z</time>
      </trkpt>
      <trkpt lat="45.17896" lon="6.36737">
        <ele>2560.6000976562</ele>
        <time>2014-01-11T12:14:58.000Z</time>
      </trkpt>
      <trkpt lat="45.17896" lon="6.36739">
        <ele>2560.6000976562</ele>
        <time>2014-01-11T12:14:59.000Z</time>
      </trkpt>
      <trkpt lat="45.17896" lon="6.36739">
        <ele>2560.6000976562</ele>
        <time>2014-01-11T12:15:02.000Z</time>
      </trkpt>
      <trkpt lat="45.17896" lon="6.36739">
        <ele>2560.6000976562</ele>
        <time>2014-01-11T12:15:03.000Z</time>
      </trkpt>
      <trkpt lat="45.17896" lon="6.36739">
        <ele>2560.6000976562</ele>
        <time>2014-01-11T12:15:04.000Z</time>
      </trkpt>
      <trkpt lat="45.17896" lon="6.36739">
        <ele>2560.6000976562</ele>
        <time>2014-01-11T12:15:05.000Z</time>
      </trkpt>
      <trkpt lat="45.17896" lon="6.36739">
        <ele>2560.6000976562</ele>
        <time>2014-01-11T12:15:08.000Z</time>
      </trkpt>
      <trkpt lat="45.17896" lon="6.36739">
        <ele>2560.6000976562</ele>
        <time>2014-01-11T12:15:09.000Z</time>
      </trkpt>
      <trkpt lat="45.17896" lon="6.36739">
        <ele>2560.6000976562</ele>
        <time>2014-01-11T12:15:10.000Z</time>
      </trkpt>
      <trkpt lat="45.17896" lon="6.36739">
        <ele>2560.6000976562</ele>
        <time>2014-01-11T12:15:15.000Z</time>
      </trkpt>
      <trkpt lat="45.17896" lon="6.36739">
        <ele>2560.6000976562</ele>
        <time>2014-01-11T12:15:18.000Z</time>
      </trkpt>
      <trkpt lat="45.17896" lon="6.36739">
        <ele>2560.6000976562</ele>
        <time>2014-01-11T12:15:20.000Z</time>
      </trkpt>
      <trkpt lat="45.17896" lon="6.36739">
        <ele>2560.6000976562</ele>
        <time>2014-01-11T12:15:21.000Z</time>
      </trkpt>
      <trkpt lat="45.17896" lon="6.36739">
        <ele>2560.3999023438</ele>
        <time>2014-01-11T12:15:22.000Z</time>
      </trkpt>
      <trkpt lat="45.17896" lon="6.36739">
        <ele>2560.3999023438</ele>
        <time>2014-01-11T12:15:23.000Z</time>
      </trkpt>
      <trkpt lat="45.17896" lon="6.36739">
        <ele>2560.3999023438</ele>
        <time>2014-01-11T12:15:24.000Z</time>
      </trkpt>
      <trkpt lat="45.17896" lon="6.36739">
        <ele>2560.3999023438</ele>
        <time>2014-01-11T12:15:26.000Z</time>
      </trkpt>
      <trkpt lat="45.17896" lon="6.36739">
        <ele>2560.3999023438</ele>
        <time>2014-01-11T12:15:30.000Z</time>
      </trkpt>
      <trkpt lat="45.17896" lon="6.36739">
        <ele>2560.3999023438</ele>
        <time>2014-01-11T12:15:31.000Z</time>
      </trkpt>
      <trkpt lat="45.17896" lon="6.36739">
        <ele>2560.6000976562</ele>
        <time>2014-01-11T12:15:32.000Z</time>
      </trkpt>
      <trkpt lat="45.17896" lon="6.36739">
        <ele>2560.6000976562</ele>
        <time>2014-01-11T12:15:33.000Z</time>
      </trkpt>
      <trkpt lat="45.17896" lon="6.36739">
        <ele>2560.6000976562</ele>
        <time>2014-01-11T12:15:34.000Z</time>
      </trkpt>
      <trkpt lat="45.17896" lon="6.36739">
        <ele>2560.6000976562</ele>
        <time>2014-01-11T12:15:35.000Z</time>
      </trkpt>
      <trkpt lat="45.17896" lon="6.36739">
        <ele>2560.6000976562</ele>
        <time>2014-01-11T12:15:36.000Z</time>
      </trkpt>
      <trkpt lat="45.17896" lon="6.36739">
        <ele>2560.6000976562</ele>
        <time>2014-01-11T12:15:37.000Z</time>
      </trkpt>
      <trkpt lat="45.17896" lon="6.36739">
        <ele>2560.3999023438</ele>
        <time>2014-01-11T12:15:38.000Z</time>
      </trkpt>
      <trkpt lat="45.17896" lon="6.36741">
        <ele>2560.3999023438</ele>
        <time>2014-01-11T12:15:39.000Z</time>
      </trkpt>
      <trkpt lat="45.17896" lon="6.36741">
        <ele>2560.3999023438</ele>
        <time>2014-01-11T12:15:40.000Z</time>
      </trkpt>
      <trkpt lat="45.17896" lon="6.36741">
        <ele>2560.3999023438</ele>
        <time>2014-01-11T12:15:41.000Z</time>
      </trkpt>
      <trkpt lat="45.17896" lon="6.36741">
        <ele>2560.3999023438</ele>
        <time>2014-01-11T12:15:45.000Z</time>
      </trkpt>
      <trkpt lat="45.17896" lon="6.36741">
        <ele>2560.3999023438</ele>
        <time>2014-01-11T12:15:50.000Z</time>
      </trkpt>
      <trkpt lat="45.17896" lon="6.36741">
        <ele>2560.3999023438</ele>
        <time>2014-01-11T12:15:51.000Z</time>
      </trkpt>
      <trkpt lat="45.17896" lon="6.36741">
        <ele>2560.3999023438</ele>
        <time>2014-01-11T12:15:52.000Z</time>
      </trkpt>
      <trkpt lat="45.17896" lon="6.36741">
        <ele>2560.3999023438</ele>
        <time>2014-01-11T12:15:53.000Z</time>
      </trkpt>
      <trkpt lat="45.17896" lon="6.36741">
        <ele>2560.3999023438</ele>
        <time>2014-01-11T12:15:54.000Z</time>
      </trkpt>
      <trkpt lat="45.17896" lon="6.36741">
        <ele>2560.3999023438</ele>
        <time>2014-01-11T12:15:55.000Z</time>
      </trkpt>
      <trkpt lat="45.17896" lon="6.36741">
        <ele>2560.3999023438</ele>
        <time>2014-01-11T12:15:59.000Z</time>
      </trkpt>
      <trkpt lat="45.17896" lon="6.36741">
        <ele>2560.3999023438</ele>
        <time>2014-01-11T12:16:01.000Z</time>
      </trkpt>
      <trkpt lat="45.17896" lon="6.36741">
        <ele>2560.3999023438</ele>
        <time>2014-01-11T12:16:02.000Z</time>
      </trkpt>
      <trkpt lat="45.17896" lon="6.36741">
        <ele>2560.3999023438</ele>
        <time>2014-01-11T12:16:03.000Z</time>
      </trkpt>
      <trkpt lat="45.17896" lon="6.36741">
        <ele>2560.3999023438</ele>
        <time>2014-01-11T12:16:04.000Z</time>
      </trkpt>
      <trkpt lat="45.17896" lon="6.36741">
        <ele>2560.3999023438</ele>
        <time>2014-01-11T12:16:05.000Z</time>
      </trkpt>
      <trkpt lat="45.17896" lon="6.36741">
        <ele>2560.3999023438</ele>
        <time>2014-01-11T12:16:06.000Z</time>
      </trkpt>
      <trkpt lat="45.17896" lon="6.36741">
        <ele>2560.3999023438</ele>
        <time>2014-01-11T12:16:07.000Z</time>
      </trkpt>
      <trkpt lat="45.17896" lon="6.36741">
        <ele>2560.3999023438</ele>
        <time>2014-01-11T12:16:08.000Z</time>
      </trkpt>
      <trkpt lat="45.17896" lon="6.36741">
        <ele>2560.3999023438</ele>
        <time>2014-01-11T12:16:09.000Z</time>
      </trkpt>
      <trkpt lat="45.17896" lon="6.36741">
        <ele>2560.6000976562</ele>
        <time>2014-01-11T12:16:10.000Z</time>
      </trkpt>
      <trkpt lat="45.17896" lon="6.36741">
        <ele>2560.6000976562</ele>
        <time>2014-01-11T12:16:11.000Z</time>
      </trkpt>
      <trkpt lat="45.17896" lon="6.36741">
        <ele>2560.6000976562</ele>
        <time>2014-01-11T12:16:13.000Z</time>
      </trkpt>
      <trkpt lat="45.17896" lon="6.36741">
        <ele>2560.3999023438</ele>
        <time>2014-01-11T12:16:16.000Z</time>
      </trkpt>
      <trkpt lat="45.17896" lon="6.36741">
        <ele>2560.3999023438</ele>
        <time>2014-01-11T12:16:17.000Z</time>
      </trkpt>
      <trkpt lat="45.17897" lon="6.36746">
        <ele>2560.3999023438</ele>
        <time>2014-01-11T12:16:25.000Z</time>
      </trkpt>
      <trkpt lat="45.17897" lon="6.36746">
        <ele>2560.3999023438</ele>
        <time>2014-01-11T12:16:31.000Z</time>
      </trkpt>
      <trkpt lat="45.17897" lon="6.36746">
        <ele>2560.3999023438</ele>
        <time>2014-01-11T12:16:32.000Z</time>
      </trkpt>
      <trkpt lat="45.17897" lon="6.36746">
        <ele>2560.3999023438</ele>
        <time>2014-01-11T12:16:33.000Z</time>
      </trkpt>
      <trkpt lat="45.17897" lon="6.36746">
        <ele>2560.3999023438</ele>
        <time>2014-01-11T12:16:34.000Z</time>
      </trkpt>
      <trkpt lat="45.17897" lon="6.36746">
        <ele>2560.3999023438</ele>
        <time>2014-01-11T12:16:35.000Z</time>
      </trkpt>
      <trkpt lat="45.17897" lon="6.36746">
        <ele>2560.3999023438</ele>
        <time>2014-01-11T12:16:36.000Z</time>
      </trkpt>
      <trkpt lat="45.17897" lon="6.36746">
        <ele>2560.3999023438</ele>
        <time>2014-01-11T12:16:37.000Z</time>
      </trkpt>
      <trkpt lat="45.17897" lon="6.36746">
        <ele>2560.3999023438</ele>
        <time>2014-01-11T12:16:43.000Z</time>
      </trkpt>
      <trkpt lat="45.17897" lon="6.36746">
        <ele>2560.3999023438</ele>
        <time>2014-01-11T12:16:44.000Z</time>
      </trkpt>
      <trkpt lat="45.17897" lon="6.36746">
        <ele>2560.3999023438</ele>
        <time>2014-01-11T12:16:45.000Z</time>
      </trkpt>
      <trkpt lat="45.17897" lon="6.36746">
        <ele>2560.3999023438</ele>
        <time>2014-01-11T12:16:46.000Z</time>
      </trkpt>
      <trkpt lat="45.17897" lon="6.36746">
        <ele>2560.3999023438</ele>
        <time>2014-01-11T12:16:47.000Z</time>
      </trkpt>
      <trkpt lat="45.17897" lon="6.36746">
        <ele>2560.3999023438</ele>
        <time>2014-01-11T12:16:48.000Z</time>
      </trkpt>
      <trkpt lat="45.17897" lon="6.36746">
        <ele>2560.3999023438</ele>
        <time>2014-01-11T12:16:49.000Z</time>
      </trkpt>
      <trkpt lat="45.17897" lon="6.36746">
        <ele>2560.3999023438</ele>
        <time>2014-01-11T12:16:50.000Z</time>
      </trkpt>
      <trkpt lat="45.17897" lon="6.36746">
        <ele>2560.3999023438</ele>
        <time>2014-01-11T12:16:51.000Z</time>
      </trkpt>
      <trkpt lat="45.17897" lon="6.36746">
        <ele>2560.3999023438</ele>
        <time>2014-01-11T12:16:52.000Z</time>
      </trkpt>
      <trkpt lat="45.17897" lon="6.36746">
        <ele>2560.3999023438</ele>
        <time>2014-01-11T12:16:53.000Z</time>
      </trkpt>
      <trkpt lat="45.17897" lon="6.36746">
        <ele>2560.3999023438</ele>
        <time>2014-01-11T12:16:56.000Z</time>
      </trkpt>
      <trkpt lat="45.17897" lon="6.36746">
        <ele>2560.3999023438</ele>
        <time>2014-01-11T12:16:57.000Z</time>
      </trkpt>
      <trkpt lat="45.17897" lon="6.36746">
        <ele>2560.3999023438</ele>
        <time>2014-01-11T12:16:58.000Z</time>
      </trkpt>
      <trkpt lat="45.17898" lon="6.36746">
        <ele>2560.3999023438</ele>
        <time>2014-01-11T12:17:04.000Z</time>
      </trkpt>
      <trkpt lat="45.17898" lon="6.36746">
        <ele>2560.3999023438</ele>
        <time>2014-01-11T12:17:05.000Z</time>
      </trkpt>
      <trkpt lat="45.17898" lon="6.36746">
        <ele>2560.3999023438</ele>
        <time>2014-01-11T12:17:06.000Z</time>
      </trkpt>
      <trkpt lat="45.17898" lon="6.36746">
        <ele>2560.3999023438</ele>
        <time>2014-01-11T12:17:07.000Z</time>
      </trkpt>
      <trkpt lat="45.17898" lon="6.36746">
        <ele>2560.3999023438</ele>
        <time>2014-01-11T12:17:08.000Z</time>
      </trkpt>
      <trkpt lat="45.17898" lon="6.36746">
        <ele>2560.3999023438</ele>
        <time>2014-01-11T12:17:10.000Z</time>
      </trkpt>
      <trkpt lat="45.17898" lon="6.36746">
        <ele>2560.3999023438</ele>
        <time>2014-01-11T12:17:11.000Z</time>
      </trkpt>
      <trkpt lat="45.17898" lon="6.36746">
        <ele>2560.3999023438</ele>
        <time>2014-01-11T12:17:12.000Z</time>
      </trkpt>
      <trkpt lat="45.17898" lon="6.36746">
        <ele>2560.3999023438</ele>
        <time>2014-01-11T12:17:13.000Z</time>
      </trkpt>
      <trkpt lat="45.17898" lon="6.36747">
        <ele>2560.3999023438</ele>
        <time>2014-01-11T12:17:14.000Z</time>
      </trkpt>
      <trkpt lat="45.17898" lon="6.36747">
        <ele>2560.3999023438</ele>
        <time>2014-01-11T12:17:15.000Z</time>
      </trkpt>
      <trkpt lat="45.17898" lon="6.36743">
        <ele>2560.1999511719</ele>
        <time>2014-01-11T12:17:16.000Z</time>
      </trkpt>
      <trkpt lat="45.17901" lon="6.3674">
        <ele>2560.1999511719</ele>
        <time>2014-01-11T12:17:17.000Z</time>
      </trkpt>
      <trkpt lat="45.17905" lon="6.36738">
        <ele>2560.1999511719</ele>
        <time>2014-01-11T12:17:18.000Z</time>
      </trkpt>
      <trkpt lat="45.17909" lon="6.36735">
        <ele>2559.8000488281</ele>
        <time>2014-01-11T12:17:19.000Z</time>
      </trkpt>
      <trkpt lat="45.17911" lon="6.36729">
        <ele>2559.3999023438</ele>
        <time>2014-01-11T12:17:20.000Z</time>
      </trkpt>
      <trkpt lat="45.17914" lon="6.36721">
        <ele>2558.6000976562</ele>
        <time>2014-01-11T12:17:21.000Z</time>
      </trkpt>
      <trkpt lat="45.17918" lon="6.36714">
        <ele>2557.8000488281</ele>
        <time>2014-01-11T12:17:22.000Z</time>
      </trkpt>
      <trkpt lat="45.17923" lon="6.36708">
        <ele>2556.8000488281</ele>
        <time>2014-01-11T12:17:23.000Z</time>
      </trkpt>
      <trkpt lat="45.17927" lon="6.36704">
        <ele>2555.3999023438</ele>
        <time>2014-01-11T12:17:24.000Z</time>
      </trkpt>
      <trkpt lat="45.17933" lon="6.367">
        <ele>2553.8000488281</ele>
        <time>2014-01-11T12:17:25.000Z</time>
      </trkpt>
      <trkpt lat="45.17938" lon="6.36696">
        <ele>2552</ele>
        <time>2014-01-11T12:17:26.000Z</time>
      </trkpt>
      <trkpt lat="45.17943" lon="6.36693">
        <ele>2550.6000976562</ele>
        <time>2014-01-11T12:17:27.000Z</time>
      </trkpt>
      <trkpt lat="45.17947" lon="6.36689">
        <ele>2549.3999023438</ele>
        <time>2014-01-11T12:17:28.000Z</time>
      </trkpt>
      <trkpt lat="45.17951" lon="6.36687">
        <ele>2548.6000976562</ele>
        <time>2014-01-11T12:17:29.000Z</time>
      </trkpt>
      <trkpt lat="45.17954" lon="6.36685">
        <ele>2548</ele>
        <time>2014-01-11T12:17:30.000Z</time>
      </trkpt>
      <trkpt lat="45.17956" lon="6.36684">
        <ele>2547.3999023438</ele>
        <time>2014-01-11T12:17:31.000Z</time>
      </trkpt>
      <trkpt lat="45.17959" lon="6.36683">
        <ele>2546.6000976562</ele>
        <time>2014-01-11T12:17:32.000Z</time>
      </trkpt>
      <trkpt lat="45.1796" lon="6.36682">
        <ele>2546.1999511719</ele>
        <time>2014-01-11T12:17:33.000Z</time>
      </trkpt>
      <trkpt lat="45.17962" lon="6.36682">
        <ele>2545.8000488281</ele>
        <time>2014-01-11T12:17:34.000Z</time>
      </trkpt>
      <trkpt lat="45.17963" lon="6.36681">
        <ele>2545.3999023438</ele>
        <time>2014-01-11T12:17:35.000Z</time>
      </trkpt>
      <trkpt lat="45.17964" lon="6.3668">
        <ele>2545.1999511719</ele>
        <time>2014-01-11T12:17:36.000Z</time>
      </trkpt>
      <trkpt lat="45.17965" lon="6.3668">
        <ele>2545.1999511719</ele>
        <time>2014-01-11T12:17:37.000Z</time>
      </trkpt>
      <trkpt lat="45.17965" lon="6.3668">
        <ele>2545.1999511719</ele>
        <time>2014-01-11T12:17:38.000Z</time>
      </trkpt>
      <trkpt lat="45.17966" lon="6.3668">
        <ele>2545</ele>
        <time>2014-01-11T12:17:39.000Z</time>
      </trkpt>
      <trkpt lat="45.17967" lon="6.3668">
        <ele>2545</ele>
        <time>2014-01-11T12:17:40.000Z</time>
      </trkpt>
      <trkpt lat="45.17967" lon="6.3668">
        <ele>2545</ele>
        <time>2014-01-11T12:17:41.000Z</time>
      </trkpt>
      <trkpt lat="45.17968" lon="6.3668">
        <ele>2545</ele>
        <time>2014-01-11T12:17:42.000Z</time>
      </trkpt>
      <trkpt lat="45.17968" lon="6.3668">
        <ele>2545</ele>
        <time>2014-01-11T12:17:43.000Z</time>
      </trkpt>
      <trkpt lat="45.17969" lon="6.36678">
        <ele>2545</ele>
        <time>2014-01-11T12:17:44.000Z</time>
      </trkpt>
      <trkpt lat="45.17971" lon="6.36676">
        <ele>2544.8000488281</ele>
        <time>2014-01-11T12:17:45.000Z</time>
      </trkpt>
      <trkpt lat="45.17974" lon="6.36674">
        <ele>2544.8000488281</ele>
        <time>2014-01-11T12:17:46.000Z</time>
      </trkpt>
      <trkpt lat="45.17976" lon="6.36671">
        <ele>2544.8000488281</ele>
        <time>2014-01-11T12:17:47.000Z</time>
      </trkpt>
      <trkpt lat="45.17979" lon="6.36668">
        <ele>2544.6000976562</ele>
        <time>2014-01-11T12:17:48.000Z</time>
      </trkpt>
      <trkpt lat="45.17981" lon="6.36666">
        <ele>2544.3999023438</ele>
        <time>2014-01-11T12:17:49.000Z</time>
      </trkpt>
      <trkpt lat="45.17982" lon="6.36665">
        <ele>2544.1999511719</ele>
        <time>2014-01-11T12:17:50.000Z</time>
      </trkpt>
      <trkpt lat="45.17984" lon="6.36663">
        <ele>2543.8000488281</ele>
        <time>2014-01-11T12:17:51.000Z</time>
      </trkpt>
      <trkpt lat="45.17986" lon="6.36661">
        <ele>2543.3999023438</ele>
        <time>2014-01-11T12:17:52.000Z</time>
      </trkpt>
      <trkpt lat="45.17989" lon="6.36658">
        <ele>2543.1999511719</ele>
        <time>2014-01-11T12:17:53.000Z</time>
      </trkpt>
      <trkpt lat="45.17992" lon="6.36655">
        <ele>2543</ele>
        <time>2014-01-11T12:17:54.000Z</time>
      </trkpt>
      <trkpt lat="45.17995" lon="6.36652">
        <ele>2542.8000488281</ele>
        <time>2014-01-11T12:17:55.000Z</time>
      </trkpt>
      <trkpt lat="45.17998" lon="6.36648">
        <ele>2542.6000976562</ele>
        <time>2014-01-11T12:17:56.000Z</time>
      </trkpt>
      <trkpt lat="45.18001" lon="6.36645">
        <ele>2542.1999511719</ele>
        <time>2014-01-11T12:17:57.000Z</time>
      </trkpt>
      <trkpt lat="45.18004" lon="6.36643">
        <ele>2541.8000488281</ele>
        <time>2014-01-11T12:17:58.000Z</time>
      </trkpt>
      <trkpt lat="45.18006" lon="6.36641">
        <ele>2541</ele>
        <time>2014-01-11T12:17:59.000Z</time>
      </trkpt>
      <trkpt lat="45.18008" lon="6.36639">
        <ele>2540.3999023438</ele>
        <time>2014-01-11T12:18:00.000Z</time>
      </trkpt>
      <trkpt lat="45.1801" lon="6.36637">
        <ele>2540</ele>
        <time>2014-01-11T12:18:01.000Z</time>
      </trkpt>
      <trkpt lat="45.18013" lon="6.36634">
        <ele>2539.8000488281</ele>
        <time>2014-01-11T12:18:02.000Z</time>
      </trkpt>
      <trkpt lat="45.18015" lon="6.36632">
        <ele>2539.6000976562</ele>
        <time>2014-01-11T12:18:03.000Z</time>
      </trkpt>
      <trkpt lat="45.18017" lon="6.36629">
        <ele>2539.1999511719</ele>
        <time>2014-01-11T12:18:04.000Z</time>
      </trkpt>
      <trkpt lat="45.18019" lon="6.36628">
        <ele>2539</ele>
        <time>2014-01-11T12:18:05.000Z</time>
      </trkpt>
      <trkpt lat="45.1802" lon="6.36627">
        <ele>2538.8000488281</ele>
        <time>2014-01-11T12:18:06.000Z</time>
      </trkpt>
      <trkpt lat="45.18021" lon="6.36627">
        <ele>2538.6000976562</ele>
        <time>2014-01-11T12:18:07.000Z</time>
      </trkpt>
      <trkpt lat="45.18022" lon="6.36627">
        <ele>2538.3999023438</ele>
        <time>2014-01-11T12:18:08.000Z</time>
      </trkpt>
      <trkpt lat="45.18023" lon="6.36627">
        <ele>2538</ele>
        <time>2014-01-11T12:18:09.000Z</time>
      </trkpt>
      <trkpt lat="45.18026" lon="6.36625">
        <ele>2537.8000488281</ele>
        <time>2014-01-11T12:18:10.000Z</time>
      </trkpt>
      <trkpt lat="45.18031" lon="6.36622">
        <ele>2537.6000976562</ele>
        <time>2014-01-11T12:18:11.000Z</time>
      </trkpt>
      <trkpt lat="45.18035" lon="6.36617">
        <ele>2537.6000976562</ele>
        <time>2014-01-11T12:18:12.000Z</time>
      </trkpt>
      <trkpt lat="45.18038" lon="6.36612">
        <ele>2537.1999511719</ele>
        <time>2014-01-11T12:18:13.000Z</time>
      </trkpt>
      <trkpt lat="45.1804" lon="6.36605">
        <ele>2536.8000488281</ele>
        <time>2014-01-11T12:18:14.000Z</time>
      </trkpt>
      <trkpt lat="45.18042" lon="6.366">
        <ele>2536</ele>
        <time>2014-01-11T12:18:15.000Z</time>
      </trkpt>
      <trkpt lat="45.18042" lon="6.36595">
        <ele>2535.3999023438</ele>
        <time>2014-01-11T12:18:16.000Z</time>
      </trkpt>
      <trkpt lat="45.18043" lon="6.3659">
        <ele>2534.6000976562</ele>
        <time>2014-01-11T12:18:17.000Z</time>
      </trkpt>
      <trkpt lat="45.18044" lon="6.36587">
        <ele>2534</ele>
        <time>2014-01-11T12:18:18.000Z</time>
      </trkpt>
      <trkpt lat="45.18045" lon="6.36583">
        <ele>2533.3999023438</ele>
        <time>2014-01-11T12:18:19.000Z</time>
      </trkpt>
      <trkpt lat="45.18045" lon="6.36581">
        <ele>2533</ele>
        <time>2014-01-11T12:18:20.000Z</time>
      </trkpt>
      <trkpt lat="45.18046" lon="6.36578">
        <ele>2532.8000488281</ele>
        <time>2014-01-11T12:18:21.000Z</time>
      </trkpt>
      <trkpt lat="45.18046" lon="6.36576">
        <ele>2532.6000976562</ele>
        <time>2014-01-11T12:18:22.000Z</time>
      </trkpt>
      <trkpt lat="45.18047" lon="6.36575">
        <ele>2532.1999511719</ele>
        <time>2014-01-11T12:18:23.000Z</time>
      </trkpt>
      <trkpt lat="45.18048" lon="6.36573">
        <ele>2532</ele>
        <time>2014-01-11T12:18:25.000Z</time>
      </trkpt>
      <trkpt lat="45.18048" lon="6.36573">
        <ele>2531.8000488281</ele>
        <time>2014-01-11T12:18:26.000Z</time>
      </trkpt>
      <trkpt lat="45.18049" lon="6.36573">
        <ele>2531.6000976562</ele>
        <time>2014-01-11T12:18:27.000Z</time>
      </trkpt>
      <trkpt lat="45.18049" lon="6.36573">
        <ele>2531.3999023438</ele>
        <time>2014-01-11T12:18:28.000Z</time>
      </trkpt>
      <trkpt lat="45.18049" lon="6.36573">
        <ele>2531.1999511719</ele>
        <time>2014-01-11T12:18:29.000Z</time>
      </trkpt>
      <trkpt lat="45.18049" lon="6.36573">
        <ele>2531</ele>
        <time>2014-01-11T12:18:30.000Z</time>
      </trkpt>
      <trkpt lat="45.18049" lon="6.36573">
        <ele>2531</ele>
        <time>2014-01-11T12:18:31.000Z</time>
      </trkpt>
      <trkpt lat="45.18049" lon="6.36573">
        <ele>2531</ele>
        <time>2014-01-11T12:18:32.000Z</time>
      </trkpt>
      <trkpt lat="45.18049" lon="6.36573">
        <ele>2530.8000488281</ele>
        <time>2014-01-11T12:18:33.000Z</time>
      </trkpt>
      <trkpt lat="45.18049" lon="6.36573">
        <ele>2530.8000488281</ele>
        <time>2014-01-11T12:18:34.000Z</time>
      </trkpt>
      <trkpt lat="45.18049" lon="6.36573">
        <ele>2530.8000488281</ele>
        <time>2014-01-11T12:18:35.000Z</time>
      </trkpt>
      <trkpt lat="45.18049" lon="6.36573">
        <ele>2530.8000488281</ele>
        <time>2014-01-11T12:18:37.000Z</time>
      </trkpt>
      <trkpt lat="45.18049" lon="6.36573">
        <ele>2530.8000488281</ele>
        <time>2014-01-11T12:18:41.000Z</time>
      </trkpt>
      <trkpt lat="45.1805" lon="6.36572">
        <ele>2530.8000488281</ele>
        <time>2014-01-11T12:18:42.000Z</time>
      </trkpt>
      <trkpt lat="45.18051" lon="6.36571">
        <ele>2530.8000488281</ele>
        <time>2014-01-11T12:18:43.000Z</time>
      </trkpt>
      <trkpt lat="45.18055" lon="6.36569">
        <ele>2530.8000488281</ele>
        <time>2014-01-11T12:18:44.000Z</time>
      </trkpt>
      <trkpt lat="45.18058" lon="6.36564">
        <ele>2530.6000976562</ele>
        <time>2014-01-11T12:18:45.000Z</time>
      </trkpt>
      <trkpt lat="45.18061" lon="6.36559">
        <ele>2530.6000976562</ele>
        <time>2014-01-11T12:18:46.000Z</time>
      </trkpt>
      <trkpt lat="45.18063" lon="6.36552">
        <ele>2530.3999023438</ele>
        <time>2014-01-11T12:18:47.000Z</time>
      </trkpt>
      <trkpt lat="45.18065" lon="6.36545">
        <ele>2529.3999023438</ele>
        <time>2014-01-11T12:18:48.000Z</time>
      </trkpt>
      <trkpt lat="45.18067" lon="6.36539">
        <ele>2528.8000488281</ele>
        <time>2014-01-11T12:18:49.000Z</time>
      </trkpt>
      <trkpt lat="45.18068" lon="6.36535">
        <ele>2528.1999511719</ele>
        <time>2014-01-11T12:18:50.000Z</time>
      </trkpt>
      <trkpt lat="45.18069" lon="6.36532">
        <ele>2527.3999023438</ele>
        <time>2014-01-11T12:18:51.000Z</time>
      </trkpt>
      <trkpt lat="45.1807" lon="6.3653">
        <ele>2527</ele>
        <time>2014-01-11T12:18:52.000Z</time>
      </trkpt>
      <trkpt lat="45.1807" lon="6.36526">
        <ele>2526.8000488281</ele>
        <time>2014-01-11T12:18:53.000Z</time>
      </trkpt>
      <trkpt lat="45.18072" lon="6.36523">
        <ele>2526.6000976562</ele>
        <time>2014-01-11T12:18:54.000Z</time>
      </trkpt>
      <trkpt lat="45.18073" lon="6.36519">
        <ele>2526.3999023438</ele>
        <time>2014-01-11T12:18:55.000Z</time>
      </trkpt>
      <trkpt lat="45.18075" lon="6.36515">
        <ele>2526.3999023438</ele>
        <time>2014-01-11T12:18:56.000Z</time>
      </trkpt>
      <trkpt lat="45.18076" lon="6.36511">
        <ele>2526.1999511719</ele>
        <time>2014-01-11T12:18:57.000Z</time>
      </trkpt>
      <trkpt lat="45.18078" lon="6.36507">
        <ele>2526</ele>
        <time>2014-01-11T12:18:58.000Z</time>
      </trkpt>
      <trkpt lat="45.1808" lon="6.36503">
        <ele>2525.8000488281</ele>
        <time>2014-01-11T12:18:59.000Z</time>
      </trkpt>
      <trkpt lat="45.18082" lon="6.365">
        <ele>2525.3999023438</ele>
        <time>2014-01-11T12:19:00.000Z</time>
      </trkpt>
      <trkpt lat="45.18084" lon="6.36497">
        <ele>2525</ele>
        <time>2014-01-11T12:19:01.000Z</time>
      </trkpt>
      <trkpt lat="45.18086" lon="6.36493">
        <ele>2524.8000488281</ele>
        <time>2014-01-11T12:19:02.000Z</time>
      </trkpt>
      <trkpt lat="45.18088" lon="6.3649">
        <ele>2524.6000976562</ele>
        <time>2014-01-11T12:19:03.000Z</time>
      </trkpt>
      <trkpt lat="45.18089" lon="6.36487">
        <ele>2524.3999023438</ele>
        <time>2014-01-11T12:19:04.000Z</time>
      </trkpt>
      <trkpt lat="45.18092" lon="6.36483">
        <ele>2524</ele>
        <time>2014-01-11T12:19:05.000Z</time>
      </trkpt>
      <trkpt lat="45.18094" lon="6.3648">
        <ele>2523.8000488281</ele>
        <time>2014-01-11T12:19:06.000Z</time>
      </trkpt>
      <trkpt lat="45.18096" lon="6.36477">
        <ele>2523.6000976562</ele>
        <time>2014-01-11T12:19:07.000Z</time>
      </trkpt>
      <trkpt lat="45.18099" lon="6.36473">
        <ele>2523.3999023438</ele>
        <time>2014-01-11T12:19:08.000Z</time>
      </trkpt>
      <trkpt lat="45.18102" lon="6.3647">
        <ele>2523.1999511719</ele>
        <time>2014-01-11T12:19:09.000Z</time>
      </trkpt>
      <trkpt lat="45.18105" lon="6.36467">
        <ele>2523</ele>
        <time>2014-01-11T12:19:10.000Z</time>
      </trkpt>
      <trkpt lat="45.18108" lon="6.36463">
        <ele>2522.8000488281</ele>
        <time>2014-01-11T12:19:11.000Z</time>
      </trkpt>
      <trkpt lat="45.1811" lon="6.3646">
        <ele>2522.1999511719</ele>
        <time>2014-01-11T12:19:12.000Z</time>
      </trkpt>
      <trkpt lat="45.18112" lon="6.36459">
        <ele>2521.8000488281</ele>
        <time>2014-01-11T12:19:13.000Z</time>
      </trkpt>
      <trkpt lat="45.18114" lon="6.36458">
        <ele>2521.3999023438</ele>
        <time>2014-01-11T12:19:14.000Z</time>
      </trkpt>
      <trkpt lat="45.18116" lon="6.36458">
        <ele>2521</ele>
        <time>2014-01-11T12:19:15.000Z</time>
      </trkpt>
      <trkpt lat="45.18116" lon="6.36458">
        <ele>2520.6000976562</ele>
        <time>2014-01-11T12:19:16.000Z</time>
      </trkpt>
      <trkpt lat="45.18116" lon="6.36458">
        <ele>2520.3999023438</ele>
        <time>2014-01-11T12:19:17.000Z</time>
      </trkpt>
      <trkpt lat="45.18116" lon="6.36458">
        <ele>2520.3999023438</ele>
        <time>2014-01-11T12:19:18.000Z</time>
      </trkpt>
      <trkpt lat="45.18116" lon="6.36458">
        <ele>2520.1999511719</ele>
        <time>2014-01-11T12:19:19.000Z</time>
      </trkpt>
      <trkpt lat="45.18116" lon="6.36458">
        <ele>2520.1999511719</ele>
        <time>2014-01-11T12:19:20.000Z</time>
      </trkpt>
      <trkpt lat="45.18116" lon="6.36458">
        <ele>2520.1999511719</ele>
        <time>2014-01-11T12:19:21.000Z</time>
      </trkpt>
      <trkpt lat="45.18116" lon="6.36458">
        <ele>2520.1999511719</ele>
        <time>2014-01-11T12:19:26.000Z</time>
      </trkpt>
      <trkpt lat="45.18116" lon="6.36458">
        <ele>2520.1999511719</ele>
        <time>2014-01-11T12:19:27.000Z</time>
      </trkpt>
      <trkpt lat="45.18117" lon="6.36457">
        <ele>2520.1999511719</ele>
        <time>2014-01-11T12:19:28.000Z</time>
      </trkpt>
      <trkpt lat="45.18118" lon="6.36456">
        <ele>2520</ele>
        <time>2014-01-11T12:19:29.000Z</time>
      </trkpt>
      <trkpt lat="45.1812" lon="6.36454">
        <ele>2520</ele>
        <time>2014-01-11T12:19:30.000Z</time>
      </trkpt>
      <trkpt lat="45.18122" lon="6.36453">
        <ele>2520</ele>
        <time>2014-01-11T12:19:31.000Z</time>
      </trkpt>
      <trkpt lat="45.18124" lon="6.36451">
        <ele>2520</ele>
        <time>2014-01-11T12:19:32.000Z</time>
      </trkpt>
      <trkpt lat="45.18127" lon="6.36449">
        <ele>2519.8000488281</ele>
        <time>2014-01-11T12:19:33.000Z</time>
      </trkpt>
      <trkpt lat="45.1813" lon="6.36447">
        <ele>2519.6000976562</ele>
        <time>2014-01-11T12:19:34.000Z</time>
      </trkpt>
      <trkpt lat="45.18132" lon="6.36446">
        <ele>2519.3999023438</ele>
        <time>2014-01-11T12:19:35.000Z</time>
      </trkpt>
      <trkpt lat="45.18133" lon="6.36446">
        <ele>2519</ele>
        <time>2014-01-11T12:19:36.000Z</time>
      </trkpt>
      <trkpt lat="45.18133" lon="6.36446">
        <ele>2518.1999511719</ele>
        <time>2014-01-11T12:19:37.000Z</time>
      </trkpt>
      <trkpt lat="45.18133" lon="6.36446">
        <ele>2517.8000488281</ele>
        <time>2014-01-11T12:19:38.000Z</time>
      </trkpt>
      <trkpt lat="45.18133" lon="6.36446">
        <ele>2517.6000976562</ele>
        <time>2014-01-11T12:19:39.000Z</time>
      </trkpt>
      <trkpt lat="45.18133" lon="6.36446">
        <ele>2517.6000976562</ele>
        <time>2014-01-11T12:19:40.000Z</time>
      </trkpt>
      <trkpt lat="45.18133" lon="6.36446">
        <ele>2517.6000976562</ele>
        <time>2014-01-11T12:19:41.000Z</time>
      </trkpt>
      <trkpt lat="45.18133" lon="6.36446">
        <ele>2517.3999023438</ele>
        <time>2014-01-11T12:19:42.000Z</time>
      </trkpt>
      <trkpt lat="45.18133" lon="6.36446">
        <ele>2517.3999023438</ele>
        <time>2014-01-11T12:19:43.000Z</time>
      </trkpt>
      <trkpt lat="45.18133" lon="6.36446">
        <ele>2517.3999023438</ele>
        <time>2014-01-11T12:19:44.000Z</time>
      </trkpt>
      <trkpt lat="45.18133" lon="6.36446">
        <ele>2517.3999023438</ele>
        <time>2014-01-11T12:19:45.000Z</time>
      </trkpt>
      <trkpt lat="45.18134" lon="6.36445">
        <ele>2517.3999023438</ele>
        <time>2014-01-11T12:19:46.000Z</time>
      </trkpt>
      <trkpt lat="45.18135" lon="6.36445">
        <ele>2517.3999023438</ele>
        <time>2014-01-11T12:19:47.000Z</time>
      </trkpt>
      <trkpt lat="45.18136" lon="6.36444">
        <ele>2517.3999023438</ele>
        <time>2014-01-11T12:19:48.000Z</time>
      </trkpt>
      <trkpt lat="45.18138" lon="6.36443">
        <ele>2517.3999023438</ele>
        <time>2014-01-11T12:19:49.000Z</time>
      </trkpt>
      <trkpt lat="45.18139" lon="6.36442">
        <ele>2517.1999511719</ele>
        <time>2014-01-11T12:19:50.000Z</time>
      </trkpt>
      <trkpt lat="45.1814" lon="6.36441">
        <ele>2517</ele>
        <time>2014-01-11T12:19:51.000Z</time>
      </trkpt>
      <trkpt lat="45.18142" lon="6.36439">
        <ele>2516.8000488281</ele>
        <time>2014-01-11T12:19:52.000Z</time>
      </trkpt>
      <trkpt lat="45.18142" lon="6.36436">
        <ele>2516.3999023438</ele>
        <time>2014-01-11T12:19:53.000Z</time>
      </trkpt>
      <trkpt lat="45.1814" lon="6.36433">
        <ele>2516.1999511719</ele>
        <time>2014-01-11T12:19:54.000Z</time>
      </trkpt>
      <trkpt lat="45.1814" lon="6.36431">
        <ele>2516</ele>
        <time>2014-01-11T12:19:55.000Z</time>
      </trkpt>
      <trkpt lat="45.1814" lon="6.36428">
        <ele>2515.8000488281</ele>
        <time>2014-01-11T12:19:56.000Z</time>
      </trkpt>
      <trkpt lat="45.18139" lon="6.36424">
        <ele>2515.3999023438</ele>
        <time>2014-01-11T12:19:57.000Z</time>
      </trkpt>
      <trkpt lat="45.18138" lon="6.3642">
        <ele>2514.6000976562</ele>
        <time>2014-01-11T12:19:58.000Z</time>
      </trkpt>
      <trkpt lat="45.18137" lon="6.36415">
        <ele>2513.3999023438</ele>
        <time>2014-01-11T12:19:59.000Z</time>
      </trkpt>
      <trkpt lat="45.18138" lon="6.36409">
        <ele>2511</ele>
        <time>2014-01-11T12:20:00.000Z</time>
      </trkpt>
      <trkpt lat="45.18137" lon="6.36405">
        <ele>2509.3999023438</ele>
        <time>2014-01-11T12:20:01.000Z</time>
      </trkpt>
      <trkpt lat="45.18134" lon="6.36403">
        <ele>2507.8000488281</ele>
        <time>2014-01-11T12:20:02.000Z</time>
      </trkpt>
      <trkpt lat="45.18131" lon="6.36401">
        <ele>2506.1999511719</ele>
        <time>2014-01-11T12:20:03.000Z</time>
      </trkpt>
      <trkpt lat="45.1813" lon="6.36398">
        <ele>2504.3999023438</ele>
        <time>2014-01-11T12:20:04.000Z</time>
      </trkpt>
      <trkpt lat="45.18128" lon="6.36394">
        <ele>2502.1999511719</ele>
        <time>2014-01-11T12:20:05.000Z</time>
      </trkpt>
      <trkpt lat="45.18128" lon="6.3639">
        <ele>2500.3999023438</ele>
        <time>2014-01-11T12:20:06.000Z</time>
      </trkpt>
      <trkpt lat="45.18129" lon="6.36384">
        <ele>2498.6000976562</ele>
        <time>2014-01-11T12:20:07.000Z</time>
      </trkpt>
      <trkpt lat="45.18129" lon="6.3638">
        <ele>2497</ele>
        <time>2014-01-11T12:20:08.000Z</time>
      </trkpt>
      <trkpt lat="45.18128" lon="6.36376">
        <ele>2495.3999023438</ele>
        <time>2014-01-11T12:20:09.000Z</time>
      </trkpt>
      <trkpt lat="45.18128" lon="6.36373">
        <ele>2493.6000976562</ele>
        <time>2014-01-11T12:20:10.000Z</time>
      </trkpt>
      <trkpt lat="45.18128" lon="6.36372">
        <ele>2492</ele>
        <time>2014-01-11T12:20:11.000Z</time>
      </trkpt>
      <trkpt lat="45.18128" lon="6.36373">
        <ele>2490.1999511719</ele>
        <time>2014-01-11T12:20:12.000Z</time>
      </trkpt>
      <trkpt lat="45.18127" lon="6.36372">
        <ele>2488.6000976562</ele>
        <time>2014-01-11T12:20:13.000Z</time>
      </trkpt>
      <trkpt lat="45.18127" lon="6.36373">
        <ele>2487.1999511719</ele>
        <time>2014-01-11T12:20:14.000Z</time>
      </trkpt>
      <trkpt lat="45.18127" lon="6.36373">
        <ele>2486.1999511719</ele>
        <time>2014-01-11T12:20:15.000Z</time>
      </trkpt>
      <trkpt lat="45.18127" lon="6.36373">
        <ele>2485.6000976562</ele>
        <time>2014-01-11T12:20:16.000Z</time>
      </trkpt>
      <trkpt lat="45.18127" lon="6.36373">
        <ele>2485.1999511719</ele>
        <time>2014-01-11T12:20:17.000Z</time>
      </trkpt>
      <trkpt lat="45.18127" lon="6.36373">
        <ele>2485</ele>
        <time>2014-01-11T12:20:18.000Z</time>
      </trkpt>
      <trkpt lat="45.18127" lon="6.36374">
        <ele>2484.8000488281</ele>
        <time>2014-01-11T12:20:19.000Z</time>
      </trkpt>
      <trkpt lat="45.18127" lon="6.36374">
        <ele>2484.8000488281</ele>
        <time>2014-01-11T12:20:20.000Z</time>
      </trkpt>
      <trkpt lat="45.18127" lon="6.36374">
        <ele>2484.6000976562</ele>
        <time>2014-01-11T12:20:21.000Z</time>
      </trkpt>
      <trkpt lat="45.18127" lon="6.36374">
        <ele>2484.6000976562</ele>
        <time>2014-01-11T12:20:22.000Z</time>
      </trkpt>
      <trkpt lat="45.18127" lon="6.36374">
        <ele>2484.6000976562</ele>
        <time>2014-01-11T12:20:23.000Z</time>
      </trkpt>
      <trkpt lat="45.18127" lon="6.36374">
        <ele>2484.6000976562</ele>
        <time>2014-01-11T12:20:24.000Z</time>
      </trkpt>
      <trkpt lat="45.18127" lon="6.36374">
        <ele>2484.6000976562</ele>
        <time>2014-01-11T12:20:30.000Z</time>
      </trkpt>
      <trkpt lat="45.18127" lon="6.36374">
        <ele>2484.6000976562</ele>
        <time>2014-01-11T12:20:31.000Z</time>
      </trkpt>
      <trkpt lat="45.18127" lon="6.36374">
        <ele>2484.6000976562</ele>
        <time>2014-01-11T12:20:32.000Z</time>
      </trkpt>
      <trkpt lat="45.18127" lon="6.36374">
        <ele>2484.6000976562</ele>
        <time>2014-01-11T12:20:33.000Z</time>
      </trkpt>
      <trkpt lat="45.18127" lon="6.36374">
        <ele>2484.6000976562</ele>
        <time>2014-01-11T12:20:34.000Z</time>
      </trkpt>
      <trkpt lat="45.18127" lon="6.36374">
        <ele>2484.6000976562</ele>
        <time>2014-01-11T12:20:35.000Z</time>
      </trkpt>
      <trkpt lat="45.18127" lon="6.36374">
        <ele>2484.6000976562</ele>
        <time>2014-01-11T12:20:37.000Z</time>
      </trkpt>
      <trkpt lat="45.18127" lon="6.36374">
        <ele>2484.6000976562</ele>
        <time>2014-01-11T12:20:38.000Z</time>
      </trkpt>
      <trkpt lat="45.18127" lon="6.36374">
        <ele>2484.6000976562</ele>
        <time>2014-01-11T12:20:39.000Z</time>
      </trkpt>
      <trkpt lat="45.18127" lon="6.36374">
        <ele>2484.6000976562</ele>
        <time>2014-01-11T12:20:40.000Z</time>
      </trkpt>
      <trkpt lat="45.18127" lon="6.36374">
        <ele>2484.6000976562</ele>
        <time>2014-01-11T12:20:41.000Z</time>
      </trkpt>
      <trkpt lat="45.18127" lon="6.36374">
        <ele>2484.6000976562</ele>
        <time>2014-01-11T12:20:42.000Z</time>
      </trkpt>
      <trkpt lat="45.18127" lon="6.36374">
        <ele>2484.3999023438</ele>
        <time>2014-01-11T12:20:43.000Z</time>
      </trkpt>
      <trkpt lat="45.18127" lon="6.36374">
        <ele>2484.3999023438</ele>
        <time>2014-01-11T12:20:44.000Z</time>
      </trkpt>
      <trkpt lat="45.18127" lon="6.36374">
        <ele>2484.3999023438</ele>
        <time>2014-01-11T12:20:45.000Z</time>
      </trkpt>
      <trkpt lat="45.18127" lon="6.36374">
        <ele>2484.1999511719</ele>
        <time>2014-01-11T12:20:46.000Z</time>
      </trkpt>
      <trkpt lat="45.18127" lon="6.36374">
        <ele>2484.1999511719</ele>
        <time>2014-01-11T12:20:47.000Z</time>
      </trkpt>
      <trkpt lat="45.18127" lon="6.36374">
        <ele>2484.1999511719</ele>
        <time>2014-01-11T12:20:48.000Z</time>
      </trkpt>
      <trkpt lat="45.18127" lon="6.36374">
        <ele>2484.1999511719</ele>
        <time>2014-01-11T12:20:49.000Z</time>
      </trkpt>
      <trkpt lat="45.18127" lon="6.36374">
        <ele>2484.1999511719</ele>
        <time>2014-01-11T12:20:50.000Z</time>
      </trkpt>
      <trkpt lat="45.18127" lon="6.36374">
        <ele>2484.1999511719</ele>
        <time>2014-01-11T12:20:52.000Z</time>
      </trkpt>
      <trkpt lat="45.18127" lon="6.36374">
        <ele>2484.1999511719</ele>
        <time>2014-01-11T12:20:53.000Z</time>
      </trkpt>
      <trkpt lat="45.18127" lon="6.36374">
        <ele>2484.1999511719</ele>
        <time>2014-01-11T12:20:54.000Z</time>
      </trkpt>
      <trkpt lat="45.18127" lon="6.36374">
        <ele>2484.1999511719</ele>
        <time>2014-01-11T12:20:55.000Z</time>
      </trkpt>
      <trkpt lat="45.18128" lon="6.36372">
        <ele>2484.1999511719</ele>
        <time>2014-01-11T12:20:56.000Z</time>
      </trkpt>
      <trkpt lat="45.18128" lon="6.36371">
        <ele>2484.1999511719</ele>
        <time>2014-01-11T12:20:57.000Z</time>
      </trkpt>
      <trkpt lat="45.18127" lon="6.3637">
        <ele>2484.1999511719</ele>
        <time>2014-01-11T12:20:58.000Z</time>
      </trkpt>
      <trkpt lat="45.18127" lon="6.36367">
        <ele>2484</ele>
        <time>2014-01-11T12:20:59.000Z</time>
      </trkpt>
      <trkpt lat="45.18129" lon="6.36364">
        <ele>2484</ele>
        <time>2014-01-11T12:21:00.000Z</time>
      </trkpt>
      <trkpt lat="45.18129" lon="6.3636">
        <ele>2483.6000976562</ele>
        <time>2014-01-11T12:21:01.000Z</time>
      </trkpt>
      <trkpt lat="45.18127" lon="6.36358">
        <ele>2482.8000488281</ele>
        <time>2014-01-11T12:21:02.000Z</time>
      </trkpt>
      <trkpt lat="45.18125" lon="6.36355">
        <ele>2481.8000488281</ele>
        <time>2014-01-11T12:21:03.000Z</time>
      </trkpt>
      <trkpt lat="45.18125" lon="6.36352">
        <ele>2481</ele>
        <time>2014-01-11T12:21:04.000Z</time>
      </trkpt>
      <trkpt lat="45.18126" lon="6.36349">
        <ele>2480</ele>
        <time>2014-01-11T12:21:05.000Z</time>
      </trkpt>
      <trkpt lat="45.18126" lon="6.36345">
        <ele>2478.6000976562</ele>
        <time>2014-01-11T12:21:06.000Z</time>
      </trkpt>
      <trkpt lat="45.18126" lon="6.36343">
        <ele>2477</ele>
        <time>2014-01-11T12:21:07.000Z</time>
      </trkpt>
      <trkpt lat="45.18123" lon="6.36341">
        <ele>2475.6000976562</ele>
        <time>2014-01-11T12:21:08.000Z</time>
      </trkpt>
      <trkpt lat="45.1812" lon="6.36339">
        <ele>2474.3999023438</ele>
        <time>2014-01-11T12:21:09.000Z</time>
      </trkpt>
      <trkpt lat="45.1812" lon="6.36337">
        <ele>2473.1999511719</ele>
        <time>2014-01-11T12:21:10.000Z</time>
      </trkpt>
      <trkpt lat="45.1812" lon="6.36337">
        <ele>2471.8000488281</ele>
        <time>2014-01-11T12:21:11.000Z</time>
      </trkpt>
      <trkpt lat="45.18121" lon="6.36336">
        <ele>2468.1999511719</ele>
        <time>2014-01-11T12:21:12.000Z</time>
      </trkpt>
      <trkpt lat="45.18121" lon="6.36336">
        <ele>2466.6000976562</ele>
        <time>2014-01-11T12:21:13.000Z</time>
      </trkpt>
      <trkpt lat="45.18121" lon="6.36336">
        <ele>2465.3999023438</ele>
        <time>2014-01-11T12:21:14.000Z</time>
      </trkpt>
      <trkpt lat="45.18122" lon="6.36337">
        <ele>2464.6000976562</ele>
        <time>2014-01-11T12:21:15.000Z</time>
      </trkpt>
      <trkpt lat="45.18123" lon="6.36337">
        <ele>2464.1999511719</ele>
        <time>2014-01-11T12:21:16.000Z</time>
      </trkpt>
      <trkpt lat="45.18123" lon="6.36338">
        <ele>2463.8000488281</ele>
        <time>2014-01-11T12:21:17.000Z</time>
      </trkpt>
      <trkpt lat="45.18124" lon="6.36339">
        <ele>2463.6000976562</ele>
        <time>2014-01-11T12:21:18.000Z</time>
      </trkpt>
      <trkpt lat="45.18125" lon="6.36339">
        <ele>2463.6000976562</ele>
        <time>2014-01-11T12:21:19.000Z</time>
      </trkpt>
      <trkpt lat="45.18125" lon="6.3634">
        <ele>2463.6000976562</ele>
        <time>2014-01-11T12:21:20.000Z</time>
      </trkpt>
      <trkpt lat="45.18126" lon="6.36339">
        <ele>2463.6000976562</ele>
        <time>2014-01-11T12:21:21.000Z</time>
      </trkpt>
      <trkpt lat="45.18126" lon="6.36339">
        <ele>2463.3999023438</ele>
        <time>2014-01-11T12:21:22.000Z</time>
      </trkpt>
      <trkpt lat="45.18126" lon="6.36339">
        <ele>2463.3999023438</ele>
        <time>2014-01-11T12:21:23.000Z</time>
      </trkpt>
      <trkpt lat="45.18126" lon="6.36339">
        <ele>2463.3999023438</ele>
        <time>2014-01-11T12:21:24.000Z</time>
      </trkpt>
      <trkpt lat="45.18127" lon="6.3634">
        <ele>2463.6000976562</ele>
        <time>2014-01-11T12:21:25.000Z</time>
      </trkpt>
      <trkpt lat="45.18127" lon="6.3634">
        <ele>2463.6000976562</ele>
        <time>2014-01-11T12:21:27.000Z</time>
      </trkpt>
      <trkpt lat="45.18127" lon="6.3634">
        <ele>2463.6000976562</ele>
        <time>2014-01-11T12:21:28.000Z</time>
      </trkpt>
      <trkpt lat="45.18127" lon="6.3634">
        <ele>2463.6000976562</ele>
        <time>2014-01-11T12:21:29.000Z</time>
      </trkpt>
      <trkpt lat="45.18127" lon="6.3634">
        <ele>2463.6000976562</ele>
        <time>2014-01-11T12:21:30.000Z</time>
      </trkpt>
      <trkpt lat="45.18127" lon="6.3634">
        <ele>2463.6000976562</ele>
        <time>2014-01-11T12:21:31.000Z</time>
      </trkpt>
      <trkpt lat="45.18127" lon="6.3634">
        <ele>2463.6000976562</ele>
        <time>2014-01-11T12:21:32.000Z</time>
      </trkpt>
      <trkpt lat="45.18127" lon="6.3634">
        <ele>2463.6000976562</ele>
        <time>2014-01-11T12:21:33.000Z</time>
      </trkpt>
      <trkpt lat="45.18127" lon="6.3634">
        <ele>2463.3999023438</ele>
        <time>2014-01-11T12:21:34.000Z</time>
      </trkpt>
      <trkpt lat="45.18127" lon="6.3634">
        <ele>2463.3999023438</ele>
        <time>2014-01-11T12:21:35.000Z</time>
      </trkpt>
      <trkpt lat="45.18127" lon="6.3634">
        <ele>2463.3999023438</ele>
        <time>2014-01-11T12:21:36.000Z</time>
      </trkpt>
      <trkpt lat="45.18128" lon="6.36339">
        <ele>2463.3999023438</ele>
        <time>2014-01-11T12:21:37.000Z</time>
      </trkpt>
      <trkpt lat="45.1813" lon="6.36336">
        <ele>2463.3999023438</ele>
        <time>2014-01-11T12:21:38.000Z</time>
      </trkpt>
      <trkpt lat="45.18133" lon="6.36334">
        <ele>2463.3999023438</ele>
        <time>2014-01-11T12:21:39.000Z</time>
      </trkpt>
      <trkpt lat="45.18135" lon="6.36332">
        <ele>2463.3999023438</ele>
        <time>2014-01-11T12:21:40.000Z</time>
      </trkpt>
      <trkpt lat="45.18136" lon="6.3633">
        <ele>2463.1999511719</ele>
        <time>2014-01-11T12:21:41.000Z</time>
      </trkpt>
      <trkpt lat="45.18138" lon="6.36327">
        <ele>2462.8000488281</ele>
        <time>2014-01-11T12:21:42.000Z</time>
      </trkpt>
      <trkpt lat="45.1814" lon="6.36325">
        <ele>2462.3999023438</ele>
        <time>2014-01-11T12:21:43.000Z</time>
      </trkpt>
      <trkpt lat="45.18141" lon="6.36323">
        <ele>2462</ele>
        <time>2014-01-11T12:21:44.000Z</time>
      </trkpt>
      <trkpt lat="45.18143" lon="6.3632">
        <ele>2461.6000976562</ele>
        <time>2014-01-11T12:21:45.000Z</time>
      </trkpt>
      <trkpt lat="45.18144" lon="6.36318">
        <ele>2461.1999511719</ele>
        <time>2014-01-11T12:21:46.000Z</time>
      </trkpt>
      <trkpt lat="45.18145" lon="6.36317">
        <ele>2460.8000488281</ele>
        <time>2014-01-11T12:21:47.000Z</time>
      </trkpt>
      <trkpt lat="45.18146" lon="6.36315">
        <ele>2460.1999511719</ele>
        <time>2014-01-11T12:21:48.000Z</time>
      </trkpt>
      <trkpt lat="45.18147" lon="6.36312">
        <ele>2459.8000488281</ele>
        <time>2014-01-11T12:21:49.000Z</time>
      </trkpt>
      <trkpt lat="45.18149" lon="6.3631">
        <ele>2459.1999511719</ele>
        <time>2014-01-11T12:21:50.000Z</time>
      </trkpt>
      <trkpt lat="45.18151" lon="6.36307">
        <ele>2458.8000488281</ele>
        <time>2014-01-11T12:21:51.000Z</time>
      </trkpt>
      <trkpt lat="45.18152" lon="6.36304">
        <ele>2458.3999023438</ele>
        <time>2014-01-11T12:21:52.000Z</time>
      </trkpt>
      <trkpt lat="45.18154" lon="6.36301">
        <ele>2457.8000488281</ele>
        <time>2014-01-11T12:21:53.000Z</time>
      </trkpt>
      <trkpt lat="45.18156" lon="6.36298">
        <ele>2457.3999023438</ele>
        <time>2014-01-11T12:21:54.000Z</time>
      </trkpt>
      <trkpt lat="45.18159" lon="6.36294">
        <ele>2456.6000976562</ele>
        <time>2014-01-11T12:21:55.000Z</time>
      </trkpt>
      <trkpt lat="45.18161" lon="6.36291">
        <ele>2456</ele>
        <time>2014-01-11T12:21:56.000Z</time>
      </trkpt>
      <trkpt lat="45.18162" lon="6.3629">
        <ele>2455.3999023438</ele>
        <time>2014-01-11T12:21:57.000Z</time>
      </trkpt>
      <trkpt lat="45.18162" lon="6.36288">
        <ele>2454.8000488281</ele>
        <time>2014-01-11T12:21:58.000Z</time>
      </trkpt>
      <trkpt lat="45.18163" lon="6.36287">
        <ele>2454.3999023438</ele>
        <time>2014-01-11T12:21:59.000Z</time>
      </trkpt>
      <trkpt lat="45.18164" lon="6.36285">
        <ele>2453.8000488281</ele>
        <time>2014-01-11T12:22:00.000Z</time>
      </trkpt>
      <trkpt lat="45.18165" lon="6.36283">
        <ele>2453.6000976562</ele>
        <time>2014-01-11T12:22:01.000Z</time>
      </trkpt>
      <trkpt lat="45.18166" lon="6.36281">
        <ele>2453.3999023438</ele>
        <time>2014-01-11T12:22:02.000Z</time>
      </trkpt>
      <trkpt lat="45.18167" lon="6.3628">
        <ele>2453.1999511719</ele>
        <time>2014-01-11T12:22:03.000Z</time>
      </trkpt>
      <trkpt lat="45.18167" lon="6.3628">
        <ele>2453</ele>
        <time>2014-01-11T12:22:04.000Z</time>
      </trkpt>
      <trkpt lat="45.18168" lon="6.36279">
        <ele>2452.8000488281</ele>
        <time>2014-01-11T12:22:05.000Z</time>
      </trkpt>
      <trkpt lat="45.18168" lon="6.36279">
        <ele>2452.8000488281</ele>
        <time>2014-01-11T12:22:06.000Z</time>
      </trkpt>
      <trkpt lat="45.18168" lon="6.36279">
        <ele>2452.8000488281</ele>
        <time>2014-01-11T12:22:07.000Z</time>
      </trkpt>
      <trkpt lat="45.18168" lon="6.36279">
        <ele>2452.8000488281</ele>
        <time>2014-01-11T12:22:08.000Z</time>
      </trkpt>
      <trkpt lat="45.18168" lon="6.36279">
        <ele>2452.8000488281</ele>
        <time>2014-01-11T12:22:09.000Z</time>
      </trkpt>
      <trkpt lat="45.18168" lon="6.36279">
        <ele>2452.8000488281</ele>
        <time>2014-01-11T12:22:10.000Z</time>
      </trkpt>
      <trkpt lat="45.18168" lon="6.36279">
        <ele>2452.8000488281</ele>
        <time>2014-01-11T12:22:11.000Z</time>
      </trkpt>
      <trkpt lat="45.18168" lon="6.36279">
        <ele>2452.8000488281</ele>
        <time>2014-01-11T12:22:12.000Z</time>
      </trkpt>
      <trkpt lat="45.18168" lon="6.36279">
        <ele>2452.8000488281</ele>
        <time>2014-01-11T12:22:13.000Z</time>
      </trkpt>
      <trkpt lat="45.18168" lon="6.36279">
        <ele>2452.8000488281</ele>
        <time>2014-01-11T12:22:14.000Z</time>
      </trkpt>
      <trkpt lat="45.18168" lon="6.36279">
        <ele>2452.8000488281</ele>
        <time>2014-01-11T12:22:15.000Z</time>
      </trkpt>
      <trkpt lat="45.18168" lon="6.36279">
        <ele>2452.8000488281</ele>
        <time>2014-01-11T12:22:16.000Z</time>
      </trkpt>
      <trkpt lat="45.18168" lon="6.36279">
        <ele>2452.8000488281</ele>
        <time>2014-01-11T12:22:17.000Z</time>
      </trkpt>
      <trkpt lat="45.18168" lon="6.36279">
        <ele>2452.8000488281</ele>
        <time>2014-01-11T12:22:18.000Z</time>
      </trkpt>
      <trkpt lat="45.18168" lon="6.36279">
        <ele>2452.8000488281</ele>
        <time>2014-01-11T12:22:19.000Z</time>
      </trkpt>
      <trkpt lat="45.18168" lon="6.36279">
        <ele>2452.8000488281</ele>
        <time>2014-01-11T12:22:20.000Z</time>
      </trkpt>
      <trkpt lat="45.18168" lon="6.36279">
        <ele>2452.8000488281</ele>
        <time>2014-01-11T12:22:21.000Z</time>
      </trkpt>
      <trkpt lat="45.18168" lon="6.36279">
        <ele>2452.8000488281</ele>
        <time>2014-01-11T12:22:22.000Z</time>
      </trkpt>
      <trkpt lat="45.18168" lon="6.36279">
        <ele>2452.8000488281</ele>
        <time>2014-01-11T12:22:23.000Z</time>
      </trkpt>
      <trkpt lat="45.18168" lon="6.36279">
        <ele>2452.8000488281</ele>
        <time>2014-01-11T12:22:24.000Z</time>
      </trkpt>
      <trkpt lat="45.18168" lon="6.36279">
        <ele>2452.8000488281</ele>
        <time>2014-01-11T12:22:33.000Z</time>
      </trkpt>
      <trkpt lat="45.18168" lon="6.36279">
        <ele>2452.6000976562</ele>
        <time>2014-01-11T12:22:34.000Z</time>
      </trkpt>
      <trkpt lat="45.18168" lon="6.36279">
        <ele>2452.8000488281</ele>
        <time>2014-01-11T12:22:36.000Z</time>
      </trkpt>
      <trkpt lat="45.18168" lon="6.36279">
        <ele>2452.8000488281</ele>
        <time>2014-01-11T12:22:37.000Z</time>
      </trkpt>
      <trkpt lat="45.18168" lon="6.36279">
        <ele>2452.8000488281</ele>
        <time>2014-01-11T12:22:38.000Z</time>
      </trkpt>
      <trkpt lat="45.18168" lon="6.36279">
        <ele>2452.8000488281</ele>
        <time>2014-01-11T12:22:39.000Z</time>
      </trkpt>
      <trkpt lat="45.18168" lon="6.36279">
        <ele>2452.8000488281</ele>
        <time>2014-01-11T12:22:40.000Z</time>
      </trkpt>
      <trkpt lat="45.18168" lon="6.36279">
        <ele>2452.8000488281</ele>
        <time>2014-01-11T12:22:44.000Z</time>
      </trkpt>
      <trkpt lat="45.18168" lon="6.36279">
        <ele>2452.8000488281</ele>
        <time>2014-01-11T12:22:45.000Z</time>
      </trkpt>
      <trkpt lat="45.18168" lon="6.36279">
        <ele>2452.8000488281</ele>
        <time>2014-01-11T12:22:46.000Z</time>
      </trkpt>
      <trkpt lat="45.18168" lon="6.36279">
        <ele>2452.8000488281</ele>
        <time>2014-01-11T12:22:47.000Z</time>
      </trkpt>
      <trkpt lat="45.18168" lon="6.36279">
        <ele>2452.8000488281</ele>
        <time>2014-01-11T12:22:49.000Z</time>
      </trkpt>
      <trkpt lat="45.18168" lon="6.36279">
        <ele>2452.8000488281</ele>
        <time>2014-01-11T12:22:51.000Z</time>
      </trkpt>
      <trkpt lat="45.18168" lon="6.36279">
        <ele>2452.8000488281</ele>
        <time>2014-01-11T12:22:52.000Z</time>
      </trkpt>
      <trkpt lat="45.18168" lon="6.36279">
        <ele>2452.8000488281</ele>
        <time>2014-01-11T12:22:53.000Z</time>
      </trkpt>
      <trkpt lat="45.18168" lon="6.36279">
        <ele>2452.8000488281</ele>
        <time>2014-01-11T12:22:54.000Z</time>
      </trkpt>
      <trkpt lat="45.18168" lon="6.36279">
        <ele>2452.8000488281</ele>
        <time>2014-01-11T12:22:57.000Z</time>
      </trkpt>
      <trkpt lat="45.18168" lon="6.36279">
        <ele>2452.8000488281</ele>
        <time>2014-01-11T12:22:58.000Z</time>
      </trkpt>
      <trkpt lat="45.18168" lon="6.36279">
        <ele>2452.8000488281</ele>
        <time>2014-01-11T12:22:59.000Z</time>
      </trkpt>
      <trkpt lat="45.18168" lon="6.36279">
        <ele>2452.8000488281</ele>
        <time>2014-01-11T12:23:01.000Z</time>
      </trkpt>
      <trkpt lat="45.18168" lon="6.36279">
        <ele>2452.8000488281</ele>
        <time>2014-01-11T12:23:04.000Z</time>
      </trkpt>
      <trkpt lat="45.18168" lon="6.36279">
        <ele>2452.8000488281</ele>
        <time>2014-01-11T12:23:05.000Z</time>
      </trkpt>
      <trkpt lat="45.18168" lon="6.36279">
        <ele>2452.8000488281</ele>
        <time>2014-01-11T12:23:07.000Z</time>
      </trkpt>
      <trkpt lat="45.18166" lon="6.36276">
        <ele>2452.8000488281</ele>
        <time>2014-01-11T12:23:09.000Z</time>
      </trkpt>
      <trkpt lat="45.18163" lon="6.36277">
        <ele>2452.6000976562</ele>
        <time>2014-01-11T12:23:10.000Z</time>
      </trkpt>
      <trkpt lat="45.18159" lon="6.36278">
        <ele>2452.6000976562</ele>
        <time>2014-01-11T12:23:11.000Z</time>
      </trkpt>
      <trkpt lat="45.18157" lon="6.36279">
        <ele>2452.3999023438</ele>
        <time>2014-01-11T12:23:12.000Z</time>
      </trkpt>
      <trkpt lat="45.18154" lon="6.36279">
        <ele>2452.1999511719</ele>
        <time>2014-01-11T12:23:13.000Z</time>
      </trkpt>
      <trkpt lat="45.18151" lon="6.3628">
        <ele>2451.3999023438</ele>
        <time>2014-01-11T12:23:14.000Z</time>
      </trkpt>
      <trkpt lat="45.18148" lon="6.36281">
        <ele>2450.6000976562</ele>
        <time>2014-01-11T12:23:15.000Z</time>
      </trkpt>
      <trkpt lat="45.18145" lon="6.36282">
        <ele>2449.6000976562</ele>
        <time>2014-01-11T12:23:16.000Z</time>
      </trkpt>
      <trkpt lat="45.18142" lon="6.36283">
        <ele>2448.8000488281</ele>
        <time>2014-01-11T12:23:17.000Z</time>
      </trkpt>
      <trkpt lat="45.18139" lon="6.36284">
        <ele>2448</ele>
        <time>2014-01-11T12:23:18.000Z</time>
      </trkpt>
      <trkpt lat="45.18134" lon="6.36285">
        <ele>2447</ele>
        <time>2014-01-11T12:23:19.000Z</time>
      </trkpt>
      <trkpt lat="45.1813" lon="6.36285">
        <ele>2446.1999511719</ele>
        <time>2014-01-11T12:23:20.000Z</time>
      </trkpt>
      <trkpt lat="45.18125" lon="6.36285">
        <ele>2445.3999023438</ele>
        <time>2014-01-11T12:23:21.000Z</time>
      </trkpt>
      <trkpt lat="45.1812" lon="6.36286">
        <ele>2444.3999023438</ele>
        <time>2014-01-11T12:23:22.000Z</time>
      </trkpt>
      <trkpt lat="45.18117" lon="6.36286">
        <ele>2443.6000976562</ele>
        <time>2014-01-11T12:23:23.000Z</time>
      </trkpt>
      <trkpt lat="45.18116" lon="6.36285">
        <ele>2442.6000976562</ele>
        <time>2014-01-11T12:23:24.000Z</time>
      </trkpt>
      <trkpt lat="45.18116" lon="6.36285">
        <ele>2441.3999023438</ele>
        <time>2014-01-11T12:23:25.000Z</time>
      </trkpt>
      <trkpt lat="45.18116" lon="6.36285">
        <ele>2440.1999511719</ele>
        <time>2014-01-11T12:23:26.000Z</time>
      </trkpt>
      <trkpt lat="45.18116" lon="6.36284">
        <ele>2439</ele>
        <time>2014-01-11T12:23:27.000Z</time>
      </trkpt>
      <trkpt lat="45.18116" lon="6.36284">
        <ele>2437.8000488281</ele>
        <time>2014-01-11T12:23:28.000Z</time>
      </trkpt>
      <trkpt lat="45.18116" lon="6.36284">
        <ele>2437.1999511719</ele>
        <time>2014-01-11T12:23:29.000Z</time>
      </trkpt>
      <trkpt lat="45.18116" lon="6.36284">
        <ele>2436.8000488281</ele>
        <time>2014-01-11T12:23:30.000Z</time>
      </trkpt>
      <trkpt lat="45.18116" lon="6.36284">
        <ele>2436.6000976562</ele>
        <time>2014-01-11T12:23:31.000Z</time>
      </trkpt>
      <trkpt lat="45.18116" lon="6.36284">
        <ele>2436.3999023438</ele>
        <time>2014-01-11T12:23:32.000Z</time>
      </trkpt>
      <trkpt lat="45.18116" lon="6.36284">
        <ele>2436.3999023438</ele>
        <time>2014-01-11T12:23:33.000Z</time>
      </trkpt>
      <trkpt lat="45.18117" lon="6.36285">
        <ele>2436.3999023438</ele>
        <time>2014-01-11T12:23:34.000Z</time>
      </trkpt>
      <trkpt lat="45.18117" lon="6.36286">
        <ele>2436.3999023438</ele>
        <time>2014-01-11T12:23:35.000Z</time>
      </trkpt>
      <trkpt lat="45.18117" lon="6.36286">
        <ele>2436.1999511719</ele>
        <time>2014-01-11T12:23:36.000Z</time>
      </trkpt>
      <trkpt lat="45.18117" lon="6.36286">
        <ele>2436</ele>
        <time>2014-01-11T12:23:37.000Z</time>
      </trkpt>
      <trkpt lat="45.18117" lon="6.36286">
        <ele>2436</ele>
        <time>2014-01-11T12:23:38.000Z</time>
      </trkpt>
      <trkpt lat="45.18117" lon="6.36286">
        <ele>2436</ele>
        <time>2014-01-11T12:23:39.000Z</time>
      </trkpt>
      <trkpt lat="45.18117" lon="6.36286">
        <ele>2436</ele>
        <time>2014-01-11T12:23:40.000Z</time>
      </trkpt>
      <trkpt lat="45.18117" lon="6.36286">
        <ele>2436</ele>
        <time>2014-01-11T12:23:41.000Z</time>
      </trkpt>
      <trkpt lat="45.18117" lon="6.36286">
        <ele>2436</ele>
        <time>2014-01-11T12:23:42.000Z</time>
      </trkpt>
      <trkpt lat="45.18117" lon="6.36285">
        <ele>2436.1999511719</ele>
        <time>2014-01-11T12:23:43.000Z</time>
      </trkpt>
      <trkpt lat="45.18119" lon="6.36284">
        <ele>2436.1999511719</ele>
        <time>2014-01-11T12:23:44.000Z</time>
      </trkpt>
      <trkpt lat="45.1812" lon="6.36283">
        <ele>2436.3999023438</ele>
        <time>2014-01-11T12:23:45.000Z</time>
      </trkpt>
      <trkpt lat="45.18121" lon="6.36281">
        <ele>2436.3999023438</ele>
        <time>2014-01-11T12:23:46.000Z</time>
      </trkpt>
      <trkpt lat="45.18122" lon="6.3628">
        <ele>2436.1999511719</ele>
        <time>2014-01-11T12:23:47.000Z</time>
      </trkpt>
      <trkpt lat="45.18123" lon="6.3628">
        <ele>2436.1999511719</ele>
        <time>2014-01-11T12:23:48.000Z</time>
      </trkpt>
      <trkpt lat="45.18124" lon="6.36279">
        <ele>2435.8000488281</ele>
        <time>2014-01-11T12:23:49.000Z</time>
      </trkpt>
      <trkpt lat="45.18124" lon="6.36279">
        <ele>2435.6000976562</ele>
        <time>2014-01-11T12:23:50.000Z</time>
      </trkpt>
      <trkpt lat="45.18124" lon="6.36278">
        <ele>2435.6000976562</ele>
        <time>2014-01-11T12:23:51.000Z</time>
      </trkpt>
      <trkpt lat="45.18125" lon="6.36278">
        <ele>2435.3999023438</ele>
        <time>2014-01-11T12:23:52.000Z</time>
      </trkpt>
      <trkpt lat="45.18125" lon="6.36279">
        <ele>2435.3999023438</ele>
        <time>2014-01-11T12:23:53.000Z</time>
      </trkpt>
      <trkpt lat="45.18125" lon="6.36279">
        <ele>2435.1999511719</ele>
        <time>2014-01-11T12:23:54.000Z</time>
      </trkpt>
      <trkpt lat="45.18126" lon="6.36279">
        <ele>2435</ele>
        <time>2014-01-11T12:23:55.000Z</time>
      </trkpt>
      <trkpt lat="45.18126" lon="6.36279">
        <ele>2435</ele>
        <time>2014-01-11T12:23:56.000Z</time>
      </trkpt>
      <trkpt lat="45.18126" lon="6.36279">
        <ele>2434.8000488281</ele>
        <time>2014-01-11T12:23:57.000Z</time>
      </trkpt>
      <trkpt lat="45.18126" lon="6.36279">
        <ele>2434.8000488281</ele>
        <time>2014-01-11T12:23:58.000Z</time>
      </trkpt>
      <trkpt lat="45.18126" lon="6.36279">
        <ele>2434.8000488281</ele>
        <time>2014-01-11T12:23:59.000Z</time>
      </trkpt>
      <trkpt lat="45.18126" lon="6.36279">
        <ele>2434.8000488281</ele>
        <time>2014-01-11T12:24:00.000Z</time>
      </trkpt>
      <trkpt lat="45.18125" lon="6.3628">
        <ele>2434.8000488281</ele>
        <time>2014-01-11T12:24:01.000Z</time>
      </trkpt>
      <trkpt lat="45.18125" lon="6.36279">
        <ele>2434.8000488281</ele>
        <time>2014-01-11T12:24:03.000Z</time>
      </trkpt>
      <trkpt lat="45.18125" lon="6.36279">
        <ele>2434.8000488281</ele>
        <time>2014-01-11T12:24:04.000Z</time>
      </trkpt>
      <trkpt lat="45.18125" lon="6.36279">
        <ele>2434.8000488281</ele>
        <time>2014-01-11T12:24:05.000Z</time>
      </trkpt>
      <trkpt lat="45.18125" lon="6.36279">
        <ele>2434.6000976562</ele>
        <time>2014-01-11T12:24:08.000Z</time>
      </trkpt>
      <trkpt lat="45.18125" lon="6.36279">
        <ele>2434.8000488281</ele>
        <time>2014-01-11T12:24:12.000Z</time>
      </trkpt>
      <trkpt lat="45.18125" lon="6.36279">
        <ele>2434.8000488281</ele>
        <time>2014-01-11T12:24:13.000Z</time>
      </trkpt>
      <trkpt lat="45.18124" lon="6.36277">
        <ele>2434.8000488281</ele>
        <time>2014-01-11T12:24:14.000Z</time>
      </trkpt>
      <trkpt lat="45.18121" lon="6.36275">
        <ele>2434.8000488281</ele>
        <time>2014-01-11T12:24:15.000Z</time>
      </trkpt>
      <trkpt lat="45.18119" lon="6.36273">
        <ele>2434.8000488281</ele>
        <time>2014-01-11T12:24:16.000Z</time>
      </trkpt>
      <trkpt lat="45.18118" lon="6.36272">
        <ele>2434.6000976562</ele>
        <time>2014-01-11T12:24:17.000Z</time>
      </trkpt>
      <trkpt lat="45.18117" lon="6.36271">
        <ele>2434.3999023438</ele>
        <time>2014-01-11T12:24:18.000Z</time>
      </trkpt>
      <trkpt lat="45.18115" lon="6.3627">
        <ele>2433.8000488281</ele>
        <time>2014-01-11T12:24:19.000Z</time>
      </trkpt>
      <trkpt lat="45.18115" lon="6.36269">
        <ele>2433</ele>
        <time>2014-01-11T12:24:20.000Z</time>
      </trkpt>
      <trkpt lat="45.18114" lon="6.36269">
        <ele>2432</ele>
        <time>2014-01-11T12:24:21.000Z</time>
      </trkpt>
      <trkpt lat="45.18113" lon="6.36269">
        <ele>2431.1999511719</ele>
        <time>2014-01-11T12:24:22.000Z</time>
      </trkpt>
      <trkpt lat="45.18112" lon="6.36269">
        <ele>2430.3999023438</ele>
        <time>2014-01-11T12:24:23.000Z</time>
      </trkpt>
      <trkpt lat="45.18112" lon="6.36269">
        <ele>2429.3999023438</ele>
        <time>2014-01-11T12:24:24.000Z</time>
      </trkpt>
      <trkpt lat="45.18112" lon="6.36269">
        <ele>2429</ele>
        <time>2014-01-11T12:24:25.000Z</time>
      </trkpt>
      <trkpt lat="45.18112" lon="6.36269">
        <ele>2428.6000976562</ele>
        <time>2014-01-11T12:24:26.000Z</time>
      </trkpt>
      <trkpt lat="45.18112" lon="6.36269">
        <ele>2428.1999511719</ele>
        <time>2014-01-11T12:24:27.000Z</time>
      </trkpt>
      <trkpt lat="45.18111" lon="6.36267">
        <ele>2428</ele>
        <time>2014-01-11T12:24:28.000Z</time>
      </trkpt>
      <trkpt lat="45.1811" lon="6.36267">
        <ele>2427.8000488281</ele>
        <time>2014-01-11T12:24:29.000Z</time>
      </trkpt>
      <trkpt lat="45.1811" lon="6.36266">
        <ele>2427.6000976562</ele>
        <time>2014-01-11T12:24:30.000Z</time>
      </trkpt>
      <trkpt lat="45.1811" lon="6.36266">
        <ele>2427.1999511719</ele>
        <time>2014-01-11T12:24:31.000Z</time>
      </trkpt>
      <trkpt lat="45.18109" lon="6.36266">
        <ele>2426.6000976562</ele>
        <time>2014-01-11T12:24:32.000Z</time>
      </trkpt>
      <trkpt lat="45.18109" lon="6.36266">
        <ele>2426.1999511719</ele>
        <time>2014-01-11T12:24:33.000Z</time>
      </trkpt>
      <trkpt lat="45.18109" lon="6.36266">
        <ele>2426</ele>
        <time>2014-01-11T12:24:34.000Z</time>
      </trkpt>
      <trkpt lat="45.18109" lon="6.36266">
        <ele>2425.8000488281</ele>
        <time>2014-01-11T12:24:35.000Z</time>
      </trkpt>
      <trkpt lat="45.18109" lon="6.36266">
        <ele>2425.6000976562</ele>
        <time>2014-01-11T12:24:36.000Z</time>
      </trkpt>
      <trkpt lat="45.18107" lon="6.36264">
        <ele>2425.3999023438</ele>
        <time>2014-01-11T12:24:37.000Z</time>
      </trkpt>
      <trkpt lat="45.18106" lon="6.36264">
        <ele>2425.3999023438</ele>
        <time>2014-01-11T12:24:38.000Z</time>
      </trkpt>
      <trkpt lat="45.18104" lon="6.36263">
        <ele>2425.1999511719</ele>
        <time>2014-01-11T12:24:39.000Z</time>
      </trkpt>
      <trkpt lat="45.18104" lon="6.36261">
        <ele>2425</ele>
        <time>2014-01-11T12:24:40.000Z</time>
      </trkpt>
      <trkpt lat="45.18102" lon="6.36261">
        <ele>2424.8000488281</ele>
        <time>2014-01-11T12:24:41.000Z</time>
      </trkpt>
      <trkpt lat="45.18102" lon="6.3626">
        <ele>2424.3999023438</ele>
        <time>2014-01-11T12:24:42.000Z</time>
      </trkpt>
      <trkpt lat="45.18101" lon="6.3626">
        <ele>2423.8000488281</ele>
        <time>2014-01-11T12:24:43.000Z</time>
      </trkpt>
      <trkpt lat="45.18101" lon="6.3626">
        <ele>2423.1999511719</ele>
        <time>2014-01-11T12:24:44.000Z</time>
      </trkpt>
      <trkpt lat="45.18102" lon="6.36259">
        <ele>2422.6000976562</ele>
        <time>2014-01-11T12:24:45.000Z</time>
      </trkpt>
      <trkpt lat="45.18103" lon="6.36257">
        <ele>2422</ele>
        <time>2014-01-11T12:24:46.000Z</time>
      </trkpt>
      <trkpt lat="45.18103" lon="6.36255">
        <ele>2421.3999023438</ele>
        <time>2014-01-11T12:24:47.000Z</time>
      </trkpt>
      <trkpt lat="45.18102" lon="6.3625">
        <ele>2420.8000488281</ele>
        <time>2014-01-11T12:24:48.000Z</time>
      </trkpt>
      <trkpt lat="45.18101" lon="6.36248">
        <ele>2419.8000488281</ele>
        <time>2014-01-11T12:24:49.000Z</time>
      </trkpt>
      <trkpt lat="45.18101" lon="6.36246">
        <ele>2419.1999511719</ele>
        <time>2014-01-11T12:24:50.000Z</time>
      </trkpt>
      <trkpt lat="45.18103" lon="6.36244">
        <ele>2418.6000976562</ele>
        <time>2014-01-11T12:24:51.000Z</time>
      </trkpt>
      <trkpt lat="45.18104" lon="6.36243">
        <ele>2417.6000976562</ele>
        <time>2014-01-11T12:24:52.000Z</time>
      </trkpt>
      <trkpt lat="45.18104" lon="6.36244">
        <ele>2416.1999511719</ele>
        <time>2014-01-11T12:24:53.000Z</time>
      </trkpt>
      <trkpt lat="45.18104" lon="6.36244">
        <ele>2415</ele>
        <time>2014-01-11T12:24:54.000Z</time>
      </trkpt>
      <trkpt lat="45.18105" lon="6.36245">
        <ele>2414</ele>
        <time>2014-01-11T12:24:55.000Z</time>
      </trkpt>
      <trkpt lat="45.18105" lon="6.36245">
        <ele>2413.1999511719</ele>
        <time>2014-01-11T12:24:56.000Z</time>
      </trkpt>
      <trkpt lat="45.18105" lon="6.36245">
        <ele>2412.8000488281</ele>
        <time>2014-01-11T12:24:57.000Z</time>
      </trkpt>
      <trkpt lat="45.18105" lon="6.36246">
        <ele>2412.6000976562</ele>
        <time>2014-01-11T12:24:58.000Z</time>
      </trkpt>
      <trkpt lat="45.18103" lon="6.36243">
        <ele>2412.6000976562</ele>
        <time>2014-01-11T12:24:59.000Z</time>
      </trkpt>
      <trkpt lat="45.18103" lon="6.36242">
        <ele>2412.3999023438</ele>
        <time>2014-01-11T12:25:00.000Z</time>
      </trkpt>
      <trkpt lat="45.18103" lon="6.36242">
        <ele>2412.3999023438</ele>
        <time>2014-01-11T12:25:01.000Z</time>
      </trkpt>
      <trkpt lat="45.18103" lon="6.36242">
        <ele>2412.1999511719</ele>
        <time>2014-01-11T12:25:02.000Z</time>
      </trkpt>
      <trkpt lat="45.18103" lon="6.36242">
        <ele>2411.8000488281</ele>
        <time>2014-01-11T12:25:03.000Z</time>
      </trkpt>
      <trkpt lat="45.18103" lon="6.36242">
        <ele>2411</ele>
        <time>2014-01-11T12:25:04.000Z</time>
      </trkpt>
      <trkpt lat="45.18103" lon="6.36242">
        <ele>2410</ele>
        <time>2014-01-11T12:25:05.000Z</time>
      </trkpt>
      <trkpt lat="45.18103" lon="6.36242">
        <ele>2409.3999023438</ele>
        <time>2014-01-11T12:25:06.000Z</time>
      </trkpt>
      <trkpt lat="45.18102" lon="6.36242">
        <ele>2409</ele>
        <time>2014-01-11T12:25:07.000Z</time>
      </trkpt>
      <trkpt lat="45.18103" lon="6.36243">
        <ele>2408.8000488281</ele>
        <time>2014-01-11T12:25:08.000Z</time>
      </trkpt>
      <trkpt lat="45.18103" lon="6.36243">
        <ele>2408.6000976562</ele>
        <time>2014-01-11T12:25:09.000Z</time>
      </trkpt>
      <trkpt lat="45.18102" lon="6.36242">
        <ele>2408.3999023438</ele>
        <time>2014-01-11T12:25:10.000Z</time>
      </trkpt>
      <trkpt lat="45.18102" lon="6.3624">
        <ele>2408.3999023438</ele>
        <time>2014-01-11T12:25:11.000Z</time>
      </trkpt>
      <trkpt lat="45.18102" lon="6.36235">
        <ele>2408.1999511719</ele>
        <time>2014-01-11T12:25:12.000Z</time>
      </trkpt>
      <trkpt lat="45.18099" lon="6.36232">
        <ele>2407.3999023438</ele>
        <time>2014-01-11T12:25:13.000Z</time>
      </trkpt>
      <trkpt lat="45.18097" lon="6.3623">
        <ele>2406.8000488281</ele>
        <time>2014-01-11T12:25:14.000Z</time>
      </trkpt>
      <trkpt lat="45.18097" lon="6.36229">
        <ele>2406</ele>
        <time>2014-01-11T12:25:15.000Z</time>
      </trkpt>
      <trkpt lat="45.18096" lon="6.36228">
        <ele>2405</ele>
        <time>2014-01-11T12:25:16.000Z</time>
      </trkpt>
      <trkpt lat="45.18096" lon="6.36227">
        <ele>2403.6000976562</ele>
        <time>2014-01-11T12:25:17.000Z</time>
      </trkpt>
      <trkpt lat="45.18096" lon="6.36227">
        <ele>2402.1999511719</ele>
        <time>2014-01-11T12:25:18.000Z</time>
      </trkpt>
      <trkpt lat="45.18096" lon="6.36227">
        <ele>2401</ele>
        <time>2014-01-11T12:25:19.000Z</time>
      </trkpt>
      <trkpt lat="45.18096" lon="6.36227">
        <ele>2400.3999023438</ele>
        <time>2014-01-11T12:25:20.000Z</time>
      </trkpt>
      <trkpt lat="45.18097" lon="6.36227">
        <ele>2400.1999511719</ele>
        <time>2014-01-11T12:25:21.000Z</time>
      </trkpt>
      <trkpt lat="45.18097" lon="6.36227">
        <ele>2400</ele>
        <time>2014-01-11T12:25:22.000Z</time>
      </trkpt>
      <trkpt lat="45.18097" lon="6.36227">
        <ele>2399.8000488281</ele>
        <time>2014-01-11T12:25:23.000Z</time>
      </trkpt>
      <trkpt lat="45.18097" lon="6.36226">
        <ele>2399.8000488281</ele>
        <time>2014-01-11T12:25:24.000Z</time>
      </trkpt>
      <trkpt lat="45.18097" lon="6.36223">
        <ele>2399.8000488281</ele>
        <time>2014-01-11T12:25:25.000Z</time>
      </trkpt>
      <trkpt lat="45.18099" lon="6.3622">
        <ele>2399.6000976562</ele>
        <time>2014-01-11T12:25:26.000Z</time>
      </trkpt>
      <trkpt lat="45.181" lon="6.36217">
        <ele>2399.6000976562</ele>
        <time>2014-01-11T12:25:27.000Z</time>
      </trkpt>
      <trkpt lat="45.181" lon="6.36216">
        <ele>2399.1999511719</ele>
        <time>2014-01-11T12:25:28.000Z</time>
      </trkpt>
      <trkpt lat="45.181" lon="6.36214">
        <ele>2398.8000488281</ele>
        <time>2014-01-11T12:25:29.000Z</time>
      </trkpt>
      <trkpt lat="45.18101" lon="6.36212">
        <ele>2398.3999023438</ele>
        <time>2014-01-11T12:25:30.000Z</time>
      </trkpt>
      <trkpt lat="45.18102" lon="6.36207">
        <ele>2397.8000488281</ele>
        <time>2014-01-11T12:25:31.000Z</time>
      </trkpt>
      <trkpt lat="45.18104" lon="6.36203">
        <ele>2397.1999511719</ele>
        <time>2014-01-11T12:25:32.000Z</time>
      </trkpt>
      <trkpt lat="45.18105" lon="6.362">
        <ele>2396.8000488281</ele>
        <time>2014-01-11T12:25:33.000Z</time>
      </trkpt>
      <trkpt lat="45.18105" lon="6.362">
        <ele>2396</ele>
        <time>2014-01-11T12:25:34.000Z</time>
      </trkpt>
      <trkpt lat="45.18105" lon="6.362">
        <ele>2395.3999023438</ele>
        <time>2014-01-11T12:25:35.000Z</time>
      </trkpt>
      <trkpt lat="45.18105" lon="6.362">
        <ele>2394.6000976562</ele>
        <time>2014-01-11T12:25:36.000Z</time>
      </trkpt>
      <trkpt lat="45.18105" lon="6.362">
        <ele>2393.1999511719</ele>
        <time>2014-01-11T12:25:37.000Z</time>
      </trkpt>
      <trkpt lat="45.18105" lon="6.362">
        <ele>2392.8000488281</ele>
        <time>2014-01-11T12:25:38.000Z</time>
      </trkpt>
      <trkpt lat="45.18105" lon="6.362">
        <ele>2392.6000976562</ele>
        <time>2014-01-11T12:25:39.000Z</time>
      </trkpt>
      <trkpt lat="45.18105" lon="6.362">
        <ele>2392.6000976562</ele>
        <time>2014-01-11T12:25:40.000Z</time>
      </trkpt>
      <trkpt lat="45.18105" lon="6.362">
        <ele>2392.3999023438</ele>
        <time>2014-01-11T12:25:41.000Z</time>
      </trkpt>
      <trkpt lat="45.18104" lon="6.36197">
        <ele>2392.3999023438</ele>
        <time>2014-01-11T12:25:42.000Z</time>
      </trkpt>
      <trkpt lat="45.18102" lon="6.36196">
        <ele>2392.1999511719</ele>
        <time>2014-01-11T12:25:43.000Z</time>
      </trkpt>
      <trkpt lat="45.18101" lon="6.36196">
        <ele>2392.1999511719</ele>
        <time>2014-01-11T12:25:44.000Z</time>
      </trkpt>
      <trkpt lat="45.18102" lon="6.36195">
        <ele>2391.8000488281</ele>
        <time>2014-01-11T12:25:45.000Z</time>
      </trkpt>
      <trkpt lat="45.18102" lon="6.36195">
        <ele>2391.3999023438</ele>
        <time>2014-01-11T12:25:46.000Z</time>
      </trkpt>
      <trkpt lat="45.18102" lon="6.36195">
        <ele>2390.8000488281</ele>
        <time>2014-01-11T12:25:47.000Z</time>
      </trkpt>
      <trkpt lat="45.18102" lon="6.36195">
        <ele>2390</ele>
        <time>2014-01-11T12:25:48.000Z</time>
      </trkpt>
      <trkpt lat="45.18102" lon="6.36195">
        <ele>2389.3999023438</ele>
        <time>2014-01-11T12:25:49.000Z</time>
      </trkpt>
      <trkpt lat="45.18102" lon="6.36195">
        <ele>2389</ele>
        <time>2014-01-11T12:25:50.000Z</time>
      </trkpt>
      <trkpt lat="45.18102" lon="6.36195">
        <ele>2388.8000488281</ele>
        <time>2014-01-11T12:25:51.000Z</time>
      </trkpt>
      <trkpt lat="45.18102" lon="6.36195">
        <ele>2388.6000976562</ele>
        <time>2014-01-11T12:25:52.000Z</time>
      </trkpt>
      <trkpt lat="45.18102" lon="6.36195">
        <ele>2388.6000976562</ele>
        <time>2014-01-11T12:25:53.000Z</time>
      </trkpt>
      <trkpt lat="45.18102" lon="6.36195">
        <ele>2388.6000976562</ele>
        <time>2014-01-11T12:25:54.000Z</time>
      </trkpt>
      <trkpt lat="45.18102" lon="6.36195">
        <ele>2388.6000976562</ele>
        <time>2014-01-11T12:25:55.000Z</time>
      </trkpt>
      <trkpt lat="45.18102" lon="6.36195">
        <ele>2388.6000976562</ele>
        <time>2014-01-11T12:25:57.000Z</time>
      </trkpt>
      <trkpt lat="45.18102" lon="6.36195">
        <ele>2388.6000976562</ele>
        <time>2014-01-11T12:25:58.000Z</time>
      </trkpt>
      <trkpt lat="45.18102" lon="6.36195">
        <ele>2388.6000976562</ele>
        <time>2014-01-11T12:25:59.000Z</time>
      </trkpt>
      <trkpt lat="45.18102" lon="6.36195">
        <ele>2388.6000976562</ele>
        <time>2014-01-11T12:26:00.000Z</time>
      </trkpt>
      <trkpt lat="45.18102" lon="6.36195">
        <ele>2388.6000976562</ele>
        <time>2014-01-11T12:26:01.000Z</time>
      </trkpt>
      <trkpt lat="45.18102" lon="6.36195">
        <ele>2388.3999023438</ele>
        <time>2014-01-11T12:26:02.000Z</time>
      </trkpt>
      <trkpt lat="45.18102" lon="6.36195">
        <ele>2388.3999023438</ele>
        <time>2014-01-11T12:26:03.000Z</time>
      </trkpt>
      <trkpt lat="45.18102" lon="6.36195">
        <ele>2388.3999023438</ele>
        <time>2014-01-11T12:26:04.000Z</time>
      </trkpt>
      <trkpt lat="45.18102" lon="6.36195">
        <ele>2388.3999023438</ele>
        <time>2014-01-11T12:26:05.000Z</time>
      </trkpt>
      <trkpt lat="45.18102" lon="6.36195">
        <ele>2388.1999511719</ele>
        <time>2014-01-11T12:26:06.000Z</time>
      </trkpt>
      <trkpt lat="45.18102" lon="6.36195">
        <ele>2388.1999511719</ele>
        <time>2014-01-11T12:26:07.000Z</time>
      </trkpt>
      <trkpt lat="45.18101" lon="6.36195">
        <ele>2388.1999511719</ele>
        <time>2014-01-11T12:26:08.000Z</time>
      </trkpt>
      <trkpt lat="45.18098" lon="6.36196">
        <ele>2388</ele>
        <time>2014-01-11T12:26:09.000Z</time>
      </trkpt>
      <trkpt lat="45.18095" lon="6.36198">
        <ele>2387.8000488281</ele>
        <time>2014-01-11T12:26:10.000Z</time>
      </trkpt>
      <trkpt lat="45.18094" lon="6.36199">
        <ele>2387.6000976562</ele>
        <time>2014-01-11T12:26:11.000Z</time>
      </trkpt>
      <trkpt lat="45.18092" lon="6.36198">
        <ele>2387.3999023438</ele>
        <time>2014-01-11T12:26:12.000Z</time>
      </trkpt>
      <trkpt lat="45.1809" lon="6.36198">
        <ele>2387.1999511719</ele>
        <time>2014-01-11T12:26:13.000Z</time>
      </trkpt>
      <trkpt lat="45.18089" lon="6.36196">
        <ele>2386.8000488281</ele>
        <time>2014-01-11T12:26:14.000Z</time>
      </trkpt>
      <trkpt lat="45.1809" lon="6.36191">
        <ele>2386.1999511719</ele>
        <time>2014-01-11T12:26:15.000Z</time>
      </trkpt>
      <trkpt lat="45.1809" lon="6.36187">
        <ele>2385.3999023438</ele>
        <time>2014-01-11T12:26:16.000Z</time>
      </trkpt>
      <trkpt lat="45.1809" lon="6.36184">
        <ele>2384.6000976562</ele>
        <time>2014-01-11T12:26:17.000Z</time>
      </trkpt>
      <trkpt lat="45.18088" lon="6.36182">
        <ele>2383.8000488281</ele>
        <time>2014-01-11T12:26:18.000Z</time>
      </trkpt>
      <trkpt lat="45.18086" lon="6.36182">
        <ele>2382.8000488281</ele>
        <time>2014-01-11T12:26:19.000Z</time>
      </trkpt>
      <trkpt lat="45.18086" lon="6.3618">
        <ele>2382.1999511719</ele>
        <time>2014-01-11T12:26:20.000Z</time>
      </trkpt>
      <trkpt lat="45.18087" lon="6.36178">
        <ele>2381.1999511719</ele>
        <time>2014-01-11T12:26:21.000Z</time>
      </trkpt>
      <trkpt lat="45.18088" lon="6.36175">
        <ele>2380.1999511719</ele>
        <time>2014-01-11T12:26:22.000Z</time>
      </trkpt>
      <trkpt lat="45.18088" lon="6.36173">
        <ele>2378.6000976562</ele>
        <time>2014-01-11T12:26:23.000Z</time>
      </trkpt>
      <trkpt lat="45.18088" lon="6.36172">
        <ele>2377.1999511719</ele>
        <time>2014-01-11T12:26:24.000Z</time>
      </trkpt>
      <trkpt lat="45.18088" lon="6.36169">
        <ele>2374.8000488281</ele>
        <time>2014-01-11T12:26:25.000Z</time>
      </trkpt>
      <trkpt lat="45.18088" lon="6.36165">
        <ele>2374</ele>
        <time>2014-01-11T12:26:26.000Z</time>
      </trkpt>
      <trkpt lat="45.18089" lon="6.36163">
        <ele>2373</ele>
        <time>2014-01-11T12:26:27.000Z</time>
      </trkpt>
      <trkpt lat="45.18087" lon="6.36162">
        <ele>2371.8000488281</ele>
        <time>2014-01-11T12:26:28.000Z</time>
      </trkpt>
      <trkpt lat="45.18084" lon="6.36163">
        <ele>2370.8000488281</ele>
        <time>2014-01-11T12:26:29.000Z</time>
      </trkpt>
      <trkpt lat="45.18082" lon="6.36165">
        <ele>2369.6000976562</ele>
        <time>2014-01-11T12:26:30.000Z</time>
      </trkpt>
      <trkpt lat="45.18078" lon="6.36168">
        <ele>2368.6000976562</ele>
        <time>2014-01-11T12:26:31.000Z</time>
      </trkpt>
      <trkpt lat="45.18075" lon="6.36171">
        <ele>2367.1999511719</ele>
        <time>2014-01-11T12:26:32.000Z</time>
      </trkpt>
      <trkpt lat="45.18071" lon="6.36172">
        <ele>2366.1999511719</ele>
        <time>2014-01-11T12:26:33.000Z</time>
      </trkpt>
      <trkpt lat="45.18069" lon="6.36174">
        <ele>2365.3999023438</ele>
        <time>2014-01-11T12:26:34.000Z</time>
      </trkpt>
      <trkpt lat="45.18066" lon="6.36175">
        <ele>2364.8000488281</ele>
        <time>2014-01-11T12:26:35.000Z</time>
      </trkpt>
      <trkpt lat="45.18064" lon="6.36176">
        <ele>2364.1999511719</ele>
        <time>2014-01-11T12:26:36.000Z</time>
      </trkpt>
      <trkpt lat="45.1806" lon="6.36178">
        <ele>2364</ele>
        <time>2014-01-11T12:26:37.000Z</time>
      </trkpt>
      <trkpt lat="45.18057" lon="6.36179">
        <ele>2363.6000976562</ele>
        <time>2014-01-11T12:26:38.000Z</time>
      </trkpt>
      <trkpt lat="45.18055" lon="6.3618">
        <ele>2363.1999511719</ele>
        <time>2014-01-11T12:26:39.000Z</time>
      </trkpt>
      <trkpt lat="45.18055" lon="6.36181">
        <ele>2363</ele>
        <time>2014-01-11T12:26:40.000Z</time>
      </trkpt>
      <trkpt lat="45.18054" lon="6.36181">
        <ele>2362.6000976562</ele>
        <time>2014-01-11T12:26:41.000Z</time>
      </trkpt>
      <trkpt lat="45.18052" lon="6.36181">
        <ele>2362.1999511719</ele>
        <time>2014-01-11T12:26:42.000Z</time>
      </trkpt>
      <trkpt lat="45.1805" lon="6.36181">
        <ele>2361.8000488281</ele>
        <time>2014-01-11T12:26:43.000Z</time>
      </trkpt>
      <trkpt lat="45.18048" lon="6.3618">
        <ele>2361.6000976562</ele>
        <time>2014-01-11T12:26:44.000Z</time>
      </trkpt>
      <trkpt lat="45.18046" lon="6.3618">
        <ele>2361.3999023438</ele>
        <time>2014-01-11T12:26:45.000Z</time>
      </trkpt>
      <trkpt lat="45.18046" lon="6.3618">
        <ele>2361.1999511719</ele>
        <time>2014-01-11T12:26:46.000Z</time>
      </trkpt>
      <trkpt lat="45.18046" lon="6.3618">
        <ele>2361</ele>
        <time>2014-01-11T12:26:47.000Z</time>
      </trkpt>
      <trkpt lat="45.18046" lon="6.3618">
        <ele>2360.8000488281</ele>
        <time>2014-01-11T12:26:48.000Z</time>
      </trkpt>
      <trkpt lat="45.18046" lon="6.3618">
        <ele>2360.1999511719</ele>
        <time>2014-01-11T12:26:49.000Z</time>
      </trkpt>
      <trkpt lat="45.18046" lon="6.3618">
        <ele>2360.1999511719</ele>
        <time>2014-01-11T12:26:50.000Z</time>
      </trkpt>
      <trkpt lat="45.18046" lon="6.3618">
        <ele>2360</ele>
        <time>2014-01-11T12:26:51.000Z</time>
      </trkpt>
      <trkpt lat="45.18045" lon="6.3618">
        <ele>2360</ele>
        <time>2014-01-11T12:26:52.000Z</time>
      </trkpt>
      <trkpt lat="45.18043" lon="6.36178">
        <ele>2359.8000488281</ele>
        <time>2014-01-11T12:26:53.000Z</time>
      </trkpt>
      <trkpt lat="45.18045" lon="6.36174">
        <ele>2359.8000488281</ele>
        <time>2014-01-11T12:26:54.000Z</time>
      </trkpt>
      <trkpt lat="45.18046" lon="6.36173">
        <ele>2359.6000976562</ele>
        <time>2014-01-11T12:26:55.000Z</time>
      </trkpt>
      <trkpt lat="45.18048" lon="6.36171">
        <ele>2359.3999023438</ele>
        <time>2014-01-11T12:26:56.000Z</time>
      </trkpt>
      <trkpt lat="45.1805" lon="6.36169">
        <ele>2358.8000488281</ele>
        <time>2014-01-11T12:26:57.000Z</time>
      </trkpt>
      <trkpt lat="45.18049" lon="6.36164">
        <ele>2358.3999023438</ele>
        <time>2014-01-11T12:26:58.000Z</time>
      </trkpt>
      <trkpt lat="45.18046" lon="6.36161">
        <ele>2357.8000488281</ele>
        <time>2014-01-11T12:26:59.000Z</time>
      </trkpt>
      <trkpt lat="45.18043" lon="6.36158">
        <ele>2357.1999511719</ele>
        <time>2014-01-11T12:27:00.000Z</time>
      </trkpt>
      <trkpt lat="45.18041" lon="6.36157">
        <ele>2356.6000976562</ele>
        <time>2014-01-11T12:27:01.000Z</time>
      </trkpt>
      <trkpt lat="45.18041" lon="6.36157">
        <ele>2355.8000488281</ele>
        <time>2014-01-11T12:27:02.000Z</time>
      </trkpt>
      <trkpt lat="45.1804" lon="6.36157">
        <ele>2354.6000976562</ele>
        <time>2014-01-11T12:27:03.000Z</time>
      </trkpt>
      <trkpt lat="45.1804" lon="6.36156">
        <ele>2353.3999023438</ele>
        <time>2014-01-11T12:27:04.000Z</time>
      </trkpt>
      <trkpt lat="45.1804" lon="6.36156">
        <ele>2352.3999023438</ele>
        <time>2014-01-11T12:27:05.000Z</time>
      </trkpt>
      <trkpt lat="45.1804" lon="6.36156">
        <ele>2351.6000976562</ele>
        <time>2014-01-11T12:27:06.000Z</time>
      </trkpt>
      <trkpt lat="45.1804" lon="6.36156">
        <ele>2351.1999511719</ele>
        <time>2014-01-11T12:27:07.000Z</time>
      </trkpt>
      <trkpt lat="45.1804" lon="6.36156">
        <ele>2350.8000488281</ele>
        <time>2014-01-11T12:27:08.000Z</time>
      </trkpt>
      <trkpt lat="45.1804" lon="6.36156">
        <ele>2350.6000976562</ele>
        <time>2014-01-11T12:27:09.000Z</time>
      </trkpt>
      <trkpt lat="45.1804" lon="6.36156">
        <ele>2350.6000976562</ele>
        <time>2014-01-11T12:27:10.000Z</time>
      </trkpt>
      <trkpt lat="45.1804" lon="6.36156">
        <ele>2350.6000976562</ele>
        <time>2014-01-11T12:27:11.000Z</time>
      </trkpt>
      <trkpt lat="45.1804" lon="6.36156">
        <ele>2350.3999023438</ele>
        <time>2014-01-11T12:27:12.000Z</time>
      </trkpt>
      <trkpt lat="45.1804" lon="6.36156">
        <ele>2350.3999023438</ele>
        <time>2014-01-11T12:27:13.000Z</time>
      </trkpt>
      <trkpt lat="45.1804" lon="6.36156">
        <ele>2350.3999023438</ele>
        <time>2014-01-11T12:27:14.000Z</time>
      </trkpt>
      <trkpt lat="45.1804" lon="6.36156">
        <ele>2350.3999023438</ele>
        <time>2014-01-11T12:27:15.000Z</time>
      </trkpt>
      <trkpt lat="45.1804" lon="6.36156">
        <ele>2350.3999023438</ele>
        <time>2014-01-11T12:27:18.000Z</time>
      </trkpt>
      <trkpt lat="45.1804" lon="6.36156">
        <ele>2350.3999023438</ele>
        <time>2014-01-11T12:27:19.000Z</time>
      </trkpt>
      <trkpt lat="45.18042" lon="6.36154">
        <ele>2350.3999023438</ele>
        <time>2014-01-11T12:27:20.000Z</time>
      </trkpt>
      <trkpt lat="45.18043" lon="6.36153">
        <ele>2350.3999023438</ele>
        <time>2014-01-11T12:27:21.000Z</time>
      </trkpt>
      <trkpt lat="45.18044" lon="6.36152">
        <ele>2350.1999511719</ele>
        <time>2014-01-11T12:27:22.000Z</time>
      </trkpt>
      <trkpt lat="45.18044" lon="6.36149">
        <ele>2349.6000976562</ele>
        <time>2014-01-11T12:27:23.000Z</time>
      </trkpt>
      <trkpt lat="45.18043" lon="6.36146">
        <ele>2349.1999511719</ele>
        <time>2014-01-11T12:27:24.000Z</time>
      </trkpt>
      <trkpt lat="45.18042" lon="6.36142">
        <ele>2348.8000488281</ele>
        <time>2014-01-11T12:27:25.000Z</time>
      </trkpt>
      <trkpt lat="45.18043" lon="6.36137">
        <ele>2348.3999023438</ele>
        <time>2014-01-11T12:27:26.000Z</time>
      </trkpt>
      <trkpt lat="45.18043" lon="6.36132">
        <ele>2347.8000488281</ele>
        <time>2014-01-11T12:27:27.000Z</time>
      </trkpt>
      <trkpt lat="45.18043" lon="6.36124">
        <ele>2346.8000488281</ele>
        <time>2014-01-11T12:27:28.000Z</time>
      </trkpt>
      <trkpt lat="45.18041" lon="6.36119">
        <ele>2345.6000976562</ele>
        <time>2014-01-11T12:27:29.000Z</time>
      </trkpt>
      <trkpt lat="45.18042" lon="6.36112">
        <ele>2344.3999023438</ele>
        <time>2014-01-11T12:27:30.000Z</time>
      </trkpt>
      <trkpt lat="45.18042" lon="6.36105">
        <ele>2342.8000488281</ele>
        <time>2014-01-11T12:27:31.000Z</time>
      </trkpt>
      <trkpt lat="45.18042" lon="6.36098">
        <ele>2341</ele>
        <time>2014-01-11T12:27:32.000Z</time>
      </trkpt>
      <trkpt lat="45.18042" lon="6.36092">
        <ele>2339.1999511719</ele>
        <time>2014-01-11T12:27:33.000Z</time>
      </trkpt>
      <trkpt lat="45.18042" lon="6.36087">
        <ele>2337</ele>
        <time>2014-01-11T12:27:34.000Z</time>
      </trkpt>
      <trkpt lat="45.18044" lon="6.36081">
        <ele>2335</ele>
        <time>2014-01-11T12:27:35.000Z</time>
      </trkpt>
      <trkpt lat="45.18045" lon="6.36076">
        <ele>2333</ele>
        <time>2014-01-11T12:27:36.000Z</time>
      </trkpt>
      <trkpt lat="45.18045" lon="6.36075">
        <ele>2328.8000488281</ele>
        <time>2014-01-11T12:27:37.000Z</time>
      </trkpt>
      <trkpt lat="45.18044" lon="6.36074">
        <ele>2327</ele>
        <time>2014-01-11T12:27:38.000Z</time>
      </trkpt>
      <trkpt lat="45.18043" lon="6.36073">
        <ele>2325.1999511719</ele>
        <time>2014-01-11T12:27:39.000Z</time>
      </trkpt>
      <trkpt lat="45.18043" lon="6.36074">
        <ele>2323.6000976562</ele>
        <time>2014-01-11T12:27:40.000Z</time>
      </trkpt>
      <trkpt lat="45.18043" lon="6.36074">
        <ele>2322.3999023438</ele>
        <time>2014-01-11T12:27:41.000Z</time>
      </trkpt>
      <trkpt lat="45.18043" lon="6.36074">
        <ele>2321.8000488281</ele>
        <time>2014-01-11T12:27:42.000Z</time>
      </trkpt>
      <trkpt lat="45.18043" lon="6.36074">
        <ele>2321.3999023438</ele>
        <time>2014-01-11T12:27:43.000Z</time>
      </trkpt>
      <trkpt lat="45.18043" lon="6.36074">
        <ele>2321.1999511719</ele>
        <time>2014-01-11T12:27:44.000Z</time>
      </trkpt>
      <trkpt lat="45.18043" lon="6.36074">
        <ele>2321</ele>
        <time>2014-01-11T12:27:45.000Z</time>
      </trkpt>
      <trkpt lat="45.18043" lon="6.36074">
        <ele>2321</ele>
        <time>2014-01-11T12:27:46.000Z</time>
      </trkpt>
      <trkpt lat="45.18043" lon="6.36074">
        <ele>2321</ele>
        <time>2014-01-11T12:27:48.000Z</time>
      </trkpt>
      <trkpt lat="45.18043" lon="6.36074">
        <ele>2321.1999511719</ele>
        <time>2014-01-11T12:27:49.000Z</time>
      </trkpt>
      <trkpt lat="45.18043" lon="6.36074">
        <ele>2321.1999511719</ele>
        <time>2014-01-11T12:27:51.000Z</time>
      </trkpt>
      <trkpt lat="45.18043" lon="6.36074">
        <ele>2321</ele>
        <time>2014-01-11T12:27:52.000Z</time>
      </trkpt>
      <trkpt lat="45.18043" lon="6.36074">
        <ele>2321</ele>
        <time>2014-01-11T12:27:53.000Z</time>
      </trkpt>
      <trkpt lat="45.18043" lon="6.36074">
        <ele>2320.8000488281</ele>
        <time>2014-01-11T12:27:54.000Z</time>
      </trkpt>
      <trkpt lat="45.18043" lon="6.36074">
        <ele>2320.8000488281</ele>
        <time>2014-01-11T12:27:55.000Z</time>
      </trkpt>
      <trkpt lat="45.18043" lon="6.36074">
        <ele>2320.8000488281</ele>
        <time>2014-01-11T12:27:56.000Z</time>
      </trkpt>
      <trkpt lat="45.18043" lon="6.36074">
        <ele>2320.8000488281</ele>
        <time>2014-01-11T12:27:57.000Z</time>
      </trkpt>
      <trkpt lat="45.18043" lon="6.36074">
        <ele>2320.8000488281</ele>
        <time>2014-01-11T12:27:58.000Z</time>
      </trkpt>
      <trkpt lat="45.18043" lon="6.36074">
        <ele>2320.8000488281</ele>
        <time>2014-01-11T12:27:59.000Z</time>
      </trkpt>
      <trkpt lat="45.18043" lon="6.36074">
        <ele>2320.8000488281</ele>
        <time>2014-01-11T12:28:03.000Z</time>
      </trkpt>
      <trkpt lat="45.18043" lon="6.36074">
        <ele>2320.8000488281</ele>
        <time>2014-01-11T12:28:04.000Z</time>
      </trkpt>
      <trkpt lat="45.18043" lon="6.36074">
        <ele>2320.8000488281</ele>
        <time>2014-01-11T12:28:05.000Z</time>
      </trkpt>
      <trkpt lat="45.18043" lon="6.36074">
        <ele>2320.8000488281</ele>
        <time>2014-01-11T12:28:06.000Z</time>
      </trkpt>
      <trkpt lat="45.18043" lon="6.36074">
        <ele>2320.8000488281</ele>
        <time>2014-01-11T12:28:07.000Z</time>
      </trkpt>
      <trkpt lat="45.18041" lon="6.36073">
        <ele>2320.8000488281</ele>
        <time>2014-01-11T12:28:08.000Z</time>
      </trkpt>
      <trkpt lat="45.18038" lon="6.36071">
        <ele>2320.8000488281</ele>
        <time>2014-01-11T12:28:10.000Z</time>
      </trkpt>
      <trkpt lat="45.18036" lon="6.3607">
        <ele>2320.8000488281</ele>
        <time>2014-01-11T12:28:11.000Z</time>
      </trkpt>
      <trkpt lat="45.18038" lon="6.36068">
        <ele>2320.6000976562</ele>
        <time>2014-01-11T12:28:12.000Z</time>
      </trkpt>
      <trkpt lat="45.18039" lon="6.36064">
        <ele>2320.3999023438</ele>
        <time>2014-01-11T12:28:13.000Z</time>
      </trkpt>
      <trkpt lat="45.18038" lon="6.36059">
        <ele>2320</ele>
        <time>2014-01-11T12:28:14.000Z</time>
      </trkpt>
      <trkpt lat="45.18038" lon="6.36056">
        <ele>2319.6000976562</ele>
        <time>2014-01-11T12:28:15.000Z</time>
      </trkpt>
      <trkpt lat="45.1804" lon="6.36051">
        <ele>2319</ele>
        <time>2014-01-11T12:28:16.000Z</time>
      </trkpt>
      <trkpt lat="45.18039" lon="6.36047">
        <ele>2318.1999511719</ele>
        <time>2014-01-11T12:28:17.000Z</time>
      </trkpt>
      <trkpt lat="45.18039" lon="6.36042">
        <ele>2317</ele>
        <time>2014-01-11T12:28:18.000Z</time>
      </trkpt>
      <trkpt lat="45.18042" lon="6.3604">
        <ele>2315.6000976562</ele>
        <time>2014-01-11T12:28:19.000Z</time>
      </trkpt>
      <trkpt lat="45.18044" lon="6.36037">
        <ele>2314</ele>
        <time>2014-01-11T12:28:20.000Z</time>
      </trkpt>
      <trkpt lat="45.18045" lon="6.36033">
        <ele>2312.3999023438</ele>
        <time>2014-01-11T12:28:21.000Z</time>
      </trkpt>
      <trkpt lat="45.18045" lon="6.3603">
        <ele>2310.6000976562</ele>
        <time>2014-01-11T12:28:22.000Z</time>
      </trkpt>
      <trkpt lat="45.18047" lon="6.36026">
        <ele>2309</ele>
        <time>2014-01-11T12:28:23.000Z</time>
      </trkpt>
      <trkpt lat="45.18048" lon="6.36021">
        <ele>2307.3999023438</ele>
        <time>2014-01-11T12:28:24.000Z</time>
      </trkpt>
      <trkpt lat="45.18049" lon="6.36017">
        <ele>2303.3999023438</ele>
        <time>2014-01-11T12:28:25.000Z</time>
      </trkpt>
      <trkpt lat="45.1805" lon="6.36012">
        <ele>2301.1999511719</ele>
        <time>2014-01-11T12:28:26.000Z</time>
      </trkpt>
      <trkpt lat="45.18051" lon="6.36006">
        <ele>2298.8000488281</ele>
        <time>2014-01-11T12:28:27.000Z</time>
      </trkpt>
      <trkpt lat="45.18052" lon="6.36001">
        <ele>2296.3999023438</ele>
        <time>2014-01-11T12:28:28.000Z</time>
      </trkpt>
      <trkpt lat="45.18054" lon="6.35996">
        <ele>2294.1999511719</ele>
        <time>2014-01-11T12:28:29.000Z</time>
      </trkpt>
      <trkpt lat="45.18055" lon="6.35988">
        <ele>2291.8000488281</ele>
        <time>2014-01-11T12:28:30.000Z</time>
      </trkpt>
      <trkpt lat="45.18055" lon="6.35982">
        <ele>2289.6000976562</ele>
        <time>2014-01-11T12:28:31.000Z</time>
      </trkpt>
      <trkpt lat="45.18056" lon="6.35977">
        <ele>2287.1999511719</ele>
        <time>2014-01-11T12:28:32.000Z</time>
      </trkpt>
      <trkpt lat="45.18058" lon="6.3597">
        <ele>2284.8000488281</ele>
        <time>2014-01-11T12:28:33.000Z</time>
      </trkpt>
      <trkpt lat="45.18059" lon="6.35962">
        <ele>2282.3999023438</ele>
        <time>2014-01-11T12:28:34.000Z</time>
      </trkpt>
      <trkpt lat="45.18059" lon="6.35954">
        <ele>2280.1999511719</ele>
        <time>2014-01-11T12:28:35.000Z</time>
      </trkpt>
      <trkpt lat="45.1806" lon="6.35948">
        <ele>2277.6000976562</ele>
        <time>2014-01-11T12:28:36.000Z</time>
      </trkpt>
      <trkpt lat="45.18062" lon="6.3594">
        <ele>2275</ele>
        <time>2014-01-11T12:28:37.000Z</time>
      </trkpt>
      <trkpt lat="45.18063" lon="6.35933">
        <ele>2272.1999511719</ele>
        <time>2014-01-11T12:28:38.000Z</time>
      </trkpt>
      <trkpt lat="45.18064" lon="6.35927">
        <ele>2269.6000976562</ele>
        <time>2014-01-11T12:28:39.000Z</time>
      </trkpt>
      <trkpt lat="45.18066" lon="6.35919">
        <ele>2267.1999511719</ele>
        <time>2014-01-11T12:28:40.000Z</time>
      </trkpt>
      <trkpt lat="45.18069" lon="6.35912">
        <ele>2265</ele>
        <time>2014-01-11T12:28:41.000Z</time>
      </trkpt>
      <trkpt lat="45.18073" lon="6.35904">
        <ele>2262.6000976562</ele>
        <time>2014-01-11T12:28:42.000Z</time>
      </trkpt>
      <trkpt lat="45.18076" lon="6.35895">
        <ele>2260.3999023438</ele>
        <time>2014-01-11T12:28:43.000Z</time>
      </trkpt>
      <trkpt lat="45.18077" lon="6.35887">
        <ele>2258.1999511719</ele>
        <time>2014-01-11T12:28:44.000Z</time>
      </trkpt>
      <trkpt lat="45.18079" lon="6.3588">
        <ele>2256</ele>
        <time>2014-01-11T12:28:45.000Z</time>
      </trkpt>
      <trkpt lat="45.18082" lon="6.35874">
        <ele>2253.6000976562</ele>
        <time>2014-01-11T12:28:46.000Z</time>
      </trkpt>
      <trkpt lat="45.18083" lon="6.35866">
        <ele>2251.3999023438</ele>
        <time>2014-01-11T12:28:47.000Z</time>
      </trkpt>
      <trkpt lat="45.18085" lon="6.35857">
        <ele>2249</ele>
        <time>2014-01-11T12:28:48.000Z</time>
      </trkpt>
      <trkpt lat="45.18088" lon="6.35848">
        <ele>2245.1999511719</ele>
        <time>2014-01-11T12:28:49.000Z</time>
      </trkpt>
      <trkpt lat="45.18089" lon="6.3584">
        <ele>2243.3999023438</ele>
        <time>2014-01-11T12:28:50.000Z</time>
      </trkpt>
      <trkpt lat="45.1809" lon="6.35836">
        <ele>2241.6000976562</ele>
        <time>2014-01-11T12:28:51.000Z</time>
      </trkpt>
      <trkpt lat="45.18092" lon="6.35834">
        <ele>2239.3999023438</ele>
        <time>2014-01-11T12:28:52.000Z</time>
      </trkpt>
      <trkpt lat="45.18093" lon="6.35834">
        <ele>2237.3999023438</ele>
        <time>2014-01-11T12:28:53.000Z</time>
      </trkpt>
      <trkpt lat="45.18094" lon="6.35835">
        <ele>2235.6000976562</ele>
        <time>2014-01-11T12:28:54.000Z</time>
      </trkpt>
      <trkpt lat="45.18094" lon="6.35835">
        <ele>2234</ele>
        <time>2014-01-11T12:28:55.000Z</time>
      </trkpt>
      <trkpt lat="45.18094" lon="6.35835">
        <ele>2232.8000488281</ele>
        <time>2014-01-11T12:28:56.000Z</time>
      </trkpt>
      <trkpt lat="45.18094" lon="6.35835">
        <ele>2232.1999511719</ele>
        <time>2014-01-11T12:28:57.000Z</time>
      </trkpt>
      <trkpt lat="45.18094" lon="6.35835">
        <ele>2231.8000488281</ele>
        <time>2014-01-11T12:28:58.000Z</time>
      </trkpt>
      <trkpt lat="45.18094" lon="6.35835">
        <ele>2231.6000976562</ele>
        <time>2014-01-11T12:28:59.000Z</time>
      </trkpt>
      <trkpt lat="45.18094" lon="6.35835">
        <ele>2231.3999023438</ele>
        <time>2014-01-11T12:29:00.000Z</time>
      </trkpt>
      <trkpt lat="45.18094" lon="6.35835">
        <ele>2231.3999023438</ele>
        <time>2014-01-11T12:29:01.000Z</time>
      </trkpt>
      <trkpt lat="45.18094" lon="6.35835">
        <ele>2231.3999023438</ele>
        <time>2014-01-11T12:29:02.000Z</time>
      </trkpt>
      <trkpt lat="45.18094" lon="6.35835">
        <ele>2231.3999023438</ele>
        <time>2014-01-11T12:29:03.000Z</time>
      </trkpt>
      <trkpt lat="45.18094" lon="6.35835">
        <ele>2231.3999023438</ele>
        <time>2014-01-11T12:29:04.000Z</time>
      </trkpt>
      <trkpt lat="45.18094" lon="6.35835">
        <ele>2231.3999023438</ele>
        <time>2014-01-11T12:29:05.000Z</time>
      </trkpt>
      <trkpt lat="45.18094" lon="6.35835">
        <ele>2231.3999023438</ele>
        <time>2014-01-11T12:29:06.000Z</time>
      </trkpt>
      <trkpt lat="45.18094" lon="6.35835">
        <ele>2231.3999023438</ele>
        <time>2014-01-11T12:29:07.000Z</time>
      </trkpt>
      <trkpt lat="45.18094" lon="6.35835">
        <ele>2231.3999023438</ele>
        <time>2014-01-11T12:29:08.000Z</time>
      </trkpt>
      <trkpt lat="45.18094" lon="6.35835">
        <ele>2231.3999023438</ele>
        <time>2014-01-11T12:29:10.000Z</time>
      </trkpt>
      <trkpt lat="45.18094" lon="6.35835">
        <ele>2231.3999023438</ele>
        <time>2014-01-11T12:29:13.000Z</time>
      </trkpt>
      <trkpt lat="45.18094" lon="6.35835">
        <ele>2231.3999023438</ele>
        <time>2014-01-11T12:29:14.000Z</time>
      </trkpt>
      <trkpt lat="45.18094" lon="6.35835">
        <ele>2231.3999023438</ele>
        <time>2014-01-11T12:29:16.000Z</time>
      </trkpt>
      <trkpt lat="45.18094" lon="6.35835">
        <ele>2231.3999023438</ele>
        <time>2014-01-11T12:29:17.000Z</time>
      </trkpt>
      <trkpt lat="45.18094" lon="6.35835">
        <ele>2231.3999023438</ele>
        <time>2014-01-11T12:29:18.000Z</time>
      </trkpt>
      <trkpt lat="45.18094" lon="6.35835">
        <ele>2231.3999023438</ele>
        <time>2014-01-11T12:29:19.000Z</time>
      </trkpt>
      <trkpt lat="45.18094" lon="6.35835">
        <ele>2231.3999023438</ele>
        <time>2014-01-11T12:29:20.000Z</time>
      </trkpt>
      <trkpt lat="45.18094" lon="6.35835">
        <ele>2231.3999023438</ele>
        <time>2014-01-11T12:29:21.000Z</time>
      </trkpt>
      <trkpt lat="45.18094" lon="6.35835">
        <ele>2231.1999511719</ele>
        <time>2014-01-11T12:29:22.000Z</time>
      </trkpt>
      <trkpt lat="45.18094" lon="6.35835">
        <ele>2231.1999511719</ele>
        <time>2014-01-11T12:29:23.000Z</time>
      </trkpt>
      <trkpt lat="45.18094" lon="6.35835">
        <ele>2231.1999511719</ele>
        <time>2014-01-11T12:29:24.000Z</time>
      </trkpt>
      <trkpt lat="45.18094" lon="6.35835">
        <ele>2231.1999511719</ele>
        <time>2014-01-11T12:29:25.000Z</time>
      </trkpt>
      <trkpt lat="45.18094" lon="6.35835">
        <ele>2231.1999511719</ele>
        <time>2014-01-11T12:29:26.000Z</time>
      </trkpt>
      <trkpt lat="45.18094" lon="6.35835">
        <ele>2231.1999511719</ele>
        <time>2014-01-11T12:29:27.000Z</time>
      </trkpt>
      <trkpt lat="45.18094" lon="6.35835">
        <ele>2231.1999511719</ele>
        <time>2014-01-11T12:29:30.000Z</time>
      </trkpt>
      <trkpt lat="45.18094" lon="6.35835">
        <ele>2231.1999511719</ele>
        <time>2014-01-11T12:29:31.000Z</time>
      </trkpt>
      <trkpt lat="45.18094" lon="6.35835">
        <ele>2231.1999511719</ele>
        <time>2014-01-11T12:29:32.000Z</time>
      </trkpt>
      <trkpt lat="45.18094" lon="6.35835">
        <ele>2231.1999511719</ele>
        <time>2014-01-11T12:29:33.000Z</time>
      </trkpt>
      <trkpt lat="45.18094" lon="6.35838">
        <ele>2231.1999511719</ele>
        <time>2014-01-11T12:29:34.000Z</time>
      </trkpt>
      <trkpt lat="45.18094" lon="6.35838">
        <ele>2231.1999511719</ele>
        <time>2014-01-11T12:29:35.000Z</time>
      </trkpt>
      <trkpt lat="45.18094" lon="6.35838">
        <ele>2231.1999511719</ele>
        <time>2014-01-11T12:29:36.000Z</time>
      </trkpt>
      <trkpt lat="45.18094" lon="6.35838">
        <ele>2231.1999511719</ele>
        <time>2014-01-11T12:29:37.000Z</time>
      </trkpt>
      <trkpt lat="45.18094" lon="6.35838">
        <ele>2231.1999511719</ele>
        <time>2014-01-11T12:29:39.000Z</time>
      </trkpt>
      <trkpt lat="45.18094" lon="6.35838">
        <ele>2231.1999511719</ele>
        <time>2014-01-11T12:29:40.000Z</time>
      </trkpt>
      <trkpt lat="45.18094" lon="6.35838">
        <ele>2231.1999511719</ele>
        <time>2014-01-11T12:29:41.000Z</time>
      </trkpt>
      <trkpt lat="45.18094" lon="6.35838">
        <ele>2231.1999511719</ele>
        <time>2014-01-11T12:29:43.000Z</time>
      </trkpt>
      <trkpt lat="45.18094" lon="6.35838">
        <ele>2231.1999511719</ele>
        <time>2014-01-11T12:29:44.000Z</time>
      </trkpt>
      <trkpt lat="45.18094" lon="6.35838">
        <ele>2231.1999511719</ele>
        <time>2014-01-11T12:29:45.000Z</time>
      </trkpt>
      <trkpt lat="45.18094" lon="6.35838">
        <ele>2231.1999511719</ele>
        <time>2014-01-11T12:29:46.000Z</time>
      </trkpt>
      <trkpt lat="45.18094" lon="6.35838">
        <ele>2231.1999511719</ele>
        <time>2014-01-11T12:29:47.000Z</time>
      </trkpt>
      <trkpt lat="45.18094" lon="6.35838">
        <ele>2231.1999511719</ele>
        <time>2014-01-11T12:29:48.000Z</time>
      </trkpt>
      <trkpt lat="45.18094" lon="6.35838">
        <ele>2231.1999511719</ele>
        <time>2014-01-11T12:29:49.000Z</time>
      </trkpt>
      <trkpt lat="45.18094" lon="6.35838">
        <ele>2231.3999023438</ele>
        <time>2014-01-11T12:29:50.000Z</time>
      </trkpt>
      <trkpt lat="45.18094" lon="6.35838">
        <ele>2231.3999023438</ele>
        <time>2014-01-11T12:29:51.000Z</time>
      </trkpt>
      <trkpt lat="45.18094" lon="6.35838">
        <ele>2231.3999023438</ele>
        <time>2014-01-11T12:29:54.000Z</time>
      </trkpt>
      <trkpt lat="45.18094" lon="6.35838">
        <ele>2231.1999511719</ele>
        <time>2014-01-11T12:29:55.000Z</time>
      </trkpt>
      <trkpt lat="45.18094" lon="6.35838">
        <ele>2231.1999511719</ele>
        <time>2014-01-11T12:29:56.000Z</time>
      </trkpt>
      <trkpt lat="45.18094" lon="6.35838">
        <ele>2231.1999511719</ele>
        <time>2014-01-11T12:29:57.000Z</time>
      </trkpt>
      <trkpt lat="45.18094" lon="6.35838">
        <ele>2231.1999511719</ele>
        <time>2014-01-11T12:29:58.000Z</time>
      </trkpt>
      <trkpt lat="45.18094" lon="6.35838">
        <ele>2231.1999511719</ele>
        <time>2014-01-11T12:29:59.000Z</time>
      </trkpt>
      <trkpt lat="45.18094" lon="6.35838">
        <ele>2231.1999511719</ele>
        <time>2014-01-11T12:30:00.000Z</time>
      </trkpt>
      <trkpt lat="45.18094" lon="6.35838">
        <ele>2231.1999511719</ele>
        <time>2014-01-11T12:30:01.000Z</time>
      </trkpt>
      <trkpt lat="45.18094" lon="6.35838">
        <ele>2231.1999511719</ele>
        <time>2014-01-11T12:30:02.000Z</time>
      </trkpt>
      <trkpt lat="45.18094" lon="6.35838">
        <ele>2231.1999511719</ele>
        <time>2014-01-11T12:30:04.000Z</time>
      </trkpt>
      <trkpt lat="45.18094" lon="6.35838">
        <ele>2231.1999511719</ele>
        <time>2014-01-11T12:30:05.000Z</time>
      </trkpt>
      <trkpt lat="45.18094" lon="6.35838">
        <ele>2231.1999511719</ele>
        <time>2014-01-11T12:30:06.000Z</time>
      </trkpt>
      <trkpt lat="45.18094" lon="6.35838">
        <ele>2231.1999511719</ele>
        <time>2014-01-11T12:30:07.000Z</time>
      </trkpt>
      <trkpt lat="45.18094" lon="6.35838">
        <ele>2231.1999511719</ele>
        <time>2014-01-11T12:30:08.000Z</time>
      </trkpt>
      <trkpt lat="45.18094" lon="6.35838">
        <ele>2231.1999511719</ele>
        <time>2014-01-11T12:30:09.000Z</time>
      </trkpt>
      <trkpt lat="45.18094" lon="6.35838">
        <ele>2231.1999511719</ele>
        <time>2014-01-11T12:30:10.000Z</time>
      </trkpt>
      <trkpt lat="45.18094" lon="6.35838">
        <ele>2231.1999511719</ele>
        <time>2014-01-11T12:30:11.000Z</time>
      </trkpt>
      <trkpt lat="45.18094" lon="6.35838">
        <ele>2231.1999511719</ele>
        <time>2014-01-11T12:30:12.000Z</time>
      </trkpt>
      <trkpt lat="45.18094" lon="6.35838">
        <ele>2231.1999511719</ele>
        <time>2014-01-11T12:30:13.000Z</time>
      </trkpt>
      <trkpt lat="45.18093" lon="6.35841">
        <ele>2231.1999511719</ele>
        <time>2014-01-11T12:30:15.000Z</time>
      </trkpt>
      <trkpt lat="45.18093" lon="6.35841">
        <ele>2231.1999511719</ele>
        <time>2014-01-11T12:30:16.000Z</time>
      </trkpt>
      <trkpt lat="45.18093" lon="6.35841">
        <ele>2231.1999511719</ele>
        <time>2014-01-11T12:30:17.000Z</time>
      </trkpt>
      <trkpt lat="45.18093" lon="6.35841">
        <ele>2231.1999511719</ele>
        <time>2014-01-11T12:30:18.000Z</time>
      </trkpt>
      <trkpt lat="45.18093" lon="6.35841">
        <ele>2231.1999511719</ele>
        <time>2014-01-11T12:30:19.000Z</time>
      </trkpt>
      <trkpt lat="45.18093" lon="6.35841">
        <ele>2231.1999511719</ele>
        <time>2014-01-11T12:30:21.000Z</time>
      </trkpt>
      <trkpt lat="45.18093" lon="6.35841">
        <ele>2231.1999511719</ele>
        <time>2014-01-11T12:30:22.000Z</time>
      </trkpt>
      <trkpt lat="45.18093" lon="6.35841">
        <ele>2231.1999511719</ele>
        <time>2014-01-11T12:30:23.000Z</time>
      </trkpt>
      <trkpt lat="45.18093" lon="6.35841">
        <ele>2231.1999511719</ele>
        <time>2014-01-11T12:30:24.000Z</time>
      </trkpt>
      <trkpt lat="45.18093" lon="6.35841">
        <ele>2231.1999511719</ele>
        <time>2014-01-11T12:30:26.000Z</time>
      </trkpt>
      <trkpt lat="45.18093" lon="6.35841">
        <ele>2231.1999511719</ele>
        <time>2014-01-11T12:30:27.000Z</time>
      </trkpt>
      <trkpt lat="45.18093" lon="6.35841">
        <ele>2231.1999511719</ele>
        <time>2014-01-11T12:30:28.000Z</time>
      </trkpt>
      <trkpt lat="45.18093" lon="6.35841">
        <ele>2231.1999511719</ele>
        <time>2014-01-11T12:30:29.000Z</time>
      </trkpt>
      <trkpt lat="45.18093" lon="6.35841">
        <ele>2231.1999511719</ele>
        <time>2014-01-11T12:30:31.000Z</time>
      </trkpt>
      <trkpt lat="45.18093" lon="6.35841">
        <ele>2231.1999511719</ele>
        <time>2014-01-11T12:30:32.000Z</time>
      </trkpt>
      <trkpt lat="45.18093" lon="6.35841">
        <ele>2231.1999511719</ele>
        <time>2014-01-11T12:30:33.000Z</time>
      </trkpt>
      <trkpt lat="45.18094" lon="6.35839">
        <ele>2231.1999511719</ele>
        <time>2014-01-11T12:30:36.000Z</time>
      </trkpt>
      <trkpt lat="45.18098" lon="6.35836">
        <ele>2231.1999511719</ele>
        <time>2014-01-11T12:30:37.000Z</time>
      </trkpt>
      <trkpt lat="45.18102" lon="6.35834">
        <ele>2231</ele>
        <time>2014-01-11T12:30:38.000Z</time>
      </trkpt>
      <trkpt lat="45.18106" lon="6.35828">
        <ele>2231</ele>
        <time>2014-01-11T12:30:39.000Z</time>
      </trkpt>
      <trkpt lat="45.18108" lon="6.35824">
        <ele>2230.6000976562</ele>
        <time>2014-01-11T12:30:40.000Z</time>
      </trkpt>
      <trkpt lat="45.18111" lon="6.35819">
        <ele>2230</ele>
        <time>2014-01-11T12:30:41.000Z</time>
      </trkpt>
      <trkpt lat="45.18114" lon="6.35815">
        <ele>2228.8000488281</ele>
        <time>2014-01-11T12:30:42.000Z</time>
      </trkpt>
      <trkpt lat="45.18118" lon="6.35812">
        <ele>2227.6000976562</ele>
        <time>2014-01-11T12:30:43.000Z</time>
      </trkpt>
      <trkpt lat="45.18119" lon="6.35808">
        <ele>2226</ele>
        <time>2014-01-11T12:30:44.000Z</time>
      </trkpt>
      <trkpt lat="45.18121" lon="6.35804">
        <ele>2224.1999511719</ele>
        <time>2014-01-11T12:30:45.000Z</time>
      </trkpt>
      <trkpt lat="45.18122" lon="6.35799">
        <ele>2222.1999511719</ele>
        <time>2014-01-11T12:30:46.000Z</time>
      </trkpt>
      <trkpt lat="45.18122" lon="6.35795">
        <ele>2220.3999023438</ele>
        <time>2014-01-11T12:30:47.000Z</time>
      </trkpt>
      <trkpt lat="45.18123" lon="6.35791">
        <ele>2218.1999511719</ele>
        <time>2014-01-11T12:30:48.000Z</time>
      </trkpt>
      <trkpt lat="45.18122" lon="6.35784">
        <ele>2213.8000488281</ele>
        <time>2014-01-11T12:30:49.000Z</time>
      </trkpt>
      <trkpt lat="45.18121" lon="6.35777">
        <ele>2211.6000976562</ele>
        <time>2014-01-11T12:30:50.000Z</time>
      </trkpt>
      <trkpt lat="45.18121" lon="6.35771">
        <ele>2209.3999023438</ele>
        <time>2014-01-11T12:30:51.000Z</time>
      </trkpt>
      <trkpt lat="45.18122" lon="6.35764">
        <ele>2207.1999511719</ele>
        <time>2014-01-11T12:30:52.000Z</time>
      </trkpt>
      <trkpt lat="45.1812" lon="6.35757">
        <ele>2204.8000488281</ele>
        <time>2014-01-11T12:30:53.000Z</time>
      </trkpt>
      <trkpt lat="45.18118" lon="6.35753">
        <ele>2202.1999511719</ele>
        <time>2014-01-11T12:30:54.000Z</time>
      </trkpt>
      <trkpt lat="45.18116" lon="6.35746">
        <ele>2199.8000488281</ele>
        <time>2014-01-11T12:30:55.000Z</time>
      </trkpt>
      <trkpt lat="45.18116" lon="6.35739">
        <ele>2197.1999511719</ele>
        <time>2014-01-11T12:30:56.000Z</time>
      </trkpt>
      <trkpt lat="45.18115" lon="6.35732">
        <ele>2194.6000976562</ele>
        <time>2014-01-11T12:30:57.000Z</time>
      </trkpt>
      <trkpt lat="45.18114" lon="6.35725">
        <ele>2192.3999023438</ele>
        <time>2014-01-11T12:30:58.000Z</time>
      </trkpt>
      <trkpt lat="45.18116" lon="6.35716">
        <ele>2190.1999511719</ele>
        <time>2014-01-11T12:30:59.000Z</time>
      </trkpt>
      <trkpt lat="45.18115" lon="6.35709">
        <ele>2188</ele>
        <time>2014-01-11T12:31:00.000Z</time>
      </trkpt>
      <trkpt lat="45.18113" lon="6.35705">
        <ele>2185.6000976562</ele>
        <time>2014-01-11T12:31:01.000Z</time>
      </trkpt>
      <trkpt lat="45.18113" lon="6.35702">
        <ele>2183.1999511719</ele>
        <time>2014-01-11T12:31:02.000Z</time>
      </trkpt>
      <trkpt lat="45.18114" lon="6.35698">
        <ele>2181.1999511719</ele>
        <time>2014-01-11T12:31:03.000Z</time>
      </trkpt>
      <trkpt lat="45.18114" lon="6.35692">
        <ele>2179</ele>
        <time>2014-01-11T12:31:04.000Z</time>
      </trkpt>
      <trkpt lat="45.18113" lon="6.35687">
        <ele>2177.1999511719</ele>
        <time>2014-01-11T12:31:05.000Z</time>
      </trkpt>
      <trkpt lat="45.18112" lon="6.35681">
        <ele>2175.6000976562</ele>
        <time>2014-01-11T12:31:06.000Z</time>
      </trkpt>
      <trkpt lat="45.18112" lon="6.35674">
        <ele>2174.1999511719</ele>
        <time>2014-01-11T12:31:07.000Z</time>
      </trkpt>
      <trkpt lat="45.18112" lon="6.35667">
        <ele>2172.8000488281</ele>
        <time>2014-01-11T12:31:08.000Z</time>
      </trkpt>
      <trkpt lat="45.18111" lon="6.35662">
        <ele>2171.1999511719</ele>
        <time>2014-01-11T12:31:09.000Z</time>
      </trkpt>
      <trkpt lat="45.18112" lon="6.35656">
        <ele>2169.6000976562</ele>
        <time>2014-01-11T12:31:10.000Z</time>
      </trkpt>
      <trkpt lat="45.18115" lon="6.35649">
        <ele>2168</ele>
        <time>2014-01-11T12:31:11.000Z</time>
      </trkpt>
      <trkpt lat="45.18119" lon="6.3564">
        <ele>2166</ele>
        <time>2014-01-11T12:31:12.000Z</time>
      </trkpt>
      <trkpt lat="45.18123" lon="6.35634">
        <ele>2162.1999511719</ele>
        <time>2014-01-11T12:31:13.000Z</time>
      </trkpt>
      <trkpt lat="45.18127" lon="6.35631">
        <ele>2160.1999511719</ele>
        <time>2014-01-11T12:31:14.000Z</time>
      </trkpt>
      <trkpt lat="45.18129" lon="6.35628">
        <ele>2158.1999511719</ele>
        <time>2014-01-11T12:31:15.000Z</time>
      </trkpt>
      <trkpt lat="45.18131" lon="6.35629">
        <ele>2156.1999511719</ele>
        <time>2014-01-11T12:31:16.000Z</time>
      </trkpt>
      <trkpt lat="45.18132" lon="6.3563">
        <ele>2154.3999023438</ele>
        <time>2014-01-11T12:31:17.000Z</time>
      </trkpt>
      <trkpt lat="45.18132" lon="6.3563">
        <ele>2153.1999511719</ele>
        <time>2014-01-11T12:31:18.000Z</time>
      </trkpt>
      <trkpt lat="45.18132" lon="6.3563">
        <ele>2152.6000976562</ele>
        <time>2014-01-11T12:31:19.000Z</time>
      </trkpt>
      <trkpt lat="45.18132" lon="6.3563">
        <ele>2152</ele>
        <time>2014-01-11T12:31:20.000Z</time>
      </trkpt>
      <trkpt lat="45.18132" lon="6.3563">
        <ele>2151.8000488281</ele>
        <time>2014-01-11T12:31:21.000Z</time>
      </trkpt>
      <trkpt lat="45.18132" lon="6.3563">
        <ele>2151.6000976562</ele>
        <time>2014-01-11T12:31:22.000Z</time>
      </trkpt>
      <trkpt lat="45.18132" lon="6.3563">
        <ele>2151.3999023438</ele>
        <time>2014-01-11T12:31:23.000Z</time>
      </trkpt>
      <trkpt lat="45.18132" lon="6.3563">
        <ele>2151.3999023438</ele>
        <time>2014-01-11T12:31:24.000Z</time>
      </trkpt>
      <trkpt lat="45.18132" lon="6.3563">
        <ele>2151.3999023438</ele>
        <time>2014-01-11T12:31:25.000Z</time>
      </trkpt>
      <trkpt lat="45.18132" lon="6.3563">
        <ele>2151.3999023438</ele>
        <time>2014-01-11T12:31:26.000Z</time>
      </trkpt>
      <trkpt lat="45.18132" lon="6.3563">
        <ele>2151.3999023438</ele>
        <time>2014-01-11T12:31:27.000Z</time>
      </trkpt>
      <trkpt lat="45.18132" lon="6.3563">
        <ele>2151.3999023438</ele>
        <time>2014-01-11T12:31:28.000Z</time>
      </trkpt>
      <trkpt lat="45.18132" lon="6.3563">
        <ele>2151.1999511719</ele>
        <time>2014-01-11T12:31:29.000Z</time>
      </trkpt>
      <trkpt lat="45.18132" lon="6.3563">
        <ele>2151.1999511719</ele>
        <time>2014-01-11T12:31:30.000Z</time>
      </trkpt>
      <trkpt lat="45.18132" lon="6.3563">
        <ele>2151.1999511719</ele>
        <time>2014-01-11T12:31:31.000Z</time>
      </trkpt>
      <trkpt lat="45.18132" lon="6.3563">
        <ele>2151.1999511719</ele>
        <time>2014-01-11T12:31:32.000Z</time>
      </trkpt>
      <trkpt lat="45.18132" lon="6.3563">
        <ele>2151.1999511719</ele>
        <time>2014-01-11T12:31:33.000Z</time>
      </trkpt>
      <trkpt lat="45.18132" lon="6.3563">
        <ele>2151.1999511719</ele>
        <time>2014-01-11T12:31:34.000Z</time>
      </trkpt>
      <trkpt lat="45.18132" lon="6.3563">
        <ele>2151.1999511719</ele>
        <time>2014-01-11T12:31:35.000Z</time>
      </trkpt>
      <trkpt lat="45.18132" lon="6.3563">
        <ele>2151.1999511719</ele>
        <time>2014-01-11T12:31:36.000Z</time>
      </trkpt>
      <trkpt lat="45.18132" lon="6.3563">
        <ele>2151.1999511719</ele>
        <time>2014-01-11T12:31:37.000Z</time>
      </trkpt>
      <trkpt lat="45.18132" lon="6.3563">
        <ele>2151.1999511719</ele>
        <time>2014-01-11T12:31:39.000Z</time>
      </trkpt>
      <trkpt lat="45.18132" lon="6.3563">
        <ele>2151.1999511719</ele>
        <time>2014-01-11T12:31:40.000Z</time>
      </trkpt>
      <trkpt lat="45.18132" lon="6.3563">
        <ele>2151</ele>
        <time>2014-01-11T12:31:41.000Z</time>
      </trkpt>
      <trkpt lat="45.18132" lon="6.3563">
        <ele>2151</ele>
        <time>2014-01-11T12:31:42.000Z</time>
      </trkpt>
      <trkpt lat="45.18132" lon="6.3563">
        <ele>2151</ele>
        <time>2014-01-11T12:31:43.000Z</time>
      </trkpt>
      <trkpt lat="45.18132" lon="6.3563">
        <ele>2151</ele>
        <time>2014-01-11T12:31:44.000Z</time>
      </trkpt>
      <trkpt lat="45.18132" lon="6.3563">
        <ele>2151</ele>
        <time>2014-01-11T12:31:45.000Z</time>
      </trkpt>
      <trkpt lat="45.18132" lon="6.3563">
        <ele>2151</ele>
        <time>2014-01-11T12:31:46.000Z</time>
      </trkpt>
      <trkpt lat="45.18132" lon="6.3563">
        <ele>2151</ele>
        <time>2014-01-11T12:31:47.000Z</time>
      </trkpt>
      <trkpt lat="45.18132" lon="6.3563">
        <ele>2151.1999511719</ele>
        <time>2014-01-11T12:31:48.000Z</time>
      </trkpt>
      <trkpt lat="45.18132" lon="6.3563">
        <ele>2151.1999511719</ele>
        <time>2014-01-11T12:31:49.000Z</time>
      </trkpt>
      <trkpt lat="45.18132" lon="6.3563">
        <ele>2151.1999511719</ele>
        <time>2014-01-11T12:31:50.000Z</time>
      </trkpt>
      <trkpt lat="45.18132" lon="6.3563">
        <ele>2151.1999511719</ele>
        <time>2014-01-11T12:31:52.000Z</time>
      </trkpt>
      <trkpt lat="45.18132" lon="6.3563">
        <ele>2151</ele>
        <time>2014-01-11T12:31:53.000Z</time>
      </trkpt>
      <trkpt lat="45.18132" lon="6.3563">
        <ele>2151</ele>
        <time>2014-01-11T12:31:54.000Z</time>
      </trkpt>
      <trkpt lat="45.18132" lon="6.3563">
        <ele>2151</ele>
        <time>2014-01-11T12:31:55.000Z</time>
      </trkpt>
      <trkpt lat="45.18132" lon="6.3563">
        <ele>2151</ele>
        <time>2014-01-11T12:31:56.000Z</time>
      </trkpt>
      <trkpt lat="45.18131" lon="6.35629">
        <ele>2151</ele>
        <time>2014-01-11T12:31:57.000Z</time>
      </trkpt>
      <trkpt lat="45.18131" lon="6.35629">
        <ele>2151</ele>
        <time>2014-01-11T12:31:58.000Z</time>
      </trkpt>
      <trkpt lat="45.18131" lon="6.35629">
        <ele>2151</ele>
        <time>2014-01-11T12:31:59.000Z</time>
      </trkpt>
      <trkpt lat="45.18131" lon="6.35629">
        <ele>2151</ele>
        <time>2014-01-11T12:32:00.000Z</time>
      </trkpt>
      <trkpt lat="45.18131" lon="6.35629">
        <ele>2150.8000488281</ele>
        <time>2014-01-11T12:32:04.000Z</time>
      </trkpt>
      <trkpt lat="45.18131" lon="6.35629">
        <ele>2150.8000488281</ele>
        <time>2014-01-11T12:32:05.000Z</time>
      </trkpt>
      <trkpt lat="45.18131" lon="6.35629">
        <ele>2150.8000488281</ele>
        <time>2014-01-11T12:32:06.000Z</time>
      </trkpt>
      <trkpt lat="45.18131" lon="6.35629">
        <ele>2150.8000488281</ele>
        <time>2014-01-11T12:32:07.000Z</time>
      </trkpt>
      <trkpt lat="45.18131" lon="6.35629">
        <ele>2150.8000488281</ele>
        <time>2014-01-11T12:32:08.000Z</time>
      </trkpt>
      <trkpt lat="45.18131" lon="6.35629">
        <ele>2150.8000488281</ele>
        <time>2014-01-11T12:32:09.000Z</time>
      </trkpt>
      <trkpt lat="45.18131" lon="6.35629">
        <ele>2150.8000488281</ele>
        <time>2014-01-11T12:32:11.000Z</time>
      </trkpt>
      <trkpt lat="45.18131" lon="6.35629">
        <ele>2150.8000488281</ele>
        <time>2014-01-11T12:32:12.000Z</time>
      </trkpt>
      <trkpt lat="45.18131" lon="6.35629">
        <ele>2150.8000488281</ele>
        <time>2014-01-11T12:32:14.000Z</time>
      </trkpt>
      <trkpt lat="45.18131" lon="6.35629">
        <ele>2150.8000488281</ele>
        <time>2014-01-11T12:32:18.000Z</time>
      </trkpt>
      <trkpt lat="45.18131" lon="6.35629">
        <ele>2150.8000488281</ele>
        <time>2014-01-11T12:32:19.000Z</time>
      </trkpt>
      <trkpt lat="45.18131" lon="6.35629">
        <ele>2150.8000488281</ele>
        <time>2014-01-11T12:32:20.000Z</time>
      </trkpt>
      <trkpt lat="45.18131" lon="6.35629">
        <ele>2150.8000488281</ele>
        <time>2014-01-11T12:32:21.000Z</time>
      </trkpt>
      <trkpt lat="45.18131" lon="6.35629">
        <ele>2150.8000488281</ele>
        <time>2014-01-11T12:32:24.000Z</time>
      </trkpt>
      <trkpt lat="45.18131" lon="6.35629">
        <ele>2150.8000488281</ele>
        <time>2014-01-11T12:32:25.000Z</time>
      </trkpt>
      <trkpt lat="45.18131" lon="6.35629">
        <ele>2150.6000976562</ele>
        <time>2014-01-11T12:32:26.000Z</time>
      </trkpt>
      <trkpt lat="45.18131" lon="6.35629">
        <ele>2150.6000976562</ele>
        <time>2014-01-11T12:32:27.000Z</time>
      </trkpt>
      <trkpt lat="45.18131" lon="6.35629">
        <ele>2150.6000976562</ele>
        <time>2014-01-11T12:32:28.000Z</time>
      </trkpt>
      <trkpt lat="45.18131" lon="6.35629">
        <ele>2150.6000976562</ele>
        <time>2014-01-11T12:32:29.000Z</time>
      </trkpt>
      <trkpt lat="45.18131" lon="6.35629">
        <ele>2150.6000976562</ele>
        <time>2014-01-11T12:32:31.000Z</time>
      </trkpt>
      <trkpt lat="45.18131" lon="6.35629">
        <ele>2150.6000976562</ele>
        <time>2014-01-11T12:32:32.000Z</time>
      </trkpt>
      <trkpt lat="45.18131" lon="6.35629">
        <ele>2150.6000976562</ele>
        <time>2014-01-11T12:32:33.000Z</time>
      </trkpt>
      <trkpt lat="45.18131" lon="6.35629">
        <ele>2150.6000976562</ele>
        <time>2014-01-11T12:32:35.000Z</time>
      </trkpt>
      <trkpt lat="45.18131" lon="6.35629">
        <ele>2150.6000976562</ele>
        <time>2014-01-11T12:32:36.000Z</time>
      </trkpt>
      <trkpt lat="45.18131" lon="6.35628">
        <ele>2150.6000976562</ele>
        <time>2014-01-11T12:32:37.000Z</time>
      </trkpt>
      <trkpt lat="45.18131" lon="6.35628">
        <ele>2150.6000976562</ele>
        <time>2014-01-11T12:32:38.000Z</time>
      </trkpt>
      <trkpt lat="45.18132" lon="6.35627">
        <ele>2150.6000976562</ele>
        <time>2014-01-11T12:32:39.000Z</time>
      </trkpt>
      <trkpt lat="45.18131" lon="6.35623">
        <ele>2150.6000976562</ele>
        <time>2014-01-11T12:32:40.000Z</time>
      </trkpt>
      <trkpt lat="45.18133" lon="6.35619">
        <ele>2150.3999023438</ele>
        <time>2014-01-11T12:32:41.000Z</time>
      </trkpt>
      <trkpt lat="45.18135" lon="6.35611">
        <ele>2150.3999023438</ele>
        <time>2014-01-11T12:32:42.000Z</time>
      </trkpt>
      <trkpt lat="45.18138" lon="6.35603">
        <ele>2149.8000488281</ele>
        <time>2014-01-11T12:32:43.000Z</time>
      </trkpt>
      <trkpt lat="45.18142" lon="6.35596">
        <ele>2148.8000488281</ele>
        <time>2014-01-11T12:32:44.000Z</time>
      </trkpt>
      <trkpt lat="45.18146" lon="6.35591">
        <ele>2147.1999511719</ele>
        <time>2014-01-11T12:32:45.000Z</time>
      </trkpt>
      <trkpt lat="45.18149" lon="6.35589">
        <ele>2145.3999023438</ele>
        <time>2014-01-11T12:32:46.000Z</time>
      </trkpt>
      <trkpt lat="45.18152" lon="6.35587">
        <ele>2143.3999023438</ele>
        <time>2014-01-11T12:32:47.000Z</time>
      </trkpt>
      <trkpt lat="45.18154" lon="6.35586">
        <ele>2141.1999511719</ele>
        <time>2014-01-11T12:32:48.000Z</time>
      </trkpt>
      <trkpt lat="45.18156" lon="6.35585">
        <ele>2139.8000488281</ele>
        <time>2014-01-11T12:32:49.000Z</time>
      </trkpt>
      <trkpt lat="45.18157" lon="6.35584">
        <ele>2137.8000488281</ele>
        <time>2014-01-11T12:32:50.000Z</time>
      </trkpt>
      <trkpt lat="45.18157" lon="6.35583">
        <ele>2137.3999023438</ele>
        <time>2014-01-11T12:32:51.000Z</time>
      </trkpt>
      <trkpt lat="45.18157" lon="6.35583">
        <ele>2137.3999023438</ele>
        <time>2014-01-11T12:32:52.000Z</time>
      </trkpt>
      <trkpt lat="45.18157" lon="6.35583">
        <ele>2137.3999023438</ele>
        <time>2014-01-11T12:32:53.000Z</time>
      </trkpt>
      <trkpt lat="45.18157" lon="6.35583">
        <ele>2137.3999023438</ele>
        <time>2014-01-11T12:32:54.000Z</time>
      </trkpt>
      <trkpt lat="45.18157" lon="6.35583">
        <ele>2137.6000976562</ele>
        <time>2014-01-11T12:32:56.000Z</time>
      </trkpt>
      <trkpt lat="45.18157" lon="6.35583">
        <ele>2137.6000976562</ele>
        <time>2014-01-11T12:32:57.000Z</time>
      </trkpt>
      <trkpt lat="45.18157" lon="6.35583">
        <ele>2137.6000976562</ele>
        <time>2014-01-11T12:32:58.000Z</time>
      </trkpt>
      <trkpt lat="45.18158" lon="6.35584">
        <ele>2137.6000976562</ele>
        <time>2014-01-11T12:32:59.000Z</time>
      </trkpt>
      <trkpt lat="45.1816" lon="6.35584">
        <ele>2137.8000488281</ele>
        <time>2014-01-11T12:33:00.000Z</time>
      </trkpt>
      <trkpt lat="45.18161" lon="6.35586">
        <ele>2137.8000488281</ele>
        <time>2014-01-11T12:33:01.000Z</time>
      </trkpt>
      <trkpt lat="45.18162" lon="6.35588">
        <ele>2137.6000976562</ele>
        <time>2014-01-11T12:33:02.000Z</time>
      </trkpt>
      <trkpt lat="45.18164" lon="6.3559">
        <ele>2137.3999023438</ele>
        <time>2014-01-11T12:33:03.000Z</time>
      </trkpt>
      <trkpt lat="45.18166" lon="6.35592">
        <ele>2137</ele>
        <time>2014-01-11T12:33:04.000Z</time>
      </trkpt>
      <trkpt lat="45.18169" lon="6.35595">
        <ele>2136.3999023438</ele>
        <time>2014-01-11T12:33:05.000Z</time>
      </trkpt>
      <trkpt lat="45.18171" lon="6.35597">
        <ele>2136</ele>
        <time>2014-01-11T12:33:06.000Z</time>
      </trkpt>
      <trkpt lat="45.18173" lon="6.35599">
        <ele>2135.3999023438</ele>
        <time>2014-01-11T12:33:07.000Z</time>
      </trkpt>
      <trkpt lat="45.18175" lon="6.35601">
        <ele>2135.1999511719</ele>
        <time>2014-01-11T12:33:08.000Z</time>
      </trkpt>
      <trkpt lat="45.18176" lon="6.35602">
        <ele>2134.8000488281</ele>
        <time>2014-01-11T12:33:09.000Z</time>
      </trkpt>
      <trkpt lat="45.18177" lon="6.35603">
        <ele>2134.6000976562</ele>
        <time>2014-01-11T12:33:10.000Z</time>
      </trkpt>
      <trkpt lat="45.18179" lon="6.35603">
        <ele>2134.6000976562</ele>
        <time>2014-01-11T12:33:11.000Z</time>
      </trkpt>
      <trkpt lat="45.18181" lon="6.35603">
        <ele>2134.3999023438</ele>
        <time>2014-01-11T12:33:12.000Z</time>
      </trkpt>
      <trkpt lat="45.18187" lon="6.35604">
        <ele>2134.3999023438</ele>
        <time>2014-01-11T12:33:13.000Z</time>
      </trkpt>
      <trkpt lat="45.18192" lon="6.35604">
        <ele>2134</ele>
        <time>2014-01-11T12:33:14.000Z</time>
      </trkpt>
      <trkpt lat="45.18197" lon="6.35605">
        <ele>2133.3999023438</ele>
        <time>2014-01-11T12:33:15.000Z</time>
      </trkpt>
      <trkpt lat="45.18202" lon="6.35606">
        <ele>2132.8000488281</ele>
        <time>2014-01-11T12:33:16.000Z</time>
      </trkpt>
      <trkpt lat="45.18206" lon="6.35607">
        <ele>2132.1999511719</ele>
        <time>2014-01-11T12:33:17.000Z</time>
      </trkpt>
      <trkpt lat="45.18209" lon="6.35608">
        <ele>2131.6000976562</ele>
        <time>2014-01-11T12:33:18.000Z</time>
      </trkpt>
      <trkpt lat="45.18213" lon="6.35608">
        <ele>2131</ele>
        <time>2014-01-11T12:33:19.000Z</time>
      </trkpt>
      <trkpt lat="45.18215" lon="6.35609">
        <ele>2130.8000488281</ele>
        <time>2014-01-11T12:33:20.000Z</time>
      </trkpt>
      <trkpt lat="45.18217" lon="6.3561">
        <ele>2130.6000976562</ele>
        <time>2014-01-11T12:33:21.000Z</time>
      </trkpt>
      <trkpt lat="45.18217" lon="6.35611">
        <ele>2130.3999023438</ele>
        <time>2014-01-11T12:33:22.000Z</time>
      </trkpt>
      <trkpt lat="45.18217" lon="6.35611">
        <ele>2130.3999023438</ele>
        <time>2014-01-11T12:33:23.000Z</time>
      </trkpt>
      <trkpt lat="45.18217" lon="6.35611">
        <ele>2130.3999023438</ele>
        <time>2014-01-11T12:33:24.000Z</time>
      </trkpt>
      <trkpt lat="45.18217" lon="6.35611">
        <ele>2130.1999511719</ele>
        <time>2014-01-11T12:33:25.000Z</time>
      </trkpt>
      <trkpt lat="45.18217" lon="6.35611">
        <ele>2130.1999511719</ele>
        <time>2014-01-11T12:33:26.000Z</time>
      </trkpt>
      <trkpt lat="45.18217" lon="6.35611">
        <ele>2130.1999511719</ele>
        <time>2014-01-11T12:33:27.000Z</time>
      </trkpt>
      <trkpt lat="45.18217" lon="6.35611">
        <ele>2130.1999511719</ele>
        <time>2014-01-11T12:33:28.000Z</time>
      </trkpt>
      <trkpt lat="45.18217" lon="6.35611">
        <ele>2130.1999511719</ele>
        <time>2014-01-11T12:33:29.000Z</time>
      </trkpt>
      <trkpt lat="45.18217" lon="6.35611">
        <ele>2130.1999511719</ele>
        <time>2014-01-11T12:33:30.000Z</time>
      </trkpt>
      <trkpt lat="45.18217" lon="6.35611">
        <ele>2130.1999511719</ele>
        <time>2014-01-11T12:33:31.000Z</time>
      </trkpt>
      <trkpt lat="45.18217" lon="6.35611">
        <ele>2130.1999511719</ele>
        <time>2014-01-11T12:33:32.000Z</time>
      </trkpt>
      <trkpt lat="45.18217" lon="6.35611">
        <ele>2130.1999511719</ele>
        <time>2014-01-11T12:33:33.000Z</time>
      </trkpt>
      <trkpt lat="45.18217" lon="6.35611">
        <ele>2130.1999511719</ele>
        <time>2014-01-11T12:33:34.000Z</time>
      </trkpt>
      <trkpt lat="45.18217" lon="6.35611">
        <ele>2130.1999511719</ele>
        <time>2014-01-11T12:33:35.000Z</time>
      </trkpt>
      <trkpt lat="45.18217" lon="6.35611">
        <ele>2130.1999511719</ele>
        <time>2014-01-11T12:33:36.000Z</time>
      </trkpt>
      <trkpt lat="45.18217" lon="6.35611">
        <ele>2130.1999511719</ele>
        <time>2014-01-11T12:33:37.000Z</time>
      </trkpt>
      <trkpt lat="45.18217" lon="6.35611">
        <ele>2130.1999511719</ele>
        <time>2014-01-11T12:33:39.000Z</time>
      </trkpt>
      <trkpt lat="45.18217" lon="6.35611">
        <ele>2130.1999511719</ele>
        <time>2014-01-11T12:33:40.000Z</time>
      </trkpt>
      <trkpt lat="45.18217" lon="6.35611">
        <ele>2130.1999511719</ele>
        <time>2014-01-11T12:33:41.000Z</time>
      </trkpt>
      <trkpt lat="45.18217" lon="6.35611">
        <ele>2130.1999511719</ele>
        <time>2014-01-11T12:33:42.000Z</time>
      </trkpt>
      <trkpt lat="45.18217" lon="6.35611">
        <ele>2130.1999511719</ele>
        <time>2014-01-11T12:33:43.000Z</time>
      </trkpt>
      <trkpt lat="45.18217" lon="6.35611">
        <ele>2130.1999511719</ele>
        <time>2014-01-11T12:33:45.000Z</time>
      </trkpt>
      <trkpt lat="45.18217" lon="6.35611">
        <ele>2130.1999511719</ele>
        <time>2014-01-11T12:33:46.000Z</time>
      </trkpt>
      <trkpt lat="45.18217" lon="6.35611">
        <ele>2130.1999511719</ele>
        <time>2014-01-11T12:33:47.000Z</time>
      </trkpt>
      <trkpt lat="45.18217" lon="6.35611">
        <ele>2130.1999511719</ele>
        <time>2014-01-11T12:33:48.000Z</time>
      </trkpt>
      <trkpt lat="45.18217" lon="6.35611">
        <ele>2130.1999511719</ele>
        <time>2014-01-11T12:33:49.000Z</time>
      </trkpt>
      <trkpt lat="45.18217" lon="6.35611">
        <ele>2130.1999511719</ele>
        <time>2014-01-11T12:33:50.000Z</time>
      </trkpt>
      <trkpt lat="45.18217" lon="6.35611">
        <ele>2130.1999511719</ele>
        <time>2014-01-11T12:33:53.000Z</time>
      </trkpt>
      <trkpt lat="45.18217" lon="6.35611">
        <ele>2130.1999511719</ele>
        <time>2014-01-11T12:33:54.000Z</time>
      </trkpt>
      <trkpt lat="45.18217" lon="6.35611">
        <ele>2130.1999511719</ele>
        <time>2014-01-11T12:33:55.000Z</time>
      </trkpt>
      <trkpt lat="45.18217" lon="6.35611">
        <ele>2130.1999511719</ele>
        <time>2014-01-11T12:33:58.000Z</time>
      </trkpt>
      <trkpt lat="45.18217" lon="6.35611">
        <ele>2130.1999511719</ele>
        <time>2014-01-11T12:33:59.000Z</time>
      </trkpt>
      <trkpt lat="45.18217" lon="6.35611">
        <ele>2130.1999511719</ele>
        <time>2014-01-11T12:34:00.000Z</time>
      </trkpt>
      <trkpt lat="45.18217" lon="6.35611">
        <ele>2130.1999511719</ele>
        <time>2014-01-11T12:34:01.000Z</time>
      </trkpt>
      <trkpt lat="45.18219" lon="6.35613">
        <ele>2130.1999511719</ele>
        <time>2014-01-11T12:34:02.000Z</time>
      </trkpt>
      <trkpt lat="45.18219" lon="6.35613">
        <ele>2130.1999511719</ele>
        <time>2014-01-11T12:34:03.000Z</time>
      </trkpt>
      <trkpt lat="45.18219" lon="6.35613">
        <ele>2130.1999511719</ele>
        <time>2014-01-11T12:34:04.000Z</time>
      </trkpt>
      <trkpt lat="45.18219" lon="6.35613">
        <ele>2130.1999511719</ele>
        <time>2014-01-11T12:34:06.000Z</time>
      </trkpt>
      <trkpt lat="45.18219" lon="6.35613">
        <ele>2130.1999511719</ele>
        <time>2014-01-11T12:34:08.000Z</time>
      </trkpt>
      <trkpt lat="45.18219" lon="6.35613">
        <ele>2130.1999511719</ele>
        <time>2014-01-11T12:34:10.000Z</time>
      </trkpt>
      <trkpt lat="45.18219" lon="6.35613">
        <ele>2130.1999511719</ele>
        <time>2014-01-11T12:34:11.000Z</time>
      </trkpt>
      <trkpt lat="45.18219" lon="6.35613">
        <ele>2130.1999511719</ele>
        <time>2014-01-11T12:34:12.000Z</time>
      </trkpt>
      <trkpt lat="45.18219" lon="6.35613">
        <ele>2130.1999511719</ele>
        <time>2014-01-11T12:34:15.000Z</time>
      </trkpt>
      <trkpt lat="45.18219" lon="6.35613">
        <ele>2130.1999511719</ele>
        <time>2014-01-11T12:34:21.000Z</time>
      </trkpt>
      <trkpt lat="45.18219" lon="6.35613">
        <ele>2130.1999511719</ele>
        <time>2014-01-11T12:34:22.000Z</time>
      </trkpt>
      <trkpt lat="45.18219" lon="6.35613">
        <ele>2130.1999511719</ele>
        <time>2014-01-11T12:34:23.000Z</time>
      </trkpt>
      <trkpt lat="45.18219" lon="6.35613">
        <ele>2130.1999511719</ele>
        <time>2014-01-11T12:34:24.000Z</time>
      </trkpt>
      <trkpt lat="45.18219" lon="6.35613">
        <ele>2130.1999511719</ele>
        <time>2014-01-11T12:34:25.000Z</time>
      </trkpt>
      <trkpt lat="45.18219" lon="6.35613">
        <ele>2130.1999511719</ele>
        <time>2014-01-11T12:34:26.000Z</time>
      </trkpt>
      <trkpt lat="45.18219" lon="6.35613">
        <ele>2130.1999511719</ele>
        <time>2014-01-11T12:34:27.000Z</time>
      </trkpt>
      <trkpt lat="45.18219" lon="6.35613">
        <ele>2130.1999511719</ele>
        <time>2014-01-11T12:34:28.000Z</time>
      </trkpt>
      <trkpt lat="45.18219" lon="6.35613">
        <ele>2130.1999511719</ele>
        <time>2014-01-11T12:34:29.000Z</time>
      </trkpt>
      <trkpt lat="45.18219" lon="6.35613">
        <ele>2130.1999511719</ele>
        <time>2014-01-11T12:34:30.000Z</time>
      </trkpt>
      <trkpt lat="45.18219" lon="6.35613">
        <ele>2130.1999511719</ele>
        <time>2014-01-11T12:34:31.000Z</time>
      </trkpt>
      <trkpt lat="45.18219" lon="6.35613">
        <ele>2130.1999511719</ele>
        <time>2014-01-11T12:34:34.000Z</time>
      </trkpt>
      <trkpt lat="45.18219" lon="6.35613">
        <ele>2130.1999511719</ele>
        <time>2014-01-11T12:34:36.000Z</time>
      </trkpt>
      <trkpt lat="45.18219" lon="6.35613">
        <ele>2130.1999511719</ele>
        <time>2014-01-11T12:34:37.000Z</time>
      </trkpt>
      <trkpt lat="45.18219" lon="6.35613">
        <ele>2130.1999511719</ele>
        <time>2014-01-11T12:34:38.000Z</time>
      </trkpt>
      <trkpt lat="45.18219" lon="6.35613">
        <ele>2130.1999511719</ele>
        <time>2014-01-11T12:34:41.000Z</time>
      </trkpt>
      <trkpt lat="45.18218" lon="6.35614">
        <ele>2130.1999511719</ele>
        <time>2014-01-11T12:34:42.000Z</time>
      </trkpt>
      <trkpt lat="45.18218" lon="6.35614">
        <ele>2130.1999511719</ele>
        <time>2014-01-11T12:34:43.000Z</time>
      </trkpt>
      <trkpt lat="45.18218" lon="6.35614">
        <ele>2130.1999511719</ele>
        <time>2014-01-11T12:34:46.000Z</time>
      </trkpt>
      <trkpt lat="45.18218" lon="6.35614">
        <ele>2130.1999511719</ele>
        <time>2014-01-11T12:34:47.000Z</time>
      </trkpt>
      <trkpt lat="45.18218" lon="6.35614">
        <ele>2130.1999511719</ele>
        <time>2014-01-11T12:34:48.000Z</time>
      </trkpt>
      <trkpt lat="45.18218" lon="6.35614">
        <ele>2130.1999511719</ele>
        <time>2014-01-11T12:34:49.000Z</time>
      </trkpt>
      <trkpt lat="45.18218" lon="6.35614">
        <ele>2130</ele>
        <time>2014-01-11T12:34:50.000Z</time>
      </trkpt>
      <trkpt lat="45.18218" lon="6.35614">
        <ele>2130</ele>
        <time>2014-01-11T12:34:51.000Z</time>
      </trkpt>
      <trkpt lat="45.18218" lon="6.35614">
        <ele>2130</ele>
        <time>2014-01-11T12:34:52.000Z</time>
      </trkpt>
      <trkpt lat="45.18218" lon="6.35614">
        <ele>2130</ele>
        <time>2014-01-11T12:34:53.000Z</time>
      </trkpt>
      <trkpt lat="45.18218" lon="6.35614">
        <ele>2130</ele>
        <time>2014-01-11T12:34:54.000Z</time>
      </trkpt>
      <trkpt lat="45.18218" lon="6.35614">
        <ele>2130</ele>
        <time>2014-01-11T12:34:55.000Z</time>
      </trkpt>
      <trkpt lat="45.18218" lon="6.35614">
        <ele>2130</ele>
        <time>2014-01-11T12:34:57.000Z</time>
      </trkpt>
      <trkpt lat="45.18218" lon="6.35614">
        <ele>2130</ele>
        <time>2014-01-11T12:34:58.000Z</time>
      </trkpt>
      <trkpt lat="45.18218" lon="6.35614">
        <ele>2130</ele>
        <time>2014-01-11T12:34:59.000Z</time>
      </trkpt>
      <trkpt lat="45.18218" lon="6.35614">
        <ele>2130</ele>
        <time>2014-01-11T12:35:00.000Z</time>
      </trkpt>
      <trkpt lat="45.18218" lon="6.35614">
        <ele>2130</ele>
        <time>2014-01-11T12:35:03.000Z</time>
      </trkpt>
      <trkpt lat="45.18218" lon="6.35614">
        <ele>2130</ele>
        <time>2014-01-11T12:35:04.000Z</time>
      </trkpt>
      <trkpt lat="45.18218" lon="6.35614">
        <ele>2130</ele>
        <time>2014-01-11T12:35:06.000Z</time>
      </trkpt>
      <trkpt lat="45.18218" lon="6.35614">
        <ele>2130</ele>
        <time>2014-01-11T12:35:08.000Z</time>
      </trkpt>
      <trkpt lat="45.18218" lon="6.35614">
        <ele>2130</ele>
        <time>2014-01-11T12:35:10.000Z</time>
      </trkpt>
      <trkpt lat="45.18218" lon="6.35614">
        <ele>2130</ele>
        <time>2014-01-11T12:35:13.000Z</time>
      </trkpt>
      <trkpt lat="45.18218" lon="6.35614">
        <ele>2130</ele>
        <time>2014-01-11T12:35:14.000Z</time>
      </trkpt>
      <trkpt lat="45.18218" lon="6.35614">
        <ele>2130</ele>
        <time>2014-01-11T12:35:15.000Z</time>
      </trkpt>
      <trkpt lat="45.18218" lon="6.35614">
        <ele>2130</ele>
        <time>2014-01-11T12:35:16.000Z</time>
      </trkpt>
      <trkpt lat="45.18218" lon="6.35614">
        <ele>2130</ele>
        <time>2014-01-11T12:35:17.000Z</time>
      </trkpt>
      <trkpt lat="45.18218" lon="6.35614">
        <ele>2130</ele>
        <time>2014-01-11T12:35:18.000Z</time>
      </trkpt>
      <trkpt lat="45.18219" lon="6.35617">
        <ele>2130</ele>
        <time>2014-01-11T12:35:24.000Z</time>
      </trkpt>
      <trkpt lat="45.18219" lon="6.35617">
        <ele>2130</ele>
        <time>2014-01-11T12:35:25.000Z</time>
      </trkpt>
      <trkpt lat="45.18219" lon="6.35617">
        <ele>2130</ele>
        <time>2014-01-11T12:35:28.000Z</time>
      </trkpt>
      <trkpt lat="45.18219" lon="6.35617">
        <ele>2130</ele>
        <time>2014-01-11T12:35:30.000Z</time>
      </trkpt>
      <trkpt lat="45.18219" lon="6.35617">
        <ele>2130</ele>
        <time>2014-01-11T12:35:33.000Z</time>
      </trkpt>
      <trkpt lat="45.18219" lon="6.35617">
        <ele>2130</ele>
        <time>2014-01-11T12:35:34.000Z</time>
      </trkpt>
      <trkpt lat="45.18219" lon="6.35617">
        <ele>2130.1999511719</ele>
        <time>2014-01-11T12:35:36.000Z</time>
      </trkpt>
      <trkpt lat="45.18219" lon="6.35617">
        <ele>2130.1999511719</ele>
        <time>2014-01-11T12:35:37.000Z</time>
      </trkpt>
      <trkpt lat="45.18219" lon="6.35617">
        <ele>2130.1999511719</ele>
        <time>2014-01-11T12:35:38.000Z</time>
      </trkpt>
      <trkpt lat="45.18219" lon="6.35617">
        <ele>2130.1999511719</ele>
        <time>2014-01-11T12:35:39.000Z</time>
      </trkpt>
      <trkpt lat="45.18219" lon="6.35617">
        <ele>2130.1999511719</ele>
        <time>2014-01-11T12:35:40.000Z</time>
      </trkpt>
      <trkpt lat="45.18219" lon="6.35617">
        <ele>2130.1999511719</ele>
        <time>2014-01-11T12:35:41.000Z</time>
      </trkpt>
      <trkpt lat="45.18219" lon="6.35617">
        <ele>2130.1999511719</ele>
        <time>2014-01-11T12:35:42.000Z</time>
      </trkpt>
      <trkpt lat="45.18219" lon="6.35617">
        <ele>2130.1999511719</ele>
        <time>2014-01-11T12:35:43.000Z</time>
      </trkpt>
      <trkpt lat="45.18219" lon="6.35617">
        <ele>2130.1999511719</ele>
        <time>2014-01-11T12:35:46.000Z</time>
      </trkpt>
      <trkpt lat="45.18219" lon="6.35617">
        <ele>2130.1999511719</ele>
        <time>2014-01-11T12:35:47.000Z</time>
      </trkpt>
      <trkpt lat="45.18219" lon="6.35617">
        <ele>2130.1999511719</ele>
        <time>2014-01-11T12:35:48.000Z</time>
      </trkpt>
      <trkpt lat="45.18219" lon="6.35617">
        <ele>2130.1999511719</ele>
        <time>2014-01-11T12:35:49.000Z</time>
      </trkpt>
      <trkpt lat="45.18219" lon="6.35617">
        <ele>2130.1999511719</ele>
        <time>2014-01-11T12:35:51.000Z</time>
      </trkpt>
      <trkpt lat="45.18219" lon="6.35617">
        <ele>2130.1999511719</ele>
        <time>2014-01-11T12:35:55.000Z</time>
      </trkpt>
      <trkpt lat="45.18219" lon="6.35617">
        <ele>2130.1999511719</ele>
        <time>2014-01-11T12:35:56.000Z</time>
      </trkpt>
      <trkpt lat="45.18219" lon="6.35617">
        <ele>2130.1999511719</ele>
        <time>2014-01-11T12:35:57.000Z</time>
      </trkpt>
      <trkpt lat="45.18219" lon="6.35618">
        <ele>2130.1999511719</ele>
        <time>2014-01-11T12:36:07.000Z</time>
      </trkpt>
      <trkpt lat="45.18219" lon="6.35618">
        <ele>2130.1999511719</ele>
        <time>2014-01-11T12:36:12.000Z</time>
      </trkpt>
      <trkpt lat="45.18219" lon="6.35618">
        <ele>2130.1999511719</ele>
        <time>2014-01-11T12:36:13.000Z</time>
      </trkpt>
      <trkpt lat="45.18219" lon="6.35618">
        <ele>2130.1999511719</ele>
        <time>2014-01-11T12:36:14.000Z</time>
      </trkpt>
      <trkpt lat="45.18219" lon="6.35618">
        <ele>2130.1999511719</ele>
        <time>2014-01-11T12:36:15.000Z</time>
      </trkpt>
      <trkpt lat="45.18219" lon="6.35618">
        <ele>2130.1999511719</ele>
        <time>2014-01-11T12:36:17.000Z</time>
      </trkpt>
      <trkpt lat="45.18219" lon="6.35618">
        <ele>2130.1999511719</ele>
        <time>2014-01-11T12:36:18.000Z</time>
      </trkpt>
      <trkpt lat="45.18219" lon="6.35618">
        <ele>2130.1999511719</ele>
        <time>2014-01-11T12:36:19.000Z</time>
      </trkpt>
      <trkpt lat="45.18219" lon="6.35618">
        <ele>2130.1999511719</ele>
        <time>2014-01-11T12:36:20.000Z</time>
      </trkpt>
      <trkpt lat="45.18219" lon="6.35618">
        <ele>2130.1999511719</ele>
        <time>2014-01-11T12:36:21.000Z</time>
      </trkpt>
      <trkpt lat="45.18219" lon="6.35618">
        <ele>2130.1999511719</ele>
        <time>2014-01-11T12:36:23.000Z</time>
      </trkpt>
      <trkpt lat="45.18219" lon="6.35618">
        <ele>2130.1999511719</ele>
        <time>2014-01-11T12:36:24.000Z</time>
      </trkpt>
      <trkpt lat="45.18219" lon="6.35618">
        <ele>2130.1999511719</ele>
        <time>2014-01-11T12:36:25.000Z</time>
      </trkpt>
      <trkpt lat="45.18219" lon="6.35618">
        <ele>2130.1999511719</ele>
        <time>2014-01-11T12:36:26.000Z</time>
      </trkpt>
      <trkpt lat="45.18219" lon="6.35618">
        <ele>2130.1999511719</ele>
        <time>2014-01-11T12:36:29.000Z</time>
      </trkpt>
      <trkpt lat="45.18219" lon="6.35618">
        <ele>2130.1999511719</ele>
        <time>2014-01-11T12:36:30.000Z</time>
      </trkpt>
      <trkpt lat="45.18219" lon="6.35618">
        <ele>2130.1999511719</ele>
        <time>2014-01-11T12:36:32.000Z</time>
      </trkpt>
      <trkpt lat="45.18219" lon="6.35618">
        <ele>2130.1999511719</ele>
        <time>2014-01-11T12:36:35.000Z</time>
      </trkpt>
      <trkpt lat="45.18219" lon="6.35618">
        <ele>2130.1999511719</ele>
        <time>2014-01-11T12:36:36.000Z</time>
      </trkpt>
      <trkpt lat="45.18219" lon="6.35618">
        <ele>2130.1999511719</ele>
        <time>2014-01-11T12:36:37.000Z</time>
      </trkpt>
      <trkpt lat="45.18219" lon="6.35618">
        <ele>2130.1999511719</ele>
        <time>2014-01-11T12:36:38.000Z</time>
      </trkpt>
      <trkpt lat="45.18219" lon="6.35618">
        <ele>2130.1999511719</ele>
        <time>2014-01-11T12:36:39.000Z</time>
      </trkpt>
      <trkpt lat="45.18219" lon="6.35618">
        <ele>2130.1999511719</ele>
        <time>2014-01-11T12:36:41.000Z</time>
      </trkpt>
      <trkpt lat="45.18219" lon="6.35619">
        <ele>2130.1999511719</ele>
        <time>2014-01-11T12:36:42.000Z</time>
      </trkpt>
      <trkpt lat="45.18219" lon="6.35619">
        <ele>2130.1999511719</ele>
        <time>2014-01-11T12:36:46.000Z</time>
      </trkpt>
      <trkpt lat="45.18219" lon="6.35619">
        <ele>2130.1999511719</ele>
        <time>2014-01-11T12:36:47.000Z</time>
      </trkpt>
      <trkpt lat="45.18219" lon="6.35619">
        <ele>2130.3999023438</ele>
        <time>2014-01-11T12:36:48.000Z</time>
      </trkpt>
      <trkpt lat="45.18219" lon="6.35619">
        <ele>2130.3999023438</ele>
        <time>2014-01-11T12:36:49.000Z</time>
      </trkpt>
      <trkpt lat="45.18219" lon="6.35619">
        <ele>2130.3999023438</ele>
        <time>2014-01-11T12:36:50.000Z</time>
      </trkpt>
      <trkpt lat="45.18219" lon="6.35619">
        <ele>2130.3999023438</ele>
        <time>2014-01-11T12:36:52.000Z</time>
      </trkpt>
      <trkpt lat="45.18219" lon="6.35619">
        <ele>2130.3999023438</ele>
        <time>2014-01-11T12:36:54.000Z</time>
      </trkpt>
      <trkpt lat="45.18219" lon="6.35619">
        <ele>2130.3999023438</ele>
        <time>2014-01-11T12:36:55.000Z</time>
      </trkpt>
      <trkpt lat="45.18219" lon="6.35619">
        <ele>2130.1999511719</ele>
        <time>2014-01-11T12:36:56.000Z</time>
      </trkpt>
      <trkpt lat="45.18219" lon="6.35619">
        <ele>2130.1999511719</ele>
        <time>2014-01-11T12:36:57.000Z</time>
      </trkpt>
      <trkpt lat="45.18219" lon="6.35619">
        <ele>2130.1999511719</ele>
        <time>2014-01-11T12:36:58.000Z</time>
      </trkpt>
      <trkpt lat="45.18219" lon="6.35619">
        <ele>2130.1999511719</ele>
        <time>2014-01-11T12:36:59.000Z</time>
      </trkpt>
      <trkpt lat="45.18219" lon="6.35619">
        <ele>2130.1999511719</ele>
        <time>2014-01-11T12:37:00.000Z</time>
      </trkpt>
      <trkpt lat="45.18219" lon="6.35619">
        <ele>2130.1999511719</ele>
        <time>2014-01-11T12:37:03.000Z</time>
      </trkpt>
      <trkpt lat="45.18219" lon="6.35619">
        <ele>2130.1999511719</ele>
        <time>2014-01-11T12:37:04.000Z</time>
      </trkpt>
      <trkpt lat="45.18219" lon="6.35619">
        <ele>2130.1999511719</ele>
        <time>2014-01-11T12:37:05.000Z</time>
      </trkpt>
      <trkpt lat="45.18219" lon="6.35619">
        <ele>2130.3999023438</ele>
        <time>2014-01-11T12:37:06.000Z</time>
      </trkpt>
      <trkpt lat="45.18219" lon="6.35619">
        <ele>2130.3999023438</ele>
        <time>2014-01-11T12:37:07.000Z</time>
      </trkpt>
      <trkpt lat="45.18219" lon="6.35619">
        <ele>2130.3999023438</ele>
        <time>2014-01-11T12:37:09.000Z</time>
      </trkpt>
      <trkpt lat="45.18219" lon="6.35619">
        <ele>2130.3999023438</ele>
        <time>2014-01-11T12:37:11.000Z</time>
      </trkpt>
      <trkpt lat="45.18219" lon="6.35619">
        <ele>2130.3999023438</ele>
        <time>2014-01-11T12:37:12.000Z</time>
      </trkpt>
      <trkpt lat="45.18219" lon="6.35619">
        <ele>2130.3999023438</ele>
        <time>2014-01-11T12:37:16.000Z</time>
      </trkpt>
      <trkpt lat="45.18219" lon="6.35619">
        <ele>2130.3999023438</ele>
        <time>2014-01-11T12:37:20.000Z</time>
      </trkpt>
      <trkpt lat="45.18219" lon="6.35619">
        <ele>2130.3999023438</ele>
        <time>2014-01-11T12:37:21.000Z</time>
      </trkpt>
      <trkpt lat="45.18219" lon="6.35619">
        <ele>2130.3999023438</ele>
        <time>2014-01-11T12:37:23.000Z</time>
      </trkpt>
      <trkpt lat="45.18219" lon="6.35619">
        <ele>2130.3999023438</ele>
        <time>2014-01-11T12:37:24.000Z</time>
      </trkpt>
      <trkpt lat="45.18219" lon="6.35619">
        <ele>2130.3999023438</ele>
        <time>2014-01-11T12:37:27.000Z</time>
      </trkpt>
      <trkpt lat="45.18219" lon="6.35619">
        <ele>2130.3999023438</ele>
        <time>2014-01-11T12:37:28.000Z</time>
      </trkpt>
      <trkpt lat="45.18221" lon="6.35618">
        <ele>2130.3999023438</ele>
        <time>2014-01-11T12:37:29.000Z</time>
      </trkpt>
      <trkpt lat="45.18223" lon="6.35618">
        <ele>2130.3999023438</ele>
        <time>2014-01-11T12:37:30.000Z</time>
      </trkpt>
      <trkpt lat="45.18225" lon="6.35618">
        <ele>2130.6000976562</ele>
        <time>2014-01-11T12:37:31.000Z</time>
      </trkpt>
      <trkpt lat="45.18226" lon="6.35617">
        <ele>2130.3999023438</ele>
        <time>2014-01-11T12:37:32.000Z</time>
      </trkpt>
      <trkpt lat="45.18228" lon="6.35617">
        <ele>2130.3999023438</ele>
        <time>2014-01-11T12:37:33.000Z</time>
      </trkpt>
      <trkpt lat="45.1823" lon="6.35617">
        <ele>2130.3999023438</ele>
        <time>2014-01-11T12:37:34.000Z</time>
      </trkpt>
      <trkpt lat="45.18232" lon="6.35617">
        <ele>2130.1999511719</ele>
        <time>2014-01-11T12:37:35.000Z</time>
      </trkpt>
      <trkpt lat="45.18233" lon="6.35617">
        <ele>2130.1999511719</ele>
        <time>2014-01-11T12:37:36.000Z</time>
      </trkpt>
      <trkpt lat="45.18235" lon="6.35617">
        <ele>2130</ele>
        <time>2014-01-11T12:37:37.000Z</time>
      </trkpt>
      <trkpt lat="45.18237" lon="6.35616">
        <ele>2129.6000976562</ele>
        <time>2014-01-11T12:37:38.000Z</time>
      </trkpt>
      <trkpt lat="45.18238" lon="6.35617">
        <ele>2129.3999023438</ele>
        <time>2014-01-11T12:37:39.000Z</time>
      </trkpt>
      <trkpt lat="45.18239" lon="6.35617">
        <ele>2129.3999023438</ele>
        <time>2014-01-11T12:37:40.000Z</time>
      </trkpt>
      <trkpt lat="45.1824" lon="6.35617">
        <ele>2129.1999511719</ele>
        <time>2014-01-11T12:37:41.000Z</time>
      </trkpt>
      <trkpt lat="45.18241" lon="6.35617">
        <ele>2129.1999511719</ele>
        <time>2014-01-11T12:37:42.000Z</time>
      </trkpt>
      <trkpt lat="45.18242" lon="6.35618">
        <ele>2129.1999511719</ele>
        <time>2014-01-11T12:37:43.000Z</time>
      </trkpt>
      <trkpt lat="45.18242" lon="6.35618">
        <ele>2129</ele>
        <time>2014-01-11T12:37:44.000Z</time>
      </trkpt>
      <trkpt lat="45.18243" lon="6.35618">
        <ele>2129</ele>
        <time>2014-01-11T12:37:45.000Z</time>
      </trkpt>
      <trkpt lat="45.18244" lon="6.35618">
        <ele>2128.8000488281</ele>
        <time>2014-01-11T12:37:46.000Z</time>
      </trkpt>
      <trkpt lat="45.18245" lon="6.35618">
        <ele>2128.6000976562</ele>
        <time>2014-01-11T12:37:47.000Z</time>
      </trkpt>
      <trkpt lat="45.18246" lon="6.35617">
        <ele>2128.6000976562</ele>
        <time>2014-01-11T12:37:48.000Z</time>
      </trkpt>
      <trkpt lat="45.18247" lon="6.35617">
        <ele>2128.6000976562</ele>
        <time>2014-01-11T12:37:49.000Z</time>
      </trkpt>
      <trkpt lat="45.18248" lon="6.35616">
        <ele>2128.6000976562</ele>
        <time>2014-01-11T12:37:50.000Z</time>
      </trkpt>
      <trkpt lat="45.18249" lon="6.35615">
        <ele>2128.6000976562</ele>
        <time>2014-01-11T12:37:51.000Z</time>
      </trkpt>
      <trkpt lat="45.18251" lon="6.35614">
        <ele>2128.6000976562</ele>
        <time>2014-01-11T12:37:53.000Z</time>
      </trkpt>
      <trkpt lat="45.18252" lon="6.35614">
        <ele>2128.3999023438</ele>
        <time>2014-01-11T12:37:54.000Z</time>
      </trkpt>
      <trkpt lat="45.18254" lon="6.35613">
        <ele>2128.3999023438</ele>
        <time>2014-01-11T12:37:55.000Z</time>
      </trkpt>
      <trkpt lat="45.18256" lon="6.35612">
        <ele>2128.3999023438</ele>
        <time>2014-01-11T12:37:56.000Z</time>
      </trkpt>
      <trkpt lat="45.18257" lon="6.3561">
        <ele>2128.3999023438</ele>
        <time>2014-01-11T12:37:57.000Z</time>
      </trkpt>
      <trkpt lat="45.18259" lon="6.3561">
        <ele>2128.3999023438</ele>
        <time>2014-01-11T12:37:58.000Z</time>
      </trkpt>
      <trkpt lat="45.1826" lon="6.3561">
        <ele>2128.1999511719</ele>
        <time>2014-01-11T12:37:59.000Z</time>
      </trkpt>
      <trkpt lat="45.1826" lon="6.3561">
        <ele>2128</ele>
        <time>2014-01-11T12:38:00.000Z</time>
      </trkpt>
      <trkpt lat="45.18261" lon="6.35611">
        <ele>2127.8000488281</ele>
        <time>2014-01-11T12:38:01.000Z</time>
      </trkpt>
      <trkpt lat="45.18261" lon="6.35611">
        <ele>2127.3999023438</ele>
        <time>2014-01-11T12:38:02.000Z</time>
      </trkpt>
      <trkpt lat="45.18261" lon="6.35611">
        <ele>2127.3999023438</ele>
        <time>2014-01-11T12:38:03.000Z</time>
      </trkpt>
      <trkpt lat="45.18261" lon="6.35611">
        <ele>2127.1999511719</ele>
        <time>2014-01-11T12:38:04.000Z</time>
      </trkpt>
      <trkpt lat="45.18261" lon="6.35611">
        <ele>2127.1999511719</ele>
        <time>2014-01-11T12:38:05.000Z</time>
      </trkpt>
      <trkpt lat="45.18261" lon="6.35611">
        <ele>2127.1999511719</ele>
        <time>2014-01-11T12:38:06.000Z</time>
      </trkpt>
      <trkpt lat="45.18261" lon="6.35611">
        <ele>2127.1999511719</ele>
        <time>2014-01-11T12:38:07.000Z</time>
      </trkpt>
      <trkpt lat="45.18261" lon="6.35611">
        <ele>2127.1999511719</ele>
        <time>2014-01-11T12:38:08.000Z</time>
      </trkpt>
      <trkpt lat="45.18261" lon="6.35611">
        <ele>2127.1999511719</ele>
        <time>2014-01-11T12:38:09.000Z</time>
      </trkpt>
      <trkpt lat="45.18261" lon="6.35611">
        <ele>2127.1999511719</ele>
        <time>2014-01-11T12:38:10.000Z</time>
      </trkpt>
      <trkpt lat="45.18261" lon="6.35611">
        <ele>2127.1999511719</ele>
        <time>2014-01-11T12:38:13.000Z</time>
      </trkpt>
      <trkpt lat="45.18261" lon="6.35611">
        <ele>2127.1999511719</ele>
        <time>2014-01-11T12:38:14.000Z</time>
      </trkpt>
      <trkpt lat="45.18261" lon="6.35611">
        <ele>2127.1999511719</ele>
        <time>2014-01-11T12:38:15.000Z</time>
      </trkpt>
      <trkpt lat="45.18261" lon="6.35611">
        <ele>2127.1999511719</ele>
        <time>2014-01-11T12:38:16.000Z</time>
      </trkpt>
      <trkpt lat="45.18261" lon="6.35611">
        <ele>2127.1999511719</ele>
        <time>2014-01-11T12:38:17.000Z</time>
      </trkpt>
      <trkpt lat="45.18261" lon="6.35611">
        <ele>2127.1999511719</ele>
        <time>2014-01-11T12:38:18.000Z</time>
      </trkpt>
      <trkpt lat="45.18261" lon="6.35611">
        <ele>2127.1999511719</ele>
        <time>2014-01-11T12:38:24.000Z</time>
      </trkpt>
      <trkpt lat="45.18261" lon="6.35611">
        <ele>2127.1999511719</ele>
        <time>2014-01-11T12:38:25.000Z</time>
      </trkpt>
      <trkpt lat="45.18261" lon="6.35611">
        <ele>2127.1999511719</ele>
        <time>2014-01-11T12:38:27.000Z</time>
      </trkpt>
      <trkpt lat="45.18261" lon="6.35611">
        <ele>2127.1999511719</ele>
        <time>2014-01-11T12:38:28.000Z</time>
      </trkpt>
      <trkpt lat="45.18261" lon="6.35611">
        <ele>2127.3999023438</ele>
        <time>2014-01-11T12:38:29.000Z</time>
      </trkpt>
      <trkpt lat="45.18261" lon="6.35611">
        <ele>2127.3999023438</ele>
        <time>2014-01-11T12:38:30.000Z</time>
      </trkpt>
      <trkpt lat="45.18261" lon="6.35611">
        <ele>2127.3999023438</ele>
        <time>2014-01-11T12:38:31.000Z</time>
      </trkpt>
      <trkpt lat="45.18261" lon="6.35611">
        <ele>2127.3999023438</ele>
        <time>2014-01-11T12:38:32.000Z</time>
      </trkpt>
      <trkpt lat="45.18261" lon="6.35611">
        <ele>2127.3999023438</ele>
        <time>2014-01-11T12:38:33.000Z</time>
      </trkpt>
      <trkpt lat="45.18261" lon="6.35611">
        <ele>2127.3999023438</ele>
        <time>2014-01-11T12:38:34.000Z</time>
      </trkpt>
      <trkpt lat="45.18261" lon="6.35611">
        <ele>2127.3999023438</ele>
        <time>2014-01-11T12:38:37.000Z</time>
      </trkpt>
      <trkpt lat="45.18261" lon="6.35611">
        <ele>2127.3999023438</ele>
        <time>2014-01-11T12:38:38.000Z</time>
      </trkpt>
      <trkpt lat="45.18263" lon="6.35611">
        <ele>2127.1999511719</ele>
        <time>2014-01-11T12:38:39.000Z</time>
      </trkpt>
      <trkpt lat="45.18264" lon="6.35611">
        <ele>2127.1999511719</ele>
        <time>2014-01-11T12:38:40.000Z</time>
      </trkpt>
      <trkpt lat="45.18265" lon="6.35611">
        <ele>2127.1999511719</ele>
        <time>2014-01-11T12:38:41.000Z</time>
      </trkpt>
      <trkpt lat="45.18267" lon="6.3561">
        <ele>2127.1999511719</ele>
        <time>2014-01-11T12:38:42.000Z</time>
      </trkpt>
      <trkpt lat="45.1827" lon="6.3561">
        <ele>2127.1999511719</ele>
        <time>2014-01-11T12:38:43.000Z</time>
      </trkpt>
      <trkpt lat="45.18273" lon="6.35608">
        <ele>2127.1999511719</ele>
        <time>2014-01-11T12:38:44.000Z</time>
      </trkpt>
      <trkpt lat="45.18278" lon="6.35607">
        <ele>2127</ele>
        <time>2014-01-11T12:38:45.000Z</time>
      </trkpt>
      <trkpt lat="45.18283" lon="6.35606">
        <ele>2126.8000488281</ele>
        <time>2014-01-11T12:38:46.000Z</time>
      </trkpt>
      <trkpt lat="45.18289" lon="6.35605">
        <ele>2126.6000976562</ele>
        <time>2014-01-11T12:38:47.000Z</time>
      </trkpt>
      <trkpt lat="45.18296" lon="6.35604">
        <ele>2126.1999511719</ele>
        <time>2014-01-11T12:38:48.000Z</time>
      </trkpt>
      <trkpt lat="45.18303" lon="6.35601">
        <ele>2125.6000976562</ele>
        <time>2014-01-11T12:38:49.000Z</time>
      </trkpt>
      <trkpt lat="45.18311" lon="6.35596">
        <ele>2124.1999511719</ele>
        <time>2014-01-11T12:38:50.000Z</time>
      </trkpt>
      <trkpt lat="45.18319" lon="6.35592">
        <ele>2123.1999511719</ele>
        <time>2014-01-11T12:38:51.000Z</time>
      </trkpt>
      <trkpt lat="45.18327" lon="6.35587">
        <ele>2121.8000488281</ele>
        <time>2014-01-11T12:38:52.000Z</time>
      </trkpt>
      <trkpt lat="45.18334" lon="6.35584">
        <ele>2120.3999023438</ele>
        <time>2014-01-11T12:38:53.000Z</time>
      </trkpt>
      <trkpt lat="45.1834" lon="6.35581">
        <ele>2119</ele>
        <time>2014-01-11T12:38:54.000Z</time>
      </trkpt>
      <trkpt lat="45.18346" lon="6.35579">
        <ele>2117.8000488281</ele>
        <time>2014-01-11T12:38:55.000Z</time>
      </trkpt>
      <trkpt lat="45.18352" lon="6.35577">
        <ele>2116.8000488281</ele>
        <time>2014-01-11T12:38:56.000Z</time>
      </trkpt>
      <trkpt lat="45.18356" lon="6.35578">
        <ele>2116</ele>
        <time>2014-01-11T12:38:57.000Z</time>
      </trkpt>
      <trkpt lat="45.18359" lon="6.3558">
        <ele>2115.3999023438</ele>
        <time>2014-01-11T12:38:58.000Z</time>
      </trkpt>
      <trkpt lat="45.18359" lon="6.35581">
        <ele>2114.8000488281</ele>
        <time>2014-01-11T12:38:59.000Z</time>
      </trkpt>
      <trkpt lat="45.18359" lon="6.35581">
        <ele>2114.3999023438</ele>
        <time>2014-01-11T12:39:00.000Z</time>
      </trkpt>
      <trkpt lat="45.18359" lon="6.35581">
        <ele>2114</ele>
        <time>2014-01-11T12:39:01.000Z</time>
      </trkpt>
      <trkpt lat="45.18359" lon="6.35581">
        <ele>2113.8000488281</ele>
        <time>2014-01-11T12:39:02.000Z</time>
      </trkpt>
      <trkpt lat="45.18359" lon="6.35581">
        <ele>2113.6000976562</ele>
        <time>2014-01-11T12:39:03.000Z</time>
      </trkpt>
      <trkpt lat="45.18359" lon="6.35581">
        <ele>2113.6000976562</ele>
        <time>2014-01-11T12:39:04.000Z</time>
      </trkpt>
      <trkpt lat="45.18359" lon="6.35581">
        <ele>2113.3999023438</ele>
        <time>2014-01-11T12:39:05.000Z</time>
      </trkpt>
      <trkpt lat="45.18359" lon="6.35581">
        <ele>2113.3999023438</ele>
        <time>2014-01-11T12:39:06.000Z</time>
      </trkpt>
      <trkpt lat="45.18359" lon="6.35581">
        <ele>2113.3999023438</ele>
        <time>2014-01-11T12:39:07.000Z</time>
      </trkpt>
      <trkpt lat="45.18359" lon="6.35581">
        <ele>2113.3999023438</ele>
        <time>2014-01-11T12:39:08.000Z</time>
      </trkpt>
      <trkpt lat="45.18359" lon="6.35581">
        <ele>2113.3999023438</ele>
        <time>2014-01-11T12:39:09.000Z</time>
      </trkpt>
      <trkpt lat="45.18359" lon="6.35581">
        <ele>2113.3999023438</ele>
        <time>2014-01-11T12:39:10.000Z</time>
      </trkpt>
      <trkpt lat="45.18359" lon="6.35581">
        <ele>2113.3999023438</ele>
        <time>2014-01-11T12:39:11.000Z</time>
      </trkpt>
      <trkpt lat="45.18359" lon="6.35581">
        <ele>2113.3999023438</ele>
        <time>2014-01-11T12:39:12.000Z</time>
      </trkpt>
      <trkpt lat="45.18359" lon="6.35581">
        <ele>2113.6000976562</ele>
        <time>2014-01-11T12:39:13.000Z</time>
      </trkpt>
      <trkpt lat="45.18359" lon="6.35581">
        <ele>2113.6000976562</ele>
        <time>2014-01-11T12:39:15.000Z</time>
      </trkpt>
      <trkpt lat="45.18359" lon="6.35581">
        <ele>2113.6000976562</ele>
        <time>2014-01-11T12:39:19.000Z</time>
      </trkpt>
      <trkpt lat="45.18359" lon="6.35581">
        <ele>2113.6000976562</ele>
        <time>2014-01-11T12:39:20.000Z</time>
      </trkpt>
      <trkpt lat="45.18359" lon="6.35581">
        <ele>2113.6000976562</ele>
        <time>2014-01-11T12:39:21.000Z</time>
      </trkpt>
      <trkpt lat="45.18359" lon="6.35581">
        <ele>2113.6000976562</ele>
        <time>2014-01-11T12:39:22.000Z</time>
      </trkpt>
      <trkpt lat="45.18359" lon="6.35581">
        <ele>2113.6000976562</ele>
        <time>2014-01-11T12:39:23.000Z</time>
      </trkpt>
      <trkpt lat="45.18359" lon="6.35581">
        <ele>2113.6000976562</ele>
        <time>2014-01-11T12:39:24.000Z</time>
      </trkpt>
      <trkpt lat="45.18359" lon="6.35581">
        <ele>2113.6000976562</ele>
        <time>2014-01-11T12:39:25.000Z</time>
      </trkpt>
      <trkpt lat="45.18359" lon="6.35581">
        <ele>2113.6000976562</ele>
        <time>2014-01-11T12:39:27.000Z</time>
      </trkpt>
      <trkpt lat="45.18359" lon="6.35581">
        <ele>2113.6000976562</ele>
        <time>2014-01-11T12:39:29.000Z</time>
      </trkpt>
      <trkpt lat="45.18359" lon="6.35581">
        <ele>2113.6000976562</ele>
        <time>2014-01-11T12:39:38.000Z</time>
      </trkpt>
      <trkpt lat="45.18359" lon="6.35581">
        <ele>2113.6000976562</ele>
        <time>2014-01-11T12:39:39.000Z</time>
      </trkpt>
      <trkpt lat="45.18359" lon="6.35581">
        <ele>2113.6000976562</ele>
        <time>2014-01-11T12:39:40.000Z</time>
      </trkpt>
      <trkpt lat="45.18359" lon="6.35581">
        <ele>2113.6000976562</ele>
        <time>2014-01-11T12:39:41.000Z</time>
      </trkpt>
      <trkpt lat="45.18359" lon="6.35581">
        <ele>2113.6000976562</ele>
        <time>2014-01-11T12:39:42.000Z</time>
      </trkpt>
      <trkpt lat="45.18359" lon="6.35581">
        <ele>2113.6000976562</ele>
        <time>2014-01-11T12:39:44.000Z</time>
      </trkpt>
      <trkpt lat="45.18359" lon="6.35581">
        <ele>2113.6000976562</ele>
        <time>2014-01-11T12:39:45.000Z</time>
      </trkpt>
      <trkpt lat="45.1836" lon="6.35579">
        <ele>2113.6000976562</ele>
        <time>2014-01-11T12:39:47.000Z</time>
      </trkpt>
      <trkpt lat="45.18361" lon="6.35577">
        <ele>2113.3999023438</ele>
        <time>2014-01-11T12:39:48.000Z</time>
      </trkpt>
      <trkpt lat="45.18359" lon="6.35574">
        <ele>2113.3999023438</ele>
        <time>2014-01-11T12:39:49.000Z</time>
      </trkpt>
      <trkpt lat="45.18355" lon="6.35572">
        <ele>2113.1999511719</ele>
        <time>2014-01-11T12:39:50.000Z</time>
      </trkpt>
      <trkpt lat="45.18352" lon="6.3557">
        <ele>2113</ele>
        <time>2014-01-11T12:39:51.000Z</time>
      </trkpt>
      <trkpt lat="45.18349" lon="6.35568">
        <ele>2112.3999023438</ele>
        <time>2014-01-11T12:39:52.000Z</time>
      </trkpt>
      <trkpt lat="45.18346" lon="6.35565">
        <ele>2111.3999023438</ele>
        <time>2014-01-11T12:39:53.000Z</time>
      </trkpt>
      <trkpt lat="45.18344" lon="6.3556">
        <ele>2110.3999023438</ele>
        <time>2014-01-11T12:39:54.000Z</time>
      </trkpt>
      <trkpt lat="45.18345" lon="6.35553">
        <ele>2109.3999023438</ele>
        <time>2014-01-11T12:39:55.000Z</time>
      </trkpt>
      <trkpt lat="45.18346" lon="6.35551">
        <ele>2108.6000976562</ele>
        <time>2014-01-11T12:39:56.000Z</time>
      </trkpt>
      <trkpt lat="45.18347" lon="6.3555">
        <ele>2108</ele>
        <time>2014-01-11T12:39:57.000Z</time>
      </trkpt>
      <trkpt lat="45.18348" lon="6.35551">
        <ele>2107.3999023438</ele>
        <time>2014-01-11T12:39:58.000Z</time>
      </trkpt>
      <trkpt lat="45.18349" lon="6.35552">
        <ele>2106.8000488281</ele>
        <time>2014-01-11T12:39:59.000Z</time>
      </trkpt>
      <trkpt lat="45.18351" lon="6.35553">
        <ele>2106.3999023438</ele>
        <time>2014-01-11T12:40:00.000Z</time>
      </trkpt>
      <trkpt lat="45.18353" lon="6.35555">
        <ele>2106</ele>
        <time>2014-01-11T12:40:01.000Z</time>
      </trkpt>
      <trkpt lat="45.18356" lon="6.35555">
        <ele>2104.8000488281</ele>
        <time>2014-01-11T12:40:02.000Z</time>
      </trkpt>
      <trkpt lat="45.18359" lon="6.35552">
        <ele>2104.3999023438</ele>
        <time>2014-01-11T12:40:03.000Z</time>
      </trkpt>
      <trkpt lat="45.18359" lon="6.35548">
        <ele>2104</ele>
        <time>2014-01-11T12:40:04.000Z</time>
      </trkpt>
      <trkpt lat="45.18361" lon="6.35544">
        <ele>2103.6000976562</ele>
        <time>2014-01-11T12:40:05.000Z</time>
      </trkpt>
      <trkpt lat="45.18362" lon="6.35537">
        <ele>2102.8000488281</ele>
        <time>2014-01-11T12:40:06.000Z</time>
      </trkpt>
      <trkpt lat="45.18362" lon="6.35531">
        <ele>2101.8000488281</ele>
        <time>2014-01-11T12:40:07.000Z</time>
      </trkpt>
      <trkpt lat="45.18364" lon="6.35525">
        <ele>2100.3999023438</ele>
        <time>2014-01-11T12:40:08.000Z</time>
      </trkpt>
      <trkpt lat="45.18364" lon="6.35519">
        <ele>2099</ele>
        <time>2014-01-11T12:40:09.000Z</time>
      </trkpt>
      <trkpt lat="45.18366" lon="6.35514">
        <ele>2097.3999023438</ele>
        <time>2014-01-11T12:40:10.000Z</time>
      </trkpt>
      <trkpt lat="45.18367" lon="6.35507">
        <ele>2095.6000976562</ele>
        <time>2014-01-11T12:40:11.000Z</time>
      </trkpt>
      <trkpt lat="45.18368" lon="6.35498">
        <ele>2094</ele>
        <time>2014-01-11T12:40:12.000Z</time>
      </trkpt>
      <trkpt lat="45.18371" lon="6.35489">
        <ele>2092.1999511719</ele>
        <time>2014-01-11T12:40:13.000Z</time>
      </trkpt>
      <trkpt lat="45.18374" lon="6.35483">
        <ele>2090.3999023438</ele>
        <time>2014-01-11T12:40:14.000Z</time>
      </trkpt>
      <trkpt lat="45.18376" lon="6.3548">
        <ele>2088.6000976562</ele>
        <time>2014-01-11T12:40:15.000Z</time>
      </trkpt>
      <trkpt lat="45.18377" lon="6.35478">
        <ele>2086.6000976562</ele>
        <time>2014-01-11T12:40:16.000Z</time>
      </trkpt>
      <trkpt lat="45.18378" lon="6.35476">
        <ele>2084.8000488281</ele>
        <time>2014-01-11T12:40:17.000Z</time>
      </trkpt>
      <trkpt lat="45.1838" lon="6.35474">
        <ele>2083.3999023438</ele>
        <time>2014-01-11T12:40:18.000Z</time>
      </trkpt>
      <trkpt lat="45.18382" lon="6.35473">
        <ele>2082.3999023438</ele>
        <time>2014-01-11T12:40:19.000Z</time>
      </trkpt>
      <trkpt lat="45.18384" lon="6.35472">
        <ele>2081.8000488281</ele>
        <time>2014-01-11T12:40:20.000Z</time>
      </trkpt>
      <trkpt lat="45.18388" lon="6.35475">
        <ele>2081.1999511719</ele>
        <time>2014-01-11T12:40:21.000Z</time>
      </trkpt>
      <trkpt lat="45.18392" lon="6.35475">
        <ele>2080.8000488281</ele>
        <time>2014-01-11T12:40:22.000Z</time>
      </trkpt>
      <trkpt lat="45.18393" lon="6.35471">
        <ele>2080.3999023438</ele>
        <time>2014-01-11T12:40:23.000Z</time>
      </trkpt>
      <trkpt lat="45.18394" lon="6.35468">
        <ele>2080</ele>
        <time>2014-01-11T12:40:24.000Z</time>
      </trkpt>
      <trkpt lat="45.18395" lon="6.35461">
        <ele>2079.6000976562</ele>
        <time>2014-01-11T12:40:25.000Z</time>
      </trkpt>
      <trkpt lat="45.18398" lon="6.35454">
        <ele>2078.8000488281</ele>
        <time>2014-01-11T12:40:26.000Z</time>
      </trkpt>
      <trkpt lat="45.18398" lon="6.35449">
        <ele>2076</ele>
        <time>2014-01-11T12:40:27.000Z</time>
      </trkpt>
      <trkpt lat="45.18397" lon="6.35442">
        <ele>2074.6000976562</ele>
        <time>2014-01-11T12:40:28.000Z</time>
      </trkpt>
      <trkpt lat="45.18398" lon="6.35433">
        <ele>2073</ele>
        <time>2014-01-11T12:40:29.000Z</time>
      </trkpt>
      <trkpt lat="45.18398" lon="6.35425">
        <ele>2071.3999023438</ele>
        <time>2014-01-11T12:40:30.000Z</time>
      </trkpt>
      <trkpt lat="45.18402" lon="6.35416">
        <ele>2069.6000976562</ele>
        <time>2014-01-11T12:40:31.000Z</time>
      </trkpt>
      <trkpt lat="45.18407" lon="6.35408">
        <ele>2068</ele>
        <time>2014-01-11T12:40:32.000Z</time>
      </trkpt>
      <trkpt lat="45.18413" lon="6.35403">
        <ele>2066.1999511719</ele>
        <time>2014-01-11T12:40:33.000Z</time>
      </trkpt>
      <trkpt lat="45.18421" lon="6.35401">
        <ele>2064.1999511719</ele>
        <time>2014-01-11T12:40:34.000Z</time>
      </trkpt>
      <trkpt lat="45.18428" lon="6.35398">
        <ele>2062.6000976562</ele>
        <time>2014-01-11T12:40:35.000Z</time>
      </trkpt>
      <trkpt lat="45.18435" lon="6.35395">
        <ele>2061</ele>
        <time>2014-01-11T12:40:36.000Z</time>
      </trkpt>
      <trkpt lat="45.18442" lon="6.35393">
        <ele>2060</ele>
        <time>2014-01-11T12:40:37.000Z</time>
      </trkpt>
      <trkpt lat="45.18447" lon="6.35392">
        <ele>2059</ele>
        <time>2014-01-11T12:40:38.000Z</time>
      </trkpt>
      <trkpt lat="45.18452" lon="6.35391">
        <ele>2058.3999023438</ele>
        <time>2014-01-11T12:40:39.000Z</time>
      </trkpt>
      <trkpt lat="45.18457" lon="6.35391">
        <ele>2057.8000488281</ele>
        <time>2014-01-11T12:40:40.000Z</time>
      </trkpt>
      <trkpt lat="45.18462" lon="6.3539">
        <ele>2057.1999511719</ele>
        <time>2014-01-11T12:40:41.000Z</time>
      </trkpt>
      <trkpt lat="45.18467" lon="6.3539">
        <ele>2056.6000976562</ele>
        <time>2014-01-11T12:40:42.000Z</time>
      </trkpt>
      <trkpt lat="45.18471" lon="6.35391">
        <ele>2056.1999511719</ele>
        <time>2014-01-11T12:40:43.000Z</time>
      </trkpt>
      <trkpt lat="45.18474" lon="6.35393">
        <ele>2055.8000488281</ele>
        <time>2014-01-11T12:40:44.000Z</time>
      </trkpt>
      <trkpt lat="45.18476" lon="6.35395">
        <ele>2055.3999023438</ele>
        <time>2014-01-11T12:40:45.000Z</time>
      </trkpt>
      <trkpt lat="45.18477" lon="6.35396">
        <ele>2055</ele>
        <time>2014-01-11T12:40:46.000Z</time>
      </trkpt>
      <trkpt lat="45.18477" lon="6.35397">
        <ele>2054.8000488281</ele>
        <time>2014-01-11T12:40:47.000Z</time>
      </trkpt>
      <trkpt lat="45.18478" lon="6.35398">
        <ele>2054.6000976562</ele>
        <time>2014-01-11T12:40:48.000Z</time>
      </trkpt>
      <trkpt lat="45.18479" lon="6.35399">
        <ele>2054.3999023438</ele>
        <time>2014-01-11T12:40:49.000Z</time>
      </trkpt>
      <trkpt lat="45.18479" lon="6.35399">
        <ele>2054.3999023438</ele>
        <time>2014-01-11T12:40:50.000Z</time>
      </trkpt>
      <trkpt lat="45.18479" lon="6.35399">
        <ele>2054.3999023438</ele>
        <time>2014-01-11T12:40:52.000Z</time>
      </trkpt>
      <trkpt lat="45.18479" lon="6.35399">
        <ele>2054.3999023438</ele>
        <time>2014-01-11T12:40:53.000Z</time>
      </trkpt>
      <trkpt lat="45.18479" lon="6.35399">
        <ele>2054.3999023438</ele>
        <time>2014-01-11T12:40:55.000Z</time>
      </trkpt>
      <trkpt lat="45.18479" lon="6.35399">
        <ele>2054.3999023438</ele>
        <time>2014-01-11T12:40:56.000Z</time>
      </trkpt>
      <trkpt lat="45.18479" lon="6.35399">
        <ele>2054.1999511719</ele>
        <time>2014-01-11T12:40:57.000Z</time>
      </trkpt>
      <trkpt lat="45.18479" lon="6.35399">
        <ele>2054.1999511719</ele>
        <time>2014-01-11T12:40:58.000Z</time>
      </trkpt>
      <trkpt lat="45.18479" lon="6.35399">
        <ele>2054.1999511719</ele>
        <time>2014-01-11T12:40:59.000Z</time>
      </trkpt>
      <trkpt lat="45.18479" lon="6.35399">
        <ele>2054.1999511719</ele>
        <time>2014-01-11T12:41:00.000Z</time>
      </trkpt>
      <trkpt lat="45.18479" lon="6.35399">
        <ele>2054.1999511719</ele>
        <time>2014-01-11T12:41:03.000Z</time>
      </trkpt>
      <trkpt lat="45.18479" lon="6.35399">
        <ele>2054.1999511719</ele>
        <time>2014-01-11T12:41:04.000Z</time>
      </trkpt>
      <trkpt lat="45.18479" lon="6.35399">
        <ele>2054.1999511719</ele>
        <time>2014-01-11T12:41:05.000Z</time>
      </trkpt>
      <trkpt lat="45.18479" lon="6.35399">
        <ele>2054.1999511719</ele>
        <time>2014-01-11T12:41:06.000Z</time>
      </trkpt>
      <trkpt lat="45.18479" lon="6.35399">
        <ele>2054.1999511719</ele>
        <time>2014-01-11T12:41:08.000Z</time>
      </trkpt>
      <trkpt lat="45.18479" lon="6.35399">
        <ele>2054.1999511719</ele>
        <time>2014-01-11T12:41:12.000Z</time>
      </trkpt>
      <trkpt lat="45.18479" lon="6.35399">
        <ele>2054.3999023438</ele>
        <time>2014-01-11T12:41:13.000Z</time>
      </trkpt>
      <trkpt lat="45.18479" lon="6.35399">
        <ele>2054.1999511719</ele>
        <time>2014-01-11T12:41:15.000Z</time>
      </trkpt>
      <trkpt lat="45.18479" lon="6.35399">
        <ele>2054.1999511719</ele>
        <time>2014-01-11T12:41:16.000Z</time>
      </trkpt>
      <trkpt lat="45.18479" lon="6.35399">
        <ele>2054.1999511719</ele>
        <time>2014-01-11T12:41:17.000Z</time>
      </trkpt>
      <trkpt lat="45.18479" lon="6.35399">
        <ele>2054.1999511719</ele>
        <time>2014-01-11T12:41:18.000Z</time>
      </trkpt>
      <trkpt lat="45.18479" lon="6.35399">
        <ele>2054.1999511719</ele>
        <time>2014-01-11T12:41:19.000Z</time>
      </trkpt>
      <trkpt lat="45.18479" lon="6.35399">
        <ele>2054.1999511719</ele>
        <time>2014-01-11T12:41:20.000Z</time>
      </trkpt>
      <trkpt lat="45.18479" lon="6.35399">
        <ele>2054.1999511719</ele>
        <time>2014-01-11T12:41:21.000Z</time>
      </trkpt>
      <trkpt lat="45.18479" lon="6.35399">
        <ele>2054.1999511719</ele>
        <time>2014-01-11T12:41:22.000Z</time>
      </trkpt>
      <trkpt lat="45.18479" lon="6.35399">
        <ele>2054.1999511719</ele>
        <time>2014-01-11T12:41:23.000Z</time>
      </trkpt>
      <trkpt lat="45.18479" lon="6.35399">
        <ele>2054.1999511719</ele>
        <time>2014-01-11T12:41:26.000Z</time>
      </trkpt>
      <trkpt lat="45.18479" lon="6.35399">
        <ele>2054.1999511719</ele>
        <time>2014-01-11T12:41:27.000Z</time>
      </trkpt>
      <trkpt lat="45.18479" lon="6.35399">
        <ele>2054.1999511719</ele>
        <time>2014-01-11T12:41:28.000Z</time>
      </trkpt>
      <trkpt lat="45.18479" lon="6.35399">
        <ele>2054.1999511719</ele>
        <time>2014-01-11T12:41:30.000Z</time>
      </trkpt>
      <trkpt lat="45.18479" lon="6.35399">
        <ele>2054</ele>
        <time>2014-01-11T12:41:31.000Z</time>
      </trkpt>
      <trkpt lat="45.18479" lon="6.35399">
        <ele>2054</ele>
        <time>2014-01-11T12:41:32.000Z</time>
      </trkpt>
      <trkpt lat="45.18479" lon="6.35399">
        <ele>2054</ele>
        <time>2014-01-11T12:41:33.000Z</time>
      </trkpt>
      <trkpt lat="45.18479" lon="6.35399">
        <ele>2054</ele>
        <time>2014-01-11T12:41:34.000Z</time>
      </trkpt>
      <trkpt lat="45.18479" lon="6.35399">
        <ele>2054</ele>
        <time>2014-01-11T12:41:35.000Z</time>
      </trkpt>
      <trkpt lat="45.18479" lon="6.35399">
        <ele>2054.1999511719</ele>
        <time>2014-01-11T12:41:36.000Z</time>
      </trkpt>
      <trkpt lat="45.18479" lon="6.35399">
        <ele>2054.1999511719</ele>
        <time>2014-01-11T12:41:38.000Z</time>
      </trkpt>
      <trkpt lat="45.18479" lon="6.35399">
        <ele>2054</ele>
        <time>2014-01-11T12:41:40.000Z</time>
      </trkpt>
      <trkpt lat="45.18479" lon="6.35399">
        <ele>2054</ele>
        <time>2014-01-11T12:41:41.000Z</time>
      </trkpt>
      <trkpt lat="45.18479" lon="6.35399">
        <ele>2054</ele>
        <time>2014-01-11T12:41:42.000Z</time>
      </trkpt>
      <trkpt lat="45.18479" lon="6.35399">
        <ele>2054</ele>
        <time>2014-01-11T12:41:44.000Z</time>
      </trkpt>
      <trkpt lat="45.18479" lon="6.35399">
        <ele>2054</ele>
        <time>2014-01-11T12:41:45.000Z</time>
      </trkpt>
      <trkpt lat="45.18479" lon="6.35399">
        <ele>2054</ele>
        <time>2014-01-11T12:41:48.000Z</time>
      </trkpt>
      <trkpt lat="45.18479" lon="6.35399">
        <ele>2054</ele>
        <time>2014-01-11T12:41:49.000Z</time>
      </trkpt>
      <trkpt lat="45.18479" lon="6.35399">
        <ele>2054</ele>
        <time>2014-01-11T12:41:51.000Z</time>
      </trkpt>
      <trkpt lat="45.18479" lon="6.35399">
        <ele>2054.1999511719</ele>
        <time>2014-01-11T12:41:52.000Z</time>
      </trkpt>
      <trkpt lat="45.18479" lon="6.35399">
        <ele>2054.1999511719</ele>
        <time>2014-01-11T12:41:53.000Z</time>
      </trkpt>
      <trkpt lat="45.18479" lon="6.35399">
        <ele>2054.1999511719</ele>
        <time>2014-01-11T12:41:54.000Z</time>
      </trkpt>
      <trkpt lat="45.18479" lon="6.35399">
        <ele>2054.1999511719</ele>
        <time>2014-01-11T12:41:55.000Z</time>
      </trkpt>
      <trkpt lat="45.18479" lon="6.35399">
        <ele>2054.1999511719</ele>
        <time>2014-01-11T12:41:56.000Z</time>
      </trkpt>
      <trkpt lat="45.18479" lon="6.35399">
        <ele>2054.1999511719</ele>
        <time>2014-01-11T12:41:58.000Z</time>
      </trkpt>
      <trkpt lat="45.18479" lon="6.35399">
        <ele>2054.1999511719</ele>
        <time>2014-01-11T12:42:02.000Z</time>
      </trkpt>
      <trkpt lat="45.18479" lon="6.354">
        <ele>2054.1999511719</ele>
        <time>2014-01-11T12:42:11.000Z</time>
      </trkpt>
      <trkpt lat="45.18479" lon="6.354">
        <ele>2054.1999511719</ele>
        <time>2014-01-11T12:42:14.000Z</time>
      </trkpt>
      <trkpt lat="45.18479" lon="6.354">
        <ele>2054.1999511719</ele>
        <time>2014-01-11T12:42:15.000Z</time>
      </trkpt>
      <trkpt lat="45.18479" lon="6.354">
        <ele>2054.1999511719</ele>
        <time>2014-01-11T12:42:17.000Z</time>
      </trkpt>
      <trkpt lat="45.18479" lon="6.354">
        <ele>2054.1999511719</ele>
        <time>2014-01-11T12:42:18.000Z</time>
      </trkpt>
      <trkpt lat="45.18479" lon="6.354">
        <ele>2054.1999511719</ele>
        <time>2014-01-11T12:42:23.000Z</time>
      </trkpt>
      <trkpt lat="45.18479" lon="6.354">
        <ele>2054.1999511719</ele>
        <time>2014-01-11T12:42:24.000Z</time>
      </trkpt>
      <trkpt lat="45.18479" lon="6.354">
        <ele>2054.1999511719</ele>
        <time>2014-01-11T12:42:26.000Z</time>
      </trkpt>
      <trkpt lat="45.18479" lon="6.354">
        <ele>2054.1999511719</ele>
        <time>2014-01-11T12:42:27.000Z</time>
      </trkpt>
      <trkpt lat="45.18479" lon="6.354">
        <ele>2054.1999511719</ele>
        <time>2014-01-11T12:42:28.000Z</time>
      </trkpt>
      <trkpt lat="45.18479" lon="6.354">
        <ele>2054.1999511719</ele>
        <time>2014-01-11T12:42:29.000Z</time>
      </trkpt>
      <trkpt lat="45.18479" lon="6.354">
        <ele>2054.1999511719</ele>
        <time>2014-01-11T12:42:30.000Z</time>
      </trkpt>
      <trkpt lat="45.18479" lon="6.354">
        <ele>2054.1999511719</ele>
        <time>2014-01-11T12:42:35.000Z</time>
      </trkpt>
      <trkpt lat="45.18479" lon="6.354">
        <ele>2054.1999511719</ele>
        <time>2014-01-11T12:42:36.000Z</time>
      </trkpt>
      <trkpt lat="45.18479" lon="6.354">
        <ele>2054.1999511719</ele>
        <time>2014-01-11T12:42:37.000Z</time>
      </trkpt>
      <trkpt lat="45.18479" lon="6.354">
        <ele>2054.1999511719</ele>
        <time>2014-01-11T12:42:38.000Z</time>
      </trkpt>
      <trkpt lat="45.18479" lon="6.354">
        <ele>2054.1999511719</ele>
        <time>2014-01-11T12:42:39.000Z</time>
      </trkpt>
      <trkpt lat="45.18479" lon="6.354">
        <ele>2054.1999511719</ele>
        <time>2014-01-11T12:42:44.000Z</time>
      </trkpt>
      <trkpt lat="45.18479" lon="6.354">
        <ele>2054.1999511719</ele>
        <time>2014-01-11T12:42:45.000Z</time>
      </trkpt>
      <trkpt lat="45.18479" lon="6.354">
        <ele>2054.1999511719</ele>
        <time>2014-01-11T12:42:46.000Z</time>
      </trkpt>
      <trkpt lat="45.18479" lon="6.354">
        <ele>2054.1999511719</ele>
        <time>2014-01-11T12:42:49.000Z</time>
      </trkpt>
      <trkpt lat="45.18479" lon="6.354">
        <ele>2054.1999511719</ele>
        <time>2014-01-11T12:42:50.000Z</time>
      </trkpt>
      <trkpt lat="45.18479" lon="6.354">
        <ele>2054.1999511719</ele>
        <time>2014-01-11T12:42:51.000Z</time>
      </trkpt>
      <trkpt lat="45.18479" lon="6.354">
        <ele>2054.1999511719</ele>
        <time>2014-01-11T12:42:52.000Z</time>
      </trkpt>
      <trkpt lat="45.18479" lon="6.354">
        <ele>2054.1999511719</ele>
        <time>2014-01-11T12:42:53.000Z</time>
      </trkpt>
      <trkpt lat="45.18484" lon="6.35401">
        <ele>2054.1999511719</ele>
        <time>2014-01-11T12:42:55.000Z</time>
      </trkpt>
      <trkpt lat="45.18486" lon="6.35401">
        <ele>2054.1999511719</ele>
        <time>2014-01-11T12:42:56.000Z</time>
      </trkpt>
      <trkpt lat="45.18488" lon="6.35402">
        <ele>2054.1999511719</ele>
        <time>2014-01-11T12:42:57.000Z</time>
      </trkpt>
      <trkpt lat="45.18489" lon="6.35403">
        <ele>2054</ele>
        <time>2014-01-11T12:42:58.000Z</time>
      </trkpt>
      <trkpt lat="45.18489" lon="6.35403">
        <ele>2053.6000976562</ele>
        <time>2014-01-11T12:42:59.000Z</time>
      </trkpt>
      <trkpt lat="45.1849" lon="6.35403">
        <ele>2053.3999023438</ele>
        <time>2014-01-11T12:43:00.000Z</time>
      </trkpt>
      <trkpt lat="45.18491" lon="6.35403">
        <ele>2053.1999511719</ele>
        <time>2014-01-11T12:43:01.000Z</time>
      </trkpt>
      <trkpt lat="45.18491" lon="6.35403">
        <ele>2053</ele>
        <time>2014-01-11T12:43:02.000Z</time>
      </trkpt>
      <trkpt lat="45.18492" lon="6.35403">
        <ele>2053</ele>
        <time>2014-01-11T12:43:03.000Z</time>
      </trkpt>
      <trkpt lat="45.18492" lon="6.35403">
        <ele>2052.8000488281</ele>
        <time>2014-01-11T12:43:04.000Z</time>
      </trkpt>
      <trkpt lat="45.18492" lon="6.35403">
        <ele>2052.8000488281</ele>
        <time>2014-01-11T12:43:05.000Z</time>
      </trkpt>
      <trkpt lat="45.18492" lon="6.35403">
        <ele>2052.8000488281</ele>
        <time>2014-01-11T12:43:06.000Z</time>
      </trkpt>
      <trkpt lat="45.18492" lon="6.35403">
        <ele>2052.8000488281</ele>
        <time>2014-01-11T12:43:07.000Z</time>
      </trkpt>
      <trkpt lat="45.18492" lon="6.35403">
        <ele>2052.6000976562</ele>
        <time>2014-01-11T12:43:08.000Z</time>
      </trkpt>
      <trkpt lat="45.18492" lon="6.35403">
        <ele>2052.6000976562</ele>
        <time>2014-01-11T12:43:09.000Z</time>
      </trkpt>
      <trkpt lat="45.18492" lon="6.35403">
        <ele>2052.6000976562</ele>
        <time>2014-01-11T12:43:10.000Z</time>
      </trkpt>
      <trkpt lat="45.18492" lon="6.35403">
        <ele>2052.6000976562</ele>
        <time>2014-01-11T12:43:12.000Z</time>
      </trkpt>
      <trkpt lat="45.18492" lon="6.35403">
        <ele>2052.6000976562</ele>
        <time>2014-01-11T12:43:13.000Z</time>
      </trkpt>
      <trkpt lat="45.18492" lon="6.35403">
        <ele>2052.6000976562</ele>
        <time>2014-01-11T12:43:14.000Z</time>
      </trkpt>
      <trkpt lat="45.18492" lon="6.35403">
        <ele>2052.6000976562</ele>
        <time>2014-01-11T12:43:15.000Z</time>
      </trkpt>
      <trkpt lat="45.18492" lon="6.35403">
        <ele>2052.6000976562</ele>
        <time>2014-01-11T12:43:17.000Z</time>
      </trkpt>
      <trkpt lat="45.18492" lon="6.35403">
        <ele>2052.6000976562</ele>
        <time>2014-01-11T12:43:18.000Z</time>
      </trkpt>
      <trkpt lat="45.18492" lon="6.35403">
        <ele>2052.6000976562</ele>
        <time>2014-01-11T12:43:19.000Z</time>
      </trkpt>
      <trkpt lat="45.18492" lon="6.35403">
        <ele>2052.6000976562</ele>
        <time>2014-01-11T12:43:20.000Z</time>
      </trkpt>
      <trkpt lat="45.18492" lon="6.35403">
        <ele>2052.6000976562</ele>
        <time>2014-01-11T12:43:25.000Z</time>
      </trkpt>
      <trkpt lat="45.18492" lon="6.35403">
        <ele>2052.6000976562</ele>
        <time>2014-01-11T12:43:26.000Z</time>
      </trkpt>
      <trkpt lat="45.18492" lon="6.35403">
        <ele>2052.6000976562</ele>
        <time>2014-01-11T12:43:29.000Z</time>
      </trkpt>
      <trkpt lat="45.18492" lon="6.35403">
        <ele>2052.6000976562</ele>
        <time>2014-01-11T12:43:32.000Z</time>
      </trkpt>
      <trkpt lat="45.18492" lon="6.35403">
        <ele>2052.6000976562</ele>
        <time>2014-01-11T12:43:34.000Z</time>
      </trkpt>
      <trkpt lat="45.18492" lon="6.35403">
        <ele>2052.6000976562</ele>
        <time>2014-01-11T12:43:35.000Z</time>
      </trkpt>
      <trkpt lat="45.18492" lon="6.35403">
        <ele>2052.6000976562</ele>
        <time>2014-01-11T12:43:36.000Z</time>
      </trkpt>
      <trkpt lat="45.18492" lon="6.35403">
        <ele>2052.6000976562</ele>
        <time>2014-01-11T12:43:37.000Z</time>
      </trkpt>
      <trkpt lat="45.18492" lon="6.35403">
        <ele>2052.8000488281</ele>
        <time>2014-01-11T12:43:38.000Z</time>
      </trkpt>
      <trkpt lat="45.18492" lon="6.35403">
        <ele>2052.6000976562</ele>
        <time>2014-01-11T12:43:39.000Z</time>
      </trkpt>
      <trkpt lat="45.18492" lon="6.35403">
        <ele>2052.6000976562</ele>
        <time>2014-01-11T12:43:40.000Z</time>
      </trkpt>
      <trkpt lat="45.18492" lon="6.35403">
        <ele>2052.6000976562</ele>
        <time>2014-01-11T12:43:41.000Z</time>
      </trkpt>
      <trkpt lat="45.18492" lon="6.35403">
        <ele>2052.6000976562</ele>
        <time>2014-01-11T12:43:43.000Z</time>
      </trkpt>
      <trkpt lat="45.18492" lon="6.35403">
        <ele>2052.8000488281</ele>
        <time>2014-01-11T12:43:44.000Z</time>
      </trkpt>
      <trkpt lat="45.18492" lon="6.35403">
        <ele>2052.8000488281</ele>
        <time>2014-01-11T12:43:45.000Z</time>
      </trkpt>
      <trkpt lat="45.18492" lon="6.35403">
        <ele>2052.8000488281</ele>
        <time>2014-01-11T12:43:46.000Z</time>
      </trkpt>
      <trkpt lat="45.18492" lon="6.35403">
        <ele>2052.8000488281</ele>
        <time>2014-01-11T12:43:47.000Z</time>
      </trkpt>
      <trkpt lat="45.18492" lon="6.35403">
        <ele>2052.8000488281</ele>
        <time>2014-01-11T12:43:48.000Z</time>
      </trkpt>
      <trkpt lat="45.18492" lon="6.35403">
        <ele>2052.8000488281</ele>
        <time>2014-01-11T12:43:52.000Z</time>
      </trkpt>
      <trkpt lat="45.18492" lon="6.35403">
        <ele>2052.8000488281</ele>
        <time>2014-01-11T12:43:53.000Z</time>
      </trkpt>
      <trkpt lat="45.18492" lon="6.35403">
        <ele>2052.8000488281</ele>
        <time>2014-01-11T12:43:54.000Z</time>
      </trkpt>
      <trkpt lat="45.18492" lon="6.35403">
        <ele>2052.6000976562</ele>
        <time>2014-01-11T12:43:55.000Z</time>
      </trkpt>
      <trkpt lat="45.18492" lon="6.35403">
        <ele>2052.6000976562</ele>
        <time>2014-01-11T12:43:56.000Z</time>
      </trkpt>
      <trkpt lat="45.18492" lon="6.35403">
        <ele>2052.6000976562</ele>
        <time>2014-01-11T12:43:57.000Z</time>
      </trkpt>
      <trkpt lat="45.18492" lon="6.35403">
        <ele>2052.6000976562</ele>
        <time>2014-01-11T12:43:58.000Z</time>
      </trkpt>
      <trkpt lat="45.18492" lon="6.35403">
        <ele>2052.6000976562</ele>
        <time>2014-01-11T12:43:59.000Z</time>
      </trkpt>
      <trkpt lat="45.18492" lon="6.35403">
        <ele>2052.6000976562</ele>
        <time>2014-01-11T12:44:02.000Z</time>
      </trkpt>
      <trkpt lat="45.18494" lon="6.35403">
        <ele>2052.6000976562</ele>
        <time>2014-01-11T12:44:06.000Z</time>
      </trkpt>
      <trkpt lat="45.18497" lon="6.35402">
        <ele>2052.3999023438</ele>
        <time>2014-01-11T12:44:07.000Z</time>
      </trkpt>
      <trkpt lat="45.185" lon="6.35402">
        <ele>2052.3999023438</ele>
        <time>2014-01-11T12:44:08.000Z</time>
      </trkpt>
      <trkpt lat="45.18502" lon="6.35403">
        <ele>2052.3999023438</ele>
        <time>2014-01-11T12:44:09.000Z</time>
      </trkpt>
      <trkpt lat="45.18503" lon="6.35404">
        <ele>2052.1999511719</ele>
        <time>2014-01-11T12:44:10.000Z</time>
      </trkpt>
      <trkpt lat="45.18504" lon="6.35405">
        <ele>2052</ele>
        <time>2014-01-11T12:44:11.000Z</time>
      </trkpt>
      <trkpt lat="45.18504" lon="6.35405">
        <ele>2051.8000488281</ele>
        <time>2014-01-11T12:44:12.000Z</time>
      </trkpt>
      <trkpt lat="45.18504" lon="6.35405">
        <ele>2051.6000976562</ele>
        <time>2014-01-11T12:44:13.000Z</time>
      </trkpt>
      <trkpt lat="45.18504" lon="6.35405">
        <ele>2051.3999023438</ele>
        <time>2014-01-11T12:44:14.000Z</time>
      </trkpt>
      <trkpt lat="45.18504" lon="6.35405">
        <ele>2051.3999023438</ele>
        <time>2014-01-11T12:44:15.000Z</time>
      </trkpt>
      <trkpt lat="45.18504" lon="6.35405">
        <ele>2051.1999511719</ele>
        <time>2014-01-11T12:44:16.000Z</time>
      </trkpt>
      <trkpt lat="45.18504" lon="6.35405">
        <ele>2051.1999511719</ele>
        <time>2014-01-11T12:44:17.000Z</time>
      </trkpt>
      <trkpt lat="45.18504" lon="6.35405">
        <ele>2051.1999511719</ele>
        <time>2014-01-11T12:44:18.000Z</time>
      </trkpt>
      <trkpt lat="45.18504" lon="6.35405">
        <ele>2051</ele>
        <time>2014-01-11T12:44:19.000Z</time>
      </trkpt>
      <trkpt lat="45.18504" lon="6.35405">
        <ele>2051</ele>
        <time>2014-01-11T12:44:20.000Z</time>
      </trkpt>
      <trkpt lat="45.18504" lon="6.35405">
        <ele>2051</ele>
        <time>2014-01-11T12:44:21.000Z</time>
      </trkpt>
      <trkpt lat="45.18504" lon="6.35405">
        <ele>2051</ele>
        <time>2014-01-11T12:44:22.000Z</time>
      </trkpt>
      <trkpt lat="45.18504" lon="6.35405">
        <ele>2051</ele>
        <time>2014-01-11T12:44:23.000Z</time>
      </trkpt>
      <trkpt lat="45.18504" lon="6.35405">
        <ele>2051</ele>
        <time>2014-01-11T12:44:25.000Z</time>
      </trkpt>
      <trkpt lat="45.18504" lon="6.35405">
        <ele>2051</ele>
        <time>2014-01-11T12:44:26.000Z</time>
      </trkpt>
      <trkpt lat="45.18504" lon="6.35405">
        <ele>2051</ele>
        <time>2014-01-11T12:44:27.000Z</time>
      </trkpt>
      <trkpt lat="45.18504" lon="6.35405">
        <ele>2051</ele>
        <time>2014-01-11T12:44:28.000Z</time>
      </trkpt>
      <trkpt lat="45.18504" lon="6.35405">
        <ele>2051</ele>
        <time>2014-01-11T12:44:31.000Z</time>
      </trkpt>
      <trkpt lat="45.18504" lon="6.35405">
        <ele>2051</ele>
        <time>2014-01-11T12:44:32.000Z</time>
      </trkpt>
      <trkpt lat="45.18504" lon="6.35405">
        <ele>2051</ele>
        <time>2014-01-11T12:44:33.000Z</time>
      </trkpt>
      <trkpt lat="45.18504" lon="6.35405">
        <ele>2051</ele>
        <time>2014-01-11T12:44:34.000Z</time>
      </trkpt>
      <trkpt lat="45.18504" lon="6.35405">
        <ele>2051</ele>
        <time>2014-01-11T12:44:35.000Z</time>
      </trkpt>
      <trkpt lat="45.18504" lon="6.35405">
        <ele>2051</ele>
        <time>2014-01-11T12:44:36.000Z</time>
      </trkpt>
      <trkpt lat="45.18504" lon="6.35405">
        <ele>2051.1999511719</ele>
        <time>2014-01-11T12:44:37.000Z</time>
      </trkpt>
      <trkpt lat="45.18504" lon="6.35405">
        <ele>2051.1999511719</ele>
        <time>2014-01-11T12:44:38.000Z</time>
      </trkpt>
      <trkpt lat="45.18504" lon="6.35405">
        <ele>2051.1999511719</ele>
        <time>2014-01-11T12:44:39.000Z</time>
      </trkpt>
      <trkpt lat="45.18504" lon="6.35405">
        <ele>2051.1999511719</ele>
        <time>2014-01-11T12:44:40.000Z</time>
      </trkpt>
      <trkpt lat="45.18504" lon="6.35405">
        <ele>2051.1999511719</ele>
        <time>2014-01-11T12:44:42.000Z</time>
      </trkpt>
      <trkpt lat="45.18504" lon="6.35405">
        <ele>2051.1999511719</ele>
        <time>2014-01-11T12:44:44.000Z</time>
      </trkpt>
      <trkpt lat="45.18504" lon="6.35405">
        <ele>2051.1999511719</ele>
        <time>2014-01-11T12:44:45.000Z</time>
      </trkpt>
      <trkpt lat="45.18504" lon="6.35405">
        <ele>2051.3999023438</ele>
        <time>2014-01-11T12:44:46.000Z</time>
      </trkpt>
      <trkpt lat="45.18504" lon="6.35405">
        <ele>2051.3999023438</ele>
        <time>2014-01-11T12:44:47.000Z</time>
      </trkpt>
      <trkpt lat="45.18504" lon="6.35405">
        <ele>2051.6000976562</ele>
        <time>2014-01-11T12:44:48.000Z</time>
      </trkpt>
      <trkpt lat="45.18504" lon="6.35405">
        <ele>2051.6000976562</ele>
        <time>2014-01-11T12:44:49.000Z</time>
      </trkpt>
      <trkpt lat="45.18504" lon="6.35405">
        <ele>2051.6000976562</ele>
        <time>2014-01-11T12:44:50.000Z</time>
      </trkpt>
      <trkpt lat="45.18504" lon="6.35405">
        <ele>2051.6000976562</ele>
        <time>2014-01-11T12:44:51.000Z</time>
      </trkpt>
      <trkpt lat="45.18504" lon="6.35405">
        <ele>2051.3999023438</ele>
        <time>2014-01-11T12:44:52.000Z</time>
      </trkpt>
      <trkpt lat="45.18504" lon="6.35405">
        <ele>2051.3999023438</ele>
        <time>2014-01-11T12:44:53.000Z</time>
      </trkpt>
      <trkpt lat="45.18504" lon="6.35405">
        <ele>2051.3999023438</ele>
        <time>2014-01-11T12:44:54.000Z</time>
      </trkpt>
      <trkpt lat="45.18504" lon="6.35405">
        <ele>2051.3999023438</ele>
        <time>2014-01-11T12:44:58.000Z</time>
      </trkpt>
      <trkpt lat="45.18504" lon="6.35405">
        <ele>2051.3999023438</ele>
        <time>2014-01-11T12:44:59.000Z</time>
      </trkpt>
      <trkpt lat="45.18505" lon="6.35405">
        <ele>2051.3999023438</ele>
        <time>2014-01-11T12:45:00.000Z</time>
      </trkpt>
      <trkpt lat="45.18505" lon="6.35405">
        <ele>2051.6000976562</ele>
        <time>2014-01-11T12:45:02.000Z</time>
      </trkpt>
      <trkpt lat="45.18505" lon="6.35405">
        <ele>2051.6000976562</ele>
        <time>2014-01-11T12:45:03.000Z</time>
      </trkpt>
      <trkpt lat="45.18505" lon="6.35405">
        <ele>2051.6000976562</ele>
        <time>2014-01-11T12:45:04.000Z</time>
      </trkpt>
      <trkpt lat="45.18505" lon="6.35405">
        <ele>2051.6000976562</ele>
        <time>2014-01-11T12:45:05.000Z</time>
      </trkpt>
      <trkpt lat="45.18505" lon="6.35405">
        <ele>2051.3999023438</ele>
        <time>2014-01-11T12:45:06.000Z</time>
      </trkpt>
      <trkpt lat="45.18505" lon="6.35405">
        <ele>2051.3999023438</ele>
        <time>2014-01-11T12:45:07.000Z</time>
      </trkpt>
      <trkpt lat="45.18505" lon="6.35405">
        <ele>2051.3999023438</ele>
        <time>2014-01-11T12:45:08.000Z</time>
      </trkpt>
      <trkpt lat="45.18505" lon="6.35405">
        <ele>2051.3999023438</ele>
        <time>2014-01-11T12:45:09.000Z</time>
      </trkpt>
      <trkpt lat="45.18505" lon="6.35405">
        <ele>2051.3999023438</ele>
        <time>2014-01-11T12:45:10.000Z</time>
      </trkpt>
      <trkpt lat="45.18505" lon="6.35405">
        <ele>2051.3999023438</ele>
        <time>2014-01-11T12:45:11.000Z</time>
      </trkpt>
      <trkpt lat="45.18505" lon="6.35405">
        <ele>2051.1999511719</ele>
        <time>2014-01-11T12:45:15.000Z</time>
      </trkpt>
      <trkpt lat="45.18505" lon="6.35405">
        <ele>2051.1999511719</ele>
        <time>2014-01-11T12:45:16.000Z</time>
      </trkpt>
      <trkpt lat="45.18505" lon="6.35405">
        <ele>2051.1999511719</ele>
        <time>2014-01-11T12:45:17.000Z</time>
      </trkpt>
      <trkpt lat="45.18505" lon="6.35405">
        <ele>2051.1999511719</ele>
        <time>2014-01-11T12:45:18.000Z</time>
      </trkpt>
      <trkpt lat="45.18505" lon="6.35405">
        <ele>2051.1999511719</ele>
        <time>2014-01-11T12:45:19.000Z</time>
      </trkpt>
      <trkpt lat="45.18505" lon="6.35405">
        <ele>2051.1999511719</ele>
        <time>2014-01-11T12:45:20.000Z</time>
      </trkpt>
      <trkpt lat="45.18505" lon="6.35405">
        <ele>2051.3999023438</ele>
        <time>2014-01-11T12:45:21.000Z</time>
      </trkpt>
      <trkpt lat="45.18505" lon="6.35405">
        <ele>2051.3999023438</ele>
        <time>2014-01-11T12:45:22.000Z</time>
      </trkpt>
      <trkpt lat="45.18505" lon="6.35405">
        <ele>2051.3999023438</ele>
        <time>2014-01-11T12:45:23.000Z</time>
      </trkpt>
      <trkpt lat="45.18505" lon="6.35405">
        <ele>2051.3999023438</ele>
        <time>2014-01-11T12:45:24.000Z</time>
      </trkpt>
      <trkpt lat="45.18505" lon="6.35405">
        <ele>2051.3999023438</ele>
        <time>2014-01-11T12:45:26.000Z</time>
      </trkpt>
      <trkpt lat="45.18505" lon="6.35405">
        <ele>2051.3999023438</ele>
        <time>2014-01-11T12:45:28.000Z</time>
      </trkpt>
      <trkpt lat="45.18505" lon="6.35405">
        <ele>2051.3999023438</ele>
        <time>2014-01-11T12:45:32.000Z</time>
      </trkpt>
      <trkpt lat="45.18505" lon="6.35405">
        <ele>2051.3999023438</ele>
        <time>2014-01-11T12:45:33.000Z</time>
      </trkpt>
      <trkpt lat="45.18505" lon="6.35405">
        <ele>2051.1999511719</ele>
        <time>2014-01-11T12:45:34.000Z</time>
      </trkpt>
      <trkpt lat="45.18505" lon="6.35405">
        <ele>2051</ele>
        <time>2014-01-11T12:45:35.000Z</time>
      </trkpt>
      <trkpt lat="45.18505" lon="6.35405">
        <ele>2051</ele>
        <time>2014-01-11T12:45:36.000Z</time>
      </trkpt>
      <trkpt lat="45.18505" lon="6.35405">
        <ele>2050.8000488281</ele>
        <time>2014-01-11T12:45:37.000Z</time>
      </trkpt>
      <trkpt lat="45.18505" lon="6.35405">
        <ele>2050.8000488281</ele>
        <time>2014-01-11T12:45:38.000Z</time>
      </trkpt>
      <trkpt lat="45.18505" lon="6.35405">
        <ele>2050.8000488281</ele>
        <time>2014-01-11T12:45:39.000Z</time>
      </trkpt>
      <trkpt lat="45.18505" lon="6.35405">
        <ele>2050.8000488281</ele>
        <time>2014-01-11T12:45:40.000Z</time>
      </trkpt>
      <trkpt lat="45.18506" lon="6.35404">
        <ele>2050.8000488281</ele>
        <time>2014-01-11T12:45:41.000Z</time>
      </trkpt>
      <trkpt lat="45.18507" lon="6.35402">
        <ele>2050.8000488281</ele>
        <time>2014-01-11T12:45:42.000Z</time>
      </trkpt>
      <trkpt lat="45.18509" lon="6.35397">
        <ele>2050.6000976562</ele>
        <time>2014-01-11T12:45:43.000Z</time>
      </trkpt>
      <trkpt lat="45.1851" lon="6.3539">
        <ele>2050.3999023438</ele>
        <time>2014-01-11T12:45:44.000Z</time>
      </trkpt>
      <trkpt lat="45.18509" lon="6.35382">
        <ele>2050.3999023438</ele>
        <time>2014-01-11T12:45:45.000Z</time>
      </trkpt>
      <trkpt lat="45.1851" lon="6.35372">
        <ele>2050.1999511719</ele>
        <time>2014-01-11T12:45:46.000Z</time>
      </trkpt>
      <trkpt lat="45.18512" lon="6.35362">
        <ele>2049.6000976562</ele>
        <time>2014-01-11T12:45:47.000Z</time>
      </trkpt>
      <trkpt lat="45.18514" lon="6.35356">
        <ele>2048.3999023438</ele>
        <time>2014-01-11T12:45:48.000Z</time>
      </trkpt>
      <trkpt lat="45.18518" lon="6.35355">
        <ele>2046.8000488281</ele>
        <time>2014-01-11T12:45:49.000Z</time>
      </trkpt>
      <trkpt lat="45.18522" lon="6.35356">
        <ele>2045</ele>
        <time>2014-01-11T12:45:50.000Z</time>
      </trkpt>
      <trkpt lat="45.18524" lon="6.35356">
        <ele>2043.1999511719</ele>
        <time>2014-01-11T12:45:51.000Z</time>
      </trkpt>
      <trkpt lat="45.18525" lon="6.35355">
        <ele>2041.5999755859</ele>
        <time>2014-01-11T12:45:52.000Z</time>
      </trkpt>
      <trkpt lat="45.18525" lon="6.35351">
        <ele>2040.1999511719</ele>
        <time>2014-01-11T12:45:53.000Z</time>
      </trkpt>
      <trkpt lat="45.18526" lon="6.35348">
        <ele>2039</ele>
        <time>2014-01-11T12:45:54.000Z</time>
      </trkpt>
      <trkpt lat="45.18528" lon="6.35345">
        <ele>2038</ele>
        <time>2014-01-11T12:45:55.000Z</time>
      </trkpt>
      <trkpt lat="45.1853" lon="6.35342">
        <ele>2037</ele>
        <time>2014-01-11T12:45:56.000Z</time>
      </trkpt>
      <trkpt lat="45.18529" lon="6.35337">
        <ele>2035.5999755859</ele>
        <time>2014-01-11T12:45:57.000Z</time>
      </trkpt>
      <trkpt lat="45.1853" lon="6.35333">
        <ele>2034.1999511719</ele>
        <time>2014-01-11T12:45:58.000Z</time>
      </trkpt>
      <trkpt lat="45.18531" lon="6.35329">
        <ele>2032.5999755859</ele>
        <time>2014-01-11T12:45:59.000Z</time>
      </trkpt>
      <trkpt lat="45.18532" lon="6.35323">
        <ele>2030.8000488281</ele>
        <time>2014-01-11T12:46:00.000Z</time>
      </trkpt>
      <trkpt lat="45.18533" lon="6.35318">
        <ele>2028.8000488281</ele>
        <time>2014-01-11T12:46:01.000Z</time>
      </trkpt>
      <trkpt lat="45.18535" lon="6.35314">
        <ele>2027</ele>
        <time>2014-01-11T12:46:02.000Z</time>
      </trkpt>
      <trkpt lat="45.18537" lon="6.35312">
        <ele>2023.1999511719</ele>
        <time>2014-01-11T12:46:03.000Z</time>
      </trkpt>
      <trkpt lat="45.18538" lon="6.3531">
        <ele>2021</ele>
        <time>2014-01-11T12:46:04.000Z</time>
      </trkpt>
      <trkpt lat="45.18539" lon="6.35308">
        <ele>2019.1999511719</ele>
        <time>2014-01-11T12:46:05.000Z</time>
      </trkpt>
      <trkpt lat="45.18539" lon="6.35309">
        <ele>2017.8000488281</ele>
        <time>2014-01-11T12:46:06.000Z</time>
      </trkpt>
      <trkpt lat="45.18542" lon="6.3531">
        <ele>2016.8000488281</ele>
        <time>2014-01-11T12:46:07.000Z</time>
      </trkpt>
      <trkpt lat="45.18543" lon="6.35309">
        <ele>2016.1999511719</ele>
        <time>2014-01-11T12:46:08.000Z</time>
      </trkpt>
      <trkpt lat="45.18543" lon="6.35306">
        <ele>2015.8000488281</ele>
        <time>2014-01-11T12:46:09.000Z</time>
      </trkpt>
      <trkpt lat="45.18541" lon="6.35303">
        <ele>2015.5999755859</ele>
        <time>2014-01-11T12:46:10.000Z</time>
      </trkpt>
      <trkpt lat="45.18539" lon="6.35297">
        <ele>2015.1999511719</ele>
        <time>2014-01-11T12:46:11.000Z</time>
      </trkpt>
      <trkpt lat="45.18539" lon="6.35295">
        <ele>2014.5999755859</ele>
        <time>2014-01-11T12:46:12.000Z</time>
      </trkpt>
      <trkpt lat="45.18537" lon="6.35291">
        <ele>2013.5999755859</ele>
        <time>2014-01-11T12:46:13.000Z</time>
      </trkpt>
      <trkpt lat="45.18536" lon="6.35288">
        <ele>2012.4000244141</ele>
        <time>2014-01-11T12:46:14.000Z</time>
      </trkpt>
      <trkpt lat="45.18536" lon="6.35285">
        <ele>2011.1999511719</ele>
        <time>2014-01-11T12:46:15.000Z</time>
      </trkpt>
      <trkpt lat="45.18537" lon="6.35282">
        <ele>2010</ele>
        <time>2014-01-11T12:46:16.000Z</time>
      </trkpt>
      <trkpt lat="45.18539" lon="6.3528">
        <ele>2009</ele>
        <time>2014-01-11T12:46:17.000Z</time>
      </trkpt>
      <trkpt lat="45.1854" lon="6.35278">
        <ele>2008</ele>
        <time>2014-01-11T12:46:18.000Z</time>
      </trkpt>
      <trkpt lat="45.18541" lon="6.35275">
        <ele>2006.8000488281</ele>
        <time>2014-01-11T12:46:19.000Z</time>
      </trkpt>
      <trkpt lat="45.18543" lon="6.35271">
        <ele>2005.5999755859</ele>
        <time>2014-01-11T12:46:20.000Z</time>
      </trkpt>
      <trkpt lat="45.18543" lon="6.35265">
        <ele>2004.1999511719</ele>
        <time>2014-01-11T12:46:21.000Z</time>
      </trkpt>
      <trkpt lat="45.18543" lon="6.35259">
        <ele>2002.8000488281</ele>
        <time>2014-01-11T12:46:22.000Z</time>
      </trkpt>
      <trkpt lat="45.18541" lon="6.35252">
        <ele>2001</ele>
        <time>2014-01-11T12:46:23.000Z</time>
      </trkpt>
      <trkpt lat="45.1854" lon="6.35245">
        <ele>1999</ele>
        <time>2014-01-11T12:46:24.000Z</time>
      </trkpt>
      <trkpt lat="45.1854" lon="6.35239">
        <ele>1996.8000488281</ele>
        <time>2014-01-11T12:46:25.000Z</time>
      </trkpt>
      <trkpt lat="45.18541" lon="6.35234">
        <ele>1994.5999755859</ele>
        <time>2014-01-11T12:46:26.000Z</time>
      </trkpt>
      <trkpt lat="45.18545" lon="6.35229">
        <ele>1991</ele>
        <time>2014-01-11T12:46:27.000Z</time>
      </trkpt>
      <trkpt lat="45.18549" lon="6.35222">
        <ele>1989.4000244141</ele>
        <time>2014-01-11T12:46:28.000Z</time>
      </trkpt>
      <trkpt lat="45.18554" lon="6.35217">
        <ele>1987.8000488281</ele>
        <time>2014-01-11T12:46:29.000Z</time>
      </trkpt>
      <trkpt lat="45.1856" lon="6.35213">
        <ele>1986</ele>
        <time>2014-01-11T12:46:30.000Z</time>
      </trkpt>
      <trkpt lat="45.18566" lon="6.35211">
        <ele>1984.4000244141</ele>
        <time>2014-01-11T12:46:31.000Z</time>
      </trkpt>
      <trkpt lat="45.18572" lon="6.35211">
        <ele>1982.8000488281</ele>
        <time>2014-01-11T12:46:32.000Z</time>
      </trkpt>
      <trkpt lat="45.18577" lon="6.35211">
        <ele>1981.5999755859</ele>
        <time>2014-01-11T12:46:33.000Z</time>
      </trkpt>
      <trkpt lat="45.18582" lon="6.35211">
        <ele>1980.5999755859</ele>
        <time>2014-01-11T12:46:34.000Z</time>
      </trkpt>
      <trkpt lat="45.18585" lon="6.35211">
        <ele>1980</ele>
        <time>2014-01-11T12:46:35.000Z</time>
      </trkpt>
      <trkpt lat="45.18587" lon="6.35211">
        <ele>1979.5999755859</ele>
        <time>2014-01-11T12:46:36.000Z</time>
      </trkpt>
      <trkpt lat="45.18588" lon="6.35213">
        <ele>1979.4000244141</ele>
        <time>2014-01-11T12:46:37.000Z</time>
      </trkpt>
      <trkpt lat="45.1859" lon="6.35215">
        <ele>1979.1999511719</ele>
        <time>2014-01-11T12:46:38.000Z</time>
      </trkpt>
      <trkpt lat="45.1859" lon="6.35217">
        <ele>1979</ele>
        <time>2014-01-11T12:46:39.000Z</time>
      </trkpt>
      <trkpt lat="45.18591" lon="6.35219">
        <ele>1979</ele>
        <time>2014-01-11T12:46:40.000Z</time>
      </trkpt>
      <trkpt lat="45.18593" lon="6.35221">
        <ele>1978.8000488281</ele>
        <time>2014-01-11T12:46:41.000Z</time>
      </trkpt>
      <trkpt lat="45.18594" lon="6.35222">
        <ele>1978.8000488281</ele>
        <time>2014-01-11T12:46:42.000Z</time>
      </trkpt>
      <trkpt lat="45.18594" lon="6.35222">
        <ele>1978.8000488281</ele>
        <time>2014-01-11T12:46:43.000Z</time>
      </trkpt>
      <trkpt lat="45.18595" lon="6.35223">
        <ele>1978.8000488281</ele>
        <time>2014-01-11T12:46:44.000Z</time>
      </trkpt>
      <trkpt lat="45.18595" lon="6.35224">
        <ele>1978.8000488281</ele>
        <time>2014-01-11T12:46:45.000Z</time>
      </trkpt>
      <trkpt lat="45.18595" lon="6.35224">
        <ele>1978.8000488281</ele>
        <time>2014-01-11T12:46:46.000Z</time>
      </trkpt>
      <trkpt lat="45.18595" lon="6.35224">
        <ele>1978.8000488281</ele>
        <time>2014-01-11T12:46:47.000Z</time>
      </trkpt>
      <trkpt lat="45.18595" lon="6.35224">
        <ele>1978.8000488281</ele>
        <time>2014-01-11T12:46:48.000Z</time>
      </trkpt>
      <trkpt lat="45.18595" lon="6.35224">
        <ele>1978.8000488281</ele>
        <time>2014-01-11T12:46:49.000Z</time>
      </trkpt>
      <trkpt lat="45.18595" lon="6.35224">
        <ele>1978.8000488281</ele>
        <time>2014-01-11T12:46:50.000Z</time>
      </trkpt>
      <trkpt lat="45.18595" lon="6.35224">
        <ele>1978.8000488281</ele>
        <time>2014-01-11T12:46:52.000Z</time>
      </trkpt>
      <trkpt lat="45.18595" lon="6.35224">
        <ele>1978.8000488281</ele>
        <time>2014-01-11T12:46:53.000Z</time>
      </trkpt>
      <trkpt lat="45.18595" lon="6.35224">
        <ele>1978.8000488281</ele>
        <time>2014-01-11T12:46:54.000Z</time>
      </trkpt>
      <trkpt lat="45.18595" lon="6.35224">
        <ele>1978.8000488281</ele>
        <time>2014-01-11T12:46:55.000Z</time>
      </trkpt>
      <trkpt lat="45.18595" lon="6.35224">
        <ele>1978.8000488281</ele>
        <time>2014-01-11T12:46:56.000Z</time>
      </trkpt>
      <trkpt lat="45.18595" lon="6.35224">
        <ele>1978.8000488281</ele>
        <time>2014-01-11T12:46:57.000Z</time>
      </trkpt>
      <trkpt lat="45.18595" lon="6.35224">
        <ele>1978.8000488281</ele>
        <time>2014-01-11T12:46:58.000Z</time>
      </trkpt>
      <trkpt lat="45.18596" lon="6.35225">
        <ele>1978.8000488281</ele>
        <time>2014-01-11T12:46:59.000Z</time>
      </trkpt>
      <trkpt lat="45.18598" lon="6.35226">
        <ele>1978.8000488281</ele>
        <time>2014-01-11T12:47:00.000Z</time>
      </trkpt>
      <trkpt lat="45.18606" lon="6.35217">
        <ele>1978.8000488281</ele>
        <time>2014-01-11T12:47:02.000Z</time>
      </trkpt>
      <trkpt lat="45.18611" lon="6.35214">
        <ele>1978.5999755859</ele>
        <time>2014-01-11T12:47:03.000Z</time>
      </trkpt>
      <trkpt lat="45.18616" lon="6.35213">
        <ele>1978.1999511719</ele>
        <time>2014-01-11T12:47:04.000Z</time>
      </trkpt>
      <trkpt lat="45.18621" lon="6.35212">
        <ele>1977.4000244141</ele>
        <time>2014-01-11T12:47:05.000Z</time>
      </trkpt>
      <trkpt lat="45.18624" lon="6.35208">
        <ele>1976.1999511719</ele>
        <time>2014-01-11T12:47:06.000Z</time>
      </trkpt>
      <trkpt lat="45.18626" lon="6.35204">
        <ele>1975</ele>
        <time>2014-01-11T12:47:07.000Z</time>
      </trkpt>
      <trkpt lat="45.18628" lon="6.35202">
        <ele>1974</ele>
        <time>2014-01-11T12:47:08.000Z</time>
      </trkpt>
      <trkpt lat="45.1863" lon="6.35202">
        <ele>1973</ele>
        <time>2014-01-11T12:47:09.000Z</time>
      </trkpt>
      <trkpt lat="45.18633" lon="6.352">
        <ele>1971.5999755859</ele>
        <time>2014-01-11T12:47:10.000Z</time>
      </trkpt>
      <trkpt lat="45.18636" lon="6.35196">
        <ele>1970.4000244141</ele>
        <time>2014-01-11T12:47:11.000Z</time>
      </trkpt>
      <trkpt lat="45.1864" lon="6.35191">
        <ele>1969.4000244141</ele>
        <time>2014-01-11T12:47:12.000Z</time>
      </trkpt>
      <trkpt lat="45.18645" lon="6.35185">
        <ele>1968.5999755859</ele>
        <time>2014-01-11T12:47:13.000Z</time>
      </trkpt>
      <trkpt lat="45.18651" lon="6.35181">
        <ele>1967.8000488281</ele>
        <time>2014-01-11T12:47:14.000Z</time>
      </trkpt>
      <trkpt lat="45.18657" lon="6.35177">
        <ele>1965.4000244141</ele>
        <time>2014-01-11T12:47:15.000Z</time>
      </trkpt>
      <trkpt lat="45.18662" lon="6.35173">
        <ele>1964</ele>
        <time>2014-01-11T12:47:16.000Z</time>
      </trkpt>
      <trkpt lat="45.18669" lon="6.35169">
        <ele>1962.5999755859</ele>
        <time>2014-01-11T12:47:17.000Z</time>
      </trkpt>
      <trkpt lat="45.18676" lon="6.35167">
        <ele>1961.4000244141</ele>
        <time>2014-01-11T12:47:18.000Z</time>
      </trkpt>
      <trkpt lat="45.18682" lon="6.35168">
        <ele>1960</ele>
        <time>2014-01-11T12:47:19.000Z</time>
      </trkpt>
      <trkpt lat="45.18686" lon="6.35169">
        <ele>1958.8000488281</ele>
        <time>2014-01-11T12:47:20.000Z</time>
      </trkpt>
      <trkpt lat="45.18688" lon="6.35169">
        <ele>1957.8000488281</ele>
        <time>2014-01-11T12:47:21.000Z</time>
      </trkpt>
      <trkpt lat="45.18688" lon="6.35169">
        <ele>1957</ele>
        <time>2014-01-11T12:47:22.000Z</time>
      </trkpt>
      <trkpt lat="45.18689" lon="6.3517">
        <ele>1956.4000244141</ele>
        <time>2014-01-11T12:47:23.000Z</time>
      </trkpt>
      <trkpt lat="45.18689" lon="6.35171">
        <ele>1956</ele>
        <time>2014-01-11T12:47:24.000Z</time>
      </trkpt>
      <trkpt lat="45.18689" lon="6.35172">
        <ele>1955.8000488281</ele>
        <time>2014-01-11T12:47:25.000Z</time>
      </trkpt>
      <trkpt lat="45.18689" lon="6.35172">
        <ele>1955.8000488281</ele>
        <time>2014-01-11T12:47:26.000Z</time>
      </trkpt>
      <trkpt lat="45.18689" lon="6.35172">
        <ele>1955.8000488281</ele>
        <time>2014-01-11T12:47:27.000Z</time>
      </trkpt>
      <trkpt lat="45.18689" lon="6.35172">
        <ele>1955.8000488281</ele>
        <time>2014-01-11T12:47:29.000Z</time>
      </trkpt>
      <trkpt lat="45.18689" lon="6.35172">
        <ele>1955.8000488281</ele>
        <time>2014-01-11T12:47:30.000Z</time>
      </trkpt>
      <trkpt lat="45.18689" lon="6.35172">
        <ele>1955.8000488281</ele>
        <time>2014-01-11T12:47:31.000Z</time>
      </trkpt>
      <trkpt lat="45.18689" lon="6.35172">
        <ele>1955.8000488281</ele>
        <time>2014-01-11T12:47:32.000Z</time>
      </trkpt>
      <trkpt lat="45.18689" lon="6.35172">
        <ele>1955.8000488281</ele>
        <time>2014-01-11T12:47:33.000Z</time>
      </trkpt>
      <trkpt lat="45.18689" lon="6.35172">
        <ele>1955.8000488281</ele>
        <time>2014-01-11T12:47:34.000Z</time>
      </trkpt>
      <trkpt lat="45.18689" lon="6.35172">
        <ele>1955.8000488281</ele>
        <time>2014-01-11T12:47:35.000Z</time>
      </trkpt>
      <trkpt lat="45.18689" lon="6.35172">
        <ele>1955.8000488281</ele>
        <time>2014-01-11T12:47:37.000Z</time>
      </trkpt>
      <trkpt lat="45.18689" lon="6.35172">
        <ele>1955.8000488281</ele>
        <time>2014-01-11T12:47:38.000Z</time>
      </trkpt>
      <trkpt lat="45.18689" lon="6.35172">
        <ele>1955.8000488281</ele>
        <time>2014-01-11T12:47:39.000Z</time>
      </trkpt>
      <trkpt lat="45.18689" lon="6.35172">
        <ele>1955.5999755859</ele>
        <time>2014-01-11T12:47:40.000Z</time>
      </trkpt>
      <trkpt lat="45.18689" lon="6.35172">
        <ele>1955.5999755859</ele>
        <time>2014-01-11T12:47:41.000Z</time>
      </trkpt>
      <trkpt lat="45.18689" lon="6.35172">
        <ele>1955.5999755859</ele>
        <time>2014-01-11T12:47:42.000Z</time>
      </trkpt>
      <trkpt lat="45.18689" lon="6.35172">
        <ele>1955.5999755859</ele>
        <time>2014-01-11T12:47:43.000Z</time>
      </trkpt>
      <trkpt lat="45.18689" lon="6.35172">
        <ele>1955.5999755859</ele>
        <time>2014-01-11T12:47:44.000Z</time>
      </trkpt>
      <trkpt lat="45.18689" lon="6.35172">
        <ele>1955.4000244141</ele>
        <time>2014-01-11T12:47:45.000Z</time>
      </trkpt>
      <trkpt lat="45.1869" lon="6.35172">
        <ele>1955.4000244141</ele>
        <time>2014-01-11T12:47:46.000Z</time>
      </trkpt>
      <trkpt lat="45.18693" lon="6.35171">
        <ele>1955.4000244141</ele>
        <time>2014-01-11T12:47:47.000Z</time>
      </trkpt>
      <trkpt lat="45.18696" lon="6.35169">
        <ele>1955.1999511719</ele>
        <time>2014-01-11T12:47:48.000Z</time>
      </trkpt>
      <trkpt lat="45.18697" lon="6.35167">
        <ele>1955</ele>
        <time>2014-01-11T12:47:49.000Z</time>
      </trkpt>
      <trkpt lat="45.18697" lon="6.35163">
        <ele>1954.5999755859</ele>
        <time>2014-01-11T12:47:50.000Z</time>
      </trkpt>
      <trkpt lat="45.18698" lon="6.35157">
        <ele>1954</ele>
        <time>2014-01-11T12:47:51.000Z</time>
      </trkpt>
      <trkpt lat="45.18698" lon="6.35153">
        <ele>1953.1999511719</ele>
        <time>2014-01-11T12:47:52.000Z</time>
      </trkpt>
      <trkpt lat="45.18696" lon="6.35148">
        <ele>1952</ele>
        <time>2014-01-11T12:47:53.000Z</time>
      </trkpt>
      <trkpt lat="45.18696" lon="6.35144">
        <ele>1950.5999755859</ele>
        <time>2014-01-11T12:47:54.000Z</time>
      </trkpt>
      <trkpt lat="45.18697" lon="6.35138">
        <ele>1949</ele>
        <time>2014-01-11T12:47:55.000Z</time>
      </trkpt>
      <trkpt lat="45.18698" lon="6.35133">
        <ele>1947.5999755859</ele>
        <time>2014-01-11T12:47:56.000Z</time>
      </trkpt>
      <trkpt lat="45.187" lon="6.3513">
        <ele>1946</ele>
        <time>2014-01-11T12:47:57.000Z</time>
      </trkpt>
      <trkpt lat="45.18702" lon="6.35127">
        <ele>1944.1999511719</ele>
        <time>2014-01-11T12:47:58.000Z</time>
      </trkpt>
      <trkpt lat="45.18703" lon="6.35123">
        <ele>1942.5999755859</ele>
        <time>2014-01-11T12:47:59.000Z</time>
      </trkpt>
      <trkpt lat="45.18703" lon="6.35119">
        <ele>1941</ele>
        <time>2014-01-11T12:48:00.000Z</time>
      </trkpt>
      <trkpt lat="45.18703" lon="6.35115">
        <ele>1939.4000244141</ele>
        <time>2014-01-11T12:48:01.000Z</time>
      </trkpt>
      <trkpt lat="45.18705" lon="6.3511">
        <ele>1937.5999755859</ele>
        <time>2014-01-11T12:48:02.000Z</time>
      </trkpt>
      <trkpt lat="45.18706" lon="6.35105">
        <ele>1934</ele>
        <time>2014-01-11T12:48:03.000Z</time>
      </trkpt>
      <trkpt lat="45.18707" lon="6.351">
        <ele>1932.1999511719</ele>
        <time>2014-01-11T12:48:04.000Z</time>
      </trkpt>
      <trkpt lat="45.18708" lon="6.35094">
        <ele>1930.4000244141</ele>
        <time>2014-01-11T12:48:05.000Z</time>
      </trkpt>
      <trkpt lat="45.1871" lon="6.35089">
        <ele>1928.8000488281</ele>
        <time>2014-01-11T12:48:06.000Z</time>
      </trkpt>
      <trkpt lat="45.18712" lon="6.35084">
        <ele>1926.5999755859</ele>
        <time>2014-01-11T12:48:07.000Z</time>
      </trkpt>
      <trkpt lat="45.18713" lon="6.35079">
        <ele>1924.1999511719</ele>
        <time>2014-01-11T12:48:08.000Z</time>
      </trkpt>
      <trkpt lat="45.18713" lon="6.35074">
        <ele>1922</ele>
        <time>2014-01-11T12:48:09.000Z</time>
      </trkpt>
      <trkpt lat="45.18714" lon="6.35068">
        <ele>1919.8000488281</ele>
        <time>2014-01-11T12:48:10.000Z</time>
      </trkpt>
      <trkpt lat="45.18715" lon="6.35063">
        <ele>1917.5999755859</ele>
        <time>2014-01-11T12:48:11.000Z</time>
      </trkpt>
      <trkpt lat="45.18717" lon="6.35058">
        <ele>1915.1999511719</ele>
        <time>2014-01-11T12:48:12.000Z</time>
      </trkpt>
      <trkpt lat="45.1872" lon="6.35054">
        <ele>1913</ele>
        <time>2014-01-11T12:48:13.000Z</time>
      </trkpt>
      <trkpt lat="45.18725" lon="6.35051">
        <ele>1911</ele>
        <time>2014-01-11T12:48:14.000Z</time>
      </trkpt>
      <trkpt lat="45.1873" lon="6.3505">
        <ele>1909.1999511719</ele>
        <time>2014-01-11T12:48:15.000Z</time>
      </trkpt>
      <trkpt lat="45.18734" lon="6.3505">
        <ele>1907.4000244141</ele>
        <time>2014-01-11T12:48:16.000Z</time>
      </trkpt>
      <trkpt lat="45.18739" lon="6.3505">
        <ele>1905.8000488281</ele>
        <time>2014-01-11T12:48:17.000Z</time>
      </trkpt>
      <trkpt lat="45.18743" lon="6.3505">
        <ele>1904.5999755859</ele>
        <time>2014-01-11T12:48:18.000Z</time>
      </trkpt>
      <trkpt lat="45.18745" lon="6.35051">
        <ele>1903.8000488281</ele>
        <time>2014-01-11T12:48:19.000Z</time>
      </trkpt>
      <trkpt lat="45.18747" lon="6.35052">
        <ele>1903.4000244141</ele>
        <time>2014-01-11T12:48:20.000Z</time>
      </trkpt>
      <trkpt lat="45.18748" lon="6.35053">
        <ele>1902.8000488281</ele>
        <time>2014-01-11T12:48:21.000Z</time>
      </trkpt>
      <trkpt lat="45.18749" lon="6.35053">
        <ele>1902.5999755859</ele>
        <time>2014-01-11T12:48:22.000Z</time>
      </trkpt>
      <trkpt lat="45.18749" lon="6.35053">
        <ele>1902.4000244141</ele>
        <time>2014-01-11T12:48:23.000Z</time>
      </trkpt>
      <trkpt lat="45.18749" lon="6.35053">
        <ele>1902.4000244141</ele>
        <time>2014-01-11T12:48:24.000Z</time>
      </trkpt>
      <trkpt lat="45.18749" lon="6.35053">
        <ele>1902.1999511719</ele>
        <time>2014-01-11T12:48:25.000Z</time>
      </trkpt>
      <trkpt lat="45.1875" lon="6.35055">
        <ele>1902.1999511719</ele>
        <time>2014-01-11T12:48:26.000Z</time>
      </trkpt>
      <trkpt lat="45.18751" lon="6.35056">
        <ele>1902.1999511719</ele>
        <time>2014-01-11T12:48:27.000Z</time>
      </trkpt>
      <trkpt lat="45.18752" lon="6.35058">
        <ele>1902.1999511719</ele>
        <time>2014-01-11T12:48:28.000Z</time>
      </trkpt>
      <trkpt lat="45.18752" lon="6.35058">
        <ele>1902.1999511719</ele>
        <time>2014-01-11T12:48:29.000Z</time>
      </trkpt>
      <trkpt lat="45.18752" lon="6.35058">
        <ele>1902.1999511719</ele>
        <time>2014-01-11T12:48:30.000Z</time>
      </trkpt>
      <trkpt lat="45.18752" lon="6.35058">
        <ele>1902</ele>
        <time>2014-01-11T12:48:31.000Z</time>
      </trkpt>
      <trkpt lat="45.18752" lon="6.35058">
        <ele>1902</ele>
        <time>2014-01-11T12:48:32.000Z</time>
      </trkpt>
      <trkpt lat="45.18752" lon="6.35058">
        <ele>1902</ele>
        <time>2014-01-11T12:48:33.000Z</time>
      </trkpt>
      <trkpt lat="45.18752" lon="6.35058">
        <ele>1902</ele>
        <time>2014-01-11T12:48:35.000Z</time>
      </trkpt>
      <trkpt lat="45.18752" lon="6.35058">
        <ele>1902</ele>
        <time>2014-01-11T12:48:36.000Z</time>
      </trkpt>
      <trkpt lat="45.18752" lon="6.35058">
        <ele>1902</ele>
        <time>2014-01-11T12:48:37.000Z</time>
      </trkpt>
      <trkpt lat="45.18752" lon="6.35058">
        <ele>1902</ele>
        <time>2014-01-11T12:48:38.000Z</time>
      </trkpt>
      <trkpt lat="45.18752" lon="6.35058">
        <ele>1902</ele>
        <time>2014-01-11T12:48:39.000Z</time>
      </trkpt>
      <trkpt lat="45.18752" lon="6.35058">
        <ele>1902</ele>
        <time>2014-01-11T12:48:40.000Z</time>
      </trkpt>
      <trkpt lat="45.18752" lon="6.35058">
        <ele>1902</ele>
        <time>2014-01-11T12:48:41.000Z</time>
      </trkpt>
      <trkpt lat="45.18752" lon="6.35058">
        <ele>1902</ele>
        <time>2014-01-11T12:48:42.000Z</time>
      </trkpt>
      <trkpt lat="45.18752" lon="6.35058">
        <ele>1902</ele>
        <time>2014-01-11T12:48:43.000Z</time>
      </trkpt>
      <trkpt lat="45.18752" lon="6.35058">
        <ele>1902</ele>
        <time>2014-01-11T12:48:49.000Z</time>
      </trkpt>
      <trkpt lat="45.18752" lon="6.35058">
        <ele>1902</ele>
        <time>2014-01-11T12:48:50.000Z</time>
      </trkpt>
      <trkpt lat="45.18752" lon="6.35058">
        <ele>1902</ele>
        <time>2014-01-11T12:48:51.000Z</time>
      </trkpt>
      <trkpt lat="45.18752" lon="6.35058">
        <ele>1901.8000488281</ele>
        <time>2014-01-11T12:48:52.000Z</time>
      </trkpt>
      <trkpt lat="45.18752" lon="6.35058">
        <ele>1902</ele>
        <time>2014-01-11T12:48:54.000Z</time>
      </trkpt>
      <trkpt lat="45.18752" lon="6.35058">
        <ele>1902</ele>
        <time>2014-01-11T12:48:55.000Z</time>
      </trkpt>
      <trkpt lat="45.18752" lon="6.35058">
        <ele>1902</ele>
        <time>2014-01-11T12:48:56.000Z</time>
      </trkpt>
      <trkpt lat="45.18752" lon="6.35058">
        <ele>1902</ele>
        <time>2014-01-11T12:48:57.000Z</time>
      </trkpt>
      <trkpt lat="45.18752" lon="6.35058">
        <ele>1902</ele>
        <time>2014-01-11T12:48:58.000Z</time>
      </trkpt>
      <trkpt lat="45.18752" lon="6.35058">
        <ele>1902</ele>
        <time>2014-01-11T12:48:59.000Z</time>
      </trkpt>
      <trkpt lat="45.18752" lon="6.35058">
        <ele>1902</ele>
        <time>2014-01-11T12:49:03.000Z</time>
      </trkpt>
      <trkpt lat="45.18752" lon="6.35058">
        <ele>1902</ele>
        <time>2014-01-11T12:49:07.000Z</time>
      </trkpt>
      <trkpt lat="45.18751" lon="6.35059">
        <ele>1902</ele>
        <time>2014-01-11T12:49:08.000Z</time>
      </trkpt>
      <trkpt lat="45.18751" lon="6.35059">
        <ele>1902</ele>
        <time>2014-01-11T12:49:09.000Z</time>
      </trkpt>
      <trkpt lat="45.18751" lon="6.35059">
        <ele>1902</ele>
        <time>2014-01-11T12:49:10.000Z</time>
      </trkpt>
      <trkpt lat="45.18751" lon="6.35059">
        <ele>1902</ele>
        <time>2014-01-11T12:49:11.000Z</time>
      </trkpt>
      <trkpt lat="45.18751" lon="6.35059">
        <ele>1902</ele>
        <time>2014-01-11T12:49:14.000Z</time>
      </trkpt>
      <trkpt lat="45.18751" lon="6.35059">
        <ele>1902</ele>
        <time>2014-01-11T12:49:15.000Z</time>
      </trkpt>
      <trkpt lat="45.18751" lon="6.35059">
        <ele>1902</ele>
        <time>2014-01-11T12:49:18.000Z</time>
      </trkpt>
      <trkpt lat="45.18751" lon="6.35059">
        <ele>1902</ele>
        <time>2014-01-11T12:49:22.000Z</time>
      </trkpt>
      <trkpt lat="45.18751" lon="6.35059">
        <ele>1902</ele>
        <time>2014-01-11T12:49:23.000Z</time>
      </trkpt>
      <trkpt lat="45.18752" lon="6.35059">
        <ele>1902</ele>
        <time>2014-01-11T12:49:27.000Z</time>
      </trkpt>
      <trkpt lat="45.18757" lon="6.35059">
        <ele>1902</ele>
        <time>2014-01-11T12:49:28.000Z</time>
      </trkpt>
      <trkpt lat="45.1876" lon="6.35058">
        <ele>1902</ele>
        <time>2014-01-11T12:49:29.000Z</time>
      </trkpt>
      <trkpt lat="45.1876" lon="6.35056">
        <ele>1902</ele>
        <time>2014-01-11T12:49:30.000Z</time>
      </trkpt>
      <trkpt lat="45.18761" lon="6.35052">
        <ele>1901.8000488281</ele>
        <time>2014-01-11T12:49:31.000Z</time>
      </trkpt>
      <trkpt lat="45.18763" lon="6.35047">
        <ele>1901.5999755859</ele>
        <time>2014-01-11T12:49:32.000Z</time>
      </trkpt>
      <trkpt lat="45.18764" lon="6.35044">
        <ele>1901</ele>
        <time>2014-01-11T12:49:33.000Z</time>
      </trkpt>
      <trkpt lat="45.18763" lon="6.3504">
        <ele>1900.1999511719</ele>
        <time>2014-01-11T12:49:34.000Z</time>
      </trkpt>
      <trkpt lat="45.18763" lon="6.35035">
        <ele>1899.4000244141</ele>
        <time>2014-01-11T12:49:35.000Z</time>
      </trkpt>
      <trkpt lat="45.18763" lon="6.35031">
        <ele>1898.4000244141</ele>
        <time>2014-01-11T12:49:36.000Z</time>
      </trkpt>
      <trkpt lat="45.18764" lon="6.35028">
        <ele>1897.4000244141</ele>
        <time>2014-01-11T12:49:37.000Z</time>
      </trkpt>
      <trkpt lat="45.18764" lon="6.35026">
        <ele>1896</ele>
        <time>2014-01-11T12:49:38.000Z</time>
      </trkpt>
      <trkpt lat="45.18765" lon="6.35026">
        <ele>1893.1999511719</ele>
        <time>2014-01-11T12:49:39.000Z</time>
      </trkpt>
      <trkpt lat="45.18765" lon="6.35025">
        <ele>1892.4000244141</ele>
        <time>2014-01-11T12:49:40.000Z</time>
      </trkpt>
      <trkpt lat="45.18765" lon="6.35025">
        <ele>1891.8000488281</ele>
        <time>2014-01-11T12:49:41.000Z</time>
      </trkpt>
      <trkpt lat="45.18765" lon="6.35025">
        <ele>1891.4000244141</ele>
        <time>2014-01-11T12:49:42.000Z</time>
      </trkpt>
      <trkpt lat="45.18765" lon="6.35025">
        <ele>1891.1999511719</ele>
        <time>2014-01-11T12:49:43.000Z</time>
      </trkpt>
      <trkpt lat="45.18766" lon="6.35026">
        <ele>1891</ele>
        <time>2014-01-11T12:49:44.000Z</time>
      </trkpt>
      <trkpt lat="45.18768" lon="6.35027">
        <ele>1891</ele>
        <time>2014-01-11T12:49:45.000Z</time>
      </trkpt>
      <trkpt lat="45.1877" lon="6.35028">
        <ele>1890.8000488281</ele>
        <time>2014-01-11T12:49:46.000Z</time>
      </trkpt>
      <trkpt lat="45.18772" lon="6.35029">
        <ele>1890.8000488281</ele>
        <time>2014-01-11T12:49:47.000Z</time>
      </trkpt>
      <trkpt lat="45.18774" lon="6.3503">
        <ele>1890.8000488281</ele>
        <time>2014-01-11T12:49:48.000Z</time>
      </trkpt>
      <trkpt lat="45.18775" lon="6.35031">
        <ele>1890.8000488281</ele>
        <time>2014-01-11T12:49:49.000Z</time>
      </trkpt>
      <trkpt lat="45.18776" lon="6.35031">
        <ele>1890.8000488281</ele>
        <time>2014-01-11T12:49:50.000Z</time>
      </trkpt>
      <trkpt lat="45.18777" lon="6.35031">
        <ele>1890.5999755859</ele>
        <time>2014-01-11T12:49:51.000Z</time>
      </trkpt>
      <trkpt lat="45.18778" lon="6.35032">
        <ele>1890.5999755859</ele>
        <time>2014-01-11T12:49:52.000Z</time>
      </trkpt>
      <trkpt lat="45.18779" lon="6.35031">
        <ele>1890.5999755859</ele>
        <time>2014-01-11T12:49:53.000Z</time>
      </trkpt>
      <trkpt lat="45.18781" lon="6.3503">
        <ele>1890.4000244141</ele>
        <time>2014-01-11T12:49:54.000Z</time>
      </trkpt>
      <trkpt lat="45.18783" lon="6.3503">
        <ele>1890.4000244141</ele>
        <time>2014-01-11T12:49:55.000Z</time>
      </trkpt>
      <trkpt lat="45.18783" lon="6.3503">
        <ele>1890.1999511719</ele>
        <time>2014-01-11T12:49:56.000Z</time>
      </trkpt>
      <trkpt lat="45.18783" lon="6.3503">
        <ele>1890.1999511719</ele>
        <time>2014-01-11T12:49:57.000Z</time>
      </trkpt>
      <trkpt lat="45.18783" lon="6.3503">
        <ele>1890.1999511719</ele>
        <time>2014-01-11T12:49:58.000Z</time>
      </trkpt>
      <trkpt lat="45.18783" lon="6.35031">
        <ele>1890</ele>
        <time>2014-01-11T12:49:59.000Z</time>
      </trkpt>
      <trkpt lat="45.18783" lon="6.35031">
        <ele>1889.8000488281</ele>
        <time>2014-01-11T12:50:00.000Z</time>
      </trkpt>
      <trkpt lat="45.18782" lon="6.3503">
        <ele>1889.5999755859</ele>
        <time>2014-01-11T12:50:01.000Z</time>
      </trkpt>
      <trkpt lat="45.18782" lon="6.35027">
        <ele>1889.4000244141</ele>
        <time>2014-01-11T12:50:02.000Z</time>
      </trkpt>
      <trkpt lat="45.1878" lon="6.35022">
        <ele>1889.1999511719</ele>
        <time>2014-01-11T12:50:03.000Z</time>
      </trkpt>
      <trkpt lat="45.18777" lon="6.35019">
        <ele>1889.1999511719</ele>
        <time>2014-01-11T12:50:04.000Z</time>
      </trkpt>
      <trkpt lat="45.18775" lon="6.35016">
        <ele>1889</ele>
        <time>2014-01-11T12:50:05.000Z</time>
      </trkpt>
      <trkpt lat="45.18774" lon="6.3501">
        <ele>1888.4000244141</ele>
        <time>2014-01-11T12:50:06.000Z</time>
      </trkpt>
      <trkpt lat="45.18775" lon="6.35006">
        <ele>1887.4000244141</ele>
        <time>2014-01-11T12:50:07.000Z</time>
      </trkpt>
      <trkpt lat="45.18778" lon="6.35004">
        <ele>1886.1999511719</ele>
        <time>2014-01-11T12:50:08.000Z</time>
      </trkpt>
      <trkpt lat="45.18781" lon="6.35003">
        <ele>1884.8000488281</ele>
        <time>2014-01-11T12:50:09.000Z</time>
      </trkpt>
      <trkpt lat="45.18783" lon="6.35003">
        <ele>1883.5999755859</ele>
        <time>2014-01-11T12:50:10.000Z</time>
      </trkpt>
      <trkpt lat="45.18786" lon="6.35003">
        <ele>1882.4000244141</ele>
        <time>2014-01-11T12:50:11.000Z</time>
      </trkpt>
      <trkpt lat="45.18789" lon="6.35003">
        <ele>1881.5999755859</ele>
        <time>2014-01-11T12:50:12.000Z</time>
      </trkpt>
      <trkpt lat="45.18792" lon="6.35003">
        <ele>1880.8000488281</ele>
        <time>2014-01-11T12:50:13.000Z</time>
      </trkpt>
      <trkpt lat="45.18796" lon="6.35004">
        <ele>1880.1999511719</ele>
        <time>2014-01-11T12:50:14.000Z</time>
      </trkpt>
      <trkpt lat="45.18799" lon="6.35005">
        <ele>1879.4000244141</ele>
        <time>2014-01-11T12:50:15.000Z</time>
      </trkpt>
      <trkpt lat="45.18801" lon="6.35006">
        <ele>1878.8000488281</ele>
        <time>2014-01-11T12:50:16.000Z</time>
      </trkpt>
      <trkpt lat="45.18803" lon="6.35006">
        <ele>1878.1999511719</ele>
        <time>2014-01-11T12:50:17.000Z</time>
      </trkpt>
      <trkpt lat="45.18804" lon="6.35005">
        <ele>1877.5999755859</ele>
        <time>2014-01-11T12:50:18.000Z</time>
      </trkpt>
      <trkpt lat="45.18807" lon="6.35006">
        <ele>1877.4000244141</ele>
        <time>2014-01-11T12:50:19.000Z</time>
      </trkpt>
      <trkpt lat="45.18811" lon="6.35006">
        <ele>1877.1999511719</ele>
        <time>2014-01-11T12:50:20.000Z</time>
      </trkpt>
      <trkpt lat="45.18814" lon="6.35004">
        <ele>1876.8000488281</ele>
        <time>2014-01-11T12:50:21.000Z</time>
      </trkpt>
      <trkpt lat="45.18814" lon="6.35001">
        <ele>1876.1999511719</ele>
        <time>2014-01-11T12:50:22.000Z</time>
      </trkpt>
      <trkpt lat="45.18813" lon="6.34995">
        <ele>1875.1999511719</ele>
        <time>2014-01-11T12:50:23.000Z</time>
      </trkpt>
      <trkpt lat="45.18815" lon="6.34987">
        <ele>1874</ele>
        <time>2014-01-11T12:50:24.000Z</time>
      </trkpt>
      <trkpt lat="45.18817" lon="6.3498">
        <ele>1872.4000244141</ele>
        <time>2014-01-11T12:50:25.000Z</time>
      </trkpt>
      <trkpt lat="45.18819" lon="6.34973">
        <ele>1870.4000244141</ele>
        <time>2014-01-11T12:50:26.000Z</time>
      </trkpt>
      <trkpt lat="45.18824" lon="6.34969">
        <ele>1867</ele>
        <time>2014-01-11T12:50:27.000Z</time>
      </trkpt>
      <trkpt lat="45.18825" lon="6.34963">
        <ele>1865.1999511719</ele>
        <time>2014-01-11T12:50:28.000Z</time>
      </trkpt>
      <trkpt lat="45.18826" lon="6.34957">
        <ele>1863.5999755859</ele>
        <time>2014-01-11T12:50:29.000Z</time>
      </trkpt>
      <trkpt lat="45.18826" lon="6.34949">
        <ele>1862</ele>
        <time>2014-01-11T12:50:30.000Z</time>
      </trkpt>
      <trkpt lat="45.18825" lon="6.34943">
        <ele>1860.1999511719</ele>
        <time>2014-01-11T12:50:31.000Z</time>
      </trkpt>
      <trkpt lat="45.18826" lon="6.3494">
        <ele>1858.4000244141</ele>
        <time>2014-01-11T12:50:32.000Z</time>
      </trkpt>
      <trkpt lat="45.18829" lon="6.34936">
        <ele>1856.8000488281</ele>
        <time>2014-01-11T12:50:33.000Z</time>
      </trkpt>
      <trkpt lat="45.18832" lon="6.34931">
        <ele>1855.4000244141</ele>
        <time>2014-01-11T12:50:34.000Z</time>
      </trkpt>
      <trkpt lat="45.18836" lon="6.34929">
        <ele>1854</ele>
        <time>2014-01-11T12:50:35.000Z</time>
      </trkpt>
      <trkpt lat="45.18842" lon="6.34929">
        <ele>1852.4000244141</ele>
        <time>2014-01-11T12:50:36.000Z</time>
      </trkpt>
      <trkpt lat="45.18848" lon="6.34931">
        <ele>1850.8000488281</ele>
        <time>2014-01-11T12:50:37.000Z</time>
      </trkpt>
      <trkpt lat="45.18853" lon="6.34931">
        <ele>1849</ele>
        <time>2014-01-11T12:50:38.000Z</time>
      </trkpt>
      <trkpt lat="45.18859" lon="6.34932">
        <ele>1847.4000244141</ele>
        <time>2014-01-11T12:50:39.000Z</time>
      </trkpt>
      <trkpt lat="45.18863" lon="6.34933">
        <ele>1846</ele>
        <time>2014-01-11T12:50:40.000Z</time>
      </trkpt>
      <trkpt lat="45.18866" lon="6.34934">
        <ele>1844.5999755859</ele>
        <time>2014-01-11T12:50:41.000Z</time>
      </trkpt>
      <trkpt lat="45.18868" lon="6.34935">
        <ele>1843.4000244141</ele>
        <time>2014-01-11T12:50:42.000Z</time>
      </trkpt>
      <trkpt lat="45.18869" lon="6.34937">
        <ele>1842.4000244141</ele>
        <time>2014-01-11T12:50:43.000Z</time>
      </trkpt>
      <trkpt lat="45.1887" lon="6.34938">
        <ele>1841.5999755859</ele>
        <time>2014-01-11T12:50:44.000Z</time>
      </trkpt>
      <trkpt lat="45.1887" lon="6.3494">
        <ele>1841.1999511719</ele>
        <time>2014-01-11T12:50:45.000Z</time>
      </trkpt>
      <trkpt lat="45.1887" lon="6.34941">
        <ele>1841</ele>
        <time>2014-01-11T12:50:46.000Z</time>
      </trkpt>
      <trkpt lat="45.18871" lon="6.34942">
        <ele>1840.8000488281</ele>
        <time>2014-01-11T12:50:47.000Z</time>
      </trkpt>
      <trkpt lat="45.18871" lon="6.34943">
        <ele>1840.8000488281</ele>
        <time>2014-01-11T12:50:48.000Z</time>
      </trkpt>
      <trkpt lat="45.18871" lon="6.34945">
        <ele>1840.8000488281</ele>
        <time>2014-01-11T12:50:49.000Z</time>
      </trkpt>
      <trkpt lat="45.18871" lon="6.34945">
        <ele>1840.8000488281</ele>
        <time>2014-01-11T12:50:50.000Z</time>
      </trkpt>
      <trkpt lat="45.18871" lon="6.34945">
        <ele>1840.8000488281</ele>
        <time>2014-01-11T12:50:51.000Z</time>
      </trkpt>
      <trkpt lat="45.18872" lon="6.34944">
        <ele>1840.8000488281</ele>
        <time>2014-01-11T12:50:52.000Z</time>
      </trkpt>
      <trkpt lat="45.18872" lon="6.34944">
        <ele>1840.8000488281</ele>
        <time>2014-01-11T12:50:53.000Z</time>
      </trkpt>
      <trkpt lat="45.18872" lon="6.34944">
        <ele>1840.8000488281</ele>
        <time>2014-01-11T12:50:55.000Z</time>
      </trkpt>
      <trkpt lat="45.18872" lon="6.34944">
        <ele>1840.8000488281</ele>
        <time>2014-01-11T12:50:56.000Z</time>
      </trkpt>
      <trkpt lat="45.18872" lon="6.34944">
        <ele>1840.8000488281</ele>
        <time>2014-01-11T12:50:57.000Z</time>
      </trkpt>
      <trkpt lat="45.18872" lon="6.34944">
        <ele>1840.8000488281</ele>
        <time>2014-01-11T12:50:58.000Z</time>
      </trkpt>
      <trkpt lat="45.18872" lon="6.34944">
        <ele>1840.8000488281</ele>
        <time>2014-01-11T12:50:59.000Z</time>
      </trkpt>
      <trkpt lat="45.18872" lon="6.34944">
        <ele>1840.8000488281</ele>
        <time>2014-01-11T12:51:00.000Z</time>
      </trkpt>
      <trkpt lat="45.18872" lon="6.34944">
        <ele>1840.8000488281</ele>
        <time>2014-01-11T12:51:01.000Z</time>
      </trkpt>
      <trkpt lat="45.18872" lon="6.34944">
        <ele>1840.8000488281</ele>
        <time>2014-01-11T12:51:02.000Z</time>
      </trkpt>
      <trkpt lat="45.18872" lon="6.34944">
        <ele>1840.8000488281</ele>
        <time>2014-01-11T12:51:03.000Z</time>
      </trkpt>
      <trkpt lat="45.18872" lon="6.34944">
        <ele>1840.8000488281</ele>
        <time>2014-01-11T12:51:07.000Z</time>
      </trkpt>
      <trkpt lat="45.18872" lon="6.34944">
        <ele>1840.5999755859</ele>
        <time>2014-01-11T12:51:08.000Z</time>
      </trkpt>
      <trkpt lat="45.18872" lon="6.34944">
        <ele>1840.5999755859</ele>
        <time>2014-01-11T12:51:09.000Z</time>
      </trkpt>
      <trkpt lat="45.18872" lon="6.34944">
        <ele>1840.5999755859</ele>
        <time>2014-01-11T12:51:10.000Z</time>
      </trkpt>
      <trkpt lat="45.18872" lon="6.34944">
        <ele>1840.5999755859</ele>
        <time>2014-01-11T12:51:11.000Z</time>
      </trkpt>
      <trkpt lat="45.18872" lon="6.34944">
        <ele>1840.5999755859</ele>
        <time>2014-01-11T12:51:12.000Z</time>
      </trkpt>
      <trkpt lat="45.18872" lon="6.34944">
        <ele>1840.5999755859</ele>
        <time>2014-01-11T12:51:13.000Z</time>
      </trkpt>
      <trkpt lat="45.18872" lon="6.34944">
        <ele>1840.5999755859</ele>
        <time>2014-01-11T12:51:14.000Z</time>
      </trkpt>
      <trkpt lat="45.18872" lon="6.34944">
        <ele>1840.5999755859</ele>
        <time>2014-01-11T12:51:15.000Z</time>
      </trkpt>
      <trkpt lat="45.18872" lon="6.34944">
        <ele>1840.8000488281</ele>
        <time>2014-01-11T12:51:16.000Z</time>
      </trkpt>
      <trkpt lat="45.18872" lon="6.34944">
        <ele>1840.8000488281</ele>
        <time>2014-01-11T12:51:17.000Z</time>
      </trkpt>
      <trkpt lat="45.18872" lon="6.34944">
        <ele>1840.8000488281</ele>
        <time>2014-01-11T12:51:20.000Z</time>
      </trkpt>
      <trkpt lat="45.18872" lon="6.34944">
        <ele>1840.5999755859</ele>
        <time>2014-01-11T12:51:21.000Z</time>
      </trkpt>
      <trkpt lat="45.18872" lon="6.34944">
        <ele>1840.5999755859</ele>
        <time>2014-01-11T12:51:22.000Z</time>
      </trkpt>
      <trkpt lat="45.18872" lon="6.34944">
        <ele>1840.5999755859</ele>
        <time>2014-01-11T12:51:23.000Z</time>
      </trkpt>
      <trkpt lat="45.18872" lon="6.34944">
        <ele>1840.5999755859</ele>
        <time>2014-01-11T12:51:24.000Z</time>
      </trkpt>
      <trkpt lat="45.18872" lon="6.34944">
        <ele>1840.5999755859</ele>
        <time>2014-01-11T12:51:26.000Z</time>
      </trkpt>
      <trkpt lat="45.18872" lon="6.34944">
        <ele>1840.5999755859</ele>
        <time>2014-01-11T12:51:27.000Z</time>
      </trkpt>
      <trkpt lat="45.18872" lon="6.34944">
        <ele>1840.5999755859</ele>
        <time>2014-01-11T12:51:28.000Z</time>
      </trkpt>
      <trkpt lat="45.18872" lon="6.34944">
        <ele>1840.5999755859</ele>
        <time>2014-01-11T12:51:29.000Z</time>
      </trkpt>
      <trkpt lat="45.18872" lon="6.34944">
        <ele>1840.5999755859</ele>
        <time>2014-01-11T12:51:30.000Z</time>
      </trkpt>
      <trkpt lat="45.18872" lon="6.34944">
        <ele>1840.5999755859</ele>
        <time>2014-01-11T12:51:32.000Z</time>
      </trkpt>
      <trkpt lat="45.18872" lon="6.34944">
        <ele>1840.5999755859</ele>
        <time>2014-01-11T12:51:33.000Z</time>
      </trkpt>
      <trkpt lat="45.18872" lon="6.34944">
        <ele>1840.5999755859</ele>
        <time>2014-01-11T12:51:34.000Z</time>
      </trkpt>
      <trkpt lat="45.18872" lon="6.34944">
        <ele>1840.5999755859</ele>
        <time>2014-01-11T12:51:35.000Z</time>
      </trkpt>
      <trkpt lat="45.18872" lon="6.34944">
        <ele>1840.5999755859</ele>
        <time>2014-01-11T12:51:36.000Z</time>
      </trkpt>
      <trkpt lat="45.18872" lon="6.34944">
        <ele>1840.5999755859</ele>
        <time>2014-01-11T12:51:37.000Z</time>
      </trkpt>
      <trkpt lat="45.18872" lon="6.34944">
        <ele>1840.5999755859</ele>
        <time>2014-01-11T12:51:42.000Z</time>
      </trkpt>
      <trkpt lat="45.18872" lon="6.34944">
        <ele>1840.5999755859</ele>
        <time>2014-01-11T12:51:43.000Z</time>
      </trkpt>
      <trkpt lat="45.18872" lon="6.34944">
        <ele>1840.5999755859</ele>
        <time>2014-01-11T12:51:44.000Z</time>
      </trkpt>
      <trkpt lat="45.18872" lon="6.34944">
        <ele>1840.5999755859</ele>
        <time>2014-01-11T12:51:47.000Z</time>
      </trkpt>
      <trkpt lat="45.18872" lon="6.34944">
        <ele>1840.8000488281</ele>
        <time>2014-01-11T12:51:48.000Z</time>
      </trkpt>
      <trkpt lat="45.18872" lon="6.34944">
        <ele>1840.8000488281</ele>
        <time>2014-01-11T12:51:49.000Z</time>
      </trkpt>
      <trkpt lat="45.18872" lon="6.34944">
        <ele>1840.8000488281</ele>
        <time>2014-01-11T12:51:50.000Z</time>
      </trkpt>
      <trkpt lat="45.18872" lon="6.34944">
        <ele>1840.8000488281</ele>
        <time>2014-01-11T12:51:51.000Z</time>
      </trkpt>
      <trkpt lat="45.18872" lon="6.34944">
        <ele>1840.8000488281</ele>
        <time>2014-01-11T12:51:52.000Z</time>
      </trkpt>
      <trkpt lat="45.18872" lon="6.34944">
        <ele>1840.8000488281</ele>
        <time>2014-01-11T12:51:58.000Z</time>
      </trkpt>
      <trkpt lat="45.18872" lon="6.34944">
        <ele>1840.8000488281</ele>
        <time>2014-01-11T12:51:59.000Z</time>
      </trkpt>
      <trkpt lat="45.18872" lon="6.34944">
        <ele>1840.5999755859</ele>
        <time>2014-01-11T12:52:00.000Z</time>
      </trkpt>
      <trkpt lat="45.18872" lon="6.34944">
        <ele>1840.5999755859</ele>
        <time>2014-01-11T12:52:01.000Z</time>
      </trkpt>
      <trkpt lat="45.18872" lon="6.34944">
        <ele>1840.5999755859</ele>
        <time>2014-01-11T12:52:02.000Z</time>
      </trkpt>
      <trkpt lat="45.18872" lon="6.34944">
        <ele>1840.5999755859</ele>
        <time>2014-01-11T12:52:04.000Z</time>
      </trkpt>
      <trkpt lat="45.18872" lon="6.34944">
        <ele>1840.5999755859</ele>
        <time>2014-01-11T12:52:05.000Z</time>
      </trkpt>
      <trkpt lat="45.18872" lon="6.34944">
        <ele>1840.5999755859</ele>
        <time>2014-01-11T12:52:06.000Z</time>
      </trkpt>
      <trkpt lat="45.18872" lon="6.34944">
        <ele>1840.5999755859</ele>
        <time>2014-01-11T12:52:07.000Z</time>
      </trkpt>
      <trkpt lat="45.18872" lon="6.34944">
        <ele>1840.5999755859</ele>
        <time>2014-01-11T12:52:08.000Z</time>
      </trkpt>
      <trkpt lat="45.18872" lon="6.34944">
        <ele>1840.8000488281</ele>
        <time>2014-01-11T12:52:09.000Z</time>
      </trkpt>
      <trkpt lat="45.18872" lon="6.34944">
        <ele>1840.8000488281</ele>
        <time>2014-01-11T12:52:10.000Z</time>
      </trkpt>
      <trkpt lat="45.18872" lon="6.34944">
        <ele>1840.8000488281</ele>
        <time>2014-01-11T12:52:11.000Z</time>
      </trkpt>
      <trkpt lat="45.18872" lon="6.34944">
        <ele>1840.8000488281</ele>
        <time>2014-01-11T12:52:12.000Z</time>
      </trkpt>
      <trkpt lat="45.18872" lon="6.34944">
        <ele>1840.8000488281</ele>
        <time>2014-01-11T12:52:13.000Z</time>
      </trkpt>
      <trkpt lat="45.18872" lon="6.34944">
        <ele>1840.8000488281</ele>
        <time>2014-01-11T12:52:16.000Z</time>
      </trkpt>
      <trkpt lat="45.18872" lon="6.34944">
        <ele>1840.8000488281</ele>
        <time>2014-01-11T12:52:21.000Z</time>
      </trkpt>
      <trkpt lat="45.18872" lon="6.34944">
        <ele>1840.8000488281</ele>
        <time>2014-01-11T12:52:22.000Z</time>
      </trkpt>
      <trkpt lat="45.18872" lon="6.34944">
        <ele>1840.8000488281</ele>
        <time>2014-01-11T12:52:23.000Z</time>
      </trkpt>
      <trkpt lat="45.18872" lon="6.34944">
        <ele>1840.8000488281</ele>
        <time>2014-01-11T12:52:24.000Z</time>
      </trkpt>
      <trkpt lat="45.18872" lon="6.34944">
        <ele>1840.8000488281</ele>
        <time>2014-01-11T12:52:25.000Z</time>
      </trkpt>
      <trkpt lat="45.18872" lon="6.34944">
        <ele>1840.8000488281</ele>
        <time>2014-01-11T12:52:26.000Z</time>
      </trkpt>
      <trkpt lat="45.18872" lon="6.34944">
        <ele>1840.8000488281</ele>
        <time>2014-01-11T12:52:27.000Z</time>
      </trkpt>
      <trkpt lat="45.18872" lon="6.34944">
        <ele>1840.8000488281</ele>
        <time>2014-01-11T12:52:28.000Z</time>
      </trkpt>
      <trkpt lat="45.18872" lon="6.34944">
        <ele>1840.8000488281</ele>
        <time>2014-01-11T12:52:29.000Z</time>
      </trkpt>
      <trkpt lat="45.18872" lon="6.34944">
        <ele>1840.8000488281</ele>
        <time>2014-01-11T12:52:32.000Z</time>
      </trkpt>
      <trkpt lat="45.18872" lon="6.34944">
        <ele>1840.8000488281</ele>
        <time>2014-01-11T12:52:33.000Z</time>
      </trkpt>
      <trkpt lat="45.18872" lon="6.34944">
        <ele>1840.8000488281</ele>
        <time>2014-01-11T12:52:34.000Z</time>
      </trkpt>
      <trkpt lat="45.18872" lon="6.34944">
        <ele>1840.8000488281</ele>
        <time>2014-01-11T12:52:35.000Z</time>
      </trkpt>
      <trkpt lat="45.18872" lon="6.34944">
        <ele>1840.8000488281</ele>
        <time>2014-01-11T12:52:37.000Z</time>
      </trkpt>
      <trkpt lat="45.18872" lon="6.34944">
        <ele>1840.8000488281</ele>
        <time>2014-01-11T12:52:39.000Z</time>
      </trkpt>
      <trkpt lat="45.18872" lon="6.34944">
        <ele>1840.8000488281</ele>
        <time>2014-01-11T12:52:40.000Z</time>
      </trkpt>
      <trkpt lat="45.18872" lon="6.34944">
        <ele>1840.8000488281</ele>
        <time>2014-01-11T12:52:41.000Z</time>
      </trkpt>
      <trkpt lat="45.18872" lon="6.34944">
        <ele>1840.8000488281</ele>
        <time>2014-01-11T12:52:42.000Z</time>
      </trkpt>
      <trkpt lat="45.18872" lon="6.34944">
        <ele>1840.8000488281</ele>
        <time>2014-01-11T12:52:43.000Z</time>
      </trkpt>
      <trkpt lat="45.18872" lon="6.34944">
        <ele>1840.8000488281</ele>
        <time>2014-01-11T12:52:44.000Z</time>
      </trkpt>
      <trkpt lat="45.18872" lon="6.34944">
        <ele>1840.8000488281</ele>
        <time>2014-01-11T12:52:45.000Z</time>
      </trkpt>
      <trkpt lat="45.18872" lon="6.34944">
        <ele>1840.8000488281</ele>
        <time>2014-01-11T12:52:46.000Z</time>
      </trkpt>
      <trkpt lat="45.18872" lon="6.34944">
        <ele>1841</ele>
        <time>2014-01-11T12:52:47.000Z</time>
      </trkpt>
      <trkpt lat="45.18872" lon="6.34944">
        <ele>1841</ele>
        <time>2014-01-11T12:52:49.000Z</time>
      </trkpt>
      <trkpt lat="45.18872" lon="6.34944">
        <ele>1840.8000488281</ele>
        <time>2014-01-11T12:52:50.000Z</time>
      </trkpt>
      <trkpt lat="45.18872" lon="6.34944">
        <ele>1840.8000488281</ele>
        <time>2014-01-11T12:52:51.000Z</time>
      </trkpt>
      <trkpt lat="45.18872" lon="6.34943">
        <ele>1840.8000488281</ele>
        <time>2014-01-11T12:52:53.000Z</time>
      </trkpt>
      <trkpt lat="45.18872" lon="6.34943">
        <ele>1840.8000488281</ele>
        <time>2014-01-11T12:52:59.000Z</time>
      </trkpt>
      <trkpt lat="45.18872" lon="6.34943">
        <ele>1840.8000488281</ele>
        <time>2014-01-11T12:53:00.000Z</time>
      </trkpt>
      <trkpt lat="45.18872" lon="6.34943">
        <ele>1840.8000488281</ele>
        <time>2014-01-11T12:53:01.000Z</time>
      </trkpt>
      <trkpt lat="45.18872" lon="6.34943">
        <ele>1840.8000488281</ele>
        <time>2014-01-11T12:53:02.000Z</time>
      </trkpt>
      <trkpt lat="45.18872" lon="6.34943">
        <ele>1840.8000488281</ele>
        <time>2014-01-11T12:53:03.000Z</time>
      </trkpt>
      <trkpt lat="45.18872" lon="6.34943">
        <ele>1840.8000488281</ele>
        <time>2014-01-11T12:53:04.000Z</time>
      </trkpt>
      <trkpt lat="45.18872" lon="6.34943">
        <ele>1840.8000488281</ele>
        <time>2014-01-11T12:53:05.000Z</time>
      </trkpt>
      <trkpt lat="45.18872" lon="6.34943">
        <ele>1840.8000488281</ele>
        <time>2014-01-11T12:53:06.000Z</time>
      </trkpt>
      <trkpt lat="45.18872" lon="6.34943">
        <ele>1840.8000488281</ele>
        <time>2014-01-11T12:53:07.000Z</time>
      </trkpt>
      <trkpt lat="45.18872" lon="6.34943">
        <ele>1841</ele>
        <time>2014-01-11T12:53:08.000Z</time>
      </trkpt>
      <trkpt lat="45.18872" lon="6.34943">
        <ele>1841</ele>
        <time>2014-01-11T12:53:09.000Z</time>
      </trkpt>
      <trkpt lat="45.18872" lon="6.34943">
        <ele>1841</ele>
        <time>2014-01-11T12:53:10.000Z</time>
      </trkpt>
      <trkpt lat="45.18872" lon="6.34943">
        <ele>1841</ele>
        <time>2014-01-11T12:53:15.000Z</time>
      </trkpt>
      <trkpt lat="45.18872" lon="6.34943">
        <ele>1841</ele>
        <time>2014-01-11T12:53:16.000Z</time>
      </trkpt>
      <trkpt lat="45.18872" lon="6.34943">
        <ele>1841</ele>
        <time>2014-01-11T12:53:17.000Z</time>
      </trkpt>
      <trkpt lat="45.18872" lon="6.34942">
        <ele>1841</ele>
        <time>2014-01-11T12:53:18.000Z</time>
      </trkpt>
      <trkpt lat="45.18872" lon="6.34942">
        <ele>1841</ele>
        <time>2014-01-11T12:53:19.000Z</time>
      </trkpt>
      <trkpt lat="45.18872" lon="6.34942">
        <ele>1841</ele>
        <time>2014-01-11T12:53:21.000Z</time>
      </trkpt>
      <trkpt lat="45.18872" lon="6.34942">
        <ele>1841</ele>
        <time>2014-01-11T12:53:22.000Z</time>
      </trkpt>
      <trkpt lat="45.18872" lon="6.34942">
        <ele>1841</ele>
        <time>2014-01-11T12:53:23.000Z</time>
      </trkpt>
      <trkpt lat="45.18872" lon="6.34942">
        <ele>1841</ele>
        <time>2014-01-11T12:53:24.000Z</time>
      </trkpt>
      <trkpt lat="45.18872" lon="6.34942">
        <ele>1841</ele>
        <time>2014-01-11T12:53:26.000Z</time>
      </trkpt>
      <trkpt lat="45.18872" lon="6.34942">
        <ele>1841</ele>
        <time>2014-01-11T12:53:31.000Z</time>
      </trkpt>
      <trkpt lat="45.18872" lon="6.34942">
        <ele>1841</ele>
        <time>2014-01-11T12:53:35.000Z</time>
      </trkpt>
      <trkpt lat="45.18872" lon="6.34931">
        <ele>1841</ele>
        <time>2014-01-11T12:53:37.000Z</time>
      </trkpt>
      <trkpt lat="45.18874" lon="6.34927">
        <ele>1840.8000488281</ele>
        <time>2014-01-11T12:53:38.000Z</time>
      </trkpt>
      <trkpt lat="45.18876" lon="6.34927">
        <ele>1840.4000244141</ele>
        <time>2014-01-11T12:53:39.000Z</time>
      </trkpt>
      <trkpt lat="45.18878" lon="6.34928">
        <ele>1840</ele>
        <time>2014-01-11T12:53:40.000Z</time>
      </trkpt>
      <trkpt lat="45.1888" lon="6.34929">
        <ele>1839.4000244141</ele>
        <time>2014-01-11T12:53:41.000Z</time>
      </trkpt>
      <trkpt lat="45.18881" lon="6.34928">
        <ele>1838.8000488281</ele>
        <time>2014-01-11T12:53:42.000Z</time>
      </trkpt>
      <trkpt lat="45.18882" lon="6.34925">
        <ele>1838.1999511719</ele>
        <time>2014-01-11T12:53:43.000Z</time>
      </trkpt>
      <trkpt lat="45.18883" lon="6.34922">
        <ele>1837.8000488281</ele>
        <time>2014-01-11T12:53:44.000Z</time>
      </trkpt>
      <trkpt lat="45.18883" lon="6.34919">
        <ele>1837.4000244141</ele>
        <time>2014-01-11T12:53:45.000Z</time>
      </trkpt>
      <trkpt lat="45.18884" lon="6.34917">
        <ele>1837</ele>
        <time>2014-01-11T12:53:46.000Z</time>
      </trkpt>
      <trkpt lat="45.18884" lon="6.34915">
        <ele>1836.4000244141</ele>
        <time>2014-01-11T12:53:47.000Z</time>
      </trkpt>
      <trkpt lat="45.18886" lon="6.34914">
        <ele>1835.5999755859</ele>
        <time>2014-01-11T12:53:48.000Z</time>
      </trkpt>
      <trkpt lat="45.18888" lon="6.34913">
        <ele>1834.8000488281</ele>
        <time>2014-01-11T12:53:49.000Z</time>
      </trkpt>
      <trkpt lat="45.18891" lon="6.34911">
        <ele>1834</ele>
        <time>2014-01-11T12:53:50.000Z</time>
      </trkpt>
      <trkpt lat="45.18895" lon="6.34909">
        <ele>1833</ele>
        <time>2014-01-11T12:53:51.000Z</time>
      </trkpt>
      <trkpt lat="45.18899" lon="6.34907">
        <ele>1832.1999511719</ele>
        <time>2014-01-11T12:53:52.000Z</time>
      </trkpt>
      <trkpt lat="45.18904" lon="6.34904">
        <ele>1831</ele>
        <time>2014-01-11T12:53:53.000Z</time>
      </trkpt>
      <trkpt lat="45.18911" lon="6.34899">
        <ele>1829.4000244141</ele>
        <time>2014-01-11T12:53:54.000Z</time>
      </trkpt>
      <trkpt lat="45.1892" lon="6.34894">
        <ele>1828</ele>
        <time>2014-01-11T12:53:55.000Z</time>
      </trkpt>
      <trkpt lat="45.18928" lon="6.34888">
        <ele>1826.1999511719</ele>
        <time>2014-01-11T12:53:56.000Z</time>
      </trkpt>
      <trkpt lat="45.18937" lon="6.34884">
        <ele>1824.4000244141</ele>
        <time>2014-01-11T12:53:57.000Z</time>
      </trkpt>
      <trkpt lat="45.18945" lon="6.34881">
        <ele>1822.5999755859</ele>
        <time>2014-01-11T12:53:58.000Z</time>
      </trkpt>
      <trkpt lat="45.18952" lon="6.34878">
        <ele>1820.5999755859</ele>
        <time>2014-01-11T12:53:59.000Z</time>
      </trkpt>
      <trkpt lat="45.18959" lon="6.34875">
        <ele>1819</ele>
        <time>2014-01-11T12:54:00.000Z</time>
      </trkpt>
      <trkpt lat="45.18967" lon="6.34872">
        <ele>1817.5999755859</ele>
        <time>2014-01-11T12:54:01.000Z</time>
      </trkpt>
      <trkpt lat="45.18975" lon="6.34868">
        <ele>1816.1999511719</ele>
        <time>2014-01-11T12:54:02.000Z</time>
      </trkpt>
      <trkpt lat="45.18982" lon="6.34865">
        <ele>1814.4000244141</ele>
        <time>2014-01-11T12:54:03.000Z</time>
      </trkpt>
      <trkpt lat="45.18989" lon="6.34862">
        <ele>1813.8000488281</ele>
        <time>2014-01-11T12:54:04.000Z</time>
      </trkpt>
      <trkpt lat="45.18995" lon="6.34858">
        <ele>1813.5999755859</ele>
        <time>2014-01-11T12:54:05.000Z</time>
      </trkpt>
      <trkpt lat="45.19" lon="6.34856">
        <ele>1813.4000244141</ele>
        <time>2014-01-11T12:54:06.000Z</time>
      </trkpt>
      <trkpt lat="45.19002" lon="6.34859">
        <ele>1813.1999511719</ele>
        <time>2014-01-11T12:54:07.000Z</time>
      </trkpt>
      <trkpt lat="45.19003" lon="6.34862">
        <ele>1813.1999511719</ele>
        <time>2014-01-11T12:54:08.000Z</time>
      </trkpt>
      <trkpt lat="45.18999" lon="6.34868">
        <ele>1813.1999511719</ele>
        <time>2014-01-11T12:54:09.000Z</time>
      </trkpt>
      <trkpt lat="45.18991" lon="6.34878">
        <ele>1813.1999511719</ele>
        <time>2014-01-11T12:54:10.000Z</time>
      </trkpt>
      <trkpt lat="45.18991" lon="6.34878">
        <ele>1813.1999511719</ele>
        <time>2014-01-11T12:54:11.000Z</time>
      </trkpt>
      <trkpt lat="45.18991" lon="6.34878">
        <ele>1813.4000244141</ele>
        <time>2014-01-11T12:54:12.000Z</time>
      </trkpt>
      <trkpt lat="45.18991" lon="6.34878">
        <ele>1813.4000244141</ele>
        <time>2014-01-11T12:54:13.000Z</time>
      </trkpt>
      <trkpt lat="45.18991" lon="6.34878">
        <ele>1813.4000244141</ele>
        <time>2014-01-11T12:54:14.000Z</time>
      </trkpt>
      <trkpt lat="45.18991" lon="6.34878">
        <ele>1813.4000244141</ele>
        <time>2014-01-11T12:54:15.000Z</time>
      </trkpt>
      <trkpt lat="45.18991" lon="6.34878">
        <ele>1813.4000244141</ele>
        <time>2014-01-11T12:54:16.000Z</time>
      </trkpt>
      <trkpt lat="45.18991" lon="6.34878">
        <ele>1813.4000244141</ele>
        <time>2014-01-11T12:54:17.000Z</time>
      </trkpt>
      <trkpt lat="45.18991" lon="6.34878">
        <ele>1813.4000244141</ele>
        <time>2014-01-11T12:54:18.000Z</time>
      </trkpt>
      <trkpt lat="45.18991" lon="6.34878">
        <ele>1813.1999511719</ele>
        <time>2014-01-11T12:54:19.000Z</time>
      </trkpt>
      <trkpt lat="45.18991" lon="6.34878">
        <ele>1813.1999511719</ele>
        <time>2014-01-11T12:54:20.000Z</time>
      </trkpt>
      <trkpt lat="45.18991" lon="6.34878">
        <ele>1813.4000244141</ele>
        <time>2014-01-11T12:54:21.000Z</time>
      </trkpt>
      <trkpt lat="45.18991" lon="6.34878">
        <ele>1813.4000244141</ele>
        <time>2014-01-11T12:54:22.000Z</time>
      </trkpt>
      <trkpt lat="45.18991" lon="6.34878">
        <ele>1813.4000244141</ele>
        <time>2014-01-11T12:54:24.000Z</time>
      </trkpt>
      <trkpt lat="45.18991" lon="6.34878">
        <ele>1813.4000244141</ele>
        <time>2014-01-11T12:54:25.000Z</time>
      </trkpt>
      <trkpt lat="45.18991" lon="6.34878">
        <ele>1813.4000244141</ele>
        <time>2014-01-11T12:54:26.000Z</time>
      </trkpt>
      <trkpt lat="45.18991" lon="6.34878">
        <ele>1813.4000244141</ele>
        <time>2014-01-11T12:54:27.000Z</time>
      </trkpt>
      <trkpt lat="45.18991" lon="6.34878">
        <ele>1813.4000244141</ele>
        <time>2014-01-11T12:54:29.000Z</time>
      </trkpt>
      <trkpt lat="45.18991" lon="6.34878">
        <ele>1813.4000244141</ele>
        <time>2014-01-11T12:54:30.000Z</time>
      </trkpt>
      <trkpt lat="45.18991" lon="6.34878">
        <ele>1813.4000244141</ele>
        <time>2014-01-11T12:54:31.000Z</time>
      </trkpt>
      <trkpt lat="45.18991" lon="6.34878">
        <ele>1813.5999755859</ele>
        <time>2014-01-11T12:54:32.000Z</time>
      </trkpt>
      <trkpt lat="45.18991" lon="6.34878">
        <ele>1813.5999755859</ele>
        <time>2014-01-11T12:54:33.000Z</time>
      </trkpt>
      <trkpt lat="45.18991" lon="6.34878">
        <ele>1813.5999755859</ele>
        <time>2014-01-11T12:54:34.000Z</time>
      </trkpt>
      <trkpt lat="45.18991" lon="6.34878">
        <ele>1813.5999755859</ele>
        <time>2014-01-11T12:54:35.000Z</time>
      </trkpt>
      <trkpt lat="45.18991" lon="6.34878">
        <ele>1813.5999755859</ele>
        <time>2014-01-11T12:54:36.000Z</time>
      </trkpt>
      <trkpt lat="45.18991" lon="6.34878">
        <ele>1813.5999755859</ele>
        <time>2014-01-11T12:54:37.000Z</time>
      </trkpt>
      <trkpt lat="45.18989" lon="6.34882">
        <ele>1813.5999755859</ele>
        <time>2014-01-11T12:54:38.000Z</time>
      </trkpt>
      <trkpt lat="45.18989" lon="6.34884">
        <ele>1813.5999755859</ele>
        <time>2014-01-11T12:54:40.000Z</time>
      </trkpt>
      <trkpt lat="45.18988" lon="6.34885">
        <ele>1813.5999755859</ele>
        <time>2014-01-11T12:54:41.000Z</time>
      </trkpt>
      <trkpt lat="45.18988" lon="6.34887">
        <ele>1813.5999755859</ele>
        <time>2014-01-11T12:54:42.000Z</time>
      </trkpt>
      <trkpt lat="45.18989" lon="6.3489">
        <ele>1813.5999755859</ele>
        <time>2014-01-11T12:54:44.000Z</time>
      </trkpt>
      <trkpt lat="45.18989" lon="6.3489">
        <ele>1813.5999755859</ele>
        <time>2014-01-11T12:54:46.000Z</time>
      </trkpt>
      <trkpt lat="45.18991" lon="6.34892">
        <ele>1813.5999755859</ele>
        <time>2014-01-11T12:54:48.000Z</time>
      </trkpt>
      <trkpt lat="45.18992" lon="6.34893">
        <ele>1813.5999755859</ele>
        <time>2014-01-11T12:54:49.000Z</time>
      </trkpt>
      <trkpt lat="45.18992" lon="6.34893">
        <ele>1813.5999755859</ele>
        <time>2014-01-11T12:54:50.000Z</time>
      </trkpt>
      <trkpt lat="45.18993" lon="6.34894">
        <ele>1813.5999755859</ele>
        <time>2014-01-11T12:54:51.000Z</time>
      </trkpt>
      <trkpt lat="45.18994" lon="6.34894">
        <ele>1813.8000488281</ele>
        <time>2014-01-11T12:54:52.000Z</time>
      </trkpt>
      <trkpt lat="45.18994" lon="6.34894">
        <ele>1813.8000488281</ele>
        <time>2014-01-11T12:54:53.000Z</time>
      </trkpt>
      <trkpt lat="45.18995" lon="6.34895">
        <ele>1814</ele>
        <time>2014-01-11T12:54:54.000Z</time>
      </trkpt>
      <trkpt lat="45.18995" lon="6.34895">
        <ele>1814</ele>
        <time>2014-01-11T12:54:55.000Z</time>
      </trkpt>
      <trkpt lat="45.18996" lon="6.34896">
        <ele>1814</ele>
        <time>2014-01-11T12:54:56.000Z</time>
      </trkpt>
      <trkpt lat="45.18996" lon="6.34896">
        <ele>1814.1999511719</ele>
        <time>2014-01-11T12:54:57.000Z</time>
      </trkpt>
      <trkpt lat="45.18996" lon="6.34896">
        <ele>1814.1999511719</ele>
        <time>2014-01-11T12:54:58.000Z</time>
      </trkpt>
      <trkpt lat="45.18996" lon="6.34896">
        <ele>1814.1999511719</ele>
        <time>2014-01-11T12:54:59.000Z</time>
      </trkpt>
      <trkpt lat="45.18996" lon="6.34896">
        <ele>1814.1999511719</ele>
        <time>2014-01-11T12:55:00.000Z</time>
      </trkpt>
      <trkpt lat="45.18996" lon="6.34897">
        <ele>1814.1999511719</ele>
        <time>2014-01-11T12:55:01.000Z</time>
      </trkpt>
      <trkpt lat="45.18996" lon="6.34897">
        <ele>1814.1999511719</ele>
        <time>2014-01-11T12:55:02.000Z</time>
      </trkpt>
      <trkpt lat="45.18997" lon="6.34896">
        <ele>1814.1999511719</ele>
        <time>2014-01-11T12:55:03.000Z</time>
      </trkpt>
      <trkpt lat="45.18997" lon="6.34896">
        <ele>1814.4000244141</ele>
        <time>2014-01-11T12:55:04.000Z</time>
      </trkpt>
      <trkpt lat="45.18997" lon="6.34897">
        <ele>1814.4000244141</ele>
        <time>2014-01-11T12:55:05.000Z</time>
      </trkpt>
      <trkpt lat="45.18997" lon="6.34897">
        <ele>1814.4000244141</ele>
        <time>2014-01-11T12:55:06.000Z</time>
      </trkpt>
      <trkpt lat="45.18997" lon="6.34897">
        <ele>1814.4000244141</ele>
        <time>2014-01-11T12:55:07.000Z</time>
      </trkpt>
      <trkpt lat="45.18997" lon="6.34897">
        <ele>1814.5999755859</ele>
        <time>2014-01-11T12:55:08.000Z</time>
      </trkpt>
      <trkpt lat="45.18998" lon="6.34897">
        <ele>1814.5999755859</ele>
        <time>2014-01-11T12:55:09.000Z</time>
      </trkpt>
      <trkpt lat="45.18998" lon="6.34898">
        <ele>1814.8000488281</ele>
        <time>2014-01-11T12:55:10.000Z</time>
      </trkpt>
      <trkpt lat="45.18998" lon="6.34898">
        <ele>1814.8000488281</ele>
        <time>2014-01-11T12:55:11.000Z</time>
      </trkpt>
      <trkpt lat="45.18998" lon="6.34898">
        <ele>1815</ele>
        <time>2014-01-11T12:55:12.000Z</time>
      </trkpt>
      <trkpt lat="45.18998" lon="6.34898">
        <ele>1815</ele>
        <time>2014-01-11T12:55:13.000Z</time>
      </trkpt>
      <trkpt lat="45.18998" lon="6.34898">
        <ele>1815.1999511719</ele>
        <time>2014-01-11T12:55:14.000Z</time>
      </trkpt>
      <trkpt lat="45.18998" lon="6.34898">
        <ele>1815.4000244141</ele>
        <time>2014-01-11T12:55:15.000Z</time>
      </trkpt>
      <trkpt lat="45.18998" lon="6.34898">
        <ele>1815.4000244141</ele>
        <time>2014-01-11T12:55:16.000Z</time>
      </trkpt>
      <trkpt lat="45.18998" lon="6.34898">
        <ele>1815.5999755859</ele>
        <time>2014-01-11T12:55:17.000Z</time>
      </trkpt>
      <trkpt lat="45.18998" lon="6.34899">
        <ele>1815.5999755859</ele>
        <time>2014-01-11T12:55:18.000Z</time>
      </trkpt>
      <trkpt lat="45.18998" lon="6.34899">
        <ele>1815.8000488281</ele>
        <time>2014-01-11T12:55:19.000Z</time>
      </trkpt>
      <trkpt lat="45.18998" lon="6.34899">
        <ele>1815.8000488281</ele>
        <time>2014-01-11T12:55:20.000Z</time>
      </trkpt>
      <trkpt lat="45.18998" lon="6.34899">
        <ele>1816</ele>
        <time>2014-01-11T12:55:21.000Z</time>
      </trkpt>
      <trkpt lat="45.18998" lon="6.34899">
        <ele>1816</ele>
        <time>2014-01-11T12:55:22.000Z</time>
      </trkpt>
      <trkpt lat="45.18998" lon="6.34899">
        <ele>1816</ele>
        <time>2014-01-11T12:55:23.000Z</time>
      </trkpt>
      <trkpt lat="45.18998" lon="6.34899">
        <ele>1816</ele>
        <time>2014-01-11T12:55:24.000Z</time>
      </trkpt>
      <trkpt lat="45.18998" lon="6.34899">
        <ele>1816</ele>
        <time>2014-01-11T12:55:28.000Z</time>
      </trkpt>
      <trkpt lat="45.18998" lon="6.34899">
        <ele>1816</ele>
        <time>2014-01-11T12:55:29.000Z</time>
      </trkpt>
      <trkpt lat="45.18998" lon="6.34899">
        <ele>1816</ele>
        <time>2014-01-11T12:55:30.000Z</time>
      </trkpt>
      <trkpt lat="45.18998" lon="6.34899">
        <ele>1816</ele>
        <time>2014-01-11T12:55:31.000Z</time>
      </trkpt>
      <trkpt lat="45.18998" lon="6.34899">
        <ele>1816</ele>
        <time>2014-01-11T12:55:34.000Z</time>
      </trkpt>
      <trkpt lat="45.18998" lon="6.34899">
        <ele>1816</ele>
        <time>2014-01-11T12:55:35.000Z</time>
      </trkpt>
      <trkpt lat="45.18998" lon="6.34899">
        <ele>1816</ele>
        <time>2014-01-11T12:55:36.000Z</time>
      </trkpt>
      <trkpt lat="45.18998" lon="6.34899">
        <ele>1816</ele>
        <time>2014-01-11T12:55:37.000Z</time>
      </trkpt>
      <trkpt lat="45.18998" lon="6.34899">
        <ele>1816</ele>
        <time>2014-01-11T12:55:38.000Z</time>
      </trkpt>
      <trkpt lat="45.18998" lon="6.34899">
        <ele>1816</ele>
        <time>2014-01-11T12:55:39.000Z</time>
      </trkpt>
      <trkpt lat="45.18998" lon="6.34899">
        <ele>1816</ele>
        <time>2014-01-11T12:55:40.000Z</time>
      </trkpt>
      <trkpt lat="45.18998" lon="6.34899">
        <ele>1816</ele>
        <time>2014-01-11T12:55:41.000Z</time>
      </trkpt>
      <trkpt lat="45.18998" lon="6.34899">
        <ele>1816</ele>
        <time>2014-01-11T12:55:42.000Z</time>
      </trkpt>
      <trkpt lat="45.18998" lon="6.34899">
        <ele>1816</ele>
        <time>2014-01-11T12:55:43.000Z</time>
      </trkpt>
      <trkpt lat="45.18998" lon="6.34899">
        <ele>1816</ele>
        <time>2014-01-11T12:55:44.000Z</time>
      </trkpt>
      <trkpt lat="45.18998" lon="6.34899">
        <ele>1816</ele>
        <time>2014-01-11T12:55:45.000Z</time>
      </trkpt>
      <trkpt lat="45.18998" lon="6.34899">
        <ele>1816</ele>
        <time>2014-01-11T12:55:50.000Z</time>
      </trkpt>
      <trkpt lat="45.18998" lon="6.34899">
        <ele>1816</ele>
        <time>2014-01-11T12:55:51.000Z</time>
      </trkpt>
      <trkpt lat="45.18998" lon="6.34899">
        <ele>1815.8000488281</ele>
        <time>2014-01-11T12:55:52.000Z</time>
      </trkpt>
      <trkpt lat="45.18998" lon="6.34899">
        <ele>1815.8000488281</ele>
        <time>2014-01-11T12:55:53.000Z</time>
      </trkpt>
      <trkpt lat="45.18998" lon="6.34899">
        <ele>1815.8000488281</ele>
        <time>2014-01-11T12:55:54.000Z</time>
      </trkpt>
      <trkpt lat="45.18999" lon="6.34899">
        <ele>1815.8000488281</ele>
        <time>2014-01-11T12:55:55.000Z</time>
      </trkpt>
      <trkpt lat="45.18999" lon="6.34899">
        <ele>1815.8000488281</ele>
        <time>2014-01-11T12:55:56.000Z</time>
      </trkpt>
      <trkpt lat="45.18999" lon="6.34899">
        <ele>1815.8000488281</ele>
        <time>2014-01-11T12:55:57.000Z</time>
      </trkpt>
      <trkpt lat="45.19" lon="6.34899">
        <ele>1815.8000488281</ele>
        <time>2014-01-11T12:55:58.000Z</time>
      </trkpt>
      <trkpt lat="45.19" lon="6.34899">
        <ele>1816</ele>
        <time>2014-01-11T12:55:59.000Z</time>
      </trkpt>
      <trkpt lat="45.19" lon="6.34899">
        <ele>1816</ele>
        <time>2014-01-11T12:56:00.000Z</time>
      </trkpt>
      <trkpt lat="45.19" lon="6.34899">
        <ele>1816.1999511719</ele>
        <time>2014-01-11T12:56:01.000Z</time>
      </trkpt>
      <trkpt lat="45.19" lon="6.34899">
        <ele>1816.4000244141</ele>
        <time>2014-01-11T12:56:02.000Z</time>
      </trkpt>
      <trkpt lat="45.19" lon="6.34899">
        <ele>1816.5999755859</ele>
        <time>2014-01-11T12:56:03.000Z</time>
      </trkpt>
      <trkpt lat="45.19" lon="6.34899">
        <ele>1816.8000488281</ele>
        <time>2014-01-11T12:56:04.000Z</time>
      </trkpt>
      <trkpt lat="45.19" lon="6.34899">
        <ele>1816.8000488281</ele>
        <time>2014-01-11T12:56:05.000Z</time>
      </trkpt>
      <trkpt lat="45.19" lon="6.34899">
        <ele>1816.8000488281</ele>
        <time>2014-01-11T12:56:06.000Z</time>
      </trkpt>
      <trkpt lat="45.19" lon="6.34899">
        <ele>1816.8000488281</ele>
        <time>2014-01-11T12:56:07.000Z</time>
      </trkpt>
      <trkpt lat="45.19" lon="6.34899">
        <ele>1816.8000488281</ele>
        <time>2014-01-11T12:56:09.000Z</time>
      </trkpt>
      <trkpt lat="45.19" lon="6.34899">
        <ele>1816.8000488281</ele>
        <time>2014-01-11T12:56:12.000Z</time>
      </trkpt>
      <trkpt lat="45.19" lon="6.34899">
        <ele>1816.8000488281</ele>
        <time>2014-01-11T12:56:13.000Z</time>
      </trkpt>
      <trkpt lat="45.19" lon="6.34899">
        <ele>1816.8000488281</ele>
        <time>2014-01-11T12:56:16.000Z</time>
      </trkpt>
      <trkpt lat="45.19001" lon="6.34898">
        <ele>1816.8000488281</ele>
        <time>2014-01-11T12:56:17.000Z</time>
      </trkpt>
      <trkpt lat="45.19001" lon="6.34898">
        <ele>1816.8000488281</ele>
        <time>2014-01-11T12:56:18.000Z</time>
      </trkpt>
      <trkpt lat="45.19001" lon="6.34898">
        <ele>1816.8000488281</ele>
        <time>2014-01-11T12:56:19.000Z</time>
      </trkpt>
      <trkpt lat="45.19001" lon="6.34898">
        <ele>1816.8000488281</ele>
        <time>2014-01-11T12:56:21.000Z</time>
      </trkpt>
      <trkpt lat="45.19001" lon="6.34898">
        <ele>1816.8000488281</ele>
        <time>2014-01-11T12:56:22.000Z</time>
      </trkpt>
      <trkpt lat="45.19001" lon="6.34898">
        <ele>1816.8000488281</ele>
        <time>2014-01-11T12:56:23.000Z</time>
      </trkpt>
      <trkpt lat="45.19001" lon="6.34898">
        <ele>1816.5999755859</ele>
        <time>2014-01-11T12:56:24.000Z</time>
      </trkpt>
      <trkpt lat="45.19001" lon="6.34898">
        <ele>1816.5999755859</ele>
        <time>2014-01-11T12:56:25.000Z</time>
      </trkpt>
      <trkpt lat="45.19001" lon="6.34898">
        <ele>1816.5999755859</ele>
        <time>2014-01-11T12:56:26.000Z</time>
      </trkpt>
      <trkpt lat="45.19001" lon="6.34898">
        <ele>1816.5999755859</ele>
        <time>2014-01-11T12:56:27.000Z</time>
      </trkpt>
      <trkpt lat="45.19001" lon="6.34898">
        <ele>1816.5999755859</ele>
        <time>2014-01-11T12:56:28.000Z</time>
      </trkpt>
      <trkpt lat="45.19001" lon="6.34898">
        <ele>1816.5999755859</ele>
        <time>2014-01-11T12:56:29.000Z</time>
      </trkpt>
      <trkpt lat="45.19001" lon="6.34898">
        <ele>1816.5999755859</ele>
        <time>2014-01-11T12:56:30.000Z</time>
      </trkpt>
      <trkpt lat="45.19001" lon="6.34898">
        <ele>1816.5999755859</ele>
        <time>2014-01-11T12:56:31.000Z</time>
      </trkpt>
      <trkpt lat="45.19002" lon="6.34898">
        <ele>1816.4000244141</ele>
        <time>2014-01-11T12:56:32.000Z</time>
      </trkpt>
      <trkpt lat="45.19002" lon="6.34897">
        <ele>1816.4000244141</ele>
        <time>2014-01-11T12:56:33.000Z</time>
      </trkpt>
      <trkpt lat="45.19003" lon="6.34897">
        <ele>1816.4000244141</ele>
        <time>2014-01-11T12:56:34.000Z</time>
      </trkpt>
      <trkpt lat="45.19004" lon="6.34896">
        <ele>1816.4000244141</ele>
        <time>2014-01-11T12:56:35.000Z</time>
      </trkpt>
      <trkpt lat="45.19006" lon="6.34896">
        <ele>1816.4000244141</ele>
        <time>2014-01-11T12:56:36.000Z</time>
      </trkpt>
      <trkpt lat="45.19006" lon="6.34896">
        <ele>1816.4000244141</ele>
        <time>2014-01-11T12:56:37.000Z</time>
      </trkpt>
      <trkpt lat="45.19007" lon="6.34896">
        <ele>1816.4000244141</ele>
        <time>2014-01-11T12:56:38.000Z</time>
      </trkpt>
      <trkpt lat="45.19007" lon="6.34894">
        <ele>1816.1999511719</ele>
        <time>2014-01-11T12:56:39.000Z</time>
      </trkpt>
      <trkpt lat="45.19008" lon="6.34893">
        <ele>1816</ele>
        <time>2014-01-11T12:56:40.000Z</time>
      </trkpt>
      <trkpt lat="45.19009" lon="6.34894">
        <ele>1816</ele>
        <time>2014-01-11T12:56:41.000Z</time>
      </trkpt>
      <trkpt lat="45.1901" lon="6.34894">
        <ele>1815.8000488281</ele>
        <time>2014-01-11T12:56:42.000Z</time>
      </trkpt>
      <trkpt lat="45.19012" lon="6.34895">
        <ele>1815.5999755859</ele>
        <time>2014-01-11T12:56:43.000Z</time>
      </trkpt>
      <trkpt lat="45.19012" lon="6.34895">
        <ele>1815.4000244141</ele>
        <time>2014-01-11T12:56:44.000Z</time>
      </trkpt>
      <trkpt lat="45.19013" lon="6.34895">
        <ele>1815.1999511719</ele>
        <time>2014-01-11T12:56:45.000Z</time>
      </trkpt>
      <trkpt lat="45.19013" lon="6.34895">
        <ele>1815</ele>
        <time>2014-01-11T12:56:46.000Z</time>
      </trkpt>
      <trkpt lat="45.19013" lon="6.34895">
        <ele>1814.8000488281</ele>
        <time>2014-01-11T12:56:47.000Z</time>
      </trkpt>
      <trkpt lat="45.19013" lon="6.34895">
        <ele>1814.5999755859</ele>
        <time>2014-01-11T12:56:48.000Z</time>
      </trkpt>
      <trkpt lat="45.19013" lon="6.34895">
        <ele>1814.5999755859</ele>
        <time>2014-01-11T12:56:49.000Z</time>
      </trkpt>
      <trkpt lat="45.19014" lon="6.34894">
        <ele>1814.4000244141</ele>
        <time>2014-01-11T12:56:50.000Z</time>
      </trkpt>
      <trkpt lat="45.19015" lon="6.34894">
        <ele>1814.1999511719</ele>
        <time>2014-01-11T12:56:51.000Z</time>
      </trkpt>
      <trkpt lat="45.19016" lon="6.34894">
        <ele>1814.1999511719</ele>
        <time>2014-01-11T12:56:52.000Z</time>
      </trkpt>
      <trkpt lat="45.19016" lon="6.34894">
        <ele>1814</ele>
        <time>2014-01-11T12:56:53.000Z</time>
      </trkpt>
      <trkpt lat="45.19016" lon="6.34894">
        <ele>1813.8000488281</ele>
        <time>2014-01-11T12:56:54.000Z</time>
      </trkpt>
      <trkpt lat="45.19017" lon="6.34894">
        <ele>1813.8000488281</ele>
        <time>2014-01-11T12:56:55.000Z</time>
      </trkpt>
      <trkpt lat="45.19018" lon="6.34892">
        <ele>1813.5999755859</ele>
        <time>2014-01-11T12:56:56.000Z</time>
      </trkpt>
      <trkpt lat="45.19019" lon="6.34893">
        <ele>1813.5999755859</ele>
        <time>2014-01-11T12:56:57.000Z</time>
      </trkpt>
      <trkpt lat="45.19021" lon="6.34894">
        <ele>1813.4000244141</ele>
        <time>2014-01-11T12:56:58.000Z</time>
      </trkpt>
      <trkpt lat="45.19023" lon="6.34896">
        <ele>1813.1999511719</ele>
        <time>2014-01-11T12:56:59.000Z</time>
      </trkpt>
      <trkpt lat="45.19026" lon="6.34897">
        <ele>1812.8000488281</ele>
        <time>2014-01-11T12:57:00.000Z</time>
      </trkpt>
      <trkpt lat="45.19027" lon="6.34898">
        <ele>1812.1999511719</ele>
        <time>2014-01-11T12:57:01.000Z</time>
      </trkpt>
      <trkpt lat="45.19029" lon="6.34898">
        <ele>1811.5999755859</ele>
        <time>2014-01-11T12:57:02.000Z</time>
      </trkpt>
      <trkpt lat="45.1903" lon="6.34898">
        <ele>1811</ele>
        <time>2014-01-11T12:57:03.000Z</time>
      </trkpt>
      <trkpt lat="45.19031" lon="6.34897">
        <ele>1810.4000244141</ele>
        <time>2014-01-11T12:57:04.000Z</time>
      </trkpt>
      <trkpt lat="45.19033" lon="6.34895">
        <ele>1810.1999511719</ele>
        <time>2014-01-11T12:57:05.000Z</time>
      </trkpt>
      <trkpt lat="45.19035" lon="6.34892">
        <ele>1810</ele>
        <time>2014-01-11T12:57:06.000Z</time>
      </trkpt>
      <trkpt lat="45.19034" lon="6.34888">
        <ele>1809.8000488281</ele>
        <time>2014-01-11T12:57:07.000Z</time>
      </trkpt>
      <trkpt lat="45.19032" lon="6.34885">
        <ele>1809.5999755859</ele>
        <time>2014-01-11T12:57:08.000Z</time>
      </trkpt>
      <trkpt lat="45.19031" lon="6.34883">
        <ele>1809.1999511719</ele>
        <time>2014-01-11T12:57:09.000Z</time>
      </trkpt>
      <trkpt lat="45.1903" lon="6.34883">
        <ele>1808.4000244141</ele>
        <time>2014-01-11T12:57:10.000Z</time>
      </trkpt>
      <trkpt lat="45.19031" lon="6.34884">
        <ele>1807.1999511719</ele>
        <time>2014-01-11T12:57:11.000Z</time>
      </trkpt>
      <trkpt lat="45.19031" lon="6.34884">
        <ele>1806</ele>
        <time>2014-01-11T12:57:12.000Z</time>
      </trkpt>
      <trkpt lat="45.19031" lon="6.34884">
        <ele>1805.1999511719</ele>
        <time>2014-01-11T12:57:13.000Z</time>
      </trkpt>
      <trkpt lat="45.19031" lon="6.34883">
        <ele>1804.5999755859</ele>
        <time>2014-01-11T12:57:14.000Z</time>
      </trkpt>
      <trkpt lat="45.19031" lon="6.3488">
        <ele>1804.1999511719</ele>
        <time>2014-01-11T12:57:15.000Z</time>
      </trkpt>
      <trkpt lat="45.1903" lon="6.34876">
        <ele>1804</ele>
        <time>2014-01-11T12:57:16.000Z</time>
      </trkpt>
      <trkpt lat="45.1903" lon="6.34874">
        <ele>1803.8000488281</ele>
        <time>2014-01-11T12:57:17.000Z</time>
      </trkpt>
      <trkpt lat="45.1903" lon="6.34872">
        <ele>1803.5999755859</ele>
        <time>2014-01-11T12:57:18.000Z</time>
      </trkpt>
      <trkpt lat="45.19031" lon="6.34869">
        <ele>1803.1999511719</ele>
        <time>2014-01-11T12:57:19.000Z</time>
      </trkpt>
      <trkpt lat="45.19032" lon="6.34867">
        <ele>1802.5999755859</ele>
        <time>2014-01-11T12:57:20.000Z</time>
      </trkpt>
      <trkpt lat="45.19034" lon="6.34866">
        <ele>1801.8000488281</ele>
        <time>2014-01-11T12:57:21.000Z</time>
      </trkpt>
      <trkpt lat="45.19036" lon="6.34867">
        <ele>1801.1999511719</ele>
        <time>2014-01-11T12:57:22.000Z</time>
      </trkpt>
      <trkpt lat="45.19038" lon="6.34867">
        <ele>1800.5999755859</ele>
        <time>2014-01-11T12:57:23.000Z</time>
      </trkpt>
      <trkpt lat="45.19039" lon="6.34866">
        <ele>1800</ele>
        <time>2014-01-11T12:57:24.000Z</time>
      </trkpt>
      <trkpt lat="45.1904" lon="6.34866">
        <ele>1799.1999511719</ele>
        <time>2014-01-11T12:57:25.000Z</time>
      </trkpt>
      <trkpt lat="45.19041" lon="6.34866">
        <ele>1798.5999755859</ele>
        <time>2014-01-11T12:57:26.000Z</time>
      </trkpt>
      <trkpt lat="45.19043" lon="6.34865">
        <ele>1798</ele>
        <time>2014-01-11T12:57:27.000Z</time>
      </trkpt>
      <trkpt lat="45.19045" lon="6.34861">
        <ele>1797.8000488281</ele>
        <time>2014-01-11T12:57:28.000Z</time>
      </trkpt>
      <trkpt lat="45.19047" lon="6.34858">
        <ele>1797.4000244141</ele>
        <time>2014-01-11T12:57:29.000Z</time>
      </trkpt>
      <trkpt lat="45.19049" lon="6.34858">
        <ele>1796.8000488281</ele>
        <time>2014-01-11T12:57:30.000Z</time>
      </trkpt>
      <trkpt lat="45.1905" lon="6.34859">
        <ele>1795.8000488281</ele>
        <time>2014-01-11T12:57:31.000Z</time>
      </trkpt>
      <trkpt lat="45.19053" lon="6.34862">
        <ele>1794.5999755859</ele>
        <time>2014-01-11T12:57:32.000Z</time>
      </trkpt>
      <trkpt lat="45.19055" lon="6.34866">
        <ele>1793.4000244141</ele>
        <time>2014-01-11T12:57:33.000Z</time>
      </trkpt>
      <trkpt lat="45.19057" lon="6.3487">
        <ele>1792.4000244141</ele>
        <time>2014-01-11T12:57:34.000Z</time>
      </trkpt>
      <trkpt lat="45.1906" lon="6.34873">
        <ele>1791.5999755859</ele>
        <time>2014-01-11T12:57:35.000Z</time>
      </trkpt>
      <trkpt lat="45.19063" lon="6.34872">
        <ele>1791</ele>
        <time>2014-01-11T12:57:36.000Z</time>
      </trkpt>
      <trkpt lat="45.19066" lon="6.34872">
        <ele>1790.4000244141</ele>
        <time>2014-01-11T12:57:37.000Z</time>
      </trkpt>
      <trkpt lat="45.19069" lon="6.34874">
        <ele>1789.8000488281</ele>
        <time>2014-01-11T12:57:38.000Z</time>
      </trkpt>
      <trkpt lat="45.19071" lon="6.34877">
        <ele>1787.4000244141</ele>
        <time>2014-01-11T12:57:39.000Z</time>
      </trkpt>
      <trkpt lat="45.19073" lon="6.34877">
        <ele>1786.1999511719</ele>
        <time>2014-01-11T12:57:40.000Z</time>
      </trkpt>
      <trkpt lat="45.19074" lon="6.34876">
        <ele>1785.1999511719</ele>
        <time>2014-01-11T12:57:41.000Z</time>
      </trkpt>
      <trkpt lat="45.19076" lon="6.3487">
        <ele>1784.4000244141</ele>
        <time>2014-01-11T12:57:42.000Z</time>
      </trkpt>
      <trkpt lat="45.19078" lon="6.34871">
        <ele>1783.4000244141</ele>
        <time>2014-01-11T12:57:43.000Z</time>
      </trkpt>
      <trkpt lat="45.19079" lon="6.34871">
        <ele>1782.1999511719</ele>
        <time>2014-01-11T12:57:44.000Z</time>
      </trkpt>
      <trkpt lat="45.19082" lon="6.34866">
        <ele>1779.8000488281</ele>
        <time>2014-01-11T12:57:45.000Z</time>
      </trkpt>
      <trkpt lat="45.19084" lon="6.34863">
        <ele>1778.1999511719</ele>
        <time>2014-01-11T12:57:48.000Z</time>
      </trkpt>
      <trkpt lat="45.19085" lon="6.34858">
        <ele>1776.5999755859</ele>
        <time>2014-01-11T12:57:49.000Z</time>
      </trkpt>
      <trkpt lat="45.19086" lon="6.3485">
        <ele>1775</ele>
        <time>2014-01-11T12:57:50.000Z</time>
      </trkpt>
      <trkpt lat="45.19086" lon="6.34843">
        <ele>1773.4000244141</ele>
        <time>2014-01-11T12:57:51.000Z</time>
      </trkpt>
      <trkpt lat="45.19087" lon="6.34836">
        <ele>1771.5999755859</ele>
        <time>2014-01-11T12:57:52.000Z</time>
      </trkpt>
      <trkpt lat="45.19088" lon="6.34832">
        <ele>1769.8000488281</ele>
        <time>2014-01-11T12:57:53.000Z</time>
      </trkpt>
      <trkpt lat="45.19089" lon="6.34826">
        <ele>1768.1999511719</ele>
        <time>2014-01-11T12:57:54.000Z</time>
      </trkpt>
      <trkpt lat="45.19094" lon="6.34823">
        <ele>1766.8000488281</ele>
        <time>2014-01-11T12:57:55.000Z</time>
      </trkpt>
      <trkpt lat="45.19097" lon="6.34822">
        <ele>1765.4000244141</ele>
        <time>2014-01-11T12:57:56.000Z</time>
      </trkpt>
      <trkpt lat="45.19099" lon="6.34819">
        <ele>1764.4000244141</ele>
        <time>2014-01-11T12:57:57.000Z</time>
      </trkpt>
      <trkpt lat="45.191" lon="6.34818">
        <ele>1763.5999755859</ele>
        <time>2014-01-11T12:57:58.000Z</time>
      </trkpt>
      <trkpt lat="45.19102" lon="6.3482">
        <ele>1763.1999511719</ele>
        <time>2014-01-11T12:57:59.000Z</time>
      </trkpt>
      <trkpt lat="45.19102" lon="6.34822">
        <ele>1762.8000488281</ele>
        <time>2014-01-11T12:58:00.000Z</time>
      </trkpt>
      <trkpt lat="45.19102" lon="6.34822">
        <ele>1762.5999755859</ele>
        <time>2014-01-11T12:58:01.000Z</time>
      </trkpt>
      <trkpt lat="45.19102" lon="6.34822">
        <ele>1762.5999755859</ele>
        <time>2014-01-11T12:58:02.000Z</time>
      </trkpt>
      <trkpt lat="45.19103" lon="6.34822">
        <ele>1762.4000244141</ele>
        <time>2014-01-11T12:58:03.000Z</time>
      </trkpt>
      <trkpt lat="45.19103" lon="6.34822">
        <ele>1762.4000244141</ele>
        <time>2014-01-11T12:58:04.000Z</time>
      </trkpt>
      <trkpt lat="45.19103" lon="6.34822">
        <ele>1762.4000244141</ele>
        <time>2014-01-11T12:58:05.000Z</time>
      </trkpt>
      <trkpt lat="45.19103" lon="6.34822">
        <ele>1762.4000244141</ele>
        <time>2014-01-11T12:58:06.000Z</time>
      </trkpt>
      <trkpt lat="45.19103" lon="6.34822">
        <ele>1762.4000244141</ele>
        <time>2014-01-11T12:58:07.000Z</time>
      </trkpt>
      <trkpt lat="45.19103" lon="6.34822">
        <ele>1762.5999755859</ele>
        <time>2014-01-11T12:58:08.000Z</time>
      </trkpt>
      <trkpt lat="45.19103" lon="6.34822">
        <ele>1762.5999755859</ele>
        <time>2014-01-11T12:58:09.000Z</time>
      </trkpt>
      <trkpt lat="45.19103" lon="6.34822">
        <ele>1762.8000488281</ele>
        <time>2014-01-11T12:58:10.000Z</time>
      </trkpt>
      <trkpt lat="45.19103" lon="6.34822">
        <ele>1762.8000488281</ele>
        <time>2014-01-11T12:58:11.000Z</time>
      </trkpt>
      <trkpt lat="45.19103" lon="6.34822">
        <ele>1762.8000488281</ele>
        <time>2014-01-11T12:58:12.000Z</time>
      </trkpt>
      <trkpt lat="45.19103" lon="6.34822">
        <ele>1763</ele>
        <time>2014-01-11T12:58:13.000Z</time>
      </trkpt>
      <trkpt lat="45.19103" lon="6.34822">
        <ele>1763</ele>
        <time>2014-01-11T12:58:14.000Z</time>
      </trkpt>
      <trkpt lat="45.19103" lon="6.34822">
        <ele>1763</ele>
        <time>2014-01-11T12:58:15.000Z</time>
      </trkpt>
      <trkpt lat="45.19103" lon="6.34822">
        <ele>1763</ele>
        <time>2014-01-11T12:58:16.000Z</time>
      </trkpt>
      <trkpt lat="45.19103" lon="6.34822">
        <ele>1762.8000488281</ele>
        <time>2014-01-11T12:58:17.000Z</time>
      </trkpt>
      <trkpt lat="45.19103" lon="6.34822">
        <ele>1762.8000488281</ele>
        <time>2014-01-11T12:58:18.000Z</time>
      </trkpt>
      <trkpt lat="45.19103" lon="6.34822">
        <ele>1762.8000488281</ele>
        <time>2014-01-11T12:58:19.000Z</time>
      </trkpt>
      <trkpt lat="45.19103" lon="6.34822">
        <ele>1762.5999755859</ele>
        <time>2014-01-11T12:58:20.000Z</time>
      </trkpt>
      <trkpt lat="45.19103" lon="6.34822">
        <ele>1762.5999755859</ele>
        <time>2014-01-11T12:58:21.000Z</time>
      </trkpt>
      <trkpt lat="45.19103" lon="6.34822">
        <ele>1762.5999755859</ele>
        <time>2014-01-11T12:58:22.000Z</time>
      </trkpt>
      <trkpt lat="45.19103" lon="6.34822">
        <ele>1762.5999755859</ele>
        <time>2014-01-11T12:58:23.000Z</time>
      </trkpt>
      <trkpt lat="45.19103" lon="6.34822">
        <ele>1762.5999755859</ele>
        <time>2014-01-11T12:58:24.000Z</time>
      </trkpt>
      <trkpt lat="45.19103" lon="6.34822">
        <ele>1762.4000244141</ele>
        <time>2014-01-11T12:58:25.000Z</time>
      </trkpt>
      <trkpt lat="45.19103" lon="6.34822">
        <ele>1762.4000244141</ele>
        <time>2014-01-11T12:58:26.000Z</time>
      </trkpt>
      <trkpt lat="45.19103" lon="6.34822">
        <ele>1762.4000244141</ele>
        <time>2014-01-11T12:58:27.000Z</time>
      </trkpt>
      <trkpt lat="45.19103" lon="6.34822">
        <ele>1762.4000244141</ele>
        <time>2014-01-11T12:58:28.000Z</time>
      </trkpt>
      <trkpt lat="45.19103" lon="6.34822">
        <ele>1762.1999511719</ele>
        <time>2014-01-11T12:58:29.000Z</time>
      </trkpt>
      <trkpt lat="45.19103" lon="6.34822">
        <ele>1762.1999511719</ele>
        <time>2014-01-11T12:58:30.000Z</time>
      </trkpt>
      <trkpt lat="45.19103" lon="6.34822">
        <ele>1762.1999511719</ele>
        <time>2014-01-11T12:58:31.000Z</time>
      </trkpt>
      <trkpt lat="45.19103" lon="6.34822">
        <ele>1762</ele>
        <time>2014-01-11T12:58:32.000Z</time>
      </trkpt>
      <trkpt lat="45.19103" lon="6.34822">
        <ele>1762</ele>
        <time>2014-01-11T12:58:33.000Z</time>
      </trkpt>
      <trkpt lat="45.19103" lon="6.34822">
        <ele>1762</ele>
        <time>2014-01-11T12:58:34.000Z</time>
      </trkpt>
      <trkpt lat="45.19103" lon="6.34822">
        <ele>1762</ele>
        <time>2014-01-11T12:58:35.000Z</time>
      </trkpt>
      <trkpt lat="45.19103" lon="6.34822">
        <ele>1762</ele>
        <time>2014-01-11T12:58:36.000Z</time>
      </trkpt>
      <trkpt lat="45.19102" lon="6.34821">
        <ele>1761.8000488281</ele>
        <time>2014-01-11T12:58:37.000Z</time>
      </trkpt>
      <trkpt lat="45.19104" lon="6.34819">
        <ele>1761.8000488281</ele>
        <time>2014-01-11T12:58:38.000Z</time>
      </trkpt>
      <trkpt lat="45.19104" lon="6.34818">
        <ele>1761.8000488281</ele>
        <time>2014-01-11T12:58:39.000Z</time>
      </trkpt>
      <trkpt lat="45.19105" lon="6.34817">
        <ele>1761.5999755859</ele>
        <time>2014-01-11T12:58:40.000Z</time>
      </trkpt>
      <trkpt lat="45.19106" lon="6.34813">
        <ele>1761.1999511719</ele>
        <time>2014-01-11T12:58:41.000Z</time>
      </trkpt>
      <trkpt lat="45.19107" lon="6.3481">
        <ele>1760.5999755859</ele>
        <time>2014-01-11T12:58:42.000Z</time>
      </trkpt>
      <trkpt lat="45.19108" lon="6.3481">
        <ele>1760</ele>
        <time>2014-01-11T12:58:43.000Z</time>
      </trkpt>
      <trkpt lat="45.19109" lon="6.3481">
        <ele>1759.1999511719</ele>
        <time>2014-01-11T12:58:44.000Z</time>
      </trkpt>
      <trkpt lat="45.19109" lon="6.3481">
        <ele>1758.1999511719</ele>
        <time>2014-01-11T12:58:45.000Z</time>
      </trkpt>
      <trkpt lat="45.19109" lon="6.3481">
        <ele>1757.4000244141</ele>
        <time>2014-01-11T12:58:46.000Z</time>
      </trkpt>
      <trkpt lat="45.19109" lon="6.3481">
        <ele>1756.8000488281</ele>
        <time>2014-01-11T12:58:47.000Z</time>
      </trkpt>
      <trkpt lat="45.19109" lon="6.3481">
        <ele>1756.1999511719</ele>
        <time>2014-01-11T12:58:48.000Z</time>
      </trkpt>
      <trkpt lat="45.19109" lon="6.3481">
        <ele>1756</ele>
        <time>2014-01-11T12:58:49.000Z</time>
      </trkpt>
      <trkpt lat="45.19109" lon="6.34809">
        <ele>1755.8000488281</ele>
        <time>2014-01-11T12:58:50.000Z</time>
      </trkpt>
      <trkpt lat="45.19109" lon="6.34807">
        <ele>1755.8000488281</ele>
        <time>2014-01-11T12:58:51.000Z</time>
      </trkpt>
      <trkpt lat="45.19109" lon="6.34801">
        <ele>1755.5999755859</ele>
        <time>2014-01-11T12:58:52.000Z</time>
      </trkpt>
      <trkpt lat="45.19109" lon="6.34796">
        <ele>1755.4000244141</ele>
        <time>2014-01-11T12:58:53.000Z</time>
      </trkpt>
      <trkpt lat="45.19109" lon="6.34794">
        <ele>1755.4000244141</ele>
        <time>2014-01-11T12:58:54.000Z</time>
      </trkpt>
      <trkpt lat="45.19109" lon="6.34794">
        <ele>1755.1999511719</ele>
        <time>2014-01-11T12:58:55.000Z</time>
      </trkpt>
      <trkpt lat="45.19109" lon="6.34794">
        <ele>1754.5999755859</ele>
        <time>2014-01-11T12:58:56.000Z</time>
      </trkpt>
      <trkpt lat="45.19109" lon="6.34794">
        <ele>1754.1999511719</ele>
        <time>2014-01-11T12:58:57.000Z</time>
      </trkpt>
      <trkpt lat="45.19109" lon="6.34794">
        <ele>1753.8000488281</ele>
        <time>2014-01-11T12:58:58.000Z</time>
      </trkpt>
      <trkpt lat="45.19109" lon="6.34794">
        <ele>1753.4000244141</ele>
        <time>2014-01-11T12:58:59.000Z</time>
      </trkpt>
      <trkpt lat="45.19109" lon="6.34794">
        <ele>1753.1999511719</ele>
        <time>2014-01-11T12:59:00.000Z</time>
      </trkpt>
      <trkpt lat="45.19109" lon="6.34794">
        <ele>1753</ele>
        <time>2014-01-11T12:59:01.000Z</time>
      </trkpt>
      <trkpt lat="45.19109" lon="6.34793">
        <ele>1752.8000488281</ele>
        <time>2014-01-11T12:59:02.000Z</time>
      </trkpt>
      <trkpt lat="45.19111" lon="6.34792">
        <ele>1752.5999755859</ele>
        <time>2014-01-11T12:59:03.000Z</time>
      </trkpt>
      <trkpt lat="45.19113" lon="6.34792">
        <ele>1752.5999755859</ele>
        <time>2014-01-11T12:59:04.000Z</time>
      </trkpt>
      <trkpt lat="45.19115" lon="6.34791">
        <ele>1752.5999755859</ele>
        <time>2014-01-11T12:59:05.000Z</time>
      </trkpt>
      <trkpt lat="45.19117" lon="6.34791">
        <ele>1752.4000244141</ele>
        <time>2014-01-11T12:59:06.000Z</time>
      </trkpt>
      <trkpt lat="45.19117" lon="6.34791">
        <ele>1752.4000244141</ele>
        <time>2014-01-11T12:59:07.000Z</time>
      </trkpt>
      <trkpt lat="45.19117" lon="6.34791">
        <ele>1752.1999511719</ele>
        <time>2014-01-11T12:59:08.000Z</time>
      </trkpt>
      <trkpt lat="45.19117" lon="6.34791">
        <ele>1752</ele>
        <time>2014-01-11T12:59:09.000Z</time>
      </trkpt>
      <trkpt lat="45.19117" lon="6.3479">
        <ele>1751.5999755859</ele>
        <time>2014-01-11T12:59:10.000Z</time>
      </trkpt>
      <trkpt lat="45.19117" lon="6.3479">
        <ele>1751.4000244141</ele>
        <time>2014-01-11T12:59:11.000Z</time>
      </trkpt>
      <trkpt lat="45.19117" lon="6.3479">
        <ele>1751.4000244141</ele>
        <time>2014-01-11T12:59:12.000Z</time>
      </trkpt>
      <trkpt lat="45.19118" lon="6.3479">
        <ele>1751.1999511719</ele>
        <time>2014-01-11T12:59:13.000Z</time>
      </trkpt>
      <trkpt lat="45.19118" lon="6.3479">
        <ele>1751.1999511719</ele>
        <time>2014-01-11T12:59:14.000Z</time>
      </trkpt>
      <trkpt lat="45.19118" lon="6.3479">
        <ele>1751</ele>
        <time>2014-01-11T12:59:15.000Z</time>
      </trkpt>
      <trkpt lat="45.19118" lon="6.3479">
        <ele>1751.1999511719</ele>
        <time>2014-01-11T12:59:16.000Z</time>
      </trkpt>
      <trkpt lat="45.19118" lon="6.3479">
        <ele>1751.1999511719</ele>
        <time>2014-01-11T12:59:17.000Z</time>
      </trkpt>
      <trkpt lat="45.19118" lon="6.3479">
        <ele>1751.1999511719</ele>
        <time>2014-01-11T12:59:18.000Z</time>
      </trkpt>
      <trkpt lat="45.19118" lon="6.3479">
        <ele>1751.1999511719</ele>
        <time>2014-01-11T12:59:20.000Z</time>
      </trkpt>
      <trkpt lat="45.19119" lon="6.3479">
        <ele>1751.1999511719</ele>
        <time>2014-01-11T12:59:21.000Z</time>
      </trkpt>
      <trkpt lat="45.19119" lon="6.34788">
        <ele>1751.1999511719</ele>
        <time>2014-01-11T12:59:22.000Z</time>
      </trkpt>
      <trkpt lat="45.1912" lon="6.34786">
        <ele>1751.1999511719</ele>
        <time>2014-01-11T12:59:23.000Z</time>
      </trkpt>
      <trkpt lat="45.19121" lon="6.34784">
        <ele>1751.4000244141</ele>
        <time>2014-01-11T12:59:24.000Z</time>
      </trkpt>
      <trkpt lat="45.19121" lon="6.34782">
        <ele>1751.4000244141</ele>
        <time>2014-01-11T12:59:25.000Z</time>
      </trkpt>
      <trkpt lat="45.19122" lon="6.34779">
        <ele>1751.5999755859</ele>
        <time>2014-01-11T12:59:26.000Z</time>
      </trkpt>
      <trkpt lat="45.19122" lon="6.34776">
        <ele>1751.5999755859</ele>
        <time>2014-01-11T12:59:27.000Z</time>
      </trkpt>
      <trkpt lat="45.19123" lon="6.34773">
        <ele>1751.5999755859</ele>
        <time>2014-01-11T12:59:28.000Z</time>
      </trkpt>
      <trkpt lat="45.19123" lon="6.34765">
        <ele>1751.5999755859</ele>
        <time>2014-01-11T12:59:30.000Z</time>
      </trkpt>
      <trkpt lat="45.19124" lon="6.34763">
        <ele>1751.5999755859</ele>
        <time>2014-01-11T12:59:31.000Z</time>
      </trkpt>
      <trkpt lat="45.19125" lon="6.34761">
        <ele>1751.4000244141</ele>
        <time>2014-01-11T12:59:32.000Z</time>
      </trkpt>
      <trkpt lat="45.19126" lon="6.34759">
        <ele>1751.4000244141</ele>
        <time>2014-01-11T12:59:33.000Z</time>
      </trkpt>
      <trkpt lat="45.19126" lon="6.34757">
        <ele>1751.1999511719</ele>
        <time>2014-01-11T12:59:34.000Z</time>
      </trkpt>
      <trkpt lat="45.19127" lon="6.34755">
        <ele>1751</ele>
        <time>2014-01-11T12:59:35.000Z</time>
      </trkpt>
      <trkpt lat="45.19127" lon="6.34753">
        <ele>1751</ele>
        <time>2014-01-11T12:59:36.000Z</time>
      </trkpt>
      <trkpt lat="45.19127" lon="6.34752">
        <ele>1750.8000488281</ele>
        <time>2014-01-11T12:59:37.000Z</time>
      </trkpt>
      <trkpt lat="45.19128" lon="6.3475">
        <ele>1750.8000488281</ele>
        <time>2014-01-11T12:59:38.000Z</time>
      </trkpt>
      <trkpt lat="45.19128" lon="6.34748">
        <ele>1750.8000488281</ele>
        <time>2014-01-11T12:59:39.000Z</time>
      </trkpt>
      <trkpt lat="45.19128" lon="6.34746">
        <ele>1751</ele>
        <time>2014-01-11T12:59:40.000Z</time>
      </trkpt>
      <trkpt lat="45.19128" lon="6.34745">
        <ele>1751</ele>
        <time>2014-01-11T12:59:41.000Z</time>
      </trkpt>
      <trkpt lat="45.19129" lon="6.34745">
        <ele>1751</ele>
        <time>2014-01-11T12:59:42.000Z</time>
      </trkpt>
      <trkpt lat="45.19129" lon="6.34745">
        <ele>1751</ele>
        <time>2014-01-11T12:59:43.000Z</time>
      </trkpt>
      <trkpt lat="45.19129" lon="6.34745">
        <ele>1751</ele>
        <time>2014-01-11T12:59:44.000Z</time>
      </trkpt>
      <trkpt lat="45.19129" lon="6.34745">
        <ele>1751</ele>
        <time>2014-01-11T12:59:45.000Z</time>
      </trkpt>
      <trkpt lat="45.19129" lon="6.34745">
        <ele>1751</ele>
        <time>2014-01-11T12:59:46.000Z</time>
      </trkpt>
      <trkpt lat="45.19129" lon="6.34744">
        <ele>1751</ele>
        <time>2014-01-11T12:59:47.000Z</time>
      </trkpt>
      <trkpt lat="45.19129" lon="6.34743">
        <ele>1751</ele>
        <time>2014-01-11T12:59:48.000Z</time>
      </trkpt>
      <trkpt lat="45.19129" lon="6.34742">
        <ele>1750.8000488281</ele>
        <time>2014-01-11T12:59:49.000Z</time>
      </trkpt>
      <trkpt lat="45.19129" lon="6.34741">
        <ele>1750.8000488281</ele>
        <time>2014-01-11T12:59:50.000Z</time>
      </trkpt>
      <trkpt lat="45.19128" lon="6.3474">
        <ele>1750.8000488281</ele>
        <time>2014-01-11T12:59:51.000Z</time>
      </trkpt>
      <trkpt lat="45.19128" lon="6.34739">
        <ele>1750.5999755859</ele>
        <time>2014-01-11T12:59:52.000Z</time>
      </trkpt>
      <trkpt lat="45.19128" lon="6.34738">
        <ele>1750.5999755859</ele>
        <time>2014-01-11T12:59:53.000Z</time>
      </trkpt>
      <trkpt lat="45.19127" lon="6.34737">
        <ele>1750.5999755859</ele>
        <time>2014-01-11T12:59:54.000Z</time>
      </trkpt>
      <trkpt lat="45.19127" lon="6.34736">
        <ele>1750.5999755859</ele>
        <time>2014-01-11T12:59:55.000Z</time>
      </trkpt>
      <trkpt lat="45.19127" lon="6.34733">
        <ele>1750.5999755859</ele>
        <time>2014-01-11T12:59:57.000Z</time>
      </trkpt>
      <trkpt lat="45.19127" lon="6.34733">
        <ele>1750.5999755859</ele>
        <time>2014-01-11T12:59:58.000Z</time>
      </trkpt>
      <trkpt lat="45.19127" lon="6.34731">
        <ele>1750.4000244141</ele>
        <time>2014-01-11T12:59:59.000Z</time>
      </trkpt>
      <trkpt lat="45.19127" lon="6.34729">
        <ele>1750.4000244141</ele>
        <time>2014-01-11T13:00:00.000Z</time>
      </trkpt>
      <trkpt lat="45.19127" lon="6.34727">
        <ele>1750.4000244141</ele>
        <time>2014-01-11T13:00:01.000Z</time>
      </trkpt>
      <trkpt lat="45.19128" lon="6.34725">
        <ele>1750.4000244141</ele>
        <time>2014-01-11T13:00:02.000Z</time>
      </trkpt>
      <trkpt lat="45.19128" lon="6.34724">
        <ele>1750.4000244141</ele>
        <time>2014-01-11T13:00:03.000Z</time>
      </trkpt>
      <trkpt lat="45.19128" lon="6.34723">
        <ele>1750.1999511719</ele>
        <time>2014-01-11T13:00:04.000Z</time>
      </trkpt>
      <trkpt lat="45.19129" lon="6.34722">
        <ele>1750.1999511719</ele>
        <time>2014-01-11T13:00:05.000Z</time>
      </trkpt>
      <trkpt lat="45.19129" lon="6.34721">
        <ele>1750</ele>
        <time>2014-01-11T13:00:06.000Z</time>
      </trkpt>
      <trkpt lat="45.19129" lon="6.34719">
        <ele>1750</ele>
        <time>2014-01-11T13:00:07.000Z</time>
      </trkpt>
      <trkpt lat="45.1913" lon="6.34718">
        <ele>1749.8000488281</ele>
        <time>2014-01-11T13:00:08.000Z</time>
      </trkpt>
      <trkpt lat="45.1913" lon="6.34716">
        <ele>1749.8000488281</ele>
        <time>2014-01-11T13:00:09.000Z</time>
      </trkpt>
      <trkpt lat="45.1913" lon="6.34715">
        <ele>1749.8000488281</ele>
        <time>2014-01-11T13:00:10.000Z</time>
      </trkpt>
      <trkpt lat="45.19131" lon="6.34714">
        <ele>1749.8000488281</ele>
        <time>2014-01-11T13:00:11.000Z</time>
      </trkpt>
      <trkpt lat="45.19131" lon="6.34712">
        <ele>1749.5999755859</ele>
        <time>2014-01-11T13:00:12.000Z</time>
      </trkpt>
      <trkpt lat="45.19132" lon="6.34711">
        <ele>1749.5999755859</ele>
        <time>2014-01-11T13:00:13.000Z</time>
      </trkpt>
      <trkpt lat="45.19133" lon="6.3471">
        <ele>1749.5999755859</ele>
        <time>2014-01-11T13:00:14.000Z</time>
      </trkpt>
      <trkpt lat="45.19133" lon="6.34709">
        <ele>1749.4000244141</ele>
        <time>2014-01-11T13:00:15.000Z</time>
      </trkpt>
      <trkpt lat="45.19134" lon="6.34708">
        <ele>1749.4000244141</ele>
        <time>2014-01-11T13:00:16.000Z</time>
      </trkpt>
      <trkpt lat="45.19134" lon="6.34707">
        <ele>1749.4000244141</ele>
        <time>2014-01-11T13:00:17.000Z</time>
      </trkpt>
      <trkpt lat="45.19134" lon="6.34706">
        <ele>1749.4000244141</ele>
        <time>2014-01-11T13:00:18.000Z</time>
      </trkpt>
      <trkpt lat="45.19134" lon="6.34704">
        <ele>1749.1999511719</ele>
        <time>2014-01-11T13:00:19.000Z</time>
      </trkpt>
      <trkpt lat="45.19134" lon="6.34703">
        <ele>1749.1999511719</ele>
        <time>2014-01-11T13:00:20.000Z</time>
      </trkpt>
      <trkpt lat="45.19135" lon="6.34701">
        <ele>1749.1999511719</ele>
        <time>2014-01-11T13:00:21.000Z</time>
      </trkpt>
      <trkpt lat="45.19135" lon="6.347">
        <ele>1749</ele>
        <time>2014-01-11T13:00:22.000Z</time>
      </trkpt>
      <trkpt lat="45.19135" lon="6.34697">
        <ele>1748.8000488281</ele>
        <time>2014-01-11T13:00:23.000Z</time>
      </trkpt>
      <trkpt lat="45.19135" lon="6.34694">
        <ele>1748.5999755859</ele>
        <time>2014-01-11T13:00:24.000Z</time>
      </trkpt>
      <trkpt lat="45.19135" lon="6.34691">
        <ele>1748.5999755859</ele>
        <time>2014-01-11T13:00:25.000Z</time>
      </trkpt>
      <trkpt lat="45.19136" lon="6.34688">
        <ele>1748.5999755859</ele>
        <time>2014-01-11T13:00:26.000Z</time>
      </trkpt>
      <trkpt lat="45.19136" lon="6.34686">
        <ele>1748.4000244141</ele>
        <time>2014-01-11T13:00:27.000Z</time>
      </trkpt>
      <trkpt lat="45.19136" lon="6.34685">
        <ele>1748.4000244141</ele>
        <time>2014-01-11T13:00:28.000Z</time>
      </trkpt>
      <trkpt lat="45.19136" lon="6.34684">
        <ele>1748</ele>
        <time>2014-01-11T13:00:29.000Z</time>
      </trkpt>
      <trkpt lat="45.19137" lon="6.34682">
        <ele>1748</ele>
        <time>2014-01-11T13:00:30.000Z</time>
      </trkpt>
      <trkpt lat="45.19137" lon="6.34679">
        <ele>1748</ele>
        <time>2014-01-11T13:00:31.000Z</time>
      </trkpt>
      <trkpt lat="45.19137" lon="6.34677">
        <ele>1748</ele>
        <time>2014-01-11T13:00:32.000Z</time>
      </trkpt>
      <trkpt lat="45.19138" lon="6.34674">
        <ele>1748</ele>
        <time>2014-01-11T13:00:33.000Z</time>
      </trkpt>
      <trkpt lat="45.19138" lon="6.3467">
        <ele>1748</ele>
        <time>2014-01-11T13:00:34.000Z</time>
      </trkpt>
      <trkpt lat="45.19138" lon="6.34666">
        <ele>1748</ele>
        <time>2014-01-11T13:00:35.000Z</time>
      </trkpt>
      <trkpt lat="45.19139" lon="6.34658">
        <ele>1748</ele>
        <time>2014-01-11T13:00:37.000Z</time>
      </trkpt>
      <trkpt lat="45.1914" lon="6.34653">
        <ele>1747.8000488281</ele>
        <time>2014-01-11T13:00:38.000Z</time>
      </trkpt>
      <trkpt lat="45.19141" lon="6.34649">
        <ele>1747.5999755859</ele>
        <time>2014-01-11T13:00:39.000Z</time>
      </trkpt>
      <trkpt lat="45.19141" lon="6.34644">
        <ele>1747.5999755859</ele>
        <time>2014-01-11T13:00:40.000Z</time>
      </trkpt>
      <trkpt lat="45.1914" lon="6.34639">
        <ele>1747.4000244141</ele>
        <time>2014-01-11T13:00:41.000Z</time>
      </trkpt>
      <trkpt lat="45.19139" lon="6.34634">
        <ele>1747.1999511719</ele>
        <time>2014-01-11T13:00:42.000Z</time>
      </trkpt>
      <trkpt lat="45.19138" lon="6.34628">
        <ele>1747</ele>
        <time>2014-01-11T13:00:43.000Z</time>
      </trkpt>
      <trkpt lat="45.19138" lon="6.34621">
        <ele>1746.8000488281</ele>
        <time>2014-01-11T13:00:44.000Z</time>
      </trkpt>
      <trkpt lat="45.19138" lon="6.34615">
        <ele>1746.5999755859</ele>
        <time>2014-01-11T13:00:45.000Z</time>
      </trkpt>
      <trkpt lat="45.1914" lon="6.3461">
        <ele>1746.1999511719</ele>
        <time>2014-01-11T13:00:46.000Z</time>
      </trkpt>
      <trkpt lat="45.19144" lon="6.34608">
        <ele>1745.8000488281</ele>
        <time>2014-01-11T13:00:47.000Z</time>
      </trkpt>
      <trkpt lat="45.19147" lon="6.34607">
        <ele>1745.4000244141</ele>
        <time>2014-01-11T13:00:48.000Z</time>
      </trkpt>
      <trkpt lat="45.1915" lon="6.34608">
        <ele>1745</ele>
        <time>2014-01-11T13:00:49.000Z</time>
      </trkpt>
      <trkpt lat="45.19152" lon="6.34608">
        <ele>1744.5999755859</ele>
        <time>2014-01-11T13:00:50.000Z</time>
      </trkpt>
      <trkpt lat="45.19154" lon="6.34609">
        <ele>1744.1999511719</ele>
        <time>2014-01-11T13:00:51.000Z</time>
      </trkpt>
      <trkpt lat="45.19156" lon="6.34609">
        <ele>1744</ele>
        <time>2014-01-11T13:00:52.000Z</time>
      </trkpt>
      <trkpt lat="45.19158" lon="6.34607">
        <ele>1743.5999755859</ele>
        <time>2014-01-11T13:00:53.000Z</time>
      </trkpt>
      <trkpt lat="45.1916" lon="6.34605">
        <ele>1743.4000244141</ele>
        <time>2014-01-11T13:00:54.000Z</time>
      </trkpt>
      <trkpt lat="45.19164" lon="6.34603">
        <ele>1743.1999511719</ele>
        <time>2014-01-11T13:00:55.000Z</time>
      </trkpt>
      <trkpt lat="45.19168" lon="6.346">
        <ele>1743</ele>
        <time>2014-01-11T13:00:56.000Z</time>
      </trkpt>
      <trkpt lat="45.19174" lon="6.34597">
        <ele>1742.5999755859</ele>
        <time>2014-01-11T13:00:57.000Z</time>
      </trkpt>
      <trkpt lat="45.19179" lon="6.34594">
        <ele>1742.1999511719</ele>
        <time>2014-01-11T13:00:58.000Z</time>
      </trkpt>
      <trkpt lat="45.19182" lon="6.34592">
        <ele>1741.5999755859</ele>
        <time>2014-01-11T13:00:59.000Z</time>
      </trkpt>
      <trkpt lat="45.19185" lon="6.3459">
        <ele>1741</ele>
        <time>2014-01-11T13:01:00.000Z</time>
      </trkpt>
      <trkpt lat="45.19187" lon="6.34588">
        <ele>1740.5999755859</ele>
        <time>2014-01-11T13:01:01.000Z</time>
      </trkpt>
      <trkpt lat="45.19189" lon="6.34586">
        <ele>1740</ele>
        <time>2014-01-11T13:01:02.000Z</time>
      </trkpt>
      <trkpt lat="45.19192" lon="6.34584">
        <ele>1739.8000488281</ele>
        <time>2014-01-11T13:01:03.000Z</time>
      </trkpt>
      <trkpt lat="45.19194" lon="6.34582">
        <ele>1739.5999755859</ele>
        <time>2014-01-11T13:01:04.000Z</time>
      </trkpt>
      <trkpt lat="45.19197" lon="6.34581">
        <ele>1739.5999755859</ele>
        <time>2014-01-11T13:01:05.000Z</time>
      </trkpt>
      <trkpt lat="45.19201" lon="6.34579">
        <ele>1739.4000244141</ele>
        <time>2014-01-11T13:01:06.000Z</time>
      </trkpt>
      <trkpt lat="45.19205" lon="6.34578">
        <ele>1739.1999511719</ele>
        <time>2014-01-11T13:01:07.000Z</time>
      </trkpt>
      <trkpt lat="45.19211" lon="6.34577">
        <ele>1739</ele>
        <time>2014-01-11T13:01:08.000Z</time>
      </trkpt>
      <trkpt lat="45.19216" lon="6.34576">
        <ele>1738.5999755859</ele>
        <time>2014-01-11T13:01:09.000Z</time>
      </trkpt>
      <trkpt lat="45.19222" lon="6.34575">
        <ele>1738.4000244141</ele>
        <time>2014-01-11T13:01:10.000Z</time>
      </trkpt>
      <trkpt lat="45.19227" lon="6.34573">
        <ele>1738</ele>
        <time>2014-01-11T13:01:11.000Z</time>
      </trkpt>
      <trkpt lat="45.19231" lon="6.34566">
        <ele>1737.5999755859</ele>
        <time>2014-01-11T13:01:12.000Z</time>
      </trkpt>
      <trkpt lat="45.19234" lon="6.34559">
        <ele>1737</ele>
        <time>2014-01-11T13:01:13.000Z</time>
      </trkpt>
      <trkpt lat="45.19237" lon="6.34553">
        <ele>1736.4000244141</ele>
        <time>2014-01-11T13:01:14.000Z</time>
      </trkpt>
      <trkpt lat="45.1924" lon="6.34548">
        <ele>1735.8000488281</ele>
        <time>2014-01-11T13:01:15.000Z</time>
      </trkpt>
      <trkpt lat="45.19243" lon="6.34544">
        <ele>1735</ele>
        <time>2014-01-11T13:01:16.000Z</time>
      </trkpt>
      <trkpt lat="45.19247" lon="6.3454">
        <ele>1733.1999511719</ele>
        <time>2014-01-11T13:01:17.000Z</time>
      </trkpt>
      <trkpt lat="45.19251" lon="6.34534">
        <ele>1732.4000244141</ele>
        <time>2014-01-11T13:01:18.000Z</time>
      </trkpt>
      <trkpt lat="45.19257" lon="6.34528">
        <ele>1731.5999755859</ele>
        <time>2014-01-11T13:01:19.000Z</time>
      </trkpt>
      <trkpt lat="45.19262" lon="6.34523">
        <ele>1730.8000488281</ele>
        <time>2014-01-11T13:01:20.000Z</time>
      </trkpt>
      <trkpt lat="45.19267" lon="6.34519">
        <ele>1729.8000488281</ele>
        <time>2014-01-11T13:01:21.000Z</time>
      </trkpt>
      <trkpt lat="45.19273" lon="6.34513">
        <ele>1728.8000488281</ele>
        <time>2014-01-11T13:01:22.000Z</time>
      </trkpt>
      <trkpt lat="45.19279" lon="6.34507">
        <ele>1727.8000488281</ele>
        <time>2014-01-11T13:01:23.000Z</time>
      </trkpt>
      <trkpt lat="45.19285" lon="6.34503">
        <ele>1726.5999755859</ele>
        <time>2014-01-11T13:01:24.000Z</time>
      </trkpt>
      <trkpt lat="45.1929" lon="6.34499">
        <ele>1725.4000244141</ele>
        <time>2014-01-11T13:01:25.000Z</time>
      </trkpt>
      <trkpt lat="45.19296" lon="6.34499">
        <ele>1723.8000488281</ele>
        <time>2014-01-11T13:01:26.000Z</time>
      </trkpt>
      <trkpt lat="45.19301" lon="6.34497">
        <ele>1722.5999755859</ele>
        <time>2014-01-11T13:01:27.000Z</time>
      </trkpt>
      <trkpt lat="45.19306" lon="6.34493">
        <ele>1721.4000244141</ele>
        <time>2014-01-11T13:01:28.000Z</time>
      </trkpt>
      <trkpt lat="45.1931" lon="6.34488">
        <ele>1720.4000244141</ele>
        <time>2014-01-11T13:01:29.000Z</time>
      </trkpt>
      <trkpt lat="45.19314" lon="6.34481">
        <ele>1719.5999755859</ele>
        <time>2014-01-11T13:01:30.000Z</time>
      </trkpt>
      <trkpt lat="45.19319" lon="6.34475">
        <ele>1718.8000488281</ele>
        <time>2014-01-11T13:01:31.000Z</time>
      </trkpt>
      <trkpt lat="45.19323" lon="6.34469">
        <ele>1718</ele>
        <time>2014-01-11T13:01:32.000Z</time>
      </trkpt>
      <trkpt lat="45.19328" lon="6.34461">
        <ele>1717.1999511719</ele>
        <time>2014-01-11T13:01:33.000Z</time>
      </trkpt>
      <trkpt lat="45.19333" lon="6.34457">
        <ele>1716.1999511719</ele>
        <time>2014-01-11T13:01:34.000Z</time>
      </trkpt>
      <trkpt lat="45.19338" lon="6.34451">
        <ele>1715</ele>
        <time>2014-01-11T13:01:35.000Z</time>
      </trkpt>
      <trkpt lat="45.19342" lon="6.34446">
        <ele>1713.8000488281</ele>
        <time>2014-01-11T13:01:36.000Z</time>
      </trkpt>
      <trkpt lat="45.19347" lon="6.34442">
        <ele>1712.4000244141</ele>
        <time>2014-01-11T13:01:37.000Z</time>
      </trkpt>
      <trkpt lat="45.19351" lon="6.34438">
        <ele>1711</ele>
        <time>2014-01-11T13:01:38.000Z</time>
      </trkpt>
      <trkpt lat="45.19354" lon="6.34432">
        <ele>1709.4000244141</ele>
        <time>2014-01-11T13:01:39.000Z</time>
      </trkpt>
      <trkpt lat="45.19358" lon="6.34426">
        <ele>1708</ele>
        <time>2014-01-11T13:01:40.000Z</time>
      </trkpt>
      <trkpt lat="45.19363" lon="6.34421">
        <ele>1705.1999511719</ele>
        <time>2014-01-11T13:01:41.000Z</time>
      </trkpt>
      <trkpt lat="45.19368" lon="6.34416">
        <ele>1703.8000488281</ele>
        <time>2014-01-11T13:01:42.000Z</time>
      </trkpt>
      <trkpt lat="45.1937" lon="6.34407">
        <ele>1702.4000244141</ele>
        <time>2014-01-11T13:01:43.000Z</time>
      </trkpt>
      <trkpt lat="45.19373" lon="6.34398">
        <ele>1700.8000488281</ele>
        <time>2014-01-11T13:01:44.000Z</time>
      </trkpt>
      <trkpt lat="45.19375" lon="6.3439">
        <ele>1699.4000244141</ele>
        <time>2014-01-11T13:01:45.000Z</time>
      </trkpt>
      <trkpt lat="45.19379" lon="6.34379">
        <ele>1697.5999755859</ele>
        <time>2014-01-11T13:01:46.000Z</time>
      </trkpt>
      <trkpt lat="45.19383" lon="6.34366">
        <ele>1695.8000488281</ele>
        <time>2014-01-11T13:01:47.000Z</time>
      </trkpt>
      <trkpt lat="45.1939" lon="6.34354">
        <ele>1694</ele>
        <time>2014-01-11T13:01:48.000Z</time>
      </trkpt>
      <trkpt lat="45.19397" lon="6.34344">
        <ele>1692</ele>
        <time>2014-01-11T13:01:49.000Z</time>
      </trkpt>
      <trkpt lat="45.19404" lon="6.34337">
        <ele>1689.8000488281</ele>
        <time>2014-01-11T13:01:50.000Z</time>
      </trkpt>
      <trkpt lat="45.19411" lon="6.34332">
        <ele>1687.1999511719</ele>
        <time>2014-01-11T13:01:51.000Z</time>
      </trkpt>
      <trkpt lat="45.19419" lon="6.34326">
        <ele>1684.8000488281</ele>
        <time>2014-01-11T13:01:52.000Z</time>
      </trkpt>
      <trkpt lat="45.19426" lon="6.34321">
        <ele>1683</ele>
        <time>2014-01-11T13:01:53.000Z</time>
      </trkpt>
      <trkpt lat="45.19434" lon="6.34316">
        <ele>1681.5999755859</ele>
        <time>2014-01-11T13:01:54.000Z</time>
      </trkpt>
      <trkpt lat="45.19441" lon="6.34314">
        <ele>1680.4000244141</ele>
        <time>2014-01-11T13:01:55.000Z</time>
      </trkpt>
      <trkpt lat="45.19448" lon="6.34311">
        <ele>1679.5999755859</ele>
        <time>2014-01-11T13:01:56.000Z</time>
      </trkpt>
      <trkpt lat="45.19455" lon="6.3431">
        <ele>1678.8000488281</ele>
        <time>2014-01-11T13:01:57.000Z</time>
      </trkpt>
      <trkpt lat="45.19462" lon="6.34316">
        <ele>1678</ele>
        <time>2014-01-11T13:01:58.000Z</time>
      </trkpt>
      <trkpt lat="45.19469" lon="6.34322">
        <ele>1677.5999755859</ele>
        <time>2014-01-11T13:01:59.000Z</time>
      </trkpt>
      <trkpt lat="45.19476" lon="6.34329">
        <ele>1677</ele>
        <time>2014-01-11T13:02:00.000Z</time>
      </trkpt>
      <trkpt lat="45.19483" lon="6.34333">
        <ele>1676.5999755859</ele>
        <time>2014-01-11T13:02:01.000Z</time>
      </trkpt>
      <trkpt lat="45.1949" lon="6.34336">
        <ele>1676.1999511719</ele>
        <time>2014-01-11T13:02:02.000Z</time>
      </trkpt>
      <trkpt lat="45.19497" lon="6.34336">
        <ele>1675.8000488281</ele>
        <time>2014-01-11T13:02:03.000Z</time>
      </trkpt>
      <trkpt lat="45.19504" lon="6.34331">
        <ele>1675.4000244141</ele>
        <time>2014-01-11T13:02:04.000Z</time>
      </trkpt>
      <trkpt lat="45.19508" lon="6.34326">
        <ele>1674.5999755859</ele>
        <time>2014-01-11T13:02:05.000Z</time>
      </trkpt>
      <trkpt lat="45.19512" lon="6.34321">
        <ele>1674.1999511719</ele>
        <time>2014-01-11T13:02:06.000Z</time>
      </trkpt>
      <trkpt lat="45.19513" lon="6.34316">
        <ele>1673.8000488281</ele>
        <time>2014-01-11T13:02:07.000Z</time>
      </trkpt>
      <trkpt lat="45.19513" lon="6.34311">
        <ele>1673.8000488281</ele>
        <time>2014-01-11T13:02:08.000Z</time>
      </trkpt>
      <trkpt lat="45.19514" lon="6.34305">
        <ele>1673.5999755859</ele>
        <time>2014-01-11T13:02:09.000Z</time>
      </trkpt>
      <trkpt lat="45.19516" lon="6.34296">
        <ele>1673.8000488281</ele>
        <time>2014-01-11T13:02:11.000Z</time>
      </trkpt>
      <trkpt lat="45.19517" lon="6.34292">
        <ele>1673.8000488281</ele>
        <time>2014-01-11T13:02:12.000Z</time>
      </trkpt>
      <trkpt lat="45.19519" lon="6.3429">
        <ele>1673.8000488281</ele>
        <time>2014-01-11T13:02:13.000Z</time>
      </trkpt>
      <trkpt lat="45.19521" lon="6.34288">
        <ele>1674</ele>
        <time>2014-01-11T13:02:14.000Z</time>
      </trkpt>
      <trkpt lat="45.19524" lon="6.34286">
        <ele>1674</ele>
        <time>2014-01-11T13:02:15.000Z</time>
      </trkpt>
      <trkpt lat="45.19526" lon="6.34286">
        <ele>1674.1999511719</ele>
        <time>2014-01-11T13:02:16.000Z</time>
      </trkpt>
      <trkpt lat="45.19529" lon="6.34285">
        <ele>1674.5999755859</ele>
        <time>2014-01-11T13:02:17.000Z</time>
      </trkpt>
      <trkpt lat="45.19532" lon="6.34286">
        <ele>1674.5999755859</ele>
        <time>2014-01-11T13:02:18.000Z</time>
      </trkpt>
      <trkpt lat="45.19535" lon="6.34286">
        <ele>1674.8000488281</ele>
        <time>2014-01-11T13:02:19.000Z</time>
      </trkpt>
      <trkpt lat="45.19538" lon="6.34286">
        <ele>1674.8000488281</ele>
        <time>2014-01-11T13:02:20.000Z</time>
      </trkpt>
      <trkpt lat="45.19541" lon="6.34286">
        <ele>1675</ele>
        <time>2014-01-11T13:02:21.000Z</time>
      </trkpt>
      <trkpt lat="45.19544" lon="6.34286">
        <ele>1675</ele>
        <time>2014-01-11T13:02:22.000Z</time>
      </trkpt>
      <trkpt lat="45.19548" lon="6.34286">
        <ele>1675</ele>
        <time>2014-01-11T13:02:23.000Z</time>
      </trkpt>
      <trkpt lat="45.19551" lon="6.34287">
        <ele>1675.1999511719</ele>
        <time>2014-01-11T13:02:24.000Z</time>
      </trkpt>
      <trkpt lat="45.19555" lon="6.34287">
        <ele>1675.1999511719</ele>
        <time>2014-01-11T13:02:25.000Z</time>
      </trkpt>
      <trkpt lat="45.19558" lon="6.34287">
        <ele>1675.4000244141</ele>
        <time>2014-01-11T13:02:26.000Z</time>
      </trkpt>
      <trkpt lat="45.19561" lon="6.34288">
        <ele>1675.4000244141</ele>
        <time>2014-01-11T13:02:27.000Z</time>
      </trkpt>
      <trkpt lat="45.19564" lon="6.34288">
        <ele>1675.5999755859</ele>
        <time>2014-01-11T13:02:28.000Z</time>
      </trkpt>
      <trkpt lat="45.19567" lon="6.34289">
        <ele>1675.8000488281</ele>
        <time>2014-01-11T13:02:29.000Z</time>
      </trkpt>
      <trkpt lat="45.19571" lon="6.3429">
        <ele>1676</ele>
        <time>2014-01-11T13:02:30.000Z</time>
      </trkpt>
      <trkpt lat="45.19574" lon="6.34291">
        <ele>1676</ele>
        <time>2014-01-11T13:02:31.000Z</time>
      </trkpt>
      <trkpt lat="45.19577" lon="6.34291">
        <ele>1676.1999511719</ele>
        <time>2014-01-11T13:02:32.000Z</time>
      </trkpt>
      <trkpt lat="45.1958" lon="6.34292">
        <ele>1676.1999511719</ele>
        <time>2014-01-11T13:02:33.000Z</time>
      </trkpt>
      <trkpt lat="45.19584" lon="6.34293">
        <ele>1676.4000244141</ele>
        <time>2014-01-11T13:02:34.000Z</time>
      </trkpt>
      <trkpt lat="45.19587" lon="6.34293">
        <ele>1676.5999755859</ele>
        <time>2014-01-11T13:02:35.000Z</time>
      </trkpt>
      <trkpt lat="45.1959" lon="6.34293">
        <ele>1676.5999755859</ele>
        <time>2014-01-11T13:02:36.000Z</time>
      </trkpt>
      <trkpt lat="45.19593" lon="6.34294">
        <ele>1676.8000488281</ele>
        <time>2014-01-11T13:02:37.000Z</time>
      </trkpt>
      <trkpt lat="45.19596" lon="6.34294">
        <ele>1676.8000488281</ele>
        <time>2014-01-11T13:02:38.000Z</time>
      </trkpt>
      <trkpt lat="45.19599" lon="6.34294">
        <ele>1677</ele>
        <time>2014-01-11T13:02:39.000Z</time>
      </trkpt>
      <trkpt lat="45.19602" lon="6.34295">
        <ele>1677.1999511719</ele>
        <time>2014-01-11T13:02:40.000Z</time>
      </trkpt>
      <trkpt lat="45.19605" lon="6.34296">
        <ele>1677.4000244141</ele>
        <time>2014-01-11T13:02:41.000Z</time>
      </trkpt>
      <trkpt lat="45.19608" lon="6.34297">
        <ele>1677.4000244141</ele>
        <time>2014-01-11T13:02:42.000Z</time>
      </trkpt>
      <trkpt lat="45.19611" lon="6.34297">
        <ele>1677.5999755859</ele>
        <time>2014-01-11T13:02:43.000Z</time>
      </trkpt>
      <trkpt lat="45.19614" lon="6.34297">
        <ele>1677.5999755859</ele>
        <time>2014-01-11T13:02:44.000Z</time>
      </trkpt>
      <trkpt lat="45.19617" lon="6.34297">
        <ele>1677.8000488281</ele>
        <time>2014-01-11T13:02:45.000Z</time>
      </trkpt>
      <trkpt lat="45.19619" lon="6.34298">
        <ele>1677.8000488281</ele>
        <time>2014-01-11T13:02:46.000Z</time>
      </trkpt>
      <trkpt lat="45.19622" lon="6.34299">
        <ele>1677.8000488281</ele>
        <time>2014-01-11T13:02:47.000Z</time>
      </trkpt>
      <trkpt lat="45.19626" lon="6.34299">
        <ele>1678</ele>
        <time>2014-01-11T13:02:48.000Z</time>
      </trkpt>
      <trkpt lat="45.19629" lon="6.343">
        <ele>1678</ele>
        <time>2014-01-11T13:02:49.000Z</time>
      </trkpt>
      <trkpt lat="45.19632" lon="6.34301">
        <ele>1678.1999511719</ele>
        <time>2014-01-11T13:02:50.000Z</time>
      </trkpt>
      <trkpt lat="45.19635" lon="6.34301">
        <ele>1678.4000244141</ele>
        <time>2014-01-11T13:02:51.000Z</time>
      </trkpt>
      <trkpt lat="45.19637" lon="6.34301">
        <ele>1678.4000244141</ele>
        <time>2014-01-11T13:02:52.000Z</time>
      </trkpt>
      <trkpt lat="45.19639" lon="6.34302">
        <ele>1678.5999755859</ele>
        <time>2014-01-11T13:02:53.000Z</time>
      </trkpt>
      <trkpt lat="45.19641" lon="6.34302">
        <ele>1678.8000488281</ele>
        <time>2014-01-11T13:02:54.000Z</time>
      </trkpt>
      <trkpt lat="45.19643" lon="6.34301">
        <ele>1678.8000488281</ele>
        <time>2014-01-11T13:02:55.000Z</time>
      </trkpt>
      <trkpt lat="45.19644" lon="6.34302">
        <ele>1679</ele>
        <time>2014-01-11T13:02:56.000Z</time>
      </trkpt>
      <trkpt lat="45.19645" lon="6.34302">
        <ele>1679</ele>
        <time>2014-01-11T13:02:57.000Z</time>
      </trkpt>
      <trkpt lat="45.19645" lon="6.34302">
        <ele>1679</ele>
        <time>2014-01-11T13:02:58.000Z</time>
      </trkpt>
      <trkpt lat="45.19645" lon="6.34302">
        <ele>1679</ele>
        <time>2014-01-11T13:03:00.000Z</time>
      </trkpt>
      <trkpt lat="45.19645" lon="6.34302">
        <ele>1679</ele>
        <time>2014-01-11T13:03:01.000Z</time>
      </trkpt>
      <trkpt lat="45.19645" lon="6.34302">
        <ele>1679</ele>
        <time>2014-01-11T13:03:02.000Z</time>
      </trkpt>
      <trkpt lat="45.19645" lon="6.34302">
        <ele>1679.1999511719</ele>
        <time>2014-01-11T13:03:03.000Z</time>
      </trkpt>
      <trkpt lat="45.19645" lon="6.34302">
        <ele>1679.1999511719</ele>
        <time>2014-01-11T13:03:04.000Z</time>
      </trkpt>
      <trkpt lat="45.19645" lon="6.34302">
        <ele>1679.1999511719</ele>
        <time>2014-01-11T13:03:07.000Z</time>
      </trkpt>
      <trkpt lat="45.19645" lon="6.34302">
        <ele>1679.1999511719</ele>
        <time>2014-01-11T13:03:10.000Z</time>
      </trkpt>
      <trkpt lat="45.19645" lon="6.34302">
        <ele>1679.1999511719</ele>
        <time>2014-01-11T13:03:11.000Z</time>
      </trkpt>
      <trkpt lat="45.19645" lon="6.34302">
        <ele>1679.1999511719</ele>
        <time>2014-01-11T13:03:12.000Z</time>
      </trkpt>
      <trkpt lat="45.19645" lon="6.34302">
        <ele>1679.1999511719</ele>
        <time>2014-01-11T13:03:13.000Z</time>
      </trkpt>
      <trkpt lat="45.19646" lon="6.34302">
        <ele>1679.1999511719</ele>
        <time>2014-01-11T13:03:15.000Z</time>
      </trkpt>
      <trkpt lat="45.19648" lon="6.34304">
        <ele>1679.1999511719</ele>
        <time>2014-01-11T13:03:16.000Z</time>
      </trkpt>
      <trkpt lat="45.19649" lon="6.34305">
        <ele>1679.1999511719</ele>
        <time>2014-01-11T13:03:17.000Z</time>
      </trkpt>
      <trkpt lat="45.19652" lon="6.34306">
        <ele>1679.1999511719</ele>
        <time>2014-01-11T13:03:18.000Z</time>
      </trkpt>
      <trkpt lat="45.19653" lon="6.34307">
        <ele>1679.1999511719</ele>
        <time>2014-01-11T13:03:19.000Z</time>
      </trkpt>
      <trkpt lat="45.19656" lon="6.34309">
        <ele>1679.4000244141</ele>
        <time>2014-01-11T13:03:20.000Z</time>
      </trkpt>
      <trkpt lat="45.19658" lon="6.3431">
        <ele>1679.4000244141</ele>
        <time>2014-01-11T13:03:21.000Z</time>
      </trkpt>
      <trkpt lat="45.19659" lon="6.34312">
        <ele>1679.5999755859</ele>
        <time>2014-01-11T13:03:22.000Z</time>
      </trkpt>
      <trkpt lat="45.19661" lon="6.34313">
        <ele>1679.5999755859</ele>
        <time>2014-01-11T13:03:23.000Z</time>
      </trkpt>
      <trkpt lat="45.19662" lon="6.34314">
        <ele>1679.5999755859</ele>
        <time>2014-01-11T13:03:24.000Z</time>
      </trkpt>
      <trkpt lat="45.19664" lon="6.34316">
        <ele>1679.5999755859</ele>
        <time>2014-01-11T13:03:25.000Z</time>
      </trkpt>
      <trkpt lat="45.19666" lon="6.34317">
        <ele>1679.8000488281</ele>
        <time>2014-01-11T13:03:26.000Z</time>
      </trkpt>
      <trkpt lat="45.19668" lon="6.34318">
        <ele>1679.8000488281</ele>
        <time>2014-01-11T13:03:27.000Z</time>
      </trkpt>
      <trkpt lat="45.19669" lon="6.34318">
        <ele>1679.8000488281</ele>
        <time>2014-01-11T13:03:28.000Z</time>
      </trkpt>
      <trkpt lat="45.19671" lon="6.34318">
        <ele>1680</ele>
        <time>2014-01-11T13:03:29.000Z</time>
      </trkpt>
      <trkpt lat="45.19673" lon="6.34319">
        <ele>1680</ele>
        <time>2014-01-11T13:03:30.000Z</time>
      </trkpt>
      <trkpt lat="45.19675" lon="6.3432">
        <ele>1680.1999511719</ele>
        <time>2014-01-11T13:03:31.000Z</time>
      </trkpt>
      <trkpt lat="45.19677" lon="6.3432">
        <ele>1680.1999511719</ele>
        <time>2014-01-11T13:03:32.000Z</time>
      </trkpt>
      <trkpt lat="45.19678" lon="6.34321">
        <ele>1680.4000244141</ele>
        <time>2014-01-11T13:03:33.000Z</time>
      </trkpt>
      <trkpt lat="45.1968" lon="6.34322">
        <ele>1680.4000244141</ele>
        <time>2014-01-11T13:03:34.000Z</time>
      </trkpt>
      <trkpt lat="45.19681" lon="6.34322">
        <ele>1680.4000244141</ele>
        <time>2014-01-11T13:03:35.000Z</time>
      </trkpt>
      <trkpt lat="45.19682" lon="6.34323">
        <ele>1680.4000244141</ele>
        <time>2014-01-11T13:03:36.000Z</time>
      </trkpt>
      <trkpt lat="45.19683" lon="6.34323">
        <ele>1680.5999755859</ele>
        <time>2014-01-11T13:03:37.000Z</time>
      </trkpt>
      <trkpt lat="45.19683" lon="6.34323">
        <ele>1680.5999755859</ele>
        <time>2014-01-11T13:03:38.000Z</time>
      </trkpt>
      <trkpt lat="45.19683" lon="6.34323">
        <ele>1680.5999755859</ele>
        <time>2014-01-11T13:03:39.000Z</time>
      </trkpt>
      <trkpt lat="45.19683" lon="6.34324">
        <ele>1680.5999755859</ele>
        <time>2014-01-11T13:03:40.000Z</time>
      </trkpt>
      <trkpt lat="45.19683" lon="6.34324">
        <ele>1680.5999755859</ele>
        <time>2014-01-11T13:03:41.000Z</time>
      </trkpt>
      <trkpt lat="45.19683" lon="6.34324">
        <ele>1680.5999755859</ele>
        <time>2014-01-11T13:03:42.000Z</time>
      </trkpt>
      <trkpt lat="45.19683" lon="6.34324">
        <ele>1680.8000488281</ele>
        <time>2014-01-11T13:03:43.000Z</time>
      </trkpt>
      <trkpt lat="45.19683" lon="6.34324">
        <ele>1680.8000488281</ele>
        <time>2014-01-11T13:03:44.000Z</time>
      </trkpt>
      <trkpt lat="45.19683" lon="6.34324">
        <ele>1680.8000488281</ele>
        <time>2014-01-11T13:03:45.000Z</time>
      </trkpt>
      <trkpt lat="45.19683" lon="6.34324">
        <ele>1681</ele>
        <time>2014-01-11T13:03:46.000Z</time>
      </trkpt>
      <trkpt lat="45.19686" lon="6.34324">
        <ele>1681</ele>
        <time>2014-01-11T13:03:48.000Z</time>
      </trkpt>
      <trkpt lat="45.19687" lon="6.34325">
        <ele>1681</ele>
        <time>2014-01-11T13:03:49.000Z</time>
      </trkpt>
      <trkpt lat="45.19689" lon="6.34326">
        <ele>1681</ele>
        <time>2014-01-11T13:03:50.000Z</time>
      </trkpt>
      <trkpt lat="45.19692" lon="6.34326">
        <ele>1681</ele>
        <time>2014-01-11T13:03:51.000Z</time>
      </trkpt>
      <trkpt lat="45.19694" lon="6.34327">
        <ele>1681.1999511719</ele>
        <time>2014-01-11T13:03:53.000Z</time>
      </trkpt>
      <trkpt lat="45.19695" lon="6.34329">
        <ele>1681.1999511719</ele>
        <time>2014-01-11T13:03:54.000Z</time>
      </trkpt>
      <trkpt lat="45.19697" lon="6.3433">
        <ele>1681.1999511719</ele>
        <time>2014-01-11T13:03:55.000Z</time>
      </trkpt>
      <trkpt lat="45.19699" lon="6.34331">
        <ele>1681.1999511719</ele>
        <time>2014-01-11T13:03:56.000Z</time>
      </trkpt>
      <trkpt lat="45.19701" lon="6.34332">
        <ele>1681.4000244141</ele>
        <time>2014-01-11T13:03:57.000Z</time>
      </trkpt>
      <trkpt lat="45.19703" lon="6.34333">
        <ele>1681.4000244141</ele>
        <time>2014-01-11T13:03:58.000Z</time>
      </trkpt>
      <trkpt lat="45.19705" lon="6.34333">
        <ele>1681.5999755859</ele>
        <time>2014-01-11T13:03:59.000Z</time>
      </trkpt>
      <trkpt lat="45.19708" lon="6.34334">
        <ele>1681.8000488281</ele>
        <time>2014-01-11T13:04:00.000Z</time>
      </trkpt>
      <trkpt lat="45.19711" lon="6.34334">
        <ele>1681.8000488281</ele>
        <time>2014-01-11T13:04:01.000Z</time>
      </trkpt>
      <trkpt lat="45.19713" lon="6.34334">
        <ele>1681.8000488281</ele>
        <time>2014-01-11T13:04:02.000Z</time>
      </trkpt>
      <trkpt lat="45.19715" lon="6.34335">
        <ele>1682</ele>
        <time>2014-01-11T13:04:03.000Z</time>
      </trkpt>
      <trkpt lat="45.19717" lon="6.34336">
        <ele>1682.1999511719</ele>
        <time>2014-01-11T13:04:04.000Z</time>
      </trkpt>
      <trkpt lat="45.19718" lon="6.34337">
        <ele>1682.5999755859</ele>
        <time>2014-01-11T13:04:05.000Z</time>
      </trkpt>
      <trkpt lat="45.1972" lon="6.34338">
        <ele>1682.5999755859</ele>
        <time>2014-01-11T13:04:06.000Z</time>
      </trkpt>
      <trkpt lat="45.19722" lon="6.34339">
        <ele>1682.8000488281</ele>
        <time>2014-01-11T13:04:07.000Z</time>
      </trkpt>
      <trkpt lat="45.19724" lon="6.3434">
        <ele>1682.8000488281</ele>
        <time>2014-01-11T13:04:08.000Z</time>
      </trkpt>
      <trkpt lat="45.19725" lon="6.3434">
        <ele>1683</ele>
        <time>2014-01-11T13:04:09.000Z</time>
      </trkpt>
      <trkpt lat="45.19727" lon="6.34341">
        <ele>1683</ele>
        <time>2014-01-11T13:04:10.000Z</time>
      </trkpt>
      <trkpt lat="45.19729" lon="6.34342">
        <ele>1683</ele>
        <time>2014-01-11T13:04:11.000Z</time>
      </trkpt>
      <trkpt lat="45.19731" lon="6.34343">
        <ele>1683</ele>
        <time>2014-01-11T13:04:12.000Z</time>
      </trkpt>
      <trkpt lat="45.19732" lon="6.34344">
        <ele>1683.1999511719</ele>
        <time>2014-01-11T13:04:13.000Z</time>
      </trkpt>
      <trkpt lat="45.19734" lon="6.34345">
        <ele>1683.1999511719</ele>
        <time>2014-01-11T13:04:14.000Z</time>
      </trkpt>
      <trkpt lat="45.19736" lon="6.34346">
        <ele>1683.4000244141</ele>
        <time>2014-01-11T13:04:15.000Z</time>
      </trkpt>
      <trkpt lat="45.19737" lon="6.34347">
        <ele>1683.4000244141</ele>
        <time>2014-01-11T13:04:16.000Z</time>
      </trkpt>
      <trkpt lat="45.19739" lon="6.34349">
        <ele>1683.5999755859</ele>
        <time>2014-01-11T13:04:17.000Z</time>
      </trkpt>
      <trkpt lat="45.19741" lon="6.3435">
        <ele>1683.5999755859</ele>
        <time>2014-01-11T13:04:18.000Z</time>
      </trkpt>
      <trkpt lat="45.19743" lon="6.34352">
        <ele>1683.8000488281</ele>
        <time>2014-01-11T13:04:19.000Z</time>
      </trkpt>
      <trkpt lat="45.19745" lon="6.34352">
        <ele>1683.8000488281</ele>
        <time>2014-01-11T13:04:20.000Z</time>
      </trkpt>
      <trkpt lat="45.19747" lon="6.34354">
        <ele>1683.8000488281</ele>
        <time>2014-01-11T13:04:21.000Z</time>
      </trkpt>
      <trkpt lat="45.1975" lon="6.34355">
        <ele>1684</ele>
        <time>2014-01-11T13:04:22.000Z</time>
      </trkpt>
      <trkpt lat="45.19751" lon="6.34356">
        <ele>1684.1999511719</ele>
        <time>2014-01-11T13:04:23.000Z</time>
      </trkpt>
      <trkpt lat="45.19753" lon="6.34357">
        <ele>1684.1999511719</ele>
        <time>2014-01-11T13:04:24.000Z</time>
      </trkpt>
      <trkpt lat="45.19754" lon="6.34358">
        <ele>1684.4000244141</ele>
        <time>2014-01-11T13:04:25.000Z</time>
      </trkpt>
      <trkpt lat="45.19756" lon="6.34358">
        <ele>1684.4000244141</ele>
        <time>2014-01-11T13:04:26.000Z</time>
      </trkpt>
      <trkpt lat="45.19758" lon="6.34359">
        <ele>1684.5999755859</ele>
        <time>2014-01-11T13:04:27.000Z</time>
      </trkpt>
      <trkpt lat="45.1976" lon="6.3436">
        <ele>1684.5999755859</ele>
        <time>2014-01-11T13:04:28.000Z</time>
      </trkpt>
      <trkpt lat="45.19762" lon="6.34361">
        <ele>1684.8000488281</ele>
        <time>2014-01-11T13:04:29.000Z</time>
      </trkpt>
      <trkpt lat="45.19764" lon="6.34363">
        <ele>1684.8000488281</ele>
        <time>2014-01-11T13:04:30.000Z</time>
      </trkpt>
      <trkpt lat="45.19766" lon="6.34364">
        <ele>1685</ele>
        <time>2014-01-11T13:04:31.000Z</time>
      </trkpt>
      <trkpt lat="45.19768" lon="6.34365">
        <ele>1685</ele>
        <time>2014-01-11T13:04:32.000Z</time>
      </trkpt>
      <trkpt lat="45.1977" lon="6.34367">
        <ele>1685.1999511719</ele>
        <time>2014-01-11T13:04:33.000Z</time>
      </trkpt>
      <trkpt lat="45.19771" lon="6.34369">
        <ele>1685.1999511719</ele>
        <time>2014-01-11T13:04:34.000Z</time>
      </trkpt>
      <trkpt lat="45.19772" lon="6.3437">
        <ele>1685.1999511719</ele>
        <time>2014-01-11T13:04:35.000Z</time>
      </trkpt>
      <trkpt lat="45.19774" lon="6.34372">
        <ele>1685.1999511719</ele>
        <time>2014-01-11T13:04:36.000Z</time>
      </trkpt>
      <trkpt lat="45.19775" lon="6.34373">
        <ele>1685.4000244141</ele>
        <time>2014-01-11T13:04:37.000Z</time>
      </trkpt>
      <trkpt lat="45.19777" lon="6.34374">
        <ele>1685.4000244141</ele>
        <time>2014-01-11T13:04:38.000Z</time>
      </trkpt>
      <trkpt lat="45.19778" lon="6.34376">
        <ele>1685.4000244141</ele>
        <time>2014-01-11T13:04:39.000Z</time>
      </trkpt>
      <trkpt lat="45.1978" lon="6.34376">
        <ele>1685.5999755859</ele>
        <time>2014-01-11T13:04:40.000Z</time>
      </trkpt>
      <trkpt lat="45.19782" lon="6.34377">
        <ele>1685.5999755859</ele>
        <time>2014-01-11T13:04:41.000Z</time>
      </trkpt>
      <trkpt lat="45.19783" lon="6.34378">
        <ele>1685.8000488281</ele>
        <time>2014-01-11T13:04:42.000Z</time>
      </trkpt>
      <trkpt lat="45.19785" lon="6.34379">
        <ele>1685.8000488281</ele>
        <time>2014-01-11T13:04:43.000Z</time>
      </trkpt>
      <trkpt lat="45.19786" lon="6.3438">
        <ele>1686</ele>
        <time>2014-01-11T13:04:44.000Z</time>
      </trkpt>
      <trkpt lat="45.19786" lon="6.34381">
        <ele>1686</ele>
        <time>2014-01-11T13:04:45.000Z</time>
      </trkpt>
      <trkpt lat="45.19787" lon="6.34381">
        <ele>1686.1999511719</ele>
        <time>2014-01-11T13:04:46.000Z</time>
      </trkpt>
      <trkpt lat="45.19787" lon="6.34381">
        <ele>1686.1999511719</ele>
        <time>2014-01-11T13:04:47.000Z</time>
      </trkpt>
      <trkpt lat="45.19787" lon="6.34381">
        <ele>1686.1999511719</ele>
        <time>2014-01-11T13:04:48.000Z</time>
      </trkpt>
      <trkpt lat="45.19787" lon="6.34381">
        <ele>1686.4000244141</ele>
        <time>2014-01-11T13:04:49.000Z</time>
      </trkpt>
      <trkpt lat="45.19787" lon="6.34381">
        <ele>1686.4000244141</ele>
        <time>2014-01-11T13:04:50.000Z</time>
      </trkpt>
      <trkpt lat="45.19787" lon="6.34381">
        <ele>1686.4000244141</ele>
        <time>2014-01-11T13:04:51.000Z</time>
      </trkpt>
      <trkpt lat="45.19787" lon="6.34381">
        <ele>1686.4000244141</ele>
        <time>2014-01-11T13:04:52.000Z</time>
      </trkpt>
      <trkpt lat="45.19787" lon="6.34381">
        <ele>1686.4000244141</ele>
        <time>2014-01-11T13:04:53.000Z</time>
      </trkpt>
      <trkpt lat="45.19787" lon="6.34381">
        <ele>1686.4000244141</ele>
        <time>2014-01-11T13:04:55.000Z</time>
      </trkpt>
      <trkpt lat="45.19787" lon="6.34381">
        <ele>1686.4000244141</ele>
        <time>2014-01-11T13:04:56.000Z</time>
      </trkpt>
      <trkpt lat="45.19788" lon="6.34381">
        <ele>1686.4000244141</ele>
        <time>2014-01-11T13:04:57.000Z</time>
      </trkpt>
      <trkpt lat="45.19788" lon="6.34381">
        <ele>1686.4000244141</ele>
        <time>2014-01-11T13:04:58.000Z</time>
      </trkpt>
      <trkpt lat="45.19788" lon="6.34381">
        <ele>1686.4000244141</ele>
        <time>2014-01-11T13:04:59.000Z</time>
      </trkpt>
      <trkpt lat="45.19789" lon="6.34382">
        <ele>1686.4000244141</ele>
        <time>2014-01-11T13:05:00.000Z</time>
      </trkpt>
      <trkpt lat="45.19789" lon="6.34382">
        <ele>1686.4000244141</ele>
        <time>2014-01-11T13:05:01.000Z</time>
      </trkpt>
      <trkpt lat="45.19789" lon="6.34381">
        <ele>1686.5999755859</ele>
        <time>2014-01-11T13:05:02.000Z</time>
      </trkpt>
      <trkpt lat="45.19789" lon="6.34381">
        <ele>1686.5999755859</ele>
        <time>2014-01-11T13:05:03.000Z</time>
      </trkpt>
      <trkpt lat="45.1979" lon="6.34382">
        <ele>1686.5999755859</ele>
        <time>2014-01-11T13:05:04.000Z</time>
      </trkpt>
      <trkpt lat="45.19791" lon="6.34383">
        <ele>1686.5999755859</ele>
        <time>2014-01-11T13:05:06.000Z</time>
      </trkpt>
      <trkpt lat="45.19791" lon="6.34384">
        <ele>1686.5999755859</ele>
        <time>2014-01-11T13:05:07.000Z</time>
      </trkpt>
      <trkpt lat="45.19792" lon="6.34383">
        <ele>1686.5999755859</ele>
        <time>2014-01-11T13:05:08.000Z</time>
      </trkpt>
      <trkpt lat="45.19792" lon="6.34383">
        <ele>1686.5999755859</ele>
        <time>2014-01-11T13:05:09.000Z</time>
      </trkpt>
      <trkpt lat="45.19792" lon="6.34383">
        <ele>1686.5999755859</ele>
        <time>2014-01-11T13:05:10.000Z</time>
      </trkpt>
      <trkpt lat="45.19792" lon="6.34382">
        <ele>1686.5999755859</ele>
        <time>2014-01-11T13:05:13.000Z</time>
      </trkpt>
      <trkpt lat="45.19792" lon="6.34382">
        <ele>1686.5999755859</ele>
        <time>2014-01-11T13:05:15.000Z</time>
      </trkpt>
      <trkpt lat="45.19792" lon="6.34382">
        <ele>1686.5999755859</ele>
        <time>2014-01-11T13:05:17.000Z</time>
      </trkpt>
      <trkpt lat="45.19792" lon="6.34382">
        <ele>1686.5999755859</ele>
        <time>2014-01-11T13:05:18.000Z</time>
      </trkpt>
      <trkpt lat="45.19792" lon="6.34382">
        <ele>1686.5999755859</ele>
        <time>2014-01-11T13:05:25.000Z</time>
      </trkpt>
      <trkpt lat="45.19792" lon="6.34382">
        <ele>1686.5999755859</ele>
        <time>2014-01-11T13:05:26.000Z</time>
      </trkpt>
      <trkpt lat="45.19792" lon="6.34382">
        <ele>1686.5999755859</ele>
        <time>2014-01-11T13:05:27.000Z</time>
      </trkpt>
      <trkpt lat="45.19792" lon="6.34382">
        <ele>1686.5999755859</ele>
        <time>2014-01-11T13:05:29.000Z</time>
      </trkpt>
      <trkpt lat="45.19792" lon="6.34382">
        <ele>1686.5999755859</ele>
        <time>2014-01-11T13:05:30.000Z</time>
      </trkpt>
      <trkpt lat="45.19792" lon="6.34382">
        <ele>1686.5999755859</ele>
        <time>2014-01-11T13:05:31.000Z</time>
      </trkpt>
      <trkpt lat="45.19792" lon="6.34382">
        <ele>1686.5999755859</ele>
        <time>2014-01-11T13:05:32.000Z</time>
      </trkpt>
      <trkpt lat="45.19792" lon="6.34382">
        <ele>1686.5999755859</ele>
        <time>2014-01-11T13:05:33.000Z</time>
      </trkpt>
      <trkpt lat="45.19792" lon="6.34382">
        <ele>1686.5999755859</ele>
        <time>2014-01-11T13:05:37.000Z</time>
      </trkpt>
      <trkpt lat="45.19792" lon="6.34382">
        <ele>1686.5999755859</ele>
        <time>2014-01-11T13:05:38.000Z</time>
      </trkpt>
      <trkpt lat="45.19792" lon="6.34382">
        <ele>1686.5999755859</ele>
        <time>2014-01-11T13:05:39.000Z</time>
      </trkpt>
      <trkpt lat="45.19792" lon="6.34382">
        <ele>1686.5999755859</ele>
        <time>2014-01-11T13:05:40.000Z</time>
      </trkpt>
      <trkpt lat="45.19792" lon="6.34382">
        <ele>1686.5999755859</ele>
        <time>2014-01-11T13:05:42.000Z</time>
      </trkpt>
      <trkpt lat="45.19792" lon="6.34382">
        <ele>1686.5999755859</ele>
        <time>2014-01-11T13:05:43.000Z</time>
      </trkpt>
      <trkpt lat="45.19792" lon="6.34382">
        <ele>1686.5999755859</ele>
        <time>2014-01-11T13:05:44.000Z</time>
      </trkpt>
      <trkpt lat="45.19792" lon="6.34382">
        <ele>1686.5999755859</ele>
        <time>2014-01-11T13:05:45.000Z</time>
      </trkpt>
      <trkpt lat="45.19792" lon="6.34382">
        <ele>1686.5999755859</ele>
        <time>2014-01-11T13:05:46.000Z</time>
      </trkpt>
      <trkpt lat="45.19792" lon="6.34382">
        <ele>1686.5999755859</ele>
        <time>2014-01-11T13:05:47.000Z</time>
      </trkpt>
      <trkpt lat="45.19792" lon="6.34382">
        <ele>1686.5999755859</ele>
        <time>2014-01-11T13:05:52.000Z</time>
      </trkpt>
      <trkpt lat="45.19793" lon="6.34382">
        <ele>1686.5999755859</ele>
        <time>2014-01-11T13:05:53.000Z</time>
      </trkpt>
      <trkpt lat="45.19793" lon="6.34382">
        <ele>1686.5999755859</ele>
        <time>2014-01-11T13:05:54.000Z</time>
      </trkpt>
      <trkpt lat="45.19793" lon="6.34382">
        <ele>1686.5999755859</ele>
        <time>2014-01-11T13:05:56.000Z</time>
      </trkpt>
      <trkpt lat="45.19793" lon="6.34382">
        <ele>1686.5999755859</ele>
        <time>2014-01-11T13:05:57.000Z</time>
      </trkpt>
      <trkpt lat="45.19793" lon="6.34382">
        <ele>1686.5999755859</ele>
        <time>2014-01-11T13:05:58.000Z</time>
      </trkpt>
      <trkpt lat="45.19793" lon="6.34382">
        <ele>1686.4000244141</ele>
        <time>2014-01-11T13:05:59.000Z</time>
      </trkpt>
      <trkpt lat="45.19793" lon="6.34382">
        <ele>1686.5999755859</ele>
        <time>2014-01-11T13:06:02.000Z</time>
      </trkpt>
      <trkpt lat="45.19793" lon="6.34382">
        <ele>1686.5999755859</ele>
        <time>2014-01-11T13:06:03.000Z</time>
      </trkpt>
      <trkpt lat="45.19793" lon="6.34382">
        <ele>1686.5999755859</ele>
        <time>2014-01-11T13:06:04.000Z</time>
      </trkpt>
      <trkpt lat="45.19793" lon="6.34382">
        <ele>1686.5999755859</ele>
        <time>2014-01-11T13:06:06.000Z</time>
      </trkpt>
      <trkpt lat="45.19793" lon="6.34382">
        <ele>1686.5999755859</ele>
        <time>2014-01-11T13:06:07.000Z</time>
      </trkpt>
      <trkpt lat="45.19793" lon="6.34382">
        <ele>1686.5999755859</ele>
        <time>2014-01-11T13:06:08.000Z</time>
      </trkpt>
      <trkpt lat="45.19793" lon="6.34382">
        <ele>1686.4000244141</ele>
        <time>2014-01-11T13:06:09.000Z</time>
      </trkpt>
      <trkpt lat="45.19793" lon="6.34382">
        <ele>1686.4000244141</ele>
        <time>2014-01-11T13:06:10.000Z</time>
      </trkpt>
      <trkpt lat="45.19793" lon="6.34382">
        <ele>1686.4000244141</ele>
        <time>2014-01-11T13:06:11.000Z</time>
      </trkpt>
      <trkpt lat="45.19793" lon="6.34382">
        <ele>1686.4000244141</ele>
        <time>2014-01-11T13:06:13.000Z</time>
      </trkpt>
      <trkpt lat="45.19793" lon="6.34382">
        <ele>1686.4000244141</ele>
        <time>2014-01-11T13:06:14.000Z</time>
      </trkpt>
      <trkpt lat="45.19793" lon="6.34382">
        <ele>1686.5999755859</ele>
        <time>2014-01-11T13:06:16.000Z</time>
      </trkpt>
      <trkpt lat="45.19793" lon="6.34382">
        <ele>1686.5999755859</ele>
        <time>2014-01-11T13:06:17.000Z</time>
      </trkpt>
      <trkpt lat="45.19793" lon="6.34382">
        <ele>1686.5999755859</ele>
        <time>2014-01-11T13:06:18.000Z</time>
      </trkpt>
      <trkpt lat="45.19793" lon="6.34382">
        <ele>1686.5999755859</ele>
        <time>2014-01-11T13:06:19.000Z</time>
      </trkpt>
      <trkpt lat="45.19793" lon="6.34382">
        <ele>1686.5999755859</ele>
        <time>2014-01-11T13:06:20.000Z</time>
      </trkpt>
      <trkpt lat="45.19793" lon="6.34382">
        <ele>1686.5999755859</ele>
        <time>2014-01-11T13:06:21.000Z</time>
      </trkpt>
      <trkpt lat="45.19793" lon="6.34382">
        <ele>1686.5999755859</ele>
        <time>2014-01-11T13:06:23.000Z</time>
      </trkpt>
      <trkpt lat="45.19793" lon="6.34382">
        <ele>1686.5999755859</ele>
        <time>2014-01-11T13:06:24.000Z</time>
      </trkpt>
      <trkpt lat="45.19793" lon="6.34382">
        <ele>1686.5999755859</ele>
        <time>2014-01-11T13:06:28.000Z</time>
      </trkpt>
      <trkpt lat="45.19793" lon="6.34382">
        <ele>1686.5999755859</ele>
        <time>2014-01-11T13:06:29.000Z</time>
      </trkpt>
      <trkpt lat="45.19793" lon="6.34382">
        <ele>1686.5999755859</ele>
        <time>2014-01-11T13:06:34.000Z</time>
      </trkpt>
      <trkpt lat="45.19793" lon="6.34382">
        <ele>1686.5999755859</ele>
        <time>2014-01-11T13:06:38.000Z</time>
      </trkpt>
      <trkpt lat="45.19793" lon="6.34382">
        <ele>1686.5999755859</ele>
        <time>2014-01-11T13:06:43.000Z</time>
      </trkpt>
      <trkpt lat="45.19793" lon="6.34382">
        <ele>1686.5999755859</ele>
        <time>2014-01-11T13:06:44.000Z</time>
      </trkpt>
      <trkpt lat="45.19793" lon="6.34382">
        <ele>1686.5999755859</ele>
        <time>2014-01-11T13:06:45.000Z</time>
      </trkpt>
      <trkpt lat="45.19793" lon="6.34382">
        <ele>1686.5999755859</ele>
        <time>2014-01-11T13:06:48.000Z</time>
      </trkpt>
      <trkpt lat="45.19793" lon="6.34382">
        <ele>1686.4000244141</ele>
        <time>2014-01-11T13:06:49.000Z</time>
      </trkpt>
      <trkpt lat="45.19793" lon="6.34382">
        <ele>1686.5999755859</ele>
        <time>2014-01-11T13:06:56.000Z</time>
      </trkpt>
      <trkpt lat="45.19793" lon="6.34382">
        <ele>1686.5999755859</ele>
        <time>2014-01-11T13:06:57.000Z</time>
      </trkpt>
      <trkpt lat="45.19793" lon="6.34382">
        <ele>1686.5999755859</ele>
        <time>2014-01-11T13:06:58.000Z</time>
      </trkpt>
      <trkpt lat="45.19793" lon="6.34382">
        <ele>1686.5999755859</ele>
        <time>2014-01-11T13:06:59.000Z</time>
      </trkpt>
      <trkpt lat="45.19793" lon="6.34382">
        <ele>1686.5999755859</ele>
        <time>2014-01-11T13:07:03.000Z</time>
      </trkpt>
      <trkpt lat="45.19793" lon="6.34382">
        <ele>1686.4000244141</ele>
        <time>2014-01-11T13:07:04.000Z</time>
      </trkpt>
      <trkpt lat="45.19793" lon="6.34382">
        <ele>1686.4000244141</ele>
        <time>2014-01-11T13:07:05.000Z</time>
      </trkpt>
      <trkpt lat="45.19793" lon="6.34382">
        <ele>1686.4000244141</ele>
        <time>2014-01-11T13:07:06.000Z</time>
      </trkpt>
      <trkpt lat="45.19793" lon="6.34382">
        <ele>1686.4000244141</ele>
        <time>2014-01-11T13:07:07.000Z</time>
      </trkpt>
      <trkpt lat="45.19793" lon="6.34382">
        <ele>1686.4000244141</ele>
        <time>2014-01-11T13:07:08.000Z</time>
      </trkpt>
      <trkpt lat="45.19793" lon="6.34382">
        <ele>1686.4000244141</ele>
        <time>2014-01-11T13:07:11.000Z</time>
      </trkpt>
      <trkpt lat="45.19793" lon="6.34382">
        <ele>1686.4000244141</ele>
        <time>2014-01-11T13:07:12.000Z</time>
      </trkpt>
      <trkpt lat="45.19793" lon="6.34382">
        <ele>1686.4000244141</ele>
        <time>2014-01-11T13:07:13.000Z</time>
      </trkpt>
      <trkpt lat="45.19793" lon="6.34382">
        <ele>1686.4000244141</ele>
        <time>2014-01-11T13:07:14.000Z</time>
      </trkpt>
      <trkpt lat="45.19793" lon="6.34382">
        <ele>1686.4000244141</ele>
        <time>2014-01-11T13:07:23.000Z</time>
      </trkpt>
      <trkpt lat="45.19793" lon="6.34382">
        <ele>1686.4000244141</ele>
        <time>2014-01-11T13:07:24.000Z</time>
      </trkpt>
      <trkpt lat="45.19793" lon="6.34382">
        <ele>1686.4000244141</ele>
        <time>2014-01-11T13:07:25.000Z</time>
      </trkpt>
      <trkpt lat="45.19793" lon="6.34382">
        <ele>1686.4000244141</ele>
        <time>2014-01-11T13:07:26.000Z</time>
      </trkpt>
      <trkpt lat="45.19793" lon="6.34382">
        <ele>1686.4000244141</ele>
        <time>2014-01-11T13:07:29.000Z</time>
      </trkpt>
      <trkpt lat="45.19793" lon="6.34382">
        <ele>1686.4000244141</ele>
        <time>2014-01-11T13:07:30.000Z</time>
      </trkpt>
      <trkpt lat="45.19793" lon="6.34382">
        <ele>1686.4000244141</ele>
        <time>2014-01-11T13:07:31.000Z</time>
      </trkpt>
      <trkpt lat="45.19793" lon="6.34382">
        <ele>1686.4000244141</ele>
        <time>2014-01-11T13:07:32.000Z</time>
      </trkpt>
      <trkpt lat="45.19793" lon="6.34382">
        <ele>1686.4000244141</ele>
        <time>2014-01-11T13:07:35.000Z</time>
      </trkpt>
      <trkpt lat="45.19793" lon="6.34382">
        <ele>1686.4000244141</ele>
        <time>2014-01-11T13:07:37.000Z</time>
      </trkpt>
      <trkpt lat="45.19793" lon="6.34382">
        <ele>1686.4000244141</ele>
        <time>2014-01-11T13:07:40.000Z</time>
      </trkpt>
      <trkpt lat="45.19793" lon="6.34382">
        <ele>1686.4000244141</ele>
        <time>2014-01-11T13:07:41.000Z</time>
      </trkpt>
      <trkpt lat="45.19793" lon="6.34382">
        <ele>1686.4000244141</ele>
        <time>2014-01-11T13:07:42.000Z</time>
      </trkpt>
      <trkpt lat="45.19793" lon="6.34382">
        <ele>1686.4000244141</ele>
        <time>2014-01-11T13:07:43.000Z</time>
      </trkpt>
      <trkpt lat="45.19793" lon="6.34382">
        <ele>1686.5999755859</ele>
        <time>2014-01-11T13:07:45.000Z</time>
      </trkpt>
      <trkpt lat="45.19793" lon="6.34382">
        <ele>1686.5999755859</ele>
        <time>2014-01-11T13:07:46.000Z</time>
      </trkpt>
      <trkpt lat="45.19793" lon="6.34382">
        <ele>1686.5999755859</ele>
        <time>2014-01-11T13:07:49.000Z</time>
      </trkpt>
      <trkpt lat="45.19793" lon="6.34382">
        <ele>1686.4000244141</ele>
        <time>2014-01-11T13:07:50.000Z</time>
      </trkpt>
      <trkpt lat="45.19793" lon="6.34382">
        <ele>1686.4000244141</ele>
        <time>2014-01-11T13:07:51.000Z</time>
      </trkpt>
      <trkpt lat="45.19793" lon="6.34382">
        <ele>1686.4000244141</ele>
        <time>2014-01-11T13:07:52.000Z</time>
      </trkpt>
      <trkpt lat="45.19793" lon="6.34383">
        <ele>1686.4000244141</ele>
        <time>2014-01-11T13:07:56.000Z</time>
      </trkpt>
      <trkpt lat="45.19793" lon="6.34383">
        <ele>1686.5999755859</ele>
        <time>2014-01-11T13:07:57.000Z</time>
      </trkpt>
      <trkpt lat="45.19793" lon="6.34383">
        <ele>1686.5999755859</ele>
        <time>2014-01-11T13:07:58.000Z</time>
      </trkpt>
      <trkpt lat="45.19793" lon="6.34383">
        <ele>1686.5999755859</ele>
        <time>2014-01-11T13:07:59.000Z</time>
      </trkpt>
      <trkpt lat="45.19794" lon="6.34383">
        <ele>1686.5999755859</ele>
        <time>2014-01-11T13:08:00.000Z</time>
      </trkpt>
      <trkpt lat="45.19794" lon="6.34383">
        <ele>1686.5999755859</ele>
        <time>2014-01-11T13:08:01.000Z</time>
      </trkpt>
      <trkpt lat="45.198" lon="6.34387">
        <ele>1686.5999755859</ele>
        <time>2014-01-11T13:08:05.000Z</time>
      </trkpt>
      <trkpt lat="45.19801" lon="6.34389">
        <ele>1686.5999755859</ele>
        <time>2014-01-11T13:08:06.000Z</time>
      </trkpt>
      <trkpt lat="45.19803" lon="6.3439">
        <ele>1686.8000488281</ele>
        <time>2014-01-11T13:08:07.000Z</time>
      </trkpt>
      <trkpt lat="45.19805" lon="6.3439">
        <ele>1686.8000488281</ele>
        <time>2014-01-11T13:08:08.000Z</time>
      </trkpt>
      <trkpt lat="45.19807" lon="6.34391">
        <ele>1687</ele>
        <time>2014-01-11T13:08:09.000Z</time>
      </trkpt>
      <trkpt lat="45.19809" lon="6.34392">
        <ele>1687</ele>
        <time>2014-01-11T13:08:10.000Z</time>
      </trkpt>
      <trkpt lat="45.1981" lon="6.34393">
        <ele>1687</ele>
        <time>2014-01-11T13:08:11.000Z</time>
      </trkpt>
      <trkpt lat="45.19812" lon="6.34394">
        <ele>1687.1999511719</ele>
        <time>2014-01-11T13:08:12.000Z</time>
      </trkpt>
      <trkpt lat="45.19814" lon="6.34395">
        <ele>1687.1999511719</ele>
        <time>2014-01-11T13:08:13.000Z</time>
      </trkpt>
      <trkpt lat="45.19816" lon="6.34396">
        <ele>1687.1999511719</ele>
        <time>2014-01-11T13:08:14.000Z</time>
      </trkpt>
      <trkpt lat="45.19818" lon="6.34397">
        <ele>1687.1999511719</ele>
        <time>2014-01-11T13:08:15.000Z</time>
      </trkpt>
      <trkpt lat="45.19821" lon="6.34398">
        <ele>1687.4000244141</ele>
        <time>2014-01-11T13:08:16.000Z</time>
      </trkpt>
      <trkpt lat="45.19823" lon="6.34399">
        <ele>1687.4000244141</ele>
        <time>2014-01-11T13:08:17.000Z</time>
      </trkpt>
      <trkpt lat="45.19825" lon="6.34401">
        <ele>1687.5999755859</ele>
        <time>2014-01-11T13:08:18.000Z</time>
      </trkpt>
      <trkpt lat="45.19828" lon="6.34403">
        <ele>1687.5999755859</ele>
        <time>2014-01-11T13:08:19.000Z</time>
      </trkpt>
      <trkpt lat="45.19831" lon="6.34404">
        <ele>1687.8000488281</ele>
        <time>2014-01-11T13:08:20.000Z</time>
      </trkpt>
      <trkpt lat="45.19833" lon="6.34405">
        <ele>1688</ele>
        <time>2014-01-11T13:08:21.000Z</time>
      </trkpt>
      <trkpt lat="45.19836" lon="6.34407">
        <ele>1688</ele>
        <time>2014-01-11T13:08:22.000Z</time>
      </trkpt>
      <trkpt lat="45.19839" lon="6.34408">
        <ele>1688.1999511719</ele>
        <time>2014-01-11T13:08:23.000Z</time>
      </trkpt>
      <trkpt lat="45.19842" lon="6.34409">
        <ele>1688.1999511719</ele>
        <time>2014-01-11T13:08:24.000Z</time>
      </trkpt>
      <trkpt lat="45.19844" lon="6.34412">
        <ele>1688.4000244141</ele>
        <time>2014-01-11T13:08:25.000Z</time>
      </trkpt>
      <trkpt lat="45.19847" lon="6.34413">
        <ele>1688.4000244141</ele>
        <time>2014-01-11T13:08:26.000Z</time>
      </trkpt>
      <trkpt lat="45.1985" lon="6.34414">
        <ele>1688.4000244141</ele>
        <time>2014-01-11T13:08:27.000Z</time>
      </trkpt>
      <trkpt lat="45.19852" lon="6.34415">
        <ele>1688.5999755859</ele>
        <time>2014-01-11T13:08:28.000Z</time>
      </trkpt>
      <trkpt lat="45.19855" lon="6.34416">
        <ele>1688.5999755859</ele>
        <time>2014-01-11T13:08:29.000Z</time>
      </trkpt>
      <trkpt lat="45.19858" lon="6.34417">
        <ele>1688.8000488281</ele>
        <time>2014-01-11T13:08:30.000Z</time>
      </trkpt>
      <trkpt lat="45.1986" lon="6.34418">
        <ele>1688.8000488281</ele>
        <time>2014-01-11T13:08:31.000Z</time>
      </trkpt>
      <trkpt lat="45.19863" lon="6.34419">
        <ele>1689</ele>
        <time>2014-01-11T13:08:32.000Z</time>
      </trkpt>
      <trkpt lat="45.19866" lon="6.3442">
        <ele>1689</ele>
        <time>2014-01-11T13:08:33.000Z</time>
      </trkpt>
      <trkpt lat="45.19869" lon="6.3442">
        <ele>1689.1999511719</ele>
        <time>2014-01-11T13:08:34.000Z</time>
      </trkpt>
      <trkpt lat="45.19872" lon="6.34421">
        <ele>1689.1999511719</ele>
        <time>2014-01-11T13:08:35.000Z</time>
      </trkpt>
      <trkpt lat="45.19875" lon="6.34421">
        <ele>1689.4000244141</ele>
        <time>2014-01-11T13:08:36.000Z</time>
      </trkpt>
      <trkpt lat="45.19878" lon="6.34422">
        <ele>1689.4000244141</ele>
        <time>2014-01-11T13:08:37.000Z</time>
      </trkpt>
      <trkpt lat="45.19881" lon="6.34422">
        <ele>1689.4000244141</ele>
        <time>2014-01-11T13:08:38.000Z</time>
      </trkpt>
      <trkpt lat="45.19884" lon="6.34423">
        <ele>1689.5999755859</ele>
        <time>2014-01-11T13:08:39.000Z</time>
      </trkpt>
      <trkpt lat="45.19887" lon="6.34424">
        <ele>1689.5999755859</ele>
        <time>2014-01-11T13:08:40.000Z</time>
      </trkpt>
      <trkpt lat="45.1989" lon="6.34425">
        <ele>1689.8000488281</ele>
        <time>2014-01-11T13:08:41.000Z</time>
      </trkpt>
      <trkpt lat="45.19892" lon="6.34426">
        <ele>1689.8000488281</ele>
        <time>2014-01-11T13:08:42.000Z</time>
      </trkpt>
      <trkpt lat="45.19895" lon="6.34427">
        <ele>1690</ele>
        <time>2014-01-11T13:08:43.000Z</time>
      </trkpt>
      <trkpt lat="45.19899" lon="6.34427">
        <ele>1690</ele>
        <time>2014-01-11T13:08:44.000Z</time>
      </trkpt>
      <trkpt lat="45.19902" lon="6.34429">
        <ele>1690</ele>
        <time>2014-01-11T13:08:45.000Z</time>
      </trkpt>
      <trkpt lat="45.19905" lon="6.3443">
        <ele>1690.1999511719</ele>
        <time>2014-01-11T13:08:46.000Z</time>
      </trkpt>
      <trkpt lat="45.19908" lon="6.3443">
        <ele>1690.1999511719</ele>
        <time>2014-01-11T13:08:47.000Z</time>
      </trkpt>
      <trkpt lat="45.19911" lon="6.34431">
        <ele>1690.4000244141</ele>
        <time>2014-01-11T13:08:48.000Z</time>
      </trkpt>
      <trkpt lat="45.19914" lon="6.34431">
        <ele>1690.4000244141</ele>
        <time>2014-01-11T13:08:49.000Z</time>
      </trkpt>
      <trkpt lat="45.19917" lon="6.34432">
        <ele>1690.4000244141</ele>
        <time>2014-01-11T13:08:50.000Z</time>
      </trkpt>
      <trkpt lat="45.1992" lon="6.34433">
        <ele>1690.4000244141</ele>
        <time>2014-01-11T13:08:51.000Z</time>
      </trkpt>
      <trkpt lat="45.19923" lon="6.34433">
        <ele>1690.4000244141</ele>
        <time>2014-01-11T13:08:52.000Z</time>
      </trkpt>
      <trkpt lat="45.19926" lon="6.34434">
        <ele>1690.5999755859</ele>
        <time>2014-01-11T13:08:53.000Z</time>
      </trkpt>
      <trkpt lat="45.19929" lon="6.34435">
        <ele>1690.5999755859</ele>
        <time>2014-01-11T13:08:54.000Z</time>
      </trkpt>
      <trkpt lat="45.19935" lon="6.34436">
        <ele>1690.5999755859</ele>
        <time>2014-01-11T13:08:56.000Z</time>
      </trkpt>
      <trkpt lat="45.19938" lon="6.34437">
        <ele>1690.5999755859</ele>
        <time>2014-01-11T13:08:57.000Z</time>
      </trkpt>
      <trkpt lat="45.19941" lon="6.34438">
        <ele>1690.5999755859</ele>
        <time>2014-01-11T13:08:58.000Z</time>
      </trkpt>
      <trkpt lat="45.19944" lon="6.34438">
        <ele>1690.5999755859</ele>
        <time>2014-01-11T13:08:59.000Z</time>
      </trkpt>
      <trkpt lat="45.19947" lon="6.34439">
        <ele>1690.8000488281</ele>
        <time>2014-01-11T13:09:00.000Z</time>
      </trkpt>
      <trkpt lat="45.1995" lon="6.34439">
        <ele>1690.8000488281</ele>
        <time>2014-01-11T13:09:01.000Z</time>
      </trkpt>
      <trkpt lat="45.19953" lon="6.34439">
        <ele>1690.8000488281</ele>
        <time>2014-01-11T13:09:02.000Z</time>
      </trkpt>
      <trkpt lat="45.19956" lon="6.3444">
        <ele>1690.8000488281</ele>
        <time>2014-01-11T13:09:03.000Z</time>
      </trkpt>
      <trkpt lat="45.19958" lon="6.3444">
        <ele>1690.8000488281</ele>
        <time>2014-01-11T13:09:04.000Z</time>
      </trkpt>
      <trkpt lat="45.19961" lon="6.3444">
        <ele>1691</ele>
        <time>2014-01-11T13:09:05.000Z</time>
      </trkpt>
      <trkpt lat="45.19963" lon="6.34441">
        <ele>1691</ele>
        <time>2014-01-11T13:09:06.000Z</time>
      </trkpt>
      <trkpt lat="45.19965" lon="6.34441">
        <ele>1691.1999511719</ele>
        <time>2014-01-11T13:09:07.000Z</time>
      </trkpt>
      <trkpt lat="45.19968" lon="6.34442">
        <ele>1691.1999511719</ele>
        <time>2014-01-11T13:09:08.000Z</time>
      </trkpt>
      <trkpt lat="45.1997" lon="6.34442">
        <ele>1691.1999511719</ele>
        <time>2014-01-11T13:09:09.000Z</time>
      </trkpt>
      <trkpt lat="45.19972" lon="6.34443">
        <ele>1691.4000244141</ele>
        <time>2014-01-11T13:09:10.000Z</time>
      </trkpt>
      <trkpt lat="45.19974" lon="6.34444">
        <ele>1691.4000244141</ele>
        <time>2014-01-11T13:09:11.000Z</time>
      </trkpt>
      <trkpt lat="45.19975" lon="6.34446">
        <ele>1691.4000244141</ele>
        <time>2014-01-11T13:09:12.000Z</time>
      </trkpt>
      <trkpt lat="45.19977" lon="6.34448">
        <ele>1691.4000244141</ele>
        <time>2014-01-11T13:09:13.000Z</time>
      </trkpt>
      <trkpt lat="45.19978" lon="6.3445">
        <ele>1691.4000244141</ele>
        <time>2014-01-11T13:09:14.000Z</time>
      </trkpt>
      <trkpt lat="45.19979" lon="6.34452">
        <ele>1691.4000244141</ele>
        <time>2014-01-11T13:09:15.000Z</time>
      </trkpt>
      <trkpt lat="45.19981" lon="6.34454">
        <ele>1691.4000244141</ele>
        <time>2014-01-11T13:09:16.000Z</time>
      </trkpt>
      <trkpt lat="45.19982" lon="6.34456">
        <ele>1691.5999755859</ele>
        <time>2014-01-11T13:09:17.000Z</time>
      </trkpt>
      <trkpt lat="45.19983" lon="6.34459">
        <ele>1691.5999755859</ele>
        <time>2014-01-11T13:09:18.000Z</time>
      </trkpt>
      <trkpt lat="45.19984" lon="6.34461">
        <ele>1691.5999755859</ele>
        <time>2014-01-11T13:09:19.000Z</time>
      </trkpt>
      <trkpt lat="45.19985" lon="6.34463">
        <ele>1691.5999755859</ele>
        <time>2014-01-11T13:09:20.000Z</time>
      </trkpt>
      <trkpt lat="45.19985" lon="6.34465">
        <ele>1691.5999755859</ele>
        <time>2014-01-11T13:09:21.000Z</time>
      </trkpt>
      <trkpt lat="45.19985" lon="6.34468">
        <ele>1691.5999755859</ele>
        <time>2014-01-11T13:09:22.000Z</time>
      </trkpt>
      <trkpt lat="45.19986" lon="6.3447">
        <ele>1691.8000488281</ele>
        <time>2014-01-11T13:09:23.000Z</time>
      </trkpt>
      <trkpt lat="45.19987" lon="6.34473">
        <ele>1691.8000488281</ele>
        <time>2014-01-11T13:09:24.000Z</time>
      </trkpt>
      <trkpt lat="45.19987" lon="6.34475">
        <ele>1692</ele>
        <time>2014-01-11T13:09:25.000Z</time>
      </trkpt>
      <trkpt lat="45.19988" lon="6.34477">
        <ele>1692</ele>
        <time>2014-01-11T13:09:26.000Z</time>
      </trkpt>
      <trkpt lat="45.19989" lon="6.3448">
        <ele>1692</ele>
        <time>2014-01-11T13:09:27.000Z</time>
      </trkpt>
      <trkpt lat="45.1999" lon="6.34482">
        <ele>1692</ele>
        <time>2014-01-11T13:09:28.000Z</time>
      </trkpt>
      <trkpt lat="45.19991" lon="6.34485">
        <ele>1692</ele>
        <time>2014-01-11T13:09:29.000Z</time>
      </trkpt>
      <trkpt lat="45.19993" lon="6.34487">
        <ele>1692.1999511719</ele>
        <time>2014-01-11T13:09:30.000Z</time>
      </trkpt>
      <trkpt lat="45.19994" lon="6.34488">
        <ele>1692.1999511719</ele>
        <time>2014-01-11T13:09:31.000Z</time>
      </trkpt>
      <trkpt lat="45.19996" lon="6.3449">
        <ele>1692.4000244141</ele>
        <time>2014-01-11T13:09:32.000Z</time>
      </trkpt>
      <trkpt lat="45.19998" lon="6.34491">
        <ele>1692.4000244141</ele>
        <time>2014-01-11T13:09:33.000Z</time>
      </trkpt>
      <trkpt lat="45.20001" lon="6.34491">
        <ele>1692.4000244141</ele>
        <time>2014-01-11T13:09:34.000Z</time>
      </trkpt>
      <trkpt lat="45.20003" lon="6.3449">
        <ele>1692.4000244141</ele>
        <time>2014-01-11T13:09:35.000Z</time>
      </trkpt>
      <trkpt lat="45.20006" lon="6.34489">
        <ele>1692.5999755859</ele>
        <time>2014-01-11T13:09:36.000Z</time>
      </trkpt>
      <trkpt lat="45.20009" lon="6.34488">
        <ele>1692.5999755859</ele>
        <time>2014-01-11T13:09:37.000Z</time>
      </trkpt>
      <trkpt lat="45.20014" lon="6.34485">
        <ele>1692.5999755859</ele>
        <time>2014-01-11T13:09:39.000Z</time>
      </trkpt>
      <trkpt lat="45.20017" lon="6.34483">
        <ele>1692.5999755859</ele>
        <time>2014-01-11T13:09:40.000Z</time>
      </trkpt>
      <trkpt lat="45.20019" lon="6.34481">
        <ele>1692.5999755859</ele>
        <time>2014-01-11T13:09:41.000Z</time>
      </trkpt>
      <trkpt lat="45.20021" lon="6.3448">
        <ele>1692.5999755859</ele>
        <time>2014-01-11T13:09:42.000Z</time>
      </trkpt>
      <trkpt lat="45.20024" lon="6.34478">
        <ele>1692.5999755859</ele>
        <time>2014-01-11T13:09:43.000Z</time>
      </trkpt>
      <trkpt lat="45.20026" lon="6.34476">
        <ele>1692.8000488281</ele>
        <time>2014-01-11T13:09:44.000Z</time>
      </trkpt>
      <trkpt lat="45.20028" lon="6.34474">
        <ele>1692.8000488281</ele>
        <time>2014-01-11T13:09:45.000Z</time>
      </trkpt>
      <trkpt lat="45.20031" lon="6.34472">
        <ele>1692.8000488281</ele>
        <time>2014-01-11T13:09:46.000Z</time>
      </trkpt>
      <trkpt lat="45.20033" lon="6.34471">
        <ele>1692.8000488281</ele>
        <time>2014-01-11T13:09:47.000Z</time>
      </trkpt>
      <trkpt lat="45.20036" lon="6.34469">
        <ele>1692.8000488281</ele>
        <time>2014-01-11T13:09:48.000Z</time>
      </trkpt>
      <trkpt lat="45.20038" lon="6.34468">
        <ele>1692.8000488281</ele>
        <time>2014-01-11T13:09:49.000Z</time>
      </trkpt>
      <trkpt lat="45.2004" lon="6.34467">
        <ele>1692.8000488281</ele>
        <time>2014-01-11T13:09:50.000Z</time>
      </trkpt>
      <trkpt lat="45.20043" lon="6.34466">
        <ele>1692.8000488281</ele>
        <time>2014-01-11T13:09:51.000Z</time>
      </trkpt>
      <trkpt lat="45.20045" lon="6.34465">
        <ele>1693</ele>
        <time>2014-01-11T13:09:52.000Z</time>
      </trkpt>
      <trkpt lat="45.20047" lon="6.34464">
        <ele>1693</ele>
        <time>2014-01-11T13:09:53.000Z</time>
      </trkpt>
      <trkpt lat="45.20049" lon="6.34464">
        <ele>1693</ele>
        <time>2014-01-11T13:09:54.000Z</time>
      </trkpt>
      <trkpt lat="45.20051" lon="6.34464">
        <ele>1693</ele>
        <time>2014-01-11T13:09:55.000Z</time>
      </trkpt>
      <trkpt lat="45.20053" lon="6.34465">
        <ele>1693</ele>
        <time>2014-01-11T13:09:56.000Z</time>
      </trkpt>
      <trkpt lat="45.20055" lon="6.34466">
        <ele>1693</ele>
        <time>2014-01-11T13:09:57.000Z</time>
      </trkpt>
      <trkpt lat="45.20057" lon="6.34466">
        <ele>1693</ele>
        <time>2014-01-11T13:09:58.000Z</time>
      </trkpt>
      <trkpt lat="45.20059" lon="6.34467">
        <ele>1693.1999511719</ele>
        <time>2014-01-11T13:09:59.000Z</time>
      </trkpt>
      <trkpt lat="45.20061" lon="6.34467">
        <ele>1693.1999511719</ele>
        <time>2014-01-11T13:10:00.000Z</time>
      </trkpt>
      <trkpt lat="45.20063" lon="6.34468">
        <ele>1693.1999511719</ele>
        <time>2014-01-11T13:10:01.000Z</time>
      </trkpt>
      <trkpt lat="45.20065" lon="6.34469">
        <ele>1693.1999511719</ele>
        <time>2014-01-11T13:10:02.000Z</time>
      </trkpt>
      <trkpt lat="45.20067" lon="6.34469">
        <ele>1693.1999511719</ele>
        <time>2014-01-11T13:10:03.000Z</time>
      </trkpt>
      <trkpt lat="45.20068" lon="6.34469">
        <ele>1693.4000244141</ele>
        <time>2014-01-11T13:10:04.000Z</time>
      </trkpt>
      <trkpt lat="45.2007" lon="6.3447">
        <ele>1693.4000244141</ele>
        <time>2014-01-11T13:10:05.000Z</time>
      </trkpt>
      <trkpt lat="45.20072" lon="6.34471">
        <ele>1693.4000244141</ele>
        <time>2014-01-11T13:10:06.000Z</time>
      </trkpt>
      <trkpt lat="45.20073" lon="6.34471">
        <ele>1693.5999755859</ele>
        <time>2014-01-11T13:10:07.000Z</time>
      </trkpt>
      <trkpt lat="45.20075" lon="6.34472">
        <ele>1693.5999755859</ele>
        <time>2014-01-11T13:10:08.000Z</time>
      </trkpt>
      <trkpt lat="45.20077" lon="6.34472">
        <ele>1693.5999755859</ele>
        <time>2014-01-11T13:10:09.000Z</time>
      </trkpt>
      <trkpt lat="45.20079" lon="6.34473">
        <ele>1693.8000488281</ele>
        <time>2014-01-11T13:10:10.000Z</time>
      </trkpt>
      <trkpt lat="45.20081" lon="6.34473">
        <ele>1693.8000488281</ele>
        <time>2014-01-11T13:10:11.000Z</time>
      </trkpt>
      <trkpt lat="45.20083" lon="6.34474">
        <ele>1694</ele>
        <time>2014-01-11T13:10:12.000Z</time>
      </trkpt>
      <trkpt lat="45.20085" lon="6.34474">
        <ele>1694.1999511719</ele>
        <time>2014-01-11T13:10:13.000Z</time>
      </trkpt>
      <trkpt lat="45.20087" lon="6.34474">
        <ele>1694.1999511719</ele>
        <time>2014-01-11T13:10:14.000Z</time>
      </trkpt>
      <trkpt lat="45.20089" lon="6.34475">
        <ele>1694.1999511719</ele>
        <time>2014-01-11T13:10:15.000Z</time>
      </trkpt>
      <trkpt lat="45.20091" lon="6.34475">
        <ele>1694.1999511719</ele>
        <time>2014-01-11T13:10:16.000Z</time>
      </trkpt>
      <trkpt lat="45.20093" lon="6.34475">
        <ele>1694.1999511719</ele>
        <time>2014-01-11T13:10:17.000Z</time>
      </trkpt>
      <trkpt lat="45.20096" lon="6.34476">
        <ele>1694.4000244141</ele>
        <time>2014-01-11T13:10:18.000Z</time>
      </trkpt>
      <trkpt lat="45.20098" lon="6.34476">
        <ele>1694.4000244141</ele>
        <time>2014-01-11T13:10:19.000Z</time>
      </trkpt>
      <trkpt lat="45.201" lon="6.34477">
        <ele>1694.5999755859</ele>
        <time>2014-01-11T13:10:20.000Z</time>
      </trkpt>
      <trkpt lat="45.20103" lon="6.34477">
        <ele>1694.5999755859</ele>
        <time>2014-01-11T13:10:21.000Z</time>
      </trkpt>
      <trkpt lat="45.20105" lon="6.34478">
        <ele>1694.8000488281</ele>
        <time>2014-01-11T13:10:22.000Z</time>
      </trkpt>
      <trkpt lat="45.20107" lon="6.34478">
        <ele>1694.8000488281</ele>
        <time>2014-01-11T13:10:23.000Z</time>
      </trkpt>
      <trkpt lat="45.2011" lon="6.34477">
        <ele>1694.8000488281</ele>
        <time>2014-01-11T13:10:24.000Z</time>
      </trkpt>
      <trkpt lat="45.20112" lon="6.34477">
        <ele>1695</ele>
        <time>2014-01-11T13:10:25.000Z</time>
      </trkpt>
      <trkpt lat="45.20114" lon="6.34477">
        <ele>1695</ele>
        <time>2014-01-11T13:10:26.000Z</time>
      </trkpt>
      <trkpt lat="45.20116" lon="6.34477">
        <ele>1695</ele>
        <time>2014-01-11T13:10:27.000Z</time>
      </trkpt>
      <trkpt lat="45.20118" lon="6.34477">
        <ele>1695.1999511719</ele>
        <time>2014-01-11T13:10:28.000Z</time>
      </trkpt>
      <trkpt lat="45.2012" lon="6.34477">
        <ele>1695.1999511719</ele>
        <time>2014-01-11T13:10:29.000Z</time>
      </trkpt>
      <trkpt lat="45.20121" lon="6.34477">
        <ele>1695.1999511719</ele>
        <time>2014-01-11T13:10:30.000Z</time>
      </trkpt>
      <trkpt lat="45.20123" lon="6.34478">
        <ele>1695.1999511719</ele>
        <time>2014-01-11T13:10:31.000Z</time>
      </trkpt>
      <trkpt lat="45.20125" lon="6.34478">
        <ele>1695.4000244141</ele>
        <time>2014-01-11T13:10:32.000Z</time>
      </trkpt>
      <trkpt lat="45.20127" lon="6.3448">
        <ele>1695.4000244141</ele>
        <time>2014-01-11T13:10:33.000Z</time>
      </trkpt>
      <trkpt lat="45.20129" lon="6.34481">
        <ele>1695.5999755859</ele>
        <time>2014-01-11T13:10:34.000Z</time>
      </trkpt>
      <trkpt lat="45.20131" lon="6.34482">
        <ele>1695.5999755859</ele>
        <time>2014-01-11T13:10:35.000Z</time>
      </trkpt>
      <trkpt lat="45.20132" lon="6.34484">
        <ele>1695.8000488281</ele>
        <time>2014-01-11T13:10:36.000Z</time>
      </trkpt>
      <trkpt lat="45.20133" lon="6.34485">
        <ele>1695.8000488281</ele>
        <time>2014-01-11T13:10:37.000Z</time>
      </trkpt>
      <trkpt lat="45.20135" lon="6.34486">
        <ele>1695.8000488281</ele>
        <time>2014-01-11T13:10:38.000Z</time>
      </trkpt>
      <trkpt lat="45.20136" lon="6.34487">
        <ele>1695.8000488281</ele>
        <time>2014-01-11T13:10:39.000Z</time>
      </trkpt>
      <trkpt lat="45.20136" lon="6.34488">
        <ele>1695.8000488281</ele>
        <time>2014-01-11T13:10:40.000Z</time>
      </trkpt>
      <trkpt lat="45.20136" lon="6.34489">
        <ele>1695.8000488281</ele>
        <time>2014-01-11T13:10:41.000Z</time>
      </trkpt>
      <trkpt lat="45.20136" lon="6.3449">
        <ele>1696</ele>
        <time>2014-01-11T13:10:42.000Z</time>
      </trkpt>
      <trkpt lat="45.20136" lon="6.34492">
        <ele>1696</ele>
        <time>2014-01-11T13:10:43.000Z</time>
      </trkpt>
      <trkpt lat="45.20137" lon="6.34494">
        <ele>1696</ele>
        <time>2014-01-11T13:10:44.000Z</time>
      </trkpt>
      <trkpt lat="45.20138" lon="6.34496">
        <ele>1696</ele>
        <time>2014-01-11T13:10:45.000Z</time>
      </trkpt>
      <trkpt lat="45.20139" lon="6.34499">
        <ele>1696</ele>
        <time>2014-01-11T13:10:46.000Z</time>
      </trkpt>
      <trkpt lat="45.2014" lon="6.34501">
        <ele>1696</ele>
        <time>2014-01-11T13:10:47.000Z</time>
      </trkpt>
      <trkpt lat="45.20141" lon="6.34503">
        <ele>1696</ele>
        <time>2014-01-11T13:10:48.000Z</time>
      </trkpt>
      <trkpt lat="45.20143" lon="6.34505">
        <ele>1696</ele>
        <time>2014-01-11T13:10:49.000Z</time>
      </trkpt>
      <trkpt lat="45.20144" lon="6.34508">
        <ele>1696</ele>
        <time>2014-01-11T13:10:50.000Z</time>
      </trkpt>
      <trkpt lat="45.20145" lon="6.3451">
        <ele>1696</ele>
        <time>2014-01-11T13:10:51.000Z</time>
      </trkpt>
      <trkpt lat="45.20146" lon="6.34512">
        <ele>1696</ele>
        <time>2014-01-11T13:10:52.000Z</time>
      </trkpt>
      <trkpt lat="45.20147" lon="6.34516">
        <ele>1696</ele>
        <time>2014-01-11T13:10:54.000Z</time>
      </trkpt>
      <trkpt lat="45.20148" lon="6.34518">
        <ele>1696.1999511719</ele>
        <time>2014-01-11T13:10:55.000Z</time>
      </trkpt>
      <trkpt lat="45.20149" lon="6.34519">
        <ele>1696.1999511719</ele>
        <time>2014-01-11T13:10:56.000Z</time>
      </trkpt>
      <trkpt lat="45.2015" lon="6.34521">
        <ele>1696.1999511719</ele>
        <time>2014-01-11T13:10:57.000Z</time>
      </trkpt>
      <trkpt lat="45.20151" lon="6.34523">
        <ele>1696.4000244141</ele>
        <time>2014-01-11T13:10:58.000Z</time>
      </trkpt>
      <trkpt lat="45.20152" lon="6.34524">
        <ele>1696.4000244141</ele>
        <time>2014-01-11T13:10:59.000Z</time>
      </trkpt>
      <trkpt lat="45.20154" lon="6.34526">
        <ele>1696.5999755859</ele>
        <time>2014-01-11T13:11:00.000Z</time>
      </trkpt>
      <trkpt lat="45.20155" lon="6.34528">
        <ele>1696.5999755859</ele>
        <time>2014-01-11T13:11:01.000Z</time>
      </trkpt>
      <trkpt lat="45.20156" lon="6.3453">
        <ele>1696.8000488281</ele>
        <time>2014-01-11T13:11:02.000Z</time>
      </trkpt>
      <trkpt lat="45.20158" lon="6.34531">
        <ele>1696.8000488281</ele>
        <time>2014-01-11T13:11:03.000Z</time>
      </trkpt>
      <trkpt lat="45.20159" lon="6.34533">
        <ele>1697</ele>
        <time>2014-01-11T13:11:04.000Z</time>
      </trkpt>
      <trkpt lat="45.2016" lon="6.34534">
        <ele>1697</ele>
        <time>2014-01-11T13:11:05.000Z</time>
      </trkpt>
      <trkpt lat="45.20162" lon="6.34535">
        <ele>1697</ele>
        <time>2014-01-11T13:11:06.000Z</time>
      </trkpt>
      <trkpt lat="45.20163" lon="6.34536">
        <ele>1697</ele>
        <time>2014-01-11T13:11:07.000Z</time>
      </trkpt>
      <trkpt lat="45.20166" lon="6.34536">
        <ele>1697</ele>
        <time>2014-01-11T13:11:08.000Z</time>
      </trkpt>
      <trkpt lat="45.20168" lon="6.34537">
        <ele>1697.1999511719</ele>
        <time>2014-01-11T13:11:09.000Z</time>
      </trkpt>
      <trkpt lat="45.20171" lon="6.34537">
        <ele>1697.1999511719</ele>
        <time>2014-01-11T13:11:10.000Z</time>
      </trkpt>
      <trkpt lat="45.20174" lon="6.34537">
        <ele>1697.1999511719</ele>
        <time>2014-01-11T13:11:11.000Z</time>
      </trkpt>
      <trkpt lat="45.20179" lon="6.34538">
        <ele>1697.1999511719</ele>
        <time>2014-01-11T13:11:13.000Z</time>
      </trkpt>
      <trkpt lat="45.20182" lon="6.34538">
        <ele>1697.1999511719</ele>
        <time>2014-01-11T13:11:14.000Z</time>
      </trkpt>
      <trkpt lat="45.20185" lon="6.34537">
        <ele>1697.1999511719</ele>
        <time>2014-01-11T13:11:16.000Z</time>
      </trkpt>
      <trkpt lat="45.20186" lon="6.34537">
        <ele>1697.1999511719</ele>
        <time>2014-01-11T13:11:17.000Z</time>
      </trkpt>
      <trkpt lat="45.20188" lon="6.34536">
        <ele>1697.4000244141</ele>
        <time>2014-01-11T13:11:18.000Z</time>
      </trkpt>
      <trkpt lat="45.2019" lon="6.34536">
        <ele>1697.5999755859</ele>
        <time>2014-01-11T13:11:19.000Z</time>
      </trkpt>
      <trkpt lat="45.20192" lon="6.34536">
        <ele>1697.8000488281</ele>
        <time>2014-01-11T13:11:20.000Z</time>
      </trkpt>
      <trkpt lat="45.20194" lon="6.34536">
        <ele>1697.8000488281</ele>
        <time>2014-01-11T13:11:21.000Z</time>
      </trkpt>
      <trkpt lat="45.20197" lon="6.34536">
        <ele>1698</ele>
        <time>2014-01-11T13:11:22.000Z</time>
      </trkpt>
      <trkpt lat="45.20199" lon="6.34536">
        <ele>1698</ele>
        <time>2014-01-11T13:11:23.000Z</time>
      </trkpt>
      <trkpt lat="45.20202" lon="6.34536">
        <ele>1698</ele>
        <time>2014-01-11T13:11:24.000Z</time>
      </trkpt>
      <trkpt lat="45.20204" lon="6.34536">
        <ele>1698.1999511719</ele>
        <time>2014-01-11T13:11:25.000Z</time>
      </trkpt>
      <trkpt lat="45.20206" lon="6.34537">
        <ele>1698.1999511719</ele>
        <time>2014-01-11T13:11:26.000Z</time>
      </trkpt>
      <trkpt lat="45.20208" lon="6.34537">
        <ele>1698.1999511719</ele>
        <time>2014-01-11T13:11:27.000Z</time>
      </trkpt>
      <trkpt lat="45.2021" lon="6.34538">
        <ele>1698.1999511719</ele>
        <time>2014-01-11T13:11:28.000Z</time>
      </trkpt>
      <trkpt lat="45.20212" lon="6.34539">
        <ele>1698.1999511719</ele>
        <time>2014-01-11T13:11:29.000Z</time>
      </trkpt>
      <trkpt lat="45.20214" lon="6.3454">
        <ele>1698.1999511719</ele>
        <time>2014-01-11T13:11:30.000Z</time>
      </trkpt>
      <trkpt lat="45.20216" lon="6.34541">
        <ele>1698.4000244141</ele>
        <time>2014-01-11T13:11:31.000Z</time>
      </trkpt>
      <trkpt lat="45.20219" lon="6.34542">
        <ele>1698.4000244141</ele>
        <time>2014-01-11T13:11:32.000Z</time>
      </trkpt>
      <trkpt lat="45.20221" lon="6.34544">
        <ele>1698.4000244141</ele>
        <time>2014-01-11T13:11:33.000Z</time>
      </trkpt>
      <trkpt lat="45.20224" lon="6.34546">
        <ele>1698.4000244141</ele>
        <time>2014-01-11T13:11:34.000Z</time>
      </trkpt>
      <trkpt lat="45.20226" lon="6.34548">
        <ele>1698.4000244141</ele>
        <time>2014-01-11T13:11:35.000Z</time>
      </trkpt>
      <trkpt lat="45.20228" lon="6.34549">
        <ele>1698.4000244141</ele>
        <time>2014-01-11T13:11:36.000Z</time>
      </trkpt>
      <trkpt lat="45.2023" lon="6.34551">
        <ele>1698.4000244141</ele>
        <time>2014-01-11T13:11:37.000Z</time>
      </trkpt>
      <trkpt lat="45.20232" lon="6.34553">
        <ele>1698.4000244141</ele>
        <time>2014-01-11T13:11:38.000Z</time>
      </trkpt>
      <trkpt lat="45.20235" lon="6.34557">
        <ele>1698.4000244141</ele>
        <time>2014-01-11T13:11:40.000Z</time>
      </trkpt>
      <trkpt lat="45.20238" lon="6.34558">
        <ele>1698.4000244141</ele>
        <time>2014-01-11T13:11:41.000Z</time>
      </trkpt>
      <trkpt lat="45.2024" lon="6.34559">
        <ele>1698.4000244141</ele>
        <time>2014-01-11T13:11:42.000Z</time>
      </trkpt>
      <trkpt lat="45.20243" lon="6.3456">
        <ele>1698.4000244141</ele>
        <time>2014-01-11T13:11:43.000Z</time>
      </trkpt>
      <trkpt lat="45.20246" lon="6.34559">
        <ele>1698.1999511719</ele>
        <time>2014-01-11T13:11:44.000Z</time>
      </trkpt>
      <trkpt lat="45.20249" lon="6.34558">
        <ele>1698</ele>
        <time>2014-01-11T13:11:45.000Z</time>
      </trkpt>
      <trkpt lat="45.20251" lon="6.34557">
        <ele>1697.8000488281</ele>
        <time>2014-01-11T13:11:46.000Z</time>
      </trkpt>
      <trkpt lat="45.20252" lon="6.34555">
        <ele>1697.8000488281</ele>
        <time>2014-01-11T13:11:47.000Z</time>
      </trkpt>
      <trkpt lat="45.20253" lon="6.34554">
        <ele>1697.8000488281</ele>
        <time>2014-01-11T13:11:48.000Z</time>
      </trkpt>
      <trkpt lat="45.20253" lon="6.34553">
        <ele>1697.8000488281</ele>
        <time>2014-01-11T13:11:49.000Z</time>
      </trkpt>
      <trkpt lat="45.20254" lon="6.34551">
        <ele>1697.8000488281</ele>
        <time>2014-01-11T13:11:50.000Z</time>
      </trkpt>
      <trkpt lat="45.20254" lon="6.3455">
        <ele>1697.8000488281</ele>
        <time>2014-01-11T13:11:51.000Z</time>
      </trkpt>
      <trkpt lat="45.20254" lon="6.34548">
        <ele>1697.8000488281</ele>
        <time>2014-01-11T13:11:52.000Z</time>
      </trkpt>
      <trkpt lat="45.20254" lon="6.34548">
        <ele>1697.8000488281</ele>
        <time>2014-01-11T13:11:53.000Z</time>
      </trkpt>
      <trkpt lat="45.20254" lon="6.34546">
        <ele>1697.8000488281</ele>
        <time>2014-01-11T13:11:54.000Z</time>
      </trkpt>
      <trkpt lat="45.20255" lon="6.34544">
        <ele>1697.8000488281</ele>
        <time>2014-01-11T13:11:55.000Z</time>
      </trkpt>
      <trkpt lat="45.20255" lon="6.34542">
        <ele>1698</ele>
        <time>2014-01-11T13:11:56.000Z</time>
      </trkpt>
      <trkpt lat="45.20254" lon="6.34539">
        <ele>1698</ele>
        <time>2014-01-11T13:11:57.000Z</time>
      </trkpt>
      <trkpt lat="45.20253" lon="6.34536">
        <ele>1698.1999511719</ele>
        <time>2014-01-11T13:11:58.000Z</time>
      </trkpt>
      <trkpt lat="45.20252" lon="6.34534">
        <ele>1698.1999511719</ele>
        <time>2014-01-11T13:11:59.000Z</time>
      </trkpt>
      <trkpt lat="45.20251" lon="6.34531">
        <ele>1698.4000244141</ele>
        <time>2014-01-11T13:12:00.000Z</time>
      </trkpt>
      <trkpt lat="45.20251" lon="6.34528">
        <ele>1698.4000244141</ele>
        <time>2014-01-11T13:12:01.000Z</time>
      </trkpt>
      <trkpt lat="45.2025" lon="6.34525">
        <ele>1698.5999755859</ele>
        <time>2014-01-11T13:12:02.000Z</time>
      </trkpt>
      <trkpt lat="45.20249" lon="6.34522">
        <ele>1698.5999755859</ele>
        <time>2014-01-11T13:12:03.000Z</time>
      </trkpt>
      <trkpt lat="45.20248" lon="6.34519">
        <ele>1698.5999755859</ele>
        <time>2014-01-11T13:12:04.000Z</time>
      </trkpt>
      <trkpt lat="45.20247" lon="6.34516">
        <ele>1698.5999755859</ele>
        <time>2014-01-11T13:12:05.000Z</time>
      </trkpt>
      <trkpt lat="45.20246" lon="6.3451">
        <ele>1698.5999755859</ele>
        <time>2014-01-11T13:12:07.000Z</time>
      </trkpt>
      <trkpt lat="45.20245" lon="6.34507">
        <ele>1698.5999755859</ele>
        <time>2014-01-11T13:12:08.000Z</time>
      </trkpt>
      <trkpt lat="45.20243" lon="6.345">
        <ele>1698.5999755859</ele>
        <time>2014-01-11T13:12:10.000Z</time>
      </trkpt>
      <trkpt lat="45.20242" lon="6.34496">
        <ele>1698.5999755859</ele>
        <time>2014-01-11T13:12:11.000Z</time>
      </trkpt>
      <trkpt lat="45.20241" lon="6.34492">
        <ele>1698.5999755859</ele>
        <time>2014-01-11T13:12:12.000Z</time>
      </trkpt>
      <trkpt lat="45.20239" lon="6.34487">
        <ele>1698.5999755859</ele>
        <time>2014-01-11T13:12:13.000Z</time>
      </trkpt>
      <trkpt lat="45.20239" lon="6.34484">
        <ele>1698.4000244141</ele>
        <time>2014-01-11T13:12:14.000Z</time>
      </trkpt>
      <trkpt lat="45.20237" lon="6.3448">
        <ele>1698.4000244141</ele>
        <time>2014-01-11T13:12:15.000Z</time>
      </trkpt>
      <trkpt lat="45.20236" lon="6.34476">
        <ele>1698.4000244141</ele>
        <time>2014-01-11T13:12:16.000Z</time>
      </trkpt>
      <trkpt lat="45.20235" lon="6.34472">
        <ele>1698.1999511719</ele>
        <time>2014-01-11T13:12:17.000Z</time>
      </trkpt>
      <trkpt lat="45.20233" lon="6.34469">
        <ele>1698.1999511719</ele>
        <time>2014-01-11T13:12:18.000Z</time>
      </trkpt>
      <trkpt lat="45.20231" lon="6.34465">
        <ele>1698</ele>
        <time>2014-01-11T13:12:19.000Z</time>
      </trkpt>
      <trkpt lat="45.20229" lon="6.34461">
        <ele>1698</ele>
        <time>2014-01-11T13:12:20.000Z</time>
      </trkpt>
      <trkpt lat="45.20228" lon="6.34457">
        <ele>1698</ele>
        <time>2014-01-11T13:12:21.000Z</time>
      </trkpt>
      <trkpt lat="45.20227" lon="6.34453">
        <ele>1697.8000488281</ele>
        <time>2014-01-11T13:12:22.000Z</time>
      </trkpt>
      <trkpt lat="45.20225" lon="6.34448">
        <ele>1697.8000488281</ele>
        <time>2014-01-11T13:12:23.000Z</time>
      </trkpt>
      <trkpt lat="45.20224" lon="6.34443">
        <ele>1697.8000488281</ele>
        <time>2014-01-11T13:12:24.000Z</time>
      </trkpt>
      <trkpt lat="45.20224" lon="6.34437">
        <ele>1697.5999755859</ele>
        <time>2014-01-11T13:12:25.000Z</time>
      </trkpt>
      <trkpt lat="45.20226" lon="6.34431">
        <ele>1697.5999755859</ele>
        <time>2014-01-11T13:12:26.000Z</time>
      </trkpt>
      <trkpt lat="45.20229" lon="6.34424">
        <ele>1697.4000244141</ele>
        <time>2014-01-11T13:12:27.000Z</time>
      </trkpt>
      <trkpt lat="45.20233" lon="6.34418">
        <ele>1697.1999511719</ele>
        <time>2014-01-11T13:12:28.000Z</time>
      </trkpt>
      <trkpt lat="45.20237" lon="6.34412">
        <ele>1697</ele>
        <time>2014-01-11T13:12:29.000Z</time>
      </trkpt>
      <trkpt lat="45.20242" lon="6.34408">
        <ele>1696.4000244141</ele>
        <time>2014-01-11T13:12:30.000Z</time>
      </trkpt>
      <trkpt lat="45.20247" lon="6.34406">
        <ele>1696</ele>
        <time>2014-01-11T13:12:31.000Z</time>
      </trkpt>
      <trkpt lat="45.20254" lon="6.34405">
        <ele>1695.4000244141</ele>
        <time>2014-01-11T13:12:32.000Z</time>
      </trkpt>
      <trkpt lat="45.20261" lon="6.34406">
        <ele>1695</ele>
        <time>2014-01-11T13:12:33.000Z</time>
      </trkpt>
      <trkpt lat="45.20268" lon="6.34406">
        <ele>1694.5999755859</ele>
        <time>2014-01-11T13:12:34.000Z</time>
      </trkpt>
      <trkpt lat="45.20276" lon="6.34407">
        <ele>1694</ele>
        <time>2014-01-11T13:12:35.000Z</time>
      </trkpt>
      <trkpt lat="45.20284" lon="6.34409">
        <ele>1693.4000244141</ele>
        <time>2014-01-11T13:12:36.000Z</time>
      </trkpt>
      <trkpt lat="45.20293" lon="6.3441">
        <ele>1692.8000488281</ele>
        <time>2014-01-11T13:12:37.000Z</time>
      </trkpt>
      <trkpt lat="45.203" lon="6.34412">
        <ele>1692.1999511719</ele>
        <time>2014-01-11T13:12:38.000Z</time>
      </trkpt>
      <trkpt lat="45.20308" lon="6.34416">
        <ele>1691.5999755859</ele>
        <time>2014-01-11T13:12:39.000Z</time>
      </trkpt>
      <trkpt lat="45.20315" lon="6.34418">
        <ele>1691</ele>
        <time>2014-01-11T13:12:40.000Z</time>
      </trkpt>
      <trkpt lat="45.20322" lon="6.34421">
        <ele>1690.4000244141</ele>
        <time>2014-01-11T13:12:41.000Z</time>
      </trkpt>
      <trkpt lat="45.20329" lon="6.34424">
        <ele>1689.5999755859</ele>
        <time>2014-01-11T13:12:42.000Z</time>
      </trkpt>
      <trkpt lat="45.20335" lon="6.34427">
        <ele>1689</ele>
        <time>2014-01-11T13:12:43.000Z</time>
      </trkpt>
      <trkpt lat="45.20342" lon="6.34431">
        <ele>1688.4000244141</ele>
        <time>2014-01-11T13:12:44.000Z</time>
      </trkpt>
      <trkpt lat="45.20349" lon="6.34434">
        <ele>1687.8000488281</ele>
        <time>2014-01-11T13:12:45.000Z</time>
      </trkpt>
      <trkpt lat="45.20356" lon="6.34436">
        <ele>1687.4000244141</ele>
        <time>2014-01-11T13:12:46.000Z</time>
      </trkpt>
      <trkpt lat="45.20362" lon="6.34439">
        <ele>1686.8000488281</ele>
        <time>2014-01-11T13:12:47.000Z</time>
      </trkpt>
      <trkpt lat="45.20369" lon="6.3444">
        <ele>1686.4000244141</ele>
        <time>2014-01-11T13:12:48.000Z</time>
      </trkpt>
      <trkpt lat="45.20375" lon="6.34436">
        <ele>1686</ele>
        <time>2014-01-11T13:12:49.000Z</time>
      </trkpt>
      <trkpt lat="45.2038" lon="6.34429">
        <ele>1685.5999755859</ele>
        <time>2014-01-11T13:12:50.000Z</time>
      </trkpt>
      <trkpt lat="45.20384" lon="6.3442">
        <ele>1685</ele>
        <time>2014-01-11T13:12:51.000Z</time>
      </trkpt>
      <trkpt lat="45.20388" lon="6.34411">
        <ele>1684.5999755859</ele>
        <time>2014-01-11T13:12:52.000Z</time>
      </trkpt>
      <trkpt lat="45.20392" lon="6.34402">
        <ele>1684</ele>
        <time>2014-01-11T13:12:53.000Z</time>
      </trkpt>
      <trkpt lat="45.20396" lon="6.34392">
        <ele>1682.5999755859</ele>
        <time>2014-01-11T13:12:54.000Z</time>
      </trkpt>
      <trkpt lat="45.204" lon="6.34384">
        <ele>1681.8000488281</ele>
        <time>2014-01-11T13:12:55.000Z</time>
      </trkpt>
      <trkpt lat="45.20405" lon="6.34375">
        <ele>1681.1999511719</ele>
        <time>2014-01-11T13:12:56.000Z</time>
      </trkpt>
      <trkpt lat="45.20408" lon="6.34366">
        <ele>1680.5999755859</ele>
        <time>2014-01-11T13:12:57.000Z</time>
      </trkpt>
      <trkpt lat="45.20411" lon="6.34357">
        <ele>1679.8000488281</ele>
        <time>2014-01-11T13:12:58.000Z</time>
      </trkpt>
      <trkpt lat="45.20416" lon="6.34348">
        <ele>1679.1999511719</ele>
        <time>2014-01-11T13:12:59.000Z</time>
      </trkpt>
      <trkpt lat="45.20418" lon="6.3434">
        <ele>1678.4000244141</ele>
        <time>2014-01-11T13:13:00.000Z</time>
      </trkpt>
      <trkpt lat="45.20421" lon="6.34331">
        <ele>1677.4000244141</ele>
        <time>2014-01-11T13:13:01.000Z</time>
      </trkpt>
      <trkpt lat="45.20424" lon="6.34323">
        <ele>1676.4000244141</ele>
        <time>2014-01-11T13:13:02.000Z</time>
      </trkpt>
      <trkpt lat="45.20427" lon="6.34314">
        <ele>1675.5999755859</ele>
        <time>2014-01-11T13:13:03.000Z</time>
      </trkpt>
      <trkpt lat="45.20429" lon="6.34305">
        <ele>1674.8000488281</ele>
        <time>2014-01-11T13:13:04.000Z</time>
      </trkpt>
      <trkpt lat="45.20431" lon="6.34295">
        <ele>1674</ele>
        <time>2014-01-11T13:13:05.000Z</time>
      </trkpt>
      <trkpt lat="45.20435" lon="6.34287">
        <ele>1673.1999511719</ele>
        <time>2014-01-11T13:13:06.000Z</time>
      </trkpt>
      <trkpt lat="45.20437" lon="6.34278">
        <ele>1672.5999755859</ele>
        <time>2014-01-11T13:13:07.000Z</time>
      </trkpt>
      <trkpt lat="45.20441" lon="6.34269">
        <ele>1671.8000488281</ele>
        <time>2014-01-11T13:13:08.000Z</time>
      </trkpt>
      <trkpt lat="45.20443" lon="6.3426">
        <ele>1671</ele>
        <time>2014-01-11T13:13:09.000Z</time>
      </trkpt>
      <trkpt lat="45.20446" lon="6.34251">
        <ele>1670.4000244141</ele>
        <time>2014-01-11T13:13:10.000Z</time>
      </trkpt>
      <trkpt lat="45.20449" lon="6.34242">
        <ele>1669.5999755859</ele>
        <time>2014-01-11T13:13:11.000Z</time>
      </trkpt>
      <trkpt lat="45.20451" lon="6.34232">
        <ele>1668.8000488281</ele>
        <time>2014-01-11T13:13:12.000Z</time>
      </trkpt>
      <trkpt lat="45.20455" lon="6.34223">
        <ele>1668</ele>
        <time>2014-01-11T13:13:13.000Z</time>
      </trkpt>
      <trkpt lat="45.2046" lon="6.34215">
        <ele>1667.1999511719</ele>
        <time>2014-01-11T13:13:14.000Z</time>
      </trkpt>
      <trkpt lat="45.20465" lon="6.34211">
        <ele>1666.5999755859</ele>
        <time>2014-01-11T13:13:15.000Z</time>
      </trkpt>
      <trkpt lat="45.20471" lon="6.3421">
        <ele>1665.8000488281</ele>
        <time>2014-01-11T13:13:16.000Z</time>
      </trkpt>
      <trkpt lat="45.20478" lon="6.3421">
        <ele>1665.1999511719</ele>
        <time>2014-01-11T13:13:17.000Z</time>
      </trkpt>
      <trkpt lat="45.20486" lon="6.34208">
        <ele>1663.8000488281</ele>
        <time>2014-01-11T13:13:18.000Z</time>
      </trkpt>
      <trkpt lat="45.20494" lon="6.34206">
        <ele>1663</ele>
        <time>2014-01-11T13:13:19.000Z</time>
      </trkpt>
      <trkpt lat="45.20503" lon="6.34203">
        <ele>1662</ele>
        <time>2014-01-11T13:13:20.000Z</time>
      </trkpt>
      <trkpt lat="45.20511" lon="6.34202">
        <ele>1661</ele>
        <time>2014-01-11T13:13:21.000Z</time>
      </trkpt>
      <trkpt lat="45.2052" lon="6.34201">
        <ele>1660</ele>
        <time>2014-01-11T13:13:22.000Z</time>
      </trkpt>
      <trkpt lat="45.20528" lon="6.34198">
        <ele>1659</ele>
        <time>2014-01-11T13:13:23.000Z</time>
      </trkpt>
      <trkpt lat="45.20536" lon="6.34197">
        <ele>1658.1999511719</ele>
        <time>2014-01-11T13:13:24.000Z</time>
      </trkpt>
      <trkpt lat="45.20545" lon="6.34195">
        <ele>1657.5999755859</ele>
        <time>2014-01-11T13:13:25.000Z</time>
      </trkpt>
      <trkpt lat="45.20553" lon="6.34193">
        <ele>1657</ele>
        <time>2014-01-11T13:13:26.000Z</time>
      </trkpt>
      <trkpt lat="45.20559" lon="6.34189">
        <ele>1656.1999511719</ele>
        <time>2014-01-11T13:13:27.000Z</time>
      </trkpt>
      <trkpt lat="45.20565" lon="6.34187">
        <ele>1655.4000244141</ele>
        <time>2014-01-11T13:13:28.000Z</time>
      </trkpt>
      <trkpt lat="45.2057" lon="6.34186">
        <ele>1654.4000244141</ele>
        <time>2014-01-11T13:13:29.000Z</time>
      </trkpt>
      <trkpt lat="45.20573" lon="6.34185">
        <ele>1653.5999755859</ele>
        <time>2014-01-11T13:13:30.000Z</time>
      </trkpt>
      <trkpt lat="45.20575" lon="6.34183">
        <ele>1652.5999755859</ele>
        <time>2014-01-11T13:13:31.000Z</time>
      </trkpt>
      <trkpt lat="45.20577" lon="6.34181">
        <ele>1651.5999755859</ele>
        <time>2014-01-11T13:13:32.000Z</time>
      </trkpt>
      <trkpt lat="45.20579" lon="6.34179">
        <ele>1650.8000488281</ele>
        <time>2014-01-11T13:13:33.000Z</time>
      </trkpt>
      <trkpt lat="45.20581" lon="6.34177">
        <ele>1650</ele>
        <time>2014-01-11T13:13:34.000Z</time>
      </trkpt>
      <trkpt lat="45.20583" lon="6.34175">
        <ele>1649.4000244141</ele>
        <time>2014-01-11T13:13:35.000Z</time>
      </trkpt>
      <trkpt lat="45.20584" lon="6.34173">
        <ele>1649</ele>
        <time>2014-01-11T13:13:36.000Z</time>
      </trkpt>
      <trkpt lat="45.20585" lon="6.34171">
        <ele>1648.5999755859</ele>
        <time>2014-01-11T13:13:37.000Z</time>
      </trkpt>
      <trkpt lat="45.20585" lon="6.34171">
        <ele>1648.4000244141</ele>
        <time>2014-01-11T13:13:38.000Z</time>
      </trkpt>
      <trkpt lat="45.20585" lon="6.34171">
        <ele>1648</ele>
        <time>2014-01-11T13:13:39.000Z</time>
      </trkpt>
      <trkpt lat="45.20585" lon="6.34171">
        <ele>1648</ele>
        <time>2014-01-11T13:13:40.000Z</time>
      </trkpt>
      <trkpt lat="45.20585" lon="6.34171">
        <ele>1647.8000488281</ele>
        <time>2014-01-11T13:13:41.000Z</time>
      </trkpt>
      <trkpt lat="45.20585" lon="6.34171">
        <ele>1647.5999755859</ele>
        <time>2014-01-11T13:13:42.000Z</time>
      </trkpt>
      <trkpt lat="45.20585" lon="6.34171">
        <ele>1647.5999755859</ele>
        <time>2014-01-11T13:13:43.000Z</time>
      </trkpt>
      <trkpt lat="45.20585" lon="6.34171">
        <ele>1647.5999755859</ele>
        <time>2014-01-11T13:13:44.000Z</time>
      </trkpt>
      <trkpt lat="45.20585" lon="6.34171">
        <ele>1647.5999755859</ele>
        <time>2014-01-11T13:13:45.000Z</time>
      </trkpt>
      <trkpt lat="45.20585" lon="6.34171">
        <ele>1647.5999755859</ele>
        <time>2014-01-11T13:13:46.000Z</time>
      </trkpt>
      <trkpt lat="45.20585" lon="6.34171">
        <ele>1647.5999755859</ele>
        <time>2014-01-11T13:13:47.000Z</time>
      </trkpt>
      <trkpt lat="45.20585" lon="6.34171">
        <ele>1647.4000244141</ele>
        <time>2014-01-11T13:13:48.000Z</time>
      </trkpt>
      <trkpt lat="45.20585" lon="6.34171">
        <ele>1647.4000244141</ele>
        <time>2014-01-11T13:13:49.000Z</time>
      </trkpt>
      <trkpt lat="45.20585" lon="6.34171">
        <ele>1647.4000244141</ele>
        <time>2014-01-11T13:13:50.000Z</time>
      </trkpt>
      <trkpt lat="45.20585" lon="6.34171">
        <ele>1647.4000244141</ele>
        <time>2014-01-11T13:13:51.000Z</time>
      </trkpt>
      <trkpt lat="45.20585" lon="6.34171">
        <ele>1647.4000244141</ele>
        <time>2014-01-11T13:13:52.000Z</time>
      </trkpt>
      <trkpt lat="45.20585" lon="6.34171">
        <ele>1647.1999511719</ele>
        <time>2014-01-11T13:13:53.000Z</time>
      </trkpt>
      <trkpt lat="45.20585" lon="6.34171">
        <ele>1647.1999511719</ele>
        <time>2014-01-11T13:13:54.000Z</time>
      </trkpt>
      <trkpt lat="45.20585" lon="6.34171">
        <ele>1647.1999511719</ele>
        <time>2014-01-11T13:13:55.000Z</time>
      </trkpt>
      <trkpt lat="45.20585" lon="6.34171">
        <ele>1647.1999511719</ele>
        <time>2014-01-11T13:13:56.000Z</time>
      </trkpt>
      <trkpt lat="45.20585" lon="6.34171">
        <ele>1647.1999511719</ele>
        <time>2014-01-11T13:13:57.000Z</time>
      </trkpt>
      <trkpt lat="45.20585" lon="6.34171">
        <ele>1647.1999511719</ele>
        <time>2014-01-11T13:13:58.000Z</time>
      </trkpt>
      <trkpt lat="45.20585" lon="6.34171">
        <ele>1647.1999511719</ele>
        <time>2014-01-11T13:13:59.000Z</time>
      </trkpt>
      <trkpt lat="45.20585" lon="6.34171">
        <ele>1647.4000244141</ele>
        <time>2014-01-11T13:14:00.000Z</time>
      </trkpt>
      <trkpt lat="45.20585" lon="6.34171">
        <ele>1647.4000244141</ele>
        <time>2014-01-11T13:14:01.000Z</time>
      </trkpt>
      <trkpt lat="45.20585" lon="6.34171">
        <ele>1647.4000244141</ele>
        <time>2014-01-11T13:14:02.000Z</time>
      </trkpt>
      <trkpt lat="45.20585" lon="6.34171">
        <ele>1647.4000244141</ele>
        <time>2014-01-11T13:14:03.000Z</time>
      </trkpt>
      <trkpt lat="45.20585" lon="6.34171">
        <ele>1647.4000244141</ele>
        <time>2014-01-11T13:14:04.000Z</time>
      </trkpt>
      <trkpt lat="45.20585" lon="6.34171">
        <ele>1647.4000244141</ele>
        <time>2014-01-11T13:14:05.000Z</time>
      </trkpt>
      <trkpt lat="45.20585" lon="6.34171">
        <ele>1647.4000244141</ele>
        <time>2014-01-11T13:14:06.000Z</time>
      </trkpt>
      <trkpt lat="45.20585" lon="6.34171">
        <ele>1647.5999755859</ele>
        <time>2014-01-11T13:14:07.000Z</time>
      </trkpt>
      <trkpt lat="45.20585" lon="6.34171">
        <ele>1647.5999755859</ele>
        <time>2014-01-11T13:14:08.000Z</time>
      </trkpt>
      <trkpt lat="45.20585" lon="6.34171">
        <ele>1647.5999755859</ele>
        <time>2014-01-11T13:14:09.000Z</time>
      </trkpt>
      <trkpt lat="45.20585" lon="6.34171">
        <ele>1647.5999755859</ele>
        <time>2014-01-11T13:14:11.000Z</time>
      </trkpt>
      <trkpt lat="45.20585" lon="6.34171">
        <ele>1647.4000244141</ele>
        <time>2014-01-11T13:14:12.000Z</time>
      </trkpt>
      <trkpt lat="45.20585" lon="6.34171">
        <ele>1647.4000244141</ele>
        <time>2014-01-11T13:14:13.000Z</time>
      </trkpt>
      <trkpt lat="45.20585" lon="6.34171">
        <ele>1647.4000244141</ele>
        <time>2014-01-11T13:14:14.000Z</time>
      </trkpt>
      <trkpt lat="45.20585" lon="6.34171">
        <ele>1647.4000244141</ele>
        <time>2014-01-11T13:14:15.000Z</time>
      </trkpt>
      <trkpt lat="45.20585" lon="6.34171">
        <ele>1647.4000244141</ele>
        <time>2014-01-11T13:14:16.000Z</time>
      </trkpt>
      <trkpt lat="45.20585" lon="6.34171">
        <ele>1647.4000244141</ele>
        <time>2014-01-11T13:14:18.000Z</time>
      </trkpt>
      <trkpt lat="45.20584" lon="6.3417">
        <ele>1647.4000244141</ele>
        <time>2014-01-11T13:14:19.000Z</time>
      </trkpt>
      <trkpt lat="45.20584" lon="6.3417">
        <ele>1647.4000244141</ele>
        <time>2014-01-11T13:14:21.000Z</time>
      </trkpt>
      <trkpt lat="45.20584" lon="6.3417">
        <ele>1647.4000244141</ele>
        <time>2014-01-11T13:14:23.000Z</time>
      </trkpt>
      <trkpt lat="45.20585" lon="6.3417">
        <ele>1647.4000244141</ele>
        <time>2014-01-11T13:14:24.000Z</time>
      </trkpt>
      <trkpt lat="45.20585" lon="6.34169">
        <ele>1647.1999511719</ele>
        <time>2014-01-11T13:14:25.000Z</time>
      </trkpt>
      <trkpt lat="45.20586" lon="6.34167">
        <ele>1647.1999511719</ele>
        <time>2014-01-11T13:14:26.000Z</time>
      </trkpt>
      <trkpt lat="45.20587" lon="6.34166">
        <ele>1647.1999511719</ele>
        <time>2014-01-11T13:14:27.000Z</time>
      </trkpt>
      <trkpt lat="45.20588" lon="6.34165">
        <ele>1647.1999511719</ele>
        <time>2014-01-11T13:14:28.000Z</time>
      </trkpt>
      <trkpt lat="45.20588" lon="6.34164">
        <ele>1647.1999511719</ele>
        <time>2014-01-11T13:14:29.000Z</time>
      </trkpt>
      <trkpt lat="45.20589" lon="6.34163">
        <ele>1647</ele>
        <time>2014-01-11T13:14:30.000Z</time>
      </trkpt>
      <trkpt lat="45.2059" lon="6.34163">
        <ele>1647</ele>
        <time>2014-01-11T13:14:31.000Z</time>
      </trkpt>
      <trkpt lat="45.2059" lon="6.34163">
        <ele>1646.8000488281</ele>
        <time>2014-01-11T13:14:32.000Z</time>
      </trkpt>
      <trkpt lat="45.2059" lon="6.34163">
        <ele>1646.8000488281</ele>
        <time>2014-01-11T13:14:33.000Z</time>
      </trkpt>
      <trkpt lat="45.20591" lon="6.34163">
        <ele>1646.8000488281</ele>
        <time>2014-01-11T13:14:34.000Z</time>
      </trkpt>
      <trkpt lat="45.20591" lon="6.34163">
        <ele>1646.8000488281</ele>
        <time>2014-01-11T13:14:35.000Z</time>
      </trkpt>
      <trkpt lat="45.20591" lon="6.34163">
        <ele>1646.8000488281</ele>
        <time>2014-01-11T13:14:38.000Z</time>
      </trkpt>
      <trkpt lat="45.20591" lon="6.34163">
        <ele>1646.8000488281</ele>
        <time>2014-01-11T13:14:39.000Z</time>
      </trkpt>
      <trkpt lat="45.20591" lon="6.34163">
        <ele>1646.8000488281</ele>
        <time>2014-01-11T13:14:40.000Z</time>
      </trkpt>
      <trkpt lat="45.20591" lon="6.34163">
        <ele>1646.8000488281</ele>
        <time>2014-01-11T13:14:41.000Z</time>
      </trkpt>
      <trkpt lat="45.20591" lon="6.34163">
        <ele>1646.8000488281</ele>
        <time>2014-01-11T13:14:42.000Z</time>
      </trkpt>
      <trkpt lat="45.20591" lon="6.34163">
        <ele>1646.8000488281</ele>
        <time>2014-01-11T13:14:43.000Z</time>
      </trkpt>
      <trkpt lat="45.20591" lon="6.34163">
        <ele>1646.8000488281</ele>
        <time>2014-01-11T13:14:45.000Z</time>
      </trkpt>
      <trkpt lat="45.20591" lon="6.34163">
        <ele>1646.8000488281</ele>
        <time>2014-01-11T13:14:47.000Z</time>
      </trkpt>
      <trkpt lat="45.20591" lon="6.34163">
        <ele>1646.8000488281</ele>
        <time>2014-01-11T13:14:48.000Z</time>
      </trkpt>
      <trkpt lat="45.20591" lon="6.34163">
        <ele>1646.8000488281</ele>
        <time>2014-01-11T13:14:49.000Z</time>
      </trkpt>
      <trkpt lat="45.20591" lon="6.34163">
        <ele>1646.8000488281</ele>
        <time>2014-01-11T13:14:53.000Z</time>
      </trkpt>
      <trkpt lat="45.20591" lon="6.34163">
        <ele>1646.8000488281</ele>
        <time>2014-01-11T13:14:54.000Z</time>
      </trkpt>
      <trkpt lat="45.20591" lon="6.34163">
        <ele>1647</ele>
        <time>2014-01-11T13:14:55.000Z</time>
      </trkpt>
      <trkpt lat="45.20591" lon="6.34163">
        <ele>1647</ele>
        <time>2014-01-11T13:14:56.000Z</time>
      </trkpt>
      <trkpt lat="45.20591" lon="6.34163">
        <ele>1647</ele>
        <time>2014-01-11T13:14:57.000Z</time>
      </trkpt>
      <trkpt lat="45.20591" lon="6.34163">
        <ele>1647</ele>
        <time>2014-01-11T13:14:58.000Z</time>
      </trkpt>
      <trkpt lat="45.20591" lon="6.34163">
        <ele>1647</ele>
        <time>2014-01-11T13:14:59.000Z</time>
      </trkpt>
      <trkpt lat="45.20591" lon="6.34163">
        <ele>1647</ele>
        <time>2014-01-11T13:15:01.000Z</time>
      </trkpt>
      <trkpt lat="45.20591" lon="6.34163">
        <ele>1647</ele>
        <time>2014-01-11T13:15:02.000Z</time>
      </trkpt>
      <trkpt lat="45.20591" lon="6.34163">
        <ele>1647</ele>
        <time>2014-01-11T13:15:03.000Z</time>
      </trkpt>
      <trkpt lat="45.20591" lon="6.34163">
        <ele>1647</ele>
        <time>2014-01-11T13:15:04.000Z</time>
      </trkpt>
      <trkpt lat="45.20591" lon="6.34163">
        <ele>1647</ele>
        <time>2014-01-11T13:15:06.000Z</time>
      </trkpt>
      <trkpt lat="45.20591" lon="6.34163">
        <ele>1647</ele>
        <time>2014-01-11T13:15:07.000Z</time>
      </trkpt>
      <trkpt lat="45.20591" lon="6.34163">
        <ele>1647.1999511719</ele>
        <time>2014-01-11T13:15:08.000Z</time>
      </trkpt>
      <trkpt lat="45.20591" lon="6.34163">
        <ele>1647.1999511719</ele>
        <time>2014-01-11T13:15:09.000Z</time>
      </trkpt>
      <trkpt lat="45.20591" lon="6.34163">
        <ele>1647.1999511719</ele>
        <time>2014-01-11T13:15:10.000Z</time>
      </trkpt>
      <trkpt lat="45.20591" lon="6.34163">
        <ele>1647.4000244141</ele>
        <time>2014-01-11T13:15:11.000Z</time>
      </trkpt>
      <trkpt lat="45.20591" lon="6.34163">
        <ele>1647.4000244141</ele>
        <time>2014-01-11T13:15:12.000Z</time>
      </trkpt>
      <trkpt lat="45.20591" lon="6.34163">
        <ele>1647.4000244141</ele>
        <time>2014-01-11T13:15:13.000Z</time>
      </trkpt>
      <trkpt lat="45.20591" lon="6.34163">
        <ele>1647.4000244141</ele>
        <time>2014-01-11T13:15:14.000Z</time>
      </trkpt>
      <trkpt lat="45.20591" lon="6.34163">
        <ele>1647.1999511719</ele>
        <time>2014-01-11T13:15:15.000Z</time>
      </trkpt>
      <trkpt lat="45.20591" lon="6.34163">
        <ele>1647.1999511719</ele>
        <time>2014-01-11T13:15:16.000Z</time>
      </trkpt>
      <trkpt lat="45.20591" lon="6.34163">
        <ele>1647.1999511719</ele>
        <time>2014-01-11T13:15:17.000Z</time>
      </trkpt>
      <trkpt lat="45.20591" lon="6.34163">
        <ele>1647.1999511719</ele>
        <time>2014-01-11T13:15:18.000Z</time>
      </trkpt>
      <trkpt lat="45.20591" lon="6.34163">
        <ele>1647.1999511719</ele>
        <time>2014-01-11T13:15:20.000Z</time>
      </trkpt>
      <trkpt lat="45.20591" lon="6.34163">
        <ele>1647.1999511719</ele>
        <time>2014-01-11T13:15:21.000Z</time>
      </trkpt>
    </trkseg>
  </trk>
</gpx>